
Distance (Route):
Temperature : 15.3°C
Humidity : 89.4%
Pressure : 1003.4hPa| Receiver | Frames | First received | Last received |
|---|---|---|---|
| DF8AY | 903 | 2026-08-31 22:49:59 | 2026-09-01 01:34:30 |
| DL1XH-west | 829 | 2026-08-31 22:48:36 | 2026-09-01 01:26:04 |
| AA1-15 | 743 | 2026-08-31 22:51:25 | 2026-09-01 01:30:19 |
| DO2SHX-10 | 738 | 2026-08-31 22:56:22 | 2026-09-01 01:23:57 |
| BIOWL1-15 | 649 | 2026-08-31 22:48:01 | 2026-09-01 01:26:53 |
| DM0DOS-11 | 647 | 2026-08-31 22:47:10 | 2026-09-01 01:29:42 |
| DL1XH-15 | 642 | 2026-08-31 22:49:09 | 2026-09-01 01:23:58 |
| DL1XH1-15 | 593 | 2026-08-31 22:48:50 | 2026-09-01 01:25:11 |
| DB0DAN | 392 | 2026-08-31 22:45:40 | 2026-09-01 01:37:55 |
| HSKMA3-T | 367 | 2026-08-31 23:37:38 | 2026-09-01 01:01:18 |
| GOEST3-10 | 306 | 2026-08-31 22:55:28 | 2026-09-01 01:11:22 |
| DL1NUX | 276 | 2026-08-31 23:45:50 | 2026-09-01 00:54:34 |
| DD8BA-10 | 179 | 2026-08-31 22:50:59 | 2026-09-01 01:16:23 |
| AM1SDL-15 | 143 | 2026-08-31 22:51:00 | 2026-09-01 01:38:07 |
| DF8AY-15 | 101 | 2026-08-31 22:50:16 | 2026-09-01 01:31:46 |
| DF7ER-10 | 85 | 2026-08-31 23:01:00 | 2026-09-01 01:29:17 |
| DL4XJ-10 | 84 | 2026-08-31 22:55:18 | 2026-09-01 01:18:41 |
| DL3AQ-11 | 71 | 2026-08-31 23:03:04 | 2026-09-01 00:59:45 |
| EDDB2-12 | 61 | 2026-08-31 23:09:38 | 2026-09-01 01:28:48 |
| DB0NH | 57 | 2026-08-31 23:02:14 | 2026-09-01 01:17:16 |
| DO3MHA-11 | 56 | 2026-08-31 23:54:05 | 2026-09-01 00:50:24 |
| S3001 | 55 | 2026-08-31 22:57:15 | 2026-09-01 01:35:04 |
| SONCRA | 53 | 2026-08-31 22:55:55 | 2026-09-01 01:27:09 |
| DB0UT-7 | 53 | 2026-08-31 23:08:39 | 2026-09-01 01:07:58 |
| SONDE2-11 | 47 | 2026-08-31 23:00:02 | 2026-09-01 01:29:36 |
| TFSTFS | 46 | 2026-08-31 23:12:20 | 2026-09-01 01:31:45 |
| EDDB2-11 | 46 | 2026-08-31 23:13:45 | 2026-09-01 01:27:45 |
| SMARD9-15 | 43 | 2026-08-31 22:54:49 | 2026-09-01 01:01:37 |
| BIOWL9-15 | 42 | 2026-08-31 22:52:36 | 2026-09-01 01:24:44 |
| DJ2DS-15 | 31 | 2026-08-31 22:52:17 | 2026-09-01 01:18:17 |
| HTAHTA | 31 | 2026-08-31 23:12:59 | 2026-09-01 01:03:45 |
| BUE01 | 28 | 2026-08-31 23:02:07 | 2026-09-01 01:07:27 |
| MECKS9 | 23 | 2026-08-31 23:39:30 | 2026-09-01 00:56:18 |
| DL4BBY-15 | 22 | 2026-08-31 22:51:56 | 2026-09-01 00:58:00 |
| DL1ZP-14 | 22 | 2026-08-31 23:15:01 | 2026-09-01 01:03:44 |
| AP2371 | 17 | 2026-08-31 22:55:26 | 2026-09-01 01:03:42 |
| SMARD9-10 | 15 | 2026-08-31 22:47:50 | 2026-09-01 01:13:57 |
| DJ8HS-15 | 15 | 2026-09-01 00:20:24 | 2026-09-01 00:44:28 |
| NBG1-10 | 14 | 2026-08-31 23:23:40 | 2026-09-01 01:04:12 |
| DL2RXE-15 | 13 | 2026-08-31 23:36:10 | 2026-09-01 01:27:50 |
| DK7RCA | 13 | 2026-08-31 23:51:30 | 2026-09-01 00:54:03 |
| DF7PN | 13 | 2026-08-31 23:54:51 | 2026-09-01 00:49:13 |
| SP3WXH-11 | 12 | 2026-09-01 00:33:42 | 2026-09-01 00:58:01 |
| DL1LOL-11 | 11 | 2026-08-31 22:51:33 | 2026-09-01 01:09:01 |
| DL8OAI-8 | 10 | 2026-08-31 22:53:24 | 2026-08-31 23:23:11 |
| DG6HD-15 | 8 | 2026-09-01 00:08:13 | 2026-09-01 00:42:22 |
| SO1NDE-10 | 6 | 2026-08-31 23:46:48 | 2026-09-01 00:45:19 |
| BIOWL7-15 | 3 | 2026-08-31 23:08:26 | 2026-09-01 01:18:03 |
| DL1CLM-18 | 3 | 2026-08-31 23:16:40 | 2026-09-01 01:04:04 |
| SP3BTT-10 | 3 | 2026-08-31 23:34:49 | 2026-09-01 00:53:53 |
| DL3OBA | 3 | 2026-09-01 00:01:58 | 2026-09-01 00:34:40 |
| DK9SH | 2 | 2026-08-31 23:15:11 | 2026-08-31 23:17:45 |
| DO9LL-15 | 2 | 2026-09-01 00:33:19 | 2026-09-01 00:38:59 |
| DK1YY | 1 | 2026-08-31 23:35:50 | 2026-08-31 23:35:50 |
| DJTTGO | 1 | 2026-09-01 00:16:15 | 2026-09-01 00:16:15 |
| Receiver | Date | Latitude | Longitude | Direction | Speed | Altitude | Climb | Temperature | Humidity | Pressure | Voltage | Killtimer | Uptime | BKT | XDATA |
|---|---|---|---|---|---|---|---|---|---|---|---|---|---|---|---|
| AM1SDL-15 | 2026-09-01 01:38:07 | 52.55332 | 11.70400 | 86° | 26km/h | 124m | -3.5m/s | 15.3°C | 89.4% | 1003.4hPa | 2.7V | 00:00:00 | 03:48:04 | 00:00:00 | |
| AM1SDL-15 | 2026-09-01 01:38:05 | 52.55330 | 11.70379 | 85° | 27km/h | 132m | -4.1m/s | 15.2°C | 89.7% | 1002.3hPa | 2.7V | 02:08:00 | 03:48:02 | 00:00:00 | |
| AM1SDL-15 | 2026-09-01 01:38:03 | 52.55329 | 11.70356 | 82° | 27km/h | 141m | -4.1m/s | 15.1°C | 89.9% | 1001.5hPa | 2.7V | 00:00:00 | 03:48:00 | 00:00:00 | |
| AM1SDL-15 | 2026-09-01 01:38:01 | 52.55327 | 11.70334 | 84° | 27km/h | 150m | -3.6m/s | 15.1°C | 90.3% | 1000.5hPa | 2.7V | 00:00:00 | 03:47:58 | 00:00:00 | |
| AM1SDL-15 | 2026-09-01 01:37:59 | 52.55325 | 11.70312 | 83° | 27km/h | 158m | -3.1m/s | 15.0°C | 90.5% | 999.6hPa | 2.7V | 02:09:00 | 03:47:56 | 00:00:00 | |
| AM1SDL-15 | 2026-09-01 01:37:57 | 52.55323 | 11.70292 | 86° | 22km/h | 166m | -3.3m/s | 15.0°C | 90.7% | 998.8hPa | 2.7V | 00:00:00 | 03:47:54 | 00:00:00 | |
| AM1SDL-15 | 2026-09-01 01:37:55 | 52.55322 | 11.70274 | 79° | 24km/h | 174m | -3.0m/s | 14.9°C | 91.0% | 998.1hPa | 2.7V | 00:00:00 | 03:47:52 | 00:00:00 | |
| DB0DAN | 2026-09-01 01:37:55 | 52.55322 | 11.70274 | 78° | 22km/h | 174m | -3.1m/s | 15°C | 91.7% | 998.18hPa | 2.7V | 00:00:00 | 00:00:00 | 00:00:00 | |
| AM1SDL-15 | 2026-09-01 01:37:51 | 52.55318 | 11.70231 | 81° | 29km/h | 184m | -1.8m/s | 14.8°C | 91.6% | 996.5hPa | 2.7V | 00:00:00 | 03:47:48 | 00:00:00 | |
| AM1SDL-15 | 2026-09-01 01:37:49 | 52.55315 | 11.70205 | 85° | 33km/h | 189m | -1.5m/s | 14.7°C | 92.1% | 996.0hPa | 2.7V | 00:00:00 | 03:47:46 | 00:00:00 | |
| AM1SDL-15 | 2026-09-01 01:37:47 | 52.55313 | 11.70179 | 84° | 31km/h | 194m | -1.3m/s | 14.7°C | 92.1% | 995.4hPa | 2.7V | 02:09:00 | 03:47:44 | 00:00:00 | |
| AM1SDL-15 | 2026-09-01 01:37:45 | 52.55311 | 11.70151 | 80° | 31km/h | 199m | -2.0m/s | 14.6°C | 92.3% | 994.9hPa | 2.7V | 00:00:00 | 03:47:42 | 00:00:00 | |
| AM1SDL-15 | 2026-09-01 01:37:43 | 52.55308 | 11.70124 | 75° | 35km/h | 204m | -2.8m/s | 14.6°C | 92.6% | 994.0hPa | 2.7V | 00:00:00 | 03:47:40 | 00:00:00 | |
| DB0DAN | 2026-09-01 01:37:40 | 52.55302 | 11.70083 | 74° | 31km/h | 213m | -2.1m/s | 14.6°C | 93.3% | 993.13hPa | 2.7V | 00:00:00 | 00:00:00 | 00:00:00 | |
| AM1SDL-15 | 2026-09-01 01:37:39 | 52.55299 | 11.70069 | 76° | 35km/h | 215m | -2.4m/s | 14.5°C | 92.3% | 992.8hPa | 2.7V | 00:00:00 | 03:47:36 | 00:00:00 | |
| AM1SDL-15 | 2026-09-01 01:37:37 | 52.55297 | 11.70041 | 82° | 37km/h | 221m | -2.7m/s | 14.6°C | 91.5% | 991.8hPa | 2.7V | 00:00:00 | 03:47:34 | 00:00:00 | |
| AM1SDL-15 | 2026-09-01 01:37:35 | 52.55294 | 11.70012 | 85° | 37km/h | 226m | -2.6m/s | 14.7°C | 90.7% | 991.2hPa | 2.7V | 02:09:00 | 03:47:32 | 00:00:00 | |
| AM1SDL-15 | 2026-09-01 01:37:33 | 52.55292 | 11.69981 | 83° | 38km/h | 232m | -2.3m/s | 14.6°C | 90.9% | 990.6hPa | 2.7V | 00:00:00 | 03:47:30 | 00:00:00 | |
| AM1SDL-15 | 2026-09-01 01:37:31 | 52.55289 | 11.69949 | 81° | 38km/h | 236m | -2.9m/s | 14.5°C | 91.3% | 989.8hPa | 2.7V | 00:00:00 | 03:47:28 | 00:00:00 | |
| AM1SDL-15 | 2026-09-01 01:37:27 | 52.55281 | 11.69882 | 79° | 42km/h | 251m | -4.2m/s | 14.4°C | 92.0% | 988.5hPa | 2.7V | 02:09:00 | 03:47:24 | 00:00:00 | |
| DB0DAN | 2026-09-01 01:37:25 | 52.55276 | 11.69847 | 77° | 42km/h | 258m | -2.6m/s | 14.4°C | 93.4% | 987.42hPa | 2.7V | 00:00:00 | 00:00:00 | 00:00:00 | |
| AM1SDL-15 | 2026-09-01 01:37:23 | 52.55271 | 11.69812 | 77° | 42km/h | 263m | -2.8m/s | 14.3°C | 92.3% | 987.1hPa | 2.7V | 00:00:00 | 03:47:20 | 00:00:00 | |
| AM1SDL-15 | 2026-09-01 01:37:21 | 52.55266 | 11.69778 | 77° | 42km/h | 269m | -2.7m/s | 14.3°C | 92.4% | 986.3hPa | 2.7V | 02:09:00 | 03:47:18 | 00:00:00 | |
| AM1SDL-15 | 2026-09-01 01:37:19 | 52.55261 | 11.69743 | 78° | 42km/h | 276m | -3.2m/s | 14.2°C | 93.1% | 985.5hPa | 2.7V | 00:00:00 | 03:47:16 | 00:00:00 | |
| AM1SDL-15 | 2026-09-01 01:37:17 | 52.55258 | 11.69708 | 83° | 44km/h | 283m | -3.4m/s | 14.1°C | 93.1% | 984.7hPa | 2.7V | 00:00:00 | 03:47:14 | 00:00:00 | |
| AM1SDL-15 | 2026-09-01 01:37:15 | 52.55256 | 11.69671 | 86° | 46km/h | 290m | -3.3m/s | 14.1°C | 93.2% | 984.0hPa | 2.7V | 02:09:00 | 03:47:12 | 00:00:00 | |
| AM1SDL-15 | 2026-09-01 01:37:13 | 52.55254 | 11.69634 | 85° | 44km/h | 297m | -3.4m/s | 14.1°C | 93.2% | 983.3hPa | 2.7V | 00:00:00 | 03:47:10 | 00:00:00 | |
| DB0DAN | 2026-09-01 01:37:10 | 52.55251 | 11.69576 | 86° | 46km/h | 305m | -2.5m/s | 14.1°C | 93.8% | 982.21hPa | 2.7V | 00:00:00 | 00:00:00 | 00:00:00 | |
| AM1SDL-15 | 2026-09-01 01:37:09 | 52.55249 | 11.69556 | 85° | 49km/h | 308m | -2.1m/s | 14.0°C | 92.9% | 981.9hPa | 2.7V | 02:09:00 | 03:47:06 | 00:00:00 | |
| AM1SDL-15 | 2026-09-01 01:37:07 | 52.55247 | 11.69515 | 83° | 51km/h | 314m | -3.3m/s | 13.9°C | 93.7% | 981.0hPa | 2.7V | 00:00:00 | 03:47:04 | 00:00:00 | |
| AM1SDL-15 | 2026-09-01 01:37:05 | 52.55243 | 11.69472 | 83° | 51km/h | 320m | -2.7m/s | 13.9°C | 93.6% | 980.3hPa | 2.7V | 00:00:00 | 03:47:02 | 00:00:00 | |
| AM1SDL-15 | 2026-09-01 01:37:03 | 52.55242 | 11.69431 | 85° | 49km/h | 326m | -3.4m/s | 13.8°C | 93.9% | 979.4hPa | 2.7V | 02:09:00 | 03:47:00 | 00:00:00 | |
| AM1SDL-15 | 2026-09-01 01:37:01 | 52.55240 | 11.69390 | 87° | 49km/h | 334m | -3.6m/s | 13.8°C | 93.4% | 978.5hPa | 2.7V | 00:00:00 | 03:46:58 | 00:00:00 | |
| AM1SDL-15 | 2026-09-01 01:36:59 | 52.55240 | 11.69348 | 90° | 51km/h | 341m | -2.8m/s | 13.8°C | 93.6% | 977.6hPa | 2.7V | 00:00:00 | 03:46:56 | 00:00:00 | |
| DB0DAN | 2026-09-01 01:36:55 | 52.55239 | 11.69261 | 89° | 49km/h | 355m | -3.9m/s | 13.8°C | 94.5% | 975.91hPa | 2.7V | 00:00:00 | 00:00:00 | 00:00:00 | |
| AM1SDL-15 | 2026-09-01 01:36:53 | 52.55238 | 11.69217 | 88° | 55km/h | 363m | -3.5m/s | 13.7°C | 93.8% | 974.9hPa | 2.7V | 00:00:00 | 03:46:50 | 00:00:00 | |
| AM1SDL-15 | 2026-09-01 01:36:51 | 52.55236 | 11.69172 | 88° | 57km/h | 371m | -3.7m/s | 13.6°C | 93.8% | 974.0hPa | 2.7V | 02:10:00 | 03:46:48 | 00:00:00 | |
| AM1SDL-15 | 2026-09-01 01:36:49 | 52.55235 | 11.69126 | 89° | 57km/h | 379m | -3.5m/s | 13.6°C | 93.9% | 973.2hPa | 2.7V | 00:00:00 | 03:46:46 | 00:00:00 | |
| AM1SDL-15 | 2026-09-01 01:36:47 | 52.55235 | 11.69079 | 92° | 55km/h | 386m | -3.4m/s | 13.5°C | 94.7% | 972.5hPa | 2.7V | 00:00:00 | 03:46:44 | 00:00:00 | |
| AM1SDL-15 | 2026-09-01 01:36:45 | 52.55236 | 11.69033 | 92° | 57km/h | 394m | -3.0m/s | 13.5°C | 94.2% | 971.7hPa | 2.7V | 02:10:00 | 03:46:42 | 00:00:00 | |
| AM1SDL-15 | 2026-09-01 01:36:43 | 52.55237 | 11.68986 | 94° | 55km/h | 400m | -3.6m/s | 13.5°C | 93.6% | 970.8hPa | 2.7V | 00:00:00 | 03:46:40 | 00:00:00 | |
| DB0DAN | 2026-09-01 01:36:40 | 52.55239 | 11.68918 | 93° | 51km/h | 411m | -3.7m/s | 13.6°C | 93.5% | 969.54hPa | 2.7V | 00:00:00 | 00:00:00 | 00:00:00 | |
| AM1SDL-15 | 2026-09-01 01:36:39 | 52.55240 | 11.68895 | 94° | 57km/h | 415m | -3.5m/s | 13.5°C | 92.9% | 968.9hPa | 2.7V | 02:10:00 | 03:46:36 | 00:00:00 | |
| AM1SDL-15 | 2026-09-01 01:36:37 | 52.55242 | 11.68848 | 94° | 57km/h | 422m | -3.1m/s | 13.4°C | 93.4% | 968.3hPa | 2.7V | 00:00:00 | 03:46:34 | 00:00:00 | |
| AM1SDL-15 | 2026-09-01 01:36:35 | 52.55244 | 11.68801 | 95° | 57km/h | 429m | -3.6m/s | 13.3°C | 93.9% | 967.5hPa | 2.7V | 00:00:00 | 03:46:32 | 00:00:00 | |
| AM1SDL-15 | 2026-09-01 01:36:33 | 52.55247 | 11.68754 | 96° | 57km/h | 437m | -3.1m/s | 13.3°C | 94.0% | 966.6hPa | 2.7V | 02:10:00 | 03:46:30 | 00:00:00 | |
| AM1SDL-15 | 2026-09-01 01:36:31 | 52.55249 | 11.68707 | 96° | 57km/h | 444m | -3.4m/s | 13.2°C | 94.4% | 965.8hPa | 2.7V | 00:00:00 | 03:46:28 | 00:00:00 | |
| AM1SDL-15 | 2026-09-01 01:36:29 | 52.55252 | 11.68659 | 97° | 58km/h | 451m | -3.2m/s | 13.2°C | 94.5% | 964.9hPa | 2.7V | 00:00:00 | 03:46:26 | 00:00:00 | |
| AM1SDL-15 | 2026-09-01 01:36:27 | 52.55255 | 11.68612 | 97° | 58km/h | 458m | -3.4m/s | 13.1°C | 94.4% | 964.2hPa | 2.7V | 02:10:00 | 03:46:24 | 00:00:00 | |
| DB0DAN | 2026-09-01 01:36:25 | 52.55258 | 11.68564 | 96° | 55km/h | 466m | -3.2m/s | 13.1°C | 95.4% | 963.38hPa | 2.7V | 00:00:00 | 00:00:00 | 00:00:00 | |
| AM1SDL-15 | 2026-09-01 01:36:23 | 52.55262 | 11.68516 | 99° | 58km/h | 473m | -3.3m/s | 13.1°C | 94.5% | 962.5hPa | 2.6V | 00:00:00 | 03:46:20 | 00:00:00 | |
| AM1SDL-15 | 2026-09-01 01:36:21 | 52.55266 | 11.68468 | 99° | 58km/h | 480m | -3.5m/s | 13.2°C | 92.9% | 961.6hPa | 2.6V | 02:10:00 | 03:46:18 | 00:00:00 | |
| AM1SDL-15 | 2026-09-01 01:36:19 | 52.55271 | 11.68420 | 100° | 58km/h | 487m | -3.4m/s | 13.2°C | 92.5% | 960.8hPa | 2.7V | 00:00:00 | 03:46:16 | 00:00:00 | |
| AM1SDL-15 | 2026-09-01 01:36:17 | 52.55276 | 11.68373 | 101° | 58km/h | 494m | -3.1m/s | 13.2°C | 91.6% | 960.2hPa | 2.7V | 00:00:00 | 03:46:14 | 00:00:00 | |
| AM1SDL-15 | 2026-09-01 01:36:15 | 52.55281 | 11.68325 | 101° | 58km/h | 501m | -3.1m/s | 13.2°C | 91.6% | 959.4hPa | 2.7V | 02:10:00 | 03:46:12 | 00:00:00 | |
| AM1SDL-15 | 2026-09-01 01:36:13 | 52.55287 | 11.68278 | 103° | 58km/h | 507m | -3.2m/s | 13.1°C | 92.1% | 958.4hPa | 2.7V | 00:00:00 | 03:46:10 | 00:00:00 | |
| DB0DAN | 2026-09-01 01:36:10 | 52.55296 | 11.68207 | 102° | 55km/h | 518m | -3.1m/s | 13.1°C | 92.5% | 957.22hPa | 2.7V | 00:00:00 | 00:00:00 | 00:00:00 | |
| AM1SDL-15 | 2026-09-01 01:36:09 | 52.55299 | 11.68184 | 103° | 58km/h | 521m | -3.4m/s | 13.0°C | 91.7% | 957.0hPa | 2.7V | 02:10:00 | 03:46:06 | 00:00:00 | |
| AM1SDL-15 | 2026-09-01 01:36:07 | 52.55305 | 11.68137 | 103° | 58km/h | 528m | -3.7m/s | 13.0°C | 91.9% | 955.9hPa | 2.7V | 00:00:00 | 03:46:04 | 00:00:00 | |
| AM1SDL-15 | 2026-09-01 01:36:05 | 52.55311 | 11.68089 | 103° | 58km/h | 536m | -3.3m/s | 12.9°C | 91.8% | 955.2hPa | 2.7V | 00:00:00 | 03:46:02 | 00:00:00 | |
| AM1SDL-15 | 2026-09-01 01:36:03 | 52.55318 | 11.68042 | 104° | 60km/h | 543m | -3.5m/s | 12.9°C | 91.6% | 954.4hPa | 2.7V | 02:10:00 | 03:46:00 | 00:00:00 | |
| AM1SDL-15 | 2026-09-01 01:36:01 | 52.55325 | 11.67994 | 104° | 58km/h | 551m | -3.5m/s | 12.9°C | 90.9% | 953.6hPa | 2.7V | 00:00:00 | 03:45:58 | 00:00:00 | |
| AM1SDL-15 | 2026-09-01 01:35:59 | 52.55332 | 11.67946 | 105° | 58km/h | 558m | -3.7m/s | 13.0°C | 89.9% | 952.7hPa | 2.7V | 00:00:00 | 03:45:56 | 00:00:00 | |
| AM1SDL-15 | 2026-09-01 01:35:57 | 52.55340 | 11.67899 | 105° | 58km/h | 566m | -3.6m/s | 12.9°C | 89.9% | 951.9hPa | 2.7V | 02:11:00 | 03:45:54 | 00:00:00 | |
| AM1SDL-15 | 2026-09-01 01:35:55 | 52.55347 | 11.67853 | 106° | 57km/h | 573m | -3.1m/s | 12.9°C | 90.2% | 951.2hPa | 2.7V | 00:00:00 | 03:45:52 | 00:00:00 | |
| DB0DAN | 2026-09-01 01:35:55 | 52.55347 | 11.67853 | 106° | 55km/h | 573m | -3.2m/s | 12.9°C | 90.8% | 951.25hPa | 2.7V | 00:00:00 | 00:00:00 | 00:00:00 | |
| AM1SDL-15 | 2026-09-01 01:35:53 | 52.55355 | 11.67806 | 105° | 58km/h | 580m | -3.3m/s | 12.8°C | 89.9% | 950.4hPa | 2.7V | 00:00:00 | 03:45:50 | 00:00:00 | |
| AM1SDL-15 | 2026-09-01 01:35:49 | 52.55371 | 11.67714 | 106° | 57km/h | 595m | -3.5m/s | 12.8°C | 89.3% | 948.8hPa | 2.7V | 02:11:00 | 03:45:46 | 00:00:00 | |
| AM1SDL-15 | 2026-09-01 01:35:47 | 52.55379 | 11.67669 | 106° | 58km/h | 602m | -3.5m/s | 12.8°C | 89.4% | 948.1hPa | 2.7V | 00:00:00 | 03:45:44 | 00:00:00 | |
| AM1SDL-15 | 2026-09-01 01:35:45 | 52.55386 | 11.67623 | 107° | 57km/h | 609m | -3.4m/s | 12.7°C | 89.0% | 947.2hPa | 2.7V | 00:00:00 | 03:45:42 | 00:00:00 | |
| AM1SDL-15 | 2026-09-01 01:35:43 | 52.55395 | 11.67577 | 108° | 58km/h | 617m | -3.5m/s | 12.8°C | 88.0% | 946.5hPa | 2.7V | 02:11:00 | 03:45:40 | 00:00:00 | |
| DB0DAN | 2026-09-01 01:35:40 | 52.55408 | 11.67507 | 107° | 55km/h | 628m | -3.4m/s | 12.7°C | 88.9% | 945.15hPa | 2.7V | 00:00:00 | 00:00:00 | 00:00:00 | |
| AM1SDL-15 | 2026-09-01 01:35:39 | 52.55412 | 11.67484 | 107° | 57km/h | 632m | -2.9m/s | 12.6°C | 88.6% | 944.7hPa | 2.6V | 00:00:00 | 03:45:36 | 00:00:00 | |
| AM1SDL-15 | 2026-09-01 01:35:37 | 52.55420 | 11.67438 | 107° | 58km/h | 639m | -3.1m/s | 12.6°C | 88.4% | 943.9hPa | 2.6V | 02:11:00 | 03:45:34 | 00:00:00 | |
| AM1SDL-15 | 2026-09-01 01:35:35 | 52.55429 | 11.67392 | 107° | 57km/h | 646m | -3.0m/s | 12.6°C | 88.4% | 943.3hPa | 2.7V | 00:00:00 | 03:45:32 | 00:00:00 | |
| AM1SDL-15 | 2026-09-01 01:35:33 | 52.55437 | 11.67346 | 107° | 57km/h | 653m | -3.1m/s | 12.5°C | 88.8% | 942.4hPa | 2.7V | 00:00:00 | 03:45:30 | 00:00:00 | |
| AM1SDL-15 | 2026-09-01 01:35:31 | 52.55445 | 11.67301 | 108° | 58km/h | 659m | -3.3m/s | 12.5°C | 88.7% | 941.6hPa | 2.7V | 02:11:00 | 03:45:28 | 00:00:00 | |
| AM1SDL-15 | 2026-09-01 01:35:29 | 52.55453 | 11.67255 | 107° | 57km/h | 667m | -3.3m/s | 12.4°C | 88.9% | 940.8hPa | 2.7V | 00:00:00 | 03:45:26 | 00:00:00 | |
| AM1SDL-15 | 2026-09-01 01:35:27 | 52.55462 | 11.67209 | 108° | 58km/h | 674m | -3.2m/s | 12.4°C | 89.3% | 940.0hPa | 2.7V | 00:00:00 | 03:45:24 | 00:00:00 | |
| AM1SDL-15 | 2026-09-01 01:35:25 | 52.55470 | 11.67164 | 108° | 58km/h | 681m | -3.3m/s | 12.3°C | 89.5% | 939.1hPa | 2.7V | 02:11:00 | 03:45:22 | 00:00:00 | |
| DB0DAN | 2026-09-01 01:35:25 | 52.55470 | 11.67164 | 107° | 55km/h | 681m | -3.4m/s | 12.3°C | 90% | 939.13hPa | 2.7V | 00:00:00 | 00:00:00 | 00:00:00 | |
| AM1SDL-15 | 2026-09-01 01:35:23 | 52.55479 | 11.67117 | 109° | 58km/h | 689m | -3.4m/s | 12.2°C | 89.8% | 938.3hPa | 2.7V | 00:00:00 | 03:45:20 | 00:00:00 | |
| AM1SDL-15 | 2026-09-01 01:35:21 | 52.55489 | 11.67071 | 109° | 58km/h | 696m | -3.3m/s | 12.2°C | 90.1% | 937.4hPa | 2.7V | 00:00:00 | 03:45:18 | 00:00:00 | |
| AM1SDL-15 | 2026-09-01 01:35:19 | 52.55498 | 11.67025 | 108° | 58km/h | 703m | -3.3m/s | 12.1°C | 90.4% | 936.7hPa | 2.7V | 02:11:00 | 03:45:16 | 00:00:00 | |
| DB0DAN | 2026-09-01 01:35:10 | 52.55539 | 11.66814 | 109° | 57km/h | 735m | -3.5m/s | 11.9°C | 91.8% | 933.09hPa | 2.7V | 00:00:00 | 00:00:00 | 00:00:00 | |
| AM1SDL-15 | 2026-09-01 01:35:07 | 52.55554 | 11.66743 | 110° | 58km/h | 746m | -3.6m/s | 11.9°C | 90.4% | 931.9hPa | 2.7V | 00:00:00 | 03:45:04 | 00:00:00 | |
| S3001 | 2026-09-01 01:35:04 | 52.55569 | 11.66675 | 109° | 57km/h | 757m | -3.2m/s | 11.9°C | 90.8% | 930.8hPa | 2.7V | 00:00:00 | 00:00:00 | 00:00:00 | |
| DB0DAN | 2026-09-01 01:34:55 | 52.55616 | 11.66472 | 113° | 57km/h | 789m | -3.6m/s | 11.6°C | 91.5% | 927.17hPa | 2.7V | 00:00:00 | 00:00:00 | 00:00:00 | |
| AM1SDL-15 | 2026-09-01 01:34:43 | 52.55688 | 11.66202 | 115° | 58km/h | 832m | -3.5m/s | 11.4°C | 90.8% | 922.3hPa | 2.7V | 02:12:00 | 03:44:40 | 00:00:00 | |
| DB0DAN | 2026-09-01 01:34:40 | 52.55707 | 11.66135 | 115° | 57km/h | 844m | -3.7m/s | 11.4°C | 91.8% | 921.17hPa | 2.7V | 00:00:00 | 00:00:00 | 00:00:00 | |
| DF8AY | 2026-09-01 01:34:30 | 52.55773 | 11.65913 | 116° | 62km/h | 881m | -3.6m/s | 11.4°C | 93.2% | 917hPa | 2.7V | 02:13:26 | 03:44:27 | 00:00:00 | |
| DF8AY | 2026-09-01 01:34:29 | 52.55779 | 11.65891 | 117° | 60km/h | 885m | -3.5m/s | 11.3°C | 93.3% | 916.6hPa | 2.7V | 02:13:26 | 03:44:26 | 00:00:00 | |
| DF8AY | 2026-09-01 01:34:28 | 52.55820 | 11.65754 | 116° | 60km/h | 907m | -3.6m/s | 11.3°C | 92.4% | 914.2hPa | 2.7V | 02:13:26 | 03:44:20 | 00:00:00 | |
| DF8AY | 2026-09-01 01:34:28 | 52.55827 | 11.65732 | 116° | 60km/h | 911m | -3.6m/s | 11.3°C | 92.4% | 913.9hPa | 2.7V | 02:13:26 | 03:44:19 | 00:00:00 | |
| DB0DAN | 2026-09-01 01:34:25 | 52.55807 | 11.65800 | 116° | 57km/h | 899m | -3.7m/s | 11.3°C | 87.7% | 915.07hPa | 2.6V | 00:00:00 | 00:00:00 | 00:00:00 | |
| DF8AY | 2026-09-01 01:34:22 | 52.55833 | 11.65709 | 116° | 60km/h | 915m | -3.4m/s | 11.3°C | 92.2% | 913.3hPa | 2.7V | 02:13:26 | 03:44:18 | 00:00:00 | |
| DF8AY | 2026-09-01 01:34:19 | 52.55846 | 11.65665 | 115° | 58km/h | 922m | -3.9m/s | 11.2°C | 92.5% | 912.5hPa | 2.7V | 02:13:26 | 03:44:16 | 00:00:00 | |
| DF8AY | 2026-09-01 01:34:17 | 52.55859 | 11.65620 | 115° | 60km/h | 930m | -3.7m/s | 11.1°C | 92.5% | 911.6hPa | 2.7V | 02:13:26 | 03:44:14 | 00:00:00 | |
| DF8AY | 2026-09-01 01:34:16 | 52.55872 | 11.65575 | 115° | 60km/h | 938m | -3.9m/s | 11.1°C | 92.7% | 910.8hPa | 2.7V | 02:13:26 | 03:44:12 | 00:00:00 | |
| DF8AY | 2026-09-01 01:34:15 | 52.55903 | 11.65462 | 114° | 58km/h | 959m | -3.7m/s | 10.9°C | 92.3% | 908.6hPa | 2.7V | 02:13:26 | 03:44:07 | 00:00:00 | |
| DF8AY | 2026-09-01 01:34:14 | 52.55909 | 11.65440 | 114° | 58km/h | 963m | -3.5m/s | 10.9°C | 92.3% | 908.2hPa | 2.7V | 02:13:26 | 03:44:06 | 00:00:00 | |
| DB0DAN | 2026-09-01 01:34:10 | 52.55903 | 11.65462 | 114° | 57km/h | 959m | -3.7m/s | 10.9°C | 86.8% | 908.65hPa | 2.7V | 00:00:00 | 00:00:00 | 00:00:00 | |
| DF8AY | 2026-09-01 01:34:07 | 52.55921 | 11.65396 | 114° | 58km/h | 970m | -3.5m/s | 10.9°C | 92.2% | 907.5hPa | 2.7V | 02:13:26 | 03:44:04 | 00:00:00 | |
| DF8AY | 2026-09-01 01:34:07 | 52.55927 | 11.65374 | 114° | 57km/h | 974m | -4.1m/s | 10.8°C | 92.2% | 907hPa | 2.7V | 02:13:26 | 03:44:03 | 00:00:00 | |
| DF8AY | 2026-09-01 01:34:04 | 52.55939 | 11.65331 | 114° | 57km/h | 982m | -3.5m/s | 10.8°C | 92.2% | 906.1hPa | 2.6V | 02:13:26 | 03:44:01 | 00:00:00 | |
| DF8AY | 2026-09-01 01:34:03 | 52.55945 | 11.65310 | 114° | 57km/h | 986m | -3.6m/s | 10.7°C | 92.1% | 905.8hPa | 2.7V | 02:13:26 | 03:44:00 | 00:00:00 | |
| DF8AY | 2026-09-01 01:34:01 | 52.55956 | 11.65267 | 114° | 57km/h | 994m | -3.9m/s | 10.7°C | 92.5% | 904.8hPa | 2.7V | 02:13:26 | 03:43:58 | 00:00:00 | |
| DF8AY | 2026-09-01 01:34:00 | 52.55962 | 11.65245 | 113° | 57km/h | 998m | -3.7m/s | 10.6°C | 92.7% | 904.6hPa | 2.7V | 02:13:26 | 03:43:57 | 00:00:00 | |
| DF8AY | 2026-09-01 01:33:58 | 52.55973 | 11.65202 | 114° | 57km/h | 1006m | -3.4m/s | 10.5°C | 93% | 903.6hPa | 2.7V | 02:13:26 | 03:43:55 | 00:00:00 | |
| DF8AY | 2026-09-01 01:33:56 | 52.55985 | 11.65159 | 114° | 57km/h | 1013m | -3.6m/s | 10.4°C | 93.5% | 902.6hPa | 2.7V | 02:13:26 | 03:43:53 | 00:00:00 | |
| DF8AY | 2026-09-01 01:33:55 | 52.55991 | 11.65138 | 114° | 57km/h | 1017m | -3.7m/s | 10.4°C | 93.7% | 902.4hPa | 2.7V | 02:13:26 | 03:43:52 | 00:00:00 | |
| DB0DAN | 2026-09-01 01:33:55 | 52.55991 | 11.65138 | 114° | 55km/h | 1017m | -3.7m/s | 10.4°C | 88.5% | 902.36hPa | 2.7V | 00:00:00 | 00:00:00 | 00:00:00 | |
| DF8AY | 2026-09-01 01:33:54 | 52.55996 | 11.65116 | 113° | 57km/h | 1021m | -3.5m/s | 10.4°C | 93.8% | 902hPa | 2.6V | 02:13:26 | 03:43:51 | 00:00:00 | |
| DF8AY | 2026-09-01 01:33:52 | 52.56008 | 11.65072 | 114° | 57km/h | 1029m | -3.8m/s | 10.3°C | 93.7% | 901.2hPa | 2.7V | 02:13:26 | 03:43:49 | 00:00:00 | |
| DF8AY | 2026-09-01 01:33:50 | 52.56042 | 11.64944 | 113° | 55km/h | 1053m | -3.4m/s | 10.4°C | 89.6% | 898.6hPa | 2.7V | 02:13:26 | 03:43:43 | 00:00:00 | |
| DF8AY | 2026-09-01 01:33:50 | 52.56048 | 11.64923 | 113° | 57km/h | 1057m | -3.9m/s | 10.4°C | 89.8% | 898hPa | 2.7V | 02:13:26 | 03:43:42 | 00:00:00 | |
| DF8AY | 2026-09-01 01:33:43 | 52.56059 | 11.64880 | 113° | 57km/h | 1065m | -3.9m/s | 10.3°C | 90% | 897.1hPa | 2.7V | 02:13:26 | 03:43:40 | 00:00:00 | |
| DF8AY | 2026-09-01 01:33:41 | 52.56070 | 11.64837 | 113° | 57km/h | 1072m | -3.6m/s | 10.2°C | 90.4% | 896.5hPa | 2.7V | 02:13:26 | 03:43:38 | 00:00:00 | |
| DB0DAN | 2026-09-01 01:33:40 | 52.56076 | 11.64815 | 114° | 53km/h | 1076m | -3.6m/s | 10.2°C | 84.7% | 896.15hPa | 2.7V | 00:00:00 | 00:00:00 | 00:00:00 | |
| DF8AY | 2026-09-01 01:33:39 | 52.56082 | 11.64794 | 114° | 57km/h | 1080m | -3.7m/s | 10.1°C | 90.2% | 895.6hPa | 2.7V | 02:13:26 | 03:43:36 | 00:00:00 | |
| DF8AY | 2026-09-01 01:33:37 | 52.56093 | 11.64750 | 114° | 58km/h | 1088m | -3.7m/s | 10.1°C | 90.6% | 894.5hPa | 2.7V | 02:13:26 | 03:43:34 | 00:00:00 | |
| DF8AY | 2026-09-01 01:33:36 | 52.56099 | 11.64729 | 113° | 57km/h | 1091m | -3.5m/s | 10°C | 90.8% | 894.1hPa | 2.7V | 02:13:26 | 03:43:33 | 00:00:00 | |
| DF8AY | 2026-09-01 01:33:34 | 52.56111 | 11.64686 | 114° | 57km/h | 1099m | -3.5m/s | 9.9°C | 91.1% | 893.4hPa | 2.7V | 02:14:17 | 03:43:31 | 00:00:00 | |
| DF8AY | 2026-09-01 01:33:32 | 52.56123 | 11.64642 | 115° | 57km/h | 1107m | -3.6m/s | 9.9°C | 91.7% | 892.5hPa | 2.7V | 02:14:17 | 03:43:29 | 00:00:00 | |
| DF8AY | 2026-09-01 01:33:32 | 52.56129 | 11.64621 | 115° | 57km/h | 1111m | -3.6m/s | 9.8°C | 91.7% | 892.1hPa | 2.7V | 02:14:17 | 03:43:28 | 00:00:00 | |
| DF8AY | 2026-09-01 01:33:29 | 52.56141 | 11.64577 | 114° | 57km/h | 1119m | -3.7m/s | 9.8°C | 92.1% | 891.4hPa | 2.7V | 02:14:17 | 03:43:26 | 00:00:00 | |
| DF8AY | 2026-09-01 01:33:28 | 52.56146 | 11.64556 | 114° | 57km/h | 1123m | -3.8m/s | 9.7°C | 92.3% | 891hPa | 2.7V | 02:14:17 | 03:43:25 | 00:00:00 | |
| DF8AY | 2026-09-01 01:33:26 | 52.56158 | 11.64512 | 113° | 58km/h | 1131m | -3.6m/s | 9.7°C | 93% | 889.9hPa | 2.6V | 02:14:17 | 03:43:23 | 00:00:00 | |
| DF8AY | 2026-09-01 01:33:25 | 52.56164 | 11.64490 | 114° | 58km/h | 1134m | -3.6m/s | 9.6°C | 93.2% | 889.7hPa | 2.7V | 02:14:17 | 03:43:22 | 00:00:00 | |
| DB0DAN | 2026-09-01 01:33:25 | 52.56164 | 11.64490 | 114° | 55km/h | 1134m | -3.6m/s | 9.6°C | 87.3% | 889.66hPa | 2.7V | 00:00:00 | 00:00:00 | 00:00:00 | |
| DF8AY | 2026-09-01 01:33:23 | 52.56176 | 11.64446 | 113° | 58km/h | 1142m | -3.8m/s | 9.5°C | 93.7% | 888.9hPa | 2.7V | 02:14:17 | 03:43:20 | 00:00:00 | |
| DF8AY | 2026-09-01 01:33:22 | 52.56182 | 11.64424 | 114° | 58km/h | 1146m | -3.9m/s | 9.5°C | 94.1% | 888.3hPa | 2.7V | 02:14:17 | 03:43:19 | 00:00:00 | |
| DF8AY | 2026-09-01 01:33:21 | 52.56187 | 11.64403 | 114° | 57km/h | 1150m | -3.6m/s | 9.5°C | 94.2% | 887.9hPa | 2.7V | 02:14:17 | 03:43:18 | 00:00:00 | |
| DF8AY | 2026-09-01 01:33:19 | 52.56199 | 11.64359 | 114° | 57km/h | 1158m | -3.8m/s | 9.4°C | 94.5% | 887.1hPa | 2.7V | 02:14:17 | 03:43:16 | 00:00:00 | |
| DF8AY | 2026-09-01 01:33:18 | 52.56205 | 11.64337 | 114° | 57km/h | 1162m | -3.8m/s | 9.4°C | 94.6% | 886.8hPa | 2.7V | 02:14:17 | 03:43:15 | 00:00:00 | |
| DF8AY | 2026-09-01 01:33:16 | 52.56217 | 11.64294 | 115° | 58km/h | 1170m | -4m/s | 9.3°C | 94.8% | 885.8hPa | 2.7V | 02:14:17 | 03:43:13 | 00:00:00 | |
| DF8AY | 2026-09-01 01:33:15 | 52.56223 | 11.64273 | 116° | 57km/h | 1174m | -3.8m/s | 9.2°C | 95% | 885.4hPa | 2.7V | 02:14:17 | 03:43:12 | 00:00:00 | |
| DF8AY | 2026-09-01 01:33:13 | 52.56235 | 11.64229 | 114° | 58km/h | 1182m | -3.9m/s | 9.1°C | 95.5% | 884.6hPa | 2.7V | 02:14:17 | 03:43:10 | 00:00:00 | |
| DF8AY | 2026-09-01 01:33:12 | 52.56242 | 11.64207 | 115° | 58km/h | 1186m | -3.6m/s | 9.1°C | 95.7% | 884hPa | 2.7V | 02:14:17 | 03:43:09 | 00:00:00 | |
| DF8AY | 2026-09-01 01:33:10 | 52.56254 | 11.64164 | 114° | 58km/h | 1194m | -3.7m/s | 9°C | 96.2% | 883.3hPa | 2.7V | 02:14:17 | 03:43:07 | 00:00:00 | |
| DB0DAN | 2026-09-01 01:33:10 | 52.56254 | 11.64164 | 114° | 55km/h | 1194m | -3.7m/s | 9°C | 90.3% | 883.34hPa | 2.7V | 00:00:00 | 00:00:00 | 00:00:00 | |
| DF8AY | 2026-09-01 01:33:09 | 52.56260 | 11.64142 | 114° | 58km/h | 1198m | -3.7m/s | 9°C | 96.6% | 882.6hPa | 2.7V | 02:14:17 | 03:43:06 | 00:00:00 | |
| DF8AY | 2026-09-01 01:33:08 | 52.56265 | 11.64120 | 114° | 58km/h | 1202m | -3.9m/s | 8.9°C | 97.1% | 882.5hPa | 2.6V | 02:14:17 | 03:43:05 | 00:00:00 | |
| DF8AY | 2026-09-01 01:33:06 | 52.56277 | 11.64076 | 115° | 57km/h | 1211m | -4.7m/s | 8.9°C | 97.5% | 881.4hPa | 2.7V | 02:14:17 | 03:43:03 | 00:00:00 | |
| DF8AY | 2026-09-01 01:33:05 | 52.56283 | 11.64055 | 115° | 57km/h | 1215m | -4.1m/s | 8.8°C | 97.2% | 880.8hPa | 2.7V | 02:14:17 | 03:43:02 | 00:00:00 | |
| DF8AY | 2026-09-01 01:33:03 | 52.56296 | 11.64012 | 116° | 57km/h | 1223m | -3.9m/s | 8.7°C | 97.4% | 879.9hPa | 2.7V | 02:14:17 | 03:43:00 | 00:00:00 | |
| DF8AY | 2026-09-01 01:33:01 | 52.56308 | 11.63970 | 116° | 57km/h | 1232m | -4m/s | 8.7°C | 96.8% | 879.1hPa | 2.7V | 02:14:17 | 03:42:58 | 00:00:00 | |
| DF8AY | 2026-09-01 01:33:00 | 52.56314 | 11.63949 | 115° | 57km/h | 1236m | -4m/s | 8.7°C | 96.8% | 878.6hPa | 2.7V | 02:14:17 | 03:42:57 | 00:00:00 | |
| DF8AY | 2026-09-01 01:32:58 | 52.56327 | 11.63906 | 117° | 57km/h | 1244m | -4.3m/s | 8.6°C | 97.8% | 877.7hPa | 2.7V | 02:14:17 | 03:42:55 | 00:00:00 | |
| DF8AY | 2026-09-01 01:32:58 | 52.56333 | 11.63885 | 117° | 57km/h | 1248m | -4.3m/s | 8.5°C | 98.1% | 877.3hPa | 2.7V | 02:14:17 | 03:42:54 | 00:00:00 | |
| DF8AY | 2026-09-01 01:32:57 | 52.56340 | 11.63864 | 117° | 57km/h | 1253m | -4m/s | 8.5°C | 97.8% | 877hPa | 2.7V | 02:14:17 | 03:42:53 | 00:00:00 | |
| DB0DAN | 2026-09-01 01:32:55 | 52.56346 | 11.63842 | 117° | 55km/h | 1258m | -4.3m/s | 8.4°C | 92.2% | 876.45hPa | 2.7V | 00:00:00 | 00:00:00 | 00:00:00 | |
| DF8AY | 2026-09-01 01:32:54 | 52.56353 | 11.63821 | 116° | 58km/h | 1262m | -4.2m/s | 8.4°C | 98.5% | 876hPa | 2.7V | 02:14:17 | 03:42:51 | 00:00:00 | |
| DF8AY | 2026-09-01 01:32:53 | 52.56359 | 11.63800 | 116° | 57km/h | 1267m | -4.1m/s | 8.3°C | 98.7% | 875.6hPa | 2.7V | 02:14:17 | 03:42:50 | 00:00:00 | |
| DF8AY | 2026-09-01 01:32:52 | 52.56365 | 11.63778 | 116° | 57km/h | 1271m | -4.1m/s | 8.3°C | 99.3% | 875.2hPa | 2.7V | 02:14:17 | 03:42:49 | 00:00:00 | |
| DF8AY | 2026-09-01 01:32:50 | 52.56378 | 11.63736 | 117° | 57km/h | 1280m | -4.3m/s | 8.2°C | 99.7% | 874.1hPa | 2.6V | 02:14:17 | 03:42:47 | 00:00:00 | |
| DF8AY | 2026-09-01 01:32:48 | 52.56390 | 11.63694 | 116° | 57km/h | 1289m | -4m/s | 8.1°C | 99.7% | 873.2hPa | 2.7V | 02:14:17 | 03:42:45 | 00:00:00 | |
| DF8AY | 2026-09-01 01:32:46 | 52.56403 | 11.63652 | 115° | 57km/h | 1297m | -4.1m/s | 8.1°C | 100% | 872.1hPa | 2.7V | 02:14:17 | 03:42:43 | 00:00:00 | |
| DF8AY | 2026-09-01 01:32:45 | 52.56409 | 11.63631 | 116° | 57km/h | 1301m | -4.7m/s | 8°C | 100% | 871.9hPa | 2.7V | 02:14:17 | 03:42:42 | 00:00:00 | |
| DF8AY | 2026-09-01 01:32:44 | 52.56415 | 11.63610 | 115° | 55km/h | 1306m | -4.4m/s | 8°C | 100% | 871.4hPa | 2.7V | 02:15:08 | 03:42:41 | 00:00:00 | |
| DF8AY | 2026-09-01 01:32:42 | 52.56427 | 11.63568 | 116° | 57km/h | 1315m | -4.3m/s | 7.9°C | 100% | 870.5hPa | 2.6V | 02:15:08 | 03:42:39 | 00:00:00 | |
| DB0DAN | 2026-09-01 01:32:40 | 52.56440 | 11.63526 | 117° | 55km/h | 1323m | -3.6m/s | 7.8°C | 95.8% | 869.61hPa | 2.7V | 00:00:00 | 00:00:00 | 00:00:00 | |
| DF8AY | 2026-09-01 01:32:40 | 52.56440 | 11.63526 | 117° | 57km/h | 1323m | -3.6m/s | 7.8°C | 100% | 869.6hPa | 2.7V | 02:15:08 | 03:42:37 | 00:00:00 | |
| DF8AY | 2026-09-01 01:32:39 | 52.56446 | 11.63505 | 115° | 57km/h | 1327m | -3.4m/s | 7.8°C | 100% | 869.2hPa | 2.7V | 02:15:08 | 03:42:36 | 00:00:00 | |
| DF8AY | 2026-09-01 01:32:37 | 52.56458 | 11.63462 | 114° | 57km/h | 1334m | -3.2m/s | 7.7°C | 100% | 868.5hPa | 2.7V | 02:15:08 | 03:42:34 | 00:00:00 | |
| DF8AY | 2026-09-01 01:32:36 | 52.56464 | 11.63441 | 115° | 57km/h | 1337m | -3.3m/s | 7.7°C | 100% | 867.9hPa | 2.7V | 02:15:08 | 03:42:33 | 00:00:00 | |
| DF8AY | 2026-09-01 01:32:34 | 52.56476 | 11.63398 | 114° | 57km/h | 1344m | -3.3m/s | 7.6°C | 100% | 867.3hPa | 2.6V | 02:15:08 | 03:42:31 | 00:00:00 | |
| DF8AY | 2026-09-01 01:32:33 | 52.56482 | 11.63377 | 114° | 57km/h | 1348m | -3.4m/s | 7.6°C | 100% | 867hPa | 2.7V | 02:15:08 | 03:42:30 | 00:00:00 | |
| DF8AY | 2026-09-01 01:32:31 | 52.56494 | 11.63333 | 115° | 57km/h | 1355m | -3m/s | 7.5°C | 100% | 866.1hPa | 2.7V | 02:15:08 | 03:42:28 | 00:00:00 | |
| DF8AY | 2026-09-01 01:32:29 | 52.56505 | 11.63291 | 115° | 57km/h | 1362m | -3.5m/s | 7.5°C | 100% | 865.5hPa | 2.7V | 02:15:08 | 03:42:26 | 00:00:00 | |
| DF8AY | 2026-09-01 01:32:29 | 52.56512 | 11.63270 | 115° | 57km/h | 1366m | -3.5m/s | 7.5°C | 100% | 865hPa | 2.7V | 02:15:08 | 03:42:25 | 00:00:00 | |
| DF8AY | 2026-09-01 01:32:26 | 52.56524 | 11.63227 | 117° | 57km/h | 1373m | -3.8m/s | 7.5°C | 98.9% | 864.2hPa | 2.6V | 02:15:08 | 03:42:23 | 00:00:00 | |
| DB0DAN | 2026-09-01 01:32:25 | 52.56531 | 11.63206 | 116° | 55km/h | 1376m | -3.7m/s | 7.5°C | 95.1% | 863.84hPa | 2.7V | 00:00:00 | 00:00:00 | 00:00:00 | |
| DF8AY | 2026-09-01 01:32:24 | 52.56537 | 11.63185 | 117° | 57km/h | 1380m | -3.9m/s | 7.4°C | 100% | 863.4hPa | 2.7V | 02:15:08 | 03:42:21 | 00:00:00 | |
| DF8AY | 2026-09-01 01:32:22 | 52.56550 | 11.63143 | 116° | 57km/h | 1388m | -3.9m/s | 7.3°C | 100% | 862.6hPa | 2.7V | 02:15:08 | 03:42:19 | 00:00:00 | |
| DF8AY | 2026-09-01 01:32:21 | 52.56556 | 11.63122 | 116° | 57km/h | 1392m | -3.6m/s | 7.3°C | 99.7% | 862.2hPa | 2.7V | 02:15:08 | 03:42:18 | 00:00:00 | |
| DF8AY | 2026-09-01 01:32:19 | 52.56568 | 11.63080 | 115° | 55km/h | 1400m | -4m/s | 7.3°C | 100% | 861.4hPa | 2.7V | 02:15:08 | 03:42:16 | 00:00:00 | |
| DF8AY | 2026-09-01 01:32:18 | 52.56574 | 11.63059 | 115° | 55km/h | 1404m | -4.2m/s | 7.3°C | 100% | 860.9hPa | 2.6V | 02:15:08 | 03:42:15 | 00:00:00 | |
| DF8AY | 2026-09-01 01:32:16 | 52.56586 | 11.63018 | 116° | 55km/h | 1412m | -4.5m/s | 7.2°C | 100% | 860.2hPa | 2.7V | 02:15:08 | 03:42:13 | 00:00:00 | |
| DF8AY | 2026-09-01 01:32:14 | 52.56598 | 11.62978 | 118° | 55km/h | 1423m | -5.1m/s | 7.1°C | 100% | 859.2hPa | 2.7V | 02:15:08 | 03:42:11 | 00:00:00 | |
| DF8AY | 2026-09-01 01:32:13 | 52.56605 | 11.62958 | 119° | 55km/h | 1427m | -4.9m/s | 7.1°C | 100% | 858.7hPa | 2.7V | 02:15:08 | 03:42:10 | 00:00:00 | |
| DF8AY | 2026-09-01 01:32:11 | 52.56619 | 11.62918 | 120° | 55km/h | 1437m | -4.3m/s | 7°C | 100% | 857.5hPa | 2.7V | 02:15:08 | 03:42:08 | 00:00:00 | |
| DB0DAN | 2026-09-01 01:32:10 | 52.56626 | 11.62898 | 120° | 53km/h | 1441m | -4.3m/s | 6.9°C | 97% | 857.03hPa | 2.6V | 00:00:00 | 00:00:00 | 00:00:00 | |
| DF8AY | 2026-09-01 01:32:09 | 52.56633 | 11.62878 | 121° | 57km/h | 1445m | -4.2m/s | 6.9°C | 100% | 856.9hPa | 2.7V | 02:15:08 | 03:42:06 | 00:00:00 | |
| DF8AY | 2026-09-01 01:32:08 | 52.56703 | 11.62674 | 119° | 57km/h | 1483m | -3.2m/s | 6.7°C | 100% | 853hPa | 2.7V | 02:15:08 | 03:41:56 | 00:00:00 | |
| DF8AY | 2026-09-01 01:32:07 | 52.56710 | 11.62654 | 120° | 57km/h | 1486m | -3.2m/s | 6.6°C | 100% | 852.4hPa | 2.7V | 02:15:08 | 03:41:55 | 00:00:00 | |
| DF8AY | 2026-09-01 01:32:02 | 52.56717 | 11.62633 | 120° | 57km/h | 1490m | -3.5m/s | 6.6°C | 100% | 852.1hPa | 2.7V | 02:15:08 | 03:41:54 | 00:00:00 | |
| DF8AY | 2026-09-01 01:31:55 | 52.56732 | 11.62593 | 122° | 57km/h | 1497m | -3.5m/s | 6.6°C | 100% | 851.3hPa | 2.6V | 02:15:08 | 03:41:52 | 00:00:00 | |
| DB0DAN | 2026-09-01 01:31:55 | 52.56732 | 11.62593 | 122° | 53km/h | 1497m | -3.5m/s | 6.6°C | 98.6% | 851.33hPa | 2.6V | 00:00:00 | 00:00:00 | 00:00:00 | |
| DF8AY | 2026-09-01 01:31:53 | 52.56747 | 11.62554 | 122° | 57km/h | 1504m | -3.5m/s | 6.5°C | 100% | 850.6hPa | 2.7V | 02:15:59 | 03:41:50 | 00:00:00 | |
| DF8AY | 2026-09-01 01:31:51 | 52.56762 | 11.62515 | 121° | 55km/h | 1511m | -2.9m/s | 6.5°C | 100% | 849.8hPa | 2.7V | 02:15:59 | 03:41:48 | 00:00:00 | |
| DF8AY | 2026-09-01 01:31:50 | 52.56769 | 11.62496 | 121° | 55km/h | 1514m | -3.3m/s | 6.5°C | 100% | 849.5hPa | 2.7V | 02:15:59 | 03:41:47 | 00:00:00 | |
| DF8AY | 2026-09-01 01:31:49 | 52.56776 | 11.62476 | 121° | 55km/h | 1518m | -3.6m/s | 6.4°C | 100% | 849.1hPa | 2.7V | 02:15:59 | 03:41:46 | 00:00:00 | |
| DF8AY | 2026-09-01 01:31:48 | 52.56817 | 11.62357 | 118° | 55km/h | 1541m | -4.8m/s | 6.3°C | 100% | 846.8hPa | 2.7V | 02:15:59 | 03:41:40 | 00:00:00 | |
| DF8AY | 2026-09-01 01:31:47 | 52.56823 | 11.62337 | 118° | 55km/h | 1546m | -5.3m/s | 6.3°C | 100% | 846.4hPa | 2.7V | 02:15:59 | 03:41:39 | 00:00:00 | |
| DF8AY-15 | 2026-09-01 01:31:46 | 52.56797 | 11.62417 | 120° | 55km/h | 1528m | -3.6m/s | 6.3°C | 99.1% | 847.8hPa | 2.7V | 00:00:00 | 03:41:43 | 00:00:00 | |
| TFSTFS | 2026-09-01 01:31:45 | 52.56797 | 11.62417 | 121° | 55km/h | 1528m | -3.6m/s | 6.4°C | 99.1% | 847.8hPa | 2.7V | 02:15:00 | 00:00:00 | 00:00:00 | |
| AM1SDL-15 | 2026-09-01 01:31:43 | 52.56817 | 11.62357 | 118° | 53km/h | 1541m | -4.8m/s | 6.3°C | 99.4% | 846.8hPa | 2.7V | 02:15:00 | 03:41:40 | 00:00:00 | |
| DB0DAN | 2026-09-01 01:31:40 | 52.56836 | 11.62297 | 118° | 51km/h | 1556m | -4.3m/s | 6.2°C | 99.3% | 845.33hPa | 2.6V | 00:00:00 | 00:00:00 | 00:00:00 | |
| DF8AY | 2026-09-01 01:31:40 | 52.56836 | 11.62297 | 118° | 55km/h | 1556m | -4.3m/s | 6.2°C | 100% | 845.3hPa | 2.6V | 02:15:59 | 03:41:37 | 00:00:00 | |
| DF8AY | 2026-09-01 01:31:38 | 52.56849 | 11.62257 | 118° | 55km/h | 1564m | -3.8m/s | 6.1°C | 100% | 844.5hPa | 2.7V | 02:15:59 | 03:41:35 | 00:00:00 | |
| DF8AY | 2026-09-01 01:31:37 | 52.56855 | 11.62237 | 118° | 53km/h | 1567m | -3.7m/s | 6.1°C | 100% | 844.1hPa | 2.7V | 02:15:59 | 03:41:34 | 00:00:00 | |
| DF8AY | 2026-09-01 01:31:35 | 52.56868 | 11.62199 | 119° | 53km/h | 1576m | -4.3m/s | 6.1°C | 100% | 843.2hPa | 2.7V | 02:15:59 | 03:41:32 | 00:00:00 | |
| DF8AY | 2026-09-01 01:31:33 | 52.56881 | 11.62160 | 119° | 53km/h | 1584m | -4.3m/s | 6°C | 100% | 842.3hPa | 2.6V | 02:15:59 | 03:41:30 | 00:00:00 | |
| DF8AY | 2026-09-01 01:31:32 | 52.56888 | 11.62141 | 119° | 55km/h | 1588m | -3.7m/s | 6°C | 100% | 841.8hPa | 2.7V | 02:15:59 | 03:41:29 | 00:00:00 | |
| DF8AY | 2026-09-01 01:31:30 | 52.56901 | 11.62101 | 120° | 55km/h | 1597m | -4.5m/s | 5.9°C | 100% | 841hPa | 2.7V | 02:15:59 | 03:41:27 | 00:00:00 | |
| DF8AY | 2026-09-01 01:31:28 | 52.56916 | 11.62061 | 120° | 57km/h | 1606m | -4.5m/s | 5.9°C | 100% | 840hPa | 2.7V | 02:15:59 | 03:41:25 | 00:00:00 | |
| DF8AY | 2026-09-01 01:31:26 | 52.56930 | 11.62020 | 119° | 57km/h | 1616m | -4.6m/s | 5.8°C | 100% | 839hPa | 2.6V | 02:15:59 | 03:41:23 | 00:00:00 | |
| DB0DAN | 2026-09-01 01:31:25 | 52.56937 | 11.61999 | 118° | 55km/h | 1621m | -4.8m/s | 5.8°C | 100% | 838.42hPa | 2.7V | 00:00:00 | 00:00:00 | 00:00:00 | |
| DF8AY | 2026-09-01 01:31:24 | 52.56944 | 11.61978 | 118° | 57km/h | 1625m | -4.1m/s | 5.8°C | 100% | 838.1hPa | 2.7V | 02:15:59 | 03:41:21 | 00:00:00 | |
| DF8AY | 2026-09-01 01:31:22 | 52.56957 | 11.61935 | 116° | 58km/h | 1634m | -4m/s | 5.7°C | 100% | 837.1hPa | 2.7V | 02:15:59 | 03:41:19 | 00:00:00 | |
| DF8AY | 2026-09-01 01:31:21 | 52.56963 | 11.61914 | 116° | 58km/h | 1638m | -4.7m/s | 5.7°C | 100% | 836.7hPa | 2.7V | 02:15:59 | 03:41:18 | 00:00:00 | |
| DF8AY | 2026-09-01 01:31:19 | 52.56976 | 11.61869 | 115° | 60km/h | 1647m | -3.8m/s | 5.7°C | 100% | 835.9hPa | 2.7V | 02:15:59 | 03:41:16 | 00:00:00 | |
| DF8AY | 2026-09-01 01:31:17 | 52.56988 | 11.61825 | 114° | 60km/h | 1655m | -4.2m/s | 5.6°C | 100% | 834.9hPa | 2.7V | 02:15:59 | 03:41:14 | 00:00:00 | |
| DF8AY | 2026-09-01 01:31:16 | 52.56994 | 11.61802 | 114° | 60km/h | 1660m | -4.1m/s | 5.6°C | 100% | 834.6hPa | 2.7V | 02:15:59 | 03:41:13 | 00:00:00 | |
| DF8AY | 2026-09-01 01:31:14 | 52.57006 | 11.61757 | 113° | 58km/h | 1669m | -4.9m/s | 5.5°C | 100% | 833.7hPa | 2.6V | 02:15:59 | 03:41:11 | 00:00:00 | |
| DF8AY | 2026-09-01 01:31:14 | 52.57012 | 11.61735 | 113° | 58km/h | 1674m | -4.3m/s | 5.5°C | 100% | 833.2hPa | 2.7V | 02:15:59 | 03:41:10 | 00:00:00 | |
| DF8AY | 2026-09-01 01:31:11 | 52.57023 | 11.61690 | 112° | 57km/h | 1682m | -4.1m/s | 5.4°C | 100% | 832.3hPa | 2.7V | 02:15:59 | 03:41:08 | 00:00:00 | |
| DB0DAN | 2026-09-01 01:31:10 | 52.57029 | 11.61668 | 112° | 55km/h | 1687m | -4.5m/s | 5.4°C | 99.3% | 831.77hPa | 2.7V | 00:00:00 | 00:00:00 | 00:00:00 | |
| DF8AY | 2026-09-01 01:31:10 | 52.57029 | 11.61668 | 112° | 58km/h | 1687m | -4.5m/s | 5.4°C | 100% | 831.8hPa | 2.7V | 02:15:59 | 03:41:07 | 00:00:00 | |
| DF8AY | 2026-09-01 01:31:09 | 52.57034 | 11.61646 | 112° | 58km/h | 1691m | -4.4m/s | 5.3°C | 100% | 831.2hPa | 2.7V | 02:15:59 | 03:41:06 | 00:00:00 | |
| DF8AY | 2026-09-01 01:31:07 | 52.57045 | 11.61601 | 112° | 58km/h | 1700m | -4.4m/s | 5.3°C | 100% | 830.4hPa | 2.6V | 02:15:59 | 03:41:04 | 00:00:00 | |
| DF8AY | 2026-09-01 01:31:06 | 52.57051 | 11.61578 | 112° | 58km/h | 1705m | -5.3m/s | 5.3°C | 100% | 829.9hPa | 2.7V | 02:15:59 | 03:41:03 | 00:00:00 | |
| DF8AY | 2026-09-01 01:31:05 | 52.57056 | 11.61556 | 112° | 58km/h | 1711m | -5.4m/s | 5.3°C | 100% | 829.5hPa | 2.7V | 02:15:59 | 03:41:02 | 00:00:00 | |
| DF8AY | 2026-09-01 01:31:04 | 52.57062 | 11.61533 | 112° | 58km/h | 1716m | -4.9m/s | 5.2°C | 100% | 828.9hPa | 2.7V | 02:15:59 | 03:41:01 | 00:00:00 | |
| DF8AY | 2026-09-01 01:31:03 | 52.57067 | 11.61510 | 112° | 58km/h | 1721m | -4.7m/s | 5.2°C | 100% | 828.5hPa | 2.7V | 02:15:59 | 03:41:00 | 00:00:00 | |
| DF8AY | 2026-09-01 01:31:01 | 52.57078 | 11.61464 | 111° | 58km/h | 1730m | -4.2m/s | 5.3°C | 98.3% | 827.6hPa | 2.7V | 02:16:50 | 03:40:58 | 00:00:00 | |
| DF8AY | 2026-09-01 01:31:01 | 52.57084 | 11.61441 | 110° | 60km/h | 1735m | -4.6m/s | 5.2°C | 98% | 827hPa | 2.7V | 02:16:50 | 03:40:57 | 00:00:00 | |
| DF8AY | 2026-09-01 01:30:58 | 52.57094 | 11.61395 | 111° | 60km/h | 1745m | -4.4m/s | 5.7°C | 93.8% | 826hPa | 2.7V | 02:16:50 | 03:40:55 | 00:00:00 | |
| DF8AY | 2026-09-01 01:30:57 | 52.57100 | 11.61372 | 111° | 60km/h | 1749m | -4.6m/s | 5.8°C | 92.9% | 825.6hPa | 2.7V | 02:16:50 | 03:40:54 | 00:00:00 | |
| DF8AY | 2026-09-01 01:30:55 | 52.57110 | 11.61325 | 111° | 60km/h | 1759m | -4.6m/s | 5.8°C | 92% | 824.6hPa | 2.6V | 02:16:50 | 03:40:52 | 00:00:00 | |
| DB0DAN | 2026-09-01 01:30:55 | 52.57110 | 11.61325 | 111° | 58km/h | 1759m | -4.6m/s | 5.8°C | 87.8% | 824.58hPa | 2.6V | 00:00:00 | 00:00:00 | 00:00:00 | |
| DF8AY | 2026-09-01 01:30:54 | 52.57116 | 11.61301 | 111° | 60km/h | 1764m | -4.2m/s | 5.7°C | 91.8% | 824hPa | 2.7V | 02:16:50 | 03:40:51 | 00:00:00 | |
| DF8AY | 2026-09-01 01:30:52 | 52.57127 | 11.61254 | 111° | 60km/h | 1773m | -5.5m/s | 5.7°C | 94% | 823.3hPa | 2.7V | 02:16:50 | 03:40:49 | 00:00:00 | |
| DF8AY | 2026-09-01 01:30:51 | 52.57132 | 11.61231 | 112° | 60km/h | 1779m | -4.7m/s | 5.6°C | 94.2% | 822.6hPa | 2.7V | 02:16:50 | 03:40:48 | 00:00:00 | |
| DF8AY | 2026-09-01 01:30:49 | 52.57144 | 11.61184 | 112° | 60km/h | 1788m | -4.4m/s | 5.6°C | 94.7% | 821.7hPa | 2.7V | 02:16:50 | 03:40:46 | 00:00:00 | |
| DF8AY | 2026-09-01 01:30:47 | 52.57155 | 11.61138 | 113° | 60km/h | 1797m | -4.4m/s | 5.5°C | 94.9% | 820.6hPa | 2.7V | 02:16:50 | 03:40:44 | 00:00:00 | |
| DF8AY | 2026-09-01 01:30:45 | 52.57167 | 11.61092 | 112° | 60km/h | 1807m | -5.3m/s | 5.5°C | 94.8% | 819.7hPa | 2.7V | 02:16:50 | 03:40:42 | 00:00:00 | |
| DF8AY | 2026-09-01 01:30:44 | 52.57173 | 11.61069 | 112° | 60km/h | 1812m | -5.4m/s | 5.4°C | 94.6% | 819.2hPa | 2.6V | 02:16:50 | 03:40:41 | 00:00:00 | |
| DF8AY | 2026-09-01 01:30:43 | 52.57178 | 11.61045 | 112° | 60km/h | 1818m | -5.1m/s | 5.4°C | 94.7% | 818.6hPa | 2.6V | 02:16:50 | 03:40:40 | 00:00:00 | |
| DF8AY | 2026-09-01 01:30:41 | 52.57190 | 11.60999 | 113° | 62km/h | 1827m | -4.4m/s | 5.3°C | 95.1% | 817.7hPa | 2.7V | 02:16:50 | 03:40:38 | 00:00:00 | |
| DF8AY | 2026-09-01 01:30:40 | 52.57196 | 11.60975 | 113° | 60km/h | 1832m | -5.5m/s | 5.3°C | 94.2% | 817.3hPa | 2.7V | 02:16:50 | 03:40:37 | 00:00:00 | |
| DB0DAN | 2026-09-01 01:30:40 | 52.57196 | 11.60975 | 112° | 58km/h | 1832m | -5.5m/s | 5.3°C | 88.7% | 817.27hPa | 2.7V | 00:00:00 | 00:00:00 | 00:00:00 | |
| DF8AY | 2026-09-01 01:30:39 | 52.57202 | 11.60952 | 112° | 62km/h | 1838m | -5.4m/s | 5.3°C | 93.5% | 816.5hPa | 2.7V | 02:16:50 | 03:40:36 | 00:00:00 | |
| DF8AY | 2026-09-01 01:30:37 | 52.57214 | 11.60904 | 112° | 62km/h | 1848m | -4.9m/s | 5.4°C | 91.4% | 815.7hPa | 2.7V | 02:16:50 | 03:40:34 | 00:00:00 | |
| DF8AY | 2026-09-01 01:30:36 | 52.57220 | 11.60880 | 112° | 62km/h | 1853m | -4.9m/s | 5.5°C | 87.4% | 815.1hPa | 2.7V | 02:16:50 | 03:40:33 | 00:00:00 | |
| DF8AY | 2026-09-01 01:30:34 | 52.57231 | 11.60833 | 112° | 62km/h | 1863m | -4.3m/s | 5.4°C | 86.5% | 814.3hPa | 2.7V | 02:16:50 | 03:40:31 | 00:00:00 | |
| DF8AY | 2026-09-01 01:30:32 | 52.57243 | 11.60785 | 112° | 62km/h | 1873m | -5.3m/s | 5.4°C | 86.2% | 813.3hPa | 2.6V | 02:16:50 | 03:40:29 | 00:00:00 | |
| DF8AY | 2026-09-01 01:30:32 | 52.57249 | 11.60761 | 112° | 62km/h | 1878m | -5m/s | 5.3°C | 85.5% | 812.6hPa | 2.6V | 02:16:50 | 03:40:28 | 00:00:00 | |
| DF8AY | 2026-09-01 01:30:29 | 52.57260 | 11.60713 | 111° | 62km/h | 1888m | -4.7m/s | 5.3°C | 84% | 811.7hPa | 2.7V | 02:16:50 | 03:40:26 | 00:00:00 | |
| DF8AY | 2026-09-01 01:30:28 | 52.57266 | 11.60689 | 112° | 62km/h | 1893m | -4.7m/s | 5.3°C | 83.4% | 811.3hPa | 2.7V | 02:16:50 | 03:40:25 | 00:00:00 | |
| DF8AY | 2026-09-01 01:30:26 | 52.57278 | 11.60641 | 112° | 62km/h | 1902m | -4.2m/s | 5.2°C | 83.6% | 810.3hPa | 2.7V | 02:16:50 | 03:40:23 | 00:00:00 | |
| DB0DAN | 2026-09-01 01:30:25 | 52.57283 | 11.60618 | 112° | 58km/h | 1907m | -4.2m/s | 5.2°C | 78.6% | 809.89hPa | 2.7V | 00:00:00 | 00:00:00 | 00:00:00 | |
| DF8AY | 2026-09-01 01:30:24 | 52.57289 | 11.60594 | 112° | 62km/h | 1911m | -4.6m/s | 5.2°C | 85.4% | 809.4hPa | 2.6V | 02:16:50 | 03:40:21 | 00:00:00 | |
| DF8AY | 2026-09-01 01:30:23 | 52.57295 | 11.60570 | 112° | 62km/h | 1916m | -5.3m/s | 5.1°C | 86.1% | 808.9hPa | 2.7V | 02:16:50 | 03:40:20 | 00:00:00 | |
| DF8AY | 2026-09-01 01:30:21 | 52.57306 | 11.60523 | 111° | 62km/h | 1927m | -4.9m/s | 5°C | 88.3% | 808hPa | 2.7V | 02:16:50 | 03:40:18 | 00:00:00 | |
| DF8AY | 2026-09-01 01:30:20 | 52.57312 | 11.60499 | 111° | 62km/h | 1932m | -4.3m/s | 5°C | 88.3% | 807.5hPa | 2.7V | 02:16:50 | 03:40:17 | 00:00:00 | |
| AA1-15 | 2026-09-01 01:30:19 | 52.57318 | 11.60475 | 111° | 60km/h | 1937m | -4.2m/s | 5°C | 87.3% | 807.2hPa | 2.7V | 02:16:50 | 03:40:16 | 00:00:00 | |
| DF8AY | 2026-09-01 01:30:18 | 52.57328 | 11.60427 | 111° | 62km/h | 1946m | -4.7m/s | 5°C | 86.5% | 806.1hPa | 2.7V | 02:16:50 | 03:40:14 | 00:00:00 | |
| DF8AY | 2026-09-01 01:30:17 | 52.57334 | 11.60403 | 111° | 62km/h | 1951m | -4.4m/s | 4.9°C | 86.6% | 805.7hPa | 2.7V | 02:16:50 | 03:40:13 | 00:00:00 | |
| AA1-15 | 2026-09-01 01:30:16 | 52.57340 | 11.60379 | 112° | 62km/h | 1955m | -4.2m/s | 4.9°C | 86.8% | 805.1hPa | 2.7V | 02:16:50 | 03:40:12 | 00:00:00 | |
| DF8AY | 2026-09-01 01:30:14 | 52.57345 | 11.60355 | 112° | 60km/h | 1960m | -4.4m/s | 4.9°C | 87.2% | 804.6hPa | 2.7V | 02:16:50 | 03:40:11 | 00:00:00 | |
| DF8AY | 2026-09-01 01:30:13 | 52.57351 | 11.60331 | 112° | 62km/h | 1964m | -4.5m/s | 4.8°C | 87.5% | 804.2hPa | 2.7V | 02:16:50 | 03:40:10 | 00:00:00 | |
| DF8AY | 2026-09-01 01:30:12 | 52.57357 | 11.60307 | 112° | 62km/h | 1969m | -4.9m/s | 4.8°C | 88.4% | 803.7hPa | 2.7V | 02:16:50 | 03:40:09 | 00:00:00 | |
| DF8AY | 2026-09-01 01:30:10 | 52.57369 | 11.60259 | 113° | 62km/h | 1979m | -4.6m/s | 4.8°C | 88.3% | 802.9hPa | 2.7V | 02:17:41 | 03:40:07 | 00:00:00 | |
| DB0DAN | 2026-09-01 01:30:10 | 52.57369 | 11.60259 | 113° | 58km/h | 1979m | -4.6m/s | 4.8°C | 82.4% | 802.93hPa | 2.7V | 00:00:00 | 00:00:00 | 00:00:00 | |
| AA1-15 | 2026-09-01 01:30:09 | 52.57375 | 11.60236 | 112° | 62km/h | 1984m | -4.5m/s | 4.7°C | 88.1% | 802.4hPa | 2.7V | 02:18:32 | 03:40:06 | 00:00:00 | |
| AA1-15 | 2026-09-01 01:30:08 | 52.57381 | 11.60212 | 113° | 62km/h | 1989m | -4.3m/s | 4.7°C | 88.4% | 802hPa | 2.6V | 02:18:32 | 03:40:05 | 00:00:00 | |
| DF8AY | 2026-09-01 01:30:06 | 52.57392 | 11.60165 | 112° | 62km/h | 1998m | -4.4m/s | 4.6°C | 87.7% | 801.1hPa | 2.7V | 02:17:41 | 03:40:03 | 00:00:00 | |
| AA1-15 | 2026-09-01 01:30:01 | 52.57421 | 11.60047 | 111° | 60km/h | 2021m | -4.3m/s | 4.5°C | 88% | 798.6hPa | 2.7V | 02:18:32 | 03:39:58 | 00:00:00 | |
| DF8AY | 2026-09-01 01:30:00 | 52.57426 | 11.60023 | 111° | 62km/h | 2026m | -4.7m/s | 4.4°C | 88.4% | 798.3hPa | 2.7V | 02:17:41 | 03:39:57 | 00:00:00 | |
| DB0DAN | 2026-09-01 01:29:55 | 52.57454 | 11.59904 | 111° | 58km/h | 2050m | -4.4m/s | 4.4°C | 78.5% | 795.86hPa | 2.7V | 00:00:00 | 00:00:00 | 00:00:00 | |
| AA1-15 | 2026-09-01 01:29:50 | 52.57481 | 11.59785 | 111° | 62km/h | 2072m | -4.3m/s | 4.2°C | 86.6% | 793.7hPa | 2.7V | 02:18:32 | 03:39:47 | 00:00:00 | |
| DF8AY | 2026-09-01 01:29:49 | 52.57487 | 11.59762 | 111° | 60km/h | 2077m | -4m/s | 4.2°C | 84.8% | 793.3hPa | 2.7V | 02:17:41 | 03:39:46 | 00:00:00 | |
| DF8AY | 2026-09-01 01:29:44 | 52.57542 | 11.59528 | 111° | 60km/h | 2121m | -4.2m/s | 3.9°C | 86.9% | 789hPa | 2.7V | 02:17:41 | 03:39:36 | 00:00:00 | |
| AM1SDL-15 | 2026-09-01 01:29:43 | 52.57520 | 11.59620 | 112° | 60km/h | 2103m | -4.1m/s | 4.0°C | 81.2% | 790.7hPa | 2.7V | 00:00:00 | 03:39:40 | 00:00:00 | |
| DM0DOS-11 | 2026-09-01 01:29:42 | 52.57553 | 11.59482 | 111° | 58km/h | 2130m | -3.9m/s | 3.9°C | 80.2% | 788.1hPa | 2.7V | 02:17:25 | 03:39:34 | 00:00:00 | |
| TFSTFS | 2026-09-01 01:29:41 | 52.57525 | 11.59597 | 112° | 58km/h | 2108m | -3.9m/s | 4.0°C | 80.3% | 790.2hPa | 2.7V | 02:17:00 | 00:00:00 | 00:00:00 | |
| DB0DAN | 2026-09-01 01:29:40 | 52.57537 | 11.59551 | 112° | 57km/h | 2117m | -4.2m/s | 4°C | 80.9% | 789.38hPa | 2.7V | 00:00:00 | 00:00:00 | 00:00:00 | |
| AA1-15 | 2026-09-01 01:29:38 | 52.57553 | 11.59483 | 111° | 58km/h | 2130m | -3.9m/s | 3.9°C | 86.2% | 788.1hPa | 2.7V | 02:18:32 | 03:39:34 | 00:00:00 | |
| DM0DOS-11 | 2026-09-01 01:29:37 | 52.57581 | 11.59367 | 112° | 60km/h | 2151m | -4.3m/s | 3.7°C | 81.3% | 786.1hPa | 2.7V | 02:17:30 | 03:39:29 | 00:00:00 | |
| SONDE2-11 | 2026-09-01 01:29:36 | 52.57564 | 11.59437 | 111° | 58km/h | 2138m | -3.8m/s | 3.8°C | 79.9% | 787.3hPa | 2.7V | 00:00:00 | 00:00:00 | 00:00:00 | |
| DM0DOS-11 | 2026-09-01 01:29:32 | 52.57611 | 11.59252 | 112° | 60km/h | 2172m | -4.1m/s | 3.5°C | 81.6% | 784hPa | 2.7V | 02:17:35 | 03:39:24 | 00:00:00 | |
| DF8AY | 2026-09-01 01:29:28 | 52.57605 | 11.59275 | 113° | 60km/h | 2168m | -3.8m/s | 3.6°C | 87.5% | 784.5hPa | 2.7V | 02:17:41 | 03:39:25 | 00:00:00 | |
| DM0DOS-11 | 2026-09-01 01:29:27 | 52.57640 | 11.59138 | 113° | 58km/h | 2194m | -4.2m/s | 3.4°C | 80.9% | 781.9hPa | 2.7V | 02:17:40 | 03:39:19 | 00:00:00 | |
| DB0DAN | 2026-09-01 01:29:25 | 52.57622 | 11.59206 | 113° | 57km/h | 2181m | -3.9m/s | 3.5°C | 81% | 783.11hPa | 2.7V | 00:00:00 | 00:00:00 | 00:00:00 | |
| AA1-15 | 2026-09-01 01:29:24 | 52.57628 | 11.59184 | 113° | 60km/h | 2185m | -4.4m/s | 3.4°C | 87.1% | 782.7hPa | 2.6V | 02:18:32 | 03:39:21 | 00:00:00 | |
| S3001 | 2026-09-01 01:29:23 | 52.57634 | 11.59161 | 113° | 58km/h | 2190m | -4.3m/s | 3.4°C | 81.0% | 782.2hPa | 2.6V | 00:00:00 | 00:00:00 | 00:00:00 | |
| DM0DOS-11 | 2026-09-01 01:29:22 | 52.57671 | 11.59025 | 114° | 58km/h | 2216m | -4.4m/s | 3.2°C | 81.1% | 779.8hPa | 2.6V | 02:17:45 | 03:39:14 | 00:00:00 | |
| DF8AY | 2026-09-01 01:29:18 | 52.57665 | 11.59047 | 114° | 58km/h | 2212m | -4.1m/s | 3.3°C | 87.2% | 780.2hPa | 2.7V | 02:18:32 | 03:39:15 | 00:00:00 | |
| DF7ER-10 | 2026-09-01 01:29:17 | 52.57665 | 11.59047 | 115° | 58km/h | 2212m | -4.1m/s | 3.3°C | 81.2% | 780.2hPa | 2.6V | 02:18:00 | 00:00:00 | 00:00:00 | |
| DM0DOS-11 | 2026-09-01 01:29:12 | 52.57733 | 11.58806 | 115° | 57km/h | 2260m | -3.8m/s | 2.9°C | 80.6% | 775.6hPa | 2.6V | 02:17:55 | 03:39:04 | 00:00:00 | |
| DB0DAN | 2026-09-01 01:29:10 | 52.57714 | 11.58872 | 115° | 55km/h | 2247m | -3.8m/s | 3°C | 79.9% | 776.77hPa | 2.7V | 00:00:00 | 00:00:00 | 00:00:00 | |
| AA1-15 | 2026-09-01 01:29:09 | 52.57721 | 11.58850 | 116° | 58km/h | 2251m | -4.1m/s | 3°C | 85.9% | 776.4hPa | 2.7V | 02:18:32 | 03:39:06 | 00:00:00 | |
| DF8AY | 2026-09-01 01:29:07 | 52.57733 | 11.58806 | 116° | 57km/h | 2260m | -3.8m/s | 2.9°C | 86.1% | 775.6hPa | 2.6V | 02:18:32 | 03:39:04 | 00:00:00 | |
| DF8AY-15 | 2026-09-01 01:29:06 | 52.57739 | 11.58784 | 116° | 60km/h | 2264m | -4.0m/s | 2.9°C | 80.8% | 775.1hPa | 2.6V | 00:00:00 | 03:39:03 | 00:00:00 | |
| SONDE2-11 | 2026-09-01 01:29:04 | 52.57752 | 11.58740 | 114° | 58km/h | 2273m | -4.0m/s | 2.9°C | 80.4% | 774.3hPa | 2.6V | 00:00:00 | 00:00:00 | 00:00:00 | |
| DM0DOS-11 | 2026-09-01 01:29:02 | 52.57796 | 11.58582 | 114° | 60km/h | 2303m | -3.9m/s | 2.7°C | 81.1% | 771.5hPa | 2.6V | 02:18:05 | 03:38:54 | 00:00:00 | |
| AA1-15 | 2026-09-01 01:28:57 | 52.57796 | 11.58582 | 114° | 60km/h | 2303m | -3.9m/s | 2.7°C | 86.6% | 771.5hPa | 2.6V | 02:18:32 | 03:38:54 | 00:00:00 | |
| DM0DOS-11 | 2026-09-01 01:28:57 | 52.57828 | 11.58468 | 114° | 60km/h | 2324m | -4.3m/s | 2.6°C | 80.5% | 769.5hPa | 2.7V | 02:18:10 | 03:38:49 | 00:00:00 | |
| DF8AY | 2026-09-01 01:28:56 | 52.57802 | 11.58560 | 115° | 60km/h | 2307m | -4.1m/s | 2.7°C | 86.4% | 771.1hPa | 2.7V | 02:18:32 | 03:38:53 | 00:00:00 | |
| DB0DAN | 2026-09-01 01:28:55 | 52.57809 | 11.58537 | 114° | 58km/h | 2311m | -4.1m/s | 2.6°C | 80.8% | 770.74hPa | 2.7V | 00:00:00 | 00:00:00 | 00:00:00 | |
| DM0DOS-11 | 2026-09-01 01:28:52 | 52.57859 | 11.58355 | 114° | 60km/h | 2346m | -4.1m/s | 2.5°C | 78.9% | 767.4hPa | 2.6V | 02:18:15 | 03:38:44 | 00:00:00 | |
| S3001 | 2026-09-01 01:28:52 | 52.57834 | 11.58446 | 114° | 58km/h | 2328m | -3.6m/s | 2.6°C | 79.5% | 769.0hPa | 2.7V | 00:00:00 | 00:00:00 | 00:00:00 | |
| EDDB2-12 | 2026-09-01 01:28:48 | 52.57853 | 11.58378 | 114° | 58km/h | 2341m | -3.9m/s | 2.5°C | 78.8% | 767.8hPa | 2.7V | 00:00:00 | 00:00:00 | 00:00:00 | |
| DM0DOS-11 | 2026-09-01 01:28:47 | 52.57890 | 11.58241 | 113° | 60km/h | 2367m | -3.8m/s | 2.4°C | 78.2% | 765.5hPa | 2.7V | 02:18:20 | 03:38:39 | 00:00:00 | |
| AA1-15 | 2026-09-01 01:28:46 | 52.57865 | 11.58332 | 115° | 60km/h | 2350m | -4.3m/s | 2.5°C | 84% | 767hPa | 2.7V | 02:18:32 | 03:38:43 | 00:00:00 | |
| DF8AY | 2026-09-01 01:28:45 | 52.57872 | 11.58309 | 114° | 60km/h | 2355m | -4.2m/s | 2.4°C | 84.2% | 766.6hPa | 2.7V | 02:18:32 | 03:38:42 | 00:00:00 | |
| AM1SDL-15 | 2026-09-01 01:28:43 | 52.57884 | 11.58264 | 115° | 60km/h | 2363m | -4.0m/s | 2.4°C | 78.8% | 765.8hPa | 2.7V | 02:18:00 | 03:38:40 | 00:00:00 | |
| DM0DOS-11 | 2026-09-01 01:28:42 | 52.57921 | 11.58127 | 114° | 60km/h | 2388m | -4.3m/s | 2.2°C | 79.4% | 763.3hPa | 2.6V | 02:18:25 | 03:38:34 | 00:00:00 | |
| DB0DAN | 2026-09-01 01:28:40 | 52.57903 | 11.58195 | 114° | 58km/h | 2376m | -3.8m/s | 2.3°C | 78.3% | 764.62hPa | 2.7V | 00:00:00 | 00:00:00 | 00:00:00 | |
| DM0DOS-11 | 2026-09-01 01:28:37 | 52.57952 | 11.58013 | 113° | 60km/h | 2409m | -4m/s | 2°C | 81.6% | 761.4hPa | 2.7V | 02:18:30 | 03:38:29 | 00:00:00 | |
| DF8AY | 2026-09-01 01:28:35 | 52.57934 | 11.58081 | 114° | 60km/h | 2397m | -4.1m/s | 2.1°C | 86% | 762.6hPa | 2.7V | 02:18:32 | 03:38:32 | 00:00:00 | |
| DF7ER-10 | 2026-09-01 01:28:35 | 52.57934 | 11.58081 | 115° | 60km/h | 2397m | -4.1m/s | 2.1°C | 80.1% | 762.6hPa | 2.6V | 02:18:00 | 00:00:00 | 00:00:00 | |
| SONDE2-11 | 2026-09-01 01:28:34 | 52.57946 | 11.58036 | 114° | 58km/h | 2405m | -3.9m/s | 2.0°C | 80.9% | 761.8hPa | 2.6V | 00:00:00 | 00:00:00 | 00:00:00 | |
| DM0DOS-11 | 2026-09-01 01:28:32 | 52.57982 | 11.57900 | 113° | 60km/h | 2430m | -4.1m/s | 1.8°C | 83.6% | 759.5hPa | 2.6V | 02:18:35 | 03:38:24 | 00:00:00 | |
| AA1-15 | 2026-09-01 01:28:28 | 52.57976 | 11.57923 | 114° | 58km/h | 2426m | -3.7m/s | 1.9°C | 88.8% | 760.1hPa | 2.6V | 02:21:05 | 03:38:25 | 00:00:00 | |
| DM0DOS-11 | 2026-09-01 01:28:27 | 52.58012 | 11.57788 | 114° | 58km/h | 2451m | -4.1m/s | 1.6°C | 84.3% | 757.5hPa | 2.7V | 02:18:40 | 03:38:19 | 00:00:00 | |
| DB0DAN | 2026-09-01 01:28:25 | 52.57994 | 11.57855 | 114° | 57km/h | 2438m | -4m/s | 1.7°C | 83.6% | 758.74hPa | 2.7V | 00:00:00 | 00:00:00 | 00:00:00 | |
| DF8AY | 2026-09-01 01:28:24 | 52.58000 | 11.57832 | 113° | 58km/h | 2442m | -3.9m/s | 1.7°C | 89.4% | 758.3hPa | 2.7V | 02:19:23 | 03:38:21 | 00:00:00 | |
| DF7ER-10 | 2026-09-01 01:28:23 | 52.58000 | 11.57832 | 114° | 58km/h | 2442m | -3.9m/s | 1.7°C | 83.8% | 758.3hPa | 2.6V | 02:19:00 | 00:00:00 | 00:00:00 | |
| DM0DOS-11 | 2026-09-01 01:28:22 | 52.58043 | 11.57679 | 115° | 58km/h | 2472m | -4.1m/s | 1.5°C | 84.2% | 755.5hPa | 2.6V | 02:18:45 | 03:38:14 | 00:00:00 | |
| DF8AY | 2026-09-01 01:28:13 | 52.58068 | 11.57592 | 116° | 58km/h | 2490m | -4.2m/s | 1.4°C | 89.5% | 753.9hPa | 2.7V | 02:19:23 | 03:38:10 | 00:00:00 | |
| DM0DOS-11 | 2026-09-01 01:28:12 | 52.58106 | 11.57461 | 114° | 58km/h | 2515m | -4.1m/s | 1.3°C | 84.1% | 751.4hPa | 2.7V | 02:18:55 | 03:38:04 | 00:00:00 | |
| DB0DAN | 2026-09-01 01:28:10 | 52.58087 | 11.57527 | 116° | 57km/h | 2502m | -4.1m/s | 1.3°C | 84.2% | 752.65hPa | 2.7V | 00:00:00 | 00:00:00 | 00:00:00 | |
| AA1-15 | 2026-09-01 01:28:07 | 52.58106 | 11.57461 | 115° | 58km/h | 2515m | -4.1m/s | 1.3°C | 89.1% | 751.4hPa | 2.7V | 02:21:05 | 03:38:04 | 00:00:00 | |
| DF8AY | 2026-09-01 01:28:03 | 52.58131 | 11.57374 | 115° | 58km/h | 2532m | -3.6m/s | 1.2°C | 88.4% | 749.9hPa | 2.7V | 02:19:23 | 03:38:00 | 00:00:00 | |
| DM0DOS-11 | 2026-09-01 01:28:02 | 52.58169 | 11.57244 | 116° | 57km/h | 2557m | -4.2m/s | 1°C | 85.4% | 747.5hPa | 2.7V | 02:19:05 | 03:37:54 | 00:00:00 | |
| DF7ER-10 | 2026-09-01 01:28:01 | 52.58138 | 11.57352 | 117° | 58km/h | 2536m | -3.9m/s | 1.2°C | 83.0% | 749.5hPa | 2.7V | 02:19:00 | 00:00:00 | 00:00:00 | |
| DM0DOS-11 | 2026-09-01 01:27:57 | 52.58202 | 11.57137 | 116° | 58km/h | 2579m | -3.9m/s | 0.8°C | 87.6% | 745.5hPa | 2.7V | 02:19:10 | 03:37:49 | 00:00:00 | |
| AA1-15 | 2026-09-01 01:27:56 | 52.58176 | 11.57223 | 116° | 57km/h | 2562m | -4m/s | 0.9°C | 91% | 747hPa | 2.6V | 02:21:05 | 03:37:53 | 00:00:00 | |
| DB0DAN | 2026-09-01 01:27:55 | 52.58182 | 11.57201 | 117° | 55km/h | 2566m | -4.4m/s | 0.9°C | 86.4% | 746.68hPa | 2.7V | 00:00:00 | 00:00:00 | 00:00:00 | |
| DF8AY | 2026-09-01 01:27:52 | 52.58201 | 11.57137 | 116° | 58km/h | 2579m | -3.9m/s | 0.8°C | 92.4% | 745.5hPa | 2.7V | 02:19:23 | 03:37:49 | 00:00:00 | |
| DM0DOS-11 | 2026-09-01 01:27:52 | 52.58233 | 11.57027 | 113° | 58km/h | 2600m | -3.9m/s | 0.6°C | 86.4% | 743.5hPa | 2.6V | 02:19:15 | 03:37:44 | 00:00:00 | |
| DF7ER-10 | 2026-09-01 01:27:51 | 52.58201 | 11.57136 | 117° | 58km/h | 2579m | -3.9m/s | 0.8°C | 87.1% | 745.5hPa | 2.7V | 02:19:00 | 00:00:00 | 00:00:00 | |
| DL2RXE-15 | 2026-09-01 01:27:50 | 52.58214 | 11.57092 | 116° | 58km/h | 2588m | -3.9m/s | 0.7°C | 86.1% | 744.7hPa | 2.7V | 02:19:00 | 00:00:00 | 00:00:00 | |
| DM0DOS-11 | 2026-09-01 01:27:47 | 52.58262 | 11.56917 | 113° | 57km/h | 2621m | -3.7m/s | 0.4°C | 89% | 741.5hPa | 2.7V | 02:19:20 | 03:37:39 | 00:00:00 | |
| AA1-15 | 2026-09-01 01:27:46 | 52.58239 | 11.57005 | 114° | 57km/h | 2604m | -3.9m/s | 0.6°C | 91.3% | 743.1hPa | 2.7V | 02:21:05 | 03:37:43 | 00:00:00 | |
| EDDB2-11 | 2026-09-01 01:27:45 | 52.58250 | 11.56961 | 113° | 57km/h | 2612m | -4.1m/s | 0.5°C | 86.3% | 742.5hPa | 2.7V | 00:00:00 | 00:00:00 | 00:00:00 | |
| DF8AY | 2026-09-01 01:27:42 | 52.58262 | 11.56917 | 114° | 57km/h | 2621m | -3.7m/s | 0.4°C | 93.5% | 741.5hPa | 2.7V | 02:19:23 | 03:37:39 | 00:00:00 | |
| DF7ER-10 | 2026-09-01 01:27:41 | 52.58262 | 11.56917 | 115° | 57km/h | 2621m | -3.7m/s | 0.4°C | 88.5% | 741.5hPa | 2.7V | 02:19:00 | 00:00:00 | 00:00:00 | |
| DM0DOS-11 | 2026-09-01 01:27:37 | 52.58323 | 11.56697 | 113° | 58km/h | 2662m | -4m/s | 0.2°C | 81.4% | 737.7hPa | 2.7V | 02:19:30 | 03:37:29 | 00:00:00 | |
| AA1-15 | 2026-09-01 01:27:35 | 52.58305 | 11.56764 | 114° | 58km/h | 2650m | -3.8m/s | 0.2°C | 92.5% | 738.9hPa | 2.7V | 02:21:05 | 03:37:32 | 00:00:00 | |
| DF8AY | 2026-09-01 01:27:32 | 52.58323 | 11.56697 | 113° | 58km/h | 2663m | -4m/s | 0.2°C | 85.4% | 737.7hPa | 2.7V | 02:20:14 | 03:37:29 | 00:00:00 | |
| AM1SDL-15 | 2026-09-01 01:27:31 | 52.58329 | 11.56674 | 113° | 60km/h | 2667m | -4.0m/s | 0.2°C | 79.2% | 737.2hPa | 2.6V | 02:19:00 | 03:37:28 | 00:00:00 | |
| DF7ER-10 | 2026-09-01 01:27:30 | 52.58329 | 11.56674 | 114° | 60km/h | 2667m | -4.1m/s | 0.2°C | 78.7% | 737.3hPa | 2.6V | 00:00:00 | 00:00:00 | 00:00:00 | |
| DL2RXE-15 | 2026-09-01 01:27:29 | 52.58334 | 11.56651 | 114° | 60km/h | 2671m | -4.4m/s | 0.2°C | 79.1% | 736.9hPa | 2.6V | 02:20:00 | 00:00:00 | 00:00:00 | |
| DM0DOS-11 | 2026-09-01 01:27:27 | 52.58382 | 11.56470 | 114° | 60km/h | 2708m | -4.7m/s | 0°C | 79.9% | 733.4hPa | 2.6V | 02:19:40 | 03:37:19 | 00:00:00 | |
| DB0DAN | 2026-09-01 01:27:25 | 52.58364 | 11.56538 | 114° | 57km/h | 2694m | -4.3m/s | 0.1°C | 80% | 734.77hPa | 2.7V | 00:00:00 | 00:00:00 | 00:00:00 | |
| AA1-15 | 2026-09-01 01:27:24 | 52.58370 | 11.56515 | 114° | 60km/h | 2699m | -5m/s | 0°C | 84.2% | 734.4hPa | 2.6V | 02:21:05 | 03:37:21 | 00:00:00 | |
| DM0DOS-11 | 2026-09-01 01:27:22 | 52.58416 | 11.56356 | 115° | 60km/h | 2734m | -4.8m/s | -0.1°C | 79.7% | 731hPa | 2.6V | 02:19:45 | 03:37:14 | 00:00:00 | |
| DF8AY | 2026-09-01 01:27:21 | 52.58389 | 11.56447 | 116° | 60km/h | 2714m | -5.2m/s | 0.1°C | 83.3% | 732.9hPa | 2.6V | 02:20:14 | 03:37:18 | 00:00:00 | |
| DF7ER-10 | 2026-09-01 01:27:20 | 52.58396 | 11.56424 | 116° | 60km/h | 2719m | -4.8m/s | 0.0°C | 76.6% | 732.4hPa | 2.6V | 00:00:00 | 00:00:00 | 00:00:00 | |
| S3001 | 2026-09-01 01:27:19 | 52.58409 | 11.56379 | 115° | 60km/h | 2729m | -5.0m/s | -0.0°C | 79.0% | 731.6hPa | 2.6V | 00:00:00 | 00:00:00 | 00:00:00 | |
| DM0DOS-11 | 2026-09-01 01:27:17 | 52.58450 | 11.56242 | 116° | 62km/h | 2759m | -5.1m/s | -0.3°C | 82.7% | 728.8hPa | 2.6V | 02:19:50 | 03:37:09 | 00:00:00 | |
| AA1-15 | 2026-09-01 01:27:13 | 52.58442 | 11.56265 | 116° | 60km/h | 2754m | -5.1m/s | -0.2°C | 87.3% | 729.2hPa | 2.6V | 02:21:05 | 03:37:10 | 00:00:00 | |
| DM0DOS-11 | 2026-09-01 01:27:12 | 52.58484 | 11.56128 | 116° | 62km/h | 2783m | -4.7m/s | -0.4°C | 80.7% | 726.5hPa | 2.7V | 02:19:55 | 03:37:04 | 00:00:00 | |
| DF8AY | 2026-09-01 01:27:11 | 52.58456 | 11.56220 | 117° | 62km/h | 2765m | -4.8m/s | -0.3°C | 87.2% | 728.3hPa | 2.6V | 02:20:14 | 03:37:08 | 00:00:00 | |
| DB0DAN | 2026-09-01 01:27:10 | 52.58463 | 11.56197 | 117° | 58km/h | 2769m | -4.9m/s | -0.4°C | 83.5% | 727.93hPa | 2.6V | 00:00:00 | 00:00:00 | 00:00:00 | |
| SONCRA | 2026-09-01 01:27:09 | 52.58477 | 11.56151 | 116° | 60km/h | 2779m | -4.7m/s | -0.4°C | 83.1% | 727.0hPa | 2.6V | 00:00:00 | 00:00:00 | 00:00:00 | |
| DM0DOS-11 | 2026-09-01 01:27:07 | 52.58527 | 11.55992 | 118° | 62km/h | 2814m | -5.3m/s | -0.3°C | 71.8% | 723.9hPa | 2.6V | 02:20:01 | 03:36:58 | 00:00:00 | |
| AA1-15 | 2026-09-01 01:27:03 | 52.58512 | 11.56037 | 118° | 62km/h | 2803m | -5.2m/s | -0.3°C | 78.3% | 724.7hPa | 2.6V | 02:21:05 | 03:37:00 | 00:00:00 | |
| DM0DOS-11 | 2026-09-01 01:27:02 | 52.58563 | 11.55878 | 116° | 62km/h | 2839m | -4.8m/s | -0.5°C | 79% | 721.6hPa | 2.6V | 02:20:06 | 03:36:53 | 00:00:00 | |
| DF8AY | 2026-09-01 01:27:00 | 52.58534 | 11.55969 | 118° | 62km/h | 2819m | -4.8m/s | -0.3°C | 80.9% | 723.3hPa | 2.6V | 02:20:14 | 03:36:57 | 00:00:00 | |
| DM0DOS-11 | 2026-09-01 01:26:56 | 52.58598 | 11.55763 | 116° | 62km/h | 2865m | -5.3m/s | -0.7°C | 83.9% | 719.2hPa | 2.6V | 02:20:11 | 03:36:48 | 00:00:00 | |
| DB0DAN | 2026-09-01 01:26:55 | 52.58570 | 11.55855 | 117° | 58km/h | 2844m | -5m/s | -0.5°C | 82.2% | 721.22hPa | 2.6V | 00:00:00 | 00:00:00 | 00:00:00 | |
| BIOWL1-15 | 2026-09-01 01:26:53 | 52.58584 | 11.55809 | 117° | 62km/h | 2854m | -5.1m/s | -0.6°C | 88% | 720.1hPa | 2.6V | 02:20:14 | 03:36:50 | 00:00:00 | |
| DM0DOS-11 | 2026-09-01 01:26:51 | 52.58635 | 11.55649 | 118° | 62km/h | 2891m | -4.8m/s | -0.7°C | 82.9% | 717hPa | 2.6V | 02:20:16 | 03:36:43 | 00:00:00 | |
| AA1-15 | 2026-09-01 01:26:50 | 52.58605 | 11.55740 | 117° | 62km/h | 2870m | -5.5m/s | -0.7°C | 89.3% | 718.8hPa | 2.6V | 02:21:05 | 03:36:47 | 00:00:00 | |
| DF8AY | 2026-09-01 01:26:49 | 52.58612 | 11.55717 | 118° | 62km/h | 2876m | -5.2m/s | -0.7°C | 89.4% | 718.3hPa | 2.6V | 02:20:14 | 03:36:46 | 00:00:00 | |
| S3001 | 2026-09-01 01:26:48 | 52.58627 | 11.55671 | 118° | 62km/h | 2886m | -5.0m/s | -0.7°C | 84.3% | 717.4hPa | 2.6V | 00:00:00 | 00:00:00 | 00:00:00 | |
| EDDB2-12 | 2026-09-01 01:26:44 | 52.58649 | 11.55603 | 118° | 60km/h | 2902m | -5.2m/s | -0.7°C | 76.0% | 716.0hPa | 2.6V | 00:00:00 | 00:00:00 | 00:00:00 | |
| BIOWL1-15 | 2026-09-01 01:26:43 | 52.58657 | 11.55581 | 120° | 62km/h | 2907m | -5m/s | -0.7°C | 81.9% | 715.6hPa | 2.6V | 02:21:05 | 03:36:40 | 00:00:00 | |
| EDDB2-11 | 2026-09-01 01:26:43 | 52.58665 | 11.55558 | 118° | 60km/h | 2912m | -4.9m/s | -0.8°C | 75.1% | 715.1hPa | 2.6V | 00:00:00 | 00:00:00 | 00:00:00 | |
| AM1SDL-15 | 2026-09-01 01:26:42 | 52.58664 | 11.55558 | 119° | 60km/h | 2912m | -4.9m/s | -0.7°C | 75.6% | 715.0hPa | 2.6V | 00:00:00 | 03:36:39 | 00:00:00 | |
| DM0DOS-11 | 2026-09-01 01:26:41 | 52.58709 | 11.55426 | 118° | 60km/h | 2943m | -4.9m/s | -1.1°C | 88.1% | 712.2hPa | 2.6V | 02:20:26 | 03:36:33 | 00:00:00 | |
| DB0DAN | 2026-09-01 01:26:40 | 52.58679 | 11.55514 | 119° | 58km/h | 2922m | -5.1m/s | -0.9°C | 77.1% | 714.14hPa | 2.6V | 00:00:00 | 00:00:00 | 00:00:00 | |
| AA1-15 | 2026-09-01 01:26:39 | 52.58687 | 11.55492 | 119° | 60km/h | 2928m | -5m/s | -0.9°C | 88.8% | 713.8hPa | 2.6V | 02:21:05 | 03:36:36 | 00:00:00 | |
| DF8AY | 2026-09-01 01:26:38 | 52.58694 | 11.55470 | 119° | 60km/h | 2933m | -4.9m/s | -1°C | 90.9% | 713.3hPa | 2.6V | 02:21:05 | 03:36:35 | 00:00:00 | |
| BIOWL1-15 | 2026-09-01 01:26:33 | 52.58731 | 11.55360 | 119° | 60km/h | 2958m | -4.4m/s | -1.2°C | 94.2% | 711hPa | 2.6V | 02:21:05 | 03:36:30 | 00:00:00 | |
| DM0DOS-11 | 2026-09-01 01:26:31 | 52.58783 | 11.55207 | 119° | 60km/h | 2992m | -4.2m/s | -1.2°C | 66.7% | 708hPa | 2.6V | 02:20:36 | 03:36:23 | 00:00:00 | |
| DF8AY | 2026-09-01 01:26:28 | 52.58768 | 11.55251 | 119° | 60km/h | 2983m | -4.2m/s | -1.1°C | 74.2% | 708.8hPa | 2.6V | 02:21:05 | 03:36:25 | 00:00:00 | |
| DM0DOS-11 | 2026-09-01 01:26:26 | 52.58819 | 11.55097 | 117° | 60km/h | 3015m | -4.2m/s | -1.2°C | 63.9% | 705.9hPa | 2.6V | 02:20:41 | 03:36:18 | 00:00:00 | |
| AA1-15 | 2026-09-01 01:26:25 | 52.58790 | 11.55186 | 119° | 60km/h | 2996m | -4m/s | -1.2°C | 71% | 707.7hPa | 2.6V | 02:21:05 | 03:36:22 | 00:00:00 | |
| DB0DAN | 2026-09-01 01:26:25 | 52.58790 | 11.55186 | 119° | 57km/h | 2996m | -4m/s | -1.2°C | 64.5% | 707.66hPa | 2.6V | 00:00:00 | 00:00:00 | 00:00:00 | |
| BIOWL1-15 | 2026-09-01 01:26:23 | 52.58861 | 11.54964 | 118° | 60km/h | 3044m | -4.8m/s | -1.4°C | 71.9% | 703.4hPa | 2.6V | 02:21:05 | 03:36:12 | 00:00:00 | |
| DM0DOS-11 | 2026-09-01 01:26:21 | 52.58854 | 11.54986 | 117° | 60km/h | 3039m | -4.5m/s | -1.4°C | 65.1% | 703.8hPa | 2.6V | 02:20:46 | 03:36:13 | 00:00:00 | |
| DF8AY | 2026-09-01 01:26:18 | 52.58840 | 11.55031 | 117° | 60km/h | 3029m | -4.8m/s | -1.3°C | 70.7% | 704.8hPa | 2.6V | 02:21:05 | 03:36:15 | 00:00:00 | |
| S3001 | 2026-09-01 01:26:17 | 52.58854 | 11.54986 | 117° | 58km/h | 3039m | -4.5m/s | -1.4°C | 64.6% | 703.8hPa | 2.6V | 00:00:00 | 00:00:00 | 00:00:00 | |
| DM0DOS-11 | 2026-09-01 01:26:16 | 52.58889 | 11.54876 | 117° | 60km/h | 3062m | -4.7m/s | -1.6°C | 70.9% | 701.8hPa | 2.6V | 02:20:51 | 03:36:08 | 00:00:00 | |
| AA1-15 | 2026-09-01 01:26:14 | 52.58868 | 11.54942 | 117° | 60km/h | 3049m | -4.2m/s | -1.5°C | 73.2% | 702.9hPa | 2.6V | 02:21:05 | 03:36:11 | 00:00:00 | |
| DF8AY | 2026-09-01 01:26:12 | 52.58915 | 11.54788 | 117° | 58km/h | 3082m | -4.5m/s | -1.8°C | 85.7% | 700.2hPa | 2.6V | 02:21:05 | 03:36:04 | 00:00:00 | |
| EDDB2-11 | 2026-09-01 01:26:12 | 52.58888 | 11.54876 | 117° | 58km/h | 3062m | -4.7m/s | -1.6°C | 70.3% | 701.8hPa | 2.6V | 00:00:00 | 00:00:00 | 00:00:00 | |
| DM0DOS-11 | 2026-09-01 01:26:11 | 52.58922 | 11.54766 | 116° | 58km/h | 3086m | -4.2m/s | -1.8°C | 81.5% | 699.8hPa | 2.6V | 02:20:56 | 03:36:03 | 00:00:00 | |
| BIOWL1-15 | 2026-09-01 01:26:10 | 52.58909 | 11.54810 | 117° | 60km/h | 3077m | -4.2m/s | -1.7°C | 84.6% | 700.5hPa | 2.6V | 02:21:05 | 03:36:05 | 00:00:00 | |
| DB0DAN | 2026-09-01 01:26:10 | 52.58895 | 11.54854 | 116° | 57km/h | 3068m | -4.2m/s | -1.7°C | 72.2% | 701.28hPa | 2.6V | 00:00:00 | 00:00:00 | 00:00:00 | |
| DL1XH-west | 2026-09-01 01:26:04 | 52.58935 | 11.54722 | 117° | 60km/h | 3095m | -4.5m/s | -1.9°C | 87.6% | 698.9hPa | 2.6V | 02:21:56 | 03:36:01 | 00:00:00 | |
| TFSTFS | 2026-09-01 01:26:03 | 52.58936 | 11.54721 | 118° | 60km/h | 3095m | -4.5m/s | -1.9°C | 82.2% | 698.8hPa | 2.6V | 02:21:00 | 00:00:00 | 00:00:00 | |
| AA1-15 | 2026-09-01 01:26:03 | 52.58942 | 11.54699 | 117° | 60km/h | 3100m | -4.4m/s | -1.9°C | 88.5% | 698.5hPa | 2.6V | 02:21:05 | 03:36:00 | 00:00:00 | |
| DM0DOS-11 | 2026-09-01 01:26:01 | 52.58990 | 11.54545 | 117° | 58km/h | 3132m | -4.1m/s | -2.1°C | 78% | 695.7hPa | 2.6V | 02:21:06 | 03:35:53 | 00:00:00 | |
| BIOWL1-15 | 2026-09-01 01:25:58 | 52.59025 | 11.54434 | 117° | 60km/h | 3154m | -4.5m/s | -2.3°C | 86.2% | 693.9hPa | 2.6V | 02:21:56 | 03:35:48 | 00:00:00 | |
| DF8AY | 2026-09-01 01:25:56 | 52.58990 | 11.54545 | 117° | 58km/h | 3132m | -4.1m/s | -2.1°C | 82.9% | 695.8hPa | 2.6V | 02:21:56 | 03:35:53 | 00:00:00 | |
| DB0DAN | 2026-09-01 01:25:55 | 52.58997 | 11.54523 | 117° | 57km/h | 3136m | -4.2m/s | -2.2°C | 77.5% | 695.42hPa | 2.6V | 00:00:00 | 00:00:00 | 00:00:00 | |
| AA1-15 | 2026-09-01 01:25:53 | 52.59011 | 11.54479 | 117° | 60km/h | 3145m | -4.2m/s | -2.2°C | 85.8% | 694.6hPa | 2.6V | 02:21:56 | 03:35:50 | 00:00:00 | |
| DL1XH-west | 2026-09-01 01:25:52 | 52.59018 | 11.54457 | 117° | 60km/h | 3149m | -4.3m/s | -2.2°C | 86% | 694.2hPa | 2.6V | 02:21:56 | 03:35:49 | 00:00:00 | |
| DM0DOS-11 | 2026-09-01 01:25:51 | 52.59061 | 11.54325 | 118° | 58km/h | 3176m | -4m/s | -2.5°C | 82.6% | 691.8hPa | 2.6V | 02:21:16 | 03:35:43 | 00:00:00 | |
| DF8AY | 2026-09-01 01:25:46 | 52.59068 | 11.54303 | 118° | 58km/h | 3181m | -4.1m/s | -2.5°C | 87.5% | 691.5hPa | 2.6V | 02:21:56 | 03:35:42 | 00:00:00 | |
| DM0DOS-11 | 2026-09-01 01:25:46 | 52.59096 | 11.54217 | 119° | 58km/h | 3199m | -4.3m/s | -2.6°C | 82.6% | 689.9hPa | 2.6V | 02:21:21 | 03:35:38 | 00:00:00 | |
| S3001 | 2026-09-01 01:25:46 | 52.59068 | 11.54303 | 118° | 58km/h | 3181m | -4.1m/s | -2.5°C | 81.9% | 691.5hPa | 2.6V | 00:00:00 | 00:00:00 | 00:00:00 | |
| BIOWL1-15 | 2026-09-01 01:25:45 | 52.59082 | 11.54260 | 119° | 58km/h | 3190m | -4.2m/s | -2.6°C | 87.2% | 690.5hPa | 2.6V | 02:21:56 | 03:35:40 | 00:00:00 | |
| AA1-15 | 2026-09-01 01:25:42 | 52.59089 | 11.54238 | 118° | 58km/h | 3195m | -4.3m/s | -2.6°C | 87% | 690.2hPa | 2.6V | 02:21:56 | 03:35:39 | 00:00:00 | |
| TFSTFS | 2026-09-01 01:25:41 | 52.59089 | 11.54238 | 119° | 58km/h | 3195m | -4.3m/s | -2.6°C | 81.5% | 690.2hPa | 2.6V | 02:21:00 | 00:00:00 | 00:00:00 | |
| DB0DAN | 2026-09-01 01:25:40 | 52.59103 | 11.54195 | 120° | 55km/h | 3204m | -4.4m/s | -2.7°C | 81.9% | 689.56hPa | 2.6V | 00:00:00 | 00:00:00 | 00:00:00 | |
| DL1XH-west | 2026-09-01 01:25:37 | 52.59125 | 11.54132 | 119° | 58km/h | 3217m | -3.9m/s | -2.8°C | 86.5% | 688.3hPa | 2.6V | 02:21:56 | 03:35:34 | 00:00:00 | |
| DF8AY | 2026-09-01 01:25:35 | 52.59139 | 11.54088 | 119° | 60km/h | 3225m | -4.3m/s | -2.8°C | 85.7% | 687.5hPa | 2.6V | 02:21:56 | 03:35:32 | 00:00:00 | |
| BIOWL1-15 | 2026-09-01 01:25:32 | 52.59203 | 11.53893 | 118° | 58km/h | 3264m | -3.9m/s | -3.1°C | 83.8% | 684hPa | 2.6V | 02:21:56 | 03:35:23 | 00:00:00 | |
| AA1-15 | 2026-09-01 01:25:31 | 52.59168 | 11.54001 | 118° | 60km/h | 3243m | -4.1m/s | -3°C | 84.4% | 686hPa | 2.6V | 02:21:56 | 03:35:28 | 00:00:00 | |
| DM0DOS-11 | 2026-09-01 01:25:31 | 52.59203 | 11.53893 | 117° | 58km/h | 3264m | -3.9m/s | -3.1°C | 79.1% | 684hPa | 2.6V | 02:21:36 | 03:35:23 | 00:00:00 | |
| DL1XH-west | 2026-09-01 01:25:27 | 52.59196 | 11.53914 | 118° | 58km/h | 3260m | -3.9m/s | -3.1°C | 83.8% | 684.5hPa | 2.5V | 02:21:56 | 03:35:24 | 00:00:00 | |
| DB0DAN | 2026-09-01 01:25:25 | 52.59210 | 11.53872 | 118° | 55km/h | 3269m | -4.1m/s | -3.2°C | 79.1% | 683.86hPa | 2.6V | 00:00:00 | 00:00:00 | 00:00:00 | |
| DF8AY | 2026-09-01 01:25:24 | 52.59217 | 11.53850 | 118° | 58km/h | 3273m | -4m/s | -3.2°C | 83.7% | 683.4hPa | 2.6V | 02:21:56 | 03:35:21 | 00:00:00 | |
| DF7ER-10 | 2026-09-01 01:25:22 | 52.59223 | 11.53829 | 118° | 58km/h | 3277m | -4.0m/s | -3.2°C | 76.3% | 683.0hPa | 2.6V | 02:21:00 | 00:00:00 | 00:00:00 | |
| DM0DOS-11 | 2026-09-01 01:25:21 | 52.59270 | 11.53679 | 117° | 58km/h | 3307m | -4.2m/s | -3.4°C | 76.7% | 680.4hPa | 2.6V | 02:21:46 | 03:35:13 | 00:00:00 | |
| AA1-15 | 2026-09-01 01:25:20 | 52.59244 | 11.53765 | 117° | 57km/h | 3290m | -4.2m/s | -3.3°C | 82.9% | 681.8hPa | 2.6V | 02:21:56 | 03:35:17 | 00:00:00 | |
| BIOWL1-15 | 2026-09-01 01:25:18 | 52.59277 | 11.53657 | 117° | 60km/h | 3311m | -4.2m/s | -3.4°C | 81.6% | 680.1hPa | 2.6V | 02:21:56 | 03:35:12 | 00:00:00 | |
| DL1XH-west | 2026-09-01 01:25:16 | 52.59270 | 11.53679 | 117° | 58km/h | 3307m | -4.2m/s | -3.4°C | 81.6% | 680.4hPa | 2.6V | 02:21:56 | 03:35:13 | 00:00:00 | |
| DF8AY | 2026-09-01 01:25:13 | 52.59291 | 11.53613 | 117° | 60km/h | 3320m | -4.2m/s | -3.5°C | 86.3% | 679.3hPa | 2.6V | 02:21:56 | 03:35:10 | 00:00:00 | |
| DL2RXE-15 | 2026-09-01 01:25:12 | 52.59291 | 11.53613 | 118° | 60km/h | 3320m | -4.2m/s | -3.5°C | 81.0% | 679.3hPa | 2.6V | 00:00:00 | 00:00:00 | 00:00:00 | |
| DL1XH1-15 | 2026-09-01 01:25:11 | 52.59347 | 11.53434 | 117° | 60km/h | 3356m | -4.2m/s | -3.6°C | 81.8% | 676.3hPa | 2.6V | 02:21:57 | 03:35:02 | 00:00:00 | |
| DB0DAN | 2026-09-01 01:25:10 | 52.59312 | 11.53546 | 117° | 57km/h | 3334m | -4m/s | -3.6°C | 84.3% | 678.09hPa | 2.5V | 00:00:00 | 00:00:00 | 00:00:00 | |
| AA1-15 | 2026-09-01 01:25:09 | 52.59319 | 11.53524 | 118° | 60km/h | 3338m | -4.2m/s | -3.6°C | 87.6% | 677.8hPa | 2.6V | 02:21:56 | 03:35:06 | 00:00:00 | |
| DL1XH1-15 | 2026-09-01 01:25:06 | 52.59382 | 11.53322 | 118° | 60km/h | 3378m | -4.1m/s | -3.7°C | 79.6% | 674.3hPa | 2.6V | 02:22:02 | 03:34:57 | 00:00:00 | |
| DL1XH-west | 2026-09-01 01:25:06 | 52.59347 | 11.53434 | 117° | 60km/h | 3356m | -4.2m/s | -3.6°C | 86.3% | 676.3hPa | 2.6V | 02:22:47 | 03:35:02 | 00:00:00 | |
| BIOWL1-15 | 2026-09-01 01:25:05 | 52.59354 | 11.53411 | 117° | 60km/h | 3360m | -4.2m/s | -3.6°C | 86.1% | 675.9hPa | 2.6V | 02:22:47 | 03:35:01 | 00:00:00 | |
| DF8AY | 2026-09-01 01:25:03 | 52.59361 | 11.53389 | 117° | 60km/h | 3365m | -4.3m/s | -3.6°C | 85% | 675.5hPa | 2.5V | 02:22:47 | 03:35:00 | 00:00:00 | |
| DM0DOS-11 | 2026-09-01 01:25:01 | 52.59410 | 11.53234 | 116° | 60km/h | 3396m | -4.3m/s | -3.8°C | 77.4% | 672.8hPa | 2.6V | 02:22:06 | 03:34:53 | 00:00:00 | |
| DL1XH1-15 | 2026-09-01 01:25:00 | 52.59417 | 11.53212 | 117° | 60km/h | 3401m | -4.4m/s | -3.9°C | 77.4% | 672.4hPa | 2.5V | 02:22:07 | 03:34:52 | 00:00:00 | |
| AA1-15 | 2026-09-01 01:24:58 | 52.59396 | 11.53278 | 118° | 60km/h | 3387m | -4.2m/s | -3.8°C | 82.1% | 673.5hPa | 2.6V | 02:22:47 | 03:34:55 | 00:00:00 | |
| DM0DOS-11 | 2026-09-01 01:24:56 | 52.59444 | 11.53121 | 116° | 60km/h | 3420m | -4.2m/s | -4.1°C | 85.9% | 670.7hPa | 2.6V | 02:22:11 | 03:34:48 | 00:00:00 | |
| DL1XH-west | 2026-09-01 01:24:55 | 52.59417 | 11.53212 | 117° | 60km/h | 3401m | -4.4m/s | -3.9°C | 82.5% | 672.4hPa | 2.5V | 02:22:47 | 03:34:52 | 00:00:00 | |
| DB0DAN | 2026-09-01 01:24:55 | 52.59417 | 11.53212 | 117° | 58km/h | 3401m | -4.4m/s | -3.9°C | 76.5% | 672.4hPa | 2.5V | 00:00:00 | 00:00:00 | 00:00:00 | |
| BIOWL1-15 | 2026-09-01 01:24:53 | 52.59431 | 11.53167 | 117° | 60km/h | 3410m | -4.4m/s | -4°C | 83.2% | 671.6hPa | 2.6V | 02:22:47 | 03:34:50 | 00:00:00 | |
| DF8AY | 2026-09-01 01:24:52 | 52.59438 | 11.53144 | 116° | 60km/h | 3415m | -4.5m/s | -4°C | 85.6% | 671.3hPa | 2.6V | 02:22:47 | 03:34:49 | 00:00:00 | |
| DM0DOS-11 | 2026-09-01 01:24:51 | 52.59478 | 11.53011 | 115° | 58km/h | 3443m | -4.3m/s | -4.2°C | 85.4% | 668.8hPa | 2.6V | 02:22:16 | 03:34:43 | 00:00:00 | |
| DL1XH1-15 | 2026-09-01 01:24:50 | 52.59485 | 11.52989 | 116° | 58km/h | 3448m | -4.4m/s | -4.2°C | 79.4% | 668.5hPa | 2.6V | 02:22:17 | 03:34:42 | 00:00:00 | |
| AA1-15 | 2026-09-01 01:24:47 | 52.59472 | 11.53033 | 116° | 60km/h | 3438m | -4.5m/s | -4.2°C | 90.5% | 669.4hPa | 2.5V | 02:22:47 | 03:34:44 | 00:00:00 | |
| DM0DOS-11 | 2026-09-01 01:24:46 | 52.59511 | 11.52900 | 116° | 60km/h | 3466m | -4.2m/s | -4.3°C | 76.3% | 666.8hPa | 2.6V | 02:22:21 | 03:34:38 | 00:00:00 | |
| DL1XH-west | 2026-09-01 01:24:45 | 52.59485 | 11.52989 | 116° | 58km/h | 3448m | -4.4m/s | -4.2°C | 83.7% | 668.5hPa | 2.6V | 02:22:47 | 03:34:42 | 00:00:00 | |
| BIOWL9-15 | 2026-09-01 01:24:44 | 52.59491 | 11.52967 | 116° | 58km/h | 3452m | -4.1m/s | -4.2°C | 75.1% | 668.1hPa | 2.6V | 00:00:00 | 00:00:00 | 00:00:00 | |
| DF8AY | 2026-09-01 01:24:42 | 52.59505 | 11.52922 | 116° | 60km/h | 3462m | -4.5m/s | -4.2°C | 80.9% | 667.3hPa | 2.6V | 02:22:47 | 03:34:39 | 00:00:00 | |
| DM0DOS-11 | 2026-09-01 01:24:41 | 52.59545 | 11.52788 | 117° | 58km/h | 3490m | -4.1m/s | -4.4°C | 74.1% | 665hPa | 2.6V | 02:22:26 | 03:34:33 | 00:00:00 | |
| DB0DAN | 2026-09-01 01:24:40 | 52.59518 | 11.52878 | 117° | 57km/h | 3471m | -4.4m/s | -4.3°C | 75.7% | 666.55hPa | 2.5V | 00:00:00 | 00:00:00 | 00:00:00 | |
| AA1-15 | 2026-09-01 01:24:37 | 52.59538 | 11.52810 | 117° | 60km/h | 3485m | -4.3m/s | -4.4°C | 82.9% | 665.2hPa | 2.6V | 02:22:47 | 03:34:34 | 00:00:00 | |
| DL1XH1-15 | 2026-09-01 01:24:37 | 52.59572 | 11.52701 | 116° | 58km/h | 3508m | -4.5m/s | -4.4°C | 71.4% | 663.4hPa | 2.5V | 02:22:30 | 03:34:29 | 00:00:00 | |
| DL1XH-west | 2026-09-01 01:24:34 | 52.59559 | 11.52744 | 117° | 58km/h | 3498m | -4.4m/s | -4.4°C | 76.8% | 664.1hPa | 2.6V | 02:22:47 | 03:34:31 | 00:00:00 | |
| BIOWL1-15 | 2026-09-01 01:24:32 | 52.59572 | 11.52701 | 116° | 58km/h | 3508m | -4.5m/s | -4.4°C | 76.4% | 663.4hPa | 2.5V | 02:22:47 | 03:34:29 | 00:00:00 | |
| DL1XH1-15 | 2026-09-01 01:24:32 | 52.59605 | 11.52589 | 115° | 60km/h | 3531m | -4.5m/s | -4.5°C | 69.1% | 661.2hPa | 2.6V | 02:22:35 | 03:34:24 | 00:00:00 | |
| DM0DOS-11 | 2026-09-01 01:24:31 | 52.59612 | 11.52567 | 115° | 60km/h | 3537m | -4.6m/s | -4.5°C | 68.1% | 660.9hPa | 2.6V | 02:22:36 | 03:34:23 | 00:00:00 | |
| DF8AY | 2026-09-01 01:24:31 | 52.59579 | 11.52679 | 116° | 58km/h | 3512m | -4.4m/s | -4.5°C | 76.4% | 662.9hPa | 2.6V | 02:22:47 | 03:34:28 | 00:00:00 | |
| AM1SDL-15 | 2026-09-01 01:24:30 | 52.59585 | 11.52656 | 117° | 60km/h | 3517m | -4.6m/s | -4.4°C | 70.8% | 662.5hPa | 2.6V | 02:22:00 | 03:34:27 | 00:00:00 | |
| DL2RXE-15 | 2026-09-01 01:24:29 | 52.59592 | 11.52634 | 117° | 60km/h | 3522m | -4.9m/s | -4.5°C | 69.6% | 662.2hPa | 2.6V | 00:00:00 | 00:00:00 | 00:00:00 | |
| DL1XH1-15 | 2026-09-01 01:24:27 | 52.59638 | 11.52477 | 115° | 60km/h | 3557m | -4.4m/s | -4.5°C | 65.2% | 659.4hPa | 2.6V | 02:22:40 | 03:34:19 | 00:00:00 | |
| AA1-15 | 2026-09-01 01:24:26 | 52.59612 | 11.52567 | 116° | 60km/h | 3537m | -4.6m/s | -4.5°C | 73.4% | 660.9hPa | 2.6V | 02:22:47 | 03:34:23 | 00:00:00 | |
| DM0DOS-11 | 2026-09-01 01:24:26 | 52.59645 | 11.52455 | 116° | 60km/h | 3562m | -4.3m/s | -4.6°C | 65.2% | 658.8hPa | 2.6V | 02:22:41 | 03:34:18 | 00:00:00 | |
| DB0DAN | 2026-09-01 01:24:25 | 52.59618 | 11.52545 | 116° | 57km/h | 3541m | -4.9m/s | -4.5°C | 65.2% | 660.57hPa | 2.5V | 00:00:00 | 00:00:00 | 00:00:00 | |
| DL1XH-west | 2026-09-01 01:24:24 | 52.59625 | 11.52522 | 116° | 60km/h | 3547m | -4.8m/s | -4.5°C | 71.6% | 660.1hPa | 2.5V | 02:22:47 | 03:34:21 | 00:00:00 | |
| DL1XH1-15 | 2026-09-01 01:24:22 | 52.59671 | 11.52367 | 115° | 58km/h | 3580m | -4.5m/s | -4.7°C | 66.2% | 657.3hPa | 2.5V | 02:22:45 | 03:34:14 | 00:00:00 | |
| DM0DOS-11 | 2026-09-01 01:24:21 | 52.59678 | 11.52344 | 115° | 58km/h | 3584m | -4.5m/s | -4.8°C | 66.2% | 657hPa | 2.6V | 02:22:46 | 03:34:13 | 00:00:00 | |
| DF8AY | 2026-09-01 01:24:21 | 52.59645 | 11.52455 | 116° | 60km/h | 3562m | -4.3m/s | -4.6°C | 70.8% | 658.8hPa | 2.6V | 02:22:47 | 03:34:18 | 00:00:00 | |
| DF7ER-10 | 2026-09-01 01:24:20 | 52.59645 | 11.52455 | 117° | 60km/h | 3562m | -4.3m/s | -4.6°C | 64.4% | 658.8hPa | 2.6V | 02:22:00 | 00:00:00 | 00:00:00 | |
| AM1SDL-15 | 2026-09-01 01:24:18 | 52.59665 | 11.52388 | 116° | 60km/h | 3575m | -4.2m/s | -4.7°C | 66.0% | 657.7hPa | 2.6V | 00:00:00 | 03:34:15 | 00:00:00 | |
| DL1XH1-15 | 2026-09-01 01:24:17 | 52.59703 | 11.52255 | 115° | 60km/h | 3603m | -4.3m/s | -4.9°C | 66.1% | 655.3hPa | 2.6V | 02:22:50 | 03:34:09 | 00:00:00 | |
| DM0DOS-11 | 2026-09-01 01:24:16 | 52.59710 | 11.52233 | 115° | 60km/h | 3608m | -4.4m/s | -4.9°C | 65.6% | 654.9hPa | 2.5V | 02:22:51 | 03:34:08 | 00:00:00 | |
| AA1-15 | 2026-09-01 01:24:15 | 52.59684 | 11.52322 | 116° | 58km/h | 3589m | -4.3m/s | -4.8°C | 71.7% | 656.5hPa | 2.6V | 02:22:47 | 03:34:12 | 00:00:00 | |
| DL1XH-west | 2026-09-01 01:24:13 | 52.59697 | 11.52278 | 115° | 58km/h | 3598m | -4.3m/s | -4.9°C | 71.9% | 655.9hPa | 2.6V | 02:23:38 | 03:34:10 | 00:00:00 | |
| S3001 | 2026-09-01 01:24:13 | 52.59710 | 11.52233 | 115° | 58km/h | 3608m | -4.4m/s | -4.9°C | 64.7% | 654.9hPa | 2.6V | 00:00:00 | 00:00:00 | 00:00:00 | |
| DM0DOS-11 | 2026-09-01 01:24:11 | 52.59742 | 11.52120 | 114° | 60km/h | 3631m | -4.6m/s | -5.1°C | 67% | 652.9hPa | 2.6V | 02:22:56 | 03:34:03 | 00:00:00 | |
| BIOWL1-15 | 2026-09-01 01:24:10 | 52.59729 | 11.52165 | 115° | 60km/h | 3622m | -4.2m/s | -5.1°C | 72% | 653.8hPa | 2.6V | 02:23:38 | 03:34:05 | 00:00:00 | |
| DB0DAN | 2026-09-01 01:24:10 | 52.59716 | 11.52210 | 115° | 57km/h | 3612m | -4.6m/s | -5°C | 64.9% | 654.64hPa | 2.5V | 00:00:00 | 00:00:00 | 00:00:00 | |
| DF8AY | 2026-09-01 01:24:09 | 52.59723 | 11.52188 | 115° | 60km/h | 3617m | -4.3m/s | -5°C | 71.8% | 654.1hPa | 2.6V | 02:23:38 | 03:34:06 | 00:00:00 | |
| EDDB2-11 | 2026-09-01 01:24:07 | 52.59735 | 11.52143 | 115° | 58km/h | 3626m | -4.6m/s | -5.1°C | 66.0% | 653.4hPa | 2.6V | 00:00:00 | 00:00:00 | 00:00:00 | |
| DM0DOS-11 | 2026-09-01 01:24:06 | 52.59772 | 11.52008 | 114° | 58km/h | 3655m | -4.5m/s | -5.3°C | 64.7% | 651hPa | 2.6V | 02:23:01 | 03:33:58 | 00:00:00 | |
| AA1-15 | 2026-09-01 01:24:04 | 52.59754 | 11.52075 | 114° | 58km/h | 3641m | -4.8m/s | -5.2°C | 72.1% | 652.1hPa | 2.6V | 02:23:38 | 03:34:01 | 00:00:00 | |
| DL1XH-west | 2026-09-01 01:24:02 | 52.59766 | 11.52031 | 114° | 58km/h | 3650m | -4.7m/s | -5.3°C | 70.9% | 651.4hPa | 2.5V | 02:23:38 | 03:33:59 | 00:00:00 | |
| DF8AY | 2026-09-01 01:23:58 | 52.59791 | 11.51941 | 115° | 60km/h | 3669m | -4.4m/s | -5.4°C | 69.6% | 649.7hPa | 2.6V | 02:23:38 | 03:33:55 | 00:00:00 | |
| DL1XH-15 | 2026-09-01 01:23:58 | 52.59825 | 11.51825 | 116° | 62km/h | 3693m | -4.8m/s | -5.5°C | 63% | 647.6hPa | 2.6V | 02:23:09 | 03:33:50 | 00:00:00 | |
| DO2SHX-10 | 2026-09-01 01:23:57 | 52.59798 | 11.51918 | 116° | 60km/h | 3674m | -4.3m/s | -5.4°C | 64.1% | 649.3hPa | 2.6V | 00:00:00 | 03:33:54 | 00:00:00 | |
| DM0DOS-11 | 2026-09-01 01:23:56 | 52.59839 | 11.51779 | 116° | 62km/h | 3703m | -4.8m/s | -5.6°C | 62.8% | 647hPa | 2.6V | 02:23:11 | 03:33:48 | 00:00:00 | |
| DB0DAN | 2026-09-01 01:23:55 | 52.59811 | 11.51872 | 116° | 58km/h | 3683m | -4.8m/s | -5.5°C | 62.1% | 648.55hPa | 2.5V | 00:00:00 | 00:00:00 | 00:00:00 | |
| AA1-15 | 2026-09-01 01:23:53 | 52.59825 | 11.51825 | 116° | 62km/h | 3693m | -4.8m/s | -5.5°C | 68.2% | 647.6hPa | 2.6V | 02:23:38 | 03:33:50 | 00:00:00 | |
| DL1XH-west | 2026-09-01 01:23:52 | 52.59839 | 11.51779 | 117° | 62km/h | 3703m | -4.9m/s | -5.6°C | 67.9% | 647hPa | 2.6V | 02:23:38 | 03:33:48 | 00:00:00 | |
| DF8AY | 2026-09-01 01:23:47 | 52.59867 | 11.51685 | 115° | 62km/h | 3723m | -4.9m/s | -5.6°C | 66.9% | 645.4hPa | 2.6V | 02:23:38 | 03:33:44 | 00:00:00 | |
| DL1XH1-15 | 2026-09-01 01:23:47 | 52.59900 | 11.51565 | 113° | 64km/h | 3747m | -4.6m/s | -5.7°C | 67.1% | 643.4hPa | 2.5V | 02:23:20 | 03:33:39 | 00:00:00 | |
| AA1-15 | 2026-09-01 01:23:42 | 52.59900 | 11.51565 | 114° | 64km/h | 3747m | -4.6m/s | -5.7°C | 72% | 643.4hPa | 2.5V | 02:23:38 | 03:33:39 | 00:00:00 | |
| DL1XH1-15 | 2026-09-01 01:23:42 | 52.59934 | 11.51445 | 116° | 64km/h | 3771m | -4.2m/s | -5.9°C | 70.9% | 641.4hPa | 2.6V | 02:23:25 | 03:33:34 | 00:00:00 | |
| DL1XH-west | 2026-09-01 01:23:40 | 52.59913 | 11.51517 | 115° | 64km/h | 3757m | -4.6m/s | -5.8°C | 75.3% | 642.6hPa | 2.6V | 02:23:38 | 03:33:37 | 00:00:00 | |
| DB0DAN | 2026-09-01 01:23:40 | 52.59913 | 11.51517 | 115° | 62km/h | 3757m | -4.6m/s | -5.8°C | 69.5% | 642.58hPa | 2.6V | 00:00:00 | 00:00:00 | 00:00:00 | |
| EDDB2-12 | 2026-09-01 01:23:38 | 52.59927 | 11.51469 | 115° | 62km/h | 3766m | -4.3m/s | -5.8°C | 69.6% | 641.8hPa | 2.6V | 00:00:00 | 00:00:00 | 00:00:00 | |
| DL1XH1-15 | 2026-09-01 01:23:37 | 52.59970 | 11.51328 | 116° | 64km/h | 3794m | -4.4m/s | -6.1°C | 78.4% | 639.5hPa | 2.6V | 02:23:30 | 03:33:29 | 00:00:00 | |
| BIOWL1-15 | 2026-09-01 01:23:37 | 52.59970 | 11.51328 | 116° | 64km/h | 3794m | -4.4m/s | -6.1°C | 82.3% | 639.5hPa | 2.6V | 02:23:38 | 03:33:29 | 00:00:00 | |
| DF8AY | 2026-09-01 01:23:36 | 52.59941 | 11.51422 | 117° | 64km/h | 3776m | -4.3m/s | -5.9°C | 75.7% | 641hPa | 2.6V | 02:23:38 | 03:33:33 | 00:00:00 | |
| DM0DOS-11 | 2026-09-01 01:23:36 | 52.59977 | 11.51304 | 116° | 64km/h | 3799m | -4.5m/s | -6°C | 77.4% | 639.2hPa | 2.6V | 02:23:31 | 03:33:28 | 00:00:00 | |
| DL1XH1-15 | 2026-09-01 01:23:32 | 52.60007 | 11.51207 | 116° | 66km/h | 3819m | -4.6m/s | -6.2°C | 76.5% | 637.6hPa | 2.5V | 02:23:35 | 03:33:24 | 00:00:00 | |
| AA1-15 | 2026-09-01 01:23:31 | 52.59978 | 11.51304 | 117° | 64km/h | 3799m | -4.5m/s | -6.1°C | 81.6% | 639.2hPa | 2.6V | 02:23:38 | 03:33:28 | 00:00:00 | |
| DL1XH-west | 2026-09-01 01:23:30 | 52.59985 | 11.51280 | 117° | 64km/h | 3804m | -4.4m/s | -6.1°C | 79.8% | 638.8hPa | 2.6V | 02:23:38 | 03:33:27 | 00:00:00 | |
| DF7ER-10 | 2026-09-01 01:23:28 | 52.59999 | 11.51231 | 118° | 66km/h | 3814m | -4.8m/s | -6.1°C | 73.8% | 637.9hPa | 2.6V | 02:23:00 | 00:00:00 | 00:00:00 | |
| DL1XH1-15 | 2026-09-01 01:23:27 | 52.60044 | 11.51085 | 116° | 64km/h | 3844m | -4.4m/s | -6.3°C | 79.5% | 635.6hPa | 2.6V | 02:23:40 | 03:33:19 | 00:00:00 | |
| DF8AY | 2026-09-01 01:23:25 | 52.60022 | 11.51158 | 116° | 66km/h | 3829m | -4.6m/s | -6.2°C | 81.9% | 636.8hPa | 2.6V | 02:23:38 | 03:33:22 | 00:00:00 | |
| DB0DAN | 2026-09-01 01:23:25 | 52.60022 | 11.51158 | 116° | 62km/h | 3829m | -4.6m/s | -6.2°C | 76.9% | 636.84hPa | 2.6V | 00:00:00 | 00:00:00 | 00:00:00 | |
| SONDE2-11 | 2026-09-01 01:23:23 | 52.60036 | 11.51110 | 115° | 64km/h | 3838m | -4.7m/s | -6.3°C | 78.3% | 635.9hPa | 2.6V | 00:00:00 | 00:00:00 | 00:00:00 | |
| DL1XH1-15 | 2026-09-01 01:23:22 | 52.60080 | 11.50966 | 116° | 64km/h | 3867m | -4.5m/s | -6.5°C | 74.1% | 633.7hPa | 2.6V | 02:23:45 | 03:33:14 | 00:00:00 | |
| AA1-15 | 2026-09-01 01:23:20 | 52.60058 | 11.51037 | 117° | 64km/h | 3853m | -4.5m/s | -6.4°C | 79.8% | 634.8hPa | 2.5V | 02:24:29 | 03:33:17 | 00:00:00 | |
| DL1XH-west | 2026-09-01 01:23:19 | 52.60065 | 11.51014 | 116° | 64km/h | 3858m | -4.4m/s | -6.4°C | 79% | 634.4hPa | 2.6V | 02:24:29 | 03:33:16 | 00:00:00 | |
| AM1SDL-15 | 2026-09-01 01:23:18 | 52.60072 | 11.50990 | 117° | 64km/h | 3862m | -4.2m/s | -6.4°C | 74.4% | 634.1hPa | 2.6V | 02:23:00 | 03:33:15 | 00:00:00 | |
| DM0DOS-11 | 2026-09-01 01:23:16 | 52.60123 | 11.50823 | 115° | 64km/h | 3895m | -4.4m/s | -6.6°C | 69.2% | 631.4hPa | 2.6V | 02:23:51 | 03:33:08 | 00:00:00 | |
| DF8AY | 2026-09-01 01:23:15 | 52.60101 | 11.50895 | 117° | 64km/h | 3881m | -4.3m/s | -6.5°C | 76.6% | 632.5hPa | 2.5V | 02:24:29 | 03:33:11 | 00:00:00 | |
| DL1XH-15 | 2026-09-01 01:23:11 | 52.60151 | 11.50725 | 114° | 66km/h | 3915m | -4.8m/s | -6.7°C | 68.4% | 629.6hPa | 2.5V | 02:23:55 | 03:33:04 | 00:00:00 | |
| DM0DOS-11 | 2026-09-01 01:23:11 | 52.60157 | 11.50700 | 114° | 66km/h | 3920m | -4.7m/s | -6.8°C | 67.8% | 629.3hPa | 2.5V | 02:23:56 | 03:33:03 | 00:00:00 | |
| AA1-15 | 2026-09-01 01:23:10 | 52.60130 | 11.50798 | 116° | 66km/h | 3900m | -4.6m/s | -6.7°C | 73.8% | 630.9hPa | 2.6V | 02:24:29 | 03:33:07 | 00:00:00 | |
| DB0DAN | 2026-09-01 01:23:10 | 52.60130 | 11.50798 | 115° | 62km/h | 3900m | -4.6m/s | -6.7°C | 68.1% | 630.87hPa | 2.6V | 00:00:00 | 00:00:00 | 00:00:00 | |
| BIOWL1-15 | 2026-09-01 01:23:09 | 52.60164 | 11.50676 | 114° | 66km/h | 3925m | -4.8m/s | -6.8°C | 72.5% | 629hPa | 2.6V | 02:24:29 | 03:33:02 | 00:00:00 | |
| DL1XH-west | 2026-09-01 01:23:08 | 52.60144 | 11.50749 | 115° | 66km/h | 3910m | -4.9m/s | -6.7°C | 73.5% | 630.2hPa | 2.6V | 02:24:29 | 03:33:05 | 00:00:00 | |
| EDDB2-12 | 2026-09-01 01:23:07 | 52.60157 | 11.50700 | 114° | 64km/h | 3919m | -4.7m/s | -6.8°C | 66.7% | 629.3hPa | 2.6V | 00:00:00 | 00:00:00 | 00:00:00 | |
| DL1XH1-15 | 2026-09-01 01:23:06 | 52.60192 | 11.50575 | 114° | 68km/h | 3944m | -4.6m/s | -7°C | 69.1% | 627.3hPa | 2.6V | 02:24:01 | 03:32:58 | 00:00:00 | |
| DF8AY | 2026-09-01 01:23:03 | 52.60178 | 11.50626 | 114° | 66km/h | 3934m | -4.6m/s | -6.9°C | 72.9% | 628.2hPa | 2.6V | 02:24:29 | 03:33:00 | 00:00:00 | |
| DL1XH1-15 | 2026-09-01 01:23:01 | 52.60226 | 11.50447 | 113° | 68km/h | 3969m | -4.6m/s | -7.2°C | 70.6% | 625.4hPa | 2.6V | 02:24:06 | 03:32:53 | 00:00:00 | |
| AA1-15 | 2026-09-01 01:23:00 | 52.60199 | 11.50550 | 114° | 68km/h | 3949m | -4.8m/s | -7°C | 74.2% | 627hPa | 2.5V | 02:24:29 | 03:32:57 | 00:00:00 | |
| DL1XH-west | 2026-09-01 01:22:57 | 52.60220 | 11.50473 | 114° | 68km/h | 3964m | -4.8m/s | -7.1°C | 74.5% | 625.9hPa | 2.6V | 02:24:29 | 03:32:54 | 00:00:00 | |
| BIOWL1-15 | 2026-09-01 01:22:56 | 52.60227 | 11.50447 | 114° | 68km/h | 3969m | -4.6m/s | -7.2°C | 74.7% | 625.4hPa | 2.6V | 02:24:29 | 03:32:53 | 00:00:00 | |
| DB0DAN | 2026-09-01 01:22:55 | 52.60234 | 11.50421 | 114° | 66km/h | 3974m | -4.8m/s | -7.2°C | 70.1% | 624.95hPa | 2.6V | 00:00:00 | 00:00:00 | 00:00:00 | |
| DF8AY | 2026-09-01 01:22:53 | 52.60248 | 11.50370 | 115° | 68km/h | 3984m | -4.9m/s | -7.2°C | 73.8% | 624.4hPa | 2.5V | 02:24:29 | 03:32:50 | 00:00:00 | |
| DL1XH-15 | 2026-09-01 01:22:52 | 52.60289 | 11.50221 | 114° | 66km/h | 4013m | -4.7m/s | -7.4°C | 69% | 621.9hPa | 2.6V | 02:24:15 | 03:32:44 | 00:00:00 | |
| SONDE2-11 | 2026-09-01 01:22:52 | 52.60255 | 11.50345 | 114° | 66km/h | 3989m | -4.6m/s | -7.2°C | 68.2% | 623.7hPa | 2.5V | 00:00:00 | 00:00:00 | 00:00:00 | |
| DM0DOS-11 | 2026-09-01 01:22:51 | 52.60296 | 11.50196 | 114° | 66km/h | 4018m | -4.7m/s | -7.4°C | 69% | 621.4hPa | 2.5V | 02:24:16 | 03:32:43 | 00:00:00 | |
| AA1-15 | 2026-09-01 01:22:49 | 52.60276 | 11.50270 | 115° | 66km/h | 4003m | -4.6m/s | -7.3°C | 73.4% | 622.6hPa | 2.6V | 02:24:29 | 03:32:46 | 00:00:00 | |
| DL1XH-west | 2026-09-01 01:22:47 | 52.60289 | 11.50221 | 114° | 66km/h | 4013m | -4.7m/s | -7.4°C | 73.3% | 621.9hPa | 2.6V | 02:24:29 | 03:32:44 | 00:00:00 | |
| DM0DOS-11 | 2026-09-01 01:22:46 | 52.60331 | 11.50073 | 115° | 64km/h | 4042m | -4.3m/s | -7.6°C | 69.8% | 619.6hPa | 2.6V | 02:24:21 | 03:32:38 | 00:00:00 | |
| BIOWL1-15 | 2026-09-01 01:22:46 | 52.60296 | 11.50196 | 115° | 66km/h | 4018m | -4.7m/s | -7.4°C | 73.3% | 621.4hPa | 2.5V | 02:24:29 | 03:32:43 | 00:00:00 | |
| DF8AY | 2026-09-01 01:22:42 | 52.60324 | 11.50098 | 116° | 64km/h | 4037m | -4.3m/s | -7.6°C | 73.6% | 619.9hPa | 2.6V | 02:24:29 | 03:32:39 | 00:00:00 | |
| DL1XH-15 | 2026-09-01 01:22:42 | 52.60359 | 11.49977 | 116° | 64km/h | 4061m | -4.6m/s | -7.7°C | 68.5% | 617.9hPa | 2.6V | 02:24:25 | 03:32:34 | 00:00:00 | |
| AA1-15 | 2026-09-01 01:22:39 | 52.60345 | 11.50025 | 116° | 64km/h | 4051m | -4.4m/s | -7.7°C | 73.2% | 618.9hPa | 2.5V | 02:24:29 | 03:32:36 | 00:00:00 | |
| DL1XH-west | 2026-09-01 01:22:37 | 52.60359 | 11.49977 | 116° | 64km/h | 4061m | -4.6m/s | -7.7°C | 72.4% | 617.9hPa | 2.6V | 02:24:29 | 03:32:34 | 00:00:00 | |
| BIOWL1-15 | 2026-09-01 01:22:37 | 52.60373 | 11.49928 | 115° | 64km/h | 4070m | -4.5m/s | -7.7°C | 71.6% | 617.2hPa | 2.6V | 02:24:29 | 03:32:32 | 00:00:00 | |
| DL1XH1-15 | 2026-09-01 01:22:36 | 52.60400 | 11.49832 | 114° | 64km/h | 4090m | -4.5m/s | -7.8°C | 75.9% | 615.8hPa | 2.6V | 02:24:31 | 03:32:28 | 00:00:00 | |
| DF8AY | 2026-09-01 01:22:32 | 52.60394 | 11.49856 | 115° | 64km/h | 4085m | -4.4m/s | -7.8°C | 83.9% | 616.1hPa | 2.5V | 02:25:20 | 03:32:29 | 00:00:00 | |
| DL1XH1-15 | 2026-09-01 01:22:31 | 52.60434 | 11.49713 | 114° | 62km/h | 4114m | -4.6m/s | -7.8°C | 68.4% | 613.8hPa | 2.5V | 02:24:36 | 03:32:23 | 00:00:00 | |
| AA1-15 | 2026-09-01 01:22:28 | 52.60421 | 11.49760 | 114° | 62km/h | 4104m | -4.5m/s | -7.8°C | 75.4% | 614.6hPa | 2.6V | 02:25:20 | 03:32:25 | 00:00:00 | |
| DL1XH-west | 2026-09-01 01:22:27 | 52.60434 | 11.49713 | 115° | 62km/h | 4114m | -4.6m/s | -7.8°C | 72.1% | 613.8hPa | 2.5V | 02:25:20 | 03:32:23 | 00:00:00 | |
| DL1XH1-15 | 2026-09-01 01:22:26 | 52.60468 | 11.49595 | 115° | 62km/h | 4138m | -4.8m/s | -7.8°C | 71.3% | 612hPa | 2.6V | 02:24:41 | 03:32:18 | 00:00:00 | |
| DB0DAN | 2026-09-01 01:22:25 | 52.60441 | 11.49689 | 115° | 60km/h | 4119m | -4.7m/s | -7.8°C | 67.8% | 613.55hPa | 2.5V | 00:00:00 | 00:00:00 | 00:00:00 | |
| BIOWL1-15 | 2026-09-01 01:22:24 | 52.60474 | 11.49572 | 116° | 62km/h | 4143m | -5m/s | -7.8°C | 75.4% | 611.5hPa | 2.5V | 02:25:20 | 03:32:17 | 00:00:00 | |
| DF8AY | 2026-09-01 01:22:22 | 52.60461 | 11.49619 | 115° | 62km/h | 4133m | -4.7m/s | -7.7°C | 75.8% | 612.3hPa | 2.6V | 02:25:20 | 03:32:19 | 00:00:00 | |
| AA1-15 | 2026-09-01 01:22:18 | 52.60487 | 11.49524 | 115° | 64km/h | 4154m | -4.9m/s | -7.8°C | 75.3% | 610.8hPa | 2.6V | 02:25:20 | 03:32:15 | 00:00:00 | |
| DL1XH-west | 2026-09-01 01:22:16 | 52.60501 | 11.49477 | 115° | 62km/h | 4163m | -4.7m/s | -7.9°C | 77.7% | 610hPa | 2.6V | 02:25:20 | 03:32:13 | 00:00:00 | |
| DL1XH1-15 | 2026-09-01 01:22:16 | 52.60534 | 11.49358 | 113° | 64km/h | 4189m | -4.7m/s | -8.1°C | 71.5% | 608hPa | 2.6V | 02:24:51 | 03:32:08 | 00:00:00 | |
| BIOWL1-15 | 2026-09-01 01:22:13 | 52.60521 | 11.49406 | 114° | 62km/h | 4179m | -5m/s | -8.1°C | 77.8% | 608.9hPa | 2.5V | 02:25:20 | 03:32:10 | 00:00:00 | |
| DF8AY | 2026-09-01 01:22:11 | 52.60533 | 11.49358 | 113° | 64km/h | 4189m | -4.7m/s | -8.1°C | 75.5% | 608hPa | 2.6V | 02:25:20 | 03:32:08 | 00:00:00 | |
| DM0DOS-11 | 2026-09-01 01:22:11 | 52.60566 | 11.49237 | 114° | 64km/h | 4213m | -4.8m/s | -8.3°C | 70.1% | 606hPa | 2.5V | 02:24:56 | 03:32:03 | 00:00:00 | |
| DB0DAN | 2026-09-01 01:22:10 | 52.60540 | 11.49334 | 114° | 60km/h | 4194m | -4.4m/s | -8.1°C | 68.9% | 607.53hPa | 2.6V | 00:00:00 | 00:00:00 | 00:00:00 | |
| AA1-15 | 2026-09-01 01:22:07 | 52.60559 | 11.49261 | 115° | 64km/h | 4208m | -4.6m/s | -8.2°C | 74.8% | 606.3hPa | 2.5V | 02:25:20 | 03:32:04 | 00:00:00 | |
| DM0DOS-11 | 2026-09-01 01:22:06 | 52.60599 | 11.49115 | 113° | 64km/h | 4237m | -4.7m/s | -8.4°C | 67.7% | 604.1hPa | 2.6V | 02:25:01 | 03:31:58 | 00:00:00 | |
| DL1XH-west | 2026-09-01 01:22:06 | 52.60566 | 11.49237 | 115° | 64km/h | 4213m | -4.8m/s | -8.3°C | 74.2% | 606hPa | 2.5V | 02:25:20 | 03:32:03 | 00:00:00 | |
| BIOWL1-15 | 2026-09-01 01:22:02 | 52.60593 | 11.49140 | 114° | 64km/h | 4233m | -4.2m/s | -8.4°C | 75.4% | 604.5hPa | 2.6V | 02:25:20 | 03:31:59 | 00:00:00 | |
| DF8AY | 2026-09-01 01:22:00 | 52.60606 | 11.49091 | 114° | 64km/h | 4242m | -4.6m/s | -8.5°C | 71.6% | 603.7hPa | 2.5V | 02:25:20 | 03:31:57 | 00:00:00 | |
| AA1-15 | 2026-09-01 01:21:57 | 52.60631 | 11.48992 | 113° | 64km/h | 4262m | -4.8m/s | -8.3°C | 70.1% | 602.2hPa | 2.6V | 02:25:20 | 03:31:53 | 00:00:00 | |
| DL1XH-west | 2026-09-01 01:21:56 | 52.60644 | 11.48942 | 113° | 66km/h | 4272m | -4.5m/s | -8.3°C | 62.7% | 601.6hPa | 2.5V | 02:25:20 | 03:31:51 | 00:00:00 | |
| DM0DOS-11 | 2026-09-01 01:21:56 | 52.60677 | 11.48818 | 113° | 66km/h | 4297m | -4.9m/s | -8.5°C | 56.3% | 599.6hPa | 2.6V | 02:25:13 | 03:31:46 | 00:00:00 | |
| DB0DAN | 2026-09-01 01:21:55 | 52.60637 | 11.48967 | 113° | 62km/h | 4267m | -4.9m/s | -8.3°C | 55.1% | 601.9hPa | 2.6V | 00:00:00 | 00:00:00 | 00:00:00 | |
| BIOWL1-15 | 2026-09-01 01:21:53 | 52.60663 | 11.48868 | 113° | 66km/h | 4286m | -5m/s | -8.4°C | 67.1% | 600.4hPa | 2.6V | 02:25:20 | 03:31:48 | 00:00:00 | |
| DO2SHX-10 | 2026-09-01 01:21:53 | 52.60650 | 11.48918 | 114° | 66km/h | 4276m | -4.9m/s | -8.4°C | 68.9% | 601.0hPa | 2.6V | 00:00:00 | 03:31:50 | 00:00:00 | |
| DL1XH1-15 | 2026-09-01 01:21:51 | 52.60696 | 11.48742 | 112° | 66km/h | 4312m | -4.9m/s | -8.6°C | 56.9% | 598.4hPa | 2.6V | 02:25:16 | 03:31:43 | 00:00:00 | |
| DF8AY | 2026-09-01 01:21:50 | 52.60676 | 11.48818 | 113° | 66km/h | 4297m | -4.9m/s | -8.5°C | 61.1% | 599.6hPa | 2.6V | 02:25:20 | 03:31:46 | 00:00:00 | |
| DM0DOS-11 | 2026-09-01 01:21:50 | 52.60709 | 11.48691 | 112° | 66km/h | 4322m | -4.7m/s | -8.6°C | 56.7% | 597.6hPa | 2.6V | 02:25:18 | 03:31:41 | 00:00:00 | |
| AA1-15 | 2026-09-01 01:21:46 | 52.60696 | 11.48742 | 113° | 66km/h | 4312m | -4.9m/s | -8.6°C | 61.6% | 598.4hPa | 2.6V | 02:25:20 | 03:31:43 | 00:00:00 | |
| DF8AY-15 | 2026-09-01 01:21:46 | 52.60696 | 11.48742 | 113° | 66km/h | 4312m | -4.8m/s | -8.5°C | 56.9% | 598.3hPa | 2.5V | 00:00:00 | 03:31:43 | 00:00:00 | |
| DL1XH-15 | 2026-09-01 01:21:45 | 52.60735 | 11.48590 | 113° | 66km/h | 4342m | -4.8m/s | -8.7°C | 50% | 596.1hPa | 2.5V | 02:25:22 | 03:31:37 | 00:00:00 | |
| DM0DOS-11 | 2026-09-01 01:21:44 | 52.60742 | 11.48565 | 113° | 66km/h | 4347m | -5m/s | -8.8°C | 49.1% | 595.6hPa | 2.6V | 02:25:23 | 03:31:36 | 00:00:00 | |
| DL1XH-west | 2026-09-01 01:21:43 | 52.60715 | 11.48666 | 113° | 66km/h | 4327m | -4.8m/s | -8.7°C | 59.6% | 597.2hPa | 2.6V | 02:25:20 | 03:31:40 | 00:00:00 | |
| AM1SDL-15 | 2026-09-01 01:21:42 | 52.60722 | 11.48640 | 114° | 68km/h | 4332m | -4.8m/s | -8.6°C | 52.6% | 596.8hPa | 2.6V | 00:00:00 | 03:31:39 | 00:00:00 | |
| DL1XH1-15 | 2026-09-01 01:21:41 | 52.60762 | 11.48488 | 112° | 68km/h | 4363m | -5m/s | -8.8°C | 47.2% | 594.5hPa | 2.6V | 02:25:26 | 03:31:33 | 00:00:00 | |
| DO2SHX-10 | 2026-09-01 01:21:41 | 52.60729 | 11.48615 | 114° | 66km/h | 4337m | -4.8m/s | -8.7°C | 51.1% | 596.4hPa | 2.5V | 00:00:00 | 03:31:38 | 00:00:00 | |
| DL1XH-15 | 2026-09-01 01:21:40 | 52.60769 | 11.48463 | 112° | 68km/h | 4368m | -4.7m/s | -8.8°C | 46.7% | 594hPa | 2.5V | 02:25:27 | 03:31:32 | 00:00:00 | |
| DB0DAN | 2026-09-01 01:21:40 | 52.60735 | 11.48590 | 114° | 64km/h | 4342m | -4.8m/s | -8.7°C | 49.1% | 596.16hPa | 2.5V | 00:00:00 | 00:00:00 | 00:00:00 | |
| BIOWL1-15 | 2026-09-01 01:21:40 | 52.60735 | 11.48590 | 114° | 66km/h | 4342m | -4.8m/s | -8.7°C | 54.8% | 596.2hPa | 2.5V | 02:26:11 | 03:31:37 | 00:00:00 | |
| DF8AY | 2026-09-01 01:21:39 | 52.60742 | 11.48565 | 114° | 66km/h | 4348m | -5m/s | -8.8°C | 53.8% | 595.6hPa | 2.6V | 02:26:11 | 03:31:36 | 00:00:00 | |
| AA1-15 | 2026-09-01 01:21:35 | 52.60768 | 11.48463 | 112° | 68km/h | 4368m | -4.7m/s | -8.8°C | 51.4% | 594hPa | 2.5V | 02:26:11 | 03:31:32 | 00:00:00 | |
| DL1XH-15 | 2026-09-01 01:21:35 | 52.60800 | 11.48334 | 112° | 68km/h | 4393m | -4.8m/s | -8.9°C | 46.2% | 592.2hPa | 2.6V | 02:25:32 | 03:31:27 | 00:00:00 | |
| DO2SHX-10 | 2026-09-01 01:21:35 | 52.60768 | 11.48463 | 113° | 68km/h | 4368m | -4.7m/s | -8.8°C | 46.7% | 593.9hPa | 2.5V | 00:00:00 | 03:31:32 | 00:00:00 | |
| DM0DOS-11 | 2026-09-01 01:21:34 | 52.60807 | 11.48308 | 113° | 68km/h | 4398m | -4.9m/s | -8.9°C | 46.3% | 591.8hPa | 2.5V | 02:25:33 | 03:31:26 | 00:00:00 | |
| DL1XH-west | 2026-09-01 01:21:33 | 52.60781 | 11.48411 | 112° | 68km/h | 4378m | -4.9m/s | -8.8°C | 51% | 593.3hPa | 2.6V | 02:26:11 | 03:31:30 | 00:00:00 | |
| DO2SHX-10 | 2026-09-01 01:21:32 | 52.60788 | 11.48385 | 112° | 68km/h | 4383m | -4.7m/s | -8.8°C | 46.2% | 592.9hPa | 2.6V | 00:00:00 | 03:31:29 | 00:00:00 | |
| DL1XH1-15 | 2026-09-01 01:21:31 | 52.60827 | 11.48233 | 114° | 66km/h | 4413m | -4.8m/s | -9.1°C | 46.4% | 590.5hPa | 2.6V | 02:25:36 | 03:31:23 | 00:00:00 | |
| DL1XH-15 | 2026-09-01 01:21:30 | 52.60835 | 11.48208 | 114° | 66km/h | 4418m | -4.7m/s | -9.1°C | 46.5% | 590.2hPa | 2.6V | 02:25:37 | 03:31:22 | 00:00:00 | |
| BIOWL1-15 | 2026-09-01 01:21:29 | 52.60807 | 11.48308 | 113° | 68km/h | 4398m | -4.9m/s | -9°C | 51.2% | 591.9hPa | 2.5V | 02:26:11 | 03:31:26 | 00:00:00 | |
| DO2SHX-10 | 2026-09-01 01:21:29 | 52.60807 | 11.48308 | 114° | 66km/h | 4398m | -4.9m/s | -8.9°C | 46.3% | 591.8hPa | 2.5V | 02:25:00 | 03:31:26 | 00:00:00 | |
| SONCRA | 2026-09-01 01:21:27 | 52.60820 | 11.48258 | 113° | 66km/h | 4408m | -4.6m/s | -9.0°C | 45.3% | 591.0hPa | 2.5V | 00:00:00 | 00:00:00 | 00:00:00 | |
| DL1XH1-15 | 2026-09-01 01:21:26 | 52.60863 | 11.48108 | 114° | 68km/h | 4439m | -5.2m/s | -9.3°C | 47.5% | 588.6hPa | 2.5V | 02:25:41 | 03:31:18 | 00:00:00 | |
| AA1-15 | 2026-09-01 01:21:25 | 52.60834 | 11.48208 | 115° | 68km/h | 4418m | -4.7m/s | -9.1°C | 51.5% | 590.2hPa | 2.6V | 02:26:11 | 03:31:22 | 00:00:00 | |
| DB0DAN | 2026-09-01 01:21:25 | 52.60834 | 11.48208 | 115° | 64km/h | 4418m | -4.7m/s | -9.1°C | 45.5% | 590.2hPa | 2.6V | 00:00:00 | 00:00:00 | 00:00:00 | |
| DM0DOS-11 | 2026-09-01 01:21:24 | 52.60876 | 11.48057 | 115° | 68km/h | 4450m | -5m/s | -9.4°C | 47.9% | 587.8hPa | 2.6V | 02:25:43 | 03:31:16 | 00:00:00 | |
| DL1XH-west | 2026-09-01 01:21:22 | 52.60856 | 11.48133 | 114° | 68km/h | 4434m | -5.3m/s | -9.2°C | 52.4% | 589hPa | 2.5V | 02:26:11 | 03:31:19 | 00:00:00 | |
| BIOWL1-15 | 2026-09-01 01:21:20 | 52.60891 | 11.48007 | 115° | 66km/h | 4460m | -4.9m/s | -9.5°C | 54.2% | 587.1hPa | 2.6V | 02:26:11 | 03:31:14 | 00:00:00 | |
| DF8AY | 2026-09-01 01:21:18 | 52.60884 | 11.48032 | 114° | 68km/h | 4455m | -4.9m/s | -9.4°C | 53.2% | 587.5hPa | 2.6V | 02:26:11 | 03:31:15 | 00:00:00 | |
| DL1XH-15 | 2026-09-01 01:21:17 | 52.60912 | 11.47931 | 114° | 66km/h | 4476m | -4.9m/s | -9.5°C | 49.1% | 585.9hPa | 2.6V | 02:25:48 | 03:31:11 | 00:00:00 | |
| AA1-15 | 2026-09-01 01:21:15 | 52.60905 | 11.47957 | 114° | 66km/h | 4471m | -4.8m/s | -9.5°C | 54.7% | 586.3hPa | 2.5V | 02:26:11 | 03:31:12 | 00:00:00 | |
| DL1XH-west | 2026-09-01 01:21:11 | 52.60933 | 11.47856 | 115° | 66km/h | 4491m | -5.1m/s | -9.5°C | 51.8% | 584.7hPa | 2.6V | 02:26:11 | 03:31:08 | 00:00:00 | |
| DB0DAN | 2026-09-01 01:21:10 | 52.60940 | 11.47832 | 115° | 64km/h | 4496m | -5.1m/s | -9.5°C | 44.6% | 584.26hPa | 2.5V | 00:00:00 | 00:00:00 | 00:00:00 | |
| DM0DOS-11 | 2026-09-01 01:21:09 | 52.60982 | 11.47682 | 114° | 66km/h | 4528m | -5.2m/s | -9.8°C | 44.8% | 581.9hPa | 2.5V | 02:25:58 | 03:31:01 | 00:00:00 | |
| DF8AY | 2026-09-01 01:21:08 | 52.60954 | 11.47781 | 115° | 66km/h | 4507m | -4.9m/s | -9.6°C | 50.5% | 583.4hPa | 2.6V | 02:26:11 | 03:31:05 | 00:00:00 | |
| AA1-15 | 2026-09-01 01:21:04 | 52.60982 | 11.47682 | 115° | 66km/h | 4528m | -5.2m/s | -9.8°C | 49.8% | 581.9hPa | 2.5V | 02:26:11 | 03:31:01 | 00:00:00 | |
| DL1XH-15 | 2026-09-01 01:21:04 | 52.60995 | 11.47633 | 114° | 66km/h | 4538m | -4.9m/s | -9.8°C | 43.5% | 581.1hPa | 2.6V | 02:26:00 | 03:30:59 | 00:00:00 | |
| DL1XH-west | 2026-09-01 01:21:00 | 52.61009 | 11.47583 | 115° | 66km/h | 4549m | -4.9m/s | -9.9°C | 49.9% | 580.3hPa | 2.6V | 02:26:11 | 03:30:57 | 00:00:00 | |
| DM0DOS-11 | 2026-09-01 01:20:59 | 52.61050 | 11.47436 | 113° | 66km/h | 4581m | -5.3m/s | -10.2°C | 46.5% | 577.9hPa | 2.6V | 02:26:08 | 03:30:51 | 00:00:00 | |
| DL1XH-15 | 2026-09-01 01:20:58 | 52.61056 | 11.47411 | 113° | 66km/h | 4586m | -5.2m/s | -10.2°C | 46.6% | 577.5hPa | 2.6V | 02:26:09 | 03:30:50 | 00:00:00 | |
| BIOWL1-15 | 2026-09-01 01:20:57 | 52.61043 | 11.47461 | 114° | 66km/h | 4576m | -5.2m/s | -10.2°C | 52.4% | 578.4hPa | 2.6V | 02:26:11 | 03:30:52 | 00:00:00 | |
| DF8AY | 2026-09-01 01:20:57 | 52.61030 | 11.47510 | 115° | 66km/h | 4565m | -5.2m/s | -10.1°C | 51.1% | 579.2hPa | 2.5V | 02:26:11 | 03:30:54 | 00:00:00 | |
| DL1XH1-15 | 2026-09-01 01:20:56 | 52.61069 | 11.47362 | 112° | 66km/h | 4598m | -5.2m/s | -10.3°C | 47.7% | 576.7hPa | 2.5V | 02:26:11 | 03:30:48 | 00:00:00 | |
| DB0DAN | 2026-09-01 01:20:55 | 52.61043 | 11.47461 | 114° | 62km/h | 4576m | -5.2m/s | -10.2°C | 46.2% | 578.35hPa | 2.6V | 00:00:00 | 00:00:00 | 00:00:00 | |
| DO2SHX-10 | 2026-09-01 01:20:55 | 52.61043 | 11.47461 | 114° | 66km/h | 4576m | -5.2m/s | -10.1°C | 47.2% | 578.3hPa | 2.6V | 00:00:00 | 03:30:52 | 00:00:00 | |
| DM0DOS-11 | 2026-09-01 01:20:54 | 52.61082 | 11.47311 | 113° | 66km/h | 4608m | -5m/s | -10.3°C | 48.4% | 575.8hPa | 2.6V | 02:26:13 | 03:30:46 | 00:00:00 | |
| AA1-15 | 2026-09-01 01:20:54 | 52.61056 | 11.47411 | 114° | 66km/h | 4587m | -5.2m/s | -10.2°C | 51.7% | 577.5hPa | 2.6V | 02:26:11 | 03:30:50 | 00:00:00 | |
| DF8AY | 2026-09-01 01:20:52 | 52.61096 | 11.47262 | 114° | 64km/h | 4619m | -4.8m/s | -10.4°C | 52.4% | 575.1hPa | 2.6V | 02:27:02 | 03:30:44 | 00:00:00 | |
| DO2SHX-10 | 2026-09-01 01:20:52 | 52.61063 | 11.47386 | 114° | 66km/h | 4592m | -5.3m/s | -10.2°C | 47.3% | 577.0hPa | 2.5V | 02:26:00 | 03:30:49 | 00:00:00 | |
| DL1XH1-15 | 2026-09-01 01:20:51 | 52.61102 | 11.47237 | 114° | 64km/h | 4624m | -5m/s | -10.4°C | 47.1% | 574.7hPa | 2.5V | 02:26:16 | 03:30:43 | 00:00:00 | |
| DL1XH-west | 2026-09-01 01:20:50 | 52.61076 | 11.47336 | 113° | 66km/h | 4603m | -5m/s | -10.3°C | 53.4% | 576.2hPa | 2.6V | 02:27:02 | 03:30:47 | 00:00:00 | |
| DM0DOS-11 | 2026-09-01 01:20:49 | 52.61116 | 11.47188 | 114° | 64km/h | 4634m | -5.2m/s | -10.5°C | 47.2% | 573.9hPa | 2.6V | 02:26:18 | 03:30:41 | 00:00:00 | |
| DO2SHX-10 | 2026-09-01 01:20:49 | 52.61082 | 11.47311 | 114° | 66km/h | 4608m | -4.9m/s | -10.3°C | 48.4% | 575.8hPa | 2.6V | 00:00:00 | 03:30:46 | 00:00:00 | |
| DL1XH-15 | 2026-09-01 01:20:48 | 52.61123 | 11.47164 | 115° | 64km/h | 4640m | -5m/s | -10.6°C | 47.1% | 573.5hPa | 2.6V | 02:26:19 | 03:30:40 | 00:00:00 | |
| BIOWL1-15 | 2026-09-01 01:20:45 | 52.61109 | 11.47212 | 114° | 64km/h | 4629m | -5.2m/s | -10.5°C | 52.2% | 574.4hPa | 2.5V | 02:27:02 | 03:30:42 | 00:00:00 | |
| AA1-15 | 2026-09-01 01:20:43 | 52.61123 | 11.47164 | 115° | 64km/h | 4640m | -5m/s | -10.6°C | 52.3% | 573.5hPa | 2.6V | 02:27:02 | 03:30:40 | 00:00:00 | |
| DL1XH-15 | 2026-09-01 01:20:43 | 52.61156 | 11.47043 | 113° | 64km/h | 4666m | -5.1m/s | -10.8°C | 48.1% | 571.6hPa | 2.6V | 02:26:24 | 03:30:35 | 00:00:00 | |
| DO2SHX-10 | 2026-09-01 01:20:43 | 52.61123 | 11.47164 | 116° | 64km/h | 4640m | -5.0m/s | -10.5°C | 47.1% | 573.5hPa | 2.6V | 02:26:00 | 03:30:40 | 00:00:00 | |
| AM1SDL-15 | 2026-09-01 01:20:42 | 52.61129 | 11.47140 | 115° | 64km/h | 4645m | -5.2m/s | -10.6°C | 47.5% | 573.1hPa | 2.6V | 00:00:00 | 03:30:39 | 00:00:00 | |
| DL1XH1-15 | 2026-09-01 01:20:41 | 52.61169 | 11.46994 | 112° | 64km/h | 4677m | -4.9m/s | -10.8°C | 48.1% | 570.8hPa | 2.6V | 02:26:26 | 03:30:33 | 00:00:00 | |
| DB0DAN | 2026-09-01 01:20:40 | 52.61143 | 11.47092 | 115° | 60km/h | 4656m | -5.1m/s | -10.7°C | 46.6% | 572.36hPa | 2.5V | 00:00:00 | 00:00:00 | 00:00:00 | |
| DL1XH-west | 2026-09-01 01:20:40 | 52.61143 | 11.47092 | 115° | 64km/h | 4656m | -5.1m/s | -10.7°C | 52.7% | 572.4hPa | 2.5V | 02:27:02 | 03:30:37 | 00:00:00 | |
| DO2SHX-10 | 2026-09-01 01:20:40 | 52.61143 | 11.47092 | 115° | 64km/h | 4656m | -5.1m/s | -10.6°C | 47.7% | 572.3hPa | 2.5V | 00:00:00 | 03:30:37 | 00:00:00 | |
| DM0DOS-11 | 2026-09-01 01:20:39 | 52.61182 | 11.46945 | 112° | 66km/h | 4688m | -4.8m/s | -10.9°C | 48.3% | 569.9hPa | 2.5V | 02:26:28 | 03:30:31 | 00:00:00 | |
| DL1XH-15 | 2026-09-01 01:20:38 | 52.61188 | 11.46920 | 112° | 66km/h | 4693m | -4.6m/s | -11°C | 48.6% | 569.6hPa | 2.5V | 02:26:29 | 03:30:30 | 00:00:00 | |
| DO2SHX-10 | 2026-09-01 01:20:37 | 52.61163 | 11.47019 | 114° | 64km/h | 4672m | -5.0m/s | -10.7°C | 48.1% | 571.1hPa | 2.6V | 00:00:00 | 03:30:34 | 00:00:00 | |
| DL1XH1-15 | 2026-09-01 01:20:36 | 52.61200 | 11.46870 | 111° | 64km/h | 4703m | -4.8m/s | -11.1°C | 48.9% | 568.9hPa | 2.6V | 02:26:31 | 03:30:28 | 00:00:00 | |
| DF8AY | 2026-09-01 01:20:36 | 52.61169 | 11.46994 | 113° | 64km/h | 4677m | -4.9m/s | -10.8°C | 53.1% | 570.8hPa | 2.6V | 02:27:02 | 03:30:33 | 00:00:00 | |
| BIOWL1-15 | 2026-09-01 01:20:34 | 52.61182 | 11.46945 | 112° | 66km/h | 4688m | -4.8m/s | -10.9°C | 53.3% | 570hPa | 2.5V | 02:27:02 | 03:30:31 | 00:00:00 | |
| DM0DOS-11 | 2026-09-01 01:20:34 | 52.61213 | 11.46820 | 111° | 64km/h | 4713m | -5m/s | -11.1°C | 50.4% | 568hPa | 2.6V | 02:26:33 | 03:30:26 | 00:00:00 | |
| DO2SHX-10 | 2026-09-01 01:20:34 | 52.61182 | 11.46945 | 113° | 66km/h | 4688m | -4.7m/s | -10.9°C | 48.3% | 569.9hPa | 2.5V | 02:26:00 | 03:30:31 | 00:00:00 | |
| DL1XH-15 | 2026-09-01 01:20:33 | 52.61218 | 11.46795 | 111° | 64km/h | 4718m | -4.8m/s | -11.2°C | 51.5% | 567.6hPa | 2.5V | 02:26:34 | 03:30:25 | 00:00:00 | |
| AA1-15 | 2026-09-01 01:20:32 | 52.61194 | 11.46895 | 112° | 64km/h | 4698m | -5m/s | -11°C | 53.5% | 569.2hPa | 2.6V | 02:27:02 | 03:30:29 | 00:00:00 | |
| DF8AY | 2026-09-01 01:20:30 | 52.61236 | 11.46721 | 111° | 64km/h | 4734m | -5.2m/s | -11.3°C | 59.2% | 566.5hPa | 2.6V | 02:27:02 | 03:30:22 | 00:00:00 | |
| DL1XH-west | 2026-09-01 01:20:30 | 52.61212 | 11.46820 | 111° | 66km/h | 4713m | -5m/s | -11.1°C | 55.3% | 568hPa | 2.6V | 02:27:02 | 03:30:26 | 00:00:00 | |
| DL1XH-15 | 2026-09-01 01:20:28 | 52.61247 | 11.46671 | 111° | 66km/h | 4744m | -5.2m/s | -11.3°C | 55.1% | 565.7hPa | 2.6V | 02:26:39 | 03:30:20 | 00:00:00 | |
| DO2SHX-10 | 2026-09-01 01:20:28 | 52.61218 | 11.46795 | 112° | 64km/h | 4718m | -4.8m/s | -11.1°C | 51.5% | 567.6hPa | 2.6V | 00:00:00 | 03:30:25 | 00:00:00 | |
| DF8AY-15 | 2026-09-01 01:20:26 | 52.61230 | 11.46745 | 112° | 66km/h | 4728m | -5.2m/s | -11.2°C | 52.8% | 566.9hPa | 2.6V | 02:26:00 | 03:30:23 | 00:00:00 | |
| DL1XH1-15 | 2026-09-01 01:20:26 | 52.61259 | 11.46620 | 112° | 66km/h | 4755m | -4.9m/s | -11.4°C | 52.2% | 565hPa | 2.5V | 02:26:41 | 03:30:18 | 00:00:00 | |
| DO2SHX-10 | 2026-09-01 01:20:25 | 52.61236 | 11.46721 | 111° | 64km/h | 4734m | -5.1m/s | -11.3°C | 54.5% | 566.5hPa | 2.6V | 02:26:00 | 03:30:22 | 00:00:00 | |
| DM0DOS-11 | 2026-09-01 01:20:24 | 52.61272 | 11.46570 | 111° | 66km/h | 4765m | -5m/s | -11.4°C | 51.8% | 564.2hPa | 2.6V | 02:26:43 | 03:30:16 | 00:00:00 | |
| BIOWL1-15 | 2026-09-01 01:20:23 | 52.61247 | 11.46671 | 111° | 66km/h | 4745m | -5.2m/s | -11.3°C | 59.9% | 565.7hPa | 2.6V | 02:27:02 | 03:30:20 | 00:00:00 | |
| DL1XH-15 | 2026-09-01 01:20:23 | 52.61278 | 11.46544 | 111° | 66km/h | 4771m | -5.2m/s | -11.5°C | 52.2% | 563.8hPa | 2.6V | 02:26:44 | 03:30:15 | 00:00:00 | |
| AA1-15 | 2026-09-01 01:20:22 | 52.61260 | 11.46620 | 112° | 66km/h | 4755m | -4.9m/s | -11.4°C | 57.1% | 565hPa | 2.5V | 02:27:02 | 03:30:18 | 00:00:00 | |
| DL1XH-west | 2026-09-01 01:20:19 | 52.61272 | 11.46570 | 111° | 66km/h | 4765m | -5m/s | -11.5°C | 56.8% | 564.2hPa | 2.6V | 02:27:02 | 03:30:16 | 00:00:00 | |
| DO2SHX-10 | 2026-09-01 01:20:19 | 52.61272 | 11.46569 | 112° | 66km/h | 4766m | -4.9m/s | -11.4°C | 51.8% | 564.2hPa | 2.6V | 00:00:00 | 03:30:16 | 00:00:00 | |
| AM1SDL-15 | 2026-09-01 01:20:18 | 52.61278 | 11.46544 | 112° | 66km/h | 4771m | -5.2m/s | -11.5°C | 52.2% | 563.7hPa | 2.6V | 02:26:00 | 03:30:15 | 00:00:00 | |
| DL1XH-15 | 2026-09-01 01:20:17 | 52.61307 | 11.46418 | 110° | 66km/h | 4798m | -5.2m/s | -11.7°C | 48.7% | 561.9hPa | 2.6V | 02:26:49 | 03:30:10 | 00:00:00 | |
| SONDE2-11 | 2026-09-01 01:20:17 | 52.61290 | 11.46494 | 111° | 64km/h | 4781m | -5.1m/s | -11.6°C | 47.9% | 563.0hPa | 2.5V | 00:00:00 | 00:00:00 | 00:00:00 | |
| DL1XH1-15 | 2026-09-01 01:20:16 | 52.61319 | 11.46368 | 109° | 66km/h | 4809m | -5.2m/s | -11.8°C | 49.5% | 561.2hPa | 2.5V | 02:26:51 | 03:30:08 | 00:00:00 | |
| DF8AY | 2026-09-01 01:20:14 | 52.61302 | 11.46443 | 110° | 64km/h | 4792m | -5.2m/s | -11.6°C | 52.6% | 562.3hPa | 2.6V | 02:27:02 | 03:30:11 | 00:00:00 | |
| DM0DOS-11 | 2026-09-01 01:20:14 | 52.61330 | 11.46317 | 109° | 66km/h | 4819m | -5m/s | -11.9°C | 50.3% | 560.3hPa | 2.6V | 02:26:53 | 03:30:06 | 00:00:00 | |
| DO2SHX-10 | 2026-09-01 01:20:13 | 52.61307 | 11.46418 | 111° | 66km/h | 4798m | -5.1m/s | -11.6°C | 48.7% | 561.8hPa | 2.6V | 00:00:00 | 03:30:10 | 00:00:00 | |
| DL1XH-15 | 2026-09-01 01:20:11 | 52.61335 | 11.46291 | 109° | 66km/h | 4824m | -4.7m/s | -11.9°C | 49% | 560hPa | 2.6V | 02:26:54 | 03:30:05 | 00:00:00 | |
| DL1XH1-15 | 2026-09-01 01:20:11 | 52.61346 | 11.46240 | 110° | 66km/h | 4835m | -5m/s | -12°C | 46.6% | 559.1hPa | 2.6V | 02:26:56 | 03:30:03 | 00:00:00 | |
| AA1-15 | 2026-09-01 01:20:10 | 52.61324 | 11.46342 | 110° | 66km/h | 4814m | -5.2m/s | -11.8°C | 55% | 560.8hPa | 2.5V | 02:27:02 | 03:30:07 | 00:00:00 | |
| DO2SHX-10 | 2026-09-01 01:20:10 | 52.61324 | 11.46342 | 110° | 66km/h | 4814m | -5.2m/s | -11.8°C | 50.1% | 560.7hPa | 2.5V | 00:00:00 | 03:30:07 | 00:00:00 | |
| DM0DOS-11 | 2026-09-01 01:20:09 | 52.61357 | 11.46189 | 109° | 66km/h | 4846m | -5.3m/s | -12.1°C | 48.5% | 558.4hPa | 2.5V | 02:26:58 | 03:30:01 | 00:00:00 | |
| DL1XH-west | 2026-09-01 01:20:08 | 52.61335 | 11.46291 | 110° | 66km/h | 4824m | -4.7m/s | -11.9°C | 53.8% | 560hPa | 2.6V | 02:27:02 | 03:30:05 | 00:00:00 | |
| DO2SHX-10 | 2026-09-01 01:20:07 | 52.61341 | 11.46265 | 110° | 66km/h | 4830m | -4.9m/s | -11.9°C | 47.9% | 559.5hPa | 2.6V | 02:26:00 | 03:30:04 | 00:00:00 | |
| DL1XH1-15 | 2026-09-01 01:20:06 | 52.61374 | 11.46111 | 108° | 66km/h | 4862m | -4.6m/s | -12.2°C | 48% | 557.2hPa | 2.6V | 02:27:01 | 03:29:58 | 00:00:00 | |
| DF8AY | 2026-09-01 01:20:04 | 52.61358 | 11.46189 | 110° | 66km/h | 4846m | -5.3m/s | -12.1°C | 53.2% | 558.4hPa | 2.5V | 02:27:02 | 03:30:01 | 00:00:00 | |
| DO2SHX-10 | 2026-09-01 01:20:04 | 52.61358 | 11.46189 | 110° | 66km/h | 4846m | -5.2m/s | -12.0°C | 48.5% | 558.3hPa | 2.6V | 00:00:00 | 03:30:01 | 00:00:00 | |
| DL1XH1-15 | 2026-09-01 01:20:01 | 52.61401 | 11.45981 | 109° | 68km/h | 4887m | -5m/s | -12.4°C | 47.8% | 555.4hPa | 2.6V | 02:27:06 | 03:29:53 | 00:00:00 | |
| AA1-15 | 2026-09-01 01:20:00 | 52.61380 | 11.46085 | 109° | 66km/h | 4866m | -4.6m/s | -12.2°C | 52.6% | 556.9hPa | 2.6V | 02:27:02 | 03:29:57 | 00:00:00 | |
| DM0DOS-11 | 2026-09-01 01:19:59 | 52.61412 | 11.45929 | 109° | 66km/h | 4897m | -4.7m/s | -12.5°C | 47.7% | 554.6hPa | 2.6V | 02:27:08 | 03:29:51 | 00:00:00 | |
| BIOWL1-15 | 2026-09-01 01:19:59 | 52.61385 | 11.46059 | 109° | 66km/h | 4871m | -4.7m/s | -12.3°C | 52.1% | 556.5hPa | 2.5V | 02:27:53 | 03:29:56 | 00:00:00 | |
| DL1XH-west | 2026-09-01 01:19:58 | 52.61390 | 11.46033 | 109° | 68km/h | 4876m | -5.1m/s | -12.3°C | 52.3% | 556.1hPa | 2.5V | 02:27:53 | 03:29:55 | 00:00:00 | |
| DO2SHX-10 | 2026-09-01 01:19:58 | 52.61390 | 11.46033 | 110° | 68km/h | 4876m | -5.1m/s | -12.3°C | 47.6% | 556.1hPa | 2.5V | 02:27:00 | 03:29:55 | 00:00:00 | |
| TFSTFS | 2026-09-01 01:19:57 | 52.61390 | 11.46033 | 110° | 66km/h | 4876m | -5.1m/s | -12.3°C | 46.4% | 556.1hPa | 2.6V | 00:00:00 | 00:00:00 | 00:00:00 | |
| DL1XH1-15 | 2026-09-01 01:19:56 | 52.61430 | 11.45851 | 109° | 66km/h | 4913m | -4.3m/s | -12.6°C | 48.2% | 553.5hPa | 2.6V | 02:27:11 | 03:29:48 | 00:00:00 | |
| DB0DAN | 2026-09-01 01:19:55 | 52.61407 | 11.45954 | 110° | 64km/h | 4892m | -4.9m/s | -12.4°C | 46.6% | 554.95hPa | 2.6V | 00:00:00 | 00:00:00 | 00:00:00 | |
| DF8AY | 2026-09-01 01:19:54 | 52.61413 | 11.45929 | 110° | 66km/h | 4897m | -4.7m/s | -12.5°C | 52.3% | 554.6hPa | 2.6V | 02:27:53 | 03:29:51 | 00:00:00 | |
| SONCRA | 2026-09-01 01:19:54 | 52.61413 | 11.45929 | 109° | 64km/h | 4897m | -4.7m/s | -12.5°C | 46.5% | 554.6hPa | 2.6V | 00:00:00 | 00:00:00 | 00:00:00 | |
| DO2SHX-10 | 2026-09-01 01:19:52 | 52.61424 | 11.45877 | 111° | 66km/h | 4908m | -4.7m/s | -12.5°C | 48.4% | 553.7hPa | 2.6V | 00:00:00 | 03:29:49 | 00:00:00 | |
| DL1XH1-15 | 2026-09-01 01:19:51 | 52.61459 | 11.45721 | 110° | 68km/h | 4938m | -5m/s | -12.8°C | 49.2% | 551.7hPa | 2.6V | 02:27:16 | 03:29:43 | 00:00:00 | |
| DL1XH-15 | 2026-09-01 01:19:50 | 52.61471 | 11.45669 | 110° | 68km/h | 4948m | -4.9m/s | -12.9°C | 50.5% | 550.9hPa | 2.6V | 02:27:18 | 03:29:41 | 00:00:00 | |
| BIOWL1-15 | 2026-09-01 01:19:49 | 52.61441 | 11.45799 | 110° | 68km/h | 4923m | -4.9m/s | -12.7°C | 52.9% | 552.7hPa | 2.6V | 02:27:53 | 03:29:46 | 00:00:00 | |
| DL1XH-west | 2026-09-01 01:19:47 | 52.61453 | 11.45747 | 111° | 66km/h | 4933m | -4.8m/s | -12.8°C | 53.4% | 552.1hPa | 2.5V | 02:27:53 | 03:29:44 | 00:00:00 | |
| SONDE2-11 | 2026-09-01 01:19:45 | 52.61465 | 11.45695 | 110° | 66km/h | 4943m | -4.6m/s | -12.9°C | 48.8% | 551.3hPa | 2.6V | 00:00:00 | 00:00:00 | 00:00:00 | |
| DF8AY | 2026-09-01 01:19:43 | 52.61477 | 11.45643 | 111° | 68km/h | 4953m | -5m/s | -13°C | 55.6% | 550.5hPa | 2.6V | 02:27:53 | 03:29:40 | 00:00:00 | |
| DO2SHX-10 | 2026-09-01 01:19:43 | 52.61477 | 11.45643 | 111° | 68km/h | 4953m | -5.0m/s | -12.9°C | 51.3% | 550.5hPa | 2.5V | 00:00:00 | 03:29:40 | 00:00:00 | |
| AM1SDL-15 | 2026-09-01 01:19:42 | 52.61482 | 11.45617 | 111° | 68km/h | 4958m | -4.7m/s | -13.0°C | 51.7% | 550.1hPa | 2.5V | 02:27:00 | 03:29:39 | 00:00:00 | |
| DL1XH1-15 | 2026-09-01 01:19:41 | 52.61517 | 11.45459 | 109° | 68km/h | 4988m | -4.7m/s | -13.3°C | 53.9% | 548hPa | 2.5V | 02:27:26 | 03:29:33 | 00:00:00 | |
| BIOWL1-15 | 2026-09-01 01:19:41 | 52.61500 | 11.45538 | 110° | 68km/h | 4974m | -4.5m/s | -13.2°C | 57.4% | 549.1hPa | 2.6V | 02:27:53 | 03:29:36 | 00:00:00 | |
| DO2SHX-10 | 2026-09-01 01:19:40 | 52.61494 | 11.45564 | 111° | 68km/h | 4969m | -4.6m/s | -13.1°C | 52.6% | 549.5hPa | 2.6V | 02:27:00 | 03:29:37 | 00:00:00 | |
| DM0DOS-11 | 2026-09-01 01:19:39 | 52.61529 | 11.45405 | 109° | 69km/h | 4998m | -4.6m/s | -13.3°C | 53.8% | 547.2hPa | 2.6V | 02:27:28 | 03:29:31 | 00:00:00 | |
| DL1XH-west | 2026-09-01 01:19:37 | 52.61512 | 11.45485 | 109° | 68km/h | 4984m | -4.6m/s | -13.2°C | 57.8% | 548.3hPa | 2.6V | 02:27:53 | 03:29:34 | 00:00:00 | |
| AA1-15 | 2026-09-01 01:19:36 | 52.61517 | 11.45459 | 109° | 68km/h | 4989m | -4.7m/s | -13.3°C | 57.9% | 548hPa | 2.5V | 02:28:44 | 03:29:33 | 00:00:00 | |
| TFSTFS | 2026-09-01 01:19:35 | 52.61517 | 11.45458 | 110° | 68km/h | 4989m | -4.7m/s | -13.3°C | 52.5% | 548.0hPa | 2.6V | 00:00:00 | 00:00:00 | 00:00:00 | |
| DM0DOS-11 | 2026-09-01 01:19:34 | 52.61559 | 11.45270 | 110° | 69km/h | 5024m | -5m/s | -13.5°C | 53.2% | 545.5hPa | 2.6V | 02:27:33 | 03:29:26 | 00:00:00 | |
| DF8AY | 2026-09-01 01:19:33 | 52.61535 | 11.45378 | 110° | 69km/h | 5003m | -4.8m/s | -13.4°C | 57.3% | 546.9hPa | 2.6V | 02:27:53 | 03:29:30 | 00:00:00 | |
| BIOWL1-15 | 2026-09-01 01:19:28 | 52.61565 | 11.45243 | 111° | 69km/h | 5029m | -4.8m/s | -13.5°C | 56.8% | 545.1hPa | 2.6V | 02:27:53 | 03:29:25 | 00:00:00 | |
| DL1XH-15 | 2026-09-01 01:19:27 | 52.61577 | 11.45189 | 110° | 69km/h | 5040m | -4.7m/s | -13.6°C | 53.8% | 544.3hPa | 2.6V | 02:27:36 | 03:29:23 | 00:00:00 | |
| DL1XH-west | 2026-09-01 01:19:27 | 52.61577 | 11.45189 | 111° | 69km/h | 5040m | -4.7m/s | -13.6°C | 57.9% | 544.3hPa | 2.6V | 02:27:53 | 03:29:23 | 00:00:00 | |
| AA1-15 | 2026-09-01 01:19:25 | 52.61583 | 11.45162 | 110° | 68km/h | 5044m | -4.8m/s | -13.6°C | 58.9% | 544hPa | 2.5V | 02:28:44 | 03:29:22 | 00:00:00 | |
| DL1XH1-15 | 2026-09-01 01:19:25 | 52.61605 | 11.45054 | 107° | 69km/h | 5065m | -5m/s | -13.8°C | 54.4% | 542.5hPa | 2.6V | 02:27:41 | 03:29:18 | 00:00:00 | |
| DB0DAN | 2026-09-01 01:19:25 | 52.61583 | 11.45162 | 109° | 66km/h | 5044m | -4.8m/s | -13.6°C | 53.3% | 543.97hPa | 2.5V | 00:00:00 | 00:00:00 | 00:00:00 | |
| DF8AY | 2026-09-01 01:19:23 | 52.61595 | 11.45108 | 109° | 69km/h | 5054m | -4.7m/s | -13.7°C | 60.3% | 543.3hPa | 2.6V | 02:27:53 | 03:29:20 | 00:00:00 | |
| SONCRA | 2026-09-01 01:19:23 | 52.61595 | 11.45108 | 108° | 68km/h | 5054m | -4.7m/s | -13.7°C | 54.8% | 543.3hPa | 2.6V | 00:00:00 | 00:00:00 | 00:00:00 | |
| DO2SHX-10 | 2026-09-01 01:19:22 | 52.61600 | 11.45081 | 109° | 69km/h | 5059m | -4.9m/s | -13.7°C | 56.0% | 542.8hPa | 2.6V | 02:27:00 | 03:29:19 | 00:00:00 | |
| DL1XH-15 | 2026-09-01 01:19:21 | 52.61633 | 11.44917 | 108° | 69km/h | 5090m | -5m/s | -14°C | 55.9% | 540.5hPa | 2.6V | 02:27:46 | 03:29:13 | 00:00:00 | |
| BIOWL1-15 | 2026-09-01 01:19:17 | 52.61628 | 11.44944 | 109° | 69km/h | 5085m | -4.9m/s | -14°C | 58% | 541.1hPa | 2.6V | 02:27:53 | 03:29:14 | 00:00:00 | |
| DL1XH-west | 2026-09-01 01:19:15 | 52.61639 | 11.44890 | 110° | 69km/h | 5095m | -4.9m/s | -14°C | 60.1% | 540.3hPa | 2.6V | 02:27:53 | 03:29:12 | 00:00:00 | |
| AA1-15 | 2026-09-01 01:19:14 | 52.61645 | 11.44862 | 110° | 69km/h | 5101m | -5m/s | -14.1°C | 56.4% | 539.9hPa | 2.5V | 02:28:44 | 03:29:11 | 00:00:00 | |
| DM0DOS-11 | 2026-09-01 01:19:13 | 52.61701 | 11.44588 | 107° | 71km/h | 5152m | -4.9m/s | -14.3°C | 34.4% | 536.3hPa | 2.6V | 02:27:58 | 03:29:01 | 00:00:00 | |
| DF8AY | 2026-09-01 01:19:12 | 52.61657 | 11.44808 | 109° | 69km/h | 5111m | -5.3m/s | -14.1°C | 56.8% | 539.2hPa | 2.6V | 02:27:53 | 03:29:09 | 00:00:00 | |
| DB0DAN | 2026-09-01 01:19:10 | 52.61668 | 11.44753 | 109° | 66km/h | 5122m | -4.8m/s | -14.2°C | 47.3% | 538.47hPa | 2.6V | 00:00:00 | 00:00:00 | 00:00:00 | |
| BIOWL1-15 | 2026-09-01 01:19:08 | 52.61690 | 11.44644 | 108° | 69km/h | 5142m | -4.6m/s | -14.2°C | 38.8% | 537.1hPa | 2.6V | 02:28:44 | 03:29:03 | 00:00:00 | |
| DF8AY-15 | 2026-09-01 01:19:06 | 52.61690 | 11.44644 | 109° | 69km/h | 5142m | -4.5m/s | -14.2°C | 34.7% | 537.0hPa | 2.6V | 00:00:00 | 03:29:03 | 00:00:00 | |
| DL1XH1-15 | 2026-09-01 01:19:05 | 52.61718 | 11.44506 | 108° | 69km/h | 5168m | -4.9m/s | -14.4°C | 34.8% | 535.2hPa | 2.6V | 02:28:01 | 03:28:58 | 00:00:00 | |
| DL1XH-west | 2026-09-01 01:19:05 | 52.61701 | 11.44588 | 108° | 71km/h | 5152m | -4.9m/s | -14.3°C | 38.5% | 536.4hPa | 2.6V | 02:28:44 | 03:29:01 | 00:00:00 | |
| AA1-15 | 2026-09-01 01:19:03 | 52.61707 | 11.44561 | 108° | 69km/h | 5158m | -4.8m/s | -14.4°C | 38.6% | 535.9hPa | 2.5V | 02:28:44 | 03:29:00 | 00:00:00 | |
| DF8AY | 2026-09-01 01:19:01 | 52.61718 | 11.44506 | 108° | 71km/h | 5168m | -4.9m/s | -14.4°C | 38.9% | 535.2hPa | 2.6V | 02:28:44 | 03:28:58 | 00:00:00 | |
| DL1XH-15 | 2026-09-01 01:19:01 | 52.61747 | 11.44368 | 108° | 69km/h | 5193m | -4.9m/s | -14.6°C | 33.3% | 533.3hPa | 2.5V | 02:28:06 | 03:28:53 | 00:00:00 | |
| DO2SHX-10 | 2026-09-01 01:19:01 | 52.61718 | 11.44506 | 109° | 69km/h | 5168m | -4.9m/s | -14.4°C | 34.8% | 535.2hPa | 2.6V | 00:00:00 | 03:28:58 | 00:00:00 | |
| DM0DOS-11 | 2026-09-01 01:18:59 | 52.61735 | 11.44423 | 108° | 69km/h | 5183m | -4.7m/s | -14.5°C | 33.5% | 534.1hPa | 2.6V | 02:28:04 | 03:28:55 | 00:00:00 | |
| EDDB2-12 | 2026-09-01 01:18:58 | 52.61735 | 11.44423 | 108° | 69km/h | 5183m | -4.7m/s | -14.5°C | 32.4% | 534.1hPa | 2.5V | 00:00:00 | 00:00:00 | 00:00:00 | |
| EDDB2-11 | 2026-09-01 01:18:57 | 52.61741 | 11.44396 | 108° | 69km/h | 5187m | -4.8m/s | -14.6°C | 32.4% | 533.9hPa | 2.5V | 00:00:00 | 00:00:00 | 00:00:00 | |
| DL2RXE-15 | 2026-09-01 01:18:56 | 52.61741 | 11.44396 | 110° | 71km/h | 5187m | -4.8m/s | -14.6°C | 32.4% | 533.9hPa | 2.5V | 02:28:00 | 00:00:00 | 00:00:00 | |
| DL1XH1-15 | 2026-09-01 01:18:55 | 52.61774 | 11.44229 | 107° | 71km/h | 5218m | -4.9m/s | -14.8°C | 33.9% | 531.7hPa | 2.5V | 02:28:11 | 03:28:48 | 00:00:00 | |
| DB0DAN | 2026-09-01 01:18:55 | 52.61752 | 11.44341 | 109° | 66km/h | 5197m | -4.3m/s | -14.6°C | 32.3% | 533.07hPa | 2.6V | 00:00:00 | 00:00:00 | 00:00:00 | |
| BIOWL1-15 | 2026-09-01 01:18:55 | 52.61752 | 11.44341 | 109° | 69km/h | 5197m | -4.3m/s | -14.6°C | 37.4% | 533.1hPa | 2.6V | 02:28:44 | 03:28:52 | 00:00:00 | |
| DL1XH-west | 2026-09-01 01:18:54 | 52.61758 | 11.44313 | 109° | 71km/h | 5202m | -4.5m/s | -14.7°C | 37.6% | 532.9hPa | 2.6V | 02:28:44 | 03:28:51 | 00:00:00 | |
| AA1-15 | 2026-09-01 01:18:52 | 52.61769 | 11.44257 | 108° | 71km/h | 5212m | -4.9m/s | -14.8°C | 37.9% | 532hPa | 2.5V | 02:28:44 | 03:28:49 | 00:00:00 | |
| DF8AY | 2026-09-01 01:18:50 | 52.61780 | 11.44201 | 108° | 71km/h | 5223m | -4.6m/s | -14.9°C | 37.9% | 531.4hPa | 2.6V | 02:28:44 | 03:28:47 | 00:00:00 | |
| DO2SHX-10 | 2026-09-01 01:18:49 | 52.61786 | 11.44173 | 108° | 71km/h | 5228m | -4.2m/s | -14.8°C | 33.9% | 531.0hPa | 2.5V | 00:00:00 | 03:28:46 | 00:00:00 | |
| DF8AY-15 | 2026-09-01 01:18:46 | 52.61801 | 11.44089 | 108° | 69km/h | 5242m | -4.7m/s | -15.0°C | 34.6% | 529.9hPa | 2.5V | 00:00:00 | 03:28:43 | 00:00:00 | |
| DL1XH1-15 | 2026-09-01 01:18:45 | 52.61829 | 11.43950 | 108° | 69km/h | 5268m | -4.4m/s | -15.2°C | 35.4% | 528.2hPa | 2.5V | 02:28:21 | 03:28:38 | 00:00:00 | |
| BIOWL1-15 | 2026-09-01 01:18:44 | 52.61812 | 11.44033 | 108° | 69km/h | 5252m | -4.8m/s | -15.1°C | 39.3% | 529.2hPa | 2.6V | 02:28:44 | 03:28:41 | 00:00:00 | |
| DL1XH-west | 2026-09-01 01:18:43 | 52.61818 | 11.44005 | 108° | 69km/h | 5257m | -5m/s | -15.2°C | 39.3% | 528.9hPa | 2.6V | 02:28:44 | 03:28:40 | 00:00:00 | |
| DO2SHX-10 | 2026-09-01 01:18:43 | 52.61818 | 11.44005 | 108° | 69km/h | 5257m | -4.9m/s | -15.1°C | 35.4% | 528.9hPa | 2.6V | 00:00:00 | 03:28:40 | 00:00:00 | |
| AM1SDL-15 | 2026-09-01 01:18:42 | 52.61823 | 11.43977 | 109° | 69km/h | 5263m | -4.6m/s | -15.2°C | 35.4% | 528.5hPa | 2.6V | 00:00:00 | 03:28:39 | 00:00:00 | |
| AA1-15 | 2026-09-01 01:18:42 | 52.61829 | 11.43950 | 108° | 69km/h | 5268m | -4.4m/s | -15.3°C | 39.3% | 528.2hPa | 2.5V | 02:28:44 | 03:28:38 | 00:00:00 | |
| DL4XJ-10 | 2026-09-01 01:18:41 | 52.61828 | 11.43950 | 109° | 69km/h | 5268m | -4.4m/s | -14.8°C | 0% | 0hPa | 2.6V | 00:00:00 | 00:00:00 | 00:00:00 | |
| DO2SHX-10 | 2026-09-01 01:18:40 | 52.61834 | 11.43922 | 109° | 69km/h | 5272m | -4.5m/s | -15.2°C | 35.6% | 527.8hPa | 2.6V | 00:00:00 | 03:28:37 | 00:00:00 | |
| DM0DOS-11 | 2026-09-01 01:18:39 | 52.61845 | 11.43867 | 108° | 69km/h | 5282m | -4.8m/s | -15.3°C | 35.6% | 527.2hPa | 2.6V | 02:28:24 | 03:28:35 | 00:00:00 | |
| BIOWL1-15 | 2026-09-01 01:18:35 | 52.61885 | 11.43674 | 109° | 69km/h | 5317m | -4.6m/s | -15.6°C | 38.5% | 524.7hPa | 2.6V | 02:28:44 | 03:28:28 | 00:00:00 | |
| DL1XH1-15 | 2026-09-01 01:18:35 | 52.61885 | 11.43674 | 109° | 69km/h | 5317m | -4.6m/s | -15.6°C | 34.7% | 524.7hPa | 2.6V | 02:28:31 | 03:28:28 | 00:00:00 | |
| DO2SHX-10 | 2026-09-01 01:18:34 | 52.61868 | 11.43756 | 109° | 69km/h | 5302m | -4.5m/s | -15.5°C | 35.4% | 525.8hPa | 2.6V | 00:00:00 | 03:28:31 | 00:00:00 | |
| DM0DOS-11 | 2026-09-01 01:18:33 | 52.61903 | 11.43592 | 109° | 69km/h | 5332m | -4.8m/s | -15.7°C | 34.2% | 523.7hPa | 2.6V | 02:28:34 | 03:28:25 | 00:00:00 | |
| DL1XH-west | 2026-09-01 01:18:32 | 52.61880 | 11.43701 | 109° | 69km/h | 5312m | -4.7m/s | -15.6°C | 38.8% | 525.1hPa | 2.6V | 02:28:44 | 03:28:29 | 00:00:00 | |
| AA1-15 | 2026-09-01 01:18:30 | 52.61891 | 11.43646 | 109° | 69km/h | 5322m | -4.5m/s | -15.6°C | 38% | 524.4hPa | 2.5V | 02:28:44 | 03:28:27 | 00:00:00 | |
| DO2SHX-10 | 2026-09-01 01:18:28 | 52.61903 | 11.43592 | 110° | 69km/h | 5332m | -4.7m/s | -15.7°C | 34.2% | 523.7hPa | 2.6V | 02:28:00 | 03:28:25 | 00:00:00 | |
| DL1XH-15 | 2026-09-01 01:18:27 | 52.61914 | 11.43537 | 109° | 69km/h | 5342m | -4.8m/s | -15.8°C | 34.4% | 523hPa | 2.6V | 02:28:36 | 03:28:23 | 00:00:00 | |
| DF8AY-15 | 2026-09-01 01:18:26 | 52.61914 | 11.43537 | 110° | 71km/h | 5342m | -4.8m/s | -15.7°C | 34.4% | 523.0hPa | 2.6V | 02:28:00 | 03:28:23 | 00:00:00 | |
| DL1XH1-15 | 2026-09-01 01:18:25 | 52.61945 | 11.43400 | 111° | 69km/h | 5367m | -4.3m/s | -16°C | 35.8% | 521.3hPa | 2.6V | 02:28:41 | 03:28:18 | 00:00:00 | |
| DB0DAN | 2026-09-01 01:18:25 | 52.61920 | 11.43510 | 110° | 68km/h | 5347m | -4.9m/s | -15.8°C | 33.4% | 522.68hPa | 2.6V | 00:00:00 | 00:00:00 | 00:00:00 | |
| DL1XH-west | 2026-09-01 01:18:22 | 52.61945 | 11.43400 | 111° | 69km/h | 5367m | -4.4m/s | -16°C | 39.5% | 521.3hPa | 2.6V | 02:28:44 | 03:28:18 | 00:00:00 | |
| DM0DOS-11 | 2026-09-01 01:18:22 | 52.61964 | 11.43318 | 110° | 71km/h | 5382m | -4.6m/s | -16.1°C | 41.7% | 520.2hPa | 2.6V | 02:28:44 | 03:28:15 | 00:00:00 | |
| BIOWL1-15 | 2026-09-01 01:18:20 | 52.61976 | 11.43263 | 111° | 71km/h | 5392m | -4.8m/s | -16.1°C | 43.6% | 519.6hPa | 2.5V | 02:29:35 | 03:28:13 | 00:00:00 | |
| AA1-15 | 2026-09-01 01:18:20 | 52.61951 | 11.43372 | 111° | 71km/h | 5372m | -4.6m/s | -16°C | 40.5% | 520.9hPa | 2.6V | 02:28:44 | 03:28:17 | 00:00:00 | |
| DF8AY | 2026-09-01 01:18:19 | 52.61958 | 11.43345 | 110° | 69km/h | 5377m | -4.7m/s | -16°C | 42.2% | 520.6hPa | 2.6V | 02:28:44 | 03:28:16 | 00:00:00 | |
| DO2SHX-10 | 2026-09-01 01:18:19 | 52.61958 | 11.43345 | 111° | 71km/h | 5377m | -4.7m/s | -16.0°C | 38.6% | 520.5hPa | 2.6V | 02:28:00 | 03:28:16 | 00:00:00 | |
| AM1SDL-15 | 2026-09-01 01:18:18 | 52.61964 | 11.43318 | 111° | 71km/h | 5382m | -4.5m/s | -16.0°C | 41.7% | 520.2hPa | 2.6V | 00:00:00 | 03:28:15 | 00:00:00 | |
| DJ2DS-15 | 2026-09-01 01:18:17 | 52.61976 | 11.43263 | 110° | 71km/h | 5392m | -4.8m/s | -16.1°C | 38.6% | 519.6hPa | 2.6V | 00:00:00 | 00:00:00 | 00:00:00 | |
| DO2SHX-10 | 2026-09-01 01:18:16 | 52.61976 | 11.43262 | 111° | 71km/h | 5392m | -4.7m/s | -16.0°C | 40.0% | 519.6hPa | 2.6V | 00:00:00 | 03:28:13 | 00:00:00 | |
| DL1XH1-15 | 2026-09-01 01:18:15 | 52.62008 | 11.43125 | 111° | 71km/h | 5416m | -4.6m/s | -16.2°C | 36% | 517.9hPa | 2.6V | 02:28:51 | 03:28:08 | 00:00:00 | |
| DL1XH-west | 2026-09-01 01:18:11 | 52.62008 | 11.43125 | 112° | 71km/h | 5416m | -4.6m/s | -16.2°C | 39.7% | 517.9hPa | 2.6V | 02:29:35 | 03:28:08 | 00:00:00 | |
| DM0DOS-11 | 2026-09-01 01:18:11 | 52.62028 | 11.43044 | 110° | 69km/h | 5431m | -4.9m/s | -16.3°C | 36% | 516.8hPa | 2.5V | 02:28:54 | 03:28:05 | 00:00:00 | |
| DF8AY | 2026-09-01 01:18:09 | 52.62021 | 11.43071 | 111° | 71km/h | 5426m | -4.8m/s | -16.3°C | 39.8% | 517.2hPa | 2.5V | 02:29:35 | 03:28:06 | 00:00:00 | |
| DL1XH-15 | 2026-09-01 01:18:07 | 52.62040 | 11.42989 | 110° | 69km/h | 5441m | -4.7m/s | -16.4°C | 36.1% | 516.1hPa | 2.6V | 02:28:56 | 03:28:03 | 00:00:00 | |
| BIOWL1-15 | 2026-09-01 01:18:07 | 52.62034 | 11.43016 | 111° | 71km/h | 5436m | -4.6m/s | -16.4°C | 39.9% | 516.5hPa | 2.6V | 02:29:35 | 03:28:04 | 00:00:00 | |
| DF8AY-15 | 2026-09-01 01:18:06 | 52.62040 | 11.42989 | 111° | 71km/h | 5441m | -4.7m/s | -16.4°C | 36.1% | 516.1hPa | 2.5V | 00:00:00 | 03:28:03 | 00:00:00 | |
| DL1XH1-15 | 2026-09-01 01:18:05 | 52.62072 | 11.42851 | 109° | 71km/h | 5466m | -4.7m/s | -16.6°C | 36.8% | 514.6hPa | 2.5V | 02:29:01 | 03:27:58 | 00:00:00 | |
| DO2SHX-10 | 2026-09-01 01:18:04 | 52.62053 | 11.42934 | 111° | 71km/h | 5451m | -4.6m/s | -16.4°C | 36.3% | 515.5hPa | 2.5V | 00:00:00 | 03:28:01 | 00:00:00 | |
| BIOWL7-15 | 2026-09-01 01:18:03 | 52.62059 | 11.42906 | 111° | 71km/h | 5456m | -4.6m/s | -16.5°C | 35.2% | 515.2hPa | 2.5V | 00:00:00 | 00:00:00 | 00:00:00 | |
| DL1XH-15 | 2026-09-01 01:18:01 | 52.62104 | 11.42711 | 111° | 73km/h | 5490m | -4.6m/s | -16.9°C | 36% | 512.9hPa | 2.5V | 02:29:06 | 03:27:53 | 00:00:00 | |
| DL1XH-west | 2026-09-01 01:18:00 | 52.62078 | 11.42823 | 110° | 71km/h | 5471m | -4.3m/s | -16.7°C | 40.6% | 514.1hPa | 2.6V | 02:29:35 | 03:27:57 | 00:00:00 | |
| S3001 | 2026-09-01 01:18:00 | 52.62078 | 11.42823 | 110° | 71km/h | 5471m | -4.3m/s | -16.7°C | 35.6% | 514.1hPa | 2.6V | 00:00:00 | 00:00:00 | 00:00:00 | |
| DM0DOS-11 | 2026-09-01 01:17:59 | 52.62091 | 11.42767 | 111° | 73km/h | 5480m | -4.8m/s | -16.8°C | 36.1% | 513.5hPa | 2.6V | 02:29:04 | 03:27:55 | 00:00:00 | |
| DF8AY | 2026-09-01 01:17:58 | 52.62091 | 11.42767 | 111° | 73km/h | 5480m | -4.8m/s | -16.8°C | 39.8% | 513.5hPa | 2.6V | 02:29:35 | 03:27:55 | 00:00:00 | |
| BIOWL1-15 | 2026-09-01 01:17:56 | 52.62104 | 11.42711 | 111° | 73km/h | 5490m | -4.6m/s | -16.9°C | 39.7% | 513hPa | 2.5V | 02:29:35 | 03:27:53 | 00:00:00 | |
| DL1XH1-15 | 2026-09-01 01:17:55 | 52.62137 | 11.42571 | 111° | 73km/h | 5514m | -4.9m/s | -17.1°C | 35% | 511.1hPa | 2.5V | 02:29:11 | 03:27:48 | 00:00:00 | |
| DO2SHX-10 | 2026-09-01 01:17:55 | 52.62110 | 11.42683 | 112° | 73km/h | 5494m | -4.4m/s | -16.9°C | 36.0% | 512.4hPa | 2.6V | 00:00:00 | 03:27:52 | 00:00:00 | |
| AM1SDL-15 | 2026-09-01 01:17:54 | 52.62117 | 11.42655 | 112° | 73km/h | 5499m | -4.5m/s | -16.9°C | 36.1% | 512.1hPa | 2.6V | 02:29:00 | 03:27:51 | 00:00:00 | |
| DO2SHX-10 | 2026-09-01 01:17:52 | 52.62130 | 11.42599 | 112° | 73km/h | 5509m | -4.8m/s | -17.0°C | 35.2% | 511.5hPa | 2.6V | 02:29:00 | 03:27:49 | 00:00:00 | |
| DM0DOS-11 | 2026-09-01 01:17:51 | 52.62157 | 11.42487 | 111° | 73km/h | 5529m | -4.7m/s | -17.2°C | 33.9% | 510.2hPa | 2.6V | 02:29:14 | 03:27:45 | 00:00:00 | |
| DL1XH-west | 2026-09-01 01:17:49 | 52.62150 | 11.42515 | 111° | 73km/h | 5524m | -4.7m/s | -17.1°C | 37.7% | 510.5hPa | 2.6V | 02:29:35 | 03:27:46 | 00:00:00 | |
| DF8AY | 2026-09-01 01:17:48 | 52.62157 | 11.42487 | 111° | 73km/h | 5529m | -4.7m/s | -17.2°C | 37.4% | 510.2hPa | 2.6V | 02:29:35 | 03:27:45 | 00:00:00 | |
| AA1-15 | 2026-09-01 01:17:48 | 52.62164 | 11.42458 | 111° | 73km/h | 5534m | -4.5m/s | -17.2°C | 36.5% | 509.8hPa | 2.6V | 02:29:35 | 03:27:44 | 00:00:00 | |
| DL1XH-15 | 2026-09-01 01:17:47 | 52.62170 | 11.42430 | 111° | 73km/h | 5539m | -4.5m/s | -17.2°C | 32% | 509.4hPa | 2.6V | 02:29:16 | 03:27:43 | 00:00:00 | |
| BIOWL1-15 | 2026-09-01 01:17:46 | 52.62170 | 11.42430 | 111° | 73km/h | 5539m | -4.6m/s | -17.2°C | 35.6% | 509.4hPa | 2.6V | 02:29:35 | 03:27:43 | 00:00:00 | |
| DO2SHX-10 | 2026-09-01 01:17:46 | 52.62170 | 11.42430 | 112° | 73km/h | 5539m | -4.5m/s | -17.1°C | 32.0% | 509.4hPa | 2.6V | 00:00:00 | 03:27:43 | 00:00:00 | |
| DL1XH1-15 | 2026-09-01 01:17:45 | 52.62205 | 11.42288 | 112° | 73km/h | 5564m | -4.6m/s | -17.3°C | 32.2% | 507.8hPa | 2.6V | 02:29:21 | 03:27:38 | 00:00:00 | |
| DO2SHX-10 | 2026-09-01 01:17:43 | 52.62191 | 11.42345 | 113° | 73km/h | 5553m | -4.7m/s | -17.2°C | 32.2% | 508.5hPa | 2.5V | 02:29:00 | 03:27:40 | 00:00:00 | |
| AM1SDL-15 | 2026-09-01 01:17:42 | 52.62198 | 11.42317 | 112° | 73km/h | 5558m | -4.9m/s | -17.3°C | 32.2% | 508.1hPa | 2.6V | 00:00:00 | 03:27:39 | 00:00:00 | |
| DL1XH-15 | 2026-09-01 01:17:41 | 52.62240 | 11.42147 | 112° | 73km/h | 5588m | -4.7m/s | -17.6°C | 31.4% | 506.1hPa | 2.6V | 02:29:26 | 03:27:33 | 00:00:00 | |
| DL4XJ-10 | 2026-09-01 01:17:41 | 52.62205 | 11.42288 | 113° | 73km/h | 5563m | -4.6m/s | -16.9°C | 0% | 0hPa | 2.5V | 00:00:00 | 00:00:00 | 00:00:00 | |
| DO2SHX-10 | 2026-09-01 01:17:40 | 52.62212 | 11.42260 | 113° | 73km/h | 5568m | -4.3m/s | -17.3°C | 32.2% | 507.3hPa | 2.5V | 00:00:00 | 03:27:37 | 00:00:00 | |
| DM0DOS-11 | 2026-09-01 01:17:39 | 52.62226 | 11.42204 | 112° | 73km/h | 5578m | -4.7m/s | -17.5°C | 31.6% | 506.8hPa | 2.5V | 02:29:24 | 03:27:35 | 00:00:00 | |
| DL1XH-west | 2026-09-01 01:17:39 | 52.62226 | 11.42204 | 112° | 73km/h | 5578m | -4.7m/s | -17.5°C | 35% | 506.8hPa | 2.5V | 02:29:35 | 03:27:35 | 00:00:00 | |
| DF8AY | 2026-09-01 01:17:38 | 52.62233 | 11.42176 | 113° | 73km/h | 5583m | -4.7m/s | -17.5°C | 34.9% | 506.5hPa | 2.5V | 02:29:35 | 03:27:34 | 00:00:00 | |
| AA1-15 | 2026-09-01 01:17:36 | 52.62240 | 11.42147 | 112° | 73km/h | 5588m | -4.7m/s | -17.6°C | 34.8% | 506.1hPa | 2.6V | 02:29:35 | 03:27:33 | 00:00:00 | |
| BIOWL1-15 | 2026-09-01 01:17:35 | 52.62262 | 11.42063 | 113° | 73km/h | 5603m | -5m/s | -17.7°C | 34.4% | 505.1hPa | 2.5V | 02:29:35 | 03:27:30 | 00:00:00 | |
| DL1XH1-15 | 2026-09-01 01:17:35 | 52.62276 | 11.42008 | 112° | 71km/h | 5613m | -4.7m/s | -17.8°C | 30.7% | 504.4hPa | 2.6V | 02:29:31 | 03:27:28 | 00:00:00 | |
| DO2SHX-10 | 2026-09-01 01:17:34 | 52.62255 | 11.42091 | 114° | 73km/h | 5598m | -4.8m/s | -17.6°C | 31.4% | 505.4hPa | 2.6V | 02:29:00 | 03:27:31 | 00:00:00 | |
| DM0DOS-11 | 2026-09-01 01:17:33 | 52.62297 | 11.41925 | 112° | 73km/h | 5628m | -4.5m/s | -17.9°C | 30.4% | 503.4hPa | 2.5V | 02:29:34 | 03:27:25 | 00:00:00 | |
| DL1XH-west | 2026-09-01 01:17:28 | 52.62297 | 11.41925 | 112° | 73km/h | 5628m | -4.5m/s | -17.9°C | 33.4% | 503.4hPa | 2.5V | 02:29:35 | 03:27:25 | 00:00:00 | |
| DO2SHX-10 | 2026-09-01 01:17:28 | 52.62297 | 11.41925 | 113° | 73km/h | 5628m | -4.5m/s | -17.8°C | 30.4% | 503.3hPa | 2.6V | 00:00:00 | 03:27:25 | 00:00:00 | |
| DL1XH-15 | 2026-09-01 01:17:27 | 52.62311 | 11.41869 | 112° | 73km/h | 5638m | -4.7m/s | -18°C | 30.5% | 502.7hPa | 2.6V | 02:29:36 | 03:27:23 | 00:00:00 | |
| DF8AY | 2026-09-01 01:17:27 | 52.62304 | 11.41897 | 113° | 73km/h | 5633m | -5.1m/s | -17.9°C | 33.4% | 503.1hPa | 2.5V | 02:29:35 | 03:27:24 | 00:00:00 | |
| DL2RXE-15 | 2026-09-01 01:17:26 | 52.62304 | 11.41897 | 114° | 73km/h | 5633m | -5.1m/s | -17.9°C | 29.1% | 503.1hPa | 2.6V | 02:29:00 | 00:00:00 | 00:00:00 | |
| DB0DAN | 2026-09-01 01:17:25 | 52.62318 | 11.41842 | 113° | 69km/h | 5643m | -4.9m/s | -18°C | 29.5% | 502.42hPa | 2.6V | 00:00:00 | 00:00:00 | 00:00:00 | |
| BIOWL1-15 | 2026-09-01 01:17:24 | 52.62326 | 11.41814 | 114° | 73km/h | 5648m | -5m/s | -18°C | 33.9% | 502.1hPa | 2.6V | 02:30:26 | 03:27:21 | 00:00:00 | |
| AA1-15 | 2026-09-01 01:17:23 | 52.62333 | 11.41787 | 114° | 73km/h | 5653m | -5m/s | -18.1°C | 33.8% | 501.7hPa | 2.5V | 02:30:26 | 03:27:20 | 00:00:00 | |
| DO2SHX-10 | 2026-09-01 01:17:22 | 52.62341 | 11.41759 | 116° | 71km/h | 5658m | -4.8m/s | -18.1°C | 31.2% | 501.4hPa | 2.5V | 00:00:00 | 03:27:19 | 00:00:00 | |
| DL4XJ-10 | 2026-09-01 01:17:21 | 52.62349 | 11.41732 | 117° | 71km/h | 5664m | -4.7m/s | -17.7°C | 0% | 0hPa | 2.5V | 00:00:00 | 00:00:00 | 00:00:00 | |
| DM0DOS-11 | 2026-09-01 01:17:19 | 52.62373 | 11.41652 | 116° | 71km/h | 5679m | -5.1m/s | -18.3°C | 34.2% | 500.1hPa | 2.5V | 02:29:44 | 03:27:15 | 00:00:00 | |
| DL1XH-west | 2026-09-01 01:17:17 | 52.62381 | 11.41626 | 117° | 71km/h | 5684m | -5.1m/s | -18.3°C | 38.9% | 499.7hPa | 2.5V | 02:30:26 | 03:27:14 | 00:00:00 | |
| DF8AY | 2026-09-01 01:17:16 | 52.62389 | 11.41599 | 117° | 71km/h | 5689m | -4.8m/s | -18.4°C | 39.3% | 499.4hPa | 2.6V | 02:30:26 | 03:27:13 | 00:00:00 | |
| DB0NH | 2026-09-01 01:17:16 | 52.62389 | 11.41599 | 118° | 73km/h | 5690m | -4.8m/s | -18.3°C | 36.1% | 499.3hPa | 2.6V | 00:00:00 | 03:27:13 | 00:00:00 | |
| DL1XH1-15 | 2026-09-01 01:17:15 | 52.62430 | 11.41467 | 117° | 71km/h | 5715m | -5m/s | -18.4°C | 32.6% | 497.6hPa | 2.6V | 02:29:51 | 03:27:08 | 00:00:00 | |
| BIOWL1-15 | 2026-09-01 01:17:13 | 52.62414 | 11.41520 | 117° | 71km/h | 5705m | -5m/s | -18.4°C | 37.4% | 498.2hPa | 2.5V | 02:30:26 | 03:27:10 | 00:00:00 | |
| DL1XH-west | 2026-09-01 01:17:07 | 52.62463 | 11.41361 | 117° | 73km/h | 5736m | -5m/s | -18.5°C | 33.4% | 496.2hPa | 2.5V | 02:30:26 | 03:27:04 | 00:00:00 | |
| DL1XH-15 | 2026-09-01 01:17:07 | 52.62471 | 11.41334 | 117° | 71km/h | 5741m | -4.9m/s | -18.5°C | 31.7% | 495.9hPa | 2.6V | 02:29:56 | 03:27:03 | 00:00:00 | |
| DF8AY | 2026-09-01 01:17:06 | 52.62480 | 11.41308 | 118° | 71km/h | 5746m | -5m/s | -18.6°C | 35.9% | 495.5hPa | 2.6V | 02:30:26 | 03:27:02 | 00:00:00 | |
| DF8AY-15 | 2026-09-01 01:17:06 | 52.62471 | 11.41334 | 118° | 73km/h | 5742m | -4.9m/s | -18.5°C | 31.7% | 495.8hPa | 2.6V | 00:00:00 | 03:27:03 | 00:00:00 | |
| DL1XH1-15 | 2026-09-01 01:17:05 | 52.62514 | 11.41202 | 117° | 73km/h | 5767m | -4.9m/s | -18.8°C | 46.6% | 494.1hPa | 2.6V | 02:30:01 | 03:26:58 | 00:00:00 | |
| AA1-15 | 2026-09-01 01:17:03 | 52.62497 | 11.41255 | 118° | 71km/h | 5757m | -4.7m/s | -18.7°C | 47% | 494.8hPa | 2.5V | 02:30:26 | 03:27:00 | 00:00:00 | |
| BIOWL1-15 | 2026-09-01 01:17:02 | 52.62522 | 11.41176 | 117° | 73km/h | 5772m | -5m/s | -18.8°C | 46% | 493.8hPa | 2.6V | 02:30:26 | 03:26:57 | 00:00:00 | |
| DM0DOS-11 | 2026-09-01 01:17:01 | 52.62539 | 11.41122 | 116° | 73km/h | 5782m | -5.1m/s | -18.8°C | 30.6% | 493.1hPa | 2.5V | 02:30:04 | 03:26:55 | 00:00:00 | |
| DL1XH-15 | 2026-09-01 01:17:01 | 52.62555 | 11.41067 | 115° | 73km/h | 5792m | -4.8m/s | -18.9°C | 28.2% | 492.4hPa | 2.6V | 02:30:06 | 03:26:53 | 00:00:00 | |
| DL1XH-west | 2026-09-01 01:16:56 | 52.62555 | 11.41067 | 116° | 73km/h | 5792m | -4.9m/s | -18.9°C | 31.3% | 492.5hPa | 2.6V | 02:30:26 | 03:26:53 | 00:00:00 | |
| DL1XH1-15 | 2026-09-01 01:16:55 | 52.62595 | 11.40931 | 115° | 73km/h | 5819m | -4.8m/s | -19.1°C | 27.1% | 490.7hPa | 2.6V | 02:30:11 | 03:26:48 | 00:00:00 | |
| DB0DAN | 2026-09-01 01:16:55 | 52.62563 | 11.41040 | 117° | 69km/h | 5798m | -4.8m/s | -18.9°C | 26.2% | 492.17hPa | 2.6V | 00:00:00 | 00:00:00 | 00:00:00 | |
| DF8AY | 2026-09-01 01:16:54 | 52.62571 | 11.41013 | 116° | 73km/h | 5803m | -4.9m/s | -19°C | 31% | 491.8hPa | 2.6V | 02:30:26 | 03:26:51 | 00:00:00 | |
| AA1-15 | 2026-09-01 01:16:52 | 52.62587 | 11.40958 | 116° | 73km/h | 5813m | -5.1m/s | -19°C | 30.2% | 491.1hPa | 2.5V | 02:30:26 | 03:26:49 | 00:00:00 | |
| BIOWL1-15 | 2026-09-01 01:16:49 | 52.62611 | 11.40876 | 116° | 73km/h | 5829m | -4.9m/s | -19.2°C | 29.8% | 490.1hPa | 2.6V | 02:30:26 | 03:26:46 | 00:00:00 | |
| DM0DOS-11 | 2026-09-01 01:16:49 | 52.62619 | 11.40848 | 115° | 73km/h | 5834m | -4.9m/s | -19.2°C | 26.9% | 489.7hPa | 2.5V | 02:30:14 | 03:26:45 | 00:00:00 | |
| DL1XH-west | 2026-09-01 01:16:46 | 52.62635 | 11.40793 | 115° | 75km/h | 5845m | -4.9m/s | -19.3°C | 32.5% | 489.1hPa | 2.6V | 02:30:26 | 03:26:43 | 00:00:00 | |
| DF8AY-15 | 2026-09-01 01:16:46 | 52.62635 | 11.40793 | 116° | 73km/h | 5845m | -4.9m/s | -19.2°C | 29.5% | 489.1hPa | 2.6V | 00:00:00 | 03:26:43 | 00:00:00 | |
| DL1XH1-15 | 2026-09-01 01:16:45 | 52.62674 | 11.40654 | 114° | 73km/h | 5870m | -5.2m/s | -19.3°C | 26.7% | 487.4hPa | 2.6V | 02:30:21 | 03:26:38 | 00:00:00 | |
| DF8AY | 2026-09-01 01:16:44 | 52.62651 | 11.40737 | 115° | 73km/h | 5855m | -5m/s | -19.3°C | 33.7% | 488.3hPa | 2.6V | 02:30:26 | 03:26:41 | 00:00:00 | |
| AA1-15 | 2026-09-01 01:16:41 | 52.62674 | 11.40654 | 114° | 73km/h | 5870m | -5.2m/s | -19.3°C | 29.8% | 487.4hPa | 2.6V | 02:30:26 | 03:26:38 | 00:00:00 | |
| DL1XH-15 | 2026-09-01 01:16:41 | 52.62712 | 11.40514 | 113° | 73km/h | 5897m | -5m/s | -19.5°C | 32% | 485.6hPa | 2.6V | 02:30:26 | 03:26:33 | 00:00:00 | |
| DB0DAN | 2026-09-01 01:16:40 | 52.62682 | 11.40626 | 114° | 69km/h | 5876m | -5.1m/s | -19.3°C | 26.2% | 486.94hPa | 2.6V | 00:00:00 | 00:00:00 | 00:00:00 | |
| DO2SHX-10 | 2026-09-01 01:16:40 | 52.62682 | 11.40626 | 115° | 73km/h | 5876m | -5.0m/s | -19.3°C | 27.5% | 486.9hPa | 2.6V | 02:30:00 | 03:26:37 | 00:00:00 | |
| DM0DOS-11 | 2026-09-01 01:16:39 | 52.62697 | 11.40570 | 113° | 73km/h | 5886m | -5.1m/s | -19.4°C | 29.8% | 486.2hPa | 2.5V | 02:30:24 | 03:26:35 | 00:00:00 | |
| BIOWL1-15 | 2026-09-01 01:16:39 | 52.62689 | 11.40598 | 114° | 73km/h | 5881m | -5.1m/s | -19.4°C | 31.8% | 486.6hPa | 2.6V | 02:30:26 | 03:26:36 | 00:00:00 | |
| DL1XH-west | 2026-09-01 01:16:36 | 52.62712 | 11.40514 | 113° | 73km/h | 5897m | -5m/s | -19.5°C | 35.2% | 485.6hPa | 2.6V | 02:30:26 | 03:26:33 | 00:00:00 | |
| DF8AY | 2026-09-01 01:16:33 | 52.62734 | 11.40429 | 113° | 75km/h | 5913m | -4.7m/s | -19.6°C | 35.2% | 484.6hPa | 2.6V | 02:31:17 | 03:26:30 | 00:00:00 | |
| AA1-15 | 2026-09-01 01:16:30 | 52.62756 | 11.40344 | 113° | 73km/h | 5928m | -4.8m/s | -19.7°C | 34.5% | 483.6hPa | 2.5V | 02:31:17 | 03:26:27 | 00:00:00 | |
| BIOWL1-15 | 2026-09-01 01:16:29 | 52.62763 | 11.40316 | 113° | 73km/h | 5933m | -5m/s | -19.7°C | 34.5% | 483.3hPa | 2.6V | 02:31:17 | 03:26:26 | 00:00:00 | |
| DL1XH-15 | 2026-09-01 01:16:27 | 52.62785 | 11.40232 | 113° | 73km/h | 5948m | -5m/s | -19.8°C | 29.6% | 482.2hPa | 2.5V | 02:30:36 | 03:26:23 | 00:00:00 | |
| DL1XH-west | 2026-09-01 01:16:26 | 52.62785 | 11.40232 | 113° | 73km/h | 5948m | -5m/s | -19.8°C | 32.7% | 482.2hPa | 2.5V | 02:31:17 | 03:26:23 | 00:00:00 | |
| DF8AY-15 | 2026-09-01 01:16:26 | 52.62785 | 11.40232 | 114° | 73km/h | 5948m | -5.0m/s | -19.7°C | 29.6% | 482.2hPa | 2.5V | 02:30:00 | 03:26:23 | 00:00:00 | |
| DL1XH1-15 | 2026-09-01 01:16:25 | 52.62822 | 11.40092 | 113° | 73km/h | 5974m | -4.9m/s | -20°C | 28.2% | 480.5hPa | 2.6V | 02:30:41 | 03:26:18 | 00:00:00 | |
| DB0DAN | 2026-09-01 01:16:25 | 52.62792 | 11.40204 | 113° | 69km/h | 5953m | -4.9m/s | -19.8°C | 27.5% | 481.92hPa | 2.5V | 00:00:00 | 00:00:00 | 00:00:00 | |
| DF8AY | 2026-09-01 01:16:23 | 52.62807 | 11.40148 | 114° | 73km/h | 5964m | -5.2m/s | -19.9°C | 31.7% | 481.2hPa | 2.6V | 02:31:17 | 03:26:20 | 00:00:00 | |
| DD8BA-10 | 2026-09-01 01:16:23 | 52.62807 | 11.40148 | 114° | 73km/h | 5964m | -5.1m/s | -19.8°C | 28.6% | 481.2hPa | 2.6V | 02:30:00 | 00:00:00 | 00:00:00 | |
| EDDB2-11 | 2026-09-01 01:16:22 | 52.62822 | 11.40092 | 113° | 73km/h | 5974m | -4.9m/s | -20.0°C | 26.8% | 480.5hPa | 2.6V | 00:00:00 | 00:00:00 | 00:00:00 | |
| DL1XH-15 | 2026-09-01 01:16:21 | 52.62859 | 11.39950 | 113° | 73km/h | 6000m | -5.2m/s | -20.2°C | 26.5% | 478.9hPa | 2.6V | 02:30:46 | 03:26:13 | 00:00:00 | |
| DO2SHX-10 | 2026-09-01 01:16:21 | 52.62821 | 11.40092 | 114° | 73km/h | 5974m | -4.8m/s | -19.9°C | 28.2% | 480.5hPa | 2.6V | 02:30:00 | 03:26:18 | 00:00:00 | |
| DB0NH | 2026-09-01 01:16:20 | 52.62829 | 11.40063 | 114° | 75km/h | 5980m | -4.9m/s | -20.0°C | 27.4% | 480.2hPa | 2.5V | 00:00:00 | 03:26:17 | 00:00:00 | |
| DM0DOS-11 | 2026-09-01 01:16:19 | 52.62844 | 11.40007 | 113° | 75km/h | 5990m | -5.1m/s | -20.1°C | 26.7% | 479.6hPa | 2.5V | 02:30:44 | 03:26:15 | 00:00:00 | |
| BIOWL1-15 | 2026-09-01 01:16:19 | 52.62836 | 11.40035 | 113° | 75km/h | 5984m | -5m/s | -20°C | 30% | 479.9hPa | 2.5V | 02:31:17 | 03:26:16 | 00:00:00 | |
| DL1XH-west | 2026-09-01 01:16:15 | 52.62866 | 11.39922 | 114° | 73km/h | 6006m | -5.2m/s | -20.2°C | 29.2% | 478.6hPa | 2.6V | 02:31:17 | 03:26:12 | 00:00:00 | |
| DL1XH1-15 | 2026-09-01 01:16:15 | 52.62897 | 11.39810 | 113° | 73km/h | 6027m | -5m/s | -20.3°C | 25% | 477.2hPa | 2.6V | 02:30:51 | 03:26:08 | 00:00:00 | |
| DF8AY | 2026-09-01 01:16:12 | 52.62889 | 11.39838 | 114° | 73km/h | 6021m | -5.1m/s | -20.3°C | 28.1% | 477.4hPa | 2.6V | 02:31:17 | 03:26:09 | 00:00:00 | |
| DM0DOS-11 | 2026-09-01 01:16:09 | 52.62919 | 11.39726 | 113° | 73km/h | 6042m | -5m/s | -20.5°C | 24.4% | 476.2hPa | 2.5V | 02:30:54 | 03:26:05 | 00:00:00 | |
| AA1-15 | 2026-09-01 01:16:08 | 52.62919 | 11.39726 | 114° | 73km/h | 6043m | -5m/s | -20.5°C | 27.5% | 476.2hPa | 2.5V | 02:31:17 | 03:26:05 | 00:00:00 | |
| DL1XH-15 | 2026-09-01 01:16:07 | 52.62934 | 11.39670 | 113° | 75km/h | 6053m | -4.8m/s | -20.6°C | 24.4% | 475.5hPa | 2.5V | 02:30:56 | 03:26:03 | 00:00:00 | |
| DO2SHX-10 | 2026-09-01 01:16:06 | 52.62934 | 11.39670 | 114° | 73km/h | 6053m | -4.8m/s | -20.5°C | 24.4% | 475.5hPa | 2.5V | 00:00:00 | 03:26:03 | 00:00:00 | |
| DL1XH1-15 | 2026-09-01 01:16:05 | 52.62972 | 11.39529 | 114° | 73km/h | 6079m | -5m/s | -20.8°C | 24.3% | 473.9hPa | 2.5V | 02:31:01 | 03:25:58 | 00:00:00 | |
| DL1XH-west | 2026-09-01 01:16:04 | 52.62949 | 11.39614 | 114° | 73km/h | 6063m | -4.9m/s | -20.7°C | 27.6% | 474.9hPa | 2.6V | 02:31:17 | 03:26:01 | 00:00:00 | |
| DD8BA-10 | 2026-09-01 01:16:03 | 52.62957 | 11.39586 | 114° | 75km/h | 6069m | -4.8m/s | -20.7°C | 24.5% | 474.4hPa | 2.6V | 00:00:00 | 00:00:00 | 00:00:00 | |
| DL1XH-15 | 2026-09-01 01:16:01 | 52.63010 | 11.39388 | 114° | 75km/h | 6105m | -4.9m/s | -21°C | 24.3% | 472.2hPa | 2.6V | 02:31:06 | 03:25:53 | 00:00:00 | |
| DF8AY | 2026-09-01 01:16:01 | 52.62972 | 11.39529 | 114° | 75km/h | 6079m | -5m/s | -20.8°C | 27.5% | 473.9hPa | 2.5V | 02:31:17 | 03:25:58 | 00:00:00 | |
| DL4XJ-10 | 2026-09-01 01:16:01 | 52.62972 | 11.39529 | 115° | 75km/h | 6079m | -5.0m/s | -20.3°C | 0% | 0hPa | 2.6V | 00:00:00 | 00:00:00 | 00:00:00 | |
| DO2SHX-10 | 2026-09-01 01:16:00 | 52.62980 | 11.39501 | 115° | 75km/h | 6084m | -5.2m/s | -20.8°C | 24.5% | 473.4hPa | 2.6V | 00:00:00 | 03:25:57 | 00:00:00 | |
| DM0DOS-11 | 2026-09-01 01:15:59 | 52.62995 | 11.39445 | 114° | 75km/h | 6095m | -5m/s | -20.9°C | 24.6% | 472.8hPa | 2.6V | 02:31:04 | 03:25:55 | 00:00:00 | |
| AA1-15 | 2026-09-01 01:15:58 | 52.62995 | 11.39445 | 114° | 75km/h | 6095m | -5.1m/s | -21°C | 27.8% | 472.8hPa | 2.6V | 02:31:17 | 03:25:55 | 00:00:00 | |
| DO2SHX-10 | 2026-09-01 01:15:57 | 52.63003 | 11.39417 | 115° | 75km/h | 6100m | -5.1m/s | -21.0°C | 24.5% | 472.5hPa | 2.6V | 00:00:00 | 03:25:54 | 00:00:00 | |
| DL1XH1-15 | 2026-09-01 01:15:55 | 52.63048 | 11.39246 | 112° | 75km/h | 6132m | -5m/s | -21.2°C | 23.4% | 470.5hPa | 2.6V | 02:31:11 | 03:25:48 | 00:00:00 | |
| DL1XH-west | 2026-09-01 01:15:54 | 52.63026 | 11.39331 | 114° | 75km/h | 6116m | -4.9m/s | -21.1°C | 26.9% | 471.5hPa | 2.5V | 02:31:17 | 03:25:51 | 00:00:00 | |
| DF8AY | 2026-09-01 01:15:51 | 52.63048 | 11.39246 | 113° | 75km/h | 6132m | -5m/s | -21.2°C | 26.5% | 470.5hPa | 2.6V | 02:31:17 | 03:25:48 | 00:00:00 | |
| EDDB2-11 | 2026-09-01 01:15:51 | 52.63056 | 11.39218 | 112° | 73km/h | 6137m | -4.9m/s | -21.3°C | 22.2% | 470.1hPa | 2.6V | 00:00:00 | 00:00:00 | 00:00:00 | |
| DB0NH | 2026-09-01 01:15:50 | 52.63056 | 11.39218 | 113° | 75km/h | 6137m | -4.9m/s | -21.2°C | 23.5% | 470.0hPa | 2.6V | 02:31:00 | 03:25:47 | 00:00:00 | |
| DM0DOS-11 | 2026-09-01 01:15:49 | 52.63070 | 11.39161 | 112° | 75km/h | 6148m | -5.2m/s | -21.4°C | 23.6% | 469.4hPa | 2.6V | 02:31:14 | 03:25:45 | 00:00:00 | |
| BIOWL1-15 | 2026-09-01 01:15:48 | 52.63070 | 11.39161 | 112° | 75km/h | 6148m | -5.2m/s | -21.4°C | 26.7% | 469.4hPa | 2.6V | 02:31:17 | 03:25:45 | 00:00:00 | |
| DL1XH-15 | 2026-09-01 01:15:47 | 52.63084 | 11.39104 | 112° | 75km/h | 6158m | -5.3m/s | -21.5°C | 23.7% | 468.8hPa | 2.5V | 02:31:16 | 03:25:43 | 00:00:00 | |
| AA1-15 | 2026-09-01 01:15:47 | 52.63077 | 11.39132 | 112° | 75km/h | 6153m | -5.2m/s | -21.4°C | 26.8% | 469hPa | 2.5V | 02:31:17 | 03:25:44 | 00:00:00 | |
| SONCRA | 2026-09-01 01:15:46 | 52.63091 | 11.39075 | 112° | 73km/h | 6164m | -5.2m/s | -21.5°C | 22.4% | 468.4hPa | 2.6V | 00:00:00 | 00:00:00 | 00:00:00 | |
| DL1XH-west | 2026-09-01 01:15:43 | 52.63106 | 11.39019 | 112° | 73km/h | 6175m | -5.2m/s | -21.6°C | 26.3% | 467.7hPa | 2.6V | 02:32:08 | 03:25:40 | 00:00:00 | |
| DF8AY | 2026-09-01 01:15:41 | 52.63120 | 11.38961 | 113° | 75km/h | 6186m | -5.1m/s | -21.7°C | 26.3% | 467hPa | 2.6V | 02:32:08 | 03:25:38 | 00:00:00 | |
| DL1XH-15 | 2026-09-01 01:15:41 | 52.63157 | 11.38817 | 112° | 77km/h | 6212m | -5m/s | -22°C | 22.3% | 465.4hPa | 2.6V | 02:31:26 | 03:25:33 | 00:00:00 | |
| DB0DAN | 2026-09-01 01:15:40 | 52.63127 | 11.38933 | 113° | 71km/h | 6191m | -5.1m/s | -21.8°C | 21.7% | 466.68hPa | 2.5V | 00:00:00 | 00:00:00 | 00:00:00 | |
| DM0DOS-11 | 2026-09-01 01:15:39 | 52.63142 | 11.38875 | 113° | 77km/h | 6202m | -5.2m/s | -21.9°C | 22.9% | 466.1hPa | 2.5V | 02:31:24 | 03:25:35 | 00:00:00 | |
| BIOWL1-15 | 2026-09-01 01:15:37 | 52.63149 | 11.38846 | 112° | 77km/h | 6207m | -5.2m/s | -21.9°C | 25.4% | 465.7hPa | 2.6V | 02:32:08 | 03:25:34 | 00:00:00 | |
| AA1-15 | 2026-09-01 01:15:36 | 52.63157 | 11.38817 | 112° | 77km/h | 6212m | -5m/s | -22°C | 25.3% | 465.4hPa | 2.6V | 02:32:08 | 03:25:33 | 00:00:00 | |
| DF8AY | 2026-09-01 01:15:32 | 52.63193 | 11.38669 | 112° | 77km/h | 6239m | -5.1m/s | -22.1°C | 26.4% | 463.5hPa | 2.5V | 02:32:08 | 03:25:28 | 00:00:00 | |
| DO2SHX-10 | 2026-09-01 01:15:30 | 52.63200 | 11.38640 | 112° | 77km/h | 6244m | -5.1m/s | -22.1°C | 23.4% | 463.3hPa | 2.6V | 00:00:00 | 03:25:27 | 00:00:00 | |
| DM0DOS-11 | 2026-09-01 01:15:29 | 52.63214 | 11.38581 | 111° | 75km/h | 6254m | -5.1m/s | -22.2°C | 23.4% | 462.6hPa | 2.6V | 02:31:34 | 03:25:25 | 00:00:00 | |
| DL1XH-15 | 2026-09-01 01:15:27 | 52.63229 | 11.38522 | 111° | 75km/h | 6265m | -5m/s | -22.4°C | 23.4% | 462hPa | 2.5V | 02:31:36 | 03:25:23 | 00:00:00 | |
| BIOWL1-15 | 2026-09-01 01:15:27 | 52.63221 | 11.38552 | 111° | 75km/h | 6260m | -5.3m/s | -22.3°C | 26.5% | 462.4hPa | 2.6V | 02:32:08 | 03:25:24 | 00:00:00 | |
| AA1-15 | 2026-09-01 01:15:25 | 52.63235 | 11.38493 | 111° | 77km/h | 6271m | -5.3m/s | -22.4°C | 26.5% | 461.7hPa | 2.5V | 02:32:08 | 03:25:22 | 00:00:00 | |
| DB0DAN | 2026-09-01 01:15:25 | 52.63235 | 11.38493 | 111° | 73km/h | 6271m | -5.3m/s | -22.4°C | 22.1% | 461.67hPa | 2.5V | 00:00:00 | 00:00:00 | 00:00:00 | |
| S3001 | 2026-09-01 01:15:25 | 52.63242 | 11.38464 | 111° | 75km/h | 6276m | -5.2m/s | -22.5°C | 22.3% | 461.3hPa | 2.6V | 00:00:00 | 00:00:00 | 00:00:00 | |
| DL1XH1-15 | 2026-09-01 01:15:25 | 52.63263 | 11.38375 | 111° | 77km/h | 6292m | -5.3m/s | -22.5°C | 23.6% | 460.3hPa | 2.6V | 02:31:41 | 03:25:18 | 00:00:00 | |
| DO2SHX-10 | 2026-09-01 01:15:24 | 52.63242 | 11.38464 | 112° | 77km/h | 6276m | -5.1m/s | -22.4°C | 23.7% | 461.2hPa | 2.6V | 00:00:00 | 03:25:21 | 00:00:00 | |
| DL1XH-15 | 2026-09-01 01:15:21 | 52.63298 | 11.38229 | 111° | 75km/h | 6320m | -5.2m/s | -22.7°C | 22.6% | 458.5hPa | 2.6V | 02:31:46 | 03:25:13 | 00:00:00 | |
| DL1XH-west | 2026-09-01 01:15:21 | 52.63263 | 11.38375 | 111° | 77km/h | 6293m | -5.3m/s | -22.5°C | 26.8% | 460.3hPa | 2.6V | 02:32:08 | 03:25:18 | 00:00:00 | |
| DF8AY | 2026-09-01 01:15:20 | 52.63305 | 11.38200 | 111° | 75km/h | 6326m | -5.1m/s | -22.8°C | 25.3% | 458.1hPa | 2.6V | 02:32:08 | 03:25:12 | 00:00:00 | |
| DB0NH | 2026-09-01 01:15:20 | 52.63270 | 11.38345 | 112° | 75km/h | 6298m | -5.2m/s | -22.5°C | 23.1% | 459.9hPa | 2.5V | 00:00:00 | 03:25:17 | 00:00:00 | |
| DM0DOS-11 | 2026-09-01 01:15:19 | 52.63284 | 11.38287 | 111° | 75km/h | 6309m | -5.5m/s | -22.6°C | 22.9% | 459.2hPa | 2.5V | 02:31:44 | 03:25:15 | 00:00:00 | |
| BIOWL1-15 | 2026-09-01 01:15:17 | 52.63319 | 11.38141 | 112° | 77km/h | 6336m | -5m/s | -22.9°C | 24.7% | 457.5hPa | 2.6V | 02:32:08 | 03:25:10 | 00:00:00 | |
| DL1XH1-15 | 2026-09-01 01:15:16 | 52.63334 | 11.38083 | 111° | 75km/h | 6347m | -5.5m/s | -23°C | 21.7% | 456.8hPa | 2.5V | 02:31:51 | 03:25:08 | 00:00:00 | |
| AA1-15 | 2026-09-01 01:15:14 | 52.63312 | 11.38171 | 112° | 75km/h | 6331m | -5.1m/s | -22.8°C | 25.1% | 457.8hPa | 2.6V | 02:32:08 | 03:25:11 | 00:00:00 | |
| DL1XH-west | 2026-09-01 01:15:11 | 52.63333 | 11.38083 | 111° | 75km/h | 6347m | -5.5m/s | -23°C | 24.7% | 456.8hPa | 2.5V | 02:32:08 | 03:25:08 | 00:00:00 | |
| DM0DOS-11 | 2026-09-01 01:15:09 | 52.63354 | 11.37995 | 111° | 75km/h | 6364m | -5.2m/s | -23.1°C | 21.7% | 455.8hPa | 2.6V | 02:31:54 | 03:25:05 | 00:00:00 | |
| DF8AY | 2026-09-01 01:15:06 | 52.63368 | 11.37937 | 112° | 75km/h | 6375m | -5.4m/s | -23.1°C | 24.3% | 455.1hPa | 2.6V | 02:32:08 | 03:25:03 | 00:00:00 | |
| AA1-15 | 2026-09-01 01:15:04 | 52.63382 | 11.37880 | 112° | 75km/h | 6386m | -5.5m/s | -23.2°C | 24% | 454.4hPa | 2.5V | 02:32:08 | 03:25:01 | 00:00:00 | |
| DF7ER-10 | 2026-09-01 01:15:03 | 52.63382 | 11.37880 | 113° | 75km/h | 6386m | -5.5m/s | -23.2°C | 19.6% | 454.4hPa | 2.6V | 02:32:00 | 00:00:00 | 00:00:00 | |
| DL1XH-15 | 2026-09-01 01:15:01 | 52.63438 | 11.37651 | 112° | 75km/h | 6433m | -5.6m/s | -23.6°C | 21% | 451.6hPa | 2.6V | 02:32:06 | 03:24:53 | 00:00:00 | |
| DL1XH-west | 2026-09-01 01:15:01 | 52.63403 | 11.37794 | 112° | 75km/h | 6404m | -5.7m/s | -23.3°C | 23.9% | 453.4hPa | 2.6V | 02:32:08 | 03:24:58 | 00:00:00 | |
| DF8AY | 2026-09-01 01:14:56 | 52.63438 | 11.37651 | 112° | 75km/h | 6433m | -5.6m/s | -23.6°C | 24.1% | 451.6hPa | 2.6V | 02:32:08 | 03:24:53 | 00:00:00 | |
| DB0DAN | 2026-09-01 01:14:55 | 52.63445 | 11.37623 | 112° | 71km/h | 6439m | -5.7m/s | -23.7°C | 19.6% | 451.17hPa | 2.6V | 00:00:00 | 00:00:00 | 00:00:00 | |
| AA1-15 | 2026-09-01 01:14:53 | 52.63460 | 11.37565 | 113° | 75km/h | 6451m | -5.6m/s | -23.7°C | 23.7% | 450.4hPa | 2.5V | 02:33:50 | 03:24:50 | 00:00:00 | |
| DL1XH-west | 2026-09-01 01:14:50 | 52.63482 | 11.37480 | 113° | 75km/h | 6468m | -5.3m/s | -23.9°C | 23.7% | 449.3hPa | 2.6V | 02:32:59 | 03:24:47 | 00:00:00 | |
| DB0NH | 2026-09-01 01:14:50 | 52.63482 | 11.37480 | 114° | 75km/h | 6468m | -5.2m/s | -23.8°C | 20.8% | 449.3hPa | 2.6V | 00:00:00 | 03:24:47 | 00:00:00 | |
| DM0DOS-11 | 2026-09-01 01:14:49 | 52.63496 | 11.37424 | 112° | 73km/h | 6479m | -5.4m/s | -23.9°C | 20.4% | 448.7hPa | 2.6V | 02:32:14 | 03:24:45 | 00:00:00 | |
| EDDB2-11 | 2026-09-01 01:14:49 | 52.63497 | 11.37424 | 112° | 73km/h | 6479m | -5.4m/s | -24.0°C | 19.1% | 448.7hPa | 2.5V | 00:00:00 | 00:00:00 | 00:00:00 | |
| BIOWL1-15 | 2026-09-01 01:14:45 | 52.63548 | 11.37226 | 113° | 75km/h | 6519m | -5.7m/s | -24.2°C | 23.6% | 446.2hPa | 2.5V | 02:32:59 | 03:24:38 | 00:00:00 | |
| DF8AY | 2026-09-01 01:14:45 | 52.63518 | 11.37339 | 113° | 73km/h | 6497m | -5.6m/s | -24.1°C | 23.5% | 447.6hPa | 2.5V | 02:32:59 | 03:24:42 | 00:00:00 | |
| DL1XH1-15 | 2026-09-01 01:14:45 | 52.63548 | 11.37226 | 112° | 73km/h | 6519m | -5.7m/s | -24.2°C | 20.6% | 446.2hPa | 2.5V | 02:32:21 | 03:24:38 | 00:00:00 | |
| AA1-15 | 2026-09-01 01:14:42 | 52.63540 | 11.37254 | 114° | 73km/h | 6514m | -5.6m/s | -24.2°C | 24% | 446.5hPa | 2.6V | 02:33:50 | 03:24:39 | 00:00:00 | |
| DO2SHX-10 | 2026-09-01 01:14:42 | 52.63540 | 11.37254 | 114° | 73km/h | 6514m | -5.5m/s | -24.1°C | 20.9% | 446.5hPa | 2.6V | 02:32:00 | 03:24:39 | 00:00:00 | |
| DL1XH-15 | 2026-09-01 01:14:41 | 52.63584 | 11.37084 | 112° | 75km/h | 6548m | -5.6m/s | -24.5°C | 21% | 444.5hPa | 2.5V | 02:32:26 | 03:24:33 | 00:00:00 | |
| DF8AY | 2026-09-01 01:14:40 | 52.63591 | 11.37055 | 113° | 75km/h | 6554m | -5.6m/s | -24.6°C | 24.1% | 444.1hPa | 2.5V | 02:32:59 | 03:24:32 | 00:00:00 | |
| DB0DAN | 2026-09-01 01:14:40 | 52.63555 | 11.37198 | 113° | 71km/h | 6525m | -5.5m/s | -24.3°C | 19.4% | 445.85hPa | 2.5V | 00:00:00 | 00:00:00 | 00:00:00 | |
| DM0DOS-11 | 2026-09-01 01:14:39 | 52.63569 | 11.37141 | 112° | 75km/h | 6537m | -5.6m/s | -24.4°C | 20.9% | 445.2hPa | 2.6V | 02:32:24 | 03:24:35 | 00:00:00 | |
| DL1XH-west | 2026-09-01 01:14:39 | 52.63562 | 11.37169 | 113° | 75km/h | 6531m | -5.6m/s | -24.3°C | 24% | 445.5hPa | 2.6V | 02:32:59 | 03:24:36 | 00:00:00 | |
| DO2SHX-10 | 2026-09-01 01:14:39 | 52.63562 | 11.37169 | 113° | 75km/h | 6531m | -5.6m/s | -24.3°C | 20.8% | 445.5hPa | 2.6V | 00:00:00 | 03:24:36 | 00:00:00 | |
| DD8BA-10 | 2026-09-01 01:14:38 | 52.63569 | 11.37141 | 113° | 75km/h | 6537m | -5.6m/s | -24.3°C | 20.9% | 445.1hPa | 2.6V | 00:00:00 | 00:00:00 | 00:00:00 | |
| DO2SHX-10 | 2026-09-01 01:14:36 | 52.63584 | 11.37084 | 113° | 75km/h | 6548m | -5.6m/s | -24.4°C | 21.0% | 444.4hPa | 2.6V | 00:00:00 | 03:24:33 | 00:00:00 | |
| DL1XH1-15 | 2026-09-01 01:14:35 | 52.63620 | 11.36941 | 112° | 75km/h | 6577m | -5.3m/s | -24.8°C | 21.6% | 442.7hPa | 2.6V | 02:32:31 | 03:24:28 | 00:00:00 | |
| AA1-15 | 2026-09-01 01:14:31 | 52.63620 | 11.36941 | 112° | 75km/h | 6577m | -5.4m/s | -24.8°C | 24.8% | 442.7hPa | 2.6V | 02:33:50 | 03:24:28 | 00:00:00 | |
| BIOWL1-15 | 2026-09-01 01:14:30 | 52.63627 | 11.36912 | 112° | 75km/h | 6582m | -5.3m/s | -24.8°C | 24.9% | 442.4hPa | 2.6V | 02:32:59 | 03:24:27 | 00:00:00 | |
| DO2SHX-10 | 2026-09-01 01:14:30 | 52.63627 | 11.36912 | 113° | 75km/h | 6583m | -5.3m/s | -24.8°C | 21.7% | 442.3hPa | 2.5V | 00:00:00 | 03:24:27 | 00:00:00 | |
| DM0DOS-11 | 2026-09-01 01:14:29 | 52.63642 | 11.36855 | 112° | 75km/h | 6594m | -5.8m/s | -24.9°C | 21.7% | 441.7hPa | 2.5V | 02:32:34 | 03:24:25 | 00:00:00 | |
| DL1XH-west | 2026-09-01 01:14:29 | 52.63634 | 11.36884 | 113° | 75km/h | 6588m | -5.4m/s | -24.9°C | 24.9% | 442hPa | 2.5V | 02:32:59 | 03:24:26 | 00:00:00 | |
| DD8BA-10 | 2026-09-01 01:14:28 | 52.63642 | 11.36855 | 113° | 75km/h | 6594m | -5.7m/s | -24.9°C | 21.7% | 441.6hPa | 2.6V | 00:00:00 | 00:00:00 | 00:00:00 | |
| DO2SHX-10 | 2026-09-01 01:14:27 | 52.63649 | 11.36826 | 113° | 75km/h | 6600m | -5.6m/s | -24.9°C | 22.1% | 441.2hPa | 2.6V | 00:00:00 | 03:24:24 | 00:00:00 | |
| DF8AY-15 | 2026-09-01 01:14:26 | 52.63656 | 11.36797 | 114° | 75km/h | 6606m | -5.6m/s | -25.0°C | 22.3% | 440.9hPa | 2.6V | 02:32:00 | 03:24:23 | 00:00:00 | |
| DL1XH1-15 | 2026-09-01 01:14:25 | 52.63695 | 11.36656 | 113° | 75km/h | 6635m | -5.4m/s | -25.3°C | 22.8% | 439.2hPa | 2.6V | 02:32:41 | 03:24:18 | 00:00:00 | |
| DF8AY | 2026-09-01 01:14:24 | 52.63672 | 11.36741 | 114° | 75km/h | 6618m | -5.8m/s | -25.1°C | 25.9% | 440.3hPa | 2.6V | 02:32:59 | 03:24:21 | 00:00:00 | |
| AA1-15 | 2026-09-01 01:14:21 | 52.63695 | 11.36656 | 114° | 75km/h | 6635m | -5.4m/s | -25.3°C | 26.1% | 439.2hPa | 2.6V | 02:33:50 | 03:24:18 | 00:00:00 | |
| DL1XH-15 | 2026-09-01 01:14:21 | 52.63733 | 11.36514 | 113° | 73km/h | 6664m | -5.6m/s | -25.6°C | 22.9% | 437.4hPa | 2.5V | 02:32:46 | 03:24:13 | 00:00:00 | |
| BIOWL1-15 | 2026-09-01 01:14:19 | 52.63725 | 11.36543 | 114° | 75km/h | 6658m | -5.7m/s | -25.5°C | 26.1% | 437.8hPa | 2.5V | 02:32:59 | 03:24:14 | 00:00:00 | |
| DM0DOS-11 | 2026-09-01 01:14:19 | 52.63718 | 11.36571 | 113° | 75km/h | 6652m | -5.7m/s | -25.4°C | 23.2% | 438.1hPa | 2.5V | 02:32:44 | 03:24:15 | 00:00:00 | |
| DL1XH-west | 2026-09-01 01:14:18 | 52.63718 | 11.36571 | 114° | 75km/h | 6652m | -5.7m/s | -25.5°C | 26.4% | 438.1hPa | 2.5V | 02:32:59 | 03:24:15 | 00:00:00 | |
| DF8AY | 2026-09-01 01:14:14 | 52.63748 | 11.36458 | 114° | 75km/h | 6675m | -5.7m/s | -25.7°C | 26.1% | 436.7hPa | 2.6V | 02:32:59 | 03:24:11 | 00:00:00 | |
| AA1-15 | 2026-09-01 01:14:10 | 52.63778 | 11.36346 | 114° | 75km/h | 6698m | -5.8m/s | -25.8°C | 26.1% | 435.3hPa | 2.6V | 02:33:50 | 03:24:07 | 00:00:00 | |
| DO2SHX-10 | 2026-09-01 01:14:09 | 52.63786 | 11.36318 | 115° | 75km/h | 6704m | -5.6m/s | -25.8°C | 22.9% | 435.0hPa | 2.5V | 00:00:00 | 03:24:06 | 00:00:00 | |
| DD8BA-10 | 2026-09-01 01:14:08 | 52.63794 | 11.36289 | 115° | 77km/h | 6710m | -5.7m/s | -25.9°C | 22.8% | 434.6hPa | 2.5V | 00:00:00 | 00:00:00 | 00:00:00 | |
| DL1XH-15 | 2026-09-01 01:14:07 | 52.63810 | 11.36233 | 115° | 75km/h | 6722m | -5.8m/s | -26°C | 22.9% | 434hPa | 2.5V | 02:32:56 | 03:24:03 | 00:00:00 | |
| DL1XH-west | 2026-09-01 01:14:07 | 52.63802 | 11.36261 | 115° | 75km/h | 6716m | -5.7m/s | -26°C | 26.1% | 434.2hPa | 2.5V | 02:32:59 | 03:24:04 | 00:00:00 | |
| BIOWL1-15 | 2026-09-01 01:14:06 | 52.63826 | 11.36177 | 115° | 75km/h | 6733m | -5.7m/s | -26.2°C | 26.5% | 433.2hPa | 2.6V | 02:32:59 | 03:24:01 | 00:00:00 | |
| DF8AY | 2026-09-01 01:14:03 | 52.63835 | 11.36149 | 115° | 75km/h | 6739m | -5.7m/s | -26.2°C | 26.5% | 432.9hPa | 2.6V | 02:32:59 | 03:24:00 | 00:00:00 | |
| DO2SHX-10 | 2026-09-01 01:14:03 | 52.63834 | 11.36149 | 116° | 75km/h | 6739m | -5.6m/s | -26.2°C | 23.2% | 432.9hPa | 2.6V | 00:00:00 | 03:24:00 | 00:00:00 | |
| DM0DOS-11 | 2026-09-01 01:14:01 | 52.63874 | 11.36008 | 114° | 75km/h | 6768m | -5.8m/s | -26.4°C | 23.2% | 431.1hPa | 2.6V | 02:33:04 | 03:23:55 | 00:00:00 | |
| AA1-15 | 2026-09-01 01:13:59 | 52.63866 | 11.36036 | 114° | 75km/h | 6763m | -5.9m/s | -26.4°C | 26.6% | 431.4hPa | 2.6V | 02:33:50 | 03:23:56 | 00:00:00 | |
| DL1XH-west | 2026-09-01 01:13:57 | 52.63882 | 11.35979 | 114° | 75km/h | 6774m | -5.7m/s | -26.5°C | 26.4% | 430.8hPa | 2.6V | 02:33:50 | 03:23:54 | 00:00:00 | |
| SMARD9-10 | 2026-09-01 01:13:57 | 52.63882 | 11.35979 | 115° | 75km/h | 6774m | -5.7m/s | -26.5°C | 21.5% | 430.8hPa | 2.6V | 00:00:00 | 00:00:00 | 00:00:00 | |
| DL1XH1-15 | 2026-09-01 01:13:55 | 52.63927 | 11.35806 | 113° | 77km/h | 6810m | -5.8m/s | -26.7°C | 21.7% | 428.6hPa | 2.6V | 02:33:11 | 03:23:48 | 00:00:00 | |
| BIOWL1-15 | 2026-09-01 01:13:55 | 52.63897 | 11.35922 | 114° | 75km/h | 6786m | -5.7m/s | -26.5°C | 25.2% | 430.1hPa | 2.5V | 02:33:50 | 03:23:52 | 00:00:00 | |
| DF8AY | 2026-09-01 01:13:52 | 52.63920 | 11.35836 | 114° | 77km/h | 6803m | -5.7m/s | -26.7°C | 25.2% | 429.1hPa | 2.6V | 02:33:50 | 03:23:49 | 00:00:00 | |
| BIOWL1-15 | 2026-09-01 01:13:49 | 52.63973 | 11.35630 | 113° | 77km/h | 6845m | -6m/s | -27°C | 23.9% | 426.6hPa | 2.5V | 02:33:50 | 03:23:42 | 00:00:00 | |
| AA1-15 | 2026-09-01 01:13:48 | 52.63950 | 11.35718 | 113° | 77km/h | 6828m | -5.7m/s | -26.8°C | 24.6% | 427.6hPa | 2.6V | 02:33:50 | 03:23:45 | 00:00:00 | |
| DL1XH-west | 2026-09-01 01:13:47 | 52.63958 | 11.35689 | 113° | 77km/h | 6833m | -5.7m/s | -26.9°C | 24.5% | 427.3hPa | 2.6V | 02:33:50 | 03:23:44 | 00:00:00 | |
| EDDB2-11 | 2026-09-01 01:13:47 | 52.63965 | 11.35659 | 112° | 77km/h | 6839m | -5.9m/s | -26.9°C | 19.6% | 426.9hPa | 2.6V | 00:00:00 | 00:00:00 | 00:00:00 | |
| DF8AY | 2026-09-01 01:13:41 | 52.64009 | 11.35483 | 112° | 77km/h | 6875m | -5.9m/s | -27.1°C | 23.6% | 424.8hPa | 2.6V | 02:33:50 | 03:23:37 | 00:00:00 | |
| DL1XH-15 | 2026-09-01 01:13:41 | 52.64036 | 11.35364 | 110° | 77km/h | 6900m | -6m/s | -27.3°C | 20.5% | 423.5hPa | 2.6V | 02:33:26 | 03:23:33 | 00:00:00 | |
| DM0DOS-11 | 2026-09-01 01:13:41 | 52.64022 | 11.35424 | 110° | 77km/h | 6888m | -5.8m/s | -27.2°C | 20.4% | 424.1hPa | 2.5V | 02:33:24 | 03:23:35 | 00:00:00 | |
| AA1-15 | 2026-09-01 01:13:38 | 52.64022 | 11.35424 | 111° | 77km/h | 6888m | -5.8m/s | -27.2°C | 23.5% | 424.1hPa | 2.5V | 02:33:50 | 03:23:35 | 00:00:00 | |
| DL1XH-west | 2026-09-01 01:13:36 | 52.64036 | 11.35364 | 111° | 77km/h | 6900m | -6m/s | -27.3°C | 23.6% | 423.5hPa | 2.6V | 02:33:50 | 03:23:33 | 00:00:00 | |
| BIOWL1-15 | 2026-09-01 01:13:34 | 52.64065 | 11.35243 | 112° | 78km/h | 6924m | -6m/s | -27.5°C | 23.5% | 422.1hPa | 2.5V | 02:33:50 | 03:23:29 | 00:00:00 | |
| DO2SHX-10 | 2026-09-01 01:13:33 | 52.64058 | 11.35273 | 112° | 78km/h | 6918m | -5.8m/s | -27.4°C | 20.5% | 422.2hPa | 2.5V | 00:00:00 | 03:23:30 | 00:00:00 | |
| DM0DOS-11 | 2026-09-01 01:13:31 | 52.64094 | 11.35121 | 111° | 78km/h | 6949m | -6m/s | -27.6°C | 19.9% | 420.5hPa | 2.5V | 02:33:34 | 03:23:25 | 00:00:00 | |
| DF8AY | 2026-09-01 01:13:30 | 52.64080 | 11.35182 | 112° | 78km/h | 6936m | -5.9m/s | -27.6°C | 23.3% | 421.3hPa | 2.6V | 02:33:50 | 03:23:27 | 00:00:00 | |
| AA1-15 | 2026-09-01 01:13:27 | 52.64101 | 11.35091 | 111° | 77km/h | 6954m | -6m/s | -27.7°C | 22.8% | 420.2hPa | 2.5V | 02:33:50 | 03:23:24 | 00:00:00 | |
| DL1XH-15 | 2026-09-01 01:13:27 | 52.64108 | 11.35061 | 110° | 77km/h | 6960m | -5.9m/s | -27.7°C | 19.7% | 419.9hPa | 2.5V | 02:33:36 | 03:23:23 | 00:00:00 | |
| BIOWL1-15 | 2026-09-01 01:13:26 | 52.64121 | 11.35001 | 110° | 77km/h | 6972m | -6.1m/s | -27.8°C | 21.6% | 419.1hPa | 2.6V | 02:33:50 | 03:23:21 | 00:00:00 | |
| DL1XH-west | 2026-09-01 01:13:25 | 52.64114 | 11.35031 | 110° | 77km/h | 6966m | -6m/s | -27.8°C | 22.1% | 419.4hPa | 2.6V | 02:33:50 | 03:23:22 | 00:00:00 | |
| DB0DAN | 2026-09-01 01:13:25 | 52.64114 | 11.35031 | 110° | 73km/h | 6966m | -6m/s | -27.8°C | 17.7% | 419.43hPa | 2.6V | 00:00:00 | 00:00:00 | 00:00:00 | |
| DL1XH1-15 | 2026-09-01 01:13:25 | 52.64140 | 11.34912 | 109° | 75km/h | 6990m | -6m/s | -27.9°C | 17.2% | 418.1hPa | 2.5V | 02:33:41 | 03:23:18 | 00:00:00 | |
| DO2SHX-10 | 2026-09-01 01:13:24 | 52.64121 | 11.35001 | 110° | 77km/h | 6972m | -6.0m/s | -27.8°C | 18.8% | 419.0hPa | 2.6V | 00:00:00 | 03:23:21 | 00:00:00 | |
| DL1XH-15 | 2026-09-01 01:13:21 | 52.64171 | 11.34765 | 108° | 75km/h | 7021m | -5.8m/s | -28°C | 17% | 416.3hPa | 2.6V | 02:33:46 | 03:23:13 | 00:00:00 | |
| DM0DOS-11 | 2026-09-01 01:13:21 | 52.64159 | 11.34823 | 109° | 75km/h | 7009m | -6.1m/s | -28°C | 17.2% | 417hPa | 2.6V | 02:33:44 | 03:23:15 | 00:00:00 | |
| DF8AY | 2026-09-01 01:13:19 | 52.64152 | 11.34853 | 109° | 75km/h | 7002m | -5.8m/s | -27.9°C | 20% | 417.3hPa | 2.5V | 02:33:50 | 03:23:16 | 00:00:00 | |
| AA1-15 | 2026-09-01 01:13:16 | 52.64171 | 11.34765 | 109° | 75km/h | 7021m | -5.8m/s | -28°C | 19.7% | 416.3hPa | 2.6V | 02:33:50 | 03:23:13 | 00:00:00 | |
| DL1XH-west | 2026-09-01 01:13:15 | 52.64177 | 11.34735 | 109° | 75km/h | 7027m | -6m/s | -28.1°C | 19.4% | 416hPa | 2.5V | 02:33:50 | 03:23:12 | 00:00:00 | |
| BIOWL1-15 | 2026-09-01 01:13:13 | 52.64189 | 11.34677 | 108° | 73km/h | 7039m | -6m/s | -28.1°C | 19.3% | 415.3hPa | 2.5V | 02:33:50 | 03:23:10 | 00:00:00 | |
| DO2SHX-10 | 2026-09-01 01:13:12 | 52.64195 | 11.34648 | 109° | 73km/h | 7045m | -6.1m/s | -28.1°C | 16.7% | 414.8hPa | 2.6V | 02:33:00 | 03:23:09 | 00:00:00 | |
| DM0DOS-11 | 2026-09-01 01:13:11 | 52.64218 | 11.34531 | 107° | 73km/h | 7070m | -6.3m/s | -28.3°C | 16.3% | 413.5hPa | 2.5V | 02:33:54 | 03:23:05 | 00:00:00 | |
| DF8AY | 2026-09-01 01:13:09 | 52.64212 | 11.34561 | 108° | 73km/h | 7063m | -6.3m/s | -28.3°C | 19% | 413.8hPa | 2.5V | 02:34:41 | 03:23:06 | 00:00:00 | |
| DO2SHX-10 | 2026-09-01 01:13:09 | 52.64212 | 11.34560 | 109° | 73km/h | 7063m | -6.2m/s | -28.2°C | 16.4% | 413.8hPa | 2.6V | 00:00:00 | 03:23:06 | 00:00:00 | |
| DL1XH-15 | 2026-09-01 01:13:07 | 52.64229 | 11.34473 | 108° | 73km/h | 7082m | -6.1m/s | -28.4°C | 16.5% | 412.7hPa | 2.6V | 02:33:56 | 03:23:03 | 00:00:00 | |
| AA1-15 | 2026-09-01 01:13:06 | 52.64229 | 11.34473 | 108° | 73km/h | 7082m | -6.1m/s | -28.4°C | 19.2% | 412.8hPa | 2.6V | 02:34:41 | 03:23:03 | 00:00:00 | |
| DF8AY-15 | 2026-09-01 01:13:06 | 52.64229 | 11.34473 | 109° | 71km/h | 7083m | -6.0m/s | -28.4°C | 16.5% | 412.7hPa | 2.6V | 00:00:00 | 03:23:03 | 00:00:00 | |
| DL1XH1-15 | 2026-09-01 01:13:05 | 52.64259 | 11.34330 | 109° | 71km/h | 7113m | -5.8m/s | -28.7°C | 16.6% | 411hPa | 2.6V | 02:34:01 | 03:22:58 | 00:00:00 | |
| DL1XH-west | 2026-09-01 01:13:04 | 52.64241 | 11.34416 | 108° | 73km/h | 7095m | -6m/s | -28.5°C | 19% | 412hPa | 2.5V | 02:34:41 | 03:23:01 | 00:00:00 | |
| BIOWL1-15 | 2026-09-01 01:13:04 | 52.64247 | 11.34387 | 109° | 73km/h | 7101m | -6.1m/s | -28.6°C | 19.1% | 411.7hPa | 2.5V | 02:34:41 | 03:23:00 | 00:00:00 | |
| DO2SHX-10 | 2026-09-01 01:13:03 | 52.64247 | 11.34387 | 109° | 73km/h | 7101m | -6.1m/s | -28.5°C | 16.5% | 411.6hPa | 2.5V | 02:33:00 | 03:23:00 | 00:00:00 | |
| SONDE2-11 | 2026-09-01 01:13:02 | 52.64258 | 11.34330 | 109° | 71km/h | 7113m | -5.8m/s | -28.7°C | 15.1% | 411.0hPa | 2.5V | 00:00:00 | 00:00:00 | 00:00:00 | |
| DL1XH-15 | 2026-09-01 01:13:01 | 52.64289 | 11.34190 | 110° | 71km/h | 7144m | -6.3m/s | -29°C | 16.7% | 409.2hPa | 2.5V | 02:34:06 | 03:22:53 | 00:00:00 | |
| DM0DOS-11 | 2026-09-01 01:13:00 | 52.64302 | 11.34135 | 111° | 69km/h | 7156m | -6.1m/s | -29.1°C | 16.8% | 408.5hPa | 2.6V | 02:34:08 | 03:22:51 | 00:00:00 | |
| DF8AY | 2026-09-01 01:12:59 | 52.64270 | 11.34274 | 110° | 71km/h | 7125m | -6m/s | -28.8°C | 19.3% | 410.2hPa | 2.6V | 02:34:41 | 03:22:56 | 00:00:00 | |
| AA1-15 | 2026-09-01 01:12:56 | 52.64295 | 11.34163 | 111° | 71km/h | 7150m | -6m/s | -29.1°C | 19.4% | 408.9hPa | 2.6V | 02:34:41 | 03:22:52 | 00:00:00 | |
| DL1XH1-15 | 2026-09-01 01:12:55 | 52.64321 | 11.34054 | 111° | 69km/h | 7175m | -6m/s | -29.2°C | 16.9% | 407.5hPa | 2.5V | 02:34:11 | 03:22:48 | 00:00:00 | |
| BIOWL1-15 | 2026-09-01 01:12:55 | 52.64308 | 11.34108 | 112° | 69km/h | 7163m | -6.1m/s | -29.1°C | 19.4% | 408.2hPa | 2.6V | 02:34:41 | 03:22:50 | 00:00:00 | |
| DL1XH-west | 2026-09-01 01:12:54 | 52.64302 | 11.34135 | 111° | 69km/h | 7156m | -6.1m/s | -29.1°C | 19.4% | 408.5hPa | 2.6V | 02:34:41 | 03:22:51 | 00:00:00 | |
| DO2SHX-10 | 2026-09-01 01:12:54 | 52.64301 | 11.34135 | 112° | 69km/h | 7157m | -6.0m/s | -29.0°C | 16.8% | 408.5hPa | 2.6V | 02:34:00 | 03:22:51 | 00:00:00 | |
| AM1SDL-15 | 2026-09-01 01:12:52 | 52.64314 | 11.34081 | 112° | 69km/h | 7169m | -5.9m/s | -29.1°C | 16.8% | 407.8hPa | 2.6V | 00:00:00 | 03:22:49 | 00:00:00 | |
| DL1XH-15 | 2026-09-01 01:12:51 | 52.64352 | 11.33918 | 110° | 69km/h | 7205m | -6.1m/s | -29.3°C | 17.4% | 405.8hPa | 2.6V | 02:34:16 | 03:22:43 | 00:00:00 | |
| DF8AY | 2026-09-01 01:12:48 | 52.64340 | 11.33973 | 111° | 69km/h | 7193m | -6.2m/s | -29.3°C | 19.7% | 406.5hPa | 2.5V | 02:34:41 | 03:22:45 | 00:00:00 | |
| DO2SHX-10 | 2026-09-01 01:12:48 | 52.64340 | 11.33973 | 111° | 69km/h | 7193m | -6.2m/s | -29.2°C | 17.1% | 406.4hPa | 2.5V | 00:00:00 | 03:22:45 | 00:00:00 | |
| DF8AY-15 | 2026-09-01 01:12:46 | 52.64352 | 11.33918 | 111° | 71km/h | 7205m | -6.0m/s | -29.3°C | 17.4% | 405.7hPa | 2.5V | 00:00:00 | 03:22:43 | 00:00:00 | |
| DL1XH1-15 | 2026-09-01 01:12:45 | 52.64383 | 11.33782 | 110° | 69km/h | 7236m | -6.1m/s | -29.5°C | 17.8% | 404hPa | 2.5V | 02:34:21 | 03:22:38 | 00:00:00 | |
| AA1-15 | 2026-09-01 01:12:44 | 52.64364 | 11.33864 | 111° | 69km/h | 7217m | -6.1m/s | -29.4°C | 20.3% | 405.1hPa | 2.5V | 02:34:41 | 03:22:41 | 00:00:00 | |
| DL1XH-west | 2026-09-01 01:12:43 | 52.64371 | 11.33836 | 110° | 71km/h | 7224m | -6.1m/s | -29.4°C | 20.1% | 404.7hPa | 2.5V | 02:34:41 | 03:22:40 | 00:00:00 | |
| BIOWL1-15 | 2026-09-01 01:12:42 | 52.64377 | 11.33809 | 111° | 71km/h | 7230m | -6.3m/s | -29.5°C | 20.4% | 404.4hPa | 2.5V | 02:34:41 | 03:22:39 | 00:00:00 | |
| DO2SHX-10 | 2026-09-01 01:12:42 | 52.64377 | 11.33809 | 112° | 71km/h | 7230m | -6.2m/s | -29.4°C | 17.6% | 404.3hPa | 2.5V | 00:00:00 | 03:22:39 | 00:00:00 | |
| DL1XH-15 | 2026-09-01 01:12:41 | 52.64415 | 11.33645 | 110° | 69km/h | 7267m | -6.2m/s | -29.7°C | 18.5% | 402.3hPa | 2.5V | 02:34:26 | 03:22:33 | 00:00:00 | |
| DD8BA-10 | 2026-09-01 01:12:40 | 52.64390 | 11.33754 | 112° | 71km/h | 7243m | -6.1m/s | -29.5°C | 18.2% | 403.6hPa | 2.6V | 00:00:00 | 00:00:00 | 00:00:00 | |
| DM0DOS-11 | 2026-09-01 01:12:39 | 52.64428 | 11.33590 | 110° | 69km/h | 7280m | -6m/s | -29.8°C | 18.6% | 401.5hPa | 2.6V | 02:34:28 | 03:22:31 | 00:00:00 | |
| DF8AY | 2026-09-01 01:12:38 | 52.64402 | 11.33700 | 111° | 69km/h | 7255m | -6.2m/s | -29.6°C | 21.4% | 402.9hPa | 2.6V | 02:34:41 | 03:22:35 | 00:00:00 | |
| DO2SHX-10 | 2026-09-01 01:12:36 | 52.64415 | 11.33645 | 111° | 71km/h | 7267m | -6.2m/s | -29.7°C | 18.5% | 402.2hPa | 2.5V | 02:34:00 | 03:22:33 | 00:00:00 | |
| DL1XH1-15 | 2026-09-01 01:12:35 | 52.64446 | 11.33507 | 109° | 71km/h | 7297m | -6m/s | -30°C | 18.6% | 400.5hPa | 2.5V | 02:34:31 | 03:22:28 | 00:00:00 | |
| AA1-15 | 2026-09-01 01:12:33 | 52.64434 | 11.33563 | 110° | 71km/h | 7286m | -5.8m/s | -29.9°C | 21.6% | 401.2hPa | 2.6V | 02:34:41 | 03:22:30 | 00:00:00 | |
| DL1XH-west | 2026-09-01 01:12:32 | 52.64440 | 11.33535 | 110° | 71km/h | 7291m | -5.7m/s | -29.9°C | 21.7% | 400.9hPa | 2.6V | 02:34:41 | 03:22:29 | 00:00:00 | |
| BIOWL1-15 | 2026-09-01 01:12:31 | 52.64446 | 11.33507 | 110° | 71km/h | 7297m | -6m/s | -30°C | 21.6% | 400.5hPa | 2.5V | 02:34:41 | 03:22:28 | 00:00:00 | |
| SONDE2-11 | 2026-09-01 01:12:31 | 52.64446 | 11.33507 | 109° | 69km/h | 7297m | -6.0m/s | -30.0°C | 16.9% | 400.5hPa | 2.6V | 00:00:00 | 00:00:00 | 00:00:00 | |
| DD8BA-10 | 2026-09-01 01:12:30 | 52.64452 | 11.33480 | 110° | 71km/h | 7303m | -6.0m/s | -30.0°C | 18.8% | 400.1hPa | 2.6V | 00:00:00 | 00:00:00 | 00:00:00 | |
| DM0DOS-11 | 2026-09-01 01:12:29 | 52.64488 | 11.33313 | 109° | 71km/h | 7340m | -6.1m/s | -30.4°C | 19% | 398.1hPa | 2.6V | 02:34:38 | 03:22:21 | 00:00:00 | |
| DF8AY | 2026-09-01 01:12:28 | 52.64464 | 11.33424 | 110° | 71km/h | 7316m | -6.5m/s | -30.2°C | 22% | 399.4hPa | 2.6V | 02:34:41 | 03:22:25 | 00:00:00 | |
| DO2SHX-10 | 2026-09-01 01:12:27 | 52.64470 | 11.33397 | 110° | 71km/h | 7322m | -6.2m/s | -30.2°C | 18.8% | 399.2hPa | 2.5V | 02:34:00 | 03:22:24 | 00:00:00 | |
| DF8AY-15 | 2026-09-01 01:12:26 | 52.64476 | 11.33369 | 110° | 71km/h | 7328m | -6.4m/s | -30.2°C | 19.0% | 398.7hPa | 2.5V | 02:34:00 | 03:22:23 | 00:00:00 | |
| DL1XH1-15 | 2026-09-01 01:12:25 | 52.64506 | 11.33229 | 109° | 71km/h | 7359m | -6.4m/s | -30.6°C | 19% | 397.1hPa | 2.5V | 02:34:41 | 03:22:18 | 00:00:00 | |
| DB0DAN | 2026-09-01 01:12:25 | 52.64482 | 11.33341 | 110° | 68km/h | 7334m | -6.2m/s | -30.4°C | 17.3% | 398.4hPa | 2.6V | 00:00:00 | 00:00:00 | 00:00:00 | |
| AA1-15 | 2026-09-01 01:12:23 | 52.64500 | 11.33257 | 109° | 71km/h | 7353m | -6.2m/s | -30.5°C | 22% | 397.4hPa | 2.5V | 02:34:41 | 03:22:19 | 00:00:00 | |
| BIOWL1-15 | 2026-09-01 01:12:21 | 52.64506 | 11.33229 | 109° | 71km/h | 7359m | -6.4m/s | -30.6°C | 22% | 397.1hPa | 2.5V | 02:34:41 | 03:22:18 | 00:00:00 | |
| DO2SHX-10 | 2026-09-01 01:12:21 | 52.64506 | 11.33229 | 110° | 71km/h | 7359m | -6.3m/s | -30.5°C | 19.0% | 397.0hPa | 2.5V | 00:00:00 | 03:22:18 | 00:00:00 | |
| DD8BA-10 | 2026-09-01 01:12:20 | 52.64512 | 11.33201 | 110° | 71km/h | 7365m | -6.1m/s | -30.6°C | 18.9% | 396.6hPa | 2.5V | 02:34:00 | 00:00:00 | 00:00:00 | |
| DM0DOS-11 | 2026-09-01 01:12:19 | 52.64549 | 11.33034 | 109° | 71km/h | 7403m | -6.5m/s | -31°C | 19.5% | 394.6hPa | 2.5V | 02:34:48 | 03:22:11 | 00:00:00 | |
| DF8AY | 2026-09-01 01:12:17 | 52.64530 | 11.33117 | 110° | 71km/h | 7383m | -6.2m/s | -30.8°C | 22.2% | 395.7hPa | 2.6V | 02:35:32 | 03:22:14 | 00:00:00 | |
| DJ2DS-15 | 2026-09-01 01:12:16 | 52.64536 | 11.33089 | 109° | 69km/h | 7390m | -6.2m/s | -30.8°C | 17.4% | 395.3hPa | 2.6V | 00:00:00 | 00:00:00 | 00:00:00 | |
| DL1XH1-15 | 2026-09-01 01:12:15 | 52.64567 | 11.32950 | 109° | 71km/h | 7421m | -6.5m/s | -31.1°C | 20.1% | 393.5hPa | 2.6V | 02:34:51 | 03:22:08 | 00:00:00 | |
| AA1-15 | 2026-09-01 01:12:12 | 52.64567 | 11.32950 | 110° | 71km/h | 7421m | -6.5m/s | -31.1°C | 23.4% | 393.5hPa | 2.6V | 02:35:32 | 03:22:08 | 00:00:00 | |
| DL1XH-west | 2026-09-01 01:12:10 | 52.64573 | 11.32922 | 110° | 71km/h | 7428m | -6.6m/s | -31.2°C | 23.4% | 393.1hPa | 2.5V | 02:35:32 | 03:22:07 | 00:00:00 | |
| DD8BA-10 | 2026-09-01 01:12:10 | 52.64573 | 11.32922 | 111° | 71km/h | 7428m | -6.5m/s | -31.2°C | 20.1% | 393.1hPa | 2.5V | 00:00:00 | 00:00:00 | 00:00:00 | |
| DM0DOS-11 | 2026-09-01 01:12:09 | 52.64610 | 11.32754 | 109° | 71km/h | 7469m | -7.2m/s | -31.6°C | 20.6% | 390.9hPa | 2.5V | 02:34:58 | 03:22:01 | 00:00:00 | |
| DO2SHX-10 | 2026-09-01 01:12:09 | 52.64580 | 11.32894 | 110° | 71km/h | 7435m | -6.7m/s | -31.2°C | 20.3% | 392.7hPa | 2.5V | 02:34:00 | 03:22:06 | 00:00:00 | |
| DL1XH-15 | 2026-09-01 01:12:08 | 52.64598 | 11.32810 | 110° | 71km/h | 7455m | -7m/s | -31.4°C | 20.7% | 391.7hPa | 2.6V | 02:34:56 | 03:22:03 | 00:00:00 | |
| DF8AY | 2026-09-01 01:12:06 | 52.64598 | 11.32810 | 110° | 71km/h | 7455m | -7m/s | -31.5°C | 24.2% | 391.7hPa | 2.6V | 02:35:32 | 03:22:03 | 00:00:00 | |
| DF8AY-15 | 2026-09-01 01:12:06 | 52.64598 | 11.32810 | 111° | 73km/h | 7455m | -7.0m/s | -31.4°C | 20.7% | 391.7hPa | 2.6V | 00:00:00 | 03:22:03 | 00:00:00 | |
| DL1XH1-15 | 2026-09-01 01:12:05 | 52.64629 | 11.32670 | 109° | 71km/h | 7490m | -7m/s | -31.8°C | 21.6% | 389.8hPa | 2.6V | 02:35:01 | 03:21:58 | 00:00:00 | |
| AM1SDL-15 | 2026-09-01 01:12:04 | 52.64610 | 11.32754 | 110° | 73km/h | 7469m | -7.2m/s | -31.5°C | 20.6% | 390.9hPa | 2.6V | 00:00:00 | 03:22:01 | 00:00:00 | |
| DO2SHX-10 | 2026-09-01 01:12:03 | 52.64617 | 11.32726 | 110° | 71km/h | 7476m | -7.1m/s | -31.6°C | 21.0% | 390.5hPa | 2.6V | 00:00:00 | 03:22:00 | 00:00:00 | |
| DL2RXE-15 | 2026-09-01 01:12:02 | 52.64616 | 11.32726 | 111° | 71km/h | 7476m | -7.2m/s | -31.7°C | 19.1% | 390.6hPa | 2.6V | 00:00:00 | 00:00:00 | 00:00:00 | |
| DL1XH-15 | 2026-09-01 01:12:01 | 52.64660 | 11.32529 | 110° | 71km/h | 7525m | -7.2m/s | -32.1°C | 22.9% | 387.8hPa | 2.6V | 02:35:06 | 03:21:53 | 00:00:00 | |
| DL1XH-west | 2026-09-01 01:12:00 | 52.64635 | 11.32642 | 110° | 73km/h | 7497m | -7m/s | -31.9°C | 25.2% | 389.4hPa | 2.6V | 02:35:32 | 03:21:57 | 00:00:00 | |
| BIOWL1-15 | 2026-09-01 01:11:59 | 52.64654 | 11.32557 | 110° | 73km/h | 7518m | -7.1m/s | -32.1°C | 26% | 388.2hPa | 2.5V | 02:35:32 | 03:21:54 | 00:00:00 | |
| DF8AY | 2026-09-01 01:11:56 | 52.64660 | 11.32529 | 110° | 71km/h | 7525m | -7.2m/s | -32.1°C | 26.5% | 387.8hPa | 2.6V | 02:35:32 | 03:21:53 | 00:00:00 | |
| DO2SHX-10 | 2026-09-01 01:11:54 | 52.64673 | 11.32473 | 111° | 73km/h | 7539m | -7.1m/s | -32.2°C | 23.5% | 387.0hPa | 2.6V | 00:00:00 | 03:21:51 | 00:00:00 | |
| DF7ER-10 | 2026-09-01 01:11:53 | 52.64673 | 11.32473 | 111° | 73km/h | 7539m | -7.2m/s | -32.2°C | 21.3% | 387.1hPa | 2.6V | 02:35:00 | 00:00:00 | 00:00:00 | |
| AM1SDL-15 | 2026-09-01 01:11:52 | 52.64686 | 11.32416 | 111° | 73km/h | 7553m | -7.0m/s | -32.3°C | 24.2% | 386.2hPa | 2.6V | 02:35:00 | 03:21:49 | 00:00:00 | |
| DO2SHX-10 | 2026-09-01 01:11:51 | 52.64692 | 11.32388 | 111° | 73km/h | 7561m | -7.2m/s | -32.4°C | 24.4% | 385.9hPa | 2.6V | 02:35:00 | 03:21:48 | 00:00:00 | |
| DL1XH-15 | 2026-09-01 01:11:50 | 52.64724 | 11.32246 | 110° | 71km/h | 7595m | -6.8m/s | -32.8°C | 24.9% | 384.1hPa | 2.6V | 02:35:16 | 03:21:43 | 00:00:00 | |
| DL1XH-west | 2026-09-01 01:11:49 | 52.64705 | 11.32331 | 110° | 73km/h | 7575m | -7m/s | -32.6°C | 28.3% | 385.1hPa | 2.5V | 02:35:32 | 03:21:46 | 00:00:00 | |
| DF8AY | 2026-09-01 01:11:46 | 52.64724 | 11.32246 | 111° | 71km/h | 7595m | -6.8m/s | -32.8°C | 28.4% | 384.1hPa | 2.6V | 02:35:32 | 03:21:43 | 00:00:00 | |
| EDDB2-12 | 2026-09-01 01:11:44 | 52.64737 | 11.32190 | 110° | 71km/h | 7609m | -6.9m/s | -32.9°C | 22.2% | 383.3hPa | 2.6V | 00:00:00 | 00:00:00 | 00:00:00 | |
| DO2SHX-10 | 2026-09-01 01:11:42 | 52.64750 | 11.32134 | 111° | 73km/h | 7622m | -6.7m/s | -33.0°C | 25.0% | 382.6hPa | 2.6V | 02:35:00 | 03:21:39 | 00:00:00 | |
| DL1XH-15 | 2026-09-01 01:11:40 | 52.64790 | 11.31965 | 111° | 73km/h | 7663m | -6.8m/s | -33.4°C | 26% | 380.3hPa | 2.6V | 02:35:26 | 03:21:33 | 00:00:00 | |
| DL1XH-west | 2026-09-01 01:11:39 | 52.64770 | 11.32049 | 111° | 73km/h | 7643m | -6.8m/s | -33.2°C | 29.1% | 381.6hPa | 2.5V | 02:35:32 | 03:21:36 | 00:00:00 | |
| DM0DOS-11 | 2026-09-01 01:11:39 | 52.64804 | 11.31909 | 111° | 73km/h | 7677m | -6.8m/s | -33.5°C | 25.9% | 379.6hPa | 2.6V | 02:35:28 | 03:21:31 | 00:00:00 | |
| AA1-15 | 2026-09-01 01:11:38 | 52.64776 | 11.32021 | 112° | 73km/h | 7650m | -7m/s | -33.3°C | 29.2% | 381.1hPa | 2.5V | 02:35:32 | 03:21:35 | 00:00:00 | |
| BIOWL1-15 | 2026-09-01 01:11:35 | 52.64797 | 11.31937 | 112° | 73km/h | 7670m | -6.8m/s | -33.5°C | 29.7% | 380hPa | 2.6V | 02:35:32 | 03:21:32 | 00:00:00 | |
| DL1XH1-15 | 2026-09-01 01:11:35 | 52.64824 | 11.31825 | 111° | 73km/h | 7697m | -6.7m/s | -33.8°C | 26.2% | 378.5hPa | 2.5V | 02:35:31 | 03:21:28 | 00:00:00 | |
| DO2SHX-10 | 2026-09-01 01:11:33 | 52.64810 | 11.31881 | 112° | 73km/h | 7684m | -6.8m/s | -33.6°C | 26.0% | 379.2hPa | 2.5V | 02:35:00 | 03:21:30 | 00:00:00 | |
| DL1XH-15 | 2026-09-01 01:11:31 | 52.64858 | 11.31685 | 112° | 73km/h | 7732m | -7.1m/s | -34.1°C | 26.8% | 376.7hPa | 2.5V | 02:35:36 | 03:21:23 | 00:00:00 | |
| DO2SHX-10 | 2026-09-01 01:11:30 | 52.64831 | 11.31797 | 112° | 73km/h | 7704m | -6.6m/s | -33.8°C | 26.3% | 378.0hPa | 2.6V | 00:00:00 | 03:21:27 | 00:00:00 | |
| DM0DOS-11 | 2026-09-01 01:11:29 | 52.64872 | 11.31630 | 112° | 71km/h | 7746m | -7.1m/s | -34.2°C | 27.3% | 375.9hPa | 2.6V | 02:35:38 | 03:21:21 | 00:00:00 | |
| DL1XH-west | 2026-09-01 01:11:28 | 52.64845 | 11.31741 | 112° | 73km/h | 7718m | -7m/s | -34°C | 30% | 377.4hPa | 2.6V | 02:36:23 | 03:21:25 | 00:00:00 | |
| AA1-15 | 2026-09-01 01:11:27 | 52.64852 | 11.31713 | 112° | 71km/h | 7725m | -7.1m/s | -34°C | 30.1% | 377hPa | 2.5V | 02:36:23 | 03:21:24 | 00:00:00 | |
| BIOWL1-15 | 2026-09-01 01:11:27 | 52.64865 | 11.31657 | 112° | 71km/h | 7739m | -7.2m/s | -34.2°C | 30.5% | 376.3hPa | 2.5V | 02:36:23 | 03:21:22 | 00:00:00 | |
| DO2SHX-10 | 2026-09-01 01:11:27 | 52.64851 | 11.31713 | 112° | 71km/h | 7725m | -7.0m/s | -34.0°C | 26.6% | 377.0hPa | 2.5V | 00:00:00 | 03:21:24 | 00:00:00 | |
| DB0DAN | 2026-09-01 01:11:25 | 52.64865 | 11.31657 | 112° | 69km/h | 7739m | -7.2m/s | -34.2°C | 24.5% | 376.26hPa | 2.5V | 00:00:00 | 00:00:00 | 00:00:00 | |
| DF8AY | 2026-09-01 01:11:24 | 52.64872 | 11.31630 | 112° | 73km/h | 7746m | -7.1m/s | -34.2°C | 30.8% | 375.9hPa | 2.6V | 02:36:23 | 03:21:21 | 00:00:00 | |
| DO2SHX-10 | 2026-09-01 01:11:24 | 52.64872 | 11.31630 | 113° | 73km/h | 7746m | -7.1m/s | -34.2°C | 27.3% | 375.8hPa | 2.6V | 02:35:00 | 03:21:21 | 00:00:00 | |
| TFSTFS | 2026-09-01 01:11:23 | 52.64879 | 11.31602 | 113° | 73km/h | 7753m | -6.8m/s | -34.3°C | 24.9% | 375.5hPa | 2.6V | 02:36:00 | 00:00:00 | 00:00:00 | |
| GOEST3-10 | 2026-09-01 01:11:22 | 52.64886 | 11.31574 | 112° | 73km/h | 7760m | -6.8m/s | -34.3°C | 27.6% | 375.1hPa | 2.6V | 00:00:00 | 00:00:00 | 00:00:00 | |
| DL1XH-15 | 2026-09-01 01:11:21 | 52.64928 | 11.31405 | 113° | 73km/h | 7801m | -7.2m/s | -34.7°C | 28.1% | 372.9hPa | 2.6V | 02:35:46 | 03:21:13 | 00:00:00 | |
| DL4XJ-10 | 2026-09-01 01:11:21 | 52.64892 | 11.31546 | 112° | 73km/h | 7767m | -6.9m/s | -34.0°C | 0% | 0hPa | 2.5V | 00:00:00 | 00:00:00 | 00:00:00 | |
| DD8BA-10 | 2026-09-01 01:11:20 | 52.64899 | 11.31518 | 112° | 73km/h | 7773m | -6.8m/s | -34.4°C | 27.5% | 374.3hPa | 2.5V | 02:35:00 | 00:00:00 | 00:00:00 | |
| DM0DOS-11 | 2026-09-01 01:11:19 | 52.64942 | 11.31350 | 113° | 73km/h | 7815m | -7.3m/s | -34.9°C | 28.2% | 372.1hPa | 2.5V | 02:35:48 | 03:21:11 | 00:00:00 | |
| DL1XH-west | 2026-09-01 01:11:17 | 52.64920 | 11.31433 | 113° | 73km/h | 7794m | -6.9m/s | -34.7°C | 31.5% | 373.3hPa | 2.6V | 02:36:23 | 03:21:14 | 00:00:00 | |
| AA1-15 | 2026-09-01 01:11:16 | 52.64928 | 11.31405 | 113° | 73km/h | 7801m | -7.2m/s | -34.7°C | 31.4% | 372.9hPa | 2.6V | 02:36:23 | 03:21:13 | 00:00:00 | |
| BIOWL1-15 | 2026-09-01 01:11:15 | 52.64942 | 11.31350 | 113° | 73km/h | 7815m | -7.3m/s | -34.9°C | 31.6% | 372.1hPa | 2.5V | 02:36:23 | 03:21:11 | 00:00:00 | |
| DF8AY | 2026-09-01 01:11:14 | 52.64949 | 11.31322 | 113° | 73km/h | 7822m | -7.1m/s | -34.9°C | 31.6% | 371.8hPa | 2.5V | 02:36:23 | 03:21:10 | 00:00:00 | |
| EDDB2-12 | 2026-09-01 01:11:13 | 52.64957 | 11.31294 | 113° | 71km/h | 7829m | -7.1m/s | -35.0°C | 25.7% | 371.4hPa | 2.5V | 00:00:00 | 00:00:00 | 00:00:00 | |
| DO2SHX-10 | 2026-09-01 01:11:12 | 52.64956 | 11.31294 | 114° | 71km/h | 7830m | -7.0m/s | -35.0°C | 28.4% | 371.3hPa | 2.5V | 00:00:00 | 03:21:09 | 00:00:00 | |
| DF7ER-10 | 2026-09-01 01:11:11 | 52.64956 | 11.31294 | 114° | 73km/h | 7830m | -7.1m/s | -35.0°C | 25.7% | 371.4hPa | 2.5V | 02:36:00 | 00:00:00 | 00:00:00 | |
| DL1XH-15 | 2026-09-01 01:11:11 | 52.65001 | 11.31131 | 115° | 71km/h | 7871m | -7m/s | -35.3°C | 26.8% | 369.2hPa | 2.6V | 02:35:56 | 03:21:03 | 00:00:00 | |
| DB0DAN | 2026-09-01 01:11:10 | 52.64971 | 11.31239 | 114° | 69km/h | 7843m | -6.8m/s | -35.1°C | 25.7% | 370.62hPa | 2.5V | 00:00:00 | 00:00:00 | 00:00:00 | |
| DL1XH-west | 2026-09-01 01:11:06 | 52.65001 | 11.31131 | 115° | 71km/h | 7872m | -7m/s | -35.3°C | 30% | 369.2hPa | 2.6V | 02:36:23 | 03:21:03 | 00:00:00 | |
| AA1-15 | 2026-09-01 01:11:05 | 52.65009 | 11.31104 | 115° | 71km/h | 7879m | -7m/s | -35.4°C | 29.4% | 368.8hPa | 2.6V | 02:36:23 | 03:21:02 | 00:00:00 | |
| DL1XH1-15 | 2026-09-01 01:11:05 | 52.65040 | 11.30997 | 115° | 71km/h | 7908m | -7.5m/s | -35.5°C | 23.8% | 367.2hPa | 2.5V | 02:36:01 | 03:20:58 | 00:00:00 | |
| DM0DOS-11 | 2026-09-01 01:11:05 | 52.65017 | 11.31077 | 115° | 71km/h | 7886m | -7.3m/s | -35.4°C | 25.4% | 368.4hPa | 2.6V | 02:35:58 | 03:21:01 | 00:00:00 | |
| DF8AY | 2026-09-01 01:11:03 | 52.65024 | 11.31050 | 115° | 71km/h | 7893m | -7.5m/s | -35.5°C | 28.1% | 368hPa | 2.5V | 02:36:23 | 03:21:00 | 00:00:00 | |
| DO2SHX-10 | 2026-09-01 01:11:03 | 52.65024 | 11.31050 | 116° | 71km/h | 7893m | -7.5m/s | -35.4°C | 24.8% | 368.0hPa | 2.5V | 00:00:00 | 03:21:00 | 00:00:00 | |
| DL1XH-15 | 2026-09-01 01:11:01 | 52.65080 | 11.30865 | 117° | 71km/h | 7944m | -6.9m/s | -35.7°C | 23.5% | 365.4hPa | 2.5V | 02:36:06 | 03:20:53 | 00:00:00 | |
| DL4XJ-10 | 2026-09-01 01:11:01 | 52.65040 | 11.30997 | 116° | 73km/h | 7908m | -7.5m/s | -35.1°C | 0% | 0hPa | 2.6V | 00:00:00 | 00:00:00 | 00:00:00 | |
| DD8BA-10 | 2026-09-01 01:11:00 | 52.65047 | 11.30971 | 117° | 71km/h | 7916m | -7.2m/s | -35.5°C | 23.6% | 366.8hPa | 2.6V | 00:00:00 | 00:00:00 | 00:00:00 | |
| DM0DOS-11 | 2026-09-01 01:10:59 | 52.65097 | 11.30813 | 117° | 71km/h | 7958m | -7m/s | -35.8°C | 24.3% | 364.7hPa | 2.6V | 02:36:08 | 03:20:51 | 00:00:00 | |
| SONDE2-11 | 2026-09-01 01:10:58 | 52.65072 | 11.30892 | 116° | 69km/h | 7937m | -7.1m/s | -35.6°C | 21.1% | 365.7hPa | 2.5V | 00:00:00 | 00:00:00 | 00:00:00 | |
| DO2SHX-10 | 2026-09-01 01:10:57 | 52.65072 | 11.30892 | 117° | 71km/h | 7937m | -7.1m/s | -35.6°C | 23.6% | 365.6hPa | 2.5V | 02:36:00 | 03:20:54 | 00:00:00 | |
| DL1XH1-15 | 2026-09-01 01:10:55 | 52.65122 | 11.30735 | 117° | 71km/h | 7979m | -7.5m/s | -36°C | 24.6% | 363.5hPa | 2.5V | 02:36:11 | 03:20:48 | 00:00:00 | |
| AA1-15 | 2026-09-01 01:10:55 | 52.65088 | 11.30839 | 118° | 71km/h | 7951m | -7.2m/s | -35.8°C | 27.2% | 365.1hPa | 2.5V | 02:36:23 | 03:20:52 | 00:00:00 | |
| DB0DAN | 2026-09-01 01:10:55 | 52.65088 | 11.30839 | 117° | 68km/h | 7951m | -7.2m/s | -35.8°C | 21.4% | 365.09hPa | 2.5V | 00:00:00 | 00:00:00 | 00:00:00 | |
| BIOWL1-15 | 2026-09-01 01:10:52 | 52.65113 | 11.30761 | 118° | 71km/h | 7972m | -7.2m/s | -36°C | 28.2% | 363.9hPa | 2.6V | 02:36:23 | 03:20:49 | 00:00:00 | |
| DL1XH-15 | 2026-09-01 01:10:51 | 52.65164 | 11.30606 | 118° | 71km/h | 8015m | -7m/s | -36.4°C | 26.2% | 361.7hPa | 2.6V | 02:36:16 | 03:20:43 | 00:00:00 | |
| DO2SHX-10 | 2026-09-01 01:10:51 | 52.65122 | 11.30735 | 118° | 71km/h | 7979m | -7.5m/s | -36.0°C | 24.6% | 363.4hPa | 2.5V | 00:00:00 | 03:20:48 | 00:00:00 | |
| DD8BA-10 | 2026-09-01 01:10:50 | 52.65130 | 11.30710 | 118° | 71km/h | 7987m | -7.3m/s | -36.0°C | 25.0% | 363.1hPa | 2.5V | 02:36:00 | 00:00:00 | 00:00:00 | |
| GOEST3-10 | 2026-09-01 01:10:49 | 52.65138 | 11.30684 | 119° | 71km/h | 7994m | -7.3m/s | -36.1°C | 25.4% | 362.7hPa | 2.6V | 00:00:00 | 00:00:00 | 00:00:00 | |
| DO2SHX-10 | 2026-09-01 01:10:48 | 52.65147 | 11.30658 | 118° | 71km/h | 8001m | -7.0m/s | -36.2°C | 25.9% | 362.4hPa | 2.6V | 02:36:00 | 03:20:45 | 00:00:00 | |
| DL1XH1-15 | 2026-09-01 01:10:46 | 52.65207 | 11.30476 | 119° | 71km/h | 8051m | -7m/s | -36.7°C | 27.1% | 359.8hPa | 2.6V | 02:36:21 | 03:20:38 | 00:00:00 | |
| DL1XH-west | 2026-09-01 01:10:44 | 52.65181 | 11.30554 | 119° | 71km/h | 8030m | -7.3m/s | -36.5°C | 30.1% | 361hPa | 2.5V | 02:36:23 | 03:20:41 | 00:00:00 | |
| DF8AY | 2026-09-01 01:10:42 | 52.65198 | 11.30502 | 119° | 71km/h | 8044m | -7.1m/s | -36.6°C | 30.5% | 360.1hPa | 2.6V | 02:36:23 | 03:20:39 | 00:00:00 | |
| DO2SHX-10 | 2026-09-01 01:10:42 | 52.65198 | 11.30501 | 119° | 71km/h | 8044m | -7.1m/s | -36.6°C | 27.0% | 360.0hPa | 2.6V | 00:00:00 | 03:20:39 | 00:00:00 | |
| DL1XH-15 | 2026-09-01 01:10:41 | 52.65253 | 11.30348 | 120° | 71km/h | 8086m | -7.1m/s | -37°C | 28% | 358hPa | 2.6V | 02:36:26 | 03:20:33 | 00:00:00 | |
| BIOWL1-15 | 2026-09-01 01:10:41 | 52.65207 | 11.30476 | 120° | 71km/h | 8051m | -7m/s | -36.7°C | 30.6% | 359.8hPa | 2.6V | 02:36:23 | 03:20:38 | 00:00:00 | |
| DB0DAN | 2026-09-01 01:10:40 | 52.65216 | 11.30450 | 120° | 68km/h | 8058m | -7m/s | -36.8°C | 24.3% | 359.44hPa | 2.6V | 00:00:00 | 00:00:00 | 00:00:00 | |
| DM0DOS-11 | 2026-09-01 01:10:39 | 52.65271 | 11.30297 | 120° | 71km/h | 8100m | -6.8m/s | -37.1°C | 28.2% | 357.2hPa | 2.6V | 02:36:28 | 03:20:31 | 00:00:00 | |
| DO2SHX-10 | 2026-09-01 01:10:39 | 52.65225 | 11.30424 | 121° | 71km/h | 8066m | -6.9m/s | -36.8°C | 27.3% | 359.0hPa | 2.5V | 02:36:00 | 03:20:36 | 00:00:00 | |
| GOEST3-10 | 2026-09-01 01:10:36 | 52.65253 | 11.30347 | 121° | 71km/h | 8086m | -7.1m/s | -37.0°C | 28.0% | 357.9hPa | 2.6V | 02:36:00 | 00:00:00 | 00:00:00 | |
| DL1XH1-15 | 2026-09-01 01:10:35 | 52.65298 | 11.30220 | 120° | 71km/h | 8121m | -6.8m/s | -37.4°C | 28.6% | 356.2hPa | 2.5V | 02:36:31 | 03:20:28 | 00:00:00 | |
| DL1XH-west | 2026-09-01 01:10:34 | 52.65271 | 11.30297 | 121° | 71km/h | 8100m | -6.8m/s | -37.2°C | 31.6% | 357.2hPa | 2.6V | 02:37:14 | 03:20:31 | 00:00:00 | |
| BIOWL1-15 | 2026-09-01 01:10:32 | 52.65326 | 11.30143 | 120° | 71km/h | 8141m | -6.9m/s | -37.5°C | 32.4% | 355.2hPa | 2.6V | 02:37:14 | 03:20:25 | 00:00:00 | |
| DF8AY | 2026-09-01 01:10:32 | 52.65289 | 11.30245 | 121° | 71km/h | 8114m | -7m/s | -37.3°C | 31.7% | 356.5hPa | 2.5V | 02:37:14 | 03:20:29 | 00:00:00 | |
| DL1XH-15 | 2026-09-01 01:10:31 | 52.65343 | 11.30091 | 119° | 71km/h | 8155m | -7m/s | -37.7°C | 29.2% | 354.4hPa | 2.5V | 02:36:36 | 03:20:23 | 00:00:00 | |
| GOEST3-10 | 2026-09-01 01:10:31 | 52.65298 | 11.30219 | 121° | 71km/h | 8121m | -6.8m/s | -37.3°C | 28.6% | 356.1hPa | 2.5V | 00:00:00 | 03:20:28 | 00:00:00 | |
| DD8BA-10 | 2026-09-01 01:10:30 | 52.65307 | 11.30194 | 121° | 71km/h | 8128m | -6.5m/s | -37.4°C | 28.8% | 355.8hPa | 2.5V | 00:00:00 | 00:00:00 | 00:00:00 | |
| DF7ER-10 | 2026-09-01 01:10:29 | 52.65308 | 11.30194 | 121° | 71km/h | 8128m | -6.5m/s | -37.4°C | 25.9% | 355.9hPa | 2.5V | 02:37:00 | 00:00:00 | 00:00:00 | |
| DJ2DS-15 | 2026-09-01 01:10:28 | 52.65326 | 11.30143 | 120° | 69km/h | 8141m | -6.9m/s | -37.5°C | 26.1% | 355.2hPa | 2.5V | 00:00:00 | 00:00:00 | 00:00:00 | |
| SONDE2-11 | 2026-09-01 01:10:27 | 52.65343 | 11.30091 | 119° | 69km/h | 8155m | -7.1m/s | -37.7°C | 26.2% | 354.4hPa | 2.5V | 00:00:00 | 00:00:00 | 00:00:00 | |
| DF8AY-15 | 2026-09-01 01:10:26 | 52.65343 | 11.30091 | 120° | 71km/h | 8155m | -7.0m/s | -37.6°C | 29.2% | 354.4hPa | 2.5V | 02:36:00 | 03:20:23 | 00:00:00 | |
| DL1XH1-15 | 2026-09-01 01:10:25 | 52.65387 | 11.29962 | 119° | 71km/h | 8190m | -7.1m/s | -38°C | 28.6% | 352.7hPa | 2.5V | 02:36:41 | 03:20:18 | 00:00:00 | |
| DB0DAN | 2026-09-01 01:10:25 | 52.65352 | 11.30066 | 119° | 68km/h | 8162m | -6.9m/s | -37.7°C | 26.2% | 354.06hPa | 2.5V | 00:00:00 | 00:00:00 | 00:00:00 | |
| AA1-15 | 2026-09-01 01:10:24 | 52.65361 | 11.30040 | 119° | 71km/h | 8169m | -7m/s | -37.8°C | 32.7% | 353.4hPa | 2.6V | 02:37:14 | 03:20:21 | 00:00:00 | |
| DL1XH-west | 2026-09-01 01:10:23 | 52.65370 | 11.30014 | 119° | 71km/h | 8176m | -6.8m/s | -37.9°C | 32.6% | 353.4hPa | 2.6V | 02:37:14 | 03:20:20 | 00:00:00 | |
| BIOWL1-15 | 2026-09-01 01:10:22 | 52.65423 | 11.29859 | 120° | 71km/h | 8217m | -6.8m/s | -38.2°C | 32.6% | 351.2hPa | 2.6V | 02:37:14 | 03:20:14 | 00:00:00 | |
| DF8AY | 2026-09-01 01:10:22 | 52.65378 | 11.29988 | 119° | 71km/h | 8183m | -7.1m/s | -37.9°C | 32.4% | 353hPa | 2.5V | 02:37:14 | 03:20:19 | 00:00:00 | |
| DO2SHX-10 | 2026-09-01 01:10:21 | 52.65387 | 11.29962 | 120° | 71km/h | 8190m | -7.1m/s | -37.9°C | 28.6% | 352.6hPa | 2.5V | 02:36:00 | 03:20:18 | 00:00:00 | |
| GOEST3-10 | 2026-09-01 01:10:20 | 52.65396 | 11.29936 | 121° | 71km/h | 8197m | -7.2m/s | -38.0°C | 28.9% | 352.2hPa | 2.5V | 02:36:00 | 03:20:17 | 00:00:00 | |
| DL1XH-15 | 2026-09-01 01:10:19 | 52.65432 | 11.29833 | 119° | 71km/h | 8224m | -6.6m/s | -38.3°C | 29.3% | 350.8hPa | 2.6V | 02:36:46 | 03:20:13 | 00:00:00 | |
| DM0DOS-11 | 2026-09-01 01:10:19 | 52.65450 | 11.29781 | 119° | 71km/h | 8238m | -7m/s | -38.4°C | 29.5% | 350.1hPa | 2.5V | 02:36:48 | 03:20:11 | 00:00:00 | |
| DB0NH | 2026-09-01 01:10:19 | 52.65405 | 11.29910 | 120° | 71km/h | 8204m | -6.9m/s | -38.0°C | 29.1% | 351.8hPa | 2.6V | 00:00:00 | 03:20:16 | 00:00:00 | |
| DO2SHX-10 | 2026-09-01 01:10:18 | 52.65414 | 11.29884 | 120° | 71km/h | 8211m | -6.8m/s | -38.1°C | 29.5% | 351.5hPa | 2.6V | 00:00:00 | 03:20:15 | 00:00:00 | |
| TFSTFS | 2026-09-01 01:10:17 | 52.65423 | 11.29858 | 121° | 71km/h | 8217m | -6.8m/s | -38.2°C | 26.3% | 351.2hPa | 2.6V | 02:37:00 | 00:00:00 | 00:00:00 | |
| AM1SDL-15 | 2026-09-01 01:10:16 | 52.65432 | 11.29833 | 120° | 71km/h | 8224m | -6.5m/s | -38.2°C | 29.3% | 350.8hPa | 2.6V | 00:00:00 | 03:20:13 | 00:00:00 | |
| DO2SHX-10 | 2026-09-01 01:10:15 | 52.65441 | 11.29807 | 121° | 71km/h | 8231m | -6.6m/s | -38.3°C | 29.4% | 350.4hPa | 2.6V | 00:00:00 | 03:20:12 | 00:00:00 | |
| DL1XH1-15 | 2026-09-01 01:10:14 | 52.65476 | 11.29704 | 118° | 71km/h | 8258m | -6.8m/s | -38.6°C | 30.1% | 349.1hPa | 2.6V | 02:36:51 | 03:20:08 | 00:00:00 | |
| AA1-15 | 2026-09-01 01:10:13 | 52.65459 | 11.29756 | 119° | 71km/h | 8245m | -7m/s | -38.5°C | 33% | 349.9hPa | 2.5V | 02:37:14 | 03:20:10 | 00:00:00 | |
| DL1XH-west | 2026-09-01 01:10:12 | 52.65468 | 11.29730 | 119° | 71km/h | 8252m | -6.8m/s | -38.6°C | 33.1% | 349.4hPa | 2.6V | 02:37:14 | 03:20:09 | 00:00:00 | |
| BIOWL1-15 | 2026-09-01 01:10:11 | 52.65502 | 11.29626 | 118° | 71km/h | 8279m | -6.6m/s | -38.8°C | 33.4% | 348.1hPa | 2.5V | 02:37:14 | 03:20:05 | 00:00:00 | |
| DF8AY | 2026-09-01 01:10:11 | 52.65476 | 11.29704 | 119° | 71km/h | 8258m | -6.8m/s | -38.6°C | 33.3% | 349.1hPa | 2.6V | 02:37:14 | 03:20:08 | 00:00:00 | |
| DB0DAN | 2026-09-01 01:10:10 | 52.65485 | 11.29678 | 118° | 68km/h | 8265m | -6.9m/s | -38.7°C | 26.9% | 348.74hPa | 2.6V | 00:00:00 | 00:00:00 | 00:00:00 | |
| DO2SHX-10 | 2026-09-01 01:10:09 | 52.65493 | 11.29652 | 119° | 71km/h | 8272m | -6.8m/s | -38.7°C | 30.4% | 348.4hPa | 2.6V | 00:00:00 | 03:20:06 | 00:00:00 | |
| DF7ER-10 | 2026-09-01 01:10:08 | 52.65493 | 11.29652 | 119° | 71km/h | 8272m | -6.9m/s | -38.8°C | 27.2% | 348.5hPa | 2.6V | 02:37:00 | 00:00:00 | 00:00:00 | |
| DF8AY-15 | 2026-09-01 01:10:06 | 52.65519 | 11.29574 | 119° | 71km/h | 8293m | -7.1m/s | -38.9°C | 30.7% | 347.3hPa | 2.6V | 00:00:00 | 03:20:03 | 00:00:00 | |
| GOEST3-10 | 2026-09-01 01:10:05 | 52.65527 | 11.29548 | 119° | 71km/h | 8300m | -7.1m/s | -39.0°C | 30.7% | 347.0hPa | 2.6V | 02:36:00 | 00:00:00 | 00:00:00 | |
| DL1XH1-15 | 2026-09-01 01:10:04 | 52.65561 | 11.29444 | 118° | 71km/h | 8328m | -7m/s | -39.3°C | 30.5% | 345.6hPa | 2.5V | 02:37:01 | 03:19:58 | 00:00:00 | |
| DL1XH-west | 2026-09-01 01:10:02 | 52.65553 | 11.29470 | 118° | 71km/h | 8321m | -7.1m/s | -39.2°C | 33.6% | 346hPa | 2.5V | 02:37:14 | 03:19:59 | 00:00:00 | |
| DF8AY | 2026-09-01 01:10:01 | 52.65561 | 11.29444 | 118° | 71km/h | 8328m | -7m/s | -39.3°C | 33.6% | 345.6hPa | 2.5V | 02:37:14 | 03:19:58 | 00:00:00 | |
| BIOWL1-15 | 2026-09-01 01:09:59 | 52.65578 | 11.29391 | 118° | 71km/h | 8341m | -7m/s | -39.4°C | 32.9% | 344.9hPa | 2.6V | 02:37:14 | 03:19:56 | 00:00:00 | |
| DM0DOS-11 | 2026-09-01 01:09:58 | 52.65620 | 11.29259 | 117° | 71km/h | 8377m | -7.2m/s | -39.7°C | 29.9% | 343.2hPa | 2.6V | 02:37:08 | 03:19:51 | 00:00:00 | |
| DO2SHX-10 | 2026-09-01 01:09:57 | 52.65595 | 11.29338 | 118° | 71km/h | 8356m | -7.2m/s | -39.5°C | 29.2% | 344.2hPa | 2.5V | 00:00:00 | 03:19:54 | 00:00:00 | |
| TFSTFS | 2026-09-01 01:09:56 | 52.65603 | 11.29312 | 119° | 71km/h | 8363m | -6.8m/s | -39.6°C | 26.3% | 343.9hPa | 2.5V | 02:37:00 | 00:00:00 | 00:00:00 | |
| GOEST3-10 | 2026-09-01 01:09:55 | 52.65611 | 11.29286 | 118° | 71km/h | 8370m | -7.1m/s | -39.6°C | 29.8% | 343.5hPa | 2.5V | 00:00:00 | 00:00:00 | 00:00:00 | |
| DL1XH1-15 | 2026-09-01 01:09:54 | 52.65645 | 11.29179 | 118° | 71km/h | 8398m | -7.1m/s | -39.9°C | 29.8% | 342.1hPa | 2.5V | 02:37:11 | 03:19:48 | 00:00:00 | |
| AA1-15 | 2026-09-01 01:09:51 | 52.65645 | 11.29179 | 118° | 71km/h | 8398m | -7.1m/s | -39.9°C | 32.7% | 342.1hPa | 2.5V | 02:37:14 | 03:19:48 | 00:00:00 | |
| DL1XH-15 | 2026-09-01 01:09:51 | 52.65689 | 11.29047 | 119° | 73km/h | 8434m | -7.1m/s | -40.3°C | 30.8% | 340.3hPa | 2.5V | 02:37:16 | 03:19:43 | 00:00:00 | |
| DF8AY | 2026-09-01 01:09:50 | 52.65654 | 11.29153 | 118° | 73km/h | 8406m | -7.2m/s | -40°C | 33% | 341.7hPa | 2.5V | 02:37:14 | 03:19:47 | 00:00:00 | |
| BIOWL1-15 | 2026-09-01 01:09:48 | 52.65671 | 11.29100 | 119° | 73km/h | 8420m | -6.9m/s | -40.1°C | 33.5% | 341hPa | 2.6V | 02:37:14 | 03:19:45 | 00:00:00 | |
| DM0DOS-11 | 2026-09-01 01:09:48 | 52.65706 | 11.28994 | 118° | 73km/h | 8448m | -7m/s | -40.4°C | 30.9% | 339.6hPa | 2.5V | 02:37:18 | 03:19:41 | 00:00:00 | |
| DO2SHX-10 | 2026-09-01 01:09:48 | 52.65671 | 11.29100 | 119° | 73km/h | 8420m | -6.9m/s | -40.1°C | 30.6% | 341.0hPa | 2.6V | 00:00:00 | 03:19:45 | 00:00:00 | |
| DF7ER-10 | 2026-09-01 01:09:47 | 52.65671 | 11.29100 | 120° | 73km/h | 8420m | -6.9m/s | -40.1°C | 27.2% | 341.0hPa | 2.6V | 02:37:00 | 00:00:00 | 00:00:00 | |
| DF8AY-15 | 2026-09-01 01:09:46 | 52.65689 | 11.29047 | 120° | 73km/h | 8434m | -7.0m/s | -40.2°C | 30.8% | 340.2hPa | 2.6V | 00:00:00 | 03:19:43 | 00:00:00 | |
| DL2RXE-15 | 2026-09-01 01:09:45 | 52.65697 | 11.29021 | 120° | 73km/h | 8442m | -7.2m/s | -40.3°C | 27.0% | 340.0hPa | 2.6V | 00:00:00 | 00:00:00 | 00:00:00 | |
| DL1XH1-15 | 2026-09-01 01:09:44 | 52.65732 | 11.28914 | 117° | 73km/h | 8470m | -6.6m/s | -40.6°C | 31.2% | 338.6hPa | 2.6V | 02:37:21 | 03:19:38 | 00:00:00 | |
| BIOWL9-15 | 2026-09-01 01:09:44 | 52.65706 | 11.28994 | 118° | 71km/h | 8448m | -7.0m/s | -40.4°C | 27.4% | 339.6hPa | 2.6V | 00:00:00 | 00:00:00 | 00:00:00 | |
| S3001 | 2026-09-01 01:09:43 | 52.65715 | 11.28968 | 117° | 71km/h | 8456m | -6.9m/s | -40.5°C | 27.6% | 339.2hPa | 2.6V | 00:00:00 | 00:00:00 | 00:00:00 | |
| DO2SHX-10 | 2026-09-01 01:09:42 | 52.65723 | 11.28941 | 118° | 73km/h | 8463m | -6.8m/s | -40.5°C | 31.1% | 338.9hPa | 2.6V | 00:00:00 | 03:19:39 | 00:00:00 | |
| DL1XH-15 | 2026-09-01 01:09:41 | 52.65774 | 11.28776 | 116° | 75km/h | 8504m | -7.1m/s | -40.9°C | 31.4% | 336.9hPa | 2.6V | 02:37:26 | 03:19:33 | 00:00:00 | |
| AA1-15 | 2026-09-01 01:09:40 | 52.65740 | 11.28887 | 117° | 73km/h | 8477m | -6.9m/s | -40.7°C | 33.9% | 338.2hPa | 2.6V | 02:38:05 | 03:19:37 | 00:00:00 | |
| DF8AY | 2026-09-01 01:09:39 | 52.65749 | 11.28859 | 117° | 73km/h | 8483m | -6.8m/s | -40.7°C | 33.9% | 337.9hPa | 2.5V | 02:38:05 | 03:19:36 | 00:00:00 | |
| BIOWL1-15 | 2026-09-01 01:09:37 | 52.65765 | 11.28804 | 116° | 75km/h | 8497m | -6.9m/s | -40.9°C | 34.2% | 337.2hPa | 2.5V | 02:38:05 | 03:19:34 | 00:00:00 | |
| DO2SHX-10 | 2026-09-01 01:09:36 | 52.65774 | 11.28776 | 117° | 75km/h | 8504m | -7.0m/s | -40.9°C | 31.4% | 336.8hPa | 2.6V | 02:37:00 | 03:19:33 | 00:00:00 | |
| DL4XJ-10 | 2026-09-01 01:09:35 | 52.65782 | 11.28749 | 117° | 75km/h | 8512m | -7.1m/s | -40.6°C | 0% | 0hPa | 2.6V | 00:00:00 | 00:00:00 | 00:00:00 | |
| DL1XH1-15 | 2026-09-01 01:09:34 | 52.65815 | 11.28638 | 116° | 75km/h | 8539m | -6.8m/s | -41.2°C | 31.6% | 335.1hPa | 2.6V | 02:37:31 | 03:19:28 | 00:00:00 | |
| DO2SHX-10 | 2026-09-01 01:09:33 | 52.65799 | 11.28694 | 117° | 75km/h | 8525m | -7.0m/s | -41.1°C | 31.5% | 335.8hPa | 2.6V | 00:00:00 | 03:19:30 | 00:00:00 | |
| GOEST3-10 | 2026-09-01 01:09:32 | 52.65807 | 11.28666 | 117° | 75km/h | 8532m | -6.7m/s | -41.1°C | 31.7% | 335.4hPa | 2.6V | 02:37:00 | 00:00:00 | 00:00:00 | |
| DL1XH-15 | 2026-09-01 01:09:31 | 52.65857 | 11.28498 | 116° | 75km/h | 8573m | -7.1m/s | -41.5°C | 31.5% | 333.4hPa | 2.5V | 02:37:36 | 03:19:23 | 00:00:00 | |
| DF8AY | 2026-09-01 01:09:29 | 52.65832 | 11.28582 | 116° | 75km/h | 8553m | -6.9m/s | -41.3°C | 34.6% | 334.4hPa | 2.5V | 02:38:05 | 03:19:26 | 00:00:00 | |
| AM1SDL-15 | 2026-09-01 01:09:28 | 52.65840 | 11.28554 | 117° | 77km/h | 8560m | -6.7m/s | -41.3°C | 31.8% | 334.0hPa | 2.6V | 02:37:00 | 03:19:25 | 00:00:00 | |
| BIOWL1-15 | 2026-09-01 01:09:28 | 52.65874 | 11.28441 | 116° | 77km/h | 8588m | -7m/s | -41.7°C | 34.9% | 332.7hPa | 2.6V | 02:38:05 | 03:19:21 | 00:00:00 | |
| DO2SHX-10 | 2026-09-01 01:09:27 | 52.65848 | 11.28526 | 116° | 75km/h | 8567m | -6.7m/s | -41.4°C | 31.7% | 333.8hPa | 2.6V | 02:37:00 | 03:19:24 | 00:00:00 | |
| DF8AY-15 | 2026-09-01 01:09:26 | 52.65857 | 11.28497 | 117° | 77km/h | 8574m | -7.1m/s | -41.5°C | 31.5% | 333.4hPa | 2.5V | 02:37:00 | 03:19:23 | 00:00:00 | |
| DL1XH1-15 | 2026-09-01 01:09:24 | 52.65899 | 11.28356 | 116° | 77km/h | 8610m | -7.3m/s | -41.9°C | 31.8% | 331.6hPa | 2.5V | 02:37:41 | 03:19:18 | 00:00:00 | |
| DO2SHX-10 | 2026-09-01 01:09:24 | 52.65874 | 11.28441 | 117° | 77km/h | 8588m | -6.9m/s | -41.6°C | 31.8% | 332.7hPa | 2.5V | 00:00:00 | 03:19:21 | 00:00:00 | |
| GOEST3-10 | 2026-09-01 01:09:22 | 52.65891 | 11.28384 | 117° | 77km/h | 8603m | -7.3m/s | -41.7°C | 31.7% | 332.0hPa | 2.5V | 00:00:00 | 00:00:00 | 00:00:00 | |
| DL1XH-15 | 2026-09-01 01:09:21 | 52.65942 | 11.28214 | 116° | 75km/h | 8646m | -7.3m/s | -42.1°C | 32.1% | 329.8hPa | 2.5V | 02:37:46 | 03:19:13 | 00:00:00 | |
| DL1XH-west | 2026-09-01 01:09:19 | 52.65916 | 11.28299 | 116° | 77km/h | 8625m | -7.3m/s | -42°C | 35.1% | 330.9hPa | 2.6V | 02:38:05 | 03:19:16 | 00:00:00 | |
| DF8AY | 2026-09-01 01:09:18 | 52.65925 | 11.28271 | 116° | 77km/h | 8632m | -7m/s | -42°C | 35% | 330.5hPa | 2.6V | 02:38:05 | 03:19:15 | 00:00:00 | |
| BIOWL1-15 | 2026-09-01 01:09:16 | 52.65942 | 11.28214 | 117° | 75km/h | 8646m | -7.3m/s | -42.2°C | 35.2% | 329.8hPa | 2.5V | 02:38:05 | 03:19:13 | 00:00:00 | |
| AM1SDL-15 | 2026-09-01 01:09:16 | 52.65942 | 11.28214 | 117° | 77km/h | 8647m | -7.3m/s | -42.1°C | 32.1% | 329.8hPa | 2.5V | 00:00:00 | 03:19:13 | 00:00:00 | |
| DM0DOS-11 | 2026-09-01 01:09:15 | 52.65959 | 11.28158 | 116° | 75km/h | 8661m | -7.3m/s | -42.3°C | 32.5% | 329.1hPa | 2.5V | 02:37:48 | 03:19:11 | 00:00:00 | |
| DL4XJ-10 | 2026-09-01 01:09:15 | 52.65951 | 11.28186 | 117° | 77km/h | 8654m | -7.1m/s | -41.8°C | 0% | 0hPa | 2.5V | 00:00:00 | 00:00:00 | 00:00:00 | |
| DL1XH1-15 | 2026-09-01 01:09:14 | 52.65984 | 11.28074 | 115° | 75km/h | 8683m | -7m/s | -42.5°C | 33% | 328.1hPa | 2.5V | 02:37:51 | 03:19:08 | 00:00:00 | |
| BIOWL9-15 | 2026-09-01 01:09:13 | 52.65976 | 11.28102 | 115° | 75km/h | 8675m | -7.1m/s | -42.4°C | 29.2% | 328.4hPa | 2.6V | 00:00:00 | 00:00:00 | 00:00:00 | |
| TFSTFS | 2026-09-01 01:09:12 | 52.65975 | 11.28102 | 116° | 75km/h | 8676m | -7.1m/s | -42.4°C | 29.2% | 328.4hPa | 2.6V | 02:38:00 | 00:00:00 | 00:00:00 | |
| DL1XH-15 | 2026-09-01 01:09:11 | 52.66025 | 11.27929 | 115° | 77km/h | 8719m | -7m/s | -42.8°C | 33.6% | 326.3hPa | 2.6V | 02:37:56 | 03:19:03 | 00:00:00 | |
| DD8BA-10 | 2026-09-01 01:09:10 | 52.65992 | 11.28045 | 116° | 78km/h | 8690m | -7.3m/s | -42.5°C | 33.1% | 327.7hPa | 2.5V | 00:00:00 | 00:00:00 | 00:00:00 | |
| DM0DOS-11 | 2026-09-01 01:09:09 | 52.66042 | 11.27870 | 115° | 78km/h | 8733m | -7m/s | -42.9°C | 33.8% | 325.7hPa | 2.5V | 02:37:58 | 03:19:01 | 00:00:00 | |
| DF8AY | 2026-09-01 01:09:08 | 52.66009 | 11.27987 | 115° | 77km/h | 8704m | -7.3m/s | -42.7°C | 36.2% | 327.1hPa | 2.5V | 02:38:05 | 03:19:05 | 00:00:00 | |
| AA1-15 | 2026-09-01 01:09:07 | 52.66017 | 11.27958 | 115° | 78km/h | 8712m | -7.3m/s | -42.7°C | 36.5% | 326.6hPa | 2.6V | 02:38:05 | 03:19:04 | 00:00:00 | |
| BIOWL1-15 | 2026-09-01 01:09:06 | 52.66060 | 11.27812 | 116° | 78km/h | 8747m | -7.1m/s | -43.1°C | 36.3% | 325hPa | 2.5V | 02:38:05 | 03:18:59 | 00:00:00 | |
| TFSTFS | 2026-09-01 01:09:06 | 52.66025 | 11.27929 | 117° | 77km/h | 8719m | -7.0m/s | -42.8°C | 29.7% | 326.3hPa | 2.6V | 02:38:00 | 00:00:00 | 00:00:00 | |
| DF7ER-10 | 2026-09-01 01:09:05 | 52.66025 | 11.27929 | 117° | 77km/h | 8719m | -7.0m/s | -42.8°C | 29.7% | 326.3hPa | 2.6V | 02:38:00 | 00:00:00 | 00:00:00 | |
| DL1XH1-15 | 2026-09-01 01:09:04 | 52.66068 | 11.27783 | 116° | 78km/h | 8755m | -7.2m/s | -43.1°C | 33.6% | 324.7hPa | 2.6V | 02:38:01 | 03:18:58 | 00:00:00 | |
| DO2SHX-10 | 2026-09-01 01:09:03 | 52.66051 | 11.27841 | 116° | 78km/h | 8741m | -6.9m/s | -43.0°C | 33.6% | 325.2hPa | 2.5V | 00:00:00 | 03:19:00 | 00:00:00 | |
| GOEST3-10 | 2026-09-01 01:09:02 | 52.66060 | 11.27812 | 117° | 78km/h | 8748m | -7.1m/s | -43.0°C | 33.5% | 325.0hPa | 2.5V | 02:38:00 | 00:00:00 | 00:00:00 | |
| DL1LOL-11 | 2026-09-01 01:09:01 | 52.66068 | 11.27783 | 117° | 78km/h | 8755m | -7.2m/s | -43.1°C | 29.6% | 324.7hPa | 2.6V | 02:38:00 | 00:00:00 | 00:00:00 | |
| DD8BA-10 | 2026-09-01 01:09:00 | 52.66077 | 11.27753 | 117° | 78km/h | 8762m | -6.9m/s | -43.1°C | 33.6% | 324.2hPa | 2.6V | 00:00:00 | 00:00:00 | 00:00:00 | |
| DM0DOS-11 | 2026-09-01 01:08:59 | 52.66132 | 11.27581 | 118° | 78km/h | 8805m | -6.8m/s | -43.5°C | 33.8% | 322.1hPa | 2.6V | 02:38:08 | 03:18:51 | 00:00:00 | |
| DF8AY | 2026-09-01 01:08:57 | 52.66104 | 11.27667 | 117° | 78km/h | 8784m | -7.3m/s | -43.3°C | 35.8% | 323.2hPa | 2.5V | 02:38:05 | 03:18:54 | 00:00:00 | |
| AA1-15 | 2026-09-01 01:08:56 | 52.66113 | 11.27638 | 118° | 77km/h | 8791m | -7.2m/s | -43.4°C | 36.3% | 322.9hPa | 2.5V | 02:38:56 | 03:18:53 | 00:00:00 | |
| BIOWL1-15 | 2026-09-01 01:08:53 | 52.66141 | 11.27553 | 118° | 78km/h | 8812m | -7m/s | -43.5°C | 36.7% | 321.9hPa | 2.6V | 02:38:56 | 03:18:50 | 00:00:00 | |
| DL1XH1-15 | 2026-09-01 01:08:52 | 52.66159 | 11.27496 | 117° | 77km/h | 8827m | -7.2m/s | -43.6°C | 34.1% | 321.2hPa | 2.5V | 02:38:11 | 03:18:48 | 00:00:00 | |
| GOEST3-10 | 2026-09-01 01:08:52 | 52.66150 | 11.27524 | 118° | 77km/h | 8819m | -6.9m/s | -43.5°C | 34.4% | 321.4hPa | 2.5V | 00:00:00 | 00:00:00 | 00:00:00 | |
| DL1XH-15 | 2026-09-01 01:08:51 | 52.66204 | 11.27354 | 118° | 77km/h | 8861m | -6.9m/s | -43.9°C | 35.6% | 319.5hPa | 2.5V | 02:38:16 | 03:18:43 | 00:00:00 | |
| DO2SHX-10 | 2026-09-01 01:08:51 | 52.66159 | 11.27496 | 118° | 77km/h | 8827m | -7.1m/s | -43.6°C | 34.1% | 321.2hPa | 2.5V | 02:38:00 | 03:18:48 | 00:00:00 | |
| TFSTFS | 2026-09-01 01:08:50 | 52.66159 | 11.27496 | 119° | 77km/h | 8827m | -7.2m/s | -43.6°C | 30.0% | 321.2hPa | 2.5V | 00:00:00 | 00:00:00 | 00:00:00 | |
| DM0DOS-11 | 2026-09-01 01:08:49 | 52.66223 | 11.27297 | 118° | 77km/h | 8875m | -7.1m/s | -44°C | 36% | 318.9hPa | 2.5V | 02:38:18 | 03:18:41 | 00:00:00 | |
| DL1XH-west | 2026-09-01 01:08:47 | 52.66195 | 11.27383 | 118° | 77km/h | 8855m | -6.6m/s | -43.8°C | 38.2% | 319.9hPa | 2.6V | 02:38:56 | 03:18:44 | 00:00:00 | |
| AA1-15 | 2026-09-01 01:08:46 | 52.66205 | 11.27354 | 118° | 77km/h | 8861m | -6.9m/s | -43.9°C | 38.5% | 319.5hPa | 2.5V | 02:38:56 | 03:18:43 | 00:00:00 | |
| BIOWL1-15 | 2026-09-01 01:08:43 | 52.66260 | 11.27184 | 118° | 77km/h | 8904m | -7.2m/s | -44.3°C | 39.5% | 317.5hPa | 2.5V | 02:38:56 | 03:18:37 | 00:00:00 | |
| DO2SHX-10 | 2026-09-01 01:08:42 | 52.66241 | 11.27241 | 119° | 77km/h | 8890m | -6.6m/s | -44.1°C | 36.5% | 318.1hPa | 2.6V | 02:38:00 | 03:18:39 | 00:00:00 | |
| TFSTFS | 2026-09-01 01:08:41 | 52.66241 | 11.27241 | 119° | 77km/h | 8890m | -6.6m/s | -44.1°C | 32.1% | 318.1hPa | 2.5V | 02:38:00 | 00:00:00 | 00:00:00 | |
| DB0DAN | 2026-09-01 01:08:40 | 52.66260 | 11.27184 | 118° | 73km/h | 8904m | -7.2m/s | -44.3°C | 32.2% | 317.52hPa | 2.5V | 00:00:00 | 00:00:00 | 00:00:00 | |
| DJ2DS-15 | 2026-09-01 01:08:40 | 52.66269 | 11.27156 | 118° | 75km/h | 8911m | -7.1m/s | -44.3°C | 32.5% | 317.2hPa | 2.5V | 00:00:00 | 00:00:00 | 00:00:00 | |
| DO2SHX-10 | 2026-09-01 01:08:39 | 52.66269 | 11.27156 | 119° | 77km/h | 8911m | -7.1m/s | -44.3°C | 36.9% | 317.2hPa | 2.5V | 00:00:00 | 03:18:36 | 00:00:00 | |
| DM0DOS-11 | 2026-09-01 01:08:38 | 52.66313 | 11.27016 | 116° | 75km/h | 8946m | -6.8m/s | -44.7°C | 37.7% | 315.5hPa | 2.5V | 02:38:28 | 03:18:31 | 00:00:00 | |
| DL1XH-15 | 2026-09-01 01:08:37 | 52.66296 | 11.27072 | 118° | 75km/h | 8932m | -6.8m/s | -44.5°C | 37.5% | 316.2hPa | 2.6V | 02:38:26 | 03:18:33 | 00:00:00 | |
| AA1-15 | 2026-09-01 01:08:36 | 52.66296 | 11.27072 | 118° | 75km/h | 8932m | -6.8m/s | -44.5°C | 40.3% | 316.2hPa | 2.6V | 02:38:56 | 03:18:33 | 00:00:00 | |
| BIOWL1-15 | 2026-09-01 01:08:32 | 52.66330 | 11.26960 | 117° | 77km/h | 8960m | -6.8m/s | -44.8°C | 40.6% | 314.9hPa | 2.5V | 02:38:56 | 03:18:29 | 00:00:00 | |
| GOEST3-10 | 2026-09-01 01:08:32 | 52.66330 | 11.26960 | 117° | 77km/h | 8960m | -6.7m/s | -44.8°C | 38.1% | 314.8hPa | 2.5V | 02:38:00 | 00:00:00 | 00:00:00 | |
| DL1XH-15 | 2026-09-01 01:08:31 | 52.66383 | 11.26787 | 116° | 78km/h | 9002m | -6.9m/s | -45.2°C | 38% | 312.8hPa | 2.5V | 02:38:36 | 03:18:23 | 00:00:00 | |
| BIOWL1-15 | 2026-09-01 01:08:26 | 52.66427 | 11.26639 | 116° | 80km/h | 9038m | -7.1m/s | -45.5°C | 39.8% | 311.2hPa | 2.5V | 02:38:56 | 03:18:18 | 00:00:00 | |
| DF8AY | 2026-09-01 01:08:25 | 52.66392 | 11.26758 | 117° | 78km/h | 9009m | -7.2m/s | -45.3°C | 40.6% | 312.6hPa | 2.5V | 02:38:56 | 03:18:22 | 00:00:00 | |
| DM0DOS-11 | 2026-09-01 01:08:25 | 52.66401 | 11.26729 | 116° | 78km/h | 9016m | -6.8m/s | -45.3°C | 38.4% | 312.1hPa | 2.6V | 02:38:38 | 03:18:21 | 00:00:00 | |
| DL1XH1-15 | 2026-09-01 01:08:25 | 52.66427 | 11.26639 | 115° | 80km/h | 9038m | -7.1m/s | -45.5°C | 37.5% | 311.2hPa | 2.5V | 02:38:41 | 03:18:18 | 00:00:00 | |
| DO2SHX-10 | 2026-09-01 01:08:24 | 52.66401 | 11.26729 | 117° | 80km/h | 9016m | -6.8m/s | -45.3°C | 38.4% | 312.1hPa | 2.6V | 02:38:00 | 03:18:21 | 00:00:00 | |
| DF7ER-10 | 2026-09-01 01:08:23 | 52.66401 | 11.26729 | 117° | 80km/h | 9016m | -6.8m/s | -45.3°C | 33.7% | 312.1hPa | 2.5V | 02:38:00 | 00:00:00 | 00:00:00 | |
| GOEST3-10 | 2026-09-01 01:08:22 | 52.66418 | 11.26669 | 116° | 80km/h | 9031m | -7.1m/s | -45.4°C | 37.8% | 311.5hPa | 2.5V | 00:00:00 | 00:00:00 | 00:00:00 | |
| DO2SHX-10 | 2026-09-01 01:08:21 | 52.66427 | 11.26638 | 116° | 80km/h | 9038m | -7.0m/s | -45.4°C | 37.5% | 311.1hPa | 2.5V | 00:00:00 | 03:18:18 | 00:00:00 | |
| DM0DOS-11 | 2026-09-01 01:08:19 | 52.66488 | 11.26424 | 115° | 82km/h | 9086m | -7.1m/s | -45.8°C | 36.3% | 308.9hPa | 2.5V | 02:38:48 | 03:18:11 | 00:00:00 | |
| DD8BA-10 | 2026-09-01 01:08:19 | 52.66444 | 11.26577 | 115° | 84km/h | 9052m | -6.7m/s | -45.5°C | 37.5% | 310.5hPa | 2.5V | 02:38:00 | 00:00:00 | 00:00:00 | |
| DO2SHX-10 | 2026-09-01 01:08:18 | 52.66453 | 11.26547 | 116° | 82km/h | 9058m | -6.9m/s | -45.6°C | 37.4% | 310.2hPa | 2.5V | 00:00:00 | 03:18:15 | 00:00:00 | |
| DL1XH-15 | 2026-09-01 01:08:17 | 52.66470 | 11.26485 | 115° | 82km/h | 9072m | -6.6m/s | -45.7°C | 36.8% | 309.6hPa | 2.5V | 02:38:46 | 03:18:13 | 00:00:00 | |
| DF8AY | 2026-09-01 01:08:15 | 52.66479 | 11.26455 | 115° | 82km/h | 9079m | -7.1m/s | -45.8°C | 38.4% | 309.3hPa | 2.5V | 02:38:56 | 03:18:12 | 00:00:00 | |
| DL1XH-west | 2026-09-01 01:08:14 | 52.66488 | 11.26424 | 116° | 82km/h | 9086m | -7.1m/s | -45.8°C | 38.5% | 308.9hPa | 2.5V | 02:38:56 | 03:18:11 | 00:00:00 | |
| DF7ER-10 | 2026-09-01 01:08:13 | 52.66497 | 11.26392 | 117° | 84km/h | 9094m | -7.3m/s | -45.8°C | 31.3% | 308.6hPa | 2.6V | 02:38:00 | 00:00:00 | 00:00:00 | |
| DL1XH1-15 | 2026-09-01 01:08:12 | 52.66515 | 11.26330 | 115° | 84km/h | 9108m | -6.7m/s | -45.9°C | 35.6% | 307.9hPa | 2.6V | 02:38:51 | 03:18:08 | 00:00:00 | |
| BIOWL1-15 | 2026-09-01 01:08:10 | 52.66534 | 11.26266 | 116° | 86km/h | 9121m | -6.9m/s | -46°C | 37.1% | 307.3hPa | 2.5V | 02:38:56 | 03:18:06 | 00:00:00 | |
| DM0DOS-11 | 2026-09-01 01:08:09 | 52.66582 | 11.26103 | 115° | 88km/h | 9156m | -6.6m/s | -46.2°C | 34.3% | 305.7hPa | 2.6V | 02:38:58 | 03:18:01 | 00:00:00 | |
| DO2SHX-10 | 2026-09-01 01:08:09 | 52.66534 | 11.26266 | 117° | 86km/h | 9122m | -6.8m/s | -45.9°C | 34.9% | 307.3hPa | 2.6V | 00:00:00 | 03:18:06 | 00:00:00 | |
| DD8BA-10 | 2026-09-01 01:08:08 | 52.66544 | 11.26234 | 117° | 89km/h | 9128m | -6.7m/s | -46.0°C | 34.9% | 306.9hPa | 2.6V | 00:00:00 | 00:00:00 | 00:00:00 | |
| DL1XH-15 | 2026-09-01 01:08:07 | 52.66563 | 11.26169 | 116° | 88km/h | 9142m | -6.8m/s | -46.1°C | 34.9% | 306.4hPa | 2.6V | 02:38:56 | 03:18:03 | 00:00:00 | |
| EDDB2-12 | 2026-09-01 01:08:07 | 52.66563 | 11.26169 | 116° | 88km/h | 9142m | -6.8m/s | -46.2°C | 30.3% | 306.4hPa | 2.5V | 00:00:00 | 00:00:00 | 00:00:00 | |
| DF8AY-15 | 2026-09-01 01:08:06 | 52.66563 | 11.26169 | 117° | 91km/h | 9142m | -6.7m/s | -46.1°C | 34.9% | 306.3hPa | 2.5V | 00:00:00 | 03:18:03 | 00:00:00 | |
| DL1XH1-15 | 2026-09-01 01:08:05 | 52.66612 | 11.26003 | 115° | 89km/h | 9177m | -7.3m/s | -46.3°C | 33.3% | 304.8hPa | 2.5V | 02:39:01 | 03:17:58 | 00:00:00 | |
| DF8AY | 2026-09-01 01:08:04 | 52.66583 | 11.26103 | 116° | 88km/h | 9156m | -6.6m/s | -46.3°C | 36.5% | 305.8hPa | 2.6V | 02:39:47 | 03:18:01 | 00:00:00 | |
| DL1XH-west | 2026-09-01 01:08:03 | 52.66592 | 11.26070 | 116° | 89km/h | 9163m | -6.7m/s | -46.3°C | 36.1% | 305.4hPa | 2.5V | 02:39:47 | 03:18:00 | 00:00:00 | |
| DO2SHX-10 | 2026-09-01 01:08:03 | 52.66592 | 11.26069 | 116° | 89km/h | 9163m | -6.7m/s | -46.3°C | 33.9% | 305.4hPa | 2.5V | 00:00:00 | 03:18:00 | 00:00:00 | |
| GOEST3-10 | 2026-09-01 01:08:02 | 52.66602 | 11.26036 | 116° | 91km/h | 9170m | -7.2m/s | -46.3°C | 33.7% | 305.0hPa | 2.5V | 02:39:00 | 00:00:00 | 00:00:00 | |
| DF7ER-10 | 2026-09-01 01:08:01 | 52.66602 | 11.26036 | 117° | 89km/h | 9170m | -7.2m/s | -46.3°C | 29.2% | 305.1hPa | 2.6V | 02:39:00 | 00:00:00 | 00:00:00 | |
| DO2SHX-10 | 2026-09-01 01:08:00 | 52.66622 | 11.25969 | 116° | 91km/h | 9185m | -7.2m/s | -46.3°C | 33.2% | 304.4hPa | 2.6V | 00:00:00 | 03:17:57 | 00:00:00 | |
| DM0DOS-11 | 2026-09-01 01:07:59 | 52.66682 | 11.25762 | 116° | 91km/h | 9228m | -7.5m/s | -46.2°C | 32.4% | 302.4hPa | 2.6V | 02:39:08 | 03:17:51 | 00:00:00 | |
| DB0UT-7 | 2026-09-01 01:07:58 | 52.66642 | 11.25900 | 116° | 95km/h | 9199m | -6.9m/s | -46.2°C | 32.8% | 303.7hPa | 2.5V | 00:00:00 | 00:00:00 | 00:00:00 | |
| DL1XH-15 | 2026-09-01 01:07:57 | 52.66662 | 11.25832 | 115° | 91km/h | 9213m | -7m/s | -46.2°C | 32.5% | 303.1hPa | 2.5V | 02:39:06 | 03:17:53 | 00:00:00 | |
| DF8AY | 2026-09-01 01:07:54 | 52.66682 | 11.25763 | 116° | 91km/h | 9228m | -7.5m/s | -46.2°C | 35.1% | 302.4hPa | 2.6V | 02:39:47 | 03:17:51 | 00:00:00 | |
| DL1XH-west | 2026-09-01 01:07:53 | 52.66693 | 11.25728 | 116° | 91km/h | 9235m | -6.8m/s | -46.3°C | 35.1% | 302.1hPa | 2.6V | 02:39:47 | 03:17:50 | 00:00:00 | |
| AA1-15 | 2026-09-01 01:07:53 | 52.66703 | 11.25694 | 116° | 91km/h | 9242m | -7.2m/s | -46.3°C | 35.1% | 301.8hPa | 2.5V | 02:39:47 | 03:17:49 | 00:00:00 | |
| DL1XH1-15 | 2026-09-01 01:07:52 | 52.66713 | 11.25660 | 115° | 91km/h | 9249m | -7.4m/s | -46.4°C | 32.4% | 301.5hPa | 2.5V | 02:39:11 | 03:17:48 | 00:00:00 | |
| GOEST3-10 | 2026-09-01 01:07:52 | 52.66703 | 11.25694 | 117° | 93km/h | 9242m | -7.1m/s | -46.3°C | 32.6% | 301.7hPa | 2.5V | 00:00:00 | 00:00:00 | 00:00:00 | |
| DO2SHX-10 | 2026-09-01 01:07:51 | 52.66713 | 11.25660 | 116° | 93km/h | 9249m | -7.3m/s | -46.3°C | 32.4% | 301.5hPa | 2.5V | 00:00:00 | 03:17:48 | 00:00:00 | |
| DF7ER-10 | 2026-09-01 01:07:50 | 52.66713 | 11.25660 | 116° | 91km/h | 9249m | -7.4m/s | -46.4°C | 28.0% | 301.5hPa | 2.5V | 02:39:00 | 00:00:00 | 00:00:00 | |
| DM0DOS-11 | 2026-09-01 01:07:49 | 52.66783 | 11.25412 | 115° | 95km/h | 9300m | -7.2m/s | -46.9°C | 32.4% | 299.2hPa | 2.5V | 02:39:18 | 03:17:41 | 00:00:00 | |
| DB0NH | 2026-09-01 01:07:49 | 52.66733 | 11.25590 | 116° | 99km/h | 9264m | -7.6m/s | -46.5°C | 32.5% | 300.8hPa | 2.5V | 00:00:00 | 03:17:46 | 00:00:00 | |
| DD8BA-10 | 2026-09-01 01:07:48 | 52.66742 | 11.25555 | 116° | 95km/h | 9271m | -7.3m/s | -46.5°C | 32.5% | 300.4hPa | 2.5V | 02:39:00 | 00:00:00 | 00:00:00 | |
| DL1XH-15 | 2026-09-01 01:07:47 | 52.66763 | 11.25484 | 115° | 95km/h | 9286m | -6.8m/s | -46.7°C | 32.9% | 299.9hPa | 2.6V | 02:39:16 | 03:17:43 | 00:00:00 | |
| GOEST3-10 | 2026-09-01 01:07:47 | 52.66753 | 11.25519 | 116° | 95km/h | 9279m | -7.2m/s | -46.6°C | 32.7% | 300.1hPa | 2.5V | 02:39:00 | 03:17:44 | 00:00:00 | |
| DF8AY-15 | 2026-09-01 01:07:46 | 52.66763 | 11.25484 | 116° | 99km/h | 9286m | -6.7m/s | -46.7°C | 32.9% | 299.8hPa | 2.6V | 00:00:00 | 03:17:43 | 00:00:00 | |
| DL1XH1-15 | 2026-09-01 01:07:45 | 52.66814 | 11.25303 | 115° | 97km/h | 9322m | -7m/s | -47.1°C | 32.9% | 298.2hPa | 2.6V | 02:39:21 | 03:17:38 | 00:00:00 | |
| DF8AY | 2026-09-01 01:07:44 | 52.66783 | 11.25412 | 115° | 95km/h | 9300m | -7.2m/s | -46.9°C | 34.6% | 299.2hPa | 2.5V | 02:39:47 | 03:17:41 | 00:00:00 | |
| DL1XH-west | 2026-09-01 01:07:42 | 52.66804 | 11.25339 | 115° | 97km/h | 9314m | -7m/s | -47°C | 34.8% | 298.6hPa | 2.5V | 02:39:47 | 03:17:39 | 00:00:00 | |
| DO2SHX-10 | 2026-09-01 01:07:42 | 52.66804 | 11.25339 | 116° | 97km/h | 9315m | -7.0m/s | -46.9°C | 32.9% | 298.5hPa | 2.6V | 00:00:00 | 03:17:39 | 00:00:00 | |
| BIOWL9-15 | 2026-09-01 01:07:40 | 52.66836 | 11.25229 | 116° | 99km/h | 9336m | -7.0m/s | -47.2°C | 27.8% | 297.6hPa | 2.6V | 00:00:00 | 00:00:00 | 00:00:00 | |
| DM0DOS-11 | 2026-09-01 01:07:39 | 52.66893 | 11.25045 | 118° | 99km/h | 9373m | -7.3m/s | -47.5°C | 31% | 295.9hPa | 2.6V | 02:39:28 | 03:17:31 | 00:00:00 | |
| DO2SHX-10 | 2026-09-01 01:07:39 | 52.66836 | 11.25229 | 117° | 99km/h | 9336m | -6.9m/s | -47.1°C | 32.3% | 297.5hPa | 2.6V | 02:39:00 | 03:17:36 | 00:00:00 | |
| DD8BA-10 | 2026-09-01 01:07:38 | 52.66847 | 11.25192 | 117° | 99km/h | 9344m | -7.1m/s | -47.2°C | 32.1% | 297.2hPa | 2.5V | 00:00:00 | 00:00:00 | 00:00:00 | |
| DL1XH-15 | 2026-09-01 01:07:37 | 52.66870 | 11.25119 | 116° | 99km/h | 9358m | -7.1m/s | -47.4°C | 31.5% | 296.6hPa | 2.5V | 02:39:26 | 03:17:33 | 00:00:00 | |
| DF8AY | 2026-09-01 01:07:33 | 52.66905 | 11.25009 | 118° | 100km/h | 9380m | -7.3m/s | -47.5°C | 31.9% | 295.6hPa | 2.5V | 02:39:47 | 03:17:30 | 00:00:00 | |
| DO2SHX-10 | 2026-09-01 01:07:33 | 52.66905 | 11.25008 | 118° | 99km/h | 9380m | -7.3m/s | -47.5°C | 30.6% | 295.5hPa | 2.5V | 00:00:00 | 03:17:30 | 00:00:00 | |
| DL1XH1-15 | 2026-09-01 01:07:32 | 52.66928 | 11.24936 | 117° | 99km/h | 9395m | -7m/s | -47.6°C | 30.1% | 294.9hPa | 2.5V | 02:39:31 | 03:17:28 | 00:00:00 | |
| AA1-15 | 2026-09-01 01:07:32 | 52.66917 | 11.24972 | 118° | 99km/h | 9388m | -7.1m/s | -47.5°C | 31.2% | 295.2hPa | 2.5V | 02:39:47 | 03:17:29 | 00:00:00 | |
| GOEST3-10 | 2026-09-01 01:07:32 | 52.66917 | 11.24972 | 118° | 99km/h | 9388m | -7.0m/s | -47.5°C | 30.1% | 295.2hPa | 2.5V | 02:39:00 | 00:00:00 | 00:00:00 | |
| DO2SHX-10 | 2026-09-01 01:07:30 | 52.66940 | 11.24899 | 117° | 99km/h | 9402m | -6.9m/s | -47.6°C | 29.7% | 294.5hPa | 2.5V | 02:39:00 | 03:17:27 | 00:00:00 | |
| SONCRA | 2026-09-01 01:07:29 | 52.66962 | 11.24825 | 115° | 99km/h | 9415m | -6.9m/s | -47.7°C | 24.2% | 294.0hPa | 2.5V | 00:00:00 | 00:00:00 | 00:00:00 | |
| DM0DOS-11 | 2026-09-01 01:07:28 | 52.67006 | 11.24673 | 114° | 104km/h | 9442m | -6.8m/s | -47.5°C | 25.6% | 292.8hPa | 2.5V | 02:39:38 | 03:17:21 | 00:00:00 | |
| DB0UT-7 | 2026-09-01 01:07:28 | 52.66962 | 11.24825 | 116° | 117km/h | 9415m | -6.8m/s | -47.6°C | 28.6% | 293.9hPa | 2.6V | 02:39:00 | 03:17:25 | 00:00:00 | |
| BUE01 | 2026-09-01 01:07:27 | 52.66984 | 11.24750 | 115° | 100km/h | 9429m | -6.6m/s | -47.6°C | 22.6% | 293.3hPa | 2.5V | 00:00:00 | 00:00:00 | 00:00:00 | |
| DF8AY-15 | 2026-09-01 01:07:26 | 52.66984 | 11.24749 | 116° | 106km/h | 9429m | -6.5m/s | -47.5°C | 26.8% | 293.3hPa | 2.5V | 02:39:00 | 03:17:23 | 00:00:00 | |
| DL1XH1-15 | 2026-09-01 01:07:25 | 52.67038 | 11.24555 | 114° | 106km/h | 9464m | -7.8m/s | -47.4°C | 23.8% | 291.9hPa | 2.5V | 02:39:41 | 03:17:18 | 00:00:00 | |
| DF8AY | 2026-09-01 01:07:22 | 52.67028 | 11.24594 | 115° | 104km/h | 9456m | -7.4m/s | -47.4°C | 26% | 292.1hPa | 2.6V | 02:39:47 | 03:17:19 | 00:00:00 | |
| BIOWL1-15 | 2026-09-01 01:07:21 | 52.67038 | 11.24555 | 115° | 106km/h | 9464m | -7.9m/s | -47.4°C | 25.5% | 291.9hPa | 2.5V | 02:39:47 | 03:17:18 | 00:00:00 | |
| DO2SHX-10 | 2026-09-01 01:07:20 | 52.67049 | 11.24515 | 115° | 106km/h | 9472m | -7.6m/s | -47.4°C | 23.4% | 291.5hPa | 2.5V | 02:39:00 | 03:17:17 | 00:00:00 | |
| DB0NH | 2026-09-01 01:07:19 | 52.67060 | 11.24475 | 115° | 119km/h | 9480m | -7.7m/s | -47.4°C | 22.8% | 291.1hPa | 2.5V | 00:00:00 | 03:17:16 | 00:00:00 | |
| DD8BA-10 | 2026-09-01 01:07:18 | 52.67072 | 11.24434 | 115° | 108km/h | 9488m | -7.6m/s | -47.3°C | 22.4% | 290.8hPa | 2.5V | 02:39:00 | 00:00:00 | 00:00:00 | |
| DM0DOS-11 | 2026-09-01 01:07:17 | 52.67118 | 11.24273 | 115° | 108km/h | 9517m | -7m/s | -47.3°C | 21.1% | 289.5hPa | 2.5V | 02:39:48 | 03:17:11 | 00:00:00 | |
| DF8AY | 2026-09-01 01:07:13 | 52.67141 | 11.24192 | 115° | 108km/h | 9530m | -6.8m/s | -47.3°C | 22.1% | 288.9hPa | 2.6V | 02:40:38 | 03:17:09 | 00:00:00 | |
| DL1XH-west | 2026-09-01 01:07:11 | 52.67152 | 11.24151 | 114° | 108km/h | 9537m | -6.9m/s | -47.4°C | 21.8% | 288.6hPa | 2.5V | 02:40:38 | 03:17:08 | 00:00:00 | |
| BIOWL1-15 | 2026-09-01 01:07:10 | 52.67163 | 11.24110 | 113° | 108km/h | 9544m | -7m/s | -47.4°C | 21.7% | 288.2hPa | 2.5V | 02:40:38 | 03:17:07 | 00:00:00 | |
| DF7ER-10 | 2026-09-01 01:07:09 | 52.67174 | 11.24069 | 114° | 110km/h | 9552m | -7.9m/s | -47.5°C | 16.9% | 288.0hPa | 2.6V | 02:40:00 | 00:00:00 | 00:00:00 | |
| DD8BA-10 | 2026-09-01 01:07:08 | 52.67185 | 11.24026 | 113° | 113km/h | 9559m | -7.2m/s | -47.4°C | 20.3% | 287.6hPa | 2.6V | 00:00:00 | 00:00:00 | 00:00:00 | |
| DM0DOS-11 | 2026-09-01 01:07:06 | 52.67229 | 11.23854 | 113° | 113km/h | 9588m | -6.7m/s | -47.6°C | 19.7% | 286.4hPa | 2.6V | 02:39:58 | 03:17:01 | 00:00:00 | |
| DF8AY-15 | 2026-09-01 01:07:06 | 52.67207 | 11.23940 | 114° | 117km/h | 9574m | -7.0m/s | -47.5°C | 20.0% | 286.9hPa | 2.5V | 00:00:00 | 03:17:03 | 00:00:00 | |
| DL1XH1-15 | 2026-09-01 01:07:05 | 52.67263 | 11.23724 | 113° | 115km/h | 9611m | -7.4m/s | -47.7°C | 18.7% | 285.4hPa | 2.5V | 02:40:01 | 03:16:58 | 00:00:00 | |
| DF8AY | 2026-09-01 01:07:02 | 52.67252 | 11.23767 | 113° | 113km/h | 9604m | -7.4m/s | -47.7°C | 19.8% | 285.7hPa | 2.6V | 02:40:38 | 03:16:59 | 00:00:00 | |
| AA1-15 | 2026-09-01 01:07:00 | 52.67286 | 11.23636 | 114° | 115km/h | 9627m | -7.9m/s | -47.6°C | 18.5% | 284.7hPa | 2.5V | 02:40:38 | 03:16:56 | 00:00:00 | |
| DL1XH-west | 2026-09-01 01:07:00 | 52.67275 | 11.23680 | 113° | 115km/h | 9619m | -7.9m/s | -47.7°C | 19% | 285hPa | 2.5V | 02:40:38 | 03:16:57 | 00:00:00 | |
| BIOWL1-15 | 2026-09-01 01:06:59 | 52.67334 | 11.23460 | 114° | 117km/h | 9658m | -7.4m/s | -47.3°C | 17.3% | 283.5hPa | 2.5V | 02:40:38 | 03:16:52 | 00:00:00 | |
| DM0DOS-11 | 2026-09-01 01:06:59 | 52.67346 | 11.23415 | 114° | 117km/h | 9665m | -7.4m/s | -47.4°C | 16.3% | 283hPa | 2.5V | 02:40:08 | 03:16:51 | 00:00:00 | |
| SONCRA | 2026-09-01 01:06:58 | 52.67310 | 11.23548 | 113° | 115km/h | 9643m | -7.3m/s | -47.4°C | 13.6% | 284.1hPa | 2.6V | 00:00:00 | 00:00:00 | 00:00:00 | |
| DL1XH-15 | 2026-09-01 01:06:57 | 52.67322 | 11.23504 | 114° | 117km/h | 9650m | -7.3m/s | -47.3°C | 16.5% | 283.8hPa | 2.6V | 02:40:06 | 03:16:53 | 00:00:00 | |
| BUE01 | 2026-09-01 01:06:56 | 52.67334 | 11.23460 | 114° | 117km/h | 9658m | -7.4m/s | -47.3°C | 13.1% | 283.5hPa | 2.5V | 00:00:00 | 00:00:00 | 00:00:00 | |
| DB0DAN | 2026-09-01 01:06:55 | 52.67334 | 11.23460 | 114° | 111km/h | 9658m | -7.4m/s | -47.3°C | 13.1% | 283.49hPa | 2.5V | 00:00:00 | 00:00:00 | 00:00:00 | |
| BIOWL1-15 | 2026-09-01 01:06:52 | 52.67474 | 11.22956 | 116° | 124km/h | 9740m | -7.9m/s | -47.4°C | 16.8% | 279.9hPa | 2.6V | 02:40:38 | 03:16:41 | 00:00:00 | |
| DL1XH1-15 | 2026-09-01 01:06:52 | 52.67383 | 11.23280 | 114° | 120km/h | 9688m | -7.8m/s | -47.3°C | 16.1% | 282.1hPa | 2.6V | 02:40:11 | 03:16:48 | 00:00:00 | |
| DF8AY | 2026-09-01 01:06:52 | 52.67371 | 11.23325 | 114° | 119km/h | 9680m | -7.8m/s | -47.3°C | 17.2% | 282.4hPa | 2.6V | 02:40:38 | 03:16:49 | 00:00:00 | |
| DL1XH-west | 2026-09-01 01:06:50 | 52.67396 | 11.23234 | 114° | 120km/h | 9696m | -7.3m/s | -47.3°C | 17% | 281.8hPa | 2.6V | 02:40:38 | 03:16:47 | 00:00:00 | |
| AA1-15 | 2026-09-01 01:06:49 | 52.67408 | 11.23188 | 114° | 122km/h | 9704m | -7.4m/s | -47.2°C | 16.9% | 281.5hPa | 2.5V | 02:40:38 | 03:16:46 | 00:00:00 | |
| GOEST3-10 | 2026-09-01 01:06:49 | 52.67408 | 11.23188 | 115° | 122km/h | 9704m | -7.3m/s | -47.2°C | 15.9% | 281.4hPa | 2.5V | 00:00:00 | 00:00:00 | 00:00:00 | |
| DD8BA-10 | 2026-09-01 01:06:48 | 52.67421 | 11.23142 | 115° | 124km/h | 9711m | -7.2m/s | -47.2°C | 15.8% | 281.1hPa | 2.5V | 02:40:00 | 00:00:00 | 00:00:00 | |
| DL1XH-15 | 2026-09-01 01:06:47 | 52.67447 | 11.23049 | 115° | 124km/h | 9725m | -7.1m/s | -47.3°C | 15.9% | 280.5hPa | 2.6V | 02:40:16 | 03:16:43 | 00:00:00 | |
| DO2SHX-10 | 2026-09-01 01:06:47 | 52.67434 | 11.23095 | 116° | 124km/h | 9718m | -6.9m/s | -47.2°C | 15.8% | 280.7hPa | 2.5V | 00:00:00 | 03:16:44 | 00:00:00 | |
| DF8AY-15 | 2026-09-01 01:06:46 | 52.67447 | 11.23049 | 116° | 122km/h | 9725m | -7.0m/s | -47.3°C | 15.9% | 280.5hPa | 2.5V | 00:00:00 | 03:16:43 | 00:00:00 | |
| DL1XH1-15 | 2026-09-01 01:06:45 | 52.67516 | 11.22817 | 116° | 124km/h | 9763m | -7.7m/s | -47.3°C | 15.9% | 278.9hPa | 2.5V | 02:40:21 | 03:16:38 | 00:00:00 | |
| DF8AY | 2026-09-01 01:06:41 | 52.67516 | 11.22817 | 117° | 126km/h | 9763m | -7.7m/s | -47.3°C | 16.8% | 278.9hPa | 2.5V | 02:40:38 | 03:16:38 | 00:00:00 | |
| DB0DAN | 2026-09-01 01:06:40 | 52.67530 | 11.22770 | 117° | 119km/h | 9771m | -7.3m/s | -47.3°C | 12.9% | 278.59hPa | 2.6V | 00:00:00 | 00:00:00 | 00:00:00 | |
| AA1-15 | 2026-09-01 01:06:39 | 52.67544 | 11.22724 | 117° | 122km/h | 9778m | -7.4m/s | -47.3°C | 17% | 278.3hPa | 2.6V | 02:40:38 | 03:16:36 | 00:00:00 | |
| BIOWL1-15 | 2026-09-01 01:06:35 | 52.67629 | 11.22451 | 118° | 124km/h | 9824m | -8m/s | -47.5°C | 16.9% | 276.4hPa | 2.5V | 02:40:38 | 03:16:30 | 00:00:00 | |
| DO2SHX-10 | 2026-09-01 01:06:35 | 52.67601 | 11.22542 | 118° | 122km/h | 9808m | -8.0m/s | -47.4°C | 16.0% | 277.0hPa | 2.6V | 02:40:00 | 03:16:32 | 00:00:00 | |
| EDDB2-12 | 2026-09-01 01:06:34 | 52.67629 | 11.22451 | 117° | 122km/h | 9824m | -8.0m/s | -47.5°C | 12.7% | 276.4hPa | 2.6V | 00:00:00 | 00:00:00 | 00:00:00 | |
| GOEST3-10 | 2026-09-01 01:06:33 | 52.67629 | 11.22451 | 118° | 122km/h | 9825m | -7.9m/s | -47.5°C | 15.9% | 276.3hPa | 2.6V | 00:00:00 | 03:16:30 | 00:00:00 | |
| DL1XH1-15 | 2026-09-01 01:06:32 | 52.67659 | 11.22361 | 118° | 122km/h | 9840m | -7.7m/s | -47.6°C | 16.1% | 275.7hPa | 2.6V | 02:40:31 | 03:16:28 | 00:00:00 | |
| DF8AY | 2026-09-01 01:06:31 | 52.67659 | 11.22361 | 119° | 122km/h | 9840m | -7.7m/s | -47.6°C | 17.1% | 275.7hPa | 2.6V | 02:40:38 | 03:16:28 | 00:00:00 | |
| AA1-15 | 2026-09-01 01:06:29 | 52.67689 | 11.22272 | 119° | 122km/h | 9856m | -7.8m/s | -47.6°C | 16.7% | 275hPa | 2.5V | 02:40:38 | 03:16:26 | 00:00:00 | |
| DL1XH-west | 2026-09-01 01:06:28 | 52.67704 | 11.22228 | 119° | 120km/h | 9864m | -7.7m/s | -47.7°C | 16.7% | 274.7hPa | 2.5V | 02:40:38 | 03:16:25 | 00:00:00 | |
| DM0DOS-11 | 2026-09-01 01:06:28 | 52.67763 | 11.22052 | 118° | 120km/h | 9895m | -7.8m/s | -47.9°C | 16.1% | 273.4hPa | 2.5V | 02:40:38 | 03:16:21 | 00:00:00 | |
| DD8BA-10 | 2026-09-01 01:06:28 | 52.67704 | 11.22227 | 120° | 120km/h | 9864m | -7.6m/s | -47.6°C | 15.7% | 274.7hPa | 2.6V | 00:00:00 | 00:00:00 | 00:00:00 | |
| SONCRA | 2026-09-01 01:06:27 | 52.67734 | 11.22139 | 119° | 120km/h | 9879m | -8.1m/s | -47.8°C | 12.7% | 274.1hPa | 2.6V | 00:00:00 | 00:00:00 | 00:00:00 | |
| DO2SHX-10 | 2026-09-01 01:06:26 | 52.67734 | 11.22139 | 120° | 120km/h | 9880m | -8.0m/s | -47.8°C | 15.9% | 274.0hPa | 2.6V | 02:40:00 | 03:16:23 | 00:00:00 | |
| DL1XH1-15 | 2026-09-01 01:06:25 | 52.67807 | 11.21920 | 118° | 120km/h | 9918m | -7.3m/s | -47.9°C | 15.9% | 272.5hPa | 2.6V | 02:40:41 | 03:16:18 | 00:00:00 | |
| DB0DAN | 2026-09-01 01:06:25 | 52.67748 | 11.22095 | 119° | 115km/h | 9888m | -7.9m/s | -47.9°C | 12.5% | 273.67hPa | 2.6V | 00:00:00 | 00:00:00 | 00:00:00 | |
| BIOWL1-15 | 2026-09-01 01:06:24 | 52.67763 | 11.22052 | 119° | 120km/h | 9895m | -7.8m/s | -47.9°C | 16.7% | 273.4hPa | 2.5V | 02:40:38 | 03:16:21 | 00:00:00 | |
| DF8AY | 2026-09-01 01:06:22 | 52.67821 | 11.21876 | 118° | 120km/h | 9926m | -7.3m/s | -47.9°C | 16.5% | 272.2hPa | 2.6V | 02:41:29 | 03:16:17 | 00:00:00 | |
| DL1XH-west | 2026-09-01 01:06:18 | 52.67850 | 11.21789 | 119° | 119km/h | 9941m | -7.4m/s | -47.7°C | 16.3% | 271.5hPa | 2.5V | 02:41:29 | 03:16:15 | 00:00:00 | |
| DL1XH-15 | 2026-09-01 01:06:18 | 52.67878 | 11.21702 | 118° | 119km/h | 9955m | -7.4m/s | -47.8°C | 15.1% | 270.9hPa | 2.5V | 02:40:46 | 03:16:13 | 00:00:00 | |
| DM0DOS-11 | 2026-09-01 01:06:17 | 52.67907 | 11.21616 | 118° | 117km/h | 9971m | -7.4m/s | -47.8°C | 15% | 270.3hPa | 2.5V | 02:40:48 | 03:16:11 | 00:00:00 | |
| BIOWL1-15 | 2026-09-01 01:06:13 | 52.67935 | 11.21531 | 118° | 117km/h | 9986m | -7.9m/s | -47.9°C | 15.8% | 269.6hPa | 2.5V | 02:41:29 | 03:16:09 | 00:00:00 | |
| GOEST3-10 | 2026-09-01 01:06:13 | 52.67921 | 11.21573 | 119° | 117km/h | 9978m | -7.5m/s | -47.8°C | 14.8% | 270.0hPa | 2.6V | 02:40:00 | 03:16:10 | 00:00:00 | |
| DL1XH1-15 | 2026-09-01 01:06:12 | 52.67949 | 11.21488 | 118° | 117km/h | 9994m | -8.2m/s | -47.9°C | 14.6% | 269.3hPa | 2.5V | 02:40:51 | 03:16:08 | 00:00:00 | |
| DF8AY | 2026-09-01 01:06:10 | 52.67963 | 11.21445 | 118° | 117km/h | 10002m | -7.9m/s | -47.9°C | 15.3% | 269hPa | 2.5V | 02:41:29 | 03:16:07 | 00:00:00 | |
| DB0DAN | 2026-09-01 01:06:10 | 52.67963 | 11.21445 | 118° | 111km/h | 10002m | -7.9m/s | -47.9°C | 11.6% | 268.98hPa | 2.5V | 00:00:00 | 00:00:00 | 00:00:00 | |
| DO2SHX-10 | 2026-09-01 01:06:08 | 52.67991 | 11.21360 | 119° | 117km/h | 10017m | -7.5m/s | -47.9°C | 14.6% | 268.3hPa | 2.6V | 02:40:00 | 03:16:05 | 00:00:00 | |
| DL1XH-15 | 2026-09-01 01:06:07 | 52.68018 | 11.21274 | 118° | 115km/h | 10032m | -8m/s | -48°C | 14.6% | 267.8hPa | 2.5V | 02:40:56 | 03:16:03 | 00:00:00 | |
| AA1-15 | 2026-09-01 01:06:07 | 52.68005 | 11.21317 | 118° | 117km/h | 10025m | -7.5m/s | -47.9°C | 14.9% | 268.1hPa | 2.6V | 02:41:29 | 03:16:04 | 00:00:00 | |
| BIOWL1-15 | 2026-09-01 01:06:03 | 52.68086 | 11.21063 | 117° | 113km/h | 10073m | -7.9m/s | -47.8°C | 15.5% | 266.1hPa | 2.5V | 02:41:29 | 03:15:58 | 00:00:00 | |
| DF8AY | 2026-09-01 01:05:59 | 52.68112 | 11.20978 | 117° | 113km/h | 10089m | -7.8m/s | -47.9°C | 15.9% | 265.5hPa | 2.6V | 02:41:29 | 03:15:56 | 00:00:00 | |
| DL1XH-west | 2026-09-01 01:05:57 | 52.68139 | 11.20894 | 117° | 115km/h | 10104m | -7.5m/s | -48°C | 15.3% | 264.9hPa | 2.5V | 02:41:29 | 03:15:54 | 00:00:00 | |
| DL1XH-15 | 2026-09-01 01:05:57 | 52.68152 | 11.20852 | 117° | 115km/h | 10112m | -7.6m/s | -48°C | 14.6% | 264.5hPa | 2.5V | 02:41:06 | 03:15:53 | 00:00:00 | |
| AA1-15 | 2026-09-01 01:05:56 | 52.68152 | 11.20852 | 117° | 115km/h | 10112m | -7.6m/s | -48°C | 15.4% | 264.6hPa | 2.5V | 02:41:29 | 03:15:53 | 00:00:00 | |
| SONCRA | 2026-09-01 01:05:56 | 52.68166 | 11.20809 | 116° | 115km/h | 10120m | -7.8m/s | -48.1°C | 11.4% | 264.3hPa | 2.6V | 00:00:00 | 00:00:00 | 00:00:00 | |
| DB0DAN | 2026-09-01 01:05:55 | 52.68166 | 11.20809 | 117° | 110km/h | 10120m | -7.8m/s | -48.1°C | 11.4% | 264.26hPa | 2.6V | 00:00:00 | 00:00:00 | 00:00:00 | |
| BIOWL1-15 | 2026-09-01 01:05:53 | 52.68192 | 11.20723 | 117° | 117km/h | 10136m | -8m/s | -48.2°C | 15.1% | 263.6hPa | 2.5V | 02:41:29 | 03:15:50 | 00:00:00 | |
| DF8AY | 2026-09-01 01:05:48 | 52.68256 | 11.20505 | 115° | 117km/h | 10174m | -8m/s | -48.1°C | 15% | 262.1hPa | 2.6V | 02:41:29 | 03:15:45 | 00:00:00 | |
| DD8BA-10 | 2026-09-01 01:05:48 | 52.68256 | 11.20505 | 115° | 120km/h | 10175m | -7.9m/s | -48.1°C | 14.4% | 262.0hPa | 2.6V | 02:41:00 | 00:00:00 | 00:00:00 | |
| DL1XH-15 | 2026-09-01 01:05:47 | 52.68281 | 11.20415 | 114° | 119km/h | 10190m | -8.1m/s | -48.1°C | 14.2% | 261.4hPa | 2.5V | 02:41:16 | 03:15:43 | 00:00:00 | |
| DL1XH-west | 2026-09-01 01:05:46 | 52.68281 | 11.20415 | 114° | 119km/h | 10190m | -8.1m/s | -48.1°C | 14.9% | 261.4hPa | 2.5V | 02:41:29 | 03:15:43 | 00:00:00 | |
| DL1XH1-15 | 2026-09-01 01:05:45 | 52.68344 | 11.20186 | 114° | 122km/h | 10229m | -7.9m/s | -48.1°C | 13.5% | 259.9hPa | 2.5V | 02:41:21 | 03:15:38 | 00:00:00 | |
| AA1-15 | 2026-09-01 01:05:45 | 52.68293 | 11.20370 | 114° | 120km/h | 10198m | -7.7m/s | -48.2°C | 14.5% | 261.1hPa | 2.5V | 02:41:29 | 03:15:42 | 00:00:00 | |
| DM0DOS-11 | 2026-09-01 01:05:45 | 52.68306 | 11.20324 | 114° | 120km/h | 10205m | -7.2m/s | -48.1°C | 13.9% | 260.8hPa | 2.6V | 02:41:18 | 03:15:41 | 00:00:00 | |
| BIOWL1-15 | 2026-09-01 01:05:44 | 52.68332 | 11.20232 | 115° | 122km/h | 10221m | -7.9m/s | -48.1°C | 14.1% | 260.1hPa | 2.6V | 02:41:29 | 03:15:39 | 00:00:00 | |
| DO2SHX-10 | 2026-09-01 01:05:44 | 52.68306 | 11.20324 | 115° | 122km/h | 10206m | -7.2m/s | -48.1°C | 13.9% | 260.7hPa | 2.6V | 00:00:00 | 03:15:41 | 00:00:00 | |
| GOEST3-10 | 2026-09-01 01:05:43 | 52.68319 | 11.20278 | 115° | 122km/h | 10213m | -7.7m/s | -48.1°C | 13.7% | 260.5hPa | 2.6V | 02:41:00 | 03:15:40 | 00:00:00 | |
| DB0UT-7 | 2026-09-01 01:05:42 | 52.68332 | 11.20232 | 115° | 126km/h | 10221m | -7.9m/s | -48.0°C | 13.5% | 260.1hPa | 2.5V | 00:00:00 | 03:15:39 | 00:00:00 | |
| DB0DAN | 2026-09-01 01:05:40 | 52.68357 | 11.20139 | 114° | 117km/h | 10237m | -7.8m/s | -48.1°C | 10.6% | 259.61hPa | 2.5V | 00:00:00 | 00:00:00 | 00:00:00 | |
| DM0DOS-11 | 2026-09-01 01:05:39 | 52.68446 | 11.19807 | 113° | 126km/h | 10294m | -8.3m/s | -48°C | 14.4% | 257.3hPa | 2.5V | 02:41:29 | 03:15:30 | 00:00:00 | |
| DF8AY | 2026-09-01 01:05:38 | 52.68383 | 11.20046 | 114° | 124km/h | 10253m | -8m/s | -48°C | 14.7% | 259hPa | 2.6V | 02:41:29 | 03:15:35 | 00:00:00 | |
| DO2SHX-10 | 2026-09-01 01:05:38 | 52.68382 | 11.20045 | 114° | 124km/h | 10253m | -7.9m/s | -48.0°C | 13.9% | 258.9hPa | 2.6V | 00:00:00 | 03:15:35 | 00:00:00 | |
| DL1XH-15 | 2026-09-01 01:05:37 | 52.68408 | 11.19951 | 113° | 124km/h | 10269m | -8.3m/s | -47.8°C | 14.1% | 258.3hPa | 2.6V | 02:41:26 | 03:15:33 | 00:00:00 | |
| DL1XH-west | 2026-09-01 01:05:35 | 52.68420 | 11.19903 | 114° | 126km/h | 10278m | -8.4m/s | -47.9°C | 15.4% | 258hPa | 2.5V | 02:41:29 | 03:15:32 | 00:00:00 | |
| AA1-15 | 2026-09-01 01:05:34 | 52.68433 | 11.19855 | 114° | 126km/h | 10286m | -8.3m/s | -47.9°C | 15.6% | 257.7hPa | 2.5V | 02:41:29 | 03:15:31 | 00:00:00 | |
| DL1XH1-15 | 2026-09-01 01:05:32 | 52.68471 | 11.19712 | 113° | 126km/h | 10311m | -8.2m/s | -48.1°C | 14.8% | 256.7hPa | 2.6V | 02:41:31 | 03:15:28 | 00:00:00 | |
| BIOWL1-15 | 2026-09-01 01:05:32 | 52.68497 | 11.19616 | 114° | 126km/h | 10327m | -8.1m/s | -48.3°C | 16.2% | 256hPa | 2.5V | 02:42:20 | 03:15:26 | 00:00:00 | |
| DO2SHX-10 | 2026-09-01 01:05:32 | 52.68458 | 11.19760 | 114° | 126km/h | 10303m | -8.2m/s | -48.0°C | 14.7% | 257.0hPa | 2.6V | 02:41:00 | 03:15:29 | 00:00:00 | |
| EDDB2-12 | 2026-09-01 01:05:31 | 52.68471 | 11.19712 | 113° | 124km/h | 10311m | -8.2m/s | -48.1°C | 11.6% | 256.7hPa | 2.5V | 00:00:00 | 00:00:00 | 00:00:00 | |
| EDDB2-11 | 2026-09-01 01:05:30 | 52.68497 | 11.19616 | 113° | 126km/h | 10327m | -8.1m/s | -48.3°C | 11.7% | 256.0hPa | 2.5V | 00:00:00 | 00:00:00 | 00:00:00 | |
| DO2SHX-10 | 2026-09-01 01:05:29 | 52.68497 | 11.19616 | 114° | 126km/h | 10327m | -8.0m/s | -48.2°C | 14.9% | 256.0hPa | 2.5V | 00:00:00 | 03:15:26 | 00:00:00 | |
| DM0DOS-11 | 2026-09-01 01:05:28 | 52.68562 | 11.19375 | 113° | 128km/h | 10367m | -7.8m/s | -48.7°C | 15.5% | 254.5hPa | 2.5V | 02:41:38 | 03:15:21 | 00:00:00 | |
| DF8AY | 2026-09-01 01:05:27 | 52.68523 | 11.19520 | 114° | 126km/h | 10343m | -8.1m/s | -48.4°C | 16.3% | 255.4hPa | 2.5V | 02:42:20 | 03:15:24 | 00:00:00 | |
| DL1XH-15 | 2026-09-01 01:05:27 | 52.68536 | 11.19471 | 113° | 128km/h | 10351m | -7.8m/s | -48.5°C | 15.5% | 255.1hPa | 2.6V | 02:41:36 | 03:15:23 | 00:00:00 | |
| DL1XH-west | 2026-09-01 01:05:24 | 52.68562 | 11.19375 | 114° | 128km/h | 10367m | -7.8m/s | -48.7°C | 16.7% | 254.5hPa | 2.5V | 02:42:20 | 03:15:21 | 00:00:00 | |
| BUE01 | 2026-09-01 01:05:23 | 52.68588 | 11.19278 | 114° | 126km/h | 10383m | -7.6m/s | -48.8°C | 12.4% | 253.9hPa | 2.6V | 00:00:00 | 00:00:00 | 00:00:00 | |
| DO2SHX-10 | 2026-09-01 01:05:20 | 52.68615 | 11.19182 | 115° | 126km/h | 10399m | -8.1m/s | -48.9°C | 15.6% | 253.3hPa | 2.6V | 00:00:00 | 03:15:17 | 00:00:00 | |
| SMARD9-10 | 2026-09-01 01:05:19 | 52.68615 | 11.19182 | 116° | 126km/h | 10399m | -8.2m/s | -48.9°C | 12.2% | 253.3hPa | 2.6V | 00:00:00 | 00:00:00 | 00:00:00 | |
| DM0DOS-11 | 2026-09-01 01:05:18 | 52.68696 | 11.18897 | 115° | 126km/h | 10446m | -7.9m/s | -49.3°C | 16.2% | 251.4hPa | 2.6V | 02:41:48 | 03:15:11 | 00:00:00 | |
| DD8BA-10 | 2026-09-01 01:05:18 | 52.68642 | 11.19086 | 116° | 126km/h | 10415m | -7.8m/s | -49.0°C | 16.0% | 252.6hPa | 2.6V | 02:41:00 | 00:00:00 | 00:00:00 | |
| DL1XH-15 | 2026-09-01 01:05:17 | 52.68669 | 11.18991 | 115° | 126km/h | 10430m | -7.8m/s | -49.2°C | 15.9% | 252.1hPa | 2.5V | 02:41:46 | 03:15:13 | 00:00:00 | |
| DF8AY | 2026-09-01 01:05:16 | 52.68669 | 11.18991 | 115° | 126km/h | 10430m | -7.8m/s | -49.2°C | 16.7% | 252.1hPa | 2.5V | 02:42:20 | 03:15:13 | 00:00:00 | |
| BIOWL1-15 | 2026-09-01 01:05:14 | 52.68724 | 11.18803 | 116° | 126km/h | 10462m | -7.9m/s | -49.4°C | 16.5% | 250.8hPa | 2.5V | 02:42:20 | 03:15:09 | 00:00:00 | |
| DL1XH-west | 2026-09-01 01:05:13 | 52.68710 | 11.18850 | 116° | 126km/h | 10454m | -7.8m/s | -49.4°C | 16.6% | 251.1hPa | 2.6V | 02:42:20 | 03:15:10 | 00:00:00 | |
| GOEST3-10 | 2026-09-01 01:05:13 | 52.68710 | 11.18850 | 116° | 126km/h | 10454m | -7.7m/s | -49.3°C | 16.1% | 251.1hPa | 2.6V | 02:41:00 | 03:15:10 | 00:00:00 | |
| DF7ER-10 | 2026-09-01 01:05:12 | 52.68710 | 11.18850 | 117° | 126km/h | 10454m | -7.8m/s | -49.4°C | 12.6% | 251.1hPa | 2.5V | 02:42:00 | 00:00:00 | 00:00:00 | |
| DL2RXE-15 | 2026-09-01 01:05:11 | 52.68724 | 11.18803 | 117° | 126km/h | 10463m | -7.9m/s | -49.4°C | 12.5% | 250.7hPa | 2.5V | 00:00:00 | 00:00:00 | 00:00:00 | |
| DB0DAN | 2026-09-01 01:05:10 | 52.68751 | 11.18709 | 116° | 119km/h | 10478m | -8m/s | -49.5°C | 12.2% | 250.22hPa | 2.5V | 00:00:00 | 00:00:00 | 00:00:00 | |
| DB0UT-7 | 2026-09-01 01:05:09 | 52.68765 | 11.18662 | 116° | 117km/h | 10486m | -8.0m/s | -49.5°C | 16.0% | 249.9hPa | 2.6V | 02:41:00 | 00:00:00 | 00:00:00 | |
| DL1XH-15 | 2026-09-01 01:05:08 | 52.68806 | 11.18522 | 116° | 122km/h | 10510m | -8.4m/s | -49.6°C | 15.3% | 249hPa | 2.5V | 02:41:56 | 03:15:03 | 00:00:00 | |
| DF8AY | 2026-09-01 01:05:05 | 52.68820 | 11.18477 | 117° | 122km/h | 10518m | -8m/s | -49.6°C | 15.8% | 248.7hPa | 2.5V | 02:42:20 | 03:15:02 | 00:00:00 | |
| DM0DOS-11 | 2026-09-01 01:05:05 | 52.68834 | 11.18431 | 116° | 122km/h | 10526m | -8m/s | -49.6°C | 15.5% | 248.5hPa | 2.5V | 02:41:58 | 03:15:01 | 00:00:00 | |
| BIOWL1-15 | 2026-09-01 01:05:04 | 52.68944 | 11.18076 | 117° | 119km/h | 10591m | -8.3m/s | -49.7°C | 14.5% | 245.9hPa | 2.6V | 02:42:20 | 03:14:53 | 00:00:00 | |
| DL1XH-west | 2026-09-01 01:05:02 | 52.68861 | 11.18341 | 117° | 120km/h | 10542m | -8.4m/s | -49.6°C | 15.5% | 247.8hPa | 2.6V | 02:42:20 | 03:14:59 | 00:00:00 | |
| DO2SHX-10 | 2026-09-01 01:05:02 | 52.68861 | 11.18341 | 118° | 120km/h | 10543m | -8.3m/s | -49.6°C | 15.2% | 247.7hPa | 2.6V | 00:00:00 | 03:14:59 | 00:00:00 | |
| DL1XH-15 | 2026-09-01 01:05:01 | 52.68944 | 11.18076 | 116° | 119km/h | 10591m | -8.3m/s | -49.6°C | 14.3% | 245.9hPa | 2.6V | 02:42:06 | 03:14:53 | 00:00:00 | |
| DF7ER-10 | 2026-09-01 01:05:01 | 52.68861 | 11.18341 | 118° | 120km/h | 10543m | -8.4m/s | -49.6°C | 11.8% | 247.8hPa | 2.5V | 02:42:00 | 00:00:00 | 00:00:00 | |
| EDDB2-12 | 2026-09-01 01:05:00 | 52.68889 | 11.18253 | 117° | 119km/h | 10559m | -8.1m/s | -49.7°C | 11.3% | 247.2hPa | 2.5V | 00:00:00 | 00:00:00 | 00:00:00 | |
| DO2SHX-10 | 2026-09-01 01:04:59 | 52.68903 | 11.18208 | 118° | 119km/h | 10567m | -8.2m/s | -49.7°C | 14.7% | 246.8hPa | 2.5V | 00:00:00 | 03:14:56 | 00:00:00 | |
| DM0DOS-11 | 2026-09-01 01:04:58 | 52.68971 | 11.17988 | 116° | 117km/h | 10608m | -8.2m/s | -49.6°C | 13.6% | 245.3hPa | 2.5V | 02:42:08 | 03:14:51 | 00:00:00 | |
| DF8AY | 2026-09-01 01:04:55 | 52.68958 | 11.18032 | 117° | 119km/h | 10600m | -8.3m/s | -49.6°C | 14.2% | 245.6hPa | 2.6V | 02:42:20 | 03:14:52 | 00:00:00 | |
| DB0DAN | 2026-09-01 01:04:55 | 52.68958 | 11.18032 | 117° | 113km/h | 10600m | -8.3m/s | -49.6°C | 10.7% | 245.59hPa | 2.6V | 00:00:00 | 00:00:00 | 00:00:00 | |
| SONCRA | 2026-09-01 01:04:54 | 52.68998 | 11.17902 | 117° | 115km/h | 10625m | -8.3m/s | -49.6°C | 10.3% | 244.6hPa | 2.6V | 00:00:00 | 00:00:00 | 00:00:00 | |
| DO2SHX-10 | 2026-09-01 01:04:53 | 52.68984 | 11.17945 | 117° | 117km/h | 10616m | -8.6m/s | -49.6°C | 13.6% | 244.9hPa | 2.6V | 00:00:00 | 03:14:50 | 00:00:00 | |
| DL1XH1-15 | 2026-09-01 01:04:52 | 52.69011 | 11.17859 | 117° | 115km/h | 10633m | -8.2m/s | -49.5°C | 13.5% | 244.4hPa | 2.6V | 02:42:11 | 03:14:48 | 00:00:00 | |
| DL1XH-west | 2026-09-01 01:04:52 | 52.68998 | 11.17902 | 117° | 115km/h | 10625m | -8.3m/s | -49.6°C | 13.7% | 244.6hPa | 2.5V | 02:42:20 | 03:14:49 | 00:00:00 | |
| BUE01 | 2026-09-01 01:04:52 | 52.69011 | 11.17859 | 117° | 115km/h | 10633m | -8.2m/s | -49.5°C | 10.2% | 244.4hPa | 2.5V | 00:00:00 | 00:00:00 | 00:00:00 | |
| BIOWL1-15 | 2026-09-01 01:04:51 | 52.69128 | 11.17481 | 116° | 111km/h | 10708m | -8.4m/s | -49.4°C | 12.2% | 241.6hPa | 2.5V | 02:42:20 | 03:14:39 | 00:00:00 | |
| DF8AY | 2026-09-01 01:04:45 | 52.69090 | 11.17606 | 117° | 113km/h | 10683m | -8.4m/s | -49.3°C | 12.9% | 242.4hPa | 2.6V | 02:42:20 | 03:14:42 | 00:00:00 | |
| DL1XH1-15 | 2026-09-01 01:04:45 | 52.69140 | 11.17440 | 116° | 111km/h | 10716m | -8.4m/s | -49.4°C | 11.9% | 241.2hPa | 2.6V | 02:42:21 | 03:14:38 | 00:00:00 | |
| DM0DOS-11 | 2026-09-01 01:04:45 | 52.69102 | 11.17564 | 116° | 111km/h | 10691m | -8.6m/s | -49.3°C | 12.3% | 242.2hPa | 2.6V | 02:42:18 | 03:14:41 | 00:00:00 | |
| SONDE2-11 | 2026-09-01 01:04:45 | 52.69090 | 11.17606 | 116° | 111km/h | 10683m | -8.4m/s | -49.3°C | 9.4% | 242.4hPa | 2.6V | 00:00:00 | 00:00:00 | 00:00:00 | |
| DL1XH-west | 2026-09-01 01:04:41 | 52.69140 | 11.17440 | 116° | 111km/h | 10717m | -8.4m/s | -49.4°C | 12.1% | 241.2hPa | 2.6V | 02:43:11 | 03:14:38 | 00:00:00 | |
| DB0DAN | 2026-09-01 01:04:40 | 52.69152 | 11.17398 | 116° | 106km/h | 10725m | -8.5m/s | -49.4°C | 8.8% | 240.92hPa | 2.6V | 00:00:00 | 00:00:00 | 00:00:00 | |
| DB0UT-7 | 2026-09-01 01:04:39 | 52.69164 | 11.17356 | 116° | 113km/h | 10734m | -8.6m/s | -49.4°C | 11.6% | 240.6hPa | 2.5V | 00:00:00 | 03:14:36 | 00:00:00 | |
| DM0DOS-11 | 2026-09-01 01:04:38 | 52.69223 | 11.17146 | 114° | 111km/h | 10776m | -8.5m/s | -49.5°C | 11.4% | 239.1hPa | 2.5V | 02:42:28 | 03:14:31 | 00:00:00 | |
| DD8BA-10 | 2026-09-01 01:04:38 | 52.69176 | 11.17315 | 116° | 113km/h | 10742m | -8.6m/s | -49.4°C | 11.6% | 240.3hPa | 2.6V | 00:00:00 | 00:00:00 | 00:00:00 | |
| BIOWL1-15 | 2026-09-01 01:04:38 | 52.69200 | 11.17231 | 115° | 111km/h | 10759m | -8.3m/s | -49.5°C | 11.6% | 239.7hPa | 2.6V | 02:43:11 | 03:14:33 | 00:00:00 | |
| DL1XH-15 | 2026-09-01 01:04:37 | 52.69200 | 11.17231 | 114° | 111km/h | 10759m | -8.3m/s | -49.5°C | 11.6% | 239.7hPa | 2.6V | 02:42:26 | 03:14:33 | 00:00:00 | |
| DF8AY | 2026-09-01 01:04:34 | 52.69224 | 11.17146 | 114° | 111km/h | 10776m | -8.5m/s | -49.5°C | 11.3% | 239.1hPa | 2.5V | 02:43:11 | 03:14:31 | 00:00:00 | |
| S3001 | 2026-09-01 01:04:33 | 52.69247 | 11.17061 | 114° | 111km/h | 10794m | -8.8m/s | -49.5°C | 8.6% | 238.4hPa | 2.6V | 00:00:00 | 00:00:00 | 00:00:00 | |
| DO2SHX-10 | 2026-09-01 01:04:32 | 52.69247 | 11.17061 | 115° | 113km/h | 10794m | -8.8m/s | -49.5°C | 11.7% | 238.4hPa | 2.6V | 00:00:00 | 03:14:29 | 00:00:00 | |
| DL1XH-15 | 2026-09-01 01:04:30 | 52.69316 | 11.16799 | 113° | 117km/h | 10846m | -8.7m/s | -49.7°C | 12% | 236.5hPa | 2.6V | 02:42:36 | 03:14:23 | 00:00:00 | |
| DL1XH-west | 2026-09-01 01:04:30 | 52.69270 | 11.16974 | 114° | 115km/h | 10811m | -8.6m/s | -49.5°C | 11.6% | 237.8hPa | 2.6V | 02:43:11 | 03:14:27 | 00:00:00 | |
| EDDB2-12 | 2026-09-01 01:04:30 | 52.69281 | 11.16931 | 113° | 113km/h | 10820m | -8.6m/s | -49.6°C | 8.5% | 237.5hPa | 2.5V | 00:00:00 | 00:00:00 | 00:00:00 | |
| DO2SHX-10 | 2026-09-01 01:04:29 | 52.69281 | 11.16931 | 114° | 115km/h | 10820m | -8.5m/s | -49.5°C | 11.5% | 237.4hPa | 2.5V | 02:42:00 | 03:14:26 | 00:00:00 | |
| GOEST3-10 | 2026-09-01 01:04:28 | 52.69293 | 11.16887 | 114° | 115km/h | 10829m | -8.8m/s | -49.6°C | 11.6% | 237.1hPa | 2.5V | 02:42:00 | 00:00:00 | 00:00:00 | |
| DJ2DS-15 | 2026-09-01 01:04:27 | 52.69305 | 11.16843 | 113° | 115km/h | 10837m | -8.9m/s | -49.7°C | 8.7% | 236.9hPa | 2.6V | 00:00:00 | 00:00:00 | 00:00:00 | |
| DB0DAN | 2026-09-01 01:04:25 | 52.69328 | 11.16755 | 114° | 110km/h | 10855m | -8.8m/s | -49.8°C | 8.8% | 236.2hPa | 2.6V | 00:00:00 | 00:00:00 | 00:00:00 | |
| DF8AY | 2026-09-01 01:04:24 | 52.69340 | 11.16711 | 114° | 115km/h | 10864m | -8.7m/s | -49.9°C | 11.9% | 235.9hPa | 2.6V | 02:43:11 | 03:14:21 | 00:00:00 | |
| DL1XH-west | 2026-09-01 01:04:19 | 52.69400 | 11.16494 | 114° | 113km/h | 10907m | -8.4m/s | -50.2°C | 11.6% | 234.3hPa | 2.6V | 02:43:11 | 03:14:16 | 00:00:00 | |
| DD8BA-10 | 2026-09-01 01:04:18 | 52.69411 | 11.16451 | 115° | 113km/h | 10915m | -8.1m/s | -50.2°C | 11.7% | 234.0hPa | 2.6V | 02:42:00 | 00:00:00 | 00:00:00 | |
| DL1XH-15 | 2026-09-01 01:04:17 | 52.69435 | 11.16367 | 114° | 113km/h | 10932m | -8.4m/s | -50.4°C | 11.5% | 233.4hPa | 2.5V | 02:42:46 | 03:14:13 | 00:00:00 | |
| BIOWL1-15 | 2026-09-01 01:04:15 | 52.69447 | 11.16324 | 115° | 113km/h | 10940m | -8.1m/s | -50.4°C | 11% | 233.2hPa | 2.5V | 02:43:11 | 03:14:12 | 00:00:00 | |
| DF8AY | 2026-09-01 01:04:14 | 52.69459 | 11.16281 | 115° | 113km/h | 10948m | -7.9m/s | -50.5°C | 11% | 232.8hPa | 2.6V | 02:43:11 | 03:14:11 | 00:00:00 | |
| DL4XJ-10 | 2026-09-01 01:04:14 | 52.69458 | 11.16281 | 116° | 88km/h | 10948m | -7.8m/s | -50.1°C | 0% | 0hPa | 2.6V | 00:00:00 | 00:00:00 | 00:00:00 | |
| GOEST3-10 | 2026-09-01 01:04:13 | 52.69471 | 11.16239 | 116° | 113km/h | 10956m | -8.1m/s | -50.5°C | 11.5% | 232.5hPa | 2.6V | 02:42:00 | 03:14:10 | 00:00:00 | |
| NBG1-10 | 2026-09-01 01:04:12 | 52.69483 | 11.16196 | 117° | 99km/h | 10964m | -8.1m/s | -50.4°C | 11.2% | 232.2hPa | 2.6V | 02:42:00 | 03:14:09 | 00:00:00 | |
| DO2SHX-10 | 2026-09-01 01:04:11 | 52.69496 | 11.16154 | 117° | 111km/h | 10972m | -8.0m/s | -50.5°C | 11.1% | 232.0hPa | 2.5V | 02:42:00 | 03:14:08 | 00:00:00 | |
| DL1XH-15 | 2026-09-01 01:04:10 | 52.69560 | 11.15950 | 117° | 108km/h | 11014m | -8.8m/s | -50.6°C | 10.4% | 230.6hPa | 2.5V | 02:42:56 | 03:14:03 | 00:00:00 | |
| DL1XH-west | 2026-09-01 01:04:08 | 52.69535 | 11.16030 | 118° | 110km/h | 10997m | -8.6m/s | -50.6°C | 9.8% | 231.1hPa | 2.6V | 02:43:11 | 03:14:05 | 00:00:00 | |
| DD8BA-10 | 2026-09-01 01:04:08 | 52.69535 | 11.16030 | 118° | 106km/h | 10997m | -8.6m/s | -50.6°C | 10.8% | 231.0hPa | 2.6V | 00:00:00 | 00:00:00 | 00:00:00 | |
| DF7ER-10 | 2026-09-01 01:04:07 | 52.69535 | 11.16030 | 118° | 110km/h | 10997m | -8.6m/s | -50.6°C | 7.7% | 231.1hPa | 2.6V | 02:43:00 | 00:00:00 | 00:00:00 | |
| DF8AY-15 | 2026-09-01 01:04:06 | 52.69560 | 11.15950 | 118° | 99km/h | 11014m | -8.8m/s | -50.5°C | 10.4% | 230.5hPa | 2.6V | 00:00:00 | 03:14:03 | 00:00:00 | |
| DM0DOS-11 | 2026-09-01 01:04:05 | 52.69585 | 11.15870 | 117° | 106km/h | 11031m | -8.6m/s | -50.5°C | 10.1% | 230hPa | 2.6V | 02:42:58 | 03:14:01 | 00:00:00 | |
| BIOWL1-15 | 2026-09-01 01:04:05 | 52.69573 | 11.15910 | 117° | 108km/h | 11023m | -8.8m/s | -50.5°C | 9.2% | 230.2hPa | 2.5V | 02:43:11 | 03:14:02 | 00:00:00 | |
| DF8AY | 2026-09-01 01:04:04 | 52.69585 | 11.15870 | 117° | 106km/h | 11031m | -8.6m/s | -50.5°C | 9.1% | 230hPa | 2.6V | 02:43:11 | 03:14:01 | 00:00:00 | |
| DL1CLM-18 | 2026-09-01 01:04:04 | 52.69573 | 11.15910 | 118° | 108km/h | 11023m | -8.8m/s | -50.5°C | 7.2% | 230.2hPa | 2.5V | 02:43:00 | 00:00:00 | 00:00:00 | |
| GOEST3-10 | 2026-09-01 01:04:03 | 52.69597 | 11.15831 | 118° | 104km/h | 11040m | -8.9m/s | -50.5°C | 9.7% | 229.5hPa | 2.5V | 00:00:00 | 03:14:00 | 00:00:00 | |
| S3001 | 2026-09-01 01:04:02 | 52.69622 | 11.15754 | 117° | 102km/h | 11058m | -8.8m/s | -50.6°C | 6.5% | 228.9hPa | 2.5V | 00:00:00 | 00:00:00 | 00:00:00 | |
| DO2SHX-10 | 2026-09-01 01:03:59 | 52.69646 | 11.15678 | 118° | 100km/h | 11076m | -9.1m/s | -50.2°C | 8.7% | 228.3hPa | 2.5V | 00:00:00 | 03:13:56 | 00:00:00 | |
| DM0DOS-11 | 2026-09-01 01:03:58 | 52.69705 | 11.15496 | 117° | 97km/h | 11120m | -9.4m/s | -50°C | 7.7% | 226.8hPa | 2.5V | 02:43:08 | 03:13:51 | 00:00:00 | |
| GOEST3-10 | 2026-09-01 01:03:58 | 52.69658 | 11.15641 | 119° | 99km/h | 11085m | -9.1m/s | -50.1°C | 8.3% | 228.0hPa | 2.5V | 02:43:00 | 00:00:00 | 00:00:00 | |
| DL1XH-west | 2026-09-01 01:03:58 | 52.69658 | 11.15641 | 118° | 100km/h | 11085m | -9.1m/s | -50.2°C | 6.9% | 228hPa | 2.5V | 02:43:11 | 03:13:55 | 00:00:00 | |
| DL1XH-15 | 2026-09-01 01:03:57 | 52.69682 | 11.15568 | 118° | 99km/h | 11102m | -8.8m/s | -50°C | 8.1% | 227.4hPa | 2.6V | 02:43:06 | 03:13:53 | 00:00:00 | |
| DF8AY | 2026-09-01 01:03:55 | 52.69705 | 11.15496 | 117° | 97km/h | 11120m | -9.4m/s | -50°C | 6.1% | 226.8hPa | 2.5V | 02:43:11 | 03:13:51 | 00:00:00 | |
| BIOWL1-15 | 2026-09-01 01:03:55 | 52.69694 | 11.15532 | 118° | 99km/h | 11111m | -8.9m/s | -50°C | 6.3% | 227.1hPa | 2.6V | 02:43:11 | 03:13:52 | 00:00:00 | |
| DB0DAN | 2026-09-01 01:03:55 | 52.69694 | 11.15532 | 118° | 93km/h | 11111m | -8.9m/s | -50°C | 5.2% | 227.08hPa | 2.6V | 00:00:00 | 00:00:00 | 00:00:00 | |
| GOEST3-10 | 2026-09-01 01:03:53 | 52.69716 | 11.15460 | 118° | 93km/h | 11130m | -9.3m/s | -49.9°C | 7.5% | 226.4hPa | 2.6V | 00:00:00 | 03:13:50 | 00:00:00 | |
| DL1XH1-15 | 2026-09-01 01:03:52 | 52.69738 | 11.15390 | 116° | 93km/h | 11148m | -9.3m/s | -49.7°C | 7.5% | 225.8hPa | 2.6V | 02:43:11 | 03:13:48 | 00:00:00 | |
| DJ2DS-15 | 2026-09-01 01:03:51 | 52.69738 | 11.15390 | 116° | 91km/h | 11148m | -9.3m/s | -49.7°C | 4.9% | 225.8hPa | 2.5V | 00:00:00 | 00:00:00 | 00:00:00 | |
| DL1XH-15 | 2026-09-01 01:03:50 | 52.69788 | 11.15221 | 115° | 88km/h | 11193m | -9.6m/s | -49.8°C | 7.5% | 224.2hPa | 2.5V | 02:43:16 | 03:13:43 | 00:00:00 | |
| BUE01 | 2026-09-01 01:03:50 | 52.69758 | 11.15322 | 115° | 89km/h | 11166m | -8.5m/s | -49.7°C | 4.6% | 225.2hPa | 2.6V | 00:00:00 | 00:00:00 | 00:00:00 | |
| DM0DOS-11 | 2026-09-01 01:03:48 | 52.69806 | 11.15155 | 114° | 88km/h | 11212m | -8.8m/s | -49.8°C | 7.5% | 223.6hPa | 2.6V | 02:43:18 | 03:13:41 | 00:00:00 | |
| DL1XH-west | 2026-09-01 01:03:47 | 52.69778 | 11.15255 | 116° | 89km/h | 11184m | -9.4m/s | -49.8°C | 5.5% | 224.6hPa | 2.5V | 02:44:02 | 03:13:44 | 00:00:00 | |
| SONCRA | 2026-09-01 01:03:46 | 52.69806 | 11.15155 | 114° | 86km/h | 11212m | -8.8m/s | -49.8°C | 4.8% | 223.6hPa | 2.5V | 00:00:00 | 00:00:00 | 00:00:00 | |
| DL1XH1-15 | 2026-09-01 01:03:45 | 52.69833 | 11.15058 | 113° | 84km/h | 11239m | -9.2m/s | -49.7°C | 6.9% | 222.8hPa | 2.5V | 02:43:21 | 03:13:38 | 00:00:00 | |
| BIOWL1-15 | 2026-09-01 01:03:45 | 52.69797 | 11.15188 | 116° | 88km/h | 11203m | -9.3m/s | -49.8°C | 5.9% | 224hPa | 2.6V | 02:44:02 | 03:13:42 | 00:00:00 | |
| HTAHTA | 2026-09-01 01:03:45 | 52.69806 | 11.15155 | 114° | 86km/h | 11212m | -8.8m/s | -49.8°C | 4.8% | 223.6hPa | 2.6V | 00:00:00 | 00:00:00 | 00:00:00 | |
| DL1ZP-14 | 2026-09-01 01:03:44 | 52.69806 | 11.15155 | 114° | 86km/h | 11212m | -8.8m/s | -49.8°C | 4.8% | 223.6hPa | 2.6V | 00:00:00 | 00:00:00 | 00:00:00 | |
| DF8AY | 2026-09-01 01:03:43 | 52.69816 | 11.15123 | 114° | 86km/h | 11221m | -8.7m/s | -49.9°C | 5.5% | 223.4hPa | 2.6V | 02:44:02 | 03:13:40 | 00:00:00 | |
| GOEST3-10 | 2026-09-01 01:03:43 | 52.69816 | 11.15123 | 115° | 84km/h | 11221m | -8.7m/s | -49.8°C | 7.4% | 223.3hPa | 2.6V | 02:43:00 | 03:13:40 | 00:00:00 | |
| AP2371 | 2026-09-01 01:03:42 | 52.69815 | 11.15123 | 115° | 86km/h | 11221m | -8.7m/s | -49.9°C | 4.7% | 223.4hPa | 2.5V | 00:00:00 | 00:00:00 | 00:00:00 | |
| DB0DAN | 2026-09-01 01:03:40 | 52.69841 | 11.15027 | 113° | 78km/h | 11248m | -9.1m/s | -49.6°C | 4.3% | 222.38hPa | 2.5V | 00:00:00 | 00:00:00 | 00:00:00 | |
| DB0UT-7 | 2026-09-01 01:03:39 | 52.69849 | 11.14995 | 113° | 77km/h | 11257m | -9.1m/s | -49.6°C | 6.8% | 222.0hPa | 2.6V | 02:43:00 | 03:13:36 | 00:00:00 | |
| DM0DOS-11 | 2026-09-01 01:03:38 | 52.69884 | 11.14840 | 108° | 78km/h | 11303m | -9.5m/s | -49.7°C | 5.8% | 220.5hPa | 2.5V | 02:43:28 | 03:13:31 | 00:00:00 | |
| DO2SHX-10 | 2026-09-01 01:03:38 | 52.69857 | 11.14964 | 112° | 80km/h | 11266m | -8.9m/s | -49.5°C | 6.5% | 221.8hPa | 2.5V | 00:00:00 | 03:13:35 | 00:00:00 | |
| DL1XH-15 | 2026-09-01 01:03:37 | 52.69871 | 11.14902 | 110° | 80km/h | 11285m | -9.4m/s | -49.7°C | 6.1% | 221.2hPa | 2.5V | 02:43:26 | 03:13:33 | 00:00:00 | |
| DL1XH-west | 2026-09-01 01:03:37 | 52.69864 | 11.14933 | 111° | 80km/h | 11275m | -9.1m/s | -49.6°C | 4.2% | 221.5hPa | 2.6V | 02:44:02 | 03:13:34 | 00:00:00 | |
| DF8AY | 2026-09-01 01:03:33 | 52.69891 | 11.14809 | 108° | 78km/h | 11313m | -9.1m/s | -49.7°C | 3.1% | 220.2hPa | 2.6V | 02:44:02 | 03:13:30 | 00:00:00 | |
| GOEST3-10 | 2026-09-01 01:03:33 | 52.69890 | 11.14809 | 108° | 77km/h | 11313m | -9.1m/s | -49.6°C | 5.5% | 220.2hPa | 2.5V | 00:00:00 | 03:13:30 | 00:00:00 | |
| DO2SHX-10 | 2026-09-01 01:03:32 | 52.69896 | 11.14778 | 108° | 77km/h | 11322m | -9.0m/s | -49.6°C | 5.3% | 219.9hPa | 2.5V | 00:00:00 | 03:13:29 | 00:00:00 | |
| BIOWL9-15 | 2026-09-01 01:03:31 | 52.69908 | 11.14716 | 106° | 77km/h | 11340m | -9.4m/s | -49.5°C | 2.5% | 219.3hPa | 2.5V | 00:00:00 | 00:00:00 | 00:00:00 | |
| S3001 | 2026-09-01 01:03:30 | 52.69908 | 11.14716 | 106° | 77km/h | 11340m | -9.4m/s | -49.5°C | 2.5% | 219.3hPa | 2.5V | 00:00:00 | 00:00:00 | 00:00:00 | |
| DO2SHX-10 | 2026-09-01 01:03:29 | 52.69913 | 11.14686 | 107° | 77km/h | 11350m | -9.3m/s | -49.3°C | 4.4% | 219.0hPa | 2.5V | 00:00:00 | 03:13:26 | 00:00:00 | |
| GOEST3-10 | 2026-09-01 01:03:28 | 52.69919 | 11.14655 | 107° | 75km/h | 11359m | -9.1m/s | -49.2°C | 4.5% | 218.7hPa | 2.5V | 02:43:00 | 00:00:00 | 00:00:00 | |
| DL1XH-15 | 2026-09-01 01:03:27 | 52.69929 | 11.14595 | 105° | 77km/h | 11377m | -9.3m/s | -49°C | 4.2% | 218.1hPa | 2.6V | 02:43:36 | 03:13:23 | 00:00:00 | |
| DM0DOS-11 | 2026-09-01 01:03:27 | 52.69939 | 11.14534 | 105° | 75km/h | 11396m | -9.5m/s | -48.8°C | 3.8% | 217.5hPa | 2.5V | 02:43:38 | 03:13:21 | 00:00:00 | |
| DL1XH-west | 2026-09-01 01:03:26 | 52.69929 | 11.14595 | 106° | 77km/h | 11377m | -9.3m/s | -49°C | 1.4% | 218.1hPa | 2.6V | 02:44:02 | 03:13:23 | 00:00:00 | |
| DB0DAN | 2026-09-01 01:03:25 | 52.69934 | 11.14564 | 106° | 71km/h | 11386m | -9.2m/s | -48.8°C | 2% | 217.74hPa | 2.6V | 00:00:00 | 00:00:00 | 00:00:00 | |
| DF8AY | 2026-09-01 01:03:23 | 52.69949 | 11.14474 | 104° | 75km/h | 11414m | -9.3m/s | -48.8°C | 0.8% | 216.9hPa | 2.5V | 02:44:02 | 03:13:19 | 00:00:00 | |
| GOEST3-10 | 2026-09-01 01:03:23 | 52.69944 | 11.14504 | 105° | 73km/h | 11405m | -9.0m/s | -48.7°C | 3.6% | 217.1hPa | 2.6V | 00:00:00 | 03:13:20 | 00:00:00 | |
| DL1LOL-11 | 2026-09-01 01:03:21 | 52.69949 | 11.14474 | 105° | 75km/h | 11414m | -9.3m/s | -48.8°C | 1.8% | 216.9hPa | 2.6V | 00:00:00 | 00:00:00 | 00:00:00 | |
| DO2SHX-10 | 2026-09-01 01:03:20 | 52.69957 | 11.14415 | 104° | 73km/h | 11433m | -9.4m/s | -48.6°C | 3.8% | 216.2hPa | 2.6V | 00:00:00 | 03:13:17 | 00:00:00 | |
| DM0DOS-11 | 2026-09-01 01:03:19 | 52.69982 | 11.14206 | 98° | 75km/h | 11499m | -9.4m/s | -48.4°C | 3.6% | 214.1hPa | 2.6V | 02:43:49 | 03:13:10 | 00:00:00 | |
| BIOWL1-15 | 2026-09-01 01:03:18 | 52.69969 | 11.14326 | 102° | 73km/h | 11461m | -9.4m/s | -48.6°C | 0.7% | 215.3hPa | 2.6V | 02:44:02 | 03:13:14 | 00:00:00 | |
| GOEST3-10 | 2026-09-01 01:03:18 | 52.69965 | 11.14356 | 103° | 73km/h | 11452m | -9.3m/s | -48.6°C | 3.8% | 215.6hPa | 2.6V | 00:00:00 | 00:00:00 | 00:00:00 | |
| DL1XH-15 | 2026-09-01 01:03:17 | 52.69973 | 11.14297 | 100° | 73km/h | 11470m | -9.8m/s | -48.5°C | 3.6% | 214.9hPa | 2.6V | 02:43:46 | 03:13:13 | 00:00:00 | |
| AA1-15 | 2026-09-01 01:03:16 | 52.69973 | 11.14297 | 101° | 73km/h | 11470m | -9.8m/s | -48.5°C | 0.6% | 215hPa | 2.6V | 02:44:02 | 03:13:13 | 00:00:00 | |
| DL1XH-west | 2026-09-01 01:03:15 | 52.69976 | 11.14267 | 100° | 73km/h | 11480m | -9.6m/s | -48.5°C | 0.4% | 214.7hPa | 2.5V | 02:44:02 | 03:13:12 | 00:00:00 | |
| DF8AY | 2026-09-01 01:03:12 | 52.69985 | 11.14175 | 98° | 75km/h | 11508m | -9.2m/s | -48.4°C | 0.5% | 213.8hPa | 2.6V | 02:44:02 | 03:13:09 | 00:00:00 | |
| SONDE2-11 | 2026-09-01 01:03:12 | 52.69985 | 11.14175 | 98° | 75km/h | 11508m | -9.2m/s | -48.4°C | 1.6% | 213.8hPa | 2.6V | 00:00:00 | 00:00:00 | 00:00:00 | |
| DO2SHX-10 | 2026-09-01 01:03:11 | 52.69987 | 11.14144 | 98° | 75km/h | 11517m | -9.1m/s | -48.4°C | 3.5% | 213.4hPa | 2.6V | 00:00:00 | 03:13:08 | 00:00:00 | |
| DB0UT-7 | 2026-09-01 01:03:09 | 52.69992 | 11.14082 | 96° | 84km/h | 11536m | -9.3m/s | -48.3°C | 3.6% | 212.8hPa | 2.6V | 00:00:00 | 00:00:00 | 00:00:00 | |
| DM0DOS-11 | 2026-09-01 01:03:08 | 52.70001 | 11.13887 | 94° | 80km/h | 11592m | -9.2m/s | -47.9°C | 3.6% | 211.1hPa | 2.6V | 02:43:59 | 03:13:00 | 00:00:00 | |
| DO2SHX-10 | 2026-09-01 01:03:08 | 52.69993 | 11.14050 | 96° | 77km/h | 11545m | -9.2m/s | -48.2°C | 3.7% | 212.5hPa | 2.6V | 02:43:00 | 03:13:05 | 00:00:00 | |
| DL1XH-15 | 2026-09-01 01:03:07 | 52.69997 | 11.13986 | 94° | 78km/h | 11564m | -9.3m/s | -47.8°C | 3.5% | 212hPa | 2.5V | 02:43:56 | 03:13:03 | 00:00:00 | |
| DD8BA-10 | 2026-09-01 01:03:07 | 52.69995 | 11.14018 | 95° | 80km/h | 11555m | -9.4m/s | -47.9°C | 3.1% | 212.2hPa | 2.5V | 00:00:00 | 00:00:00 | 00:00:00 | |
| DF8AY-15 | 2026-09-01 01:03:06 | 52.69997 | 11.13986 | 95° | 84km/h | 11564m | -9.2m/s | -47.7°C | 3.5% | 212.0hPa | 2.5V | 00:00:00 | 03:13:03 | 00:00:00 | |
| DL1XH1-15 | 2026-09-01 01:03:05 | 52.70004 | 11.13820 | 95° | 82km/h | 11610m | -9.3m/s | -47.9°C | 3.4% | 210.5hPa | 2.5V | 02:44:01 | 03:12:58 | 00:00:00 | |
| DL1XH-west | 2026-09-01 01:03:05 | 52.69998 | 11.13953 | 94° | 78km/h | 11573m | -9.3m/s | -47.8°C | 0.7% | 211.7hPa | 2.5V | 02:44:02 | 03:13:02 | 00:00:00 | |
| DF8AY | 2026-09-01 01:03:02 | 52.70004 | 11.13820 | 95° | 82km/h | 11610m | -9.3m/s | -47.9°C | 0.4% | 210.5hPa | 2.5V | 02:44:02 | 03:12:58 | 00:00:00 | |
| BIOWL1-15 | 2026-09-01 01:02:58 | 52.70017 | 11.13648 | 99° | 84km/h | 11657m | -8.9m/s | -48.1°C | 0.9% | 209hPa | 2.6V | 02:45:44 | 03:12:53 | 00:00:00 | |
| DM0DOS-11 | 2026-09-01 01:02:58 | 52.70028 | 11.13545 | 101° | 84km/h | 11685m | -9.8m/s | -48.2°C | 3.6% | 208.1hPa | 2.5V | 02:44:09 | 03:12:50 | 00:00:00 | |
| DL1XH-west | 2026-09-01 01:02:56 | 52.70020 | 11.13613 | 100° | 84km/h | 11666m | -9.1m/s | -48.1°C | 0.1% | 208.7hPa | 2.5V | 02:44:53 | 03:12:52 | 00:00:00 | |
| EDDB2-11 | 2026-09-01 01:02:55 | 52.70024 | 11.13579 | 100° | 82km/h | 11675m | -9.7m/s | -48.1°C | 1.5% | 208.3hPa | 2.6V | 00:00:00 | 00:00:00 | 00:00:00 | |
| DO2SHX-10 | 2026-09-01 01:02:53 | 52.70028 | 11.13545 | 102° | 84km/h | 11685m | -9.8m/s | -48.1°C | 3.6% | 208.0hPa | 2.6V | 00:00:00 | 03:12:50 | 00:00:00 | |
| DL1XH1-15 | 2026-09-01 01:02:52 | 52.70037 | 11.13475 | 102° | 86km/h | 11705m | -9.6m/s | -48.2°C | 3.7% | 207.5hPa | 2.6V | 02:44:11 | 03:12:48 | 00:00:00 | |
| DF8AY | 2026-09-01 01:02:51 | 52.70037 | 11.13475 | 102° | 86km/h | 11705m | -9.6m/s | -48.2°C | 0.8% | 207.5hPa | 2.6V | 02:44:53 | 03:12:48 | 00:00:00 | |
| DO2SHX-10 | 2026-09-01 01:02:50 | 52.70041 | 11.13440 | 102° | 86km/h | 11714m | -9.4m/s | -48.2°C | 3.7% | 207.2hPa | 2.6V | 02:44:00 | 03:12:47 | 00:00:00 | |
| DM0DOS-11 | 2026-09-01 01:02:48 | 52.70074 | 11.13192 | 103° | 88km/h | 11780m | -9.7m/s | -48.2°C | 3.4% | 205.1hPa | 2.5V | 02:44:19 | 03:12:40 | 00:00:00 | |
| BUE01 | 2026-09-01 01:02:48 | 52.70055 | 11.13335 | 101° | 86km/h | 11742m | -9.7m/s | -48.1°C | 1.6% | 206.3hPa | 2.5V | 00:00:00 | 00:00:00 | 00:00:00 | |
| DO2SHX-10 | 2026-09-01 01:02:47 | 52.70055 | 11.13335 | 102° | 88km/h | 11742m | -9.6m/s | -48.0°C | 3.5% | 206.2hPa | 2.5V | 00:00:00 | 03:12:44 | 00:00:00 | |
| DF8AY-15 | 2026-09-01 01:02:46 | 52.70059 | 11.13299 | 103° | 88km/h | 11752m | -9.6m/s | -48.0°C | 3.5% | 205.9hPa | 2.5V | 00:00:00 | 03:12:43 | 00:00:00 | |
| DL1XH1-15 | 2026-09-01 01:02:45 | 52.70085 | 11.13120 | 104° | 88km/h | 11799m | -9.5m/s | -48.3°C | 3.4% | 204.5hPa | 2.5V | 02:44:21 | 03:12:38 | 00:00:00 | |
| DL1XH-west | 2026-09-01 01:02:45 | 52.70069 | 11.13228 | 103° | 89km/h | 11771m | -9.3m/s | -48.1°C | 0.5% | 205.4hPa | 2.5V | 02:44:53 | 03:12:41 | 00:00:00 | |
| DF8AY | 2026-09-01 01:02:40 | 52.70091 | 11.13085 | 104° | 88km/h | 11809m | -9.8m/s | -48.4°C | 0.4% | 204.2hPa | 2.6V | 02:44:53 | 03:12:37 | 00:00:00 | |
| DB0DAN | 2026-09-01 01:02:40 | 52.70091 | 11.13085 | 104° | 84km/h | 11809m | -9.8m/s | -48.4°C | 1.5% | 204.18hPa | 2.6V | 00:00:00 | 00:00:00 | 00:00:00 | |
| DB0UT-7 | 2026-09-01 01:02:39 | 52.70096 | 11.13049 | 105° | 80km/h | 11819m | -9.7m/s | -48.5°C | 3.4% | 203.9hPa | 2.5V | 00:00:00 | 03:12:36 | 00:00:00 | |
| DM0DOS-11 | 2026-09-01 01:02:38 | 52.70128 | 11.12838 | 103° | 86km/h | 11876m | -9.4m/s | -48.5°C | 3.3% | 202.1hPa | 2.5V | 02:44:29 | 03:12:30 | 00:00:00 | |
| GOEST3-10 | 2026-09-01 01:02:38 | 52.70101 | 11.13014 | 105° | 88km/h | 11828m | -9.8m/s | -48.5°C | 3.4% | 203.5hPa | 2.6V | 00:00:00 | 00:00:00 | 00:00:00 | |
| DL1XH-15 | 2026-09-01 01:02:37 | 52.70113 | 11.12943 | 104° | 88km/h | 11848m | -9.9m/s | -48.5°C | 3.5% | 203hPa | 2.6V | 02:44:26 | 03:12:33 | 00:00:00 | |
| DL1XH-west | 2026-09-01 01:02:34 | 52.70123 | 11.12873 | 104° | 86km/h | 11866m | -9.7m/s | -48.5°C | 0% | 202.4hPa | 2.5V | 02:44:53 | 03:12:31 | 00:00:00 | |
| AA1-15 | 2026-09-01 01:02:33 | 52.70128 | 11.12838 | 103° | 86km/h | 11876m | -9.4m/s | -48.5°C | 0.1% | 202.1hPa | 2.5V | 02:44:53 | 03:12:30 | 00:00:00 | |
| DF8AY | 2026-09-01 01:02:30 | 52.70147 | 11.12699 | 102° | 86km/h | 11914m | -9.5m/s | -48.3°C | 0% | 200.9hPa | 2.5V | 02:44:53 | 03:12:26 | 00:00:00 | |
| BIOWL1-15 | 2026-09-01 01:02:30 | 52.70142 | 11.12733 | 102° | 86km/h | 11905m | -9.4m/s | -48.3°C | 0.1% | 201.3hPa | 2.5V | 02:45:44 | 03:12:27 | 00:00:00 | |
| DO2SHX-10 | 2026-09-01 01:02:29 | 52.70147 | 11.12699 | 102° | 84km/h | 11914m | -9.5m/s | -48.3°C | 3.2% | 200.9hPa | 2.5V | 00:00:00 | 03:12:26 | 00:00:00 | |
| GOEST3-10 | 2026-09-01 01:02:28 | 52.70151 | 11.12664 | 103° | 82km/h | 11923m | -9.7m/s | -48.2°C | 3.1% | 200.6hPa | 2.5V | 02:44:00 | 00:00:00 | 00:00:00 | |
| DL1XH-15 | 2026-09-01 01:02:27 | 52.70160 | 11.12597 | 102° | 82km/h | 11943m | -9.8m/s | -48.4°C | 3.1% | 200.1hPa | 2.6V | 02:44:36 | 03:12:23 | 00:00:00 | |
| DD8BA-10 | 2026-09-01 01:02:27 | 52.70156 | 11.12630 | 103° | 78km/h | 11933m | -9.8m/s | -48.3°C | 3.1% | 200.3hPa | 2.6V | 00:00:00 | 00:00:00 | 00:00:00 | |
| DL1XH1-15 | 2026-09-01 01:02:26 | 52.70184 | 11.12436 | 103° | 77km/h | 11991m | -10m/s | -48.6°C | 3% | 198.6hPa | 2.6V | 02:44:41 | 03:12:18 | 00:00:00 | |
| DB0DAN | 2026-09-01 01:02:25 | 52.70165 | 11.12564 | 103° | 77km/h | 11952m | -9.5m/s | -48.4°C | 1.1% | 199.78hPa | 2.6V | 00:00:00 | 00:00:00 | 00:00:00 | |
| DL1XH-west | 2026-09-01 01:02:24 | 52.70174 | 11.12499 | 103° | 78km/h | 11972m | -9.9m/s | -48.5°C | 0% | 199.1hPa | 2.5V | 02:44:53 | 03:12:20 | 00:00:00 | |
| AA1-15 | 2026-09-01 01:02:23 | 52.70179 | 11.12467 | 104° | 78km/h | 11981m | -9.7m/s | -48.6°C | 0% | 198.9hPa | 2.5V | 02:44:53 | 03:12:19 | 00:00:00 | |
| BIOWL1-15 | 2026-09-01 01:02:19 | 52.70212 | 11.12255 | 106° | 73km/h | 12049m | -9.9m/s | -48.3°C | 0% | 196.9hPa | 2.6V | 02:45:44 | 03:12:12 | 00:00:00 | |
| DF8AY | 2026-09-01 01:02:18 | 52.70198 | 11.12344 | 105° | 75km/h | 12020m | -9.7m/s | -48.6°C | 0% | 197.7hPa | 2.5V | 02:44:53 | 03:12:15 | 00:00:00 | |
| GOEST3-10 | 2026-09-01 01:02:18 | 52.70198 | 11.12344 | 105° | 73km/h | 12020m | -9.7m/s | -48.5°C | 3.0% | 197.7hPa | 2.5V | 00:00:00 | 00:00:00 | 00:00:00 | |
| DD8BA-10 | 2026-09-01 01:02:17 | 52.70203 | 11.12314 | 106° | 71km/h | 12030m | -9.7m/s | -48.3°C | 2.9% | 197.4hPa | 2.5V | 02:44:00 | 00:00:00 | 00:00:00 | |
| DM0DOS-11 | 2026-09-01 01:02:16 | 52.70222 | 11.12198 | 105° | 71km/h | 12069m | -9.6m/s | -48.1°C | 2.7% | 196.3hPa | 2.6V | 02:44:49 | 03:12:10 | 00:00:00 | |
| DL1XH1-15 | 2026-09-01 01:02:16 | 52.70232 | 11.12142 | 106° | 69km/h | 12087m | -9.7m/s | -48.1°C | 2.9% | 195.7hPa | 2.5V | 02:44:51 | 03:12:08 | 00:00:00 | |
| DL1XH-west | 2026-09-01 01:02:13 | 52.70223 | 11.12198 | 106° | 71km/h | 12069m | -9.6m/s | -48.1°C | 0% | 196.3hPa | 2.6V | 02:44:53 | 03:12:10 | 00:00:00 | |
| AA1-15 | 2026-09-01 01:02:11 | 52.70233 | 11.12142 | 106° | 69km/h | 12087m | -9.7m/s | -48.1°C | 0% | 195.7hPa | 2.5V | 02:44:53 | 03:12:08 | 00:00:00 | |
| DB0DAN | 2026-09-01 01:02:10 | 52.70238 | 11.12114 | 107° | 64km/h | 12097m | -9.7m/s | -48.2°C | 0.9% | 195.46hPa | 2.5V | 00:00:00 | 00:00:00 | 00:00:00 | |
| DF8AY | 2026-09-01 01:02:07 | 52.70251 | 11.12034 | 105° | 66km/h | 12126m | -9.9m/s | -48.3°C | 0% | 194.6hPa | 2.6V | 02:45:44 | 03:12:04 | 00:00:00 | |
| DL1XH-15 | 2026-09-01 01:02:07 | 52.70256 | 11.12008 | 104° | 64km/h | 12135m | -9.9m/s | -48.3°C | 2.7% | 194.3hPa | 2.5V | 02:44:56 | 03:12:03 | 00:00:00 | |
| DD8BA-10 | 2026-09-01 01:02:07 | 52.70251 | 11.12034 | 105° | 66km/h | 12126m | -9.8m/s | -48.3°C | 2.8% | 194.6hPa | 2.6V | 00:00:00 | 00:00:00 | 00:00:00 | |
| DF8AY-15 | 2026-09-01 01:02:06 | 52.70256 | 11.12008 | 105° | 68km/h | 12135m | -9.9m/s | -48.3°C | 2.7% | 194.3hPa | 2.6V | 00:00:00 | 03:12:03 | 00:00:00 | |
| DM0DOS-11 | 2026-09-01 01:02:05 | 52.70267 | 11.11929 | 102° | 64km/h | 12165m | -10.2m/s | -48.3°C | 2.8% | 193.4hPa | 2.6V | 02:44:59 | 03:12:00 | 00:00:00 | |
| DL1XH-west | 2026-09-01 01:02:03 | 52.70270 | 11.11903 | 102° | 66km/h | 12175m | -10.1m/s | -48.3°C | 0% | 193.2hPa | 2.6V | 02:45:44 | 03:11:59 | 00:00:00 | |
| AA1-15 | 2026-09-01 01:02:01 | 52.70277 | 11.11848 | 101° | 68km/h | 12195m | -10m/s | -48.2°C | 0% | 192.6hPa | 2.5V | 02:45:44 | 03:11:57 | 00:00:00 | |
| BIOWL1-15 | 2026-09-01 01:01:58 | 52.70298 | 11.11676 | 102° | 71km/h | 12254m | -9.6m/s | -48.4°C | 0% | 190.8hPa | 2.6V | 02:45:44 | 03:11:51 | 00:00:00 | |
| DF8AY | 2026-09-01 01:01:57 | 52.70290 | 11.11734 | 101° | 71km/h | 12235m | -9.7m/s | -48.3°C | 0% | 191.4hPa | 2.5V | 02:45:44 | 03:11:53 | 00:00:00 | |
| DO2SHX-10 | 2026-09-01 01:01:56 | 52.70290 | 11.11734 | 102° | 71km/h | 12235m | -9.6m/s | -48.3°C | 2.7% | 191.3hPa | 2.5V | 02:45:00 | 03:11:53 | 00:00:00 | |
| DM0DOS-11 | 2026-09-01 01:01:55 | 52.70301 | 11.11647 | 102° | 69km/h | 12264m | -10.2m/s | -48.5°C | 2.8% | 190.6hPa | 2.5V | 02:45:09 | 03:11:50 | 00:00:00 | |
| DB0DAN | 2026-09-01 01:01:55 | 52.70294 | 11.11704 | 102° | 68km/h | 12245m | -9.7m/s | -48.4°C | 0.8% | 191.14hPa | 2.6V | 00:00:00 | 00:00:00 | 00:00:00 | |
| EDDB2-12 | 2026-09-01 01:01:54 | 52.70298 | 11.11676 | 101° | 69km/h | 12254m | -9.6m/s | -48.4°C | 0.8% | 190.8hPa | 2.5V | 00:00:00 | 00:00:00 | 00:00:00 | |
| DL1XH1-15 | 2026-09-01 01:01:53 | 52.70308 | 11.11591 | 101° | 68km/h | 12284m | -9.8m/s | -48.4°C | 2.7% | 190hPa | 2.5V | 02:45:11 | 03:11:48 | 00:00:00 | |
| DL1XH-west | 2026-09-01 01:01:52 | 52.70308 | 11.11591 | 102° | 68km/h | 12284m | -9.8m/s | -48.4°C | 0% | 190hPa | 2.5V | 02:45:44 | 03:11:48 | 00:00:00 | |
| AA1-15 | 2026-09-01 01:01:49 | 52.70315 | 11.11537 | 101° | 66km/h | 12304m | -9.7m/s | -48.3°C | 0% | 189.4hPa | 2.6V | 02:45:44 | 03:11:46 | 00:00:00 | |
| GOEST3-10 | 2026-09-01 01:01:48 | 52.70318 | 11.11510 | 101° | 66km/h | 12314m | -9.9m/s | -48.1°C | 2.7% | 189.1hPa | 2.5V | 00:00:00 | 00:00:00 | 00:00:00 | |
| DL1XH-15 | 2026-09-01 01:01:47 | 52.70324 | 11.11455 | 99° | 66km/h | 12333m | -9.9m/s | -48°C | 2.5% | 188.6hPa | 2.5V | 02:45:16 | 03:11:43 | 00:00:00 | |
| DF8AY | 2026-09-01 01:01:46 | 52.70327 | 11.11429 | 100° | 66km/h | 12343m | -9.4m/s | -48°C | 0% | 188.3hPa | 2.5V | 02:45:44 | 03:11:42 | 00:00:00 | |
| BIOWL1-15 | 2026-09-01 01:01:45 | 52.70332 | 11.11375 | 99° | 64km/h | 12361m | -9.6m/s | -47.7°C | 0% | 187.8hPa | 2.6V | 02:45:44 | 03:11:40 | 00:00:00 | |
| DM0DOS-11 | 2026-09-01 01:01:45 | 52.70332 | 11.11375 | 99° | 64km/h | 12361m | -9.6m/s | -47.7°C | 2.6% | 187.8hPa | 2.6V | 02:45:19 | 03:11:40 | 00:00:00 | |
| DB0NH | 2026-09-01 01:01:45 | 52.70327 | 11.11429 | 100° | 68km/h | 12343m | -9.4m/s | -47.9°C | 2.7% | 188.2hPa | 2.5V | 00:00:00 | 03:11:42 | 00:00:00 | |
| DO2SHX-10 | 2026-09-01 01:01:44 | 52.70330 | 11.11402 | 100° | 64km/h | 12352m | -9.4m/s | -47.9°C | 2.7% | 188.0hPa | 2.5V | 00:00:00 | 03:11:41 | 00:00:00 | |
| DL1XH1-15 | 2026-09-01 01:01:43 | 52.70337 | 11.11322 | 99° | 64km/h | 12381m | -10.4m/s | -47.5°C | 2.5% | 187.3hPa | 2.5V | 02:45:21 | 03:11:38 | 00:00:00 | |
| DL1XH-west | 2026-09-01 01:01:40 | 52.70340 | 11.11296 | 98° | 66km/h | 12391m | -9.6m/s | -47.5°C | 0% | 187hPa | 2.5V | 02:45:44 | 03:11:37 | 00:00:00 | |
| DB0DAN | 2026-09-01 01:01:40 | 52.70340 | 11.11296 | 98° | 62km/h | 12391m | -9.6m/s | -47.5°C | 0.8% | 186.98hPa | 2.5V | 00:00:00 | 00:00:00 | 00:00:00 | |
| AA1-15 | 2026-09-01 01:01:39 | 52.70342 | 11.11269 | 98° | 64km/h | 12401m | -9.7m/s | -47.5°C | 0% | 186.7hPa | 2.5V | 02:45:44 | 03:11:36 | 00:00:00 | |
| SONDE2-11 | 2026-09-01 01:01:39 | 52.70344 | 11.11242 | 96° | 64km/h | 12411m | -10.0m/s | -47.6°C | 0.7% | 186.4hPa | 2.6V | 00:00:00 | 00:00:00 | 00:00:00 | |
| DO2SHX-10 | 2026-09-01 01:01:38 | 52.70344 | 11.11242 | 97° | 66km/h | 12411m | -9.9m/s | -47.5°C | 2.5% | 186.4hPa | 2.6V | 02:45:00 | 03:11:35 | 00:00:00 | |
| DL1XH-15 | 2026-09-01 01:01:37 | 52.70348 | 11.11189 | 95° | 66km/h | 12430m | -9.8m/s | -47.6°C | 2.5% | 185.8hPa | 2.6V | 02:45:26 | 03:11:33 | 00:00:00 | |
| SMARD9-15 | 2026-09-01 01:01:37 | 52.70348 | 11.11189 | 95° | 64km/h | 12430m | -9.8m/s | -47.7°C | 0.7% | 185.8hPa | 2.6V | 00:00:00 | 00:00:00 | 00:00:00 | |
| AM1SDL-15 | 2026-09-01 01:01:36 | 52.70347 | 11.11189 | 96° | 69km/h | 12430m | -9.7m/s | -47.6°C | 2.5% | 185.8hPa | 2.6V | 02:45:00 | 03:11:33 | 00:00:00 | |
| DM0DOS-11 | 2026-09-01 01:01:35 | 52.70352 | 11.11107 | 94° | 66km/h | 12460m | -9.5m/s | -47.8°C | 2.6% | 185hPa | 2.5V | 02:45:29 | 03:11:30 | 00:00:00 | |
| DF8AY | 2026-09-01 01:01:34 | 52.70351 | 11.11135 | 95° | 66km/h | 12450m | -10.3m/s | -47.7°C | 0% | 185.3hPa | 2.5V | 02:45:44 | 03:11:31 | 00:00:00 | |
| BIOWL1-15 | 2026-09-01 01:01:33 | 52.70353 | 11.11080 | 94° | 68km/h | 12469m | -9.8m/s | -47.8°C | 0% | 184.7hPa | 2.6V | 02:45:44 | 03:11:29 | 00:00:00 | |
| DL1XH1-15 | 2026-09-01 01:01:33 | 52.70354 | 11.11051 | 93° | 68km/h | 12479m | -9.8m/s | -47.8°C | 2.6% | 184.5hPa | 2.6V | 02:45:31 | 03:11:28 | 00:00:00 | |
| AA1-15 | 2026-09-01 01:01:29 | 52.70357 | 11.10994 | 93° | 71km/h | 12498m | -9.7m/s | -47.8°C | 0% | 183.9hPa | 2.5V | 02:45:44 | 03:11:26 | 00:00:00 | |
| DO2SHX-10 | 2026-09-01 01:01:29 | 52.70356 | 11.10994 | 94° | 71km/h | 12498m | -9.7m/s | -47.8°C | 2.7% | 183.9hPa | 2.5V | 02:45:00 | 03:11:26 | 00:00:00 | |
| GOEST3-10 | 2026-09-01 01:01:28 | 52.70358 | 11.10964 | 94° | 71km/h | 12508m | -9.5m/s | -47.8°C | 2.6% | 183.6hPa | 2.5V | 02:45:00 | 00:00:00 | 00:00:00 | |
| DL1XH-15 | 2026-09-01 01:01:27 | 52.70360 | 11.10905 | 94° | 71km/h | 12527m | -9.9m/s | -48.1°C | 2.6% | 183.1hPa | 2.6V | 02:45:36 | 03:11:23 | 00:00:00 | |
| DD8BA-10 | 2026-09-01 01:01:27 | 52.70359 | 11.10934 | 94° | 71km/h | 12518m | -9.9m/s | -47.9°C | 2.5% | 183.3hPa | 2.6V | 00:00:00 | 00:00:00 | 00:00:00 | |
| DL1XH1-15 | 2026-09-01 01:01:26 | 52.70368 | 11.10755 | 95° | 71km/h | 12577m | -10m/s | -48.4°C | 2.7% | 181.8hPa | 2.6V | 02:45:41 | 03:11:18 | 00:00:00 | |
| DB0DAN | 2026-09-01 01:01:25 | 52.70362 | 11.10875 | 95° | 69km/h | 12537m | -9.7m/s | -48.1°C | 0.7% | 182.87hPa | 2.6V | 00:00:00 | 00:00:00 | 00:00:00 | |
| DF8AY | 2026-09-01 01:01:24 | 52.70363 | 11.10845 | 95° | 71km/h | 12547m | -10.1m/s | -48.2°C | 0% | 182.6hPa | 2.5V | 02:45:44 | 03:11:21 | 00:00:00 | |
| HSKMA3-T | 2026-09-01 01:01:18 | 52.70373 | 11.10667 | 95° | 71km/h | 12606m | -9.6m/s | -48.3°C | 0% | 180.9hPa | 2.6V | 02:45:44 | 03:11:15 | 00:00:00 | |
| DL1XH-15 | 2026-09-01 01:01:18 | 52.70376 | 11.10609 | 96° | 69km/h | 12626m | -10.1m/s | -48.4°C | 2.5% | 180.4hPa | 2.5V | 02:45:46 | 03:11:13 | 00:00:00 | |
| DF8AY | 2026-09-01 01:01:14 | 52.70380 | 11.10551 | 97° | 71km/h | 12646m | -10.1m/s | -48.5°C | 0% | 179.8hPa | 2.5V | 02:46:35 | 03:11:11 | 00:00:00 | |
| DO2SHX-10 | 2026-09-01 01:01:14 | 52.70380 | 11.10551 | 98° | 71km/h | 12646m | -10.1m/s | -48.5°C | 2.7% | 179.8hPa | 2.6V | 00:00:00 | 03:11:11 | 00:00:00 | |
| GOEST3-10 | 2026-09-01 01:01:13 | 52.70383 | 11.10521 | 98° | 71km/h | 12656m | -10.1m/s | -48.5°C | 2.7% | 179.5hPa | 2.6V | 02:45:00 | 03:11:10 | 00:00:00 | |
| AM1SDL-15 | 2026-09-01 01:01:12 | 52.70385 | 11.10492 | 98° | 71km/h | 12666m | -9.9m/s | -48.6°C | 2.8% | 179.3hPa | 2.5V | 00:00:00 | 03:11:09 | 00:00:00 | |
| DB0DAN | 2026-09-01 01:01:10 | 52.70390 | 11.10434 | 97° | 68km/h | 12685m | -10.1m/s | -48.6°C | 0.7% | 178.72hPa | 2.5V | 00:00:00 | 00:00:00 | 00:00:00 | |
| DO2SHX-10 | 2026-09-01 01:01:08 | 52.70394 | 11.10375 | 97° | 71km/h | 12706m | -10.1m/s | -48.7°C | 2.8% | 178.2hPa | 2.6V | 00:00:00 | 03:11:05 | 00:00:00 | |
| DL1XH-15 | 2026-09-01 01:01:07 | 52.70398 | 11.10317 | 95° | 71km/h | 12724m | -9.6m/s | -48.7°C | 2.8% | 177.7hPa | 2.6V | 02:45:56 | 03:11:03 | 00:00:00 | |
| AA1-15 | 2026-09-01 01:01:07 | 52.70396 | 11.10346 | 97° | 71km/h | 12715m | -9.7m/s | -48.7°C | 0% | 177.9hPa | 2.6V | 02:46:35 | 03:11:04 | 00:00:00 | |
| DD8BA-10 | 2026-09-01 01:01:07 | 52.70396 | 11.10346 | 98° | 71km/h | 12715m | -9.6m/s | -48.7°C | 2.8% | 177.9hPa | 2.5V | 00:00:00 | 00:00:00 | 00:00:00 | |
| DF8AY-15 | 2026-09-01 01:01:06 | 52.70398 | 11.10317 | 96° | 66km/h | 12725m | -9.5m/s | -48.6°C | 2.8% | 177.6hPa | 2.5V | 00:00:00 | 03:11:03 | 00:00:00 | |
| DM0DOS-11 | 2026-09-01 01:01:05 | 52.70404 | 11.10229 | 95° | 71km/h | 12754m | -10.2m/s | -48.8°C | 2.7% | 176.9hPa | 2.5V | 02:45:59 | 03:11:00 | 00:00:00 | |
| HSKMA3-T | 2026-09-01 01:01:04 | 52.70402 | 11.10259 | 96° | 71km/h | 12744m | -9.7m/s | -48.8°C | 0% | 177.2hPa | 2.5V | 02:47:26 | 03:11:01 | 00:00:00 | |
| BIOWL1-15 | 2026-09-01 01:01:03 | 52.70418 | 11.09997 | 96° | 66km/h | 12835m | -10.2m/s | -48.2°C | 0% | 174.8hPa | 2.6V | 02:46:35 | 03:10:52 | 00:00:00 | |
| DL4XJ-10 | 2026-09-01 01:01:03 | 52.70403 | 11.10229 | 96° | 66km/h | 12754m | -10.1m/s | -48.4°C | 0% | 0hPa | 2.5V | 00:00:00 | 00:00:00 | 00:00:00 | |
| DO2SHX-10 | 2026-09-01 01:01:02 | 52.70405 | 11.10199 | 96° | 71km/h | 12764m | -10.3m/s | -48.7°C | 2.8% | 176.6hPa | 2.5V | 02:46:00 | 03:10:59 | 00:00:00 | |
| AM1SDL-15 | 2026-09-01 01:01:01 | 52.70409 | 11.10141 | 97° | 66km/h | 12785m | -10.0m/s | -48.5°C | 2.9% | 176.1hPa | 2.6V | 02:46:00 | 03:10:57 | 00:00:00 | |
| DO2SHX-10 | 2026-09-01 01:00:59 | 52.70411 | 11.10111 | 97° | 69km/h | 12795m | -10.1m/s | -48.5°C | 2.8% | 175.8hPa | 2.5V | 00:00:00 | 03:10:56 | 00:00:00 | |
| GOEST3-10 | 2026-09-01 01:00:58 | 52.70413 | 11.10082 | 97° | 68km/h | 12805m | -10.2m/s | -48.3°C | 2.8% | 175.5hPa | 2.5V | 02:46:00 | 00:00:00 | 00:00:00 | |
| DL1XH-15 | 2026-09-01 01:00:57 | 52.70417 | 11.10025 | 95° | 68km/h | 12825m | -9.8m/s | -48.2°C | 2.6% | 175hPa | 2.5V | 02:46:06 | 03:10:53 | 00:00:00 | |
| DL1XH-west | 2026-09-01 01:00:57 | 52.70415 | 11.10053 | 96° | 69km/h | 12815m | -10.1m/s | -48.2°C | 0% | 175.3hPa | 2.5V | 02:46:35 | 03:10:54 | 00:00:00 | |
| AA1-15 | 2026-09-01 01:00:56 | 52.70417 | 11.10025 | 96° | 68km/h | 12825m | -9.8m/s | -48.2°C | 0% | 175hPa | 2.5V | 02:46:35 | 03:10:53 | 00:00:00 | |
| DO2SHX-10 | 2026-09-01 01:00:56 | 52.70417 | 11.10025 | 96° | 66km/h | 12825m | -9.8m/s | -48.1°C | 2.6% | 175.0hPa | 2.5V | 00:00:00 | 03:10:53 | 00:00:00 | |
| DM0DOS-11 | 2026-09-01 01:00:55 | 52.70422 | 11.09944 | 95° | 64km/h | 12856m | -10.4m/s | -48.3°C | 2.7% | 174.2hPa | 2.5V | 02:46:09 | 03:10:50 | 00:00:00 | |
| DB0DAN | 2026-09-01 01:00:55 | 52.70418 | 11.09997 | 96° | 62km/h | 12835m | -10.2m/s | -48.2°C | 0.7% | 174.77hPa | 2.6V | 00:00:00 | 00:00:00 | 00:00:00 | |
| DF8AY | 2026-09-01 01:00:54 | 52.70423 | 11.09917 | 96° | 62km/h | 12866m | -9.9m/s | -48.2°C | 0% | 174hPa | 2.5V | 02:46:35 | 03:10:49 | 00:00:00 | |
| HSKMA3-T | 2026-09-01 01:00:54 | 52.70420 | 11.09970 | 96° | 64km/h | 12845m | -10.8m/s | -48.2°C | 0% | 174.5hPa | 2.5V | 02:47:26 | 03:10:51 | 00:00:00 | |
| EDDB2-12 | 2026-09-01 01:00:52 | 52.70423 | 11.09917 | 96° | 62km/h | 12866m | -9.9m/s | -48.2°C | 0.8% | 174.0hPa | 2.6V | 00:00:00 | 00:00:00 | 00:00:00 | |
| DJ2DS-15 | 2026-09-01 01:00:51 | 52.70426 | 11.09867 | 96° | 58km/h | 12885m | -9.8m/s | -47.8°C | 0.7% | 173.5hPa | 2.6V | 00:00:00 | 00:00:00 | 00:00:00 | |
| DO2SHX-10 | 2026-09-01 01:00:50 | 52.70426 | 11.09867 | 97° | 58km/h | 12886m | -9.8m/s | -47.8°C | 2.6% | 173.4hPa | 2.6V | 00:00:00 | 03:10:47 | 00:00:00 | |
| AM1SDL-15 | 2026-09-01 01:00:49 | 52.70429 | 11.09817 | 94° | 58km/h | 12906m | -10.5m/s | -47.3°C | 2.4% | 172.8hPa | 2.6V | 00:00:00 | 03:10:45 | 00:00:00 | |
| DL1XH-15 | 2026-09-01 01:00:47 | 52.70431 | 11.09769 | 92° | 58km/h | 12927m | -9.8m/s | -47.2°C | 2.4% | 172.4hPa | 2.6V | 02:46:16 | 03:10:43 | 00:00:00 | |
| DL1XH-west | 2026-09-01 01:00:46 | 52.70431 | 11.09769 | 93° | 58km/h | 12927m | -9.8m/s | -47.2°C | 0% | 172.4hPa | 2.6V | 02:46:35 | 03:10:43 | 00:00:00 | |
| DL1XH1-15 | 2026-09-01 01:00:46 | 52.70432 | 11.09647 | 89° | 58km/h | 12978m | -10.1m/s | -47.5°C | 2.5% | 171.1hPa | 2.6V | 02:46:21 | 03:10:38 | 00:00:00 | |
| DF8AY-15 | 2026-09-01 01:00:46 | 52.70430 | 11.09769 | 93° | 60km/h | 12927m | -9.8m/s | -47.2°C | 2.4% | 172.3hPa | 2.5V | 00:00:00 | 03:10:43 | 00:00:00 | |
| DM0DOS-11 | 2026-09-01 01:00:45 | 52.70432 | 11.09696 | 90° | 58km/h | 12957m | -10.5m/s | -47.4°C | 2.4% | 171.6hPa | 2.5V | 02:46:19 | 03:10:40 | 00:00:00 | |
| AA1-15 | 2026-09-01 01:00:45 | 52.70431 | 11.09745 | 91° | 58km/h | 12937m | -10.3m/s | -47.3°C | 0% | 172.1hPa | 2.5V | 02:46:35 | 03:10:42 | 00:00:00 | |
| HSKMA3-T | 2026-09-01 01:00:43 | 52.70432 | 11.09697 | 90° | 58km/h | 12957m | -10.5m/s | -47.4°C | 0% | 171.6hPa | 2.5V | 02:47:26 | 03:10:40 | 00:00:00 | |
| DL4XJ-10 | 2026-09-01 01:00:43 | 52.70432 | 11.09696 | 91° | 62km/h | 12958m | -10.5m/s | -47.0°C | 0% | 0hPa | 2.6V | 00:00:00 | 00:00:00 | 00:00:00 | |
| GOEST3-10 | 2026-09-01 01:00:42 | 52.70432 | 11.09672 | 90° | 60km/h | 12968m | -10.4m/s | !°C | 2.6% | 171.3hPa | 2.6V | 02:46:00 | 03:10:39 | 00:00:00 | |
| DB0DAN | 2026-09-01 01:00:40 | 52.70432 | 11.09623 | 89° | 57km/h | 12988m | -9.9m/s | -47.5°C | 0.7% | 170.78hPa | 2.6V | 00:00:00 | 00:00:00 | 00:00:00 | |
| DB0UT-7 | 2026-09-01 01:00:39 | 52.70431 | 11.09598 | 89° | 64km/h | 12998m | -9.8m/s | -47.4°C | 2.3% | 170.5hPa | 2.5V | 02:46:00 | 03:10:36 | 00:00:00 | |
| DO2SHX-10 | 2026-09-01 01:00:38 | 52.70431 | 11.09573 | 90° | 60km/h | 13008m | -10.5m/s | -47.4°C | 2.4% | 170.2hPa | 2.6V | 00:00:00 | 03:10:35 | 00:00:00 | |
| DL1XH-15 | 2026-09-01 01:00:37 | 52.70431 | 11.09523 | 89° | 60km/h | 13029m | -10.3m/s | -47.6°C | 2.6% | 169.7hPa | 2.6V | 02:46:26 | 03:10:33 | 00:00:00 | |
| DL1XH-west | 2026-09-01 01:00:36 | 52.70431 | 11.09498 | 89° | 60km/h | 13039m | -9.8m/s | -47.7°C | 0% | 169.5hPa | 2.6V | 02:46:35 | 03:10:32 | 00:00:00 | |
| TFSTFS | 2026-09-01 01:00:36 | 52.70431 | 11.09523 | 90° | 60km/h | 13029m | -10.4m/s | -47.6°C | 0.7% | 169.7hPa | 2.6V | 02:46:00 | 00:00:00 | 00:00:00 | |
| DL1XH1-15 | 2026-09-01 01:00:36 | 52.70431 | 11.09397 | 90° | 62km/h | 13079m | -10.1m/s | -48°C | 2.6% | 168.4hPa | 2.5V | 02:46:31 | 03:10:28 | 00:00:00 | |
| DO2SHX-10 | 2026-09-01 01:00:35 | 52.70431 | 11.09498 | 90° | 60km/h | 13039m | -9.8m/s | -47.7°C | 2.6% | 169.4hPa | 2.6V | 02:46:00 | 03:10:32 | 00:00:00 | |
| DM0DOS-11 | 2026-09-01 01:00:34 | 52.70431 | 11.09448 | 90° | 60km/h | 13059m | -10.1m/s | -47.9°C | 2.4% | 168.9hPa | 2.5V | 02:46:29 | 03:10:30 | 00:00:00 | |
| AA1-15 | 2026-09-01 01:00:34 | 52.70431 | 11.09473 | 90° | 60km/h | 13049m | -9.8m/s | -47.8°C | 0% | 169.2hPa | 2.6V | 02:46:35 | 03:10:31 | 00:00:00 | |
| DF8AY | 2026-09-01 01:00:32 | 52.70431 | 11.09423 | 91° | 60km/h | 13069m | -10.3m/s | -48°C | 0% | 168.7hPa | 2.5V | 02:46:35 | 03:10:29 | 00:00:00 | |
| DO2SHX-10 | 2026-09-01 01:00:32 | 52.70431 | 11.09423 | 91° | 62km/h | 13069m | -10.3m/s | -47.9°C | 2.5% | 168.7hPa | 2.5V | 00:00:00 | 03:10:29 | 00:00:00 | |
| DO2SHX-10 | 2026-09-01 01:00:29 | 52.70432 | 11.09345 | 92° | 64km/h | 13099m | -10.2m/s | -48.1°C | 2.5% | 167.9hPa | 2.5V | 00:00:00 | 03:10:26 | 00:00:00 | |
| BIOWL1-15 | 2026-09-01 01:00:28 | 52.70445 | 11.08742 | 90° | 66km/h | 13321m | -10.4m/s | -48.5°C | 0% | 162.4hPa | 2.5V | 02:48:17 | 03:10:04 | 00:00:00 | |
| DL1XH-west | 2026-09-01 01:00:25 | 52.70434 | 11.09212 | 92° | 66km/h | 13150m | -9.7m/s | -48.3°C | 0% | 166.7hPa | 2.6V | 02:47:26 | 03:10:21 | 00:00:00 | |
| DB0DAN | 2026-09-01 01:00:25 | 52.70433 | 11.09239 | 92° | 62km/h | 13140m | -9.8m/s | -48.3°C | 0.8% | 166.92hPa | 2.5V | 00:00:00 | 00:00:00 | 00:00:00 | |
| DL1XH1-15 | 2026-09-01 01:00:24 | 52.70436 | 11.09128 | 92° | 68km/h | 13180m | -10.1m/s | -48.3°C | 2.7% | 165.9hPa | 2.5V | 02:46:41 | 03:10:18 | 00:00:00 | |
| AA1-15 | 2026-09-01 01:00:23 | 52.70434 | 11.09184 | 92° | 68km/h | 13160m | -10.3m/s | -48.3°C | 0% | 166.4hPa | 2.6V | 02:47:26 | 03:10:20 | 00:00:00 | |
| HSKMA3-T | 2026-09-01 01:00:21 | 52.70436 | 11.09128 | 93° | 68km/h | 13180m | -10.1m/s | -48.3°C | 0% | 165.9hPa | 2.5V | 02:47:26 | 03:10:18 | 00:00:00 | |
| DO2SHX-10 | 2026-09-01 01:00:20 | 52.70436 | 11.09100 | 93° | 68km/h | 13191m | -10.1m/s | -48.3°C | 2.5% | 165.6hPa | 2.5V | 00:00:00 | 03:10:17 | 00:00:00 | |
| EDDB2-11 | 2026-09-01 01:00:19 | 52.70437 | 11.09072 | 92° | 66km/h | 13201m | -10.2m/s | -48.4°C | 0.6% | 165.3hPa | 2.5V | 00:00:00 | 00:00:00 | 00:00:00 | |
| DL1XH-15 | 2026-09-01 01:00:18 | 52.70440 | 11.08989 | 92° | 66km/h | 13231m | -10.1m/s | -48.6°C | 2.6% | 164.6hPa | 2.5V | 02:46:46 | 03:10:13 | 00:00:00 | |
| AA1-15 | 2026-09-01 01:00:13 | 52.70442 | 11.08907 | 92° | 68km/h | 13261m | -10m/s | -48.9°C | 0% | 163.8hPa | 2.6V | 02:47:26 | 03:10:10 | 00:00:00 | |
| DL1XH1-15 | 2026-09-01 01:00:13 | 52.70444 | 11.08852 | 92° | 66km/h | 13280m | -9.1m/s | -48.8°C | 2.6% | 163.4hPa | 2.5V | 02:46:51 | 03:10:08 | 00:00:00 | |
| DF8AY | 2026-09-01 01:00:10 | 52.70444 | 11.08824 | 92° | 66km/h | 13290m | -9.3m/s | -48.7°C | 0% | 163.1hPa | 2.6V | 02:47:26 | 03:10:07 | 00:00:00 | |
| DB0DAN | 2026-09-01 01:00:10 | 52.70444 | 11.08824 | 92° | 64km/h | 13290m | -9.3m/s | -48.7°C | 0.7% | 163.1hPa | 2.6V | 00:00:00 | 00:00:00 | 00:00:00 | |
| HSKMA3-T | 2026-09-01 01:00:08 | 52.70445 | 11.08769 | 91° | 66km/h | 13310m | -10.7m/s | -48.5°C | 0% | 162.6hPa | 2.5V | 02:47:26 | 03:10:05 | 00:00:00 | |
| DO2SHX-10 | 2026-09-01 01:00:08 | 52.70445 | 11.08769 | 91° | 66km/h | 13310m | -10.7m/s | -48.5°C | 2.7% | 162.6hPa | 2.5V | 02:46:00 | 03:10:05 | 00:00:00 | |
| DM0DOS-11 | 2026-09-01 01:00:07 | 52.70446 | 11.08635 | 90° | 64km/h | 13361m | -9.7m/s | -48.8°C | 2.6% | 161.4hPa | 2.6V | 02:46:59 | 03:10:00 | 00:00:00 | |
| DD8BA-10 | 2026-09-01 01:00:07 | 52.70445 | 11.08742 | 91° | 62km/h | 13321m | -10.3m/s | -48.5°C | 2.5% | 162.4hPa | 2.5V | 00:00:00 | 00:00:00 | 00:00:00 | |
| DL1XH1-15 | 2026-09-01 01:00:06 | 52.70446 | 11.08583 | 89° | 62km/h | 13381m | -10.3m/s | -48.8°C | 2.6% | 160.9hPa | 2.5V | 02:47:01 | 03:09:58 | 00:00:00 | |
| DL1XH-west | 2026-09-01 01:00:03 | 52.70446 | 11.08635 | 91° | 64km/h | 13361m | -9.7m/s | -48.8°C | 0% | 161.4hPa | 2.6V | 02:47:26 | 03:10:00 | 00:00:00 | |
| AA1-15 | 2026-09-01 01:00:03 | 52.70446 | 11.08609 | 90° | 62km/h | 13371m | -10.2m/s | -48.8°C | 0% | 161.1hPa | 2.5V | 02:47:26 | 03:09:59 | 00:00:00 | |
| DF8AY | 2026-09-01 00:59:59 | 52.70446 | 11.08532 | 89° | 60km/h | 13401m | -10m/s | -48.8°C | 0% | 160.4hPa | 2.6V | 02:47:26 | 03:09:56 | 00:00:00 | |
| DO2SHX-10 | 2026-09-01 00:59:59 | 52.70446 | 11.08532 | 90° | 60km/h | 13401m | -9.9m/s | -48.7°C | 2.7% | 160.4hPa | 2.6V | 02:47:00 | 03:09:56 | 00:00:00 | |
| DL1XH-15 | 2026-09-01 00:59:57 | 52.70445 | 11.08457 | 89° | 58km/h | 13430m | -10m/s | -48.8°C | 3% | 159.7hPa | 2.5V | 02:47:06 | 03:09:53 | 00:00:00 | |
| HSKMA3-T | 2026-09-01 00:59:57 | 52.70445 | 11.08482 | 89° | 60km/h | 13420m | -10.1m/s | -48.9°C | 0% | 159.9hPa | 2.6V | 02:47:26 | 03:09:54 | 00:00:00 | |
| DD8BA-10 | 2026-09-01 00:59:57 | 52.70445 | 11.08482 | 90° | 53km/h | 13421m | -10.1m/s | -48.8°C | 2.6% | 159.9hPa | 2.6V | 00:00:00 | 00:00:00 | 00:00:00 | |
| DL1XH1-15 | 2026-09-01 00:59:56 | 52.70445 | 11.08342 | 90° | 53km/h | 13480m | -10.1m/s | -48.8°C | 2.7% | 158.5hPa | 2.6V | 02:47:11 | 03:09:48 | 00:00:00 | |
| DB0DAN | 2026-09-01 00:59:55 | 52.70445 | 11.08433 | 90° | 55km/h | 13440m | -9.8m/s | -48.8°C | 0.6% | 159.47hPa | 2.5V | 00:00:00 | 00:00:00 | 00:00:00 | |
| DL1XH-west | 2026-09-01 00:59:53 | 52.70445 | 11.08342 | 91° | 53km/h | 13480m | -10.1m/s | -48.8°C | 0% | 158.5hPa | 2.6V | 02:47:26 | 03:09:48 | 00:00:00 | |
| AA1-15 | 2026-09-01 00:59:53 | 52.70445 | 11.08364 | 91° | 53km/h | 13470m | -10.2m/s | -48.8°C | 0% | 158.7hPa | 2.6V | 02:47:26 | 03:09:49 | 00:00:00 | |
| BIOWL1-15 | 2026-09-01 00:59:52 | 52.70445 | 11.08320 | 91° | 51km/h | 13490m | -10m/s | -48.9°C | 0% | 158.2hPa | 2.5V | 02:48:17 | 03:09:47 | 00:00:00 | |
| DF8AY | 2026-09-01 00:59:48 | 52.70445 | 11.08198 | 88° | 47km/h | 13550m | -10.1m/s | -49.3°C | 0% | 156.9hPa | 2.5V | 02:47:26 | 03:09:41 | 00:00:00 | |
| HSKMA3-T | 2026-09-01 00:59:46 | 52.70446 | 11.08238 | 90° | 49km/h | 13530m | -9.6m/s | -49.2°C | 0% | 157.3hPa | 2.6V | 02:47:26 | 03:09:43 | 00:00:00 | |
| DL1XH1-15 | 2026-09-01 00:59:46 | 52.70443 | 11.08138 | 85° | 47km/h | 13579m | -9.9m/s | -49.2°C | 2.6% | 156.1hPa | 2.5V | 02:47:21 | 03:09:38 | 00:00:00 | |
| DL3AQ-11 | 2026-09-01 00:59:45 | 52.70446 | 11.08218 | 88° | 47km/h | 13540m | -10.3m/s | -49.2°C | 0.4% | 157.0hPa | 2.6V | 00:00:00 | 00:00:00 | 00:00:00 | |
| DL1XH-west | 2026-09-01 00:59:42 | 52.70444 | 11.08158 | 86° | 47km/h | 13569m | -9.9m/s | -49.3°C | 0% | 156.3hPa | 2.6V | 02:47:26 | 03:09:39 | 00:00:00 | |
| AA1-15 | 2026-09-01 00:59:42 | 52.70443 | 11.08138 | 86° | 47km/h | 13579m | -9.9m/s | -49.2°C | 0% | 156.1hPa | 2.5V | 02:47:26 | 03:09:38 | 00:00:00 | |
| DL1XH-15 | 2026-09-01 00:59:41 | 52.70435 | 11.08040 | 79° | 49km/h | 13628m | -10m/s | -49.2°C | 2.6% | 155hPa | 2.5V | 02:47:26 | 03:09:33 | 00:00:00 | |
| BIOWL1-15 | 2026-09-01 00:59:40 | 52.70437 | 11.08060 | 80° | 49km/h | 13618m | -10.1m/s | -49.2°C | 0% | 155.2hPa | 2.5V | 02:48:17 | 03:09:34 | 00:00:00 | |
| DB0DAN | 2026-09-01 00:59:40 | 52.70442 | 11.08119 | 85° | 46km/h | 13589m | -9.9m/s | -49.2°C | 0.7% | 155.88hPa | 2.5V | 00:00:00 | 00:00:00 | 00:00:00 | |
| DF8AY | 2026-09-01 00:59:38 | 52.70439 | 11.08080 | 81° | 47km/h | 13608m | -9.9m/s | -49.2°C | 0% | 155.4hPa | 2.6V | 02:47:26 | 03:09:35 | 00:00:00 | |
| HSKMA3-T | 2026-09-01 00:59:36 | 52.70435 | 11.08040 | 80° | 49km/h | 13628m | -10m/s | -49.2°C | 0% | 155hPa | 2.5V | 02:47:26 | 03:09:33 | 00:00:00 | |
| DD8BA-10 | 2026-09-01 00:59:36 | 52.70435 | 11.08040 | 80° | 53km/h | 13629m | -9.9m/s | -49.1°C | 2.6% | 154.9hPa | 2.6V | 00:00:00 | 00:00:00 | 00:00:00 | |
| DM0DOS-11 | 2026-09-01 00:59:35 | 52.70428 | 11.07979 | 79° | 51km/h | 13658m | -9.8m/s | -49.3°C | 2.8% | 154.2hPa | 2.6V | 02:47:29 | 03:09:30 | 00:00:00 | |
| DL1XH1-15 | 2026-09-01 00:59:35 | 52.70424 | 11.07936 | 80° | 53km/h | 13679m | -10.3m/s | -49.4°C | 2.6% | 153.7hPa | 2.5V | 02:47:31 | 03:09:28 | 00:00:00 | |
| DL1XH-west | 2026-09-01 00:59:32 | 52.70426 | 11.07957 | 80° | 53km/h | 13668m | -10.3m/s | -49.4°C | 0% | 154hPa | 2.6V | 02:48:17 | 03:09:29 | 00:00:00 | |
| DO2SHX-10 | 2026-09-01 00:59:32 | 52.70426 | 11.07957 | 81° | 53km/h | 13669m | -10.2m/s | -49.3°C | 2.8% | 153.9hPa | 2.6V | 02:47:00 | 03:09:29 | 00:00:00 | |
| DL1XH-15 | 2026-09-01 00:59:31 | 52.70414 | 11.07825 | 82° | 55km/h | 13729m | -10.4m/s | -49.4°C | 2.9% | 152.6hPa | 2.6V | 02:47:36 | 03:09:23 | 00:00:00 | |
| AA1-15 | 2026-09-01 00:59:30 | 52.70422 | 11.07914 | 81° | 53km/h | 13689m | -10.4m/s | -49.4°C | 0% | 153.6hPa | 2.5V | 02:48:17 | 03:09:27 | 00:00:00 | |
| DF8AY | 2026-09-01 00:59:27 | 52.70416 | 11.07848 | 82° | 55km/h | 13719m | -9.8m/s | -49.5°C | 0% | 152.8hPa | 2.6V | 02:48:17 | 03:09:24 | 00:00:00 | |
| GOEST3-10 | 2026-09-01 00:59:27 | 52.70416 | 11.07847 | 83° | 55km/h | 13719m | -9.7m/s | -49.4°C | 2.9% | 152.7hPa | 2.6V | 02:47:00 | 00:00:00 | 00:00:00 | |
| DD8BA-10 | 2026-09-01 00:59:26 | 52.70414 | 11.07825 | 83° | 58km/h | 13729m | -10.3m/s | -49.4°C | 2.9% | 152.5hPa | 2.5V | 00:00:00 | 00:00:00 | 00:00:00 | |
| DM0DOS-11 | 2026-09-01 00:59:25 | 52.70409 | 11.07756 | 84° | 57km/h | 13760m | -10.1m/s | -48.8°C | 2.7% | 151.9hPa | 2.5V | 02:47:39 | 03:09:20 | 00:00:00 | |
| DB0DAN | 2026-09-01 00:59:25 | 52.70412 | 11.07802 | 83° | 53km/h | 13739m | -10.5m/s | -49.2°C | 0.7% | 152.34hPa | 2.5V | 00:00:00 | 00:00:00 | 00:00:00 | |
| DL1XH-west | 2026-09-01 00:59:21 | 52.70406 | 11.07708 | 85° | 58km/h | 13780m | -10.5m/s | -48.9°C | 0% | 151.4hPa | 2.6V | 02:48:17 | 03:09:18 | 00:00:00 | |
| AA1-15 | 2026-09-01 00:59:20 | 52.70404 | 11.07660 | 86° | 60km/h | 13801m | -9.8m/s | -49°C | 0% | 150.9hPa | 2.5V | 02:48:17 | 03:09:16 | 00:00:00 | |
| BIOWL1-15 | 2026-09-01 00:59:17 | 52.70405 | 11.07488 | 93° | 57km/h | 13872m | -10m/s | -49.5°C | 0% | 149.2hPa | 2.6V | 02:48:17 | 03:09:09 | 00:00:00 | |
| DF8AY | 2026-09-01 00:59:16 | 52.70403 | 11.07585 | 90° | 60km/h | 13832m | -10.1m/s | -49.2°C | 0% | 150.2hPa | 2.6V | 02:48:17 | 03:09:13 | 00:00:00 | |
| DD8BA-10 | 2026-09-01 00:59:16 | 52.70403 | 11.07585 | 90° | 57km/h | 13832m | -10.0m/s | -49.2°C | 2.9% | 150.2hPa | 2.6V | 02:47:00 | 00:00:00 | 00:00:00 | |
| DM0DOS-11 | 2026-09-01 00:59:15 | 52.70404 | 11.07512 | 92° | 58km/h | 13862m | -10.2m/s | -49.4°C | 3.2% | 149.5hPa | 2.5V | 02:47:49 | 03:09:10 | 00:00:00 | |
| DB0NH | 2026-09-01 00:59:15 | 52.70403 | 11.07560 | 92° | 55km/h | 13842m | -10.2m/s | -49.2°C | 2.8% | 149.9hPa | 2.6V | 02:47:00 | 03:09:12 | 00:00:00 | |
| DL1XH1-15 | 2026-09-01 00:59:14 | 52.70406 | 11.07464 | 92° | 57km/h | 13882m | -9.5m/s | -49.5°C | 3.1% | 149.1hPa | 2.6V | 02:47:51 | 03:09:08 | 00:00:00 | |
| DL1XH-west | 2026-09-01 00:59:11 | 52.70406 | 11.07464 | 93° | 57km/h | 13882m | -9.5m/s | -49.5°C | 0% | 149.1hPa | 2.6V | 02:48:17 | 03:09:08 | 00:00:00 | |
| DB0DAN | 2026-09-01 00:59:10 | 52.70406 | 11.07440 | 92° | 53km/h | 13892m | -9.8m/s | -49.6°C | 0.6% | 148.79hPa | 2.5V | 00:00:00 | 00:00:00 | 00:00:00 | |
| AA1-15 | 2026-09-01 00:59:10 | 52.70407 | 11.07417 | 91° | 57km/h | 13902m | -10.5m/s | -49.6°C | 0% | 148.6hPa | 2.5V | 02:48:17 | 03:09:06 | 00:00:00 | |
| DF8AY | 2026-09-01 00:59:05 | 52.70407 | 11.07324 | 88° | 55km/h | 13942m | -10.4m/s | -49.2°C | 0% | 147.7hPa | 2.5V | 02:48:17 | 03:09:02 | 00:00:00 | |
| DM0DOS-11 | 2026-09-01 00:59:05 | 52.70406 | 11.07279 | 87° | 55km/h | 13962m | -9.9m/s | -49.2°C | 2.8% | 147.2hPa | 2.6V | 02:47:59 | 03:09:00 | 00:00:00 | |
| DO2SHX-10 | 2026-09-01 00:59:05 | 52.70406 | 11.07324 | 89° | 55km/h | 13943m | -10.4m/s | -49.1°C | 2.7% | 147.7hPa | 2.5V | 02:47:00 | 03:09:02 | 00:00:00 | |
| DL1XH1-15 | 2026-09-01 00:59:04 | 52.70404 | 11.07234 | 88° | 53km/h | 13982m | -9.9m/s | -49.2°C | 2.8% | 146.8hPa | 2.5V | 02:48:01 | 03:08:58 | 00:00:00 | |
| SONDE2-11 | 2026-09-01 00:59:03 | 52.70406 | 11.07279 | 87° | 53km/h | 13963m | -9.9m/s | -49.2°C | 0.8% | 147.2hPa | 2.6V | 00:00:00 | 00:00:00 | 00:00:00 | |
| GOEST3-10 | 2026-09-01 00:59:02 | 52.70405 | 11.07256 | 88° | 53km/h | 13973m | -9.9m/s | -49.2°C | 2.9% | 147.0hPa | 2.6V | 00:00:00 | 03:08:59 | 00:00:00 | |
| DL1XH-15 | 2026-09-01 00:59:01 | 52.70401 | 11.07126 | 86° | 51km/h | 14033m | -10.2m/s | -49.1°C | 2.8% | 145.7hPa | 2.6V | 02:48:06 | 03:08:53 | 00:00:00 | |
| DL1XH-west | 2026-09-01 00:59:00 | 52.70404 | 11.07212 | 88° | 53km/h | 13992m | -9.9m/s | -49.2°C | 0% | 146.6hPa | 2.5V | 02:48:17 | 03:08:57 | 00:00:00 | |
| BIOWL1-15 | 2026-09-01 00:58:58 | 52.70403 | 11.07169 | 87° | 53km/h | 14013m | -10.3m/s | -49.1°C | 0% | 146.1hPa | 2.5V | 02:48:17 | 03:08:55 | 00:00:00 | |
| DF8AY | 2026-09-01 00:58:54 | 52.70400 | 11.07083 | 87° | 51km/h | 14053m | -10m/s | -49.1°C | 0% | 145.2hPa | 2.5V | 02:48:17 | 03:08:51 | 00:00:00 | |
| DL1XH1-15 | 2026-09-01 00:58:54 | 52.70397 | 11.07018 | 85° | 53km/h | 14084m | -10.1m/s | -49°C | 2.8% | 144.6hPa | 2.6V | 02:48:11 | 03:08:48 | 00:00:00 | |
| BIOWL9-15 | 2026-09-01 00:58:52 | 52.70398 | 11.07040 | 86° | 51km/h | 14074m | -10.1m/s | -49.0°C | 0.7% | 144.8hPa | 2.5V | 00:00:00 | 00:00:00 | 00:00:00 | |
| S3001 | 2026-09-01 00:58:51 | 52.70397 | 11.07018 | 85° | 53km/h | 14084m | -10.1m/s | -49.0°C | 0.8% | 144.6hPa | 2.5V | 00:00:00 | 00:00:00 | 00:00:00 | |
| DL1XH-15 | 2026-09-01 00:58:50 | 52.70388 | 11.06903 | 81° | 57km/h | 14134m | -10.3m/s | -49°C | 2.7% | 143.5hPa | 2.5V | 02:48:16 | 03:08:43 | 00:00:00 | |
| DL1XH-west | 2026-09-01 00:58:50 | 52.70396 | 11.06995 | 85° | 55km/h | 14094m | -10.1m/s | -48.9°C | 0% | 144.3hPa | 2.6V | 02:48:17 | 03:08:47 | 00:00:00 | |
| AA1-15 | 2026-09-01 00:58:48 | 52.70393 | 11.06950 | 82° | 57km/h | 14114m | -10.3m/s | -49°C | 0% | 143.9hPa | 2.5V | 02:48:17 | 03:08:45 | 00:00:00 | |
| EDDB2-12 | 2026-09-01 00:58:48 | 52.70391 | 11.06926 | 81° | 57km/h | 14124m | -10.0m/s | -49.0°C | 0.7% | 143.7hPa | 2.5V | 00:00:00 | 00:00:00 | 00:00:00 | |
| BIOWL1-15 | 2026-09-01 00:58:46 | 52.70374 | 11.06728 | 81° | 49km/h | 14216m | -10.5m/s | -49.6°C | 0% | 141.7hPa | 2.5V | 02:49:08 | 03:08:35 | 00:00:00 | |
| DM0DOS-11 | 2026-09-01 00:58:45 | 52.70383 | 11.06833 | 82° | 55km/h | 14165m | -9.9m/s | -49.3°C | 2.8% | 142.8hPa | 2.5V | 02:48:19 | 03:08:40 | 00:00:00 | |
| DF8AY | 2026-09-01 00:58:44 | 52.70383 | 11.06833 | 83° | 55km/h | 14165m | -9.9m/s | -49.3°C | 0% | 142.8hPa | 2.5V | 02:49:08 | 03:08:40 | 00:00:00 | |
| DL1XH1-15 | 2026-09-01 00:58:44 | 52.70379 | 11.06790 | 82° | 51km/h | 14185m | -10.4m/s | -49.5°C | 2.9% | 142.3hPa | 2.6V | 02:48:21 | 03:08:38 | 00:00:00 | |
| DO2SHX-10 | 2026-09-01 00:58:44 | 52.70384 | 11.06856 | 83° | 55km/h | 14155m | -10.0m/s | -49.2°C | 2.7% | 143.0hPa | 2.6V | 00:00:00 | 03:08:41 | 00:00:00 | |
| DL3AQ-11 | 2026-09-01 00:58:42 | 52.70379 | 11.06790 | 82° | 51km/h | 14185m | -10.4m/s | -49.5°C | 0.8% | 142.3hPa | 2.6V | 00:00:00 | 00:00:00 | 00:00:00 | |
| DO2SHX-10 | 2026-09-01 00:58:41 | 52.70379 | 11.06790 | 83° | 51km/h | 14185m | -10.4m/s | -49.4°C | 2.9% | 142.3hPa | 2.6V | 00:00:00 | 03:08:38 | 00:00:00 | |
| DL1XH-15 | 2026-09-01 00:58:39 | 52.70369 | 11.06688 | 78° | 49km/h | 14238m | -10.3m/s | -49.5°C | 2.9% | 141.2hPa | 2.6V | 02:48:26 | 03:08:33 | 00:00:00 | |
| DL1XH-west | 2026-09-01 00:58:39 | 52.70376 | 11.06748 | 82° | 49km/h | 14206m | -10.2m/s | -49.6°C | 0% | 141.9hPa | 2.5V | 02:49:08 | 03:08:36 | 00:00:00 | |
| AA1-15 | 2026-09-01 00:58:37 | 52.70372 | 11.06708 | 80° | 49km/h | 14227m | -11.1m/s | -49.6°C | 0% | 141.4hPa | 2.5V | 02:49:08 | 03:08:34 | 00:00:00 | |
| BIOWL1-15 | 2026-09-01 00:58:34 | 52.70365 | 11.06648 | 79° | 49km/h | 14258m | -10.2m/s | -49.5°C | 0% | 140.8hPa | 2.6V | 02:49:08 | 03:08:31 | 00:00:00 | |
| DM0DOS-11 | 2026-09-01 00:58:34 | 52.70362 | 11.06628 | 79° | 49km/h | 14269m | -10.7m/s | -49.5°C | 2.8% | 140.5hPa | 2.5V | 02:48:29 | 03:08:30 | 00:00:00 | |
| DF8AY | 2026-09-01 00:58:33 | 52.70362 | 11.06628 | 80° | 49km/h | 14269m | -10.7m/s | -49.5°C | 0% | 140.5hPa | 2.5V | 02:49:08 | 03:08:30 | 00:00:00 | |
| DL1XH1-15 | 2026-09-01 00:58:33 | 52.70356 | 11.06566 | 80° | 51km/h | 14299m | -10.3m/s | -49.6°C | 2.8% | 139.9hPa | 2.6V | 02:48:32 | 03:08:27 | 00:00:00 | |
| DL1XH-west | 2026-09-01 00:58:29 | 52.70354 | 11.06545 | 80° | 53km/h | 14310m | -10.5m/s | -49.6°C | 0% | 139.7hPa | 2.6V | 02:49:08 | 03:08:26 | 00:00:00 | |
| DL1XH-15 | 2026-09-01 00:58:29 | 52.70346 | 11.06479 | 78° | 57km/h | 14342m | -10m/s | -49.7°C | 2.7% | 139hPa | 2.5V | 02:48:36 | 03:08:23 | 00:00:00 | |
| AA1-15 | 2026-09-01 00:58:27 | 52.70346 | 11.06479 | 78° | 57km/h | 14342m | -10m/s | -49.7°C | 0% | 139hPa | 2.5V | 02:49:08 | 03:08:23 | 00:00:00 | |
| BIOWL1-15 | 2026-09-01 00:58:23 | 52.70337 | 11.06409 | 77° | 60km/h | 14373m | -10.1m/s | -49.9°C | 0% | 138.3hPa | 2.6V | 02:49:08 | 03:08:20 | 00:00:00 | |
| DL1XH-west | 2026-09-01 00:58:18 | 52.70322 | 11.06285 | 82° | 60km/h | 14423m | -10.1m/s | -50°C | 0% | 137.3hPa | 2.6V | 02:49:08 | 03:08:15 | 00:00:00 | |
| BIOWL1-15 | 2026-09-01 00:58:16 | 52.70306 | 11.06033 | 83° | 60km/h | 14523m | -9.9m/s | -50.2°C | 0% | 135.2hPa | 2.6V | 02:49:08 | 03:08:05 | 00:00:00 | |
| AA1-15 | 2026-09-01 00:58:16 | 52.70318 | 11.06234 | 85° | 62km/h | 14444m | -9.9m/s | -50°C | 0% | 136.9hPa | 2.6V | 02:49:08 | 03:08:13 | 00:00:00 | |
| DB0NH | 2026-09-01 00:58:15 | 52.70333 | 11.06208 | 86° | 64km/h | 14454m | -9.9m/s | -50.0°C | 2.7% | 136.6hPa | 2.5V | 00:00:00 | 03:08:12 | 00:00:00 | |
| DM0DOS-11 | 2026-09-01 00:58:14 | 52.70314 | 11.06157 | 85° | 60km/h | 14473m | -9.9m/s | -50.1°C | 2.9% | 136.2hPa | 2.5V | 02:48:49 | 03:08:10 | 00:00:00 | |
| DO2SHX-10 | 2026-09-01 00:58:14 | 52.70316 | 11.06182 | 86° | 60km/h | 14464m | -9.9m/s | -50.0°C | 2.9% | 136.3hPa | 2.5V | 00:00:00 | 03:08:11 | 00:00:00 | |
| DL1XH1-15 | 2026-09-01 00:58:13 | 52.70310 | 11.06083 | 83° | 60km/h | 14503m | -9.7m/s | -50.2°C | 2.9% | 135.6hPa | 2.5V | 02:48:52 | 03:08:07 | 00:00:00 | |
| DF8AY | 2026-09-01 00:58:12 | 52.70313 | 11.06132 | 85° | 60km/h | 14484m | -10.1m/s | -50.2°C | 0% | 136hPa | 2.6V | 02:49:08 | 03:08:09 | 00:00:00 | |
| DL1XH-west | 2026-09-01 00:58:07 | 52.70304 | 11.06008 | 81° | 62km/h | 14533m | -9.8m/s | -50.1°C | 0% | 135hPa | 2.6V | 02:49:08 | 03:08:04 | 00:00:00 | |
| AA1-15 | 2026-09-01 00:58:06 | 52.70297 | 11.05931 | 80° | 62km/h | 14563m | -9.6m/s | -49.7°C | 0% | 134.4hPa | 2.6V | 02:49:08 | 03:08:01 | 00:00:00 | |
| DF7ER-10 | 2026-09-01 00:58:06 | 52.70302 | 11.05982 | 83° | 62km/h | 14543m | -9.8m/s | -50.0°C | 0.7% | 134.8hPa | 2.6V | 02:49:00 | 00:00:00 | 00:00:00 | |
| DO2SHX-10 | 2026-09-01 00:58:05 | 52.70300 | 11.05957 | 82° | 62km/h | 14553m | -9.6m/s | -49.7°C | 2.9% | 134.6hPa | 2.6V | 00:00:00 | 03:08:02 | 00:00:00 | |
| DM0DOS-11 | 2026-09-01 00:58:04 | 52.70294 | 11.05905 | 78° | 64km/h | 14572m | -9.4m/s | -49.7°C | 2.9% | 134.2hPa | 2.6V | 02:48:59 | 03:08:00 | 00:00:00 | |
| DL1XH1-15 | 2026-09-01 00:58:03 | 52.70284 | 11.05826 | 76° | 66km/h | 14601m | -9.9m/s | -49.7°C | 2.8% | 133.6hPa | 2.5V | 02:49:02 | 03:07:57 | 00:00:00 | |
| DF8AY | 2026-09-01 00:58:02 | 52.70283 | 11.05826 | 77° | 66km/h | 14602m | -9.9m/s | -49.7°C | 0% | 133.6hPa | 2.5V | 02:49:08 | 03:07:57 | 00:00:00 | |
| SP3WXH-11 | 2026-09-01 00:58:01 | 52.70279 | 11.05800 | 76° | 66km/h | 14612m | -9.7m/s | -49.8°C | 0.7% | 133.4hPa | 2.5V | 00:00:00 | 00:00:00 | 00:00:00 | |
| DL1XH-15 | 2026-09-01 00:58:00 | 52.70267 | 11.05720 | 76° | 66km/h | 14641m | -10m/s | -49.9°C | 2.8% | 132.8hPa | 2.5V | 02:49:06 | 03:07:53 | 00:00:00 | |
| DL4BBY-15 | 2026-09-01 00:58:00 | 52.70283 | 11.05826 | 77° | 64km/h | 14601m | -9.9m/s | -49.4°C | 0% | 0hPa | 2.6V | 00:00:00 | 00:00:00 | 00:00:00 | |
| DO2SHX-10 | 2026-09-01 00:57:59 | 52.70279 | 11.05799 | 77° | 66km/h | 14612m | -9.7m/s | -49.7°C | 2.9% | 133.3hPa | 2.6V | 00:00:00 | 03:07:56 | 00:00:00 | |
| DM0DOS-11 | 2026-09-01 00:57:58 | 52.70255 | 11.05640 | 76° | 66km/h | 14672m | -10.3m/s | -50°C | 2.9% | 132.2hPa | 2.6V | 02:49:09 | 03:07:50 | 00:00:00 | |
| BIOWL1-15 | 2026-09-01 00:57:57 | 52.70245 | 11.05560 | 79° | 66km/h | 14702m | -10.2m/s | -49.7°C | 0% | 131.5hPa | 2.5V | 02:49:59 | 03:07:47 | 00:00:00 | |
| DL1XH-west | 2026-09-01 00:57:56 | 52.70267 | 11.05720 | 76° | 66km/h | 14641m | -10m/s | -49.9°C | 0% | 132.8hPa | 2.5V | 02:49:08 | 03:07:53 | 00:00:00 | |
| AA1-15 | 2026-09-01 00:57:55 | 52.70255 | 11.05640 | 77° | 66km/h | 14672m | -10.3m/s | -50°C | 0% | 132.2hPa | 2.6V | 02:49:59 | 03:07:50 | 00:00:00 | |
| DD8BA-10 | 2026-09-01 00:57:55 | 52.70263 | 11.05693 | 76° | 66km/h | 14651m | -10.1m/s | -49.9°C | 2.9% | 132.5hPa | 2.5V | 00:00:00 | 00:00:00 | 00:00:00 | |
| DF7ER-10 | 2026-09-01 00:57:54 | 52.70263 | 11.05693 | 77° | 66km/h | 14651m | -10.1m/s | -49.9°C | 0.7% | 132.6hPa | 2.5V | 02:49:00 | 00:00:00 | 00:00:00 | |
| DL1XH1-15 | 2026-09-01 00:57:53 | 52.70245 | 11.05560 | 78° | 66km/h | 14702m | -10.2m/s | -49.7°C | 2.7% | 131.5hPa | 2.5V | 02:49:12 | 03:07:47 | 00:00:00 | |
| DF8AY | 2026-09-01 00:57:49 | 52.70241 | 11.05533 | 79° | 66km/h | 14712m | -10.2m/s | -49.6°C | 0% | 131.3hPa | 2.5V | 02:49:59 | 03:07:46 | 00:00:00 | |
| DL1XH-15 | 2026-09-01 00:57:49 | 52.70233 | 11.05452 | 82° | 66km/h | 14742m | -9.9m/s | -49.6°C | 2.8% | 130.7hPa | 2.6V | 02:49:16 | 03:07:43 | 00:00:00 | |
| EDDB2-12 | 2026-09-01 00:57:46 | 52.70231 | 11.05425 | 82° | 66km/h | 14752m | -10.1m/s | -49.6°C | 0.6% | 130.5hPa | 2.5V | 00:00:00 | 00:00:00 | 00:00:00 | |
| DM0DOS-11 | 2026-09-01 00:57:45 | 52.70227 | 11.05371 | 83° | 64km/h | 14774m | -11.1m/s | -49.6°C | 2.7% | 130.1hPa | 2.5V | 02:49:19 | 03:07:40 | 00:00:00 | |
| DL1XH-west | 2026-09-01 00:57:45 | 52.70231 | 11.05425 | 83° | 66km/h | 14752m | -10.1m/s | -49.6°C | 0% | 130.5hPa | 2.6V | 02:49:59 | 03:07:42 | 00:00:00 | |
| AA1-15 | 2026-09-01 00:57:44 | 52.70226 | 11.05344 | 85° | 64km/h | 14785m | -12m/s | -49.6°C | 0% | 129.9hPa | 2.5V | 02:49:59 | 03:07:39 | 00:00:00 | |
| BIOWL1-15 | 2026-09-01 00:57:41 | 52.70224 | 11.05317 | 85° | 64km/h | 14797m | -11.6m/s | -49.6°C | 0% | 129.7hPa | 2.6V | 02:49:59 | 03:07:38 | 00:00:00 | |
| DF8AY | 2026-09-01 00:57:38 | 52.70221 | 11.05238 | 86° | 64km/h | 14831m | -11.9m/s | -49.8°C | 0% | 129hPa | 2.5V | 02:49:59 | 03:07:35 | 00:00:00 | |
| GOEST3-10 | 2026-09-01 00:57:37 | 52.70219 | 11.05212 | 87° | 60km/h | 14842m | -11.8m/s | -49.8°C | 2.8% | 128.7hPa | 2.5V | 00:00:00 | 00:00:00 | 00:00:00 | |
| DM0DOS-11 | 2026-09-01 00:57:35 | 52.70217 | 11.05112 | 87° | 57km/h | 14888m | -11.8m/s | -49.9°C | 2.8% | 127.8hPa | 2.5V | 02:49:29 | 03:07:30 | 00:00:00 | |
| DL1XH-west | 2026-09-01 00:57:35 | 52.70218 | 11.05161 | 88° | 60km/h | 14865m | -11.5m/s | -49.8°C | 0% | 128.3hPa | 2.6V | 02:49:59 | 03:07:32 | 00:00:00 | |
| AA1-15 | 2026-09-01 00:57:31 | 52.70216 | 11.05065 | 88° | 55km/h | 14911m | -11.3m/s | -50°C | 0% | 127.4hPa | 2.6V | 02:49:59 | 03:07:28 | 00:00:00 | |
| BIOWL1-15 | 2026-09-01 00:57:31 | 52.70213 | 11.04998 | 87° | 53km/h | 14945m | -11.4m/s | -50.1°C | 0% | 126.8hPa | 2.5V | 02:49:59 | 03:07:25 | 00:00:00 | |
| DL4BBY-15 | 2026-09-01 00:57:30 | 52.70215 | 11.05043 | 87° | 46km/h | 14923m | -11.3m/s | -49.7°C | 0% | 0hPa | 2.6V | 00:00:00 | 00:00:00 | 00:00:00 | |
| DL1XH-15 | 2026-09-01 00:57:29 | 52.70212 | 11.04954 | 85° | 53km/h | 14967m | -11.2m/s | -50.2°C | 2.9% | 126.3hPa | 2.6V | 02:49:36 | 03:07:23 | 00:00:00 | |
| DF8AY | 2026-09-01 00:57:27 | 52.70212 | 11.04954 | 86° | 53km/h | 14967m | -11.3m/s | -50.2°C | 0% | 126.3hPa | 2.6V | 02:49:59 | 03:07:23 | 00:00:00 | |
| DO2SHX-10 | 2026-09-01 00:57:26 | 52.70212 | 11.04954 | 86° | 53km/h | 14968m | -11.2m/s | -50.1°C | 2.9% | 126.3hPa | 2.6V | 02:49:00 | 03:07:23 | 00:00:00 | |
| DM0DOS-11 | 2026-09-01 00:57:25 | 52.70209 | 11.04888 | 83° | 55km/h | 15002m | -10.9m/s | -50.2°C | 2.9% | 125.7hPa | 2.5V | 02:49:39 | 03:07:20 | 00:00:00 | |
| DL1XH-west | 2026-09-01 00:57:24 | 52.70210 | 11.04910 | 86° | 53km/h | 14991m | -11.6m/s | -50.2°C | 0% | 125.9hPa | 2.5V | 02:49:59 | 03:07:21 | 00:00:00 | |
| DL1XH1-15 | 2026-09-01 00:57:23 | 52.70204 | 11.04821 | 82° | 53km/h | 15037m | -11.8m/s | -50.1°C | 3% | 125hPa | 2.6V | 02:49:42 | 03:07:17 | 00:00:00 | |
| AA1-15 | 2026-09-01 00:57:20 | 52.70204 | 11.04821 | 82° | 53km/h | 15037m | -11.8m/s | -50.1°C | 0% | 125hPa | 2.6V | 02:49:59 | 03:07:17 | 00:00:00 | |
| BIOWL1-15 | 2026-09-01 00:57:17 | 52.70192 | 11.04641 | 86° | 40km/h | 15143m | -12m/s | -49.6°C | 0% | 123hPa | 2.5V | 02:49:59 | 03:07:08 | 00:00:00 | |
| DF8AY | 2026-09-01 00:57:16 | 52.70195 | 11.04696 | 83° | 47km/h | 15108m | -11.3m/s | -49.7°C | 0% | 123.7hPa | 2.6V | 02:49:59 | 03:07:11 | 00:00:00 | |
| DL1XH1-15 | 2026-09-01 00:57:15 | 52.70191 | 11.04624 | 85° | 40km/h | 15154m | -11.7m/s | -49.5°C | 2.8% | 122.8hPa | 2.6V | 02:49:52 | 03:07:07 | 00:00:00 | |
| DD8BA-10 | 2026-09-01 00:57:15 | 52.70196 | 11.04715 | 84° | 42km/h | 15096m | -11.7m/s | -49.7°C | 2.8% | 123.9hPa | 2.6V | 02:49:00 | 00:00:00 | 00:00:00 | |
| DM0DOS-11 | 2026-09-01 00:57:14 | 52.70193 | 11.04677 | 84° | 44km/h | 15119m | -11.5m/s | -49.6°C | 2.7% | 123.5hPa | 2.5V | 02:49:49 | 03:07:10 | 00:00:00 | |
| DL1XH-west | 2026-09-01 00:57:13 | 52.70193 | 11.04677 | 84° | 44km/h | 15119m | -11.5m/s | -49.6°C | 0% | 123.5hPa | 2.5V | 02:49:59 | 03:07:10 | 00:00:00 | |
| AA1-15 | 2026-09-01 00:57:10 | 52.70190 | 11.04608 | 85° | 40km/h | 15166m | -11.7m/s | -49.6°C | 0% | 122.6hPa | 2.6V | 02:49:59 | 03:07:06 | 00:00:00 | |
| DM0DOS-11 | 2026-09-01 00:57:09 | 52.70185 | 11.04517 | 83° | 35km/h | 15238m | -11.3m/s | -49.8°C | 2.8% | 121.2hPa | 2.6V | 02:49:59 | 03:07:00 | 00:00:00 | |
| DF8AY | 2026-09-01 00:57:04 | 52.70185 | 11.04517 | 83° | 35km/h | 15238m | -11.3m/s | -49.8°C | 0% | 121.2hPa | 2.6V | 02:49:59 | 03:07:00 | 00:00:00 | |
| BIOWL1-15 | 2026-09-01 00:57:03 | 52.70181 | 11.04473 | 80° | 37km/h | 15273m | -12.1m/s | -50°C | 0% | 120.6hPa | 2.5V | 02:50:50 | 03:06:57 | 00:00:00 | |
| DL1XH1-15 | 2026-09-01 00:57:03 | 52.70181 | 11.04473 | 79° | 37km/h | 15273m | -12.1m/s | -50°C | 2.8% | 120.6hPa | 2.5V | 02:50:02 | 03:06:57 | 00:00:00 | |
| DL1XH-west | 2026-09-01 00:57:02 | 52.70184 | 11.04502 | 82° | 35km/h | 15249m | -11.2m/s | -49.9°C | 0% | 121hPa | 2.6V | 02:50:50 | 03:06:59 | 00:00:00 | |
| AA1-15 | 2026-09-01 00:56:59 | 52.70179 | 11.04457 | 79° | 37km/h | 15285m | -12m/s | -50.1°C | 0% | 120.3hPa | 2.5V | 02:50:50 | 03:06:56 | 00:00:00 | |
| SP3WXH-11 | 2026-09-01 00:56:59 | 52.70175 | 11.04428 | 75° | 35km/h | 15309m | -12.5m/s | -50.1°C | 0.7% | 119.9hPa | 2.5V | 00:00:00 | 00:00:00 | 00:00:00 | |
| DL1XH-15 | 2026-09-01 00:56:58 | 52.70173 | 11.04413 | 73° | 37km/h | 15321m | -12.2m/s | -50.1°C | 2.9% | 119.7hPa | 2.5V | 02:50:06 | 03:06:53 | 00:00:00 | |
| GOEST3-10 | 2026-09-01 00:56:57 | 52.70175 | 11.04428 | 76° | 37km/h | 15309m | -12.5m/s | -50.1°C | 2.9% | 119.9hPa | 2.6V | 02:50:00 | 00:00:00 | 00:00:00 | |
| DO2SHX-10 | 2026-09-01 00:56:56 | 52.70173 | 11.04413 | 74° | 37km/h | 15321m | -12.2m/s | -50.1°C | 2.9% | 119.7hPa | 2.6V | 00:00:00 | 03:06:53 | 00:00:00 | |
| DD8BA-10 | 2026-09-01 00:56:55 | 52.70170 | 11.04398 | 73° | 40km/h | 15334m | -12.5m/s | -50.1°C | 2.9% | 119.4hPa | 2.6V | 00:00:00 | 00:00:00 | 00:00:00 | |
| DL1XH1-15 | 2026-09-01 00:56:53 | 52.70153 | 11.04324 | 69° | 38km/h | 15394m | -11.8m/s | -50°C | 2.9% | 118.4hPa | 2.6V | 02:50:12 | 03:06:47 | 00:00:00 | |
| DL1XH-west | 2026-09-01 00:56:52 | 52.70160 | 11.04354 | 70° | 38km/h | 15370m | -12.1m/s | -50°C | 0% | 118.8hPa | 2.5V | 02:50:50 | 03:06:49 | 00:00:00 | |
| DF8AY | 2026-09-01 00:56:52 | 52.70157 | 11.04339 | 69° | 38km/h | 15382m | -12.1m/s | -50°C | 0% | 118.6hPa | 2.5V | 02:51:41 | 03:06:48 | 00:00:00 | |
| BIOWL1-15 | 2026-09-01 00:56:50 | 52.70153 | 11.04324 | 69° | 40km/h | 15394m | -11.8m/s | -50°C | 0% | 118.4hPa | 2.6V | 02:50:50 | 03:06:47 | 00:00:00 | |
| AA1-15 | 2026-09-01 00:56:49 | 52.70146 | 11.04293 | 67° | 42km/h | 15417m | -12.1m/s | -49.9°C | 0% | 117.9hPa | 2.5V | 02:50:50 | 03:06:45 | 00:00:00 | |
| BIOWL9-15 | 2026-09-01 00:56:48 | 52.70142 | 11.04277 | 66° | 42km/h | 15429m | -12.4m/s | -49.9°C | 0.6% | 117.7hPa | 2.6V | 00:00:00 | 00:00:00 | 00:00:00 | |
| DM0DOS-11 | 2026-09-01 00:56:47 | 52.70121 | 11.04207 | 62° | 49km/h | 15479m | -11.7m/s | -50.2°C | 2.9% | 116.8hPa | 2.6V | 02:50:19 | 03:06:40 | 00:00:00 | |
| DO2SHX-10 | 2026-09-01 00:56:47 | 52.70142 | 11.04277 | 67° | 46km/h | 15430m | -12.4m/s | -49.9°C | 2.8% | 117.7hPa | 2.5V | 00:00:00 | 03:06:44 | 00:00:00 | |
| DF8AY-15 | 2026-09-01 00:56:46 | 52.70137 | 11.04260 | 65° | 53km/h | 15442m | -12.9m/s | -49.9°C | 3.0% | 117.5hPa | 2.5V | 00:00:00 | 03:06:43 | 00:00:00 | |
| DB0NH | 2026-09-01 00:56:45 | 52.70132 | 11.04243 | 64° | 53km/h | 15455m | -12.4m/s | -50.0°C | 2.8% | 117.2hPa | 2.5V | 00:00:00 | 03:06:42 | 00:00:00 | |
| DO2SHX-10 | 2026-09-01 00:56:44 | 52.70127 | 11.04225 | 64° | 49km/h | 15467m | -12.3m/s | -50.1°C | 2.9% | 117.1hPa | 2.5V | 00:00:00 | 03:06:41 | 00:00:00 | |
| AP2371 | 2026-09-01 00:56:43 | 52.70127 | 11.04225 | 65° | 47km/h | 15467m | -12.4m/s | -50.1°C | 0.6% | 117.1hPa | 2.5V | 00:00:00 | 00:00:00 | 00:00:00 | |
| DL1XH1-15 | 2026-09-01 00:56:42 | 52.70103 | 11.04150 | 62° | 53km/h | 15513m | -11.8m/s | -50.3°C | 3% | 116.3hPa | 2.5V | 02:50:22 | 03:06:37 | 00:00:00 | |
| DL1XH-west | 2026-09-01 00:56:42 | 52.70115 | 11.04188 | 63° | 51km/h | 15491m | -10.9m/s | -50.2°C | 0% | 116.6hPa | 2.5V | 02:50:50 | 03:06:39 | 00:00:00 | |
| DF8AY | 2026-09-01 00:56:41 | 52.70110 | 11.04169 | 63° | 53km/h | 15502m | -11.5m/s | -50.3°C | 0% | 116.5hPa | 2.5V | 02:51:41 | 03:06:38 | 00:00:00 | |
| AA1-15 | 2026-09-01 00:56:38 | 52.70084 | 11.04088 | 64° | 57km/h | 15549m | -12.2m/s | -50.3°C | 0% | 115.6hPa | 2.6V | 02:50:50 | 03:06:34 | 00:00:00 | |
| DF7ER-10 | 2026-09-01 00:56:38 | 52.70090 | 11.04109 | 63° | 57km/h | 15538m | -12.1m/s | -50.3°C | 0.7% | 115.8hPa | 2.6V | 02:50:00 | 00:00:00 | 00:00:00 | |
| DM0DOS-11 | 2026-09-01 00:56:37 | 52.70057 | 11.04007 | 58° | 57km/h | 15599m | -12.8m/s | -49.9°C | 2.8% | 114.7hPa | 2.6V | 02:50:29 | 03:06:30 | 00:00:00 | |
| DD8BA-10 | 2026-09-01 00:56:35 | 52.70071 | 11.04047 | 60° | 55km/h | 15574m | -12.3m/s | -50.0°C | 2.8% | 115.1hPa | 2.5V | 00:00:00 | 00:00:00 | 00:00:00 | |
| DL1XH1-15 | 2026-09-01 00:56:34 | 52.70035 | 11.03947 | 59° | 57km/h | 15637m | -13m/s | -49.7°C | 2.7% | 114.1hPa | 2.5V | 02:50:32 | 03:06:27 | 00:00:00 | |
| DL1XH-west | 2026-09-01 00:56:32 | 52.70042 | 11.03967 | 59° | 57km/h | 15624m | -12.7m/s | -49.8°C | 0% | 114.3hPa | 2.6V | 02:50:50 | 03:06:28 | 00:00:00 | |
| DF8AY | 2026-09-01 00:56:31 | 52.70035 | 11.03947 | 60° | 57km/h | 15637m | -13m/s | -49.7°C | 0% | 114.1hPa | 2.5V | 02:51:41 | 03:06:27 | 00:00:00 | |
| BIOWL1-15 | 2026-09-01 00:56:29 | 52.70028 | 11.03927 | 60° | 55km/h | 15649m | -13.1m/s | -49.6°C | 0% | 113.8hPa | 2.5V | 02:50:50 | 03:06:26 | 00:00:00 | |
| AA1-15 | 2026-09-01 00:56:27 | 52.70007 | 11.03869 | 60° | 53km/h | 15688m | -13.1m/s | -49.5°C | 0% | 113.2hPa | 2.6V | 02:50:50 | 03:06:23 | 00:00:00 | |
| DL1XH-west | 2026-09-01 00:56:22 | 52.69973 | 11.03754 | 67° | 51km/h | 15763m | -12.3m/s | -49.6°C | 0% | 111.8hPa | 2.6V | 02:50:50 | 03:06:17 | 00:00:00 | |
| DF8AY | 2026-09-01 00:56:22 | 52.69968 | 11.03734 | 69° | 51km/h | 15775m | -12.5m/s | -49.7°C | 0% | 111.7hPa | 2.5V | 02:51:41 | 03:06:16 | 00:00:00 | |
| DL1XH-15 | 2026-09-01 00:56:21 | 52.69956 | 11.03673 | 74° | 51km/h | 15812m | -12.9m/s | -49.9°C | 2.8% | 111.1hPa | 2.6V | 02:50:46 | 03:06:13 | 00:00:00 | |
| BIOWL1-15 | 2026-09-01 00:56:19 | 52.69956 | 11.03673 | 74° | 51km/h | 15812m | -12.9m/s | -49.9°C | 0% | 111.1hPa | 2.6V | 02:50:50 | 03:06:13 | 00:00:00 | |
| MECKS9 | 2026-09-01 00:56:18 | 52.69968 | 11.03734 | 70° | 51km/h | 15776m | -12.5m/s | -49.7°C | 0.5% | 111.7hPa | 2.6V | 02:50:00 | 00:00:00 | 00:00:00 | |
| BIOWL9-15 | 2026-09-01 00:56:17 | 52.69956 | 11.03673 | 74° | 49km/h | 15812m | -12.9m/s | -49.9°C | 0.6% | 111.1hPa | 2.6V | 00:00:00 | 00:00:00 | 00:00:00 | |
| DM0DOS-11 | 2026-09-01 00:56:16 | 52.69947 | 11.03613 | 79° | 49km/h | 15852m | -12.6m/s | -50°C | 2.8% | 110.4hPa | 2.6V | 02:50:49 | 03:06:10 | 00:00:00 | |
| AA1-15 | 2026-09-01 00:56:15 | 52.69953 | 11.03653 | 76° | 49km/h | 15825m | -13.1m/s | -50°C | 0% | 110.8hPa | 2.5V | 02:50:50 | 03:06:12 | 00:00:00 | |
| HSKMA3-T | 2026-09-01 00:56:13 | 52.69947 | 11.03613 | 79° | 49km/h | 15852m | -12.6m/s | -50°C | 0% | 110.4hPa | 2.6V | 02:54:14 | 03:06:10 | 00:00:00 | |
| EDDB2-12 | 2026-09-01 00:56:13 | 52.69945 | 11.03594 | 80° | 47km/h | 15865m | -11.7m/s | -50.0°C | 0.6% | 110.2hPa | 2.5V | 00:00:00 | 00:00:00 | 00:00:00 | |
| DL1XH1-15 | 2026-09-01 00:56:11 | 52.69942 | 11.03555 | 83° | 46km/h | 15887m | -11.3m/s | -49.9°C | 2.7% | 109.8hPa | 2.5V | 02:50:52 | 03:06:07 | 00:00:00 | |
| DL1XH-west | 2026-09-01 00:56:10 | 52.69942 | 11.03555 | 84° | 46km/h | 15887m | -11.3m/s | -50°C | 0% | 109.8hPa | 2.5V | 02:51:41 | 03:06:07 | 00:00:00 | |
| DL1XH-15 | 2026-09-01 00:56:09 | 52.69936 | 11.03483 | 79° | 42km/h | 15936m | -12.7m/s | -50.1°C | 2.8% | 108.9hPa | 2.6V | 02:50:56 | 03:06:03 | 00:00:00 | |
| BIOWL1-15 | 2026-09-01 00:56:09 | 52.69938 | 11.03500 | 81° | 44km/h | 15923m | -13.2m/s | -50.1°C | 0% | 109.1hPa | 2.6V | 02:53:23 | 03:06:04 | 00:00:00 | |
| DB0UT-7 | 2026-09-01 00:56:09 | 52.69941 | 11.03536 | 83° | 46km/h | 15899m | -11.9m/s | -49.9°C | 2.8% | 109.6hPa | 2.5V | 02:50:00 | 00:00:00 | 00:00:00 | |
| DO2SHX-10 | 2026-09-01 00:56:08 | 52.69939 | 11.03518 | 83° | 44km/h | 15911m | -12.0m/s | -50.0°C | 2.8% | 109.3hPa | 2.5V | 00:00:00 | 03:06:05 | 00:00:00 | |
| DM0DOS-11 | 2026-09-01 00:56:06 | 52.69929 | 11.03432 | 76° | 42km/h | 15974m | -12.5m/s | -50.1°C | 2.7% | 108.3hPa | 2.5V | 02:50:59 | 03:06:00 | 00:00:00 | |
| AA1-15 | 2026-09-01 00:56:05 | 52.69932 | 11.03448 | 78° | 42km/h | 15961m | -12.4m/s | -50.1°C | 0% | 108.5hPa | 2.5V | 02:51:41 | 03:06:01 | 00:00:00 | |
| DL1XH1-15 | 2026-09-01 00:56:04 | 52.69921 | 11.03381 | 70° | 42km/h | 16010m | -12m/s | -49.9°C | 2.8% | 107.7hPa | 2.6V | 02:51:02 | 03:05:57 | 00:00:00 | |
| HSKMA3-T | 2026-09-01 00:56:03 | 52.69929 | 11.03431 | 76° | 42km/h | 15974m | -12.5m/s | -50.2°C | 0% | 108.3hPa | 2.5V | 02:54:14 | 03:06:00 | 00:00:00 | |
| DF8AY | 2026-09-01 00:55:59 | 52.69917 | 11.03365 | 68° | 42km/h | 16022m | -11.8m/s | -49.9°C | 0% | 107.5hPa | 2.5V | 02:51:41 | 03:05:56 | 00:00:00 | |
| DL1ZP-14 | 2026-09-01 00:55:58 | 52.69903 | 11.03316 | 61° | 44km/h | 16056m | -11.8m/s | -50.1°C | 0.6% | 107.0hPa | 2.6V | 00:00:00 | 00:00:00 | 00:00:00 | |
| DL1XH-15 | 2026-09-01 00:55:57 | 52.69903 | 11.03316 | 61° | 46km/h | 16056m | -11.8m/s | -50.1°C | 2.9% | 107hPa | 2.6V | 02:51:06 | 03:05:53 | 00:00:00 | |
| AA1-15 | 2026-09-01 00:55:53 | 52.69886 | 11.03265 | 62° | 49km/h | 16089m | -11.7m/s | -50.3°C | 0% | 106.4hPa | 2.5V | 02:51:41 | 03:05:50 | 00:00:00 | |
| BIOWL1-15 | 2026-09-01 00:55:52 | 52.69880 | 11.03247 | 63° | 49km/h | 16101m | -12m/s | -50.4°C | 0% | 106.2hPa | 2.5V | 02:53:23 | 03:05:49 | 00:00:00 | |
| DL1XH1-15 | 2026-09-01 00:55:51 | 52.69869 | 11.03209 | 64° | 51km/h | 16126m | -13.3m/s | -50.5°C | 2.9% | 105.8hPa | 2.6V | 02:51:12 | 03:05:47 | 00:00:00 | |
| DL1XH-15 | 2026-09-01 00:55:51 | 52.69851 | 11.03132 | 73° | 47km/h | 16178m | -13.6m/s | -50.5°C | 2.9% | 104.9hPa | 2.5V | 02:51:16 | 03:05:43 | 00:00:00 | |
| DF8AY | 2026-09-01 00:55:48 | 52.69859 | 11.03170 | 69° | 51km/h | 16152m | -13.1m/s | -50.6°C | 0% | 105.4hPa | 2.6V | 02:51:41 | 03:05:45 | 00:00:00 | |
| BIOWL9-15 | 2026-09-01 00:55:46 | 52.69847 | 11.03112 | 74° | 47km/h | 16192m | -13.1m/s | -50.4°C | 0.6% | 104.8hPa | 2.6V | 00:00:00 | 00:00:00 | 00:00:00 | |
| DM0DOS-11 | 2026-09-01 00:55:45 | 52.69842 | 11.03074 | 80° | 47km/h | 16218m | -13.3m/s | -50.1°C | 2.9% | 104.4hPa | 2.6V | 02:51:19 | 03:05:40 | 00:00:00 | |
| S3001 | 2026-09-01 00:55:45 | 52.69845 | 11.03093 | 77° | 46km/h | 16205m | -13.0m/s | -50.3°C | 0.6% | 104.6hPa | 2.6V | 00:00:00 | 00:00:00 | 00:00:00 | |
| DL1XH1-15 | 2026-09-01 00:55:44 | 52.69838 | 11.03018 | 84° | 46km/h | 16257m | -12.4m/s | -49.8°C | 2.8% | 103.7hPa | 2.6V | 02:51:22 | 03:05:37 | 00:00:00 | |
| AA1-15 | 2026-09-01 00:55:43 | 52.69841 | 11.03055 | 82° | 46km/h | 16231m | -13.2m/s | -49.9°C | 0% | 104.1hPa | 2.5V | 02:51:41 | 03:05:39 | 00:00:00 | |
| EDDB2-12 | 2026-09-01 00:55:42 | 52.69839 | 11.03036 | 83° | 44km/h | 16244m | -13.7m/s | -49.9°C | 0.7% | 103.9hPa | 2.6V | 00:00:00 | 00:00:00 | 00:00:00 | |
| DO2SHX-10 | 2026-09-01 00:55:41 | 52.69839 | 11.03036 | 84° | 44km/h | 16244m | -13.7m/s | -49.8°C | 3.0% | 103.9hPa | 2.6V | 00:00:00 | 03:05:38 | 00:00:00 | |
| EDDB2-11 | 2026-09-01 00:55:40 | 52.69837 | 11.02999 | 84° | 42km/h | 16269m | -12.9m/s | -49.8°C | 0.6% | 103.5hPa | 2.6V | 00:00:00 | 00:00:00 | 00:00:00 | |
| DL1XH-15 | 2026-09-01 00:55:39 | 52.69835 | 11.02947 | 85° | 40km/h | 16310m | -13.8m/s | -49.8°C | 2.8% | 103hPa | 2.6V | 02:51:26 | 03:05:33 | 00:00:00 | |
| BIOWL1-15 | 2026-09-01 00:55:39 | 52.69837 | 11.02999 | 85° | 44km/h | 16269m | -12.9m/s | -49.8°C | 0% | 103.5hPa | 2.6V | 02:53:23 | 03:05:36 | 00:00:00 | |
| DL1XH-west | 2026-09-01 00:55:38 | 52.69835 | 11.02964 | 85° | 42km/h | 16296m | -13.9m/s | -49.8°C | 0% | 103.2hPa | 2.5V | 02:51:41 | 03:05:34 | 00:00:00 | |
| DO2SHX-10 | 2026-09-01 00:55:38 | 52.69836 | 11.02981 | 86° | 42km/h | 16283m | -14.0m/s | -49.8°C | 2.8% | 103.3hPa | 2.5V | 02:51:00 | 03:05:35 | 00:00:00 | |
| GOEST3-10 | 2026-09-01 00:55:36 | 52.69834 | 11.02947 | 86° | 40km/h | 16310m | -13.8m/s | -49.7°C | 2.8% | 102.9hPa | 2.5V | 00:00:00 | 00:00:00 | 00:00:00 | |
| DM0DOS-11 | 2026-09-01 00:55:35 | 52.69833 | 11.02898 | 86° | 38km/h | 16349m | -13.4m/s | -49.6°C | 2.8% | 102.3hPa | 2.5V | 02:51:29 | 03:05:30 | 00:00:00 | |
| DL1XH1-15 | 2026-09-01 00:55:35 | 52.69831 | 11.02852 | 88° | 35km/h | 16388m | -13.7m/s | -49.6°C | 2.8% | 101.7hPa | 2.6V | 02:51:32 | 03:05:27 | 00:00:00 | |
| AA1-15 | 2026-09-01 00:55:33 | 52.69832 | 11.02882 | 88° | 37km/h | 16362m | -13.9m/s | -49.6°C | 0% | 102.1hPa | 2.5V | 02:51:41 | 03:05:29 | 00:00:00 | |
| DL1XH-west | 2026-09-01 00:55:26 | 52.69831 | 11.02796 | 92° | 33km/h | 16442m | -12.8m/s | -49.3°C | 0% | 100.8hPa | 2.5V | 02:51:41 | 03:05:23 | 00:00:00 | |
| DF8AY-15 | 2026-09-01 00:55:26 | 52.69831 | 11.02795 | 93° | 27km/h | 16442m | -12.8m/s | -49.2°C | 2.7% | 100.8hPa | 2.5V | 02:51:00 | 03:05:23 | 00:00:00 | |
| DM0DOS-11 | 2026-09-01 00:55:25 | 52.69832 | 11.02756 | 91° | 31km/h | 16483m | -14.1m/s | -49.2°C | 2.7% | 100.2hPa | 2.6V | 02:51:39 | 03:05:20 | 00:00:00 | |
| AA1-15 | 2026-09-01 00:55:22 | 52.69832 | 11.02729 | 88° | 33km/h | 16511m | -13.8m/s | -49.3°C | 0% | 99.8hPa | 2.5V | 02:51:41 | 03:05:18 | 00:00:00 | |
| GOEST3-10 | 2026-09-01 00:55:21 | 52.69832 | 11.02729 | 88° | 31km/h | 16511m | -13.7m/s | -49.2°C | 2.5% | 99.7hPa | 2.5V | 00:00:00 | 03:05:18 | 00:00:00 | |
| DO2SHX-10 | 2026-09-01 00:55:20 | 52.69831 | 11.02716 | 87° | 31km/h | 16524m | -13.7m/s | -49.2°C | 2.6% | 99.6hPa | 2.5V | 02:51:00 | 03:05:17 | 00:00:00 | |
| DL1XH-15 | 2026-09-01 00:55:18 | 52.69828 | 11.02667 | 78° | 29km/h | 16577m | -13.1m/s | -49.3°C | 2.6% | 98.8hPa | 2.5V | 02:51:46 | 03:05:13 | 00:00:00 | |
| DF8AY | 2026-09-01 00:55:16 | 52.69827 | 11.02655 | 81° | 27km/h | 16590m | -13.5m/s | -49.3°C | 0% | 98.6hPa | 2.5V | 02:52:32 | 03:05:12 | 00:00:00 | |
| DM0DOS-11 | 2026-09-01 00:55:15 | 52.69824 | 11.02633 | 74° | 26km/h | 16617m | -14.4m/s | -49.4°C | 2.6% | 98.2hPa | 2.6V | 02:51:49 | 03:05:10 | 00:00:00 | |
| BIOWL9-15 | 2026-09-01 00:55:15 | 52.69825 | 11.02644 | 76° | 26km/h | 16603m | -14.0m/s | -49.4°C | 0.5% | 98.4hPa | 2.5V | 00:00:00 | 00:00:00 | 00:00:00 | |
| DL1XH1-15 | 2026-09-01 00:55:14 | 52.69818 | 11.02606 | 67° | 20km/h | 16657m | -12.4m/s | -49.5°C | 2.5% | 97.6hPa | 2.5V | 02:51:52 | 03:05:07 | 00:00:00 | |
| BIOWL1-15 | 2026-09-01 00:55:12 | 52.69820 | 11.02614 | 71° | 20km/h | 16645m | -12.6m/s | -49.4°C | 0% | 97.8hPa | 2.6V | 02:53:23 | 03:05:08 | 00:00:00 | |
| AA1-15 | 2026-09-01 00:55:11 | 52.69819 | 11.02606 | 67° | 20km/h | 16657m | -12.4m/s | -49.5°C | 0% | 97.6hPa | 2.5V | 02:52:32 | 03:05:07 | 00:00:00 | |
| DO2SHX-10 | 2026-09-01 00:55:11 | 52.69820 | 11.02614 | 72° | 20km/h | 16645m | -12.6m/s | -49.4°C | 2.6% | 97.7hPa | 2.6V | 02:51:00 | 03:05:08 | 00:00:00 | |
| EDDB2-12 | 2026-09-01 00:55:10 | 52.69819 | 11.02606 | 67° | 20km/h | 16657m | -12.4m/s | -49.5°C | 0.4% | 97.6hPa | 2.6V | 00:00:00 | 00:00:00 | 00:00:00 | |
| DB0UT-7 | 2026-09-01 00:55:09 | 52.69816 | 11.02598 | 67° | 33km/h | 16670m | -13.3m/s | -49.5°C | 2.6% | 97.4hPa | 2.6V | 00:00:00 | 00:00:00 | 00:00:00 | |
| DL1XH-15 | 2026-09-01 00:55:08 | 52.69809 | 11.02575 | 63° | 22km/h | 16708m | -13.2m/s | -49.9°C | 2.8% | 96.8hPa | 2.6V | 02:51:56 | 03:05:03 | 00:00:00 | |
| DF8AY | 2026-09-01 00:55:06 | 52.69804 | 11.02558 | 63° | 24km/h | 16734m | -14.2m/s | -50.1°C | 0% | 96.4hPa | 2.5V | 02:52:32 | 03:05:01 | 00:00:00 | |
| DO2SHX-10 | 2026-09-01 00:55:06 | 52.69807 | 11.02567 | 61° | 24km/h | 16721m | -13.1m/s | -49.9°C | 2.8% | 96.6hPa | 2.5V | 00:00:00 | 03:05:02 | 00:00:00 | |
| DL1XH1-15 | 2026-09-01 00:55:05 | 52.69790 | 11.02518 | 60° | 31km/h | 16788m | -13.6m/s | -50.3°C | 2.9% | 95.7hPa | 2.5V | 02:52:02 | 03:04:57 | 00:00:00 | |
| DM0DOS-11 | 2026-09-01 00:55:04 | 52.69801 | 11.02549 | 58° | 26km/h | 16748m | -13.7m/s | -50.2°C | 2.8% | 96.2hPa | 2.6V | 02:51:59 | 03:05:00 | 00:00:00 | |
| AA1-15 | 2026-09-01 00:55:01 | 52.69786 | 11.02506 | 61° | 35km/h | 16801m | -13.8m/s | -50.4°C | 0% | 95.5hPa | 2.6V | 02:52:32 | 03:04:56 | 00:00:00 | |
| SONCRA | 2026-09-01 00:54:58 | 52.69781 | 11.02494 | 62° | 35km/h | 16816m | -14.5m/s | -50.3°C | 0.5% | 95.3hPa | 2.5V | 00:00:00 | 00:00:00 | 00:00:00 | |
| DL1XH-15 | 2026-09-01 00:54:57 | 52.69773 | 11.02467 | 62° | 37km/h | 16843m | -13.9m/s | -50.2°C | 2.9% | 94.8hPa | 2.5V | 02:52:06 | 03:04:53 | 00:00:00 | |
| DL1XH-west | 2026-09-01 00:54:55 | 52.69768 | 11.02453 | 65° | 38km/h | 16857m | -14m/s | -50.2°C | 0% | 94.6hPa | 2.5V | 02:52:32 | 03:04:52 | 00:00:00 | |
| DL1XH1-15 | 2026-09-01 00:54:54 | 52.69754 | 11.02374 | 81° | 40km/h | 16926m | -13.3m/s | -50.4°C | 3% | 93.6hPa | 2.5V | 02:52:12 | 03:04:47 | 00:00:00 | |
| BIOWL1-15 | 2026-09-01 00:54:53 | 52.69761 | 11.02423 | 72° | 40km/h | 16884m | -14.3m/s | -50.3°C | 0% | 94.2hPa | 2.6V | 02:53:23 | 03:04:50 | 00:00:00 | |
| AA1-15 | 2026-09-01 00:54:50 | 52.69753 | 11.02358 | 83° | 40km/h | 16939m | -13.3m/s | -50.4°C | 0% | 93.4hPa | 2.5V | 02:52:32 | 03:04:46 | 00:00:00 | |
| DO2SHX-10 | 2026-09-01 00:54:50 | 52.69754 | 11.02374 | 82° | 40km/h | 16926m | -13.3m/s | -50.4°C | 3.0% | 93.6hPa | 2.6V | 00:00:00 | 03:04:47 | 00:00:00 | |
| DL4XJ-10 | 2026-09-01 00:54:49 | 52.69753 | 11.02358 | 84° | 35km/h | 16939m | -13.2m/s | -50.0°C | 0% | 0hPa | 2.6V | 00:00:00 | 00:00:00 | 00:00:00 | |
| DL1XH-15 | 2026-09-01 00:54:48 | 52.69751 | 11.02309 | 87° | 38km/h | 16977m | -13.9m/s | -50.1°C | 2.9% | 92.9hPa | 2.6V | 02:52:16 | 03:04:43 | 00:00:00 | |
| DL1XH-west | 2026-09-01 00:54:45 | 52.69750 | 11.02293 | 87° | 35km/h | 16991m | -15.2m/s | -50.1°C | 0% | 92.7hPa | 2.5V | 02:52:32 | 03:04:42 | 00:00:00 | |
| DM0DOS-11 | 2026-09-01 00:54:44 | 52.69749 | 11.02263 | 83° | 38km/h | 17021m | -15.9m/s | -50.1°C | 2.9% | 92.3hPa | 2.5V | 02:52:19 | 03:04:40 | 00:00:00 | |
| DF8AY | 2026-09-01 00:54:43 | 52.69749 | 11.02263 | 83° | 38km/h | 17021m | -15.9m/s | -50.1°C | 0% | 92.3hPa | 2.5V | 02:52:32 | 03:04:40 | 00:00:00 | |
| AA1-15 | 2026-09-01 00:54:39 | 52.69740 | 11.02189 | 74° | 35km/h | 17090m | -14m/s | -49.4°C | 0% | 91.3hPa | 2.5V | 02:52:32 | 03:04:35 | 00:00:00 | |
| DB0UT-7 | 2026-09-01 00:54:39 | 52.69742 | 11.02203 | 76° | 26km/h | 17077m | -13.9m/s | -49.3°C | 2.6% | 91.5hPa | 2.5V | 02:52:00 | 03:04:36 | 00:00:00 | |
| DM0DOS-11 | 2026-09-01 00:54:38 | 52.69727 | 11.02122 | 70° | 31km/h | 17162m | -14.6m/s | -49.5°C | 2.6% | 90.3hPa | 2.5V | 02:52:29 | 03:04:30 | 00:00:00 | |
| BIOWL1-15 | 2026-09-01 00:54:38 | 52.69737 | 11.02175 | 73° | 35km/h | 17104m | -14.6m/s | -49.4°C | 0% | 91.2hPa | 2.5V | 02:53:23 | 03:04:34 | 00:00:00 | |
| DL1XH-west | 2026-09-01 00:54:35 | 52.69732 | 11.02148 | 72° | 33km/h | 17134m | -14.7m/s | -49.6°C | 0% | 90.8hPa | 2.6V | 02:52:32 | 03:04:32 | 00:00:00 | |
| DO2SHX-10 | 2026-09-01 00:54:35 | 52.69732 | 11.02148 | 73° | 33km/h | 17134m | -14.7m/s | -49.5°C | 2.8% | 90.7hPa | 2.6V | 02:52:00 | 03:04:32 | 00:00:00 | |
| DL1NUX | 2026-09-01 00:54:34 | 52.69721 | 11.02099 | 69° | 29km/h | 17191m | -13.9m/s | -48.6°C | 2.6% | 90hPa | 2.5V | 02:52:31 | 03:04:28 | 00:00:00 | |
| DF8AY | 2026-09-01 00:54:32 | 52.69724 | 11.02110 | 70° | 29km/h | 17177m | -14.6m/s | -49.2°C | 0% | 90.1hPa | 2.5V | 02:52:32 | 03:04:29 | 00:00:00 | |
| AA1-15 | 2026-09-01 00:54:29 | 52.69716 | 11.02077 | 63° | 26km/h | 17218m | -13.5m/s | -48.6°C | 0% | 89.6hPa | 2.6V | 02:53:23 | 03:04:26 | 00:00:00 | |
| DL1XH-15 | 2026-09-01 00:54:29 | 52.69709 | 11.02050 | 65° | 24km/h | 17261m | -15.2m/s | -48.9°C | 2.6% | 89hPa | 2.5V | 02:52:36 | 03:04:23 | 00:00:00 | |
| DL4XJ-10 | 2026-09-01 00:54:29 | 52.69716 | 11.02077 | 64° | 22km/h | 17218m | -13.5m/s | -48.2°C | 0% | 0hPa | 2.6V | 00:00:00 | 00:00:00 | 00:00:00 | |
| DM0DOS-11 | 2026-09-01 00:54:28 | 52.69702 | 11.02025 | 70° | 22km/h | 17306m | -15.3m/s | -49.2°C | 2.6% | 88.4hPa | 2.6V | 02:52:39 | 03:04:20 | 00:00:00 | |
| BIOWL1-15 | 2026-09-01 00:54:27 | 52.69700 | 11.02016 | 74° | 22km/h | 17321m | -15.1m/s | -49.3°C | 0% | 88.2hPa | 2.5V | 02:53:23 | 03:04:19 | 00:00:00 | |
| DL1XH-west | 2026-09-01 00:54:24 | 52.69704 | 11.02034 | 70° | 22km/h | 17291m | -15.3m/s | -49.1°C | 0% | 88.6hPa | 2.6V | 02:53:23 | 03:04:21 | 00:00:00 | |
| DF8AY | 2026-09-01 00:54:21 | 52.69699 | 11.01998 | 82° | 24km/h | 17351m | -14.4m/s | -49.4°C | 0% | 87.8hPa | 2.6V | 02:54:14 | 03:04:17 | 00:00:00 | |
| AA1-15 | 2026-09-01 00:54:19 | 52.69698 | 11.01988 | 89° | 24km/h | 17365m | -14.3m/s | -49.5°C | 0% | 87.6hPa | 2.6V | 02:53:23 | 03:04:16 | 00:00:00 | |
| DL1XH-15 | 2026-09-01 00:54:17 | 52.69699 | 11.01958 | 95° | 22km/h | 17407m | -13.9m/s | -49.7°C | 2.7% | 87.1hPa | 2.6V | 02:52:46 | 03:04:13 | 00:00:00 | |
| DO2SHX-10 | 2026-09-01 00:54:17 | 52.69699 | 11.01968 | 94° | 24km/h | 17393m | -14.0m/s | -49.6°C | 2.7% | 87.2hPa | 2.5V | 02:52:00 | 03:04:14 | 00:00:00 | |
| GOEST3-10 | 2026-09-01 00:54:16 | 52.69699 | 11.01958 | 96° | 22km/h | 17407m | -13.9m/s | -49.7°C | 2.7% | 87.0hPa | 2.5V | 00:00:00 | 00:00:00 | 00:00:00 | |
| DL1XH1-15 | 2026-09-01 00:54:14 | 52.69701 | 11.01909 | 87° | 16km/h | 17492m | -15.6m/s | -49.9°C | 2.6% | 85.9hPa | 2.5V | 02:52:52 | 03:04:07 | 00:00:00 | |
| DL1XH-west | 2026-09-01 00:54:14 | 52.69700 | 11.01940 | 96° | 22km/h | 17434m | -14.2m/s | -49.8°C | 0% | 86.7hPa | 2.5V | 02:53:23 | 03:04:11 | 00:00:00 | |
| DL1NUX | 2026-09-01 00:54:14 | 52.69701 | 11.01916 | 93° | 16km/h | 17477m | -15m/s | -49.9°C | 2.7% | 86.1hPa | 2.6V | 02:52:51 | 03:04:08 | 00:00:00 | |
| BIOWL1-15 | 2026-09-01 00:54:11 | 52.69701 | 11.01916 | 93° | 16km/h | 17477m | -15m/s | -49.9°C | 0% | 86.1hPa | 2.6V | 02:53:23 | 03:04:08 | 00:00:00 | |
| AA1-15 | 2026-09-01 00:54:09 | 52.69701 | 11.01896 | 80° | 15km/h | 17521m | -15.4m/s | -49.9°C | 0% | 85.5hPa | 2.5V | 02:53:23 | 03:04:05 | 00:00:00 | |
| DL1XH-west | 2026-09-01 00:54:04 | 52.69697 | 11.01873 | 73° | 15km/h | 17581m | -15.8m/s | -50.1°C | 0% | 84.8hPa | 2.5V | 02:53:23 | 03:04:01 | 00:00:00 | |
| DD8BA-10 | 2026-09-01 00:54:04 | 52.69697 | 11.01873 | 73° | 15km/h | 17581m | -15.8m/s | -50.1°C | 2.7% | 84.7hPa | 2.6V | 00:00:00 | 00:00:00 | 00:00:00 | |
| DK7RCA | 2026-09-01 00:54:03 | 52.69697 | 11.01873 | 74° | 15km/h | 17581m | -15.8m/s | -50.1°C | 0.5% | 84.8hPa | 2.6V | 00:00:00 | 00:00:00 | 00:00:00 | |
| DL1XH1-15 | 2026-09-01 00:54:02 | 52.69692 | 11.01852 | 65° | 15km/h | 17641m | -14.4m/s | -50.5°C | 2.8% | 84hPa | 2.6V | 02:53:02 | 03:03:57 | 00:00:00 | |
| DL3AQ-11 | 2026-09-01 00:54:02 | 52.69693 | 11.01858 | 67° | 13km/h | 17626m | -14.6m/s | -50.4°C | 0.5% | -1.0hPa | 2.5V | 00:00:00 | 00:00:00 | 00:00:00 | |
| DL1XH-15 | 2026-09-01 00:54:01 | 52.69685 | 11.01829 | 62° | 16km/h | 17696m | -14.5m/s | -51.1°C | 3% | 83.3hPa | 2.5V | 02:53:06 | 03:03:53 | 00:00:00 | |
| BIOWL1-15 | 2026-09-01 00:54:01 | 52.69690 | 11.01847 | 68° | 15km/h | 17655m | -14.1m/s | -50.7°C | 0% | 83.9hPa | 2.6V | 02:53:23 | 03:03:56 | 00:00:00 | |
| DF8AY | 2026-09-01 00:53:59 | 52.69689 | 11.01841 | 70° | 15km/h | 17668m | -13.5m/s | -50.8°C | 0% | 83.7hPa | 2.5V | 02:54:14 | 03:03:55 | 00:00:00 | |
| AA1-15 | 2026-09-01 00:53:58 | 52.69687 | 11.01835 | 61° | 15km/h | 17682m | -13.8m/s | -51°C | 0% | 83.4hPa | 2.5V | 02:53:23 | 03:03:54 | 00:00:00 | |
| DL1NUX | 2026-09-01 00:53:58 | 52.69687 | 11.01835 | 60° | 15km/h | 17682m | -13.8m/s | -51°C | 2.9% | 83.4hPa | 2.5V | 02:53:05 | 03:03:54 | 00:00:00 | |
| DM0DOS-11 | 2026-09-01 00:53:58 | 52.69678 | 11.01810 | 57° | 20km/h | 17739m | -15.4m/s | -51.5°C | 3% | 82.7hPa | 2.6V | 02:53:09 | 03:03:50 | 00:00:00 | |
| AP2371 | 2026-09-01 00:53:57 | 52.69689 | 11.01841 | 71° | 15km/h | 17669m | -13.5m/s | -50.8°C | 0.5% | 83.7hPa | 2.5V | 00:00:00 | 00:00:00 | 00:00:00 | |
| DO2SHX-10 | 2026-09-01 00:53:56 | 52.69685 | 11.01829 | 63° | 18km/h | 17696m | -14.5m/s | -51.0°C | 3.0% | 83.2hPa | 2.5V | 00:00:00 | 03:03:53 | 00:00:00 | |
| DL1XH1-15 | 2026-09-01 00:53:55 | 52.69669 | 11.01788 | 58° | 22km/h | 17785m | -15.3m/s | -51.8°C | 3.1% | 82.1hPa | 2.5V | 02:53:12 | 03:03:47 | 00:00:00 | |
| DL1XH-west | 2026-09-01 00:53:54 | 52.69678 | 11.01810 | 58° | 20km/h | 17739m | -15.4m/s | -51.5°C | 0% | 82.7hPa | 2.6V | 02:53:23 | 03:03:50 | 00:00:00 | |
| SP3BTT-10 | 2026-09-01 00:53:53 | 52.69678 | 11.01810 | 58° | 22km/h | 17739m | -15.3m/s | -51.4°C | 3.0% | 82.6hPa | 2.6V | 00:00:00 | 00:00:00 | 00:00:00 | |
| DL1NUX | 2026-09-01 00:53:52 | 52.69661 | 11.01765 | 64° | 18km/h | 17831m | -15.4m/s | -52°C | 3.1% | 81.6hPa | 2.6V | 02:53:15 | 03:03:44 | 00:00:00 | |
| DL1XH-15 | 2026-09-01 00:53:51 | 52.69656 | 11.01750 | 61° | 22km/h | 17860m | -13.9m/s | -52.1°C | 3.2% | 81.2hPa | 2.5V | 02:53:17 | 03:03:42 | 00:00:00 | |
| BIOWL1-15 | 2026-09-01 00:53:50 | 52.69669 | 11.01788 | 59° | 22km/h | 17785m | -15.3m/s | -51.8°C | 0% | 82.1hPa | 2.5V | 02:53:23 | 03:03:47 | 00:00:00 | |
| DF8AY | 2026-09-01 00:53:48 | 52.69661 | 11.01765 | 65° | 18km/h | 17831m | -15.4m/s | -52°C | 0% | 81.6hPa | 2.6V | 02:54:14 | 03:03:44 | 00:00:00 | |
| AA1-15 | 2026-09-01 00:53:48 | 52.69656 | 11.01750 | 62° | 22km/h | 17860m | -13.9m/s | -52.1°C | 0% | 81.2hPa | 2.5V | 02:53:23 | 03:03:42 | 00:00:00 | |
| DL3AQ-11 | 2026-09-01 00:53:46 | 52.69656 | 11.01750 | 61° | 20km/h | 17860m | -13.9m/s | 0°C | -1.0% | -1.0hPa | 2.5V | 00:00:00 | 00:00:00 | 00:00:00 | |
| DL1XH1-15 | 2026-09-01 00:53:44 | 52.69643 | 11.01709 | 60° | 26km/h | 17931m | -14.2m/s | -51.9°C | 3.2% | 80.3hPa | 2.5V | 02:53:22 | 03:03:37 | 00:00:00 | |
| DM0DOS-11 | 2026-09-01 00:53:44 | 52.69651 | 11.01735 | 59° | 20km/h | 17888m | -14.5m/s | -52.1°C | 3.2% | 80.8hPa | 2.6V | 02:53:19 | 03:03:40 | 00:00:00 | |
| DL1XH-west | 2026-09-01 00:53:43 | 52.69652 | 11.01735 | 59° | 20km/h | 17888m | -14.5m/s | -52.1°C | 0% | 80.9hPa | 2.6V | 02:53:23 | 03:03:40 | 00:00:00 | |
| BIOWL1-15 | 2026-09-01 00:53:41 | 52.69640 | 11.01699 | 61° | 27km/h | 17945m | -15.1m/s | -51.9°C | 0% | 80.1hPa | 2.5V | 02:53:23 | 03:03:36 | 00:00:00 | |
| S3001 | 2026-09-01 00:53:41 | 52.69643 | 11.01709 | 60° | 26km/h | 17931m | -14.3m/s | -51.9°C | 0.6% | 80.3hPa | 2.6V | 00:00:00 | 00:00:00 | 00:00:00 | |
| DB0UT-7 | 2026-09-01 00:53:39 | 52.69640 | 11.01699 | 61° | 40km/h | 17945m | -15.1m/s | -51.8°C | 3.1% | 80.1hPa | 2.6V | 00:00:00 | 03:03:36 | 00:00:00 | |
| DL1NUX | 2026-09-01 00:53:38 | 52.69632 | 11.01678 | 59° | 29km/h | 17975m | -14.5m/s | -51.5°C | 3% | 79.8hPa | 2.6V | 02:53:25 | 03:03:34 | 00:00:00 | |
| AA1-15 | 2026-09-01 00:53:36 | 52.69628 | 11.01667 | 56° | 31km/h | 17989m | -14.5m/s | -51.5°C | 0% | 79.6hPa | 2.6V | 02:54:14 | 03:03:33 | 00:00:00 | |
| EDDB2-11 | 2026-09-01 00:53:36 | 52.69624 | 11.01656 | 54° | 33km/h | 18003m | -14.3m/s | -51.4°C | 0.6% | 79.4hPa | 2.6V | 00:00:00 | 00:00:00 | 00:00:00 | |
| DF8AY | 2026-09-01 00:53:36 | 52.69624 | 11.01656 | 55° | 35km/h | 18003m | -14.3m/s | -51.4°C | 0% | 79.4hPa | 2.6V | 02:54:14 | 03:03:32 | 00:00:00 | |
| DO2SHX-10 | 2026-09-01 00:53:35 | 52.69624 | 11.01656 | 55° | 35km/h | 18003m | -14.2m/s | -51.4°C | 3.0% | 79.4hPa | 2.6V | 00:00:00 | 03:03:32 | 00:00:00 | |
| DL1XH1-15 | 2026-09-01 00:53:34 | 52.69595 | 11.01600 | 48° | 37km/h | 18075m | -14.5m/s | -51.4°C | 3% | 78.5hPa | 2.6V | 02:53:32 | 03:03:27 | 00:00:00 | |
| DM0DOS-11 | 2026-09-01 00:53:34 | 52.69613 | 11.01634 | 48° | 35km/h | 18032m | -14.9m/s | -51.4°C | 3% | 79.1hPa | 2.5V | 02:53:29 | 03:03:30 | 00:00:00 | |
| DL1XH-west | 2026-09-01 00:53:33 | 52.69607 | 11.01623 | 49° | 37km/h | 18047m | -14.3m/s | -51.4°C | 0% | 78.9hPa | 2.5V | 02:54:14 | 03:03:29 | 00:00:00 | |
| DL3AQ-11 | 2026-09-01 00:53:33 | 52.69607 | 11.01623 | 48° | 37km/h | 18047m | -14.3m/s | 0°C | -1.0% | -1.0hPa | 2.6V | 00:00:00 | 00:00:00 | 00:00:00 | |
| DL1NUX | 2026-09-01 00:53:32 | 52.69576 | 11.01563 | 48° | 38km/h | 18119m | -14.6m/s | -51.6°C | 3.1% | 78hPa | 2.6V | 02:53:35 | 03:03:24 | 00:00:00 | |
| DO2SHX-10 | 2026-09-01 00:53:32 | 52.69607 | 11.01623 | 49° | 37km/h | 18047m | -14.3m/s | -51.4°C | 3.0% | 78.8hPa | 2.5V | 02:53:00 | 03:03:29 | 00:00:00 | |
| GOEST3-10 | 2026-09-01 00:53:31 | 52.69601 | 11.01611 | 50° | 38km/h | 18061m | -14.0m/s | -51.4°C | 3.0% | 78.6hPa | 2.5V | 00:00:00 | 03:03:28 | 00:00:00 | |
| BUE01 | 2026-09-01 00:53:29 | 52.69582 | 11.01576 | 50° | 38km/h | 18104m | -15.0m/s | -51.5°C | 0.5% | 78.2hPa | 2.5V | 00:00:00 | 00:00:00 | 00:00:00 | |
| DL1XH-15 | 2026-09-01 00:53:28 | 52.69563 | 11.01538 | 50° | 42km/h | 18148m | -15.3m/s | -51.7°C | 3.1% | 77.7hPa | 2.5V | 02:53:37 | 03:03:22 | 00:00:00 | |
| BIOWL1-15 | 2026-09-01 00:53:28 | 52.69582 | 11.01576 | 50° | 38km/h | 18104m | -15m/s | -51.5°C | 0% | 78.2hPa | 2.5V | 02:55:56 | 03:03:25 | 00:00:00 | |
| AA1-15 | 2026-09-01 00:53:25 | 52.69550 | 11.01511 | 52° | 44km/h | 18179m | -15.6m/s | -51.9°C | 0% | 77.3hPa | 2.6V | 02:54:14 | 03:03:20 | 00:00:00 | |
| DL1XH1-15 | 2026-09-01 00:53:24 | 52.69529 | 11.01465 | 55° | 46km/h | 18223m | -14.6m/s | -51.9°C | 3.2% | 76.8hPa | 2.5V | 02:53:42 | 03:03:17 | 00:00:00 | |
| DL1XH-west | 2026-09-01 00:53:23 | 52.69543 | 11.01496 | 52° | 44km/h | 18194m | -15.2m/s | -52°C | 0% | 77.2hPa | 2.6V | 02:54:14 | 03:03:19 | 00:00:00 | |
| HSKMA3-T | 2026-09-01 00:53:19 | 52.69522 | 11.01449 | 54° | 47km/h | 18238m | -13.7m/s | -51.9°C | 0% | 76.6hPa | 2.6V | 02:54:14 | 03:03:16 | 00:00:00 | |
| BIOWL1-15 | 2026-09-01 00:53:17 | 52.69495 | 11.01384 | 58° | 47km/h | 18293m | -14.9m/s | -52°C | 0% | 75.9hPa | 2.5V | 02:55:56 | 03:03:12 | 00:00:00 | |
| DL1XH-15 | 2026-09-01 00:53:17 | 52.69495 | 11.01384 | 57° | 47km/h | 18293m | -14.9m/s | -52°C | 3.3% | 75.9hPa | 2.5V | 02:53:47 | 03:03:12 | 00:00:00 | |
| DM0DOS-11 | 2026-09-01 00:53:17 | 52.69476 | 11.01338 | 55° | 44km/h | 18336m | -13.8m/s | -52°C | 3.2% | 75.5hPa | 2.6V | 02:53:50 | 03:03:09 | 00:00:00 | |
| AA1-15 | 2026-09-01 00:53:14 | 52.69483 | 11.01353 | 55° | 44km/h | 18322m | -14.1m/s | -52°C | 0% | 75.6hPa | 2.6V | 02:54:14 | 03:03:10 | 00:00:00 | |
| DL1XH-west | 2026-09-01 00:53:12 | 52.69476 | 11.01338 | 56° | 44km/h | 18336m | -13.8m/s | -52°C | 0% | 75.5hPa | 2.6V | 02:54:14 | 03:03:09 | 00:00:00 | |
| DL1XH1-15 | 2026-09-01 00:53:11 | 52.69464 | 11.01311 | 50° | 38km/h | 18364m | -14.2m/s | -52°C | 3.2% | 75.1hPa | 2.5V | 02:53:52 | 03:03:07 | 00:00:00 | |
| DO2SHX-10 | 2026-09-01 00:53:11 | 52.69470 | 11.01324 | 54° | 38km/h | 18350m | -14.6m/s | -52.0°C | 3.3% | 75.2hPa | 2.5V | 00:00:00 | 03:03:08 | 00:00:00 | |
| DL1XH-15 | 2026-09-01 00:53:10 | 52.69433 | 11.01237 | 60° | 33km/h | 18451m | -15.9m/s | -50.5°C | 2.9% | 74.1hPa | 2.5V | 02:53:58 | 03:03:01 | 00:00:00 | |
| BIOWL1-15 | 2026-09-01 00:53:08 | 52.69442 | 11.01260 | 56° | 35km/h | 18422m | -15.3m/s | -51.1°C | 0% | 74.4hPa | 2.6V | 02:55:56 | 03:03:03 | 00:00:00 | |
| HSKMA3-T | 2026-09-01 00:53:07 | 52.69447 | 11.01273 | 56° | 37km/h | 18407m | -15.2m/s | -51.3°C | 0% | 74.6hPa | 2.6V | 02:54:14 | 03:03:04 | 00:00:00 | |
| DM0DOS-11 | 2026-09-01 00:53:07 | 52.69426 | 11.01215 | 64° | 27km/h | 18482m | -16.1m/s | -50.5°C | 2.8% | 73.8hPa | 2.6V | 02:54:00 | 03:02:59 | 00:00:00 | |
| DF8AY-15 | 2026-09-01 00:53:06 | 52.69442 | 11.01260 | 56° | 26km/h | 18422m | -15.2m/s | -51.0°C | 3.0% | 74.4hPa | 2.6V | 00:00:00 | 03:03:03 | 00:00:00 | |
| DL1XH1-15 | 2026-09-01 00:53:05 | 52.69421 | 11.01194 | 65° | 24km/h | 18513m | -14.9m/s | -50.7°C | 2.9% | 73.4hPa | 2.6V | 02:54:02 | 03:02:57 | 00:00:00 | |
| DF8AY | 2026-09-01 00:53:03 | 52.69426 | 11.01215 | 65° | 27km/h | 18482m | -16.1m/s | -50.5°C | 0% | 73.8hPa | 2.6V | 02:54:14 | 03:02:59 | 00:00:00 | |
| DL1XH-west | 2026-09-01 00:53:02 | 52.69423 | 11.01204 | 67° | 27km/h | 18498m | -15.8m/s | -50.6°C | 0% | 73.6hPa | 2.6V | 02:54:14 | 03:02:58 | 00:00:00 | |
| DO2SHX-10 | 2026-09-01 00:53:02 | 52.69426 | 11.01215 | 65° | 26km/h | 18483m | -16.1m/s | -50.5°C | 2.8% | 73.7hPa | 2.6V | 00:00:00 | 03:02:59 | 00:00:00 | |
| GOEST3-10 | 2026-09-01 00:53:01 | 52.69423 | 11.01204 | 68° | 22km/h | 18498m | -15.7m/s | -50.6°C | 2.9% | 73.5hPa | 2.6V | 00:00:00 | 03:02:58 | 00:00:00 | |
| DO2SHX-10 | 2026-09-01 00:52:59 | 52.69419 | 11.01185 | 69° | 22km/h | 18528m | -15.1m/s | -50.7°C | 2.9% | 73.2hPa | 2.6V | 00:00:00 | 03:02:56 | 00:00:00 | |
| DL1XH-15 | 2026-09-01 00:52:57 | 52.69408 | 11.01147 | 59° | 22km/h | 18601m | -14.8m/s | -51.1°C | 3% | 72.4hPa | 2.6V | 02:54:08 | 03:02:51 | 00:00:00 | |
| DM0DOS-11 | 2026-09-01 00:52:56 | 52.69402 | 11.01132 | 53° | 24km/h | 18630m | -15.4m/s | -51°C | 2.9% | 72.1hPa | 2.5V | 02:54:10 | 03:02:49 | 00:00:00 | |
| HSKMA3-T | 2026-09-01 00:52:53 | 52.69405 | 11.01140 | 56° | 20km/h | 18615m | -14.9m/s | -51.1°C | 0% | 72.2hPa | 2.5V | 02:54:14 | 03:02:50 | 00:00:00 | |
| HTAHTA | 2026-09-01 00:52:53 | 52.69402 | 11.01132 | 53° | 22km/h | 18630m | -15.4m/s | -51.0°C | 0.5% | 72.1hPa | 2.5V | 00:00:00 | 00:00:00 | 00:00:00 | |
| DL1NUX | 2026-09-01 00:52:52 | 52.69382 | 11.01087 | 55° | 31km/h | 18706m | -15.2m/s | -51°C | 2.9% | 71.2hPa | 2.5V | 02:54:15 | 03:02:44 | 00:00:00 | |
| DF8AY | 2026-09-01 00:52:52 | 52.69398 | 11.01125 | 51° | 24km/h | 18645m | -15.6m/s | -50.9°C | 0% | 71.9hPa | 2.5V | 02:54:14 | 03:02:48 | 00:00:00 | |
| DL1XH1-15 | 2026-09-01 00:52:51 | 52.69395 | 11.01116 | 54° | 27km/h | 18660m | -16m/s | -50.9°C | 2.9% | 71.8hPa | 2.6V | 02:54:12 | 03:02:47 | 00:00:00 | |
| DL1XH-west | 2026-09-01 00:52:51 | 52.69395 | 11.01116 | 55° | 27km/h | 18660m | -16m/s | -50.9°C | 0% | 71.8hPa | 2.6V | 02:54:14 | 03:02:47 | 00:00:00 | |
| BIOWL1-15 | 2026-09-01 00:52:50 | 52.69374 | 11.01066 | 58° | 31km/h | 18736m | -15.4m/s | -51.1°C | 0% | 71hPa | 2.5V | 02:55:56 | 03:02:42 | 00:00:00 | |
| DL4XJ-10 | 2026-09-01 00:52:49 | 52.69390 | 11.01107 | 55° | 35km/h | 18676m | -15.6m/s | -50.5°C | 0% | 0hPa | 2.5V | 00:00:00 | 00:00:00 | 00:00:00 | |
| DO2SHX-10 | 2026-09-01 00:52:47 | 52.69382 | 11.01087 | 56° | 31km/h | 18706m | -15.2m/s | -50.9°C | 2.9% | 71.2hPa | 2.5V | 02:54:00 | 03:02:44 | 00:00:00 | |
| DL1XH-15 | 2026-09-01 00:52:46 | 52.69370 | 11.01054 | 59° | 33km/h | 18751m | -14.9m/s | -51.1°C | 3% | 70.8hPa | 2.6V | 02:54:18 | 03:02:41 | 00:00:00 | |
| DL1XH1-15 | 2026-09-01 00:52:46 | 52.69353 | 11.01006 | 63° | 37km/h | 18810m | -15.4m/s | -50.9°C | 2.8% | 70.1hPa | 2.5V | 02:54:22 | 03:02:37 | 00:00:00 | |
| DM0DOS-11 | 2026-09-01 00:52:45 | 52.69361 | 11.01031 | 59° | 33km/h | 18780m | -14.5m/s | -51°C | 2.9% | 70.5hPa | 2.6V | 02:54:20 | 03:02:39 | 00:00:00 | |
| HSKMA3-T | 2026-09-01 00:52:43 | 52.69365 | 11.01043 | 60° | 33km/h | 18766m | -15.2m/s | -51.1°C | 0% | 70.6hPa | 2.6V | 02:55:05 | 03:02:40 | 00:00:00 | |
| DF8AY | 2026-09-01 00:52:41 | 52.69357 | 11.01019 | 62° | 35km/h | 18795m | -15.2m/s | -50.9°C | 0% | 70.3hPa | 2.5V | 02:55:05 | 03:02:38 | 00:00:00 | |
| DL1XH-west | 2026-09-01 00:52:40 | 52.69349 | 11.00992 | 63° | 38km/h | 18825m | -14.9m/s | -51°C | 0% | 70hPa | 2.5V | 02:55:05 | 03:02:36 | 00:00:00 | |
| S3001 | 2026-09-01 00:52:39 | 52.69345 | 11.00978 | 66° | 38km/h | 18840m | -15.1m/s | -51.1°C | 0.5% | 69.8hPa | 2.6V | 00:00:00 | 00:00:00 | 00:00:00 | |
| DO2SHX-10 | 2026-09-01 00:52:38 | 52.69345 | 11.00978 | 67° | 38km/h | 18840m | -15.0m/s | -51.0°C | 2.9% | 69.7hPa | 2.6V | 02:54:00 | 03:02:35 | 00:00:00 | |
| GOEST3-10 | 2026-09-01 00:52:36 | 52.69337 | 11.00948 | 70° | 38km/h | 18869m | -15.1m/s | -51.2°C | 3.0% | 69.4hPa | 2.6V | 00:00:00 | 00:00:00 | 00:00:00 | |
| DO2SHX-10 | 2026-09-01 00:52:35 | 52.69334 | 11.00933 | 73° | 38km/h | 18884m | -15.1m/s | -51.3°C | 2.9% | 69.3hPa | 2.6V | 00:00:00 | 03:02:32 | 00:00:00 | |
| DM0DOS-11 | 2026-09-01 00:52:34 | 52.69326 | 11.00887 | 75° | 38km/h | 18928m | -15.8m/s | -51.5°C | 3% | 68.9hPa | 2.6V | 02:54:30 | 03:02:29 | 00:00:00 | |
| BIOWL1-15 | 2026-09-01 00:52:32 | 52.69326 | 11.00887 | 76° | 38km/h | 18928m | -15.8m/s | -51.5°C | 0% | 68.9hPa | 2.6V | 02:55:56 | 03:02:29 | 00:00:00 | |
| DF8AY | 2026-09-01 00:52:30 | 52.69321 | 11.00858 | 78° | 35km/h | 18959m | -15.4m/s | -51.6°C | 0% | 68.5hPa | 2.6V | 02:55:05 | 03:02:27 | 00:00:00 | |
| DL1XH-west | 2026-09-01 00:52:29 | 52.69319 | 11.00844 | 77° | 33km/h | 18974m | -15.9m/s | -51.6°C | 0% | 68.4hPa | 2.5V | 02:55:05 | 03:02:26 | 00:00:00 | |
| DL4XJ-10 | 2026-09-01 00:52:29 | 52.69319 | 11.00844 | 78° | 26km/h | 18974m | -15.8m/s | -51.3°C | 0% | 0hPa | 2.6V | 00:00:00 | 00:00:00 | 00:00:00 | |
| DJ2DS-15 | 2026-09-01 00:52:26 | 52.69309 | 11.00786 | 68° | 26km/h | 19051m | -15.2m/s | -51.7°C | 0.6% | 67.6hPa | 2.6V | 00:00:00 | 00:00:00 | 00:00:00 | |
| DL1XH1-15 | 2026-09-01 00:52:24 | 52.69300 | 11.00747 | 68° | 22km/h | 19110m | -15.7m/s | -52°C | 3.2% | 67hPa | 2.6V | 02:54:42 | 03:02:17 | 00:00:00 | |
| SONCRA | 2026-09-01 00:52:24 | 52.69307 | 11.00776 | 67° | 24km/h | 19066m | -15.1m/s | -51.8°C | 0.6% | 67.4hPa | 2.5V | 00:00:00 | 00:00:00 | 00:00:00 | |
| DD8BA-10 | 2026-09-01 00:52:23 | 52.69307 | 11.00775 | 68° | 22km/h | 19066m | -15.1m/s | -51.7°C | 3.1% | 67.4hPa | 2.5V | 00:00:00 | 00:00:00 | 00:00:00 | |
| DL1NUX | 2026-09-01 00:52:22 | 52.69294 | 11.00722 | 65° | 20km/h | 19157m | -15.1m/s | -52°C | 3.1% | 66.5hPa | 2.5V | 02:54:45 | 03:02:14 | 00:00:00 | |
| HSKMA3-T | 2026-09-01 00:52:21 | 52.69302 | 11.00756 | 70° | 24km/h | 19095m | -15.6m/s | -51.9°C | 0% | 67.1hPa | 2.5V | 02:55:05 | 03:02:18 | 00:00:00 | |
| BIOWL1-15 | 2026-09-01 00:52:21 | 52.69300 | 11.00747 | 68° | 22km/h | 19110m | -15.7m/s | -52°C | 0% | 67hPa | 2.6V | 02:55:56 | 03:02:17 | 00:00:00 | |
| AA1-15 | 2026-09-01 00:52:20 | 52.69298 | 11.00738 | 69° | 22km/h | 19126m | -15.5m/s | -52°C | 0% | 66.8hPa | 2.6V | 02:55:05 | 03:02:16 | 00:00:00 | |
| DF8AY | 2026-09-01 00:52:20 | 52.69288 | 11.00697 | 70° | 24km/h | 19202m | -15.3m/s | -52.2°C | 0% | 66hPa | 2.6V | 02:55:05 | 03:02:11 | 00:00:00 | |
| DL1XH-west | 2026-09-01 00:52:18 | 52.69296 | 11.00730 | 62° | 20km/h | 19141m | -15.8m/s | -52.1°C | 0% | 66.7hPa | 2.6V | 02:55:05 | 03:02:15 | 00:00:00 | |
| SMARD9-15 | 2026-09-01 00:52:18 | 52.69294 | 11.00722 | 65° | 20km/h | 19157m | -15.1m/s | -52.0°C | 0.5% | 66.5hPa | 2.5V | 00:00:00 | 00:00:00 | 00:00:00 | |
| DO2SHX-10 | 2026-09-01 00:52:16 | 52.69292 | 11.00714 | 68° | 22km/h | 19172m | -15.8m/s | -51.9°C | 3.1% | 66.3hPa | 2.5V | 00:00:00 | 03:02:13 | 00:00:00 | |
| GOEST3-10 | 2026-09-01 00:52:15 | 52.69290 | 11.00706 | 70° | 26km/h | 19187m | -15.3m/s | -52.0°C | 3.2% | 66.1hPa | 2.5V | 00:00:00 | 00:00:00 | 00:00:00 | |
| DL1XH1-15 | 2026-09-01 00:52:14 | 52.69280 | 11.00656 | 76° | 27km/h | 19262m | -16m/s | -52.2°C | 3.2% | 65.4hPa | 2.5V | 02:54:52 | 03:02:07 | 00:00:00 | |
| HSKMA3-T | 2026-09-01 00:52:11 | 52.69282 | 11.00667 | 75° | 27km/h | 19248m | -15.2m/s | -52.2°C | 0% | 65.5hPa | 2.5V | 02:55:05 | 03:02:08 | 00:00:00 | |
| BIOWL1-15 | 2026-09-01 00:52:08 | 52.69277 | 11.00633 | 79° | 29km/h | 19294m | -15.8m/s | -52.1°C | 0% | 65.1hPa | 2.6V | 02:55:56 | 03:02:05 | 00:00:00 | |
| DL1XH-west | 2026-09-01 00:52:08 | 52.69275 | 11.00609 | 84° | 29km/h | 19324m | -15.5m/s | -51.9°C | 0% | 64.8hPa | 2.6V | 02:55:05 | 03:02:03 | 00:00:00 | |
| DL1XH-15 | 2026-09-01 00:52:08 | 52.69274 | 11.00583 | 92° | 33km/h | 19354m | -16.3m/s | -52°C | 3.2% | 64.4hPa | 2.5V | 02:54:58 | 03:02:01 | 00:00:00 | |
| S3001 | 2026-09-01 00:52:08 | 52.69276 | 11.00621 | 80° | 29km/h | 19309m | -15.5m/s | -52.1°C | 0.6% | 65.0hPa | 2.6V | 00:00:00 | 00:00:00 | 00:00:00 | |
| DO2SHX-10 | 2026-09-01 00:52:07 | 52.69276 | 11.00621 | 81° | 29km/h | 19309m | -15.5m/s | -52.1°C | 3.3% | 64.9hPa | 2.6V | 00:00:00 | 03:02:04 | 00:00:00 | |
| GOEST3-10 | 2026-09-01 00:52:06 | 52.69274 | 11.00596 | 88° | 33km/h | 19339m | -15.7m/s | -51.9°C | 3.2% | 64.6hPa | 2.6V | 00:00:00 | 00:00:00 | 00:00:00 | |
| DL1XH1-15 | 2026-09-01 00:52:05 | 52.69277 | 11.00528 | 99° | 33km/h | 19417m | -15.6m/s | -51.9°C | 3.3% | 63.9hPa | 2.6V | 02:55:02 | 03:01:57 | 00:00:00 | |
| DF8AY | 2026-09-01 00:52:04 | 52.69274 | 11.00569 | 91° | 33km/h | 19370m | -16.5m/s | -52.2°C | 0% | 64.3hPa | 2.5V | 02:55:05 | 03:02:00 | 00:00:00 | |
| DO2SHX-10 | 2026-09-01 00:52:04 | 52.69274 | 11.00583 | 93° | 33km/h | 19355m | -16.2m/s | -52.0°C | 3.2% | 64.4hPa | 2.5V | 00:00:00 | 03:02:01 | 00:00:00 | |
| EDDB2-11 | 2026-09-01 00:52:03 | 52.69275 | 11.00555 | 94° | 33km/h | 19386m | -16.3m/s | -52.2°C | 0.6% | 64.2hPa | 2.5V | 00:00:00 | 00:00:00 | 00:00:00 | |
| DL1NUX | 2026-09-01 00:52:02 | 52.69282 | 11.00489 | 104° | 31km/h | 19462m | -15.5m/s | -51.4°C | 3.1% | 63.4hPa | 2.5V | 02:55:05 | 03:01:54 | 00:00:00 | |
| HSKMA3-T | 2026-09-01 00:52:00 | 52.69277 | 11.00528 | 100° | 33km/h | 19417m | -15.6m/s | -51.9°C | 0% | 63.9hPa | 2.6V | 02:55:05 | 03:01:57 | 00:00:00 | |
| AA1-15 | 2026-09-01 00:51:58 | 52.69280 | 11.00502 | 103° | 33km/h | 19447m | -15.8m/s | -51.6°C | 0% | 63.5hPa | 2.5V | 02:55:05 | 03:01:55 | 00:00:00 | |
| BIOWL1-15 | 2026-09-01 00:51:58 | 52.69284 | 11.00467 | 102° | 26km/h | 19493m | -16.4m/s | -51.5°C | 0% | 63.1hPa | 2.6V | 02:55:56 | 03:01:52 | 00:00:00 | |
| DL1XH-15 | 2026-09-01 00:51:57 | 52.69286 | 11.00457 | 99° | 24km/h | 19509m | -16.3m/s | -51.6°C | 3.2% | 62.9hPa | 2.6V | 02:55:08 | 03:01:51 | 00:00:00 | |
| DL1XH-west | 2026-09-01 00:51:57 | 52.69283 | 11.00477 | 100° | 24km/h | 19478m | -16.2m/s | -51.5°C | 0% | 63.3hPa | 2.6V | 02:55:56 | 03:01:53 | 00:00:00 | |
| AM1SDL-15 | 2026-09-01 00:51:56 | 52.69283 | 11.00477 | 100° | 18km/h | 19478m | -16.1m/s | -51.4°C | 3.1% | 63.2hPa | 2.6V | 02:55:00 | 03:01:53 | 00:00:00 | |
| GOEST3-10 | 2026-09-01 00:51:55 | 52.69284 | 11.00467 | 102° | 20km/h | 19494m | -16.3m/s | -51.5°C | 3.1% | 63.1hPa | 2.6V | 02:55:00 | 00:00:00 | 00:00:00 | |
| DM0DOS-11 | 2026-09-01 00:51:53 | 52.69286 | 11.00441 | 90° | 18km/h | 19541m | -16.2m/s | -51.6°C | 3.1% | 62.6hPa | 2.5V | 02:55:10 | 03:01:49 | 00:00:00 | |
| DF8AY | 2026-09-01 00:51:53 | 52.69286 | 11.00433 | 86° | 18km/h | 19557m | -16.6m/s | -51.5°C | 0% | 62.5hPa | 2.5V | 02:55:56 | 03:01:48 | 00:00:00 | |
| HSKMA3-T | 2026-09-01 00:51:50 | 52.69285 | 11.00421 | 74° | 13km/h | 19589m | -15.8m/s | -51.6°C | 0% | 62.2hPa | 2.6V | 02:55:56 | 03:01:46 | 00:00:00 | |
| AA1-15 | 2026-09-01 00:51:48 | 52.69284 | 11.00409 | 86° | 15km/h | 19621m | -16.5m/s | -51.4°C | 0% | 61.9hPa | 2.5V | 02:55:56 | 03:01:44 | 00:00:00 | |
| DL1XH-15 | 2026-09-01 00:51:47 | 52.69285 | 11.00392 | 111° | 15km/h | 19669m | -16.6m/s | -50.7°C | 2.9% | 61.4hPa | 2.6V | 02:55:18 | 03:01:41 | 00:00:00 | |
| BIOWL1-15 | 2026-09-01 00:51:46 | 52.69284 | 11.00403 | 93° | 15km/h | 19637m | -16.6m/s | -51.2°C | 0% | 61.7hPa | 2.5V | 02:55:56 | 03:01:43 | 00:00:00 | |
| DL1XH-west | 2026-09-01 00:51:45 | 52.69284 | 11.00397 | 100° | 13km/h | 19653m | -16.3m/s | -50.7°C | 0% | 61.6hPa | 2.5V | 02:55:56 | 03:01:42 | 00:00:00 | |
| DF8AY | 2026-09-01 00:51:42 | 52.69291 | 11.00373 | 121° | 7km/h | 19733m | -15.8m/s | -50.9°C | 0% | 60.8hPa | 2.5V | 02:55:56 | 03:01:37 | 00:00:00 | |
| DL1NUX | 2026-09-01 00:51:42 | 52.69293 | 11.00365 | 103° | 4km/h | 19781m | -16.1m/s | -51°C | 2.9% | 60.4hPa | 2.6V | 02:55:25 | 03:01:34 | 00:00:00 | |
| HSKMA3-T | 2026-09-01 00:51:39 | 52.69291 | 11.00370 | 116° | 7km/h | 19749m | -16.4m/s | -51°C | 0% | 60.7hPa | 2.5V | 02:55:56 | 03:01:36 | 00:00:00 | |
| BIOWL1-15 | 2026-09-01 00:51:39 | 52.69293 | 11.00362 | 72° | 5km/h | 19812m | -15.9m/s | -50.9°C | 0% | 60.1hPa | 2.5V | 02:55:56 | 03:01:32 | 00:00:00 | |
| AA1-15 | 2026-09-01 00:51:38 | 52.69293 | 11.00365 | 104° | 4km/h | 19781m | -16.1m/s | -51°C | 0% | 60.4hPa | 2.6V | 02:55:56 | 03:01:34 | 00:00:00 | |
| DL1XH-west | 2026-09-01 00:51:35 | 52.69293 | 11.00360 | 79° | 5km/h | 19828m | -16.4m/s | -50.9°C | 0% | 59.9hPa | 2.5V | 02:55:56 | 03:01:31 | 00:00:00 | |
| GOEST3-10 | 2026-09-01 00:51:35 | 52.69293 | 11.00362 | 73° | 5km/h | 19812m | -15.9m/s | -50.8°C | 2.9% | 60.0hPa | 2.5V | 00:00:00 | 00:00:00 | 00:00:00 | |
| DO2SHX-10 | 2026-09-01 00:51:34 | 52.69292 | 11.00360 | 80° | 4km/h | 19828m | -16.3m/s | -50.8°C | 2.8% | 59.9hPa | 2.5V | 02:55:00 | 03:01:31 | 00:00:00 | |
| DM0DOS-11 | 2026-09-01 00:51:33 | 52.69291 | 11.00357 | 31° | 5km/h | 19860m | -16.6m/s | -51°C | 2.9% | 59.6hPa | 2.6V | 02:55:30 | 03:01:29 | 00:00:00 | |
| DD8BA-10 | 2026-09-01 00:51:33 | 52.69292 | 11.00358 | 61° | 5km/h | 19844m | -16.8m/s | -50.8°C | 2.8% | 59.7hPa | 2.5V | 00:00:00 | 00:00:00 | 00:00:00 | |
| DL1NUX | 2026-09-01 00:51:32 | 52.69286 | 11.00349 | 33° | 5km/h | 19940m | -16.9m/s | -51.7°C | 3.1% | 59hPa | 2.5V | 02:55:35 | 03:01:24 | 00:00:00 | |
| DF8AY | 2026-09-01 00:51:31 | 52.69291 | 11.00355 | 57° | 5km/h | 19876m | -16.5m/s | -51.2°C | 0% | 59.5hPa | 2.6V | 02:55:56 | 03:01:28 | 00:00:00 | |
| HSKMA3-T | 2026-09-01 00:51:29 | 52.69289 | 11.00351 | 27° | 5km/h | 19908m | -16.6m/s | -51.4°C | 0% | 59.2hPa | 2.5V | 02:55:56 | 03:01:26 | 00:00:00 | |
| BIOWL1-15 | 2026-09-01 00:51:27 | 52.69283 | 11.00346 | 13° | 9km/h | 19973m | -17m/s | -52°C | 0% | 58.6hPa | 2.6V | 02:55:56 | 03:01:22 | 00:00:00 | |
| AA1-15 | 2026-09-01 00:51:26 | 52.69285 | 11.00348 | 32° | 7km/h | 19957m | -16.8m/s | -51.9°C | 0% | 58.7hPa | 2.6V | 02:55:56 | 03:01:23 | 00:00:00 | |
| DL1XH-west | 2026-09-01 00:51:25 | 52.69281 | 11.00345 | 12° | 11km/h | 19990m | -16.4m/s | -52.2°C | 0% | 58.5hPa | 2.6V | 02:55:56 | 03:01:21 | 00:00:00 | |
| DL1XH1-15 | 2026-09-01 00:51:24 | 52.69270 | 11.00333 | 42° | 15km/h | 20054m | -16.3m/s | -52.5°C | 3.3% | 57.9hPa | 2.6V | 02:55:42 | 03:01:17 | 00:00:00 | |
| SP3BTT-10 | 2026-09-01 00:51:24 | 52.69281 | 11.00345 | 12° | 9km/h | 19990m | -16.3m/s | -52.1°C | 3.2% | 58.4hPa | 2.5V | 00:00:00 | 00:00:00 | 00:00:00 | |
| DM0DOS-11 | 2026-09-01 00:51:23 | 52.69275 | 11.00340 | 36° | 15km/h | 20022m | -16.6m/s | -52.5°C | 3.2% | 58.2hPa | 2.5V | 02:55:40 | 03:01:19 | 00:00:00 | |
| DD8BA-10 | 2026-09-01 00:51:23 | 52.69278 | 11.00343 | 32° | 16km/h | 20006m | -16.2m/s | -52.3°C | 3.3% | 58.3hPa | 2.5V | 00:00:00 | 00:00:00 | 00:00:00 | |
| DL1NUX | 2026-09-01 00:51:22 | 52.69260 | 11.00317 | 48° | 18km/h | 20103m | -17.1m/s | -52.2°C | 3.2% | 57.4hPa | 2.5V | 02:55:45 | 03:01:14 | 00:00:00 | |
| DF8AY | 2026-09-01 00:51:21 | 52.69270 | 11.00333 | 42° | 15km/h | 20054m | -16.3m/s | -52.6°C | 0% | 57.9hPa | 2.6V | 02:55:56 | 03:01:17 | 00:00:00 | |
| HSKMA3-T | 2026-09-01 00:51:18 | 52.69264 | 11.00322 | 37° | 18km/h | 20086m | -17.2m/s | -52.4°C | 0% | 57.6hPa | 2.6V | 02:55:56 | 03:01:15 | 00:00:00 | |
| AA1-15 | 2026-09-01 00:51:15 | 52.69254 | 11.00305 | 47° | 18km/h | 20137m | -17m/s | -52.2°C | 0% | 57.1hPa | 2.5V | 02:55:56 | 03:01:12 | 00:00:00 | |
| DF8AY | 2026-09-01 00:51:14 | 52.69240 | 11.00263 | 71° | 16km/h | 20236m | -16.2m/s | -52.5°C | 0% | 56.3hPa | 2.5V | 02:55:56 | 03:01:06 | 00:00:00 | |
| BIOWL1-15 | 2026-09-01 00:51:14 | 52.69251 | 11.00298 | 55° | 22km/h | 20154m | -17m/s | -52.2°C | 0% | 57hPa | 2.6V | 02:55:56 | 03:01:11 | 00:00:00 | |
| DM0DOS-11 | 2026-09-01 00:51:13 | 52.69246 | 11.00284 | 60° | 16km/h | 20187m | -16.4m/s | -52.3°C | 3.2% | 56.8hPa | 2.6V | 02:55:50 | 03:01:09 | 00:00:00 | |
| DL1XH1-15 | 2026-09-01 00:51:13 | 52.69242 | 11.00270 | 69° | 16km/h | 20220m | -16.5m/s | -52.4°C | 3.3% | 56.4hPa | 2.5V | 02:55:52 | 03:01:07 | 00:00:00 | |
| DO2SHX-10 | 2026-09-01 00:51:13 | 52.69248 | 11.00290 | 59° | 18km/h | 20171m | -17.1m/s | -52.2°C | 3.2% | 56.8hPa | 2.6V | 00:00:00 | 03:01:10 | 00:00:00 | |
| DL1NUX | 2026-09-01 00:51:12 | 52.69238 | 11.00249 | 75° | 16km/h | 20268m | -17m/s | -52.5°C | 3.3% | 56hPa | 2.6V | 02:55:55 | 03:01:04 | 00:00:00 | |
| GOEST3-10 | 2026-09-01 00:51:10 | 52.69242 | 11.00270 | 70° | 16km/h | 20220m | -16.4m/s | -52.4°C | 3.3% | 56.4hPa | 2.5V | 02:55:00 | 03:01:07 | 00:00:00 | |
| DL1XH-15 | 2026-09-01 00:51:09 | 52.69236 | 11.00223 | 84° | 22km/h | 20318m | -16.7m/s | -52.4°C | 3.2% | 55.6hPa | 2.5V | 02:55:58 | 03:01:01 | 00:00:00 | |
| HSKMA3-T | 2026-09-01 00:51:08 | 52.69239 | 11.00256 | 75° | 18km/h | 20252m | -16.3m/s | -52.5°C | 0% | 56.2hPa | 2.6V | 02:55:56 | 03:01:05 | 00:00:00 | |
| DM0DOS-11 | 2026-09-01 00:51:07 | 52.69235 | 11.00193 | 90° | 26km/h | 20366m | -16.4m/s | -52.2°C | 3.1% | 55.1hPa | 2.6V | 02:56:01 | 03:00:58 | 00:00:00 | |
| DO2SHX-10 | 2026-09-01 00:51:07 | 52.69238 | 11.00249 | 76° | 20km/h | 20268m | -17.0m/s | -52.5°C | 3.3% | 56.0hPa | 2.6V | 02:55:00 | 03:01:04 | 00:00:00 | |
| DF8AY-15 | 2026-09-01 00:51:06 | 52.69237 | 11.00241 | 80° | 18km/h | 20285m | -16.9m/s | -52.4°C | 3.3% | 55.8hPa | 2.6V | 00:00:00 | 03:01:03 | 00:00:00 | |
| DL1XH1-15 | 2026-09-01 00:51:05 | 52.69235 | 11.00183 | 92° | 24km/h | 20383m | -16.5m/s | -52.2°C | 3.2% | 55hPa | 2.6V | 02:56:02 | 03:00:57 | 00:00:00 | |
| DL1XH-west | 2026-09-01 00:51:03 | 52.69235 | 11.00214 | 85° | 22km/h | 20335m | -16.5m/s | -52.3°C | 0% | 55.4hPa | 2.5V | 02:56:47 | 03:01:00 | 00:00:00 | |
| DD8BA-10 | 2026-09-01 00:51:03 | 52.69235 | 11.00214 | 85° | 20km/h | 20335m | -16.5m/s | -52.2°C | 3.2% | 55.4hPa | 2.6V | 00:00:00 | 00:00:00 | 00:00:00 | |
| EDDB2-12 | 2026-09-01 00:51:02 | 52.69235 | 11.00204 | 90° | 24km/h | 20351m | -16.4m/s | -52.2°C | 0.6% | 55.3hPa | 2.6V | 00:00:00 | 00:00:00 | 00:00:00 | |
| DO2SHX-10 | 2026-09-01 00:51:01 | 52.69235 | 11.00193 | 91° | 24km/h | 20367m | -16.4m/s | -52.1°C | 3.1% | 55.1hPa | 2.6V | 00:00:00 | 03:00:58 | 00:00:00 | |
| GOEST3-10 | 2026-09-01 00:51:00 | 52.69235 | 11.00183 | 93° | 20km/h | 20383m | -16.5m/s | -52.2°C | 3.2% | 55.0hPa | 2.6V | 00:00:00 | 03:00:57 | 00:00:00 | |
| DL1XH-15 | 2026-09-01 00:50:59 | 52.69238 | 11.00135 | 89° | 13km/h | 20481m | -16.4m/s | -52.5°C | 3.2% | 54.2hPa | 2.6V | 02:56:08 | 03:00:51 | 00:00:00 | |
| DF8AY | 2026-09-01 00:50:58 | 52.69237 | 11.00156 | 99° | 18km/h | 20432m | -17m/s | -52.4°C | 0% | 54.6hPa | 2.5V | 02:56:47 | 03:00:54 | 00:00:00 | |
| HSKMA3-T | 2026-09-01 00:50:58 | 52.69236 | 11.00164 | 99° | 22km/h | 20415m | -17.5m/s | -52.4°C | 0% | 54.8hPa | 2.5V | 02:56:47 | 03:00:55 | 00:00:00 | |
| DO2SHX-10 | 2026-09-01 00:50:58 | 52.69236 | 11.00164 | 99° | 18km/h | 20416m | -17.4m/s | -52.3°C | 3.2% | 54.7hPa | 2.5V | 02:56:00 | 03:00:55 | 00:00:00 | |
| TFSTFS | 2026-09-01 00:50:56 | 52.69237 | 11.00156 | 100° | 18km/h | 20432m | -17.0m/s | -52.4°C | 0.6% | 54.6hPa | 2.6V | 02:56:00 | 00:00:00 | 00:00:00 | |
| DL1XH1-15 | 2026-09-01 00:50:55 | 52.69238 | 11.00110 | 85° | 16km/h | 20546m | -16.6m/s | -52.7°C | 3.3% | 53.6hPa | 2.6V | 02:56:12 | 03:00:47 | 00:00:00 | |
| AA1-15 | 2026-09-01 00:50:54 | 52.69238 | 11.00123 | 87° | 15km/h | 20514m | -17.1m/s | -52.6°C | 0% | 53.9hPa | 2.5V | 02:56:47 | 03:00:49 | 00:00:00 | |
| DL1XH-west | 2026-09-01 00:50:53 | 52.69238 | 11.00129 | 90° | 16km/h | 20497m | -16.8m/s | -52.6°C | 0% | 54.1hPa | 2.5V | 02:56:47 | 03:00:50 | 00:00:00 | |
| BIOWL1-15 | 2026-09-01 00:50:50 | 52.69237 | 11.00110 | 85° | 16km/h | 20546m | -16.6m/s | -52.7°C | 0% | 53.6hPa | 2.6V | 02:56:47 | 03:00:47 | 00:00:00 | |
| GOEST3-10 | 2026-09-01 00:50:50 | 52.69237 | 11.00110 | 86° | 16km/h | 20547m | -16.6m/s | -52.7°C | 3.3% | 53.6hPa | 2.5V | 00:00:00 | 03:00:47 | 00:00:00 | |
| DL1NUX | 2026-09-01 00:50:49 | 52.69237 | 11.00090 | 90° | 16km/h | 20596m | -17m/s | -52.5°C | 3.3% | 53.2hPa | 2.5V | 02:56:15 | 03:00:44 | 00:00:00 | |
| HSKMA3-T | 2026-09-01 00:50:47 | 52.69237 | 11.00090 | 91° | 16km/h | 20596m | -17m/s | -52.6°C | 0% | 53.3hPa | 2.5V | 02:56:47 | 03:00:44 | 00:00:00 | |
| DL1XH-15 | 2026-09-01 00:50:47 | 52.69238 | 11.00072 | 90° | 13km/h | 20645m | -17.2m/s | -52.5°C | 3.2% | 52.9hPa | 2.6V | 02:56:18 | 03:00:41 | 00:00:00 | |
| SONDE2-11 | 2026-09-01 00:50:47 | 52.69238 | 11.00083 | 98° | 15km/h | 20612m | -16.7m/s | -52.5°C | 0.6% | 53.1hPa | 2.6V | 00:00:00 | 00:00:00 | 00:00:00 | |
| DM0DOS-11 | 2026-09-01 00:50:46 | 52.69239 | 11.00060 | 98° | 13km/h | 20678m | -16.6m/s | -52.5°C | 3.3% | 52.6hPa | 2.6V | 02:56:20 | 03:00:39 | 00:00:00 | |
| DO2SHX-10 | 2026-09-01 00:50:46 | 52.69238 | 11.00083 | 99° | 13km/h | 20613m | -16.6m/s | -52.4°C | 3.3% | 53.0hPa | 2.5V | 00:00:00 | 03:00:43 | 00:00:00 | |
| DL1XH1-15 | 2026-09-01 00:50:45 | 52.69239 | 11.00050 | 97° | 11km/h | 20711m | -17.4m/s | -52.5°C | 3.2% | 52.3hPa | 2.5V | 02:56:22 | 03:00:37 | 00:00:00 | |
| SMARD9-15 | 2026-09-01 00:50:45 | 52.69238 | 11.00072 | 90° | 11km/h | 20645m | -17.2m/s | -52.5°C | 0.5% | 52.9hPa | 2.5V | 00:00:00 | 00:00:00 | 00:00:00 | |
| AA1-15 | 2026-09-01 00:50:43 | 52.69239 | 11.00055 | 98° | 11km/h | 20694m | -16.9m/s | -52.5°C | 0% | 52.4hPa | 2.5V | 02:56:47 | 03:00:38 | 00:00:00 | |
| DL1XH-west | 2026-09-01 00:50:43 | 52.69239 | 11.00060 | 99° | 13km/h | 20678m | -16.6m/s | -52.5°C | 0% | 52.6hPa | 2.6V | 02:56:47 | 03:00:39 | 00:00:00 | |
| DL1NUX | 2026-09-01 00:50:42 | 52.69242 | 11.00033 | 114° | 15km/h | 20761m | -17m/s | -52.6°C | 3.3% | 51.9hPa | 2.6V | 02:56:25 | 03:00:34 | 00:00:00 | |
| DF8AY | 2026-09-01 00:50:38 | 52.69245 | 11.00025 | 126° | 11km/h | 20794m | -17.5m/s | -52.8°C | 0% | 51.6hPa | 2.5V | 02:56:47 | 03:00:32 | 00:00:00 | |
| DL1XH-15 | 2026-09-01 00:50:37 | 52.69247 | 11.00021 | 128° | 11km/h | 20811m | -17.4m/s | -52.8°C | 3.2% | 51.5hPa | 2.5V | 02:56:28 | 03:00:31 | 00:00:00 | |
| HSKMA3-T | 2026-09-01 00:50:36 | 52.69244 | 11.00029 | 121° | 11km/h | 20777m | -16.8m/s | -52.7°C | 0% | 51.7hPa | 2.6V | 02:56:47 | 03:00:33 | 00:00:00 | |
| DL1XH-west | 2026-09-01 00:50:32 | 52.69250 | 11.00015 | 124° | 9km/h | 20844m | -16.8m/s | -53°C | 0% | 51.2hPa | 2.6V | 02:56:47 | 03:00:29 | 00:00:00 | |
| AA1-15 | 2026-09-01 00:50:31 | 52.69252 | 11.00010 | 129° | 4km/h | 20878m | -17m/s | -53°C | 0% | 50.9hPa | 2.6V | 02:56:47 | 03:00:27 | 00:00:00 | |
| BIOWL1-15 | 2026-09-01 00:50:28 | 52.69231 | 11.00012 | 13° | 16km/h | 21117m | -16.9m/s | -53.3°C | 0% | 49.1hPa | 2.5V | 02:56:47 | 03:00:13 | 00:00:00 | |
| HSKMA3-T | 2026-09-01 00:50:26 | 52.69252 | 11.00004 | 38° | 4km/h | 20962m | -17.1m/s | -52.8°C | 0% | 50.3hPa | 2.6V | 02:56:47 | 03:00:22 | 00:00:00 | |
| DM0DOS-11 | 2026-09-01 00:50:26 | 52.69249 | 11.00005 | 323° | 7km/h | 21014m | -17.4m/s | -52.8°C | 3.2% | 49.9hPa | 2.5V | 02:56:40 | 03:00:19 | 00:00:00 | |
| DF7ER-10 | 2026-09-01 00:50:26 | 52.69252 | 11.00006 | 61° | 4km/h | 20946m | -17.1m/s | -52.9°C | 0.6% | 50.4hPa | 2.5V | 02:56:00 | 00:00:00 | 00:00:00 | |
| DO2SHX-10 | 2026-09-01 00:50:25 | 52.69252 | 11.00004 | 38° | 4km/h | 20962m | -17.0m/s | -52.8°C | 3.3% | 50.3hPa | 2.5V | 00:00:00 | 03:00:22 | 00:00:00 | |
| DO3MHA-11 | 2026-09-01 00:50:24 | 52.69251 | 11.00004 | 9° | 11km/h | 20980m | -17.5m/s | -52.8°C | 3.3% | 50.1hPa | 2.5V | 00:00:00 | 03:00:21 | 00:00:00 | |
| DD8BA-10 | 2026-09-01 00:50:23 | 52.69250 | 11.00004 | 345° | 13km/h | 20997m | -17.2m/s | -52.7°C | 3.3% | 50.0hPa | 2.5V | 00:00:00 | 00:00:00 | 00:00:00 | |
| DL1NUX | 2026-09-01 00:50:22 | 52.69235 | 11.00013 | 2° | 16km/h | 21100m | -17.2m/s | -53.2°C | 3.4% | 49.2hPa | 2.5V | 02:56:45 | 03:00:14 | 00:00:00 | |
| DL1XH-west | 2026-09-01 00:50:22 | 52.69249 | 11.00005 | 323° | 7km/h | 21014m | -17.4m/s | -52.8°C | 0% | 49.9hPa | 2.5V | 02:56:47 | 03:00:19 | 00:00:00 | |
| AA1-15 | 2026-09-01 00:50:20 | 52.69242 | 11.00011 | 341° | 15km/h | 21065m | -17.3m/s | -52.9°C | 0% | 49.5hPa | 2.6V | 02:56:47 | 03:00:16 | 00:00:00 | |
| GOEST3-10 | 2026-09-01 00:50:20 | 52.69245 | 11.00009 | 331° | 15km/h | 21048m | -17.3m/s | -52.8°C | 3.3% | 49.6hPa | 2.6V | 00:00:00 | 03:00:17 | 00:00:00 | |
| SONCRA | 2026-09-01 00:50:19 | 52.69239 | 11.00013 | 351° | 15km/h | 21083m | -17.4m/s | -53.0°C | 0.6% | 49.4hPa | 2.6V | 00:00:00 | 00:00:00 | 00:00:00 | |
| DL1XH-15 | 2026-09-01 00:50:18 | 52.69223 | 11.00007 | 30° | 16km/h | 21150m | -17.9m/s | -53.1°C | 3.5% | 48.8hPa | 2.6V | 02:56:48 | 03:00:11 | 00:00:00 | |
| DM0DOS-11 | 2026-09-01 00:50:17 | 52.69213 | 10.99992 | 56° | 18km/h | 21204m | -17.7m/s | -53.2°C | 3.5% | 48.5hPa | 2.5V | 02:56:51 | 03:00:08 | 00:00:00 | |
| DF8AY | 2026-09-01 00:50:15 | 52.69227 | 11.00010 | 22° | 18km/h | 21133m | -17.9m/s | -53.3°C | 0% | 49hPa | 2.5V | 02:56:47 | 03:00:12 | 00:00:00 | |
| HSKMA3-T | 2026-09-01 00:50:14 | 52.69224 | 11.00007 | 30° | 16km/h | 21151m | -17.9m/s | -53.1°C | 0% | 48.9hPa | 2.6V | 02:57:38 | 03:00:11 | 00:00:00 | |
| DL1XH-west | 2026-09-01 00:50:12 | 52.69214 | 10.99992 | 57° | 18km/h | 21204m | -17.7m/s | -53.2°C | 0% | 48.5hPa | 2.5V | 02:57:38 | 03:00:08 | 00:00:00 | |
| DL1NUX | 2026-09-01 00:50:12 | 52.69208 | 10.99968 | 81° | 13km/h | 21273m | -17.8m/s | -52.6°C | 3.3% | 47.9hPa | 2.6V | 02:56:55 | 03:00:04 | 00:00:00 | |
| DO2SHX-10 | 2026-09-01 00:50:10 | 52.69211 | 10.99986 | 64° | 15km/h | 21222m | -17.8m/s | -53.0°C | 3.5% | 48.3hPa | 2.5V | 00:00:00 | 03:00:07 | 00:00:00 | |
| DL1XH-15 | 2026-09-01 00:50:09 | 52.69208 | 10.99954 | 98° | 7km/h | 21326m | -18m/s | -52.5°C | 3.3% | 47.5hPa | 2.5V | 02:56:58 | 03:00:01 | 00:00:00 | |
| AA1-15 | 2026-09-01 00:50:09 | 52.69209 | 10.99973 | 75° | 15km/h | 21256m | -17.2m/s | -52.8°C | 0% | 48.1hPa | 2.6V | 02:57:38 | 03:00:05 | 00:00:00 | |
| BIOWL1-15 | 2026-09-01 00:50:07 | 52.69208 | 10.99968 | 82° | 13km/h | 21273m | -17.8m/s | -52.6°C | 0% | 47.9hPa | 2.6V | 02:57:38 | 03:00:04 | 00:00:00 | |
| DO2SHX-10 | 2026-09-01 00:50:07 | 52.69208 | 10.99968 | 82° | 11km/h | 21274m | -17.8m/s | -52.6°C | 3.3% | 47.9hPa | 2.6V | 00:00:00 | 03:00:04 | 00:00:00 | |
| DF8AY-15 | 2026-09-01 00:50:06 | 52.69208 | 10.99962 | 87° | 9km/h | 21291m | -17.7m/s | -52.5°C | 3.3% | 47.8hPa | 2.6V | 00:00:00 | 03:00:03 | 00:00:00 | |
| DL1XH1-15 | 2026-09-01 00:50:05 | 52.69211 | 10.99944 | 136° | 7km/h | 21396m | -17.4m/s | -52.5°C | 3.4% | 47hPa | 2.6V | 02:57:02 | 02:59:57 | 00:00:00 | |
| DM0DOS-11 | 2026-09-01 00:50:05 | 52.69209 | 10.99948 | 115° | 7km/h | 21362m | -17.7m/s | -52.6°C | 3.4% | 47.3hPa | 2.6V | 02:57:00 | 02:59:59 | 00:00:00 | |
| DF8AY | 2026-09-01 00:50:04 | 52.69208 | 10.99954 | 98° | 7km/h | 21326m | -18m/s | -52.5°C | 0% | 47.5hPa | 2.5V | 02:58:29 | 03:00:01 | 00:00:00 | |
| HSKMA3-T | 2026-09-01 00:50:03 | 52.69209 | 10.99951 | 109° | 7km/h | 21344m | -18.4m/s | -52.5°C | 0% | 47.4hPa | 2.5V | 02:57:38 | 03:00:00 | 00:00:00 | |
| DL1XH-west | 2026-09-01 00:50:00 | 52.69211 | 10.99944 | 137° | 7km/h | 21396m | -17.4m/s | -52.5°C | 0% | 47hPa | 2.6V | 02:57:38 | 02:59:57 | 00:00:00 | |
| DL1NUX | 2026-09-01 00:50:00 | 52.69215 | 10.99936 | 126° | 9km/h | 21448m | -18.1m/s | -52.2°C | 3.3% | 46.6hPa | 2.5V | 02:57:05 | 02:59:54 | 00:00:00 | |
| AA1-15 | 2026-09-01 00:49:58 | 52.69215 | 10.99936 | 126° | 9km/h | 21448m | -18.1m/s | -52.2°C | 0% | 46.6hPa | 2.5V | 02:57:38 | 02:59:54 | 00:00:00 | |
| DL1XH-15 | 2026-09-01 00:49:57 | 52.69219 | 10.99925 | 119° | 9km/h | 21502m | -18.2m/s | -51.9°C | 3.2% | 46.3hPa | 2.6V | 02:57:08 | 02:59:51 | 00:00:00 | |
| BIOWL1-15 | 2026-09-01 00:49:56 | 52.69219 | 10.99925 | 120° | 9km/h | 21502m | -18.2m/s | -51.9°C | 0% | 46.3hPa | 2.6V | 02:57:38 | 02:59:51 | 00:00:00 | |
| DL1XH1-15 | 2026-09-01 00:49:55 | 52.69224 | 10.99912 | 118° | 7km/h | 21576m | -18.7m/s | -51.7°C | 3.2% | 45.8hPa | 2.6V | 02:57:12 | 02:59:47 | 00:00:00 | |
| DF8AY | 2026-09-01 00:49:54 | 52.69220 | 10.99921 | 122° | 9km/h | 21520m | -18.8m/s | -51.8°C | 0% | 46.1hPa | 2.5V | 02:58:29 | 02:59:50 | 00:00:00 | |
| HSKMA3-T | 2026-09-01 00:49:53 | 52.69221 | 10.99918 | 124° | 9km/h | 21538m | -18.7m/s | -51.8°C | 0% | 46hPa | 2.5V | 02:57:38 | 02:59:49 | 00:00:00 | |
| DL1XH-west | 2026-09-01 00:49:50 | 52.69224 | 10.99912 | 118° | 7km/h | 21576m | -18.7m/s | -51.7°C | 0% | 45.8hPa | 2.6V | 02:57:38 | 02:59:47 | 00:00:00 | |
| SONCRA | 2026-09-01 00:49:48 | 52.69227 | 10.99903 | 105° | 7km/h | 21630m | -18.3m/s | -51.7°C | 0.5% | 45.4hPa | 2.6V | 00:00:00 | 00:00:00 | 00:00:00 | |
| DM0DOS-11 | 2026-09-01 00:49:47 | 52.69230 | 10.99893 | 122° | 2km/h | 21721m | -18.2m/s | -51.5°C | 3.1% | 44.7hPa | 2.6V | 02:57:20 | 02:59:39 | 00:00:00 | |
| AA1-15 | 2026-09-01 00:49:47 | 52.69227 | 10.99903 | 105° | 7km/h | 21630m | -18.3m/s | -51.7°C | 0% | 45.4hPa | 2.5V | 02:57:38 | 02:59:44 | 00:00:00 | |
| DL1XH1-15 | 2026-09-01 00:49:46 | 52.69230 | 10.99893 | 333° | 2km/h | 21758m | -19.1m/s | -51.5°C | 3.1% | 44.5hPa | 2.5V | 02:57:22 | 02:59:37 | 00:00:00 | |
| SONDE2-11 | 2026-09-01 00:49:45 | 52.69229 | 10.99896 | 117° | 4km/h | 21685m | -18.8m/s | -51.5°C | 0.5% | 45.0hPa | 2.6V | 00:00:00 | 00:00:00 | 00:00:00 | |
| DF8AY | 2026-09-01 00:49:43 | 52.69229 | 10.99894 | 126° | 4km/h | 21703m | -18.6m/s | -51.5°C | 0% | 44.9hPa | 2.6V | 02:58:29 | 02:59:40 | 00:00:00 | |
| HSKMA3-T | 2026-09-01 00:49:43 | 52.69230 | 10.99893 | 123° | 2km/h | 21721m | -18.2m/s | -51.5°C | 0% | 44.7hPa | 2.6V | 02:57:38 | 02:59:39 | 00:00:00 | |
| SMARD9-15 | 2026-09-01 00:49:43 | 52.69230 | 10.99893 | 122° | 2km/h | 21721m | -18.2m/s | -51.5°C | 0.5% | 44.7hPa | 2.6V | 00:00:00 | 00:00:00 | 00:00:00 | |
| DL1NUX | 2026-09-01 00:49:42 | 52.69227 | 10.99893 | 10° | 2km/h | 21815m | -19.2m/s | -51.6°C | 3.1% | 44.1hPa | 2.6V | 02:57:25 | 02:59:34 | 00:00:00 | |
| BIOWL1-15 | 2026-09-01 00:49:40 | 52.69226 | 10.99892 | 11° | 4km/h | 21852m | -18.3m/s | -51.6°C | 0% | 43.8hPa | 2.5V | 02:57:38 | 02:59:32 | 00:00:00 | |
| DL1XH-west | 2026-09-01 00:49:39 | 52.69229 | 10.99893 | 345° | 4km/h | 21777m | -19.2m/s | -51.5°C | 0% | 44.4hPa | 2.5V | 02:57:38 | 02:59:36 | 00:00:00 | |
| AA1-15 | 2026-09-01 00:49:36 | 52.69227 | 10.99892 | 11° | 4km/h | 21834m | -18.9m/s | -51.6°C | 0% | 43.9hPa | 2.6V | 02:57:38 | 02:59:33 | 00:00:00 | |
| DM0DOS-11 | 2026-09-01 00:49:35 | 52.69223 | 10.99890 | 354° | 5km/h | 21907m | -19.1m/s | -51.7°C | 3.2% | 43.5hPa | 2.6V | 02:57:30 | 02:59:29 | 00:00:00 | |
| DL1XH-15 | 2026-09-01 00:49:35 | 52.69225 | 10.99891 | 13° | 4km/h | 21870m | -18.8m/s | -51.6°C | 3.2% | 43.7hPa | 2.5V | 02:57:28 | 02:59:31 | 00:00:00 | |
| GOEST3-10 | 2026-09-01 00:49:35 | 52.69226 | 10.99892 | 11° | 4km/h | 21853m | -18.3m/s | -51.6°C | 3.1% | 43.8hPa | 2.5V | 00:00:00 | 00:00:00 | 00:00:00 | |
| DO3MHA-11 | 2026-09-01 00:49:34 | 52.69225 | 10.99891 | 14° | 7km/h | 21871m | -18.8m/s | -51.6°C | 3.2% | 43.7hPa | 2.5V | 00:00:00 | 02:59:31 | 00:00:00 | |
| DD8BA-10 | 2026-09-01 00:49:33 | 52.69224 | 10.99890 | 355° | 7km/h | 21889m | -18.9m/s | -51.7°C | 3.2% | 43.6hPa | 2.5V | 00:00:00 | 00:00:00 | 00:00:00 | |
| DL1NUX | 2026-09-01 00:49:32 | 52.69215 | 10.99889 | 357° | 9km/h | 22000m | -19.3m/s | -51.3°C | 3.1% | 42.8hPa | 2.5V | 02:57:35 | 02:59:24 | 00:00:00 | |
| DF8AY | 2026-09-01 00:49:31 | 52.69222 | 10.99890 | 351° | 4km/h | 21926m | -19.3m/s | -51.5°C | 0% | 43.4hPa | 2.5V | 02:58:29 | 02:59:28 | 00:00:00 | |
| DO2SHX-10 | 2026-09-01 00:49:31 | 52.69222 | 10.99890 | 352° | 5km/h | 21926m | -19.2m/s | -51.5°C | 3.1% | 43.3hPa | 2.6V | 00:00:00 | 02:59:28 | 00:00:00 | |
| GOEST3-10 | 2026-09-01 00:49:30 | 52.69221 | 10.99890 | 354° | 7km/h | 21945m | -18.6m/s | -51.4°C | 3.1% | 43.2hPa | 2.6V | 00:00:00 | 02:59:27 | 00:00:00 | |
| DL1XH-15 | 2026-09-01 00:49:29 | 52.69206 | 10.99887 | 4° | 15km/h | 22057m | -19.2m/s | -51°C | 3% | 42.4hPa | 2.6V | 02:57:38 | 02:59:21 | 00:00:00 | |
| DL1XH-west | 2026-09-01 00:49:28 | 52.69217 | 10.99889 | 356° | 7km/h | 21981m | -18.9m/s | -51.3°C | 0% | 43hPa | 2.6V | 02:57:38 | 02:59:25 | 00:00:00 | |
| AA1-15 | 2026-09-01 00:49:26 | 52.69210 | 10.99888 | 2° | 15km/h | 22038m | -19.4m/s | -51.1°C | 0% | 42.6hPa | 2.6V | 02:57:38 | 02:59:22 | 00:00:00 | |
| DL1XH1-15 | 2026-09-01 00:49:25 | 52.69186 | 10.99882 | 8° | 24km/h | 22132m | -20.1m/s | -51.2°C | 3.1% | 42hPa | 2.6V | 02:57:42 | 02:59:17 | 00:00:00 | |
| DO2SHX-10 | 2026-09-01 00:49:25 | 52.69210 | 10.99888 | 3° | 16km/h | 22038m | -19.4m/s | -51.0°C | 3.0% | 42.5hPa | 2.5V | 00:00:00 | 02:59:22 | 00:00:00 | |
| DO3MHA-11 | 2026-09-01 00:49:24 | 52.69206 | 10.99887 | 5° | 22km/h | 22057m | -19.1m/s | -50.9°C | 3.0% | 42.4hPa | 2.5V | 00:00:00 | 02:59:21 | 00:00:00 | |
| DD8BA-10 | 2026-09-01 00:49:23 | 52.69202 | 10.99886 | 7° | 22km/h | 22075m | -19.4m/s | -50.9°C | 3.0% | 42.3hPa | 2.5V | 00:00:00 | 00:00:00 | 00:00:00 | |
| DL1NUX | 2026-09-01 00:49:22 | 52.69169 | 10.99878 | 10° | 24km/h | 22191m | -20.3m/s | -51.3°C | 3% | 41.6hPa | 2.5V | 02:57:45 | 02:59:14 | 00:00:00 | |
| DF8AY | 2026-09-01 00:49:20 | 52.69186 | 10.99882 | 8° | 24km/h | 22132m | -20.1m/s | -51.2°C | 0% | 42hPa | 2.6V | 02:58:29 | 02:59:17 | 00:00:00 | |
| DL1XH-west | 2026-09-01 00:49:18 | 52.69169 | 10.99878 | 10° | 24km/h | 22191m | -20.3m/s | -51.3°C | 0% | 41.6hPa | 2.5V | 02:58:29 | 02:59:14 | 00:00:00 | |
| SONCRA | 2026-09-01 00:49:17 | 52.69163 | 10.99876 | 13° | 22km/h | 22211m | -21.0m/s | -51.2°C | 0.5% | 41.5hPa | 2.5V | 00:00:00 | 00:00:00 | 00:00:00 | |
| DO2SHX-10 | 2026-09-01 00:49:16 | 52.69163 | 10.99875 | 14° | 22km/h | 22211m | -21.0m/s | -51.2°C | 3.0% | 41.4hPa | 2.5V | 00:00:00 | 02:59:13 | 00:00:00 | |
| DL1XH1-15 | 2026-09-01 00:49:15 | 52.69139 | 10.99853 | 61° | 13km/h | 22332m | -19.6m/s | -51.3°C | 3.1% | 40.7hPa | 2.5V | 02:57:52 | 02:59:07 | 00:00:00 | |
| AA1-15 | 2026-09-01 00:49:14 | 52.69152 | 10.99870 | 23° | 20km/h | 22252m | -20.7m/s | -51.3°C | 0% | 41.2hPa | 2.6V | 02:58:29 | 02:59:11 | 00:00:00 | |
| DO3MHA-11 | 2026-09-01 00:49:14 | 52.69152 | 10.99870 | 24° | 16km/h | 22252m | -20.6m/s | -51.2°C | 3.0% | 41.2hPa | 2.6V | 02:57:00 | 02:59:11 | 00:00:00 | |
| DF7PN | 2026-09-01 00:49:13 | 52.69144 | 10.99862 | 38° | 16km/h | 22292m | -20.5m/s | -51.4°C | 0.5% | 41.0hPa | 2.6V | 00:00:00 | 00:00:00 | 00:00:00 | |
| DL1NUX | 2026-09-01 00:49:12 | 52.69137 | 10.99838 | 99° | 11km/h | 22388m | -19.3m/s | -51.2°C | 3.1% | 40.3hPa | 2.6V | 02:57:55 | 02:59:04 | 00:00:00 | |
| BIOWL1-15 | 2026-09-01 00:49:11 | 52.69137 | 10.99838 | 100° | 11km/h | 22388m | -19.3m/s | -51.2°C | 0% | 40.3hPa | 2.6V | 02:58:29 | 02:59:04 | 00:00:00 | |
| DF8AY | 2026-09-01 00:49:10 | 52.69139 | 10.99853 | 62° | 13km/h | 22332m | -19.6m/s | -51.3°C | 0% | 40.7hPa | 2.5V | 02:58:29 | 02:59:07 | 00:00:00 | |
| HSKMA3-T | 2026-09-01 00:49:09 | 52.69137 | 10.99848 | 74° | 13km/h | 22351m | -19.5m/s | -51.3°C | 0% | 40.6hPa | 2.6V | 02:58:29 | 02:59:06 | 00:00:00 | |
| TFSTFS | 2026-09-01 00:49:09 | 52.69137 | 10.99848 | 75° | 13km/h | 22351m | -19.5m/s | -51.3°C | 0.5% | 40.6hPa | 2.5V | 02:58:00 | 00:00:00 | 00:00:00 | |
| DL1XH-15 | 2026-09-01 00:49:07 | 52.69139 | 10.99830 | 170° | 4km/h | 22445m | -19.9m/s | -51.3°C | 3% | 40hPa | 2.5V | 02:57:58 | 02:59:01 | 00:00:00 | |
| DL1XH-west | 2026-09-01 00:49:06 | 52.69138 | 10.99834 | 110° | 9km/h | 22407m | -19.2m/s | -51.2°C | 0% | 40.2hPa | 2.5V | 02:58:29 | 02:59:03 | 00:00:00 | |
| DF8AY-15 | 2026-09-01 00:49:06 | 52.69138 | 10.99834 | 110° | 11km/h | 22408m | -19.1m/s | -51.2°C | 3.0% | 40.2hPa | 2.5V | 00:00:00 | 02:59:03 | 00:00:00 | |
| DL1XH1-15 | 2026-09-01 00:49:05 | 52.69139 | 10.99836 | 310° | 11km/h | 22521m | -19.9m/s | -51.4°C | 3% | 39.5hPa | 2.5V | 02:58:02 | 02:58:57 | 00:00:00 | |
| AA1-15 | 2026-09-01 00:49:03 | 52.69140 | 10.99830 | 231° | 2km/h | 22464m | -19.1m/s | -51.4°C | 0% | 39.9hPa | 2.6V | 02:58:29 | 02:59:00 | 00:00:00 | |
| DM0DOS-11 | 2026-09-01 00:49:03 | 52.69141 | 10.99831 | 278° | 4km/h | 22483m | -19.6m/s | -51.5°C | 3.1% | 39.7hPa | 2.6V | 02:58:00 | 02:58:59 | 00:00:00 | |
| DD8BA-10 | 2026-09-01 00:49:03 | 52.69140 | 10.99830 | 232° | 11km/h | 22465m | -19.1m/s | -51.3°C | 3.1% | 39.8hPa | 2.6V | 00:00:00 | 00:00:00 | 00:00:00 | |
| DL1NUX | 2026-09-01 00:49:02 | 52.69133 | 10.99846 | 315° | 15km/h | 22580m | -20.6m/s | -51.1°C | 3% | 39.2hPa | 2.6V | 02:58:05 | 02:58:54 | 00:00:00 | |
| DF8AY | 2026-09-01 00:48:59 | 52.69138 | 10.99839 | 314° | 11km/h | 22541m | -20.3m/s | -51.3°C | 0% | 39.4hPa | 2.5V | 02:58:29 | 02:58:56 | 00:00:00 | |
| HSKMA3-T | 2026-09-01 00:48:58 | 52.69136 | 10.99842 | 319° | 13km/h | 22560m | -20.1m/s | -51.2°C | 0% | 39.3hPa | 2.5V | 02:58:29 | 02:58:55 | 00:00:00 | |
| DO2SHX-10 | 2026-09-01 00:48:58 | 52.69136 | 10.99842 | 319° | 15km/h | 22561m | -20.1m/s | -51.2°C | 3.0% | 39.2hPa | 2.5V | 00:00:00 | 02:58:55 | 00:00:00 | |
| DL1XH-15 | 2026-09-01 00:48:57 | 52.69126 | 10.99859 | 313° | 15km/h | 22639m | -19.4m/s | -51°C | 2.9% | 38.8hPa | 2.5V | 02:58:08 | 02:58:51 | 00:00:00 | |
| DL1XH-west | 2026-09-01 00:48:56 | 52.69131 | 10.99850 | 318° | 15km/h | 22600m | -19.7m/s | -51°C | 0% | 39hPa | 2.6V | 02:58:29 | 02:58:53 | 00:00:00 | |
| AA1-15 | 2026-09-01 00:48:53 | 52.69123 | 10.99864 | 314° | 15km/h | 22658m | -19.6m/s | -51°C | 0% | 38.7hPa | 2.5V | 02:58:29 | 02:58:50 | 00:00:00 | |
| DM0DOS-11 | 2026-09-01 00:48:53 | 52.69121 | 10.99868 | 310° | 15km/h | 22677m | -20m/s | -50.9°C | 2.8% | 38.6hPa | 2.5V | 02:58:10 | 02:58:49 | 00:00:00 | |
| DD8BA-10 | 2026-09-01 00:48:53 | 52.69123 | 10.99864 | 314° | 13km/h | 22659m | -19.6m/s | -50.9°C | 2.9% | 38.6hPa | 2.5V | 00:00:00 | 00:00:00 | 00:00:00 | |
| DO2SHX-10 | 2026-09-01 00:48:52 | 52.69121 | 10.99868 | 311° | 13km/h | 22678m | -19.9m/s | -50.8°C | 2.8% | 38.6hPa | 2.5V | 02:58:00 | 02:58:49 | 00:00:00 | |
| DO3MHA-11 | 2026-09-01 00:48:50 | 52.69117 | 10.99877 | 307° | 13km/h | 22716m | -19.3m/s | -51.0°C | 2.9% | 38.3hPa | 2.5V | 00:00:00 | 02:58:47 | 00:00:00 | |
| DO2SHX-10 | 2026-09-01 00:48:49 | 52.69115 | 10.99881 | 305° | 13km/h | 22735m | -19.1m/s | -51.1°C | 2.9% | 38.2hPa | 2.5V | 00:00:00 | 02:58:46 | 00:00:00 | |
| DL1XH-15 | 2026-09-01 00:48:48 | 52.69105 | 10.99898 | 320° | 13km/h | 22831m | -19.4m/s | -51.5°C | 3% | 37.7hPa | 2.5V | 02:58:18 | 02:58:41 | 00:00:00 | |
| BIOWL1-15 | 2026-09-01 00:48:48 | 52.69111 | 10.99888 | 315° | 13km/h | 22774m | -20.2m/s | -51.4°C | 0% | 38hPa | 2.5V | 02:58:29 | 02:58:44 | 00:00:00 | |
| DL1XH-west | 2026-09-01 00:48:45 | 52.69107 | 10.99895 | 317° | 13km/h | 22812m | -19m/s | -51.5°C | 0% | 37.8hPa | 2.6V | 02:58:29 | 02:58:42 | 00:00:00 | |
| AA1-15 | 2026-09-01 00:48:43 | 52.69100 | 10.99903 | 337° | 13km/h | 22871m | -19.8m/s | -51.7°C | 0% | 37.5hPa | 2.6V | 02:58:29 | 02:58:39 | 00:00:00 | |
| SP3WXH-11 | 2026-09-01 00:48:43 | 52.69097 | 10.99905 | 345° | 13km/h | 22890m | -19.1m/s | -51.8°C | 0.5% | 37.4hPa | 2.6V | 00:00:00 | 00:00:00 | 00:00:00 | |
| DL1NUX | 2026-09-01 00:48:42 | 52.69084 | 10.99903 | 19° | 13km/h | 22968m | -19.4m/s | -51.9°C | 3.1% | 36.9hPa | 2.6V | 02:58:25 | 02:58:34 | 00:00:00 | |
| DO2SHX-10 | 2026-09-01 00:48:40 | 52.69093 | 10.99906 | 355° | 13km/h | 22909m | -19.5m/s | -51.8°C | 3.2% | 37.2hPa | 2.5V | 00:00:00 | 02:58:37 | 00:00:00 | |
| DF7ER-10 | 2026-09-01 00:48:39 | 52.69090 | 10.99906 | 2° | 13km/h | 22928m | -20.1m/s | -51.9°C | 0.5% | 37.1hPa | 2.5V | 02:58:00 | 00:00:00 | 00:00:00 | |
| DL1XH-15 | 2026-09-01 00:48:38 | 52.69075 | 10.99895 | 32° | 13km/h | 23026m | -20.5m/s | -52.2°C | 3.1% | 36.6hPa | 2.5V | 02:58:28 | 02:58:31 | 00:00:00 | |
| HSKMA3-T | 2026-09-01 00:48:37 | 52.69084 | 10.99903 | 19° | 13km/h | 22968m | -19.4m/s | -51.9°C | 0% | 36.9hPa | 2.6V | 02:58:29 | 02:58:34 | 00:00:00 | |
| BIOWL1-15 | 2026-09-01 00:48:36 | 52.69078 | 10.99898 | 30° | 13km/h | 23006m | -19.8m/s | -52.1°C | 0% | 36.7hPa | 2.5V | 02:58:29 | 02:58:32 | 00:00:00 | |
| DL1XH-west | 2026-09-01 00:48:34 | 52.69075 | 10.99895 | 32° | 13km/h | 23026m | -20.5m/s | -52.2°C | 0% | 36.6hPa | 2.5V | 02:58:29 | 02:58:31 | 00:00:00 | |
| DO2SHX-10 | 2026-09-01 00:48:34 | 52.69075 | 10.99895 | 33° | 13km/h | 23026m | -20.5m/s | -52.2°C | 3.1% | 36.6hPa | 2.5V | 02:58:00 | 02:58:31 | 00:00:00 | |
| DD8BA-10 | 2026-09-01 00:48:33 | 52.69073 | 10.99892 | 40° | 11km/h | 23046m | -19.4m/s | -52.3°C | 3.2% | 36.4hPa | 2.6V | 00:00:00 | 00:00:00 | 00:00:00 | |
| DL1XH1-15 | 2026-09-01 00:48:32 | 52.69067 | 10.99879 | 74° | 11km/h | 23104m | -21.1m/s | -52.5°C | 3.2% | 36.1hPa | 2.6V | 02:58:32 | 02:58:27 | 00:00:00 | |
| DL1NUX | 2026-09-01 00:48:32 | 52.69067 | 10.99866 | 115° | 9km/h | 23163m | -19.9m/s | -52.5°C | 3.2% | 35.8hPa | 2.5V | 02:58:35 | 02:58:24 | 00:00:00 | |
| AA1-15 | 2026-09-01 00:48:32 | 52.69068 | 10.99884 | 60° | 13km/h | 23084m | -20.1m/s | -52.5°C | 0% | 36.2hPa | 2.6V | 02:59:20 | 02:58:28 | 00:00:00 | |
| DF8AY | 2026-09-01 00:48:28 | 52.69067 | 10.99866 | 116° | 9km/h | 23163m | -20m/s | -52.5°C | 0% | 35.8hPa | 2.5V | 02:59:20 | 02:58:24 | 00:00:00 | |
| DL1XH-15 | 2026-09-01 00:48:27 | 52.69072 | 10.99857 | 142° | 9km/h | 23221m | -19.7m/s | -52.6°C | 3.2% | 35.5hPa | 2.6V | 02:58:38 | 02:58:21 | 00:00:00 | |
| HSKMA3-T | 2026-09-01 00:48:26 | 52.69069 | 10.99863 | 123° | 9km/h | 23182m | -20.1m/s | -52.5°C | 0% | 35.7hPa | 2.6V | 02:59:20 | 02:58:23 | 00:00:00 | |
| BIOWL1-15 | 2026-09-01 00:48:26 | 52.69070 | 10.99860 | 133° | 9km/h | 23202m | -19.4m/s | -52.5°C | 0% | 35.6hPa | 2.6V | 02:59:20 | 02:58:22 | 00:00:00 | |
| DL1XH-west | 2026-09-01 00:48:24 | 52.69072 | 10.99857 | 143° | 9km/h | 23221m | -19.7m/s | -52.6°C | 0% | 35.5hPa | 2.6V | 02:59:20 | 02:58:21 | 00:00:00 | |
| MECKS9 | 2026-09-01 00:48:23 | 52.69071 | 10.99857 | 143° | 9km/h | 23221m | -19.7m/s | -52.6°C | 0.5% | 35.5hPa | 2.5V | 00:00:00 | 00:00:00 | 00:00:00 | |
| DL1NUX | 2026-09-01 00:48:22 | 52.69082 | 10.99846 | 173° | 4km/h | 23361m | -20.7m/s | -53°C | 3.3% | 34.7hPa | 2.5V | 02:58:45 | 02:58:14 | 00:00:00 | |
| DO2SHX-10 | 2026-09-01 00:48:22 | 52.69075 | 10.99852 | 150° | 7km/h | 23261m | -20.9m/s | -52.6°C | 3.2% | 35.2hPa | 2.6V | 00:00:00 | 02:58:19 | 00:00:00 | |
| DL1XH1-15 | 2026-09-01 00:48:21 | 52.69079 | 10.99849 | 146° | 7km/h | 23301m | -19.8m/s | -52.9°C | 3.3% | 35hPa | 2.6V | 02:58:42 | 02:58:17 | 00:00:00 | |
| AA1-15 | 2026-09-01 00:48:20 | 52.69079 | 10.99849 | 146° | 7km/h | 23301m | -19.8m/s | -52.9°C | 0% | 35hPa | 2.6V | 02:59:20 | 02:58:17 | 00:00:00 | |
| DF8AY | 2026-09-01 00:48:17 | 52.69082 | 10.99846 | 173° | 4km/h | 23361m | -20.7m/s | -53°C | 0% | 34.7hPa | 2.5V | 02:59:20 | 02:58:14 | 00:00:00 | |
| HSKMA3-T | 2026-09-01 00:48:16 | 52.69083 | 10.99846 | 203° | 4km/h | 23381m | -20m/s | -53.1°C | 0% | 34.6hPa | 2.5V | 02:59:20 | 02:58:13 | 00:00:00 | |
| DO2SHX-10 | 2026-09-01 00:48:16 | 52.69083 | 10.99846 | 203° | 5km/h | 23382m | -19.9m/s | -53.0°C | 3.4% | 34.6hPa | 2.5V | 02:58:00 | 02:58:13 | 00:00:00 | |
| DL1XH1-15 | 2026-09-01 00:48:15 | 52.69085 | 10.99858 | 290° | 5km/h | 23501m | -20.5m/s | -53.3°C | 3.5% | 34hPa | 2.6V | 02:58:52 | 02:58:07 | 00:00:00 | |
| BIOWL1-15 | 2026-09-01 00:48:15 | 52.69075 | 10.99860 | 26° | 4km/h | 23644m | -20.9m/s | -53°C | 0% | 33.2hPa | 2.6V | 02:59:20 | 02:58:00 | 00:00:00 | |
| DL1XH-west | 2026-09-01 00:48:13 | 52.69085 | 10.99851 | 256° | 7km/h | 23442m | -20.8m/s | -53.2°C | 0% | 34.3hPa | 2.5V | 02:59:20 | 02:58:10 | 00:00:00 | |
| DM0DOS-11 | 2026-09-01 00:48:13 | 52.69085 | 10.99853 | 266° | 7km/h | 23461m | -20m/s | -53.3°C | 3.4% | 34.2hPa | 2.5V | 02:58:50 | 02:58:09 | 00:00:00 | |
| AA1-15 | 2026-09-01 00:48:09 | 52.69084 | 10.99860 | 316° | 5km/h | 23522m | -21.2m/s | -53.3°C | 0% | 33.8hPa | 2.6V | 02:59:20 | 02:58:06 | 00:00:00 | |
| DF8AY | 2026-09-01 00:48:07 | 52.69081 | 10.99862 | 359° | 7km/h | 23562m | -20.2m/s | -53.3°C | 0% | 33.6hPa | 2.5V | 02:59:20 | 02:58:04 | 00:00:00 | |
| HSKMA3-T | 2026-09-01 00:48:06 | 52.69080 | 10.99862 | 12° | 7km/h | 23582m | -20.3m/s | -53.2°C | 0% | 33.5hPa | 2.5V | 02:59:20 | 02:58:03 | 00:00:00 | |
| DF8AY-15 | 2026-09-01 00:48:06 | 52.69080 | 10.99862 | 12° | 7km/h | 23583m | -20.2m/s | -53.2°C | 3.5% | 33.5hPa | 2.6V | 00:00:00 | 02:58:03 | 00:00:00 | |
| DL1XH-15 | 2026-09-01 00:48:05 | 52.69077 | 10.99860 | 17° | 5km/h | 23623m | -21.1m/s | -53.1°C | 3.5% | 33.3hPa | 2.6V | 02:58:58 | 02:58:01 | 00:00:00 | |
| GOEST3-10 | 2026-09-01 00:48:05 | 52.69078 | 10.99861 | 16° | 4km/h | 23603m | -21.2m/s | -53.1°C | 3.5% | 33.4hPa | 2.5V | 00:00:00 | 00:00:00 | 00:00:00 | |
| DO2SHX-10 | 2026-09-01 00:48:04 | 52.69076 | 10.99860 | 18° | 4km/h | 23623m | -21.1m/s | -53.1°C | 3.5% | 33.3hPa | 2.5V | 00:00:00 | 02:58:01 | 00:00:00 | |
| DM0DOS-11 | 2026-09-01 00:48:03 | 52.69075 | 10.99859 | 84° | 2km/h | 23664m | -20.4m/s | -53°C | 3.5% | 33.1hPa | 2.5V | 02:59:00 | 02:57:59 | 00:00:00 | |
| DL1XH-west | 2026-09-01 00:48:02 | 52.69075 | 10.99859 | 84° | 2km/h | 23664m | -20.4m/s | -53°C | 0% | 33.1hPa | 2.5V | 02:59:20 | 02:57:59 | 00:00:00 | |
| DL1NUX | 2026-09-01 00:48:02 | 52.69080 | 10.99864 | 218° | 7km/h | 23765m | -20.6m/s | -52.5°C | 3.3% | 32.6hPa | 2.6V | 02:59:05 | 02:57:54 | 00:00:00 | |
| DL3AQ-11 | 2026-09-01 00:48:02 | 52.69075 | 10.99859 | 196° | 2km/h | 23684m | -20.6m/s | -52.9°C | 0.6% | 33.0hPa | 2.5V | 00:00:00 | 00:00:00 | 00:00:00 | |
| DO2SHX-10 | 2026-09-01 00:48:01 | 52.69075 | 10.99859 | 197° | 4km/h | 23684m | -20.6m/s | -52.8°C | 3.5% | 33.0hPa | 2.5V | 00:00:00 | 02:57:58 | 00:00:00 | |
| GOEST3-10 | 2026-09-01 00:48:00 | 52.69076 | 10.99860 | 208° | 7km/h | 23705m | -21.0m/s | -52.7°C | 3.4% | 32.9hPa | 2.5V | 00:00:00 | 02:57:57 | 00:00:00 | |
| DL1XH-15 | 2026-09-01 00:47:59 | 52.69083 | 10.99872 | 265° | 9km/h | 23828m | -21.1m/s | -52.6°C | 3.4% | 32.3hPa | 2.5V | 02:59:08 | 02:57:51 | 00:00:00 | |
| AA1-15 | 2026-09-01 00:47:58 | 52.69078 | 10.99862 | 216° | 7km/h | 23745m | -19.9m/s | -52.5°C | 0% | 32.7hPa | 2.6V | 02:59:20 | 02:57:55 | 00:00:00 | |
| HSKMA3-T | 2026-09-01 00:47:56 | 52.69082 | 10.99869 | 250° | 9km/h | 23806m | -22.3m/s | -52.6°C | 0% | 32.4hPa | 2.5V | 02:59:20 | 02:57:52 | 00:00:00 | |
| DL1XH1-15 | 2026-09-01 00:47:55 | 52.69082 | 10.99883 | 283° | 7km/h | 23912m | -21.7m/s | -52.6°C | 3.4% | 31.9hPa | 2.5V | 02:59:12 | 02:57:47 | 00:00:00 | |
| BIOWL1-15 | 2026-09-01 00:47:52 | 52.69083 | 10.99877 | 289° | 5km/h | 23869m | -21.4m/s | -52.7°C | 0% | 32.1hPa | 2.6V | 02:59:20 | 02:57:49 | 00:00:00 | |
| DL1NUX | 2026-09-01 00:47:52 | 52.69081 | 10.99891 | 259° | 11km/h | 23975m | -22.5m/s | -52.4°C | 3.4% | 31.6hPa | 2.6V | 02:59:15 | 02:57:44 | 00:00:00 | |
| DL1XH-west | 2026-09-01 00:47:52 | 52.69083 | 10.99880 | 293° | 9km/h | 23890m | -22.2m/s | -52.6°C | 0% | 32hPa | 2.6V | 02:59:20 | 02:57:48 | 00:00:00 | |
| AA1-15 | 2026-09-01 00:47:47 | 52.69081 | 10.99891 | 259° | 11km/h | 23975m | -22.5m/s | -52.4°C | 0% | 31.6hPa | 2.6V | 02:59:20 | 02:57:44 | 00:00:00 | |
| DM0DOS-11 | 2026-09-01 00:47:47 | 52.69090 | 10.99918 | 246° | 16km/h | 24105m | -21.9m/s | -51.8°C | 3.2% | 30.9hPa | 2.5V | 02:59:21 | 02:57:38 | 00:00:00 | |
| HSKMA3-T | 2026-09-01 00:47:45 | 52.69083 | 10.99899 | 247° | 11km/h | 24019m | -21.7m/s | -52.1°C | 0% | 31.4hPa | 2.5V | 02:59:20 | 02:57:42 | 00:00:00 | |
| DL1XH1-15 | 2026-09-01 00:47:45 | 52.69093 | 10.99929 | 251° | 11km/h | 24148m | -22.4m/s | -51.7°C | 3.3% | 30.8hPa | 2.5V | 02:59:23 | 02:57:36 | 00:00:00 | |
| DF8AY | 2026-09-01 00:47:44 | 52.69084 | 10.99903 | 244° | 15km/h | 24039m | -21.5m/s | -51.9°C | 0% | 31.3hPa | 2.6V | 02:59:20 | 02:57:41 | 00:00:00 | |
| DL1XH-west | 2026-09-01 00:47:42 | 52.69092 | 10.99924 | 242° | 15km/h | 24126m | -21.9m/s | -51.8°C | 0% | 30.9hPa | 2.5V | 03:00:11 | 02:57:37 | 00:00:00 | |
| TFSTFS | 2026-09-01 00:47:41 | 52.69088 | 10.99913 | 241° | 15km/h | 24083m | -22.7m/s | -51.8°C | 0.5% | 31.1hPa | 2.5V | 02:59:00 | 00:00:00 | 00:00:00 | |
| DL1XH-15 | 2026-09-01 00:47:40 | 52.69094 | 10.99949 | 265° | 7km/h | 24258m | -22.6m/s | -51.6°C | 3.2% | 30.2hPa | 2.5V | 02:59:28 | 02:57:31 | 00:00:00 | |
| AA1-15 | 2026-09-01 00:47:36 | 52.69094 | 10.99942 | 265° | 9km/h | 24214m | -22m/s | -51.5°C | 0% | 30.4hPa | 2.6V | 03:00:11 | 02:57:33 | 00:00:00 | |
| DM0DOS-11 | 2026-09-01 00:47:35 | 52.69094 | 10.99955 | 282° | 5km/h | 24302m | -22.1m/s | -51.5°C | 3.2% | 30hPa | 2.6V | 02:59:30 | 02:57:29 | 00:00:00 | |
| HSKMA3-T | 2026-09-01 00:47:35 | 52.69094 | 10.99946 | 279° | 11km/h | 24236m | -22.4m/s | -51.5°C | 0% | 30.3hPa | 2.5V | 03:00:11 | 02:57:32 | 00:00:00 | |
| DF8AY | 2026-09-01 00:47:34 | 52.69094 | 10.99952 | 276° | 7km/h | 24280m | -22.6m/s | -51.6°C | 0% | 30.1hPa | 2.5V | 03:00:11 | 02:57:30 | 00:00:00 | |
| DL1NUX | 2026-09-01 00:47:33 | 52.69085 | 10.99954 | 10° | 15km/h | 24410m | -22.7m/s | -51.2°C | 3.2% | 29.5hPa | 2.6V | 02:59:35 | 02:57:24 | 00:00:00 | |
| DL1XH-west | 2026-09-01 00:47:31 | 52.69090 | 10.99957 | 14° | 7km/h | 24367m | -22.5m/s | -51.3°C | 0% | 29.7hPa | 2.5V | 03:00:11 | 02:57:26 | 00:00:00 | |
| BIOWL1-15 | 2026-09-01 00:47:28 | 52.69088 | 10.99955 | 15° | 13km/h | 24389m | -22.4m/s | -51.2°C | 0% | 29.6hPa | 2.5V | 03:01:53 | 02:57:25 | 00:00:00 | |
| HSKMA3-T | 2026-09-01 00:47:25 | 52.69077 | 10.99949 | 18° | 18km/h | 24455m | -23.1m/s | -51.2°C | 0% | 29.3hPa | 2.5V | 03:00:11 | 02:57:22 | 00:00:00 | |
| DO2SHX-10 | 2026-09-01 00:47:25 | 52.69077 | 10.99949 | 19° | 18km/h | 24455m | -23.1m/s | -51.2°C | 3.1% | 29.2hPa | 2.5V | 00:00:00 | 02:57:22 | 00:00:00 | |
| GOEST3-10 | 2026-09-01 00:47:24 | 52.69073 | 10.99945 | 32° | 18km/h | 24478m | -23.0m/s | -51.1°C | 3.1% | 29.2hPa | 2.5V | 02:59:00 | 00:00:00 | 00:00:00 | |
| DM0DOS-11 | 2026-09-01 00:47:23 | 52.69065 | 10.99937 | 33° | 18km/h | 24524m | -24.6m/s | -50.9°C | 3% | 29hPa | 2.6V | 02:59:40 | 02:57:19 | 00:00:00 | |
| DF8AY | 2026-09-01 00:47:23 | 52.69061 | 10.99933 | 29° | 16km/h | 24548m | -23.1m/s | -50.8°C | 0% | 28.9hPa | 2.6V | 03:00:11 | 02:57:18 | 00:00:00 | |
| DD8BA-10 | 2026-09-01 00:47:23 | 52.69069 | 10.99941 | 36° | 15km/h | 24500m | -24.3m/s | -51.0°C | 3.0% | 29.1hPa | 2.6V | 00:00:00 | 00:00:00 | 00:00:00 | |
| DL1NUX | 2026-09-01 00:47:22 | 52.69049 | 10.99916 | 37° | 13km/h | 24638m | -23.8m/s | -50.4°C | 2.8% | 28.5hPa | 2.6V | 02:59:45 | 02:57:14 | 00:00:00 | |
| DL1XH-west | 2026-09-01 00:47:19 | 52.69055 | 10.99924 | 43° | 16km/h | 24592m | -23.1m/s | -50.5°C | 0% | 28.7hPa | 2.5V | 03:00:11 | 02:57:16 | 00:00:00 | |
| BIOWL1-15 | 2026-09-01 00:47:18 | 52.69049 | 10.99916 | 38° | 13km/h | 24638m | -23.8m/s | -50.4°C | 0% | 28.5hPa | 2.6V | 03:01:53 | 02:57:14 | 00:00:00 | |
| DM0DOS-11 | 2026-09-01 00:47:18 | 52.69041 | 10.99896 | 83° | 7km/h | 24753m | -23.4m/s | -50.5°C | 2.9% | 28hPa | 2.5V | 02:59:50 | 02:57:09 | 00:00:00 | |
| DL1XH-15 | 2026-09-01 00:47:17 | 52.69043 | 10.99903 | 55° | 13km/h | 24706m | -23.2m/s | -50.4°C | 2.9% | 28.2hPa | 2.5V | 02:59:48 | 02:57:11 | 00:00:00 | |
| AA1-15 | 2026-09-01 00:47:15 | 52.69045 | 10.99908 | 53° | 15km/h | 24684m | -22.9m/s | -50.4°C | 0% | 28.3hPa | 2.6V | 03:00:11 | 02:57:12 | 00:00:00 | |
| HSKMA3-T | 2026-09-01 00:47:14 | 52.69043 | 10.99903 | 56° | 13km/h | 24706m | -23.2m/s | -50.4°C | 0% | 28.2hPa | 2.5V | 03:00:11 | 02:57:11 | 00:00:00 | |
| DF8AY | 2026-09-01 00:47:13 | 52.69041 | 10.99899 | 59° | 9km/h | 24730m | -23.7m/s | -50.4°C | 0% | 28.1hPa | 2.5V | 03:00:11 | 02:57:10 | 00:00:00 | |
| DL1XH-west | 2026-09-01 00:47:09 | 52.69043 | 10.99887 | 193° | 5km/h | 24844m | -23.4m/s | -50.5°C | 0% | 27.6hPa | 2.5V | 03:00:11 | 02:57:05 | 00:00:00 | |
| DL1NUX | 2026-09-01 00:47:09 | 52.69045 | 10.99887 | 191° | 9km/h | 24866m | -23.9m/s | -50.5°C | 2.9% | 27.5hPa | 2.5V | 02:59:55 | 02:57:04 | 00:00:00 | |
| DL1XH-15 | 2026-09-01 00:47:07 | 52.69050 | 10.99891 | 234° | 9km/h | 24936m | -23.5m/s | -50.6°C | 2.9% | 27.2hPa | 2.6V | 02:59:58 | 02:57:01 | 00:00:00 | |
| BIOWL1-15 | 2026-09-01 00:47:06 | 52.69054 | 10.99900 | 259° | 9km/h | 25030m | -23.7m/s | -50.8°C | 0% | 26.8hPa | 2.6V | 03:01:53 | 02:56:57 | 00:00:00 | |
| AA1-15 | 2026-09-01 00:47:04 | 52.69050 | 10.99890 | 235° | 9km/h | 24936m | -23.5m/s | -50.6°C | 0% | 27.2hPa | 2.6V | 03:00:11 | 02:57:01 | 00:00:00 | |
| DF8AY | 2026-09-01 00:47:03 | 52.69052 | 10.99894 | 225° | 9km/h | 24959m | -23.8m/s | -50.7°C | 0% | 27.1hPa | 2.5V | 03:00:11 | 02:57:00 | 00:00:00 | |
| DL1XH-west | 2026-09-01 00:46:58 | 52.69055 | 10.99914 | 272° | 15km/h | 25101m | -24.8m/s | -50.9°C | 0% | 26.6hPa | 2.5V | 03:00:11 | 02:56:54 | 00:00:00 | |
| DL1XH-15 | 2026-09-01 00:46:58 | 52.69053 | 10.99933 | 280° | 18km/h | 25173m | -24.1m/s | -50.9°C | 2.9% | 26.2hPa | 2.6V | 03:00:08 | 02:56:51 | 00:00:00 | |
| S3001 | 2026-09-01 00:46:57 | 52.69055 | 10.99914 | 272° | 13km/h | 25101m | -24.8m/s | -50.9°C | 0.5% | 26.6hPa | 2.5V | 00:00:00 | 00:00:00 | 00:00:00 | |
| NBG1-10 | 2026-09-01 00:46:56 | 52.69054 | 10.99919 | 276° | 16km/h | 25126m | -24.9m/s | -50.9°C | 3.0% | 26.4hPa | 2.5V | 00:00:00 | 02:56:53 | 00:00:00 | |
| DO2SHX-10 | 2026-09-01 00:46:55 | 52.69054 | 10.99926 | 284° | 18km/h | 25151m | -23.9m/s | -50.9°C | 2.9% | 26.3hPa | 2.5V | 00:00:00 | 02:56:52 | 00:00:00 | |
| DL1XH1-15 | 2026-09-01 00:46:54 | 52.69044 | 10.99968 | 301° | 20km/h | 25293m | -24.4m/s | -51.3°C | 3.1% | 25.8hPa | 2.6V | 03:00:13 | 02:56:46 | 00:00:00 | |
| GOEST3-10 | 2026-09-01 00:46:54 | 52.69053 | 10.99932 | 281° | 18km/h | 25174m | -24.1m/s | -50.8°C | 2.9% | 26.2hPa | 2.6V | 00:00:00 | 00:00:00 | 00:00:00 | |
| DM0DOS-11 | 2026-09-01 00:46:53 | 52.69051 | 10.99947 | 291° | 18km/h | 25220m | -24.4m/s | -51°C | 2.9% | 26hPa | 2.6V | 03:00:10 | 02:56:49 | 00:00:00 | |
| AA1-15 | 2026-09-01 00:46:53 | 52.69052 | 10.99940 | 285° | 18km/h | 25197m | -24.1m/s | -51°C | 0% | 26.1hPa | 2.6V | 03:00:11 | 02:56:50 | 00:00:00 | |
| DF8AY | 2026-09-01 00:46:52 | 52.69051 | 10.99947 | 291° | 18km/h | 25220m | -24.4m/s | -51°C | 0% | 26hPa | 2.6V | 03:00:11 | 02:56:49 | 00:00:00 | |
| DL1XH-west | 2026-09-01 00:46:47 | 52.69036 | 10.99986 | 312° | 18km/h | 25364m | -24.4m/s | -51.5°C | 0% | 25.5hPa | 2.5V | 03:01:02 | 02:56:43 | 00:00:00 | |
| DF8AY-15 | 2026-09-01 00:46:46 | 52.69036 | 10.99986 | 312° | 16km/h | 25364m | -24.4m/s | -51.5°C | 3.2% | 25.4hPa | 2.6V | 00:00:00 | 02:56:43 | 00:00:00 | |
| DL1XH-15 | 2026-09-01 00:46:45 | 52.69029 | 10.99995 | 338° | 18km/h | 25412m | -24.3m/s | -51.6°C | 3.3% | 25.3hPa | 2.6V | 03:00:18 | 02:56:41 | 00:00:00 | |
| GOEST3-10 | 2026-09-01 00:46:44 | 52.69029 | 10.99995 | 339° | 18km/h | 25412m | -24.3m/s | -51.6°C | 3.3% | 25.2hPa | 2.5V | 03:00:00 | 00:00:00 | 00:00:00 | |
| DM0DOS-11 | 2026-09-01 00:46:43 | 52.69021 | 10.99999 | 348° | 20km/h | 25459m | -24.4m/s | -51.4°C | 3.2% | 25.1hPa | 2.5V | 03:00:20 | 02:56:39 | 00:00:00 | |
| HSKMA3-T | 2026-09-01 00:46:43 | 52.69025 | 10.99997 | 342° | 16km/h | 25436m | -23.8m/s | -51.5°C | 0% | 25.2hPa | 2.6V | 03:01:02 | 02:56:40 | 00:00:00 | |
| AA1-15 | 2026-09-01 00:46:42 | 52.69021 | 10.99999 | 348° | 20km/h | 25460m | -24.4m/s | -51.4°C | 0% | 25.1hPa | 2.5V | 03:01:02 | 02:56:39 | 00:00:00 | |
| BIOWL1-15 | 2026-09-01 00:46:41 | 52.69016 | 11.00001 | 350° | 18km/h | 25484m | -25.2m/s | -51.5°C | 0% | 25.1hPa | 2.5V | 03:01:53 | 02:56:38 | 00:00:00 | |
| DO2SHX-10 | 2026-09-01 00:46:40 | 52.69011 | 11.00001 | 7° | 18km/h | 25509m | -25.3m/s | -51.4°C | 3.2% | 24.9hPa | 2.5V | 00:00:00 | 02:56:37 | 00:00:00 | |
| DB0UT-7 | 2026-09-01 00:46:39 | 52.69006 | 10.99999 | 12° | 11km/h | 25533m | -24.9m/s | -51.4°C | 3.1% | 24.8hPa | 2.5V | 03:00:00 | 02:56:36 | 00:00:00 | |
| SP3WXH-11 | 2026-09-01 00:46:38 | 52.68997 | 10.99996 | 17° | 16km/h | 25582m | -24.7m/s | -51.7°C | 0.5% | 24.6hPa | 2.5V | 00:00:00 | 00:00:00 | 00:00:00 | |
| DL1XH-15 | 2026-09-01 00:46:37 | 52.68987 | 10.99984 | 49° | 18km/h | 25657m | -24.7m/s | -51.7°C | 3.3% | 24.4hPa | 2.5V | 03:00:28 | 02:56:31 | 00:00:00 | |
| DM0DOS-11 | 2026-09-01 00:46:37 | 52.68981 | 10.99967 | 78° | 15km/h | 25730m | -24.5m/s | -51.4°C | 3.2% | 24.1hPa | 2.6V | 03:00:31 | 02:56:28 | 00:00:00 | |
| DL1XH-west | 2026-09-01 00:46:35 | 52.68990 | 10.99989 | 45° | 16km/h | 25632m | -25.7m/s | -51.8°C | 0% | 24.4hPa | 2.5V | 03:01:02 | 02:56:32 | 00:00:00 | |
| HSKMA3-T | 2026-09-01 00:46:32 | 52.68982 | 10.99973 | 59° | 15km/h | 25706m | -25.2m/s | -51.6°C | 0% | 24.2hPa | 2.6V | 03:01:02 | 02:56:29 | 00:00:00 | |
| AA1-15 | 2026-09-01 00:46:32 | 52.68981 | 10.99968 | 78° | 15km/h | 25730m | -24.5m/s | -51.4°C | 0% | 24.1hPa | 2.6V | 03:01:02 | 02:56:28 | 00:00:00 | |
| DF8AY | 2026-09-01 00:46:30 | 52.68981 | 10.99962 | 88° | 15km/h | 25754m | -24.4m/s | -51.2°C | 0% | 24hPa | 2.6V | 03:01:53 | 02:56:27 | 00:00:00 | |
| DL4BBY-15 | 2026-09-01 00:46:29 | 52.68980 | 10.99956 | 92° | 7km/h | 25778m | -24.9m/s | -50.7°C | 0% | 0hPa | 2.5V | 00:00:00 | 00:00:00 | 00:00:00 | |
| DO2SHX-10 | 2026-09-01 00:46:28 | 52.68981 | 10.99951 | 106° | 9km/h | 25802m | -25.9m/s | -50.9°C | 3.1% | 23.8hPa | 2.5V | 00:00:00 | 02:56:25 | 00:00:00 | |
| DL1XH-15 | 2026-09-01 00:46:27 | 52.68985 | 10.99941 | 182° | 5km/h | 25900m | -25.6m/s | -50.6°C | 3% | 23.5hPa | 2.6V | 03:00:38 | 02:56:21 | 00:00:00 | |
| BIOWL1-15 | 2026-09-01 00:46:27 | 52.68986 | 10.99941 | 198° | 4km/h | 25925m | -25.4m/s | -50.5°C | 0% | 23.4hPa | 2.5V | 03:01:53 | 02:56:20 | 00:00:00 | |
| DL1XH-west | 2026-09-01 00:46:24 | 52.68985 | 10.99941 | 183° | 5km/h | 25900m | -25.6m/s | -50.6°C | 0% | 23.5hPa | 2.6V | 03:01:02 | 02:56:21 | 00:00:00 | |
| GOEST3-10 | 2026-09-01 00:46:24 | 52.68985 | 10.99941 | 183° | 5km/h | 25900m | -25.5m/s | -50.5°C | 3.0% | 23.4hPa | 2.6V | 03:00:00 | 00:00:00 | 00:00:00 | |
| DM0DOS-11 | 2026-09-01 00:46:23 | 52.68987 | 10.99942 | 228° | 5km/h | 25950m | -24.7m/s | -50.4°C | 3% | 23.2hPa | 2.5V | 03:00:40 | 02:56:19 | 00:00:00 | |
| HSKMA3-T | 2026-09-01 00:46:21 | 52.68988 | 10.99944 | 266° | 5km/h | 25973m | -24.3m/s | -50.3°C | 0% | 23.2hPa | 2.5V | 03:01:02 | 02:56:18 | 00:00:00 | |
| AA1-15 | 2026-09-01 00:46:20 | 52.68988 | 10.99946 | 287° | 4km/h | 25998m | -26.2m/s | -50.2°C | 0% | 23.1hPa | 2.6V | 03:01:02 | 02:56:17 | 00:00:00 | |
| GOEST3-10 | 2026-09-01 00:46:19 | 52.68988 | 10.99947 | 310° | 5km/h | 26024m | -26.0m/s | -50.1°C | 2.9% | 23.0hPa | 2.6V | 00:00:00 | 02:56:16 | 00:00:00 | |
| DM0DOS-11 | 2026-09-01 00:46:17 | 52.68979 | 10.99936 | 78° | 9km/h | 26228m | -27.5m/s | -50°C | 2.9% | 22.3hPa | 2.6V | 03:00:51 | 02:56:08 | 00:00:00 | |
| DL1XH-west | 2026-09-01 00:46:13 | 52.68980 | 10.99943 | 64° | 7km/h | 26176m | -26.8m/s | -50.1°C | 0% | 22.5hPa | 2.5V | 03:01:02 | 02:56:10 | 00:00:00 | |
| DL3AQ-11 | 2026-09-01 00:46:13 | 52.68979 | 10.99940 | 66° | 9km/h | 26201m | -27.9m/s | -50.1°C | 0.4% | 22.4hPa | 2.6V | 00:00:00 | 00:00:00 | 00:00:00 | |
| DL1XH1-15 | 2026-09-01 00:46:12 | 52.68979 | 10.99929 | 94° | 7km/h | 26283m | -27.9m/s | -50.1°C | 3% | 22.1hPa | 2.6V | 03:00:53 | 02:56:06 | 00:00:00 | |
| DF8AY | 2026-09-01 00:46:12 | 52.68978 | 10.99933 | 97° | 9km/h | 26256m | -27.6m/s | -50.1°C | 0% | 22.2hPa | 2.6V | 03:01:53 | 02:56:07 | 00:00:00 | |
| HSKMA3-T | 2026-09-01 00:46:11 | 52.68979 | 10.99936 | 79° | 9km/h | 26228m | -27.5m/s | -50°C | 0% | 22.3hPa | 2.6V | 03:01:02 | 02:56:08 | 00:00:00 | |
| AA1-15 | 2026-09-01 00:46:09 | 52.68979 | 10.99929 | 94° | 7km/h | 26283m | -27.9m/s | -50.1°C | 0% | 22.1hPa | 2.6V | 03:01:02 | 02:56:06 | 00:00:00 | |
| DB0UT-7 | 2026-09-01 00:46:09 | 52.68979 | 10.99929 | 95° | 7km/h | 26283m | -27.8m/s | -50.1°C | 3.0% | 22.1hPa | 2.5V | 00:00:00 | 00:00:00 | 00:00:00 | |
| DL1ZP-14 | 2026-09-01 00:46:08 | 52.68979 | 10.99926 | 106° | 5km/h | 26311m | -28.0m/s | -50.1°C | 0.4% | 22.0hPa | 2.5V | 00:00:00 | 00:00:00 | 00:00:00 | |
| DL1XH-15 | 2026-09-01 00:46:07 | 52.68982 | 10.99917 | 122° | 7km/h | 26415m | -26.9m/s | -50.2°C | 3% | 21.6hPa | 2.6V | 03:00:58 | 02:56:01 | 00:00:00 | |
| SP3WXH-11 | 2026-09-01 00:46:07 | 52.68980 | 10.99921 | 116° | 4km/h | 26363m | -25.7m/s | -50.1°C | 0.4% | 21.8hPa | 2.5V | 00:00:00 | 00:00:00 | 00:00:00 | |
| DM0DOS-11 | 2026-09-01 00:46:06 | 52.68983 | 10.99912 | 328° | 0km/h | 26493m | -26.5m/s | -50.4°C | 3.1% | 21.4hPa | 2.5V | 03:01:01 | 02:55:58 | 00:00:00 | |
| SMARD9-15 | 2026-09-01 00:46:06 | 52.68981 | 10.99919 | 131° | 5km/h | 26389m | -26.4m/s | -50.2°C | 0.4% | 21.8hPa | 2.6V | 00:00:00 | 00:00:00 | 00:00:00 | |
| DL1XH1-15 | 2026-09-01 00:46:04 | 52.68983 | 10.99912 | 4° | 0km/h | 26546m | -26.8m/s | -50.7°C | 3.2% | 21.2hPa | 2.6V | 03:01:03 | 02:55:56 | 00:00:00 | |
| DL1XH-west | 2026-09-01 00:46:04 | 52.68983 | 10.99914 | 113° | 5km/h | 26441m | -26.2m/s | -50.3°C | 0% | 21.6hPa | 2.6V | 03:01:02 | 02:56:00 | 00:00:00 | |
| HSKMA3-T | 2026-09-01 00:46:01 | 52.68983 | 10.99912 | 329° | 0km/h | 26493m | -26.5m/s | -50.4°C | 0% | 21.4hPa | 2.5V | 03:01:02 | 02:55:58 | 00:00:00 | |
| AA1-15 | 2026-09-01 00:45:58 | 52.68983 | 10.99912 | 357° | 2km/h | 26572m | -26.1m/s | -50.7°C | 0% | 21.1hPa | 2.5V | 03:01:53 | 02:55:55 | 00:00:00 | |
| DO2SHX-10 | 2026-09-01 00:45:58 | 52.68983 | 10.99912 | 357° | 4km/h | 26572m | -26.0m/s | -50.6°C | 3.2% | 21.1hPa | 2.5V | 00:00:00 | 02:55:55 | 00:00:00 | |
| DM0DOS-11 | 2026-09-01 00:45:56 | 52.68977 | 10.99901 | 67° | 11km/h | 26757m | -26.5m/s | -49.5°C | 2.9% | 20.5hPa | 2.5V | 03:01:11 | 02:55:48 | 00:00:00 | |
| DF8AY | 2026-09-01 00:45:56 | 52.68977 | 10.99901 | 68° | 11km/h | 26757m | -26.5m/s | -49.5°C | 0% | 20.5hPa | 2.5V | 03:01:53 | 02:55:48 | 00:00:00 | |
| BIOWL9-15 | 2026-09-01 00:45:56 | 52.68980 | 10.99912 | 22° | 4km/h | 26652m | -25.3m/s | -50.2°C | 0.4% | 20.9hPa | 2.6V | 00:00:00 | 00:00:00 | 00:00:00 | |
| DL1XH-15 | 2026-09-01 00:45:55 | 52.68980 | 10.99911 | 48° | 5km/h | 26678m | -26.1m/s | -49.9°C | 3% | 20.8hPa | 2.6V | 03:01:08 | 02:55:51 | 00:00:00 | |
| DO2SHX-10 | 2026-09-01 00:45:55 | 52.68980 | 10.99912 | 23° | 7km/h | 26652m | -25.2m/s | -50.1°C | 3.1% | 20.8hPa | 2.6V | 00:00:00 | 02:55:52 | 00:00:00 | |
| DL1XH1-15 | 2026-09-01 00:45:54 | 52.68974 | 10.99893 | 33° | 11km/h | 26809m | -27.2m/s | -49.2°C | 2.9% | 20.4hPa | 2.6V | 03:01:13 | 02:55:46 | 00:00:00 | |
| DL1XH-west | 2026-09-01 00:45:52 | 52.68978 | 10.99905 | 66° | 11km/h | 26731m | -26.6m/s | -49.7°C | 0% | 20.6hPa | 2.5V | 03:01:53 | 02:55:49 | 00:00:00 | |
| HSKMA3-T | 2026-09-01 00:45:51 | 52.68975 | 10.99896 | 55° | 13km/h | 26783m | -26.9m/s | -49.3°C | 0% | 20.4hPa | 2.6V | 03:01:53 | 02:55:47 | 00:00:00 | |
| AA1-15 | 2026-09-01 00:45:47 | 52.68969 | 10.99888 | 26° | 11km/h | 26864m | -27.8m/s | -49.2°C | 0% | 20.2hPa | 2.5V | 03:01:53 | 02:55:44 | 00:00:00 | |
| DM0DOS-11 | 2026-09-01 00:45:46 | 52.68958 | 10.99869 | 76° | 13km/h | 27025m | -26.8m/s | -48.5°C | 2.7% | 19.7hPa | 2.6V | 03:01:21 | 02:55:38 | 00:00:00 | |
| DO2SHX-10 | 2026-09-01 00:45:46 | 52.68967 | 10.99886 | 25° | 9km/h | 26891m | -26.0m/s | -49.0°C | 2.9% | 20.1hPa | 2.5V | 00:00:00 | 02:55:43 | 00:00:00 | |
| GOEST3-10 | 2026-09-01 00:45:44 | 52.68963 | 10.99881 | 43° | 11km/h | 26946m | -27.9m/s | -48.7°C | 2.8% | 20.0hPa | 2.5V | 03:01:00 | 00:00:00 | 00:00:00 | |
| DB0NH | 2026-09-01 00:45:43 | 52.68961 | 10.99878 | 55° | 11km/h | 26972m | -27.4m/s | -48.6°C | 2.7% | 19.9hPa | 2.5V | 00:00:00 | 02:55:40 | 00:00:00 | |
| DL1NUX | 2026-09-01 00:45:42 | 52.68961 | 10.99844 | 103° | 16km/h | 27136m | -28.6m/s | -48.5°C | 2.7% | 19.4hPa | 2.5V | 03:01:25 | 02:55:34 | 00:00:00 | |
| DL1XH-west | 2026-09-01 00:45:42 | 52.68958 | 10.99869 | 77° | 13km/h | 27025m | -26.8m/s | -48.5°C | 0% | 19.7hPa | 2.6V | 03:01:53 | 02:55:38 | 00:00:00 | |
| HSKMA3-T | 2026-09-01 00:45:40 | 52.68958 | 10.99858 | 99° | 15km/h | 27079m | -28.8m/s | -48.5°C | 0% | 19.6hPa | 2.6V | 03:01:53 | 02:55:36 | 00:00:00 | |
| BIOWL1-15 | 2026-09-01 00:45:38 | 52.68965 | 10.99827 | 116° | 11km/h | 27220m | -28.5m/s | -48.5°C | 0% | 19.1hPa | 2.6V | 03:01:53 | 02:55:31 | 00:00:00 | |
| NBG1-10 | 2026-09-01 00:45:38 | 52.68959 | 10.99851 | 108° | 11km/h | 27108m | -29.4m/s | -48.5°C | 2.7% | 19.4hPa | 2.5V | 00:00:00 | 02:55:35 | 00:00:00 | |
| DL1XH-15 | 2026-09-01 00:45:37 | 52.68965 | 10.99827 | 116° | 11km/h | 27220m | -28.5m/s | -48.5°C | 2.7% | 19.1hPa | 2.6V | 03:01:28 | 02:55:31 | 00:00:00 | |
| AA1-15 | 2026-09-01 00:45:37 | 52.68961 | 10.99844 | 103° | 16km/h | 27137m | -28.6m/s | -48.6°C | 0% | 19.4hPa | 2.5V | 03:01:53 | 02:55:34 | 00:00:00 | |
| DO2SHX-10 | 2026-09-01 00:45:37 | 52.68960 | 10.99844 | 104° | 16km/h | 27137m | -28.5m/s | -48.5°C | 2.7% | 19.3hPa | 2.6V | 00:00:00 | 02:55:34 | 00:00:00 | |
| SP3WXH-11 | 2026-09-01 00:45:36 | 52.68965 | 10.99827 | 116° | 11km/h | 27220m | -28.5m/s | -48.5°C | 0.4% | 19.1hPa | 2.6V | 00:00:00 | 00:00:00 | 00:00:00 | |
| DM0DOS-11 | 2026-09-01 00:45:35 | 52.68974 | 10.99810 | 149° | 11km/h | 27363m | -29.8m/s | -48.4°C | 2.7% | 18.7hPa | 2.6V | 03:01:33 | 02:55:26 | 00:00:00 | |
| DO2SHX-10 | 2026-09-01 00:45:34 | 52.68965 | 10.99827 | 117° | 11km/h | 27220m | -28.4m/s | -48.5°C | 2.7% | 19.1hPa | 2.5V | 03:01:00 | 02:55:31 | 00:00:00 | |
| DD8BA-10 | 2026-09-01 00:45:33 | 52.68967 | 10.99822 | 120° | 9km/h | 27249m | -29.0m/s | -48.5°C | 2.7% | 19.0hPa | 2.5V | 00:00:00 | 00:00:00 | 00:00:00 | |
| DL1NUX | 2026-09-01 00:45:32 | 52.68979 | 10.99807 | 163° | 7km/h | 27423m | -30.3m/s | -48.3°C | 2.6% | 18.6hPa | 2.5V | 03:01:35 | 02:55:24 | 00:00:00 | |
| DL1XH-west | 2026-09-01 00:45:32 | 52.68970 | 10.99816 | 133° | 11km/h | 27306m | -29.1m/s | -48.5°C | 0% | 18.9hPa | 2.5V | 03:01:53 | 02:55:28 | 00:00:00 | |
| DL1XH1-15 | 2026-09-01 00:45:32 | 52.68974 | 10.99810 | 149° | 11km/h | 27363m | -29.8m/s | -48.4°C | 2.7% | 18.7hPa | 2.6V | 03:01:33 | 02:55:26 | 00:00:00 | |
| DF8AY | 2026-09-01 00:45:30 | 52.68974 | 10.99810 | 150° | 11km/h | 27363m | -29.8m/s | -48.4°C | 0% | 18.7hPa | 2.6V | 03:01:53 | 02:55:26 | 00:00:00 | |
| HSKMA3-T | 2026-09-01 00:45:28 | 52.68976 | 10.99808 | 162° | 9km/h | 27393m | -30m/s | -48.3°C | 0% | 18.7hPa | 2.5V | 03:01:53 | 02:55:25 | 00:00:00 | |
| AA1-15 | 2026-09-01 00:45:26 | 52.68980 | 10.99806 | 171° | 5km/h | 27453m | -30.6m/s | -48.3°C | 0% | 18.5hPa | 2.6V | 03:01:53 | 02:55:23 | 00:00:00 | |
| BIOWL1-15 | 2026-09-01 00:45:26 | 52.68983 | 10.99805 | 70° | 2km/h | 27543m | -30.2m/s | -48.5°C | 0% | 18.2hPa | 2.5V | 03:01:53 | 02:55:20 | 00:00:00 | |
| BIOWL9-15 | 2026-09-01 00:45:25 | 52.68983 | 10.99806 | 163° | 2km/h | 27514m | -29.4m/s | -48.5°C | 0.3% | 18.3hPa | 2.6V | 00:00:00 | 00:00:00 | 00:00:00 | |
| DM0DOS-11 | 2026-09-01 00:45:24 | 52.68978 | 10.99792 | 67° | 15km/h | 27690m | -30.4m/s | -49.1°C | 2.9% | 17.9hPa | 2.6V | 03:01:44 | 02:55:15 | 00:00:00 | |
| S3001 | 2026-09-01 00:45:24 | 52.68983 | 10.99805 | 69° | 2km/h | 27543m | -30.2m/s | -48.5°C | 0.4% | 18.2hPa | 2.5V | 00:00:00 | 00:00:00 | 00:00:00 | |
| DL1NUX | 2026-09-01 00:45:22 | 52.68977 | 10.99786 | 74° | 16km/h | 27720m | -30.2m/s | -49.2°C | 2.9% | 17.7hPa | 2.5V | 03:01:45 | 02:55:14 | 00:00:00 | |
| DL1XH-west | 2026-09-01 00:45:20 | 52.68979 | 10.99797 | 55° | 9km/h | 27660m | -30.3m/s | -49°C | 0% | 17.9hPa | 2.6V | 03:01:53 | 02:55:16 | 00:00:00 | |
| SO1NDE-10 | 2026-09-01 00:45:19 | 52.68979 | 10.99797 | 55° | 15km/h | 27660m | -30.2m/s | -48.9°C | 2.9% | 17.8hPa | 2.5V | 00:00:00 | 02:55:16 | 00:00:00 | |
| DL1XH-15 | 2026-09-01 00:45:18 | 52.68976 | 10.99758 | 100° | 18km/h | 27837m | -30.4m/s | -49°C | 2.8% | 17.4hPa | 2.5V | 03:01:49 | 02:55:10 | 00:00:00 | |
| HSKMA3-T | 2026-09-01 00:45:18 | 52.68977 | 10.99786 | 75° | 16km/h | 27720m | -30.2m/s | -49.2°C | 0% | 17.7hPa | 2.5V | 03:01:53 | 02:55:14 | 00:00:00 | |
| AA1-15 | 2026-09-01 00:45:18 | 52.68976 | 10.99780 | 77° | 16km/h | 27750m | -29.7m/s | -49.2°C | 0% | 17.6hPa | 2.5V | 03:01:53 | 02:55:13 | 00:00:00 | |
| BIOWL1-15 | 2026-09-01 00:45:15 | 52.68992 | 10.99719 | 162° | 13km/h | 28043m | -29.2m/s | -47.7°C | 0% | 16.9hPa | 2.5V | 03:02:44 | 02:55:03 | 00:00:00 | |
| DO2SHX-10 | 2026-09-01 00:45:14 | 52.68975 | 10.99765 | 94° | 18km/h | 27809m | -29.1m/s | -49.0°C | 2.9% | 17.5hPa | 2.6V | 03:01:00 | 02:55:11 | 00:00:00 | |
| DJ2DS-15 | 2026-09-01 00:45:13 | 52.68977 | 10.99750 | 106° | 16km/h | 27867m | -30.1m/s | -48.9°C | 0.3% | 17.3hPa | 2.5V | 00:00:00 | 00:00:00 | 00:00:00 | |
| DL1NUX | 2026-09-01 00:45:12 | 52.68990 | 10.99722 | 144° | 15km/h | 28015m | -29.2m/s | -47.9°C | 2.6% | 16.9hPa | 2.5V | 03:01:55 | 02:55:04 | 00:00:00 | |
| DF8AY-15 | 2026-09-01 00:45:12 | 52.68977 | 10.99750 | 107° | 13km/h | 27867m | -30.0m/s | -48.8°C | 2.9% | 17.3hPa | 2.5V | 00:00:00 | 02:55:09 | 00:00:00 | |
| DM0DOS-11 | 2026-09-01 00:45:11 | 52.68987 | 10.99726 | 136° | 15km/h | 27984m | -30.6m/s | -48.1°C | 2.8% | 17hPa | 2.5V | 03:01:54 | 02:55:05 | 00:00:00 | |
| DL1XH-west | 2026-09-01 00:45:08 | 52.68987 | 10.99726 | 137° | 16km/h | 27984m | -30.6m/s | -48.1°C | 0% | 17hPa | 2.5V | 03:02:44 | 02:55:05 | 00:00:00 | |
| DF8AY | 2026-09-01 00:45:07 | 52.68990 | 10.99722 | 144° | 15km/h | 28015m | -29.3m/s | -47.9°C | 0% | 16.9hPa | 2.5V | 03:02:44 | 02:55:04 | 00:00:00 | |
| HSKMA3-T | 2026-09-01 00:45:06 | 52.68995 | 10.99718 | 193° | 9km/h | 28072m | -29.8m/s | -47.5°C | 0% | 16.8hPa | 2.6V | 03:02:44 | 02:55:02 | 00:00:00 | |
| AA1-15 | 2026-09-01 00:45:05 | 52.69000 | 10.99726 | 252° | 13km/h | 28163m | -30.1m/s | -47.4°C | 0% | 16.6hPa | 2.5V | 03:02:44 | 02:54:59 | 00:00:00 | |
| DF7ER-10 | 2026-09-01 00:45:05 | 52.68995 | 10.99718 | 194° | 9km/h | 28073m | -29.8m/s | -47.5°C | 0.3% | 16.8hPa | 2.6V | 03:02:00 | 00:00:00 | 00:00:00 | |
| DL1XH1-15 | 2026-09-01 00:45:04 | 52.69000 | 10.99741 | 291° | 13km/h | 28255m | -31m/s | -47.3°C | 2.5% | 16.3hPa | 2.6V | 03:02:03 | 02:54:56 | 00:00:00 | |
| DL1XH-west | 2026-09-01 00:44:58 | 52.68999 | 10.99744 | 318° | 11km/h | 28286m | -30.9m/s | -47.2°C | 0% | 16.3hPa | 2.6V | 03:02:44 | 02:54:55 | 00:00:00 | |
| HSKMA3-T | 2026-09-01 00:44:56 | 52.68994 | 10.99748 | 346° | 15km/h | 28350m | -32.6m/s | -47°C | 0% | 16.1hPa | 2.5V | 03:02:44 | 02:54:53 | 00:00:00 | |
| BIOWL1-15 | 2026-09-01 00:44:56 | 52.68967 | 10.99613 | 104° | 38km/h | 28819m | -31.7m/s | -47.1°C | 0% | 15hPa | 2.6V | 03:02:44 | 02:54:38 | 00:00:00 | |
| AA1-15 | 2026-09-01 00:44:54 | 52.68982 | 10.99743 | 29° | 16km/h | 28447m | -32.6m/s | -47.3°C | 0% | 15.9hPa | 2.6V | 03:02:44 | 02:54:50 | 00:00:00 | |
| S3001 | 2026-09-01 00:44:53 | 52.68979 | 10.99739 | 44° | 18km/h | 28479m | -31.9m/s | -47.4°C | 0.3% | 15.8hPa | 2.6V | 00:00:00 | 00:00:00 | 00:00:00 | |
| DF8AY-15 | 2026-09-01 00:44:52 | 52.68979 | 10.99739 | 45° | 29km/h | 28479m | -31.8m/s | -47.4°C | 2.7% | 15.8hPa | 2.6V | 00:00:00 | 02:54:49 | 00:00:00 | |
| DM0DOS-11 | 2026-09-01 00:44:51 | 52.68968 | 10.99707 | 71° | 24km/h | 28602m | -31.2m/s | -47.4°C | 2.6% | 15.5hPa | 2.6V | 03:02:14 | 02:54:45 | 00:00:00 | |
| DL1XH-west | 2026-09-01 00:44:47 | 52.68966 | 10.99697 | 76° | 29km/h | 28633m | -31.4m/s | -47.5°C | 0% | 15.4hPa | 2.6V | 03:02:44 | 02:54:44 | 00:00:00 | |
| HSKMA3-T | 2026-09-01 00:44:46 | 52.68963 | 10.99658 | 90° | 37km/h | 28726m | -30.9m/s | -47.4°C | 0% | 15.2hPa | 2.5V | 03:02:44 | 02:54:41 | 00:00:00 | |
| BIOWL1-15 | 2026-09-01 00:44:45 | 52.68969 | 10.99599 | 108° | 33km/h | 28850m | -31.5m/s | -46.9°C | 0% | 14.9hPa | 2.6V | 03:02:44 | 02:54:37 | 00:00:00 | |
| AA1-15 | 2026-09-01 00:44:42 | 52.68965 | 10.99628 | 100° | 35km/h | 28788m | -31.5m/s | -47.3°C | 0% | 15.1hPa | 2.5V | 03:02:44 | 02:54:39 | 00:00:00 | |
| DB0DAN | 2026-09-01 00:44:40 | 52.68969 | 10.99599 | 108° | 31km/h | 28850m | -31.5m/s | -46.9°C | 0.3% | 14.92hPa | 2.6V | 00:00:00 | 00:00:00 | 00:00:00 | |
| DL1XH-west | 2026-09-01 00:44:36 | 52.68985 | 10.99554 | 134° | 29km/h | 28978m | -31.5m/s | -46.7°C | 0% | 14.6hPa | 2.5V | 03:02:44 | 02:54:33 | 00:00:00 | |
| HTAHTA | 2026-09-01 00:44:36 | 52.68999 | 10.99531 | 139° | 22km/h | 29071m | -31.2m/s | -46.3°C | 0.3% | 14.4hPa | 2.5V | 00:00:00 | 00:00:00 | 00:00:00 | |
| DL1XH1-15 | 2026-09-01 00:44:34 | 52.69015 | 10.99514 | 153° | 18km/h | 29196m | -31.9m/s | -46°C | 2.5% | 14.2hPa | 2.5V | 03:02:33 | 02:54:26 | 00:00:00 | |
| DL1XH-15 | 2026-09-01 00:44:33 | 52.69003 | 10.99526 | 151° | 20km/h | 29101m | -31.6m/s | -46.2°C | 2.5% | 14.3hPa | 2.6V | 03:02:30 | 02:54:29 | 00:00:00 | |
| HSKMA3-T | 2026-09-01 00:44:33 | 52.68999 | 10.99531 | 139° | 24km/h | 29071m | -31.2m/s | -46.3°C | 0% | 14.4hPa | 2.6V | 03:02:44 | 02:54:30 | 00:00:00 | |
| AA1-15 | 2026-09-01 00:44:32 | 52.69007 | 10.99521 | 147° | 20km/h | 29132m | -31.9m/s | -46.1°C | 0% | 14.3hPa | 2.5V | 03:02:44 | 02:54:28 | 00:00:00 | |
| DM0DOS-11 | 2026-09-01 00:44:31 | 52.69019 | 10.99511 | 161° | 15km/h | 29228m | -32.3m/s | -45.9°C | 2.5% | 14.1hPa | 2.6V | 03:02:34 | 02:54:25 | 00:00:00 | |
| DO3MHA-11 | 2026-09-01 00:44:29 | 52.69015 | 10.99514 | 154° | 9km/h | 29196m | -31.9m/s | -45.9°C | 2.5% | 14.1hPa | 2.5V | 00:00:00 | 02:54:26 | 00:00:00 | |
| DJ8HS-15 | 2026-09-01 00:44:28 | 52.69018 | 10.99511 | 162° | 11km/h | 29228m | -32.3m/s | -45.8°C | 2.5% | 14.0hPa | 2.6V | 00:00:00 | 02:54:25 | 00:00:00 | |
| DL1XH-15 | 2026-09-01 00:44:27 | 52.69028 | 10.99506 | 296° | 4km/h | 29422m | -33m/s | -45.1°C | 2.3% | 13.7hPa | 2.6V | 03:02:40 | 02:54:19 | 00:00:00 | |
| DL1XH-west | 2026-09-01 00:44:26 | 52.69024 | 10.99507 | 169° | 9km/h | 29293m | -33.1m/s | -45.5°C | 0% | 14hPa | 2.6V | 03:02:44 | 02:54:23 | 00:00:00 | |
| DF8AY | 2026-09-01 00:44:23 | 52.69028 | 10.99506 | 306° | 4km/h | 29390m | -33m/s | -45.2°C | 0% | 13.8hPa | 2.5V | 03:02:44 | 02:54:20 | 00:00:00 | |
| BIOWL1-15 | 2026-09-01 00:44:22 | 52.69027 | 10.99508 | 300° | 7km/h | 29455m | -32.7m/s | -45.2°C | 0% | 13.6hPa | 2.6V | 03:02:44 | 02:54:18 | 00:00:00 | |
| HSKMA3-T | 2026-09-01 00:44:22 | 52.69028 | 10.99506 | 296° | 4km/h | 29423m | -33m/s | -45.1°C | 0% | 13.7hPa | 2.6V | 03:02:44 | 02:54:19 | 00:00:00 | |
| DL1NUX | 2026-09-01 00:44:22 | 52.69023 | 10.99513 | 16° | 5km/h | 29584m | -32.1m/s | -45.2°C | 2.3% | 13.3hPa | 2.5V | 03:02:45 | 02:54:14 | 00:00:00 | |
| S3001 | 2026-09-01 00:44:22 | 52.69027 | 10.99508 | 300° | 7km/h | 29455m | -32.7m/s | -45.2°C | 0.2% | 13.6hPa | 2.5V | 00:00:00 | 00:00:00 | 00:00:00 | |
| DM0DOS-11 | 2026-09-01 00:44:21 | 52.69024 | 10.99513 | 328° | 5km/h | 29552m | -33.2m/s | -45.3°C | 2.4% | 13.4hPa | 2.5V | 03:02:44 | 02:54:15 | 00:00:00 | |
| AA1-15 | 2026-09-01 00:44:20 | 52.69025 | 10.99511 | 337° | 7km/h | 29520m | -31.9m/s | -45.3°C | 0% | 13.5hPa | 2.6V | 03:02:44 | 02:54:16 | 00:00:00 | |
| DL1XH-west | 2026-09-01 00:44:15 | 52.69018 | 10.99506 | 73° | 11km/h | 29684m | -34m/s | -45.2°C | 0% | 13.2hPa | 2.6V | 03:03:35 | 02:54:11 | 00:00:00 | |
| GOEST3-10 | 2026-09-01 00:44:14 | 52.69018 | 10.99506 | 74° | 13km/h | 29685m | -33.9m/s | -45.1°C | 2.3% | 13.1hPa | 2.6V | 00:00:00 | 00:00:00 | 00:00:00 | |
| DD8BA-10 | 2026-09-01 00:44:13 | 52.69017 | 10.99501 | 70° | 15km/h | 29720m | -35.3m/s | -45.2°C | 2.4% | 13.0hPa | 2.6V | 00:00:00 | 00:00:00 | 00:00:00 | |
| DL1NUX | 2026-09-01 00:44:12 | 52.69019 | 10.99466 | 118° | 15km/h | 29919m | -33.7m/s | -45.4°C | 2.5% | 12.7hPa | 2.6V | 03:02:55 | 02:54:04 | 00:00:00 | |
| DO2SHX-10 | 2026-09-01 00:44:12 | 52.69017 | 10.99496 | 84° | 13km/h | 29755m | -34.6m/s | -45.3°C | 2.4% | 13.0hPa | 2.5V | 00:00:00 | 02:54:09 | 00:00:00 | |
| DM0DOS-11 | 2026-09-01 00:44:11 | 52.69018 | 10.99471 | 95° | 15km/h | 29886m | -33m/s | -45.5°C | 2.5% | 12.8hPa | 2.6V | 03:02:54 | 02:54:05 | 00:00:00 | |
| HSKMA3-T | 2026-09-01 00:44:11 | 52.69016 | 10.99490 | 89° | 15km/h | 29788m | -33.8m/s | -45.5°C | 0% | 12.9hPa | 2.5V | 03:03:35 | 02:54:08 | 00:00:00 | |
| BIOWL1-15 | 2026-09-01 00:44:09 | 52.69019 | 10.99466 | 119° | 15km/h | 29919m | -33.7m/s | -45.4°C | 0% | 12.7hPa | 2.6V | 03:03:35 | 02:54:04 | 00:00:00 | |
| AA1-15 | 2026-09-01 00:44:09 | 52.69018 | 10.99471 | 96° | 15km/h | 29886m | -33m/s | -45.5°C | 0% | 12.8hPa | 2.6V | 03:03:35 | 02:54:05 | 00:00:00 | |
| DL1XH-west | 2026-09-01 00:44:03 | 52.69027 | 10.99446 | 122° | 13km/h | 30058m | -33.8m/s | -45.1°C | 0% | 12.4hPa | 2.5V | 03:03:35 | 02:54:00 | 00:00:00 | |
| DL1XH1-15 | 2026-09-01 00:44:03 | 52.69031 | 10.99431 | 96° | 9km/h | 30200m | -34.7m/s | -44.4°C | 2.2% | 12.2hPa | 2.5V | 03:03:03 | 02:53:56 | 00:00:00 | |
| DD8BA-10 | 2026-09-01 00:44:03 | 52.69027 | 10.99446 | 122° | 11km/h | 30058m | -33.7m/s | -45.0°C | 2.4% | 12.4hPa | 2.5V | 00:00:00 | 00:00:00 | 00:00:00 | |
| DL1NUX | 2026-09-01 00:44:02 | 52.69032 | 10.99423 | 93° | 11km/h | 30272m | -36.7m/s | -44.1°C | 2.3% | 12hPa | 2.5V | 03:03:05 | 02:53:54 | 00:00:00 | |
| HSKMA3-T | 2026-09-01 00:44:00 | 52.69031 | 10.99431 | 97° | 9km/h | 30200m | -34.7m/s | -44.4°C | 0% | 12.2hPa | 2.5V | 03:03:35 | 02:53:56 | 00:00:00 | |
| BIOWL1-15 | 2026-09-01 00:43:58 | 52.69031 | 10.99427 | 95° | 7km/h | 30236m | -35.4m/s | -44.3°C | 0% | 12.1hPa | 2.5V | 03:03:35 | 02:53:55 | 00:00:00 | |
| AA1-15 | 2026-09-01 00:43:57 | 52.69031 | 10.99419 | 83° | 11km/h | 30308m | -35.6m/s | -44°C | 0% | 12hPa | 2.6V | 03:03:35 | 02:53:53 | 00:00:00 | |
| DL1XH-15 | 2026-09-01 00:43:57 | 52.69030 | 10.99397 | 80° | 16km/h | 30457m | -36.9m/s | -43.6°C | 2.2% | 11.7hPa | 2.5V | 03:03:10 | 02:53:49 | 00:00:00 | |
| DL1XH-west | 2026-09-01 00:43:53 | 52.69030 | 10.99403 | 83° | 15km/h | 30420m | -37.5m/s | -43.8°C | 0% | 11.8hPa | 2.6V | 03:03:35 | 02:53:50 | 00:00:00 | |
| DD8BA-10 | 2026-09-01 00:43:53 | 52.69030 | 10.99403 | 84° | 15km/h | 30421m | -37.4m/s | -43.7°C | 2.2% | 11.7hPa | 2.6V | 03:03:00 | 00:00:00 | 00:00:00 | |
| DL1NUX | 2026-09-01 00:43:52 | 52.69030 | 10.99364 | 121° | 15km/h | 30649m | -38m/s | -43.1°C | 2.1% | 11.4hPa | 2.6V | 03:03:15 | 02:53:44 | 00:00:00 | |
| DO2SHX-10 | 2026-09-01 00:43:52 | 52.69029 | 10.99397 | 81° | 16km/h | 30457m | -36.9m/s | -43.5°C | 2.2% | 11.7hPa | 2.5V | 00:00:00 | 02:53:49 | 00:00:00 | |
| DM0DOS-11 | 2026-09-01 00:43:51 | 52.69030 | 10.99370 | 102° | 16km/h | 30610m | -37.8m/s | -43.1°C | 2.2% | 11.4hPa | 2.6V | 03:03:14 | 02:53:45 | 00:00:00 | |
| DF8AY | 2026-09-01 00:43:51 | 52.69029 | 10.99370 | 102° | 16km/h | 30610m | -37.8m/s | -43.1°C | 0% | 11.4hPa | 2.6V | 03:03:35 | 02:53:45 | 00:00:00 | |
| HSKMA3-T | 2026-09-01 00:43:49 | 52.69029 | 10.99377 | 100° | 18km/h | 30571m | -38.9m/s | -43.1°C | 0% | 11.5hPa | 2.6V | 03:03:35 | 02:53:46 | 00:00:00 | |
| AA1-15 | 2026-09-01 00:43:47 | 52.69032 | 10.99360 | 137° | 13km/h | 30688m | -40m/s | -43°C | 0% | 11.3hPa | 2.5V | 03:03:35 | 02:53:43 | 00:00:00 | |
| DO3MHA-11 | 2026-09-01 00:43:47 | 52.69030 | 10.99364 | 122° | 13km/h | 30649m | -38.0m/s | -43.0°C | 2.1% | 11.4hPa | 2.6V | 00:00:00 | 02:53:44 | 00:00:00 | |
| DL1XH-15 | 2026-09-01 00:43:46 | 52.69044 | 10.99356 | 204° | 16km/h | 30838m | -36.7m/s | -42.7°C | 2.1% | 11.1hPa | 2.6V | 03:03:20 | 02:53:39 | 00:00:00 | |
| DL3AQ-11 | 2026-09-01 00:43:46 | 52.69037 | 10.99355 | 173° | 11km/h | 30764m | -38.1m/s | -42.8°C | 0.1% | 11.2hPa | 2.6V | 00:00:00 | 00:00:00 | 00:00:00 | |
| DL1XH-west | 2026-09-01 00:43:43 | 52.69044 | 10.99356 | 204° | 18km/h | 30838m | -36.7m/s | -42.7°C | 0% | 11.1hPa | 2.6V | 03:03:35 | 02:53:39 | 00:00:00 | |
| DL1NUX | 2026-09-01 00:43:42 | 52.69055 | 10.99367 | 316° | 5km/h | 31022m | -37.8m/s | -42.3°C | 2.1% | 10.7hPa | 2.5V | 03:03:25 | 02:53:34 | 00:00:00 | |
| DL4XJ-10 | 2026-09-01 00:43:42 | 52.69043 | 10.99356 | 205° | 15km/h | 30838m | -36.6m/s | -42.3°C | 0% | 0hPa | 2.6V | 00:00:00 | 00:00:00 | 00:00:00 | |
| DB0DAN | 2026-09-01 00:43:40 | 52.69051 | 10.99361 | 214° | 15km/h | 30911m | -37.6m/s | -42.6°C | 0.2% | 10.94hPa | 2.6V | 00:00:00 | 00:00:00 | 00:00:00 | |
| HSKMA3-T | 2026-09-01 00:43:39 | 52.69054 | 10.99364 | 217° | 11km/h | 30948m | -37.2m/s | -42.5°C | 0% | 10.8hPa | 2.5V | 03:03:35 | 02:53:36 | 00:00:00 | |
| DF8AY | 2026-09-01 00:43:38 | 52.69026 | 10.99326 | 93° | 18km/h | 31437m | -42.7m/s | -41.4°C | 0% | 10.1hPa | 2.6V | 03:03:35 | 02:53:24 | 00:00:00 | |
| BIOWL1-15 | 2026-09-01 00:43:36 | 52.69031 | 10.99348 | 59° | 20km/h | 31315m | -40.5m/s | -41.6°C | 0% | 10.3hPa | 2.6V | 03:03:35 | 02:53:27 | 00:00:00 | |
| AA1-15 | 2026-09-01 00:43:35 | 52.69046 | 10.99365 | 15° | 16km/h | 31144m | -45.6m/s | -41.8°C | 0% | 10.6hPa | 2.6V | 03:03:35 | 02:53:31 | 00:00:00 | |
| DL1XH-15 | 2026-09-01 00:43:34 | 52.69038 | 10.99359 | 32° | 20km/h | 31233m | -43.5m/s | -41.8°C | 2% | 10.4hPa | 2.5V | 03:03:30 | 02:53:29 | 00:00:00 | |
| DO2SHX-10 | 2026-09-01 00:43:34 | 52.69046 | 10.99365 | 16° | 18km/h | 31144m | -45.6m/s | -41.7°C | 2.0% | 10.5hPa | 2.6V | 00:00:00 | 02:53:31 | 00:00:00 | |
| DL1XH1-15 | 2026-09-01 00:43:33 | 52.69028 | 10.99341 | 58° | 18km/h | 31355m | -39.9m/s | -41.5°C | 2% | 10.2hPa | 2.6V | 03:03:33 | 02:53:26 | 00:00:00 | |
| DL1XH-west | 2026-09-01 00:43:33 | 52.69042 | 10.99363 | 24° | 18km/h | 31190m | -44.5m/s | -41.8°C | 0% | 10.5hPa | 2.5V | 03:03:35 | 02:53:30 | 00:00:00 | |
| DL3AQ-11 | 2026-09-01 00:43:33 | 52.69038 | 10.99359 | 32° | 18km/h | 31233m | -43.5m/s | -41.8°C | 0.1% | 10.4hPa | 2.6V | 00:00:00 | 00:00:00 | 00:00:00 | |
| DL1NUX | 2026-09-01 00:43:32 | 52.69025 | 10.99326 | 93° | 18km/h | 31437m | -42.7m/s | -41.4°C | 1.9% | 10.1hPa | 2.6V | 03:03:35 | 02:53:24 | 00:00:00 | |
| HSKMA3-T | 2026-09-01 00:43:28 | 52.69026 | 10.99334 | 74° | 20km/h | 31395m | -40.9m/s | -41.4°C | 0% | 10.2hPa | 2.6V | 03:03:35 | 02:53:25 | 00:00:00 | |
| GOEST3-10 | 2026-09-01 00:43:28 | 52.69026 | 10.99334 | 74° | 16km/h | 31396m | -40.9m/s | -41.4°C | 2.0% | 10.1hPa | 2.6V | 00:00:00 | 02:53:25 | 00:00:00 | |
| DJ8HS-15 | 2026-09-01 00:43:27 | 52.69025 | 10.99326 | 94° | 15km/h | 31438m | -42.7m/s | -41.3°C | 1.9% | 10.1hPa | 2.6V | 00:00:00 | 02:53:24 | 00:00:00 | |
| DB0DAN | 2026-09-01 00:43:25 | 52.69026 | 10.99312 | 115° | 15km/h | 31524m | -43.9m/s | -41.1°C | 0.1% | 9.98hPa | 2.5V | 00:00:00 | 00:00:00 | 00:00:00 | |
| DO2SHX-10 | 2026-09-01 00:43:25 | 52.69026 | 10.99312 | 116° | 15km/h | 31524m | -43.8m/s | -41.1°C | 1.9% | 9.9hPa | 2.5V | 00:00:00 | 02:53:22 | 00:00:00 | |
| DL1XH1-15 | 2026-09-01 00:43:24 | 52.69044 | 10.99292 | 182° | 16km/h | 31762m | -37.7m/s | -40.5°C | 1.9% | 9.6hPa | 2.5V | 03:03:43 | 02:53:16 | 00:00:00 | |
| DL1XH-west | 2026-09-01 00:43:23 | 52.69030 | 10.99301 | 136° | 15km/h | 31609m | -41.3m/s | -41.1°C | 0% | 9.8hPa | 2.6V | 03:04:26 | 02:53:20 | 00:00:00 | |
| BIOWL1-15 | 2026-09-01 00:43:22 | 52.69033 | 10.99297 | 155° | 15km/h | 31650m | -39.8m/s | -41.1°C | 0% | 9.8hPa | 2.6V | 03:04:26 | 02:53:19 | 00:00:00 | |
| DF8AY | 2026-09-01 00:43:19 | 52.69045 | 10.99292 | 182° | 16km/h | 31762m | -37.7m/s | -40.5°C | 0% | 9.6hPa | 2.5V | 03:04:26 | 02:53:16 | 00:00:00 | |
| HSKMA3-T | 2026-09-01 00:43:17 | 52.69051 | 10.99293 | 197° | 13km/h | 31838m | -35.8m/s | -40.3°C | 0% | 9.5hPa | 2.6V | 03:04:26 | 02:53:14 | 00:00:00 | |
| DO2SHX-10 | 2026-09-01 00:43:16 | 52.69053 | 10.99295 | 201° | 5km/h | 31876m | -36.5m/s | -40.3°C | 1.9% | 9.4hPa | 2.6V | 00:00:00 | 02:53:13 | 00:00:00 | |
| EDDB2-11 | 2026-09-01 00:43:15 | 52.69056 | 10.99297 | 294° | 2km/h | 31948m | -33.8m/s | -40.3°C | 0.1% | 9.3hPa | 2.5V | 00:00:00 | 00:00:00 | 00:00:00 | |
| DL1XH-15 | 2026-09-01 00:43:14 | 52.69054 | 10.99297 | 18° | 15km/h | 32019m | -36.4m/s | -40.4°C | 1.9% | 9.2hPa | 2.5V | 03:03:50 | 02:53:09 | 00:00:00 | |
| DL1XH1-15 | 2026-09-01 00:43:13 | 52.69041 | 10.99286 | 34° | 24km/h | 32125m | -35.1m/s | -40.1°C | 1.9% | 9.1hPa | 2.6V | 03:03:53 | 02:53:06 | 00:00:00 | |
| DL1XH-west | 2026-09-01 00:43:12 | 52.69054 | 10.99297 | 18° | 15km/h | 32019m | -36.4m/s | -40.4°C | 0% | 9.2hPa | 2.5V | 03:04:26 | 02:53:09 | 00:00:00 | |
| DL1NUX | 2026-09-01 00:43:12 | 52.69030 | 10.99273 | 39° | 26km/h | 32194m | -34m/s | -39.8°C | 1.9% | 9hPa | 2.5V | 03:03:55 | 02:53:04 | 00:00:00 | |
| BIOWL1-15 | 2026-09-01 00:43:11 | 52.69026 | 10.99267 | 45° | 24km/h | 32229m | -36.5m/s | -39.7°C | 0% | 8.9hPa | 2.5V | 03:04:26 | 02:53:03 | 00:00:00 | |
| DF8AY | 2026-09-01 00:43:08 | 52.69019 | 10.99255 | 62° | 13km/h | 32301m | -36.9m/s | -39.6°C | 0% | 8.8hPa | 2.6V | 03:04:26 | 02:53:01 | 00:00:00 | |
| HSKMA3-T | 2026-09-01 00:43:07 | 52.69030 | 10.99273 | 39° | 26km/h | 32194m | -34m/s | -39.8°C | 0% | 9hPa | 2.5V | 03:04:26 | 02:53:04 | 00:00:00 | |
| DJ8HS-15 | 2026-09-01 00:43:07 | 52.69030 | 10.99273 | 40° | 13km/h | 32195m | -33.9m/s | -39.8°C | 1.9% | 8.9hPa | 2.6V | 00:00:00 | 02:53:04 | 00:00:00 | |
| DL3AQ-11 | 2026-09-01 00:43:06 | 52.69019 | 10.99255 | 62° | 13km/h | 32302m | -36.9m/s | -39.6°C | 0.1% | 8.8hPa | 2.6V | 00:00:00 | 00:00:00 | 00:00:00 | |
| SONCRA | 2026-09-01 00:43:04 | 52.69019 | 10.99255 | 62° | 13km/h | 32302m | -36.9m/s | -39.6°C | 0.1% | 8.8hPa | 2.6V | 00:00:00 | 00:00:00 | 00:00:00 | |
| DL1XH-15 | 2026-09-01 00:43:03 | 52.69018 | 10.99247 | 106° | 7km/h | 32375m | -38m/s | -39.4°C | 1.8% | 8.8hPa | 2.6V | 03:04:00 | 02:52:59 | 00:00:00 | |
| DL1XH1-15 | 2026-09-01 00:43:03 | 52.69019 | 10.99242 | 82° | 4km/h | 32496m | -37.8m/s | -38.9°C | 1.8% | 8.6hPa | 2.6V | 03:04:03 | 02:52:56 | 00:00:00 | |
| DD8BA-10 | 2026-09-01 00:43:03 | 52.69018 | 10.99251 | 89° | 9km/h | 32339m | -34.9m/s | -39.5°C | 1.9% | 8.8hPa | 2.6V | 00:00:00 | 00:00:00 | 00:00:00 | |
| DL1NUX | 2026-09-01 00:43:02 | 52.69017 | 10.99237 | 47° | 11km/h | 32572m | -37.8m/s | -38.5°C | 1.7% | 8.5hPa | 2.6V | 03:04:05 | 02:52:54 | 00:00:00 | |
| DL1XH-west | 2026-09-01 00:43:02 | 52.69018 | 10.99247 | 106° | 7km/h | 32375m | -38m/s | -39.4°C | 0% | 8.8hPa | 2.6V | 03:04:26 | 02:52:59 | 00:00:00 | |
| AA1-15 | 2026-09-01 00:43:01 | 52.69019 | 10.99245 | 106° | 4km/h | 32415m | -39.3m/s | -39.3°C | 0% | 8.7hPa | 2.5V | 03:04:26 | 02:52:58 | 00:00:00 | |
| DM0DOS-11 | 2026-09-01 00:43:01 | 52.69018 | 10.99240 | 49° | 7km/h | 32533m | -38.5m/s | -38.7°C | 1.8% | 8.6hPa | 2.6V | 03:04:04 | 02:52:55 | 00:00:00 | |
| DF8AY | 2026-09-01 00:42:59 | 52.69014 | 10.99213 | 117° | 16km/h | 32768m | -37m/s | -37.6°C | 0% | 8.3hPa | 2.6V | 03:04:26 | 02:52:49 | 00:00:00 | |
| BIOWL1-15 | 2026-09-01 00:42:59 | 52.69019 | 10.99242 | 82° | 4km/h | 32496m | -37.8m/s | -38.9°C | 0% | 8.6hPa | 2.6V | 03:04:26 | 02:52:56 | 00:00:00 | |
| HSKMA3-T | 2026-09-01 00:42:57 | 52.69017 | 10.99237 | 48° | 11km/h | 32572m | -37.8m/s | -38.5°C | 0% | 8.5hPa | 2.6V | 03:04:26 | 02:52:54 | 00:00:00 | |
| DL3AQ-11 | 2026-09-01 00:42:53 | 52.69014 | 10.99213 | 116° | 16km/h | 32768m | -37.0m/s | -37.6°C | 0.1% | 8.3hPa | 2.5V | 00:00:00 | 00:00:00 | 00:00:00 | |
| DO2SHX-10 | 2026-09-01 00:42:52 | 52.69014 | 10.99212 | 117° | 18km/h | 32768m | -37.0m/s | -37.5°C | 1.6% | 8.2hPa | 2.5V | 03:04:00 | 02:52:49 | 00:00:00 | |
| DM0DOS-11 | 2026-09-01 00:42:51 | 52.69027 | 10.99195 | 167° | 16km/h | 32922m | -38.6m/s | -37.5°C | 1.6% | 8.1hPa | 2.5V | 03:04:14 | 02:52:45 | 00:00:00 | |
| DF8AY-15 | 2026-09-01 00:42:51 | 52.69017 | 10.99207 | 134° | 13km/h | 32805m | -36.5m/s | -37.5°C | 1.5% | 8.2hPa | 2.6V | 00:00:00 | 02:52:48 | 00:00:00 | |
| DF8AY | 2026-09-01 00:42:49 | 52.69035 | 10.99195 | 90° | 13km/h | 33492m | -37.8m/s | -36.9°C | 0% | 7.4hPa | 2.6V | 03:05:17 | 02:52:30 | 00:00:00 | |
| BIOWL1-15 | 2026-09-01 00:42:49 | 52.69036 | 10.99201 | 88° | 15km/h | 33454m | -37.5m/s | -36.8°C | 0% | 7.4hPa | 2.6V | 03:06:08 | 02:52:31 | 00:00:00 | |
| S3001 | 2026-09-01 00:42:49 | 52.69027 | 10.99195 | 167° | 15km/h | 32922m | -38.7m/s | -37.5°C | 0.0% | 8.1hPa | 2.5V | 00:00:00 | 00:00:00 | 00:00:00 | |
| HSKMA3-T | 2026-09-01 00:42:48 | 52.69036 | 10.99220 | 93° | 11km/h | 33342m | -35.9m/s | -37°C | 0% | 7.6hPa | 2.5V | 03:04:26 | 02:52:34 | 00:00:00 | |
| DL4XJ-10 | 2026-09-01 00:42:48 | 52.69036 | 10.99215 | 270° | 13km/h | 33151m | -39.9m/s | -36.9°C | 0% | 0hPa | 2.6V | 00:00:00 | 00:00:00 | 00:00:00 | |
| DL1XH1-15 | 2026-09-01 00:42:47 | 52.69036 | 10.99226 | 148° | 2km/h | 33267m | -37.7m/s | -37.1°C | 1.6% | 7.7hPa | 2.6V | 03:04:23 | 02:52:36 | 00:00:00 | |
| DL1NUX | 2026-09-01 00:42:47 | 52.69036 | 10.99215 | 97° | 15km/h | 33379m | -37.7m/s | -36.9°C | 1.6% | 7.5hPa | 2.5V | 03:04:26 | 02:52:33 | 00:00:00 | |
| DM0DOS-11 | 2026-09-01 00:42:46 | 52.69036 | 10.99224 | 102° | 9km/h | 33306m | -37.1m/s | -36.9°C | 1.6% | 7.6hPa | 2.6V | 03:04:24 | 02:52:35 | 00:00:00 | |
| DL1XH-west | 2026-09-01 00:42:46 | 52.69036 | 10.99215 | 98° | 15km/h | 33379m | -37.7m/s | -36.9°C | 0% | 7.5hPa | 2.5V | 03:04:26 | 02:52:33 | 00:00:00 | |
| TFSTFS | 2026-09-01 00:42:45 | 52.69036 | 10.99220 | 94° | 11km/h | 33342m | -35.9m/s | -37.0°C | 0% | 7.6hPa | 2.5V | 00:00:00 | 00:00:00 | 00:00:00 | |
| DO2SHX-10 | 2026-09-01 00:42:39 | 52.69036 | 10.99215 | 98° | 15km/h | 33379m | -37.7m/s | -36.9°C | 1.6% | 7.5hPa | 2.5V | 00:00:00 | 02:52:33 | 00:00:00 | |
| DL1XH1-15 | 2026-09-01 00:42:33 | 52.69036 | 10.99178 | 95° | 13km/h | 33650m | -41.6m/s | -36.7°C | 1.6% | 7.2hPa | 2.6V | 03:04:33 | 02:52:26 | 00:00:00 | |
| DM0DOS-11 | 2026-09-01 00:42:33 | 52.69038 | 10.99168 | 108° | 13km/h | 33727m | -40.1m/s | -36.4°C | 1.6% | 7.2hPa | 2.6V | 03:04:35 | 02:52:24 | 00:00:00 | |
| DD8BA-10 | 2026-09-01 00:42:33 | 52.69035 | 10.99195 | 90° | 13km/h | 33492m | -37.8m/s | -36.8°C | 1.6% | 7.4hPa | 2.5V | 03:04:00 | 00:00:00 | 00:00:00 | |
| DL1XH-15 | 2026-09-01 00:42:32 | 52.69039 | 10.99162 | 96° | 13km/h | 33768m | -42.6m/s | -36.1°C | 1.5% | 7.1hPa | 2.5V | 03:04:36 | 02:52:23 | 00:00:00 | |
| DF8AY | 2026-09-01 00:42:31 | 52.69035 | 10.99186 | 93° | 9km/h | 33570m | -39.5m/s | -36.8°C | 0% | 7.3hPa | 2.5V | 03:05:17 | 02:52:28 | 00:00:00 | |
| DL1NUX | 2026-09-01 00:42:31 | 52.69039 | 10.99162 | 96° | 13km/h | 33768m | -42.6m/s | -36.1°C | 1.5% | 7.1hPa | 2.5V | 03:04:36 | 02:52:23 | 00:00:00 | |
| HSKMA3-T | 2026-09-01 00:42:28 | 52.69038 | 10.99168 | 108° | 13km/h | 33727m | -40.1m/s | -36.4°C | 0% | 7.2hPa | 2.6V | 03:05:17 | 02:52:24 | 00:00:00 | |
| DL1XH-west | 2026-09-01 00:42:28 | 52.69039 | 10.99162 | 97° | 13km/h | 33768m | -42.6m/s | -36.1°C | 0% | 7.1hPa | 2.5V | 03:05:17 | 02:52:23 | 00:00:00 | |
| DO2SHX-10 | 2026-09-01 00:42:27 | 52.69039 | 10.99162 | 97° | 16km/h | 33768m | -42.6m/s | -36.1°C | 1.5% | 7.1hPa | 2.5V | 03:04:00 | 02:52:23 | 00:00:00 | |
| DL1XH1-15 | 2026-09-01 00:42:23 | 52.69021 | 10.99121 | 9° | 20km/h | 34066m | -47.1m/s | -35.5°C | 1.5% | 6.8hPa | 2.5V | 03:04:43 | 02:52:16 | 00:00:00 | |
| DD8BA-10 | 2026-09-01 00:42:23 | 52.69037 | 10.99142 | 61° | 16km/h | 33892m | -42.5m/s | -35.8°C | 1.5% | 6.9hPa | 2.6V | 00:00:00 | 00:00:00 | 00:00:00 | |
| DG6HD-15 | 2026-09-01 00:42:22 | 52.69034 | 10.99135 | 47° | 22km/h | 33933m | -41.1m/s | -35.7°C | 0.1% | 6.9hPa | 2.6V | 03:05:00 | 00:00:00 | 00:00:00 | |
| DL1NUX | 2026-09-01 00:42:21 | 52.69009 | 10.99118 | 5° | 13km/h | 34196m | -40.5m/s | -35.3°C | 1.5% | 6.6hPa | 2.6V | 03:04:46 | 02:52:13 | 00:00:00 | |
| AA1-15 | 2026-09-01 00:42:20 | 52.69021 | 10.99121 | 9° | 20km/h | 34067m | -47.1m/s | -35.5°C | 0% | 6.8hPa | 2.5V | 03:05:17 | 02:52:16 | 00:00:00 | |
| BIOWL1-15 | 2026-09-01 00:42:17 | 52.69013 | 10.99118 | 6° | 13km/h | 34155m | -42.8m/s | -35.4°C | 0% | 6.7hPa | 2.6V | 03:06:08 | 02:52:14 | 00:00:00 | |
| DL1XH-west | 2026-09-01 00:42:14 | 52.69004 | 10.99114 | 35° | 13km/h | 34279m | -44.2m/s | -35.1°C | 0% | 6.6hPa | 2.6V | 03:05:17 | 02:52:11 | 00:00:00 | |
| EDDB2-11 | 2026-09-01 00:42:13 | 52.68996 | 10.99103 | 44° | 24km/h | 34367m | -46.6m/s | -34.5°C | 0.0% | 6.5hPa | 2.6V | 00:00:00 | 00:00:00 | 00:00:00 | |
| DM0DOS-11 | 2026-09-01 00:42:12 | 52.68978 | 10.99066 | 43° | 31km/h | 34550m | -44.8m/s | -33.8°C | 1.3% | 6.3hPa | 2.6V | 03:04:54 | 02:52:05 | 00:00:00 | |
| DO3MHA-11 | 2026-09-01 00:42:12 | 52.68996 | 10.99103 | 45° | 27km/h | 34367m | -46.5m/s | -34.4°C | 1.4% | 6.4hPa | 2.5V | 00:00:00 | 02:52:09 | 00:00:00 | |
| DL1XH-15 | 2026-09-01 00:42:11 | 52.68967 | 10.99053 | 19° | 20km/h | 34636m | -42.9m/s | -33.8°C | 1.3% | 6.2hPa | 2.5V | 03:04:56 | 02:52:03 | 00:00:00 | |
| DB0DAN | 2026-09-01 00:42:10 | 52.68987 | 10.99085 | 53° | 31km/h | 34458m | -45.7m/s | -34.2°C | 0% | 6.44hPa | 2.6V | 00:00:00 | 00:00:00 | 00:00:00 | |
| AA1-15 | 2026-09-01 00:42:09 | 52.68983 | 10.99075 | 44° | 31km/h | 34504m | -47.5m/s | -33.9°C | 0% | 6.4hPa | 2.6V | 03:05:17 | 02:52:06 | 00:00:00 | |
| HSKMA3-T | 2026-09-01 00:42:06 | 52.68967 | 10.99053 | 20° | 20km/h | 34636m | -42.9m/s | -33.8°C | 0% | 6.2hPa | 2.5V | 03:05:17 | 02:52:03 | 00:00:00 | |
| BIOWL1-15 | 2026-09-01 00:42:06 | 52.68943 | 10.99068 | 343° | 27km/h | 34879m | -54.7m/s | -33.5°C | 0% | 6.1hPa | 2.5V | 03:06:08 | 02:51:58 | 00:00:00 | |
| DO2SHX-10 | 2026-09-01 00:42:06 | 52.68967 | 10.99053 | 20° | 24km/h | 34637m | -42.8m/s | -33.7°C | 1.3% | 6.2hPa | 2.5V | 00:00:00 | 02:52:03 | 00:00:00 | |
| DL1XH1-15 | 2026-09-01 00:42:03 | 52.68933 | 10.99071 | 349° | 26km/h | 34973m | -40.9m/s | -33.3°C | 1.3% | 5.9hPa | 2.6V | 03:05:03 | 02:51:56 | 00:00:00 | |
| DL1XH-west | 2026-09-01 00:42:03 | 52.68949 | 10.99066 | 342° | 26km/h | 34824m | -58.3m/s | -33.6°C | 0% | 6.1hPa | 2.6V | 03:05:17 | 02:51:59 | 00:00:00 | |
| AA1-15 | 2026-09-01 00:41:59 | 52.68933 | 10.99071 | 350° | 26km/h | 34973m | -40.9m/s | -33.3°C | 0% | 5.9hPa | 2.6V | 03:05:17 | 02:51:56 | 00:00:00 | |
| SONDE2-11 | 2026-09-01 00:41:59 | 52.68926 | 10.99070 | 355° | 29km/h | 35004m | -33.5m/s | -33.3°C | 0.0% | 5.9hPa | 2.5V | 00:00:00 | 00:00:00 | 00:00:00 | |
| DF7PN | 2026-09-01 00:41:58 | 52.68919 | 10.99070 | 0° | 29km/h | 35032m | -25.4m/s | -33.4°C | 0.0% | 5.8hPa | 2.5V | 00:00:00 | 00:00:00 | 00:00:00 | |
| DF8AY | 2026-09-01 00:41:58 | 52.68919 | 10.99070 | 1° | 29km/h | 35032m | -25.4m/s | -33.4°C | 0% | 5.8hPa | 2.6V | 03:05:17 | 02:51:54 | 00:00:00 | |
| DL1XH-15 | 2026-09-01 00:41:57 | 52.68911 | 10.99068 | 10° | 33km/h | 35054m | -17.1m/s | -33.4°C | 1.2% | 5.8hPa | 2.5V | 03:05:06 | 02:51:53 | 00:00:00 | |
| HSKMA3-T | 2026-09-01 00:41:56 | 52.68911 | 10.99068 | 11° | 33km/h | 35054m | -17.1m/s | -33.4°C | 0% | 5.8hPa | 2.5V | 03:05:17 | 02:51:53 | 00:00:00 | |
| DL1XH-west | 2026-09-01 00:41:53 | 52.68874 | 10.99046 | 15° | 71km/h | 35075m | -0.7m/s | -33.4°C | 0% | 5.8hPa | 2.6V | 03:05:17 | 02:51:50 | 00:00:00 | |
| DM0DOS-11 | 2026-09-01 00:41:52 | 52.68800 | 10.99019 | 358° | 38km/h | 35054m | 4.4m/s | -33.5°C | 1.2% | 5.8hPa | 2.5V | 03:05:14 | 02:51:45 | 00:00:00 | |
| DL1XH-15 | 2026-09-01 00:41:52 | 52.68789 | 10.99020 | 29° | 4km/h | 35042m | 7.4m/s | -33.5°C | 1.2% | 5.8hPa | 2.6V | 03:05:16 | 02:51:43 | 00:00:00 | |
| BIOWL1-15 | 2026-09-01 00:41:49 | 52.68812 | 10.99020 | 4° | 55km/h | 35058m | 3.2m/s | -33.5°C | 0% | 5.8hPa | 2.5V | 03:06:08 | 02:51:46 | 00:00:00 | |
| DL1NUX | 2026-09-01 00:41:49 | 52.68794 | 10.99010 | 126° | 31km/h | 35030m | 5m/s | -33.5°C | 1.3% | 5.8hPa | 2.6V | 03:05:18 | 02:51:41 | 00:00:00 | |
| AA1-15 | 2026-09-01 00:41:48 | 52.68792 | 10.99020 | 354° | 20km/h | 35049m | 6.2m/s | -33.5°C | 0% | 5.8hPa | 2.6V | 03:05:17 | 02:51:44 | 00:00:00 | |
| DF8AY | 2026-09-01 00:41:47 | 52.68789 | 10.99020 | 30° | 4km/h | 35042m | 7.4m/s | -33.5°C | 0% | 5.8hPa | 2.6V | 03:05:17 | 02:51:43 | 00:00:00 | |
| HSKMA3-T | 2026-09-01 00:41:44 | 52.68794 | 10.99010 | 127° | 31km/h | 35030m | 5m/s | -33.5°C | 0% | 5.8hPa | 2.6V | 03:06:08 | 02:51:41 | 00:00:00 | |
| DL1XH-west | 2026-09-01 00:41:42 | 52.68801 | 10.98979 | 93° | 47km/h | 35022m | 3.3m/s | -33.6°C | 0% | 5.8hPa | 2.5V | 03:06:08 | 02:51:39 | 00:00:00 | |
| DO2SHX-10 | 2026-09-01 00:41:42 | 52.68801 | 10.98979 | 93° | 51km/h | 35022m | 3.3m/s | -33.6°C | 1.2% | 5.8hPa | 2.6V | 00:00:00 | 02:51:39 | 00:00:00 | |
| DO3MHA-11 | 2026-09-01 00:41:41 | 52.68799 | 10.98958 | 75° | 47km/h | 35018m | 4.4m/s | -33.7°C | 1.2% | 5.8hPa | 2.6V | 00:00:00 | 02:51:38 | 00:00:00 | |
| DL1NUX | 2026-09-01 00:41:39 | 52.68702 | 10.98902 | 330° | 47km/h | 34979m | 5.5m/s | -34°C | 1.3% | 5.9hPa | 2.6V | 03:05:28 | 02:51:31 | 00:00:00 | |
| AA1-15 | 2026-09-01 00:41:38 | 52.68749 | 10.98891 | 10° | 75km/h | 34994m | 5.5m/s | -33.9°C | 0% | 5.9hPa | 2.5V | 03:06:08 | 02:51:34 | 00:00:00 | |
| DL1XH-15 | 2026-09-01 00:41:37 | 52.68731 | 10.98890 | 356° | 69km/h | 34989m | 4.7m/s | -33.9°C | 1.3% | 5.8hPa | 2.5V | 03:05:26 | 02:51:33 | 00:00:00 | |
| BIOWL1-15 | 2026-09-01 00:41:35 | 52.68647 | 10.98850 | 19° | 69km/h | 34919m | 4.1m/s | -34.5°C | 0% | 5.9hPa | 2.6V | 03:06:08 | 02:51:21 | 00:00:00 | |
| DL1XH1-15 | 2026-09-01 00:41:33 | 52.68692 | 10.98916 | 85° | 22km/h | 34951m | 5.1m/s | -34.2°C | 1.3% | 5.9hPa | 2.6V | 03:05:33 | 02:51:26 | 00:00:00 | |
| HSKMA3-T | 2026-09-01 00:41:33 | 52.68694 | 10.98911 | 314° | 33km/h | 34973m | 6.5m/s | -34°C | 0% | 5.9hPa | 2.6V | 03:06:08 | 02:51:30 | 00:00:00 | |
| DL1XH-west | 2026-09-01 00:41:31 | 52.68690 | 10.98924 | 230° | 7km/h | 34961m | 5.3m/s | -34.1°C | 0% | 5.9hPa | 2.5V | 03:06:08 | 02:51:28 | 00:00:00 | |
| DL1XH-15 | 2026-09-01 00:41:31 | 52.68676 | 10.98876 | 40° | 58km/h | 34931m | 6.7m/s | -34.4°C | 1.3% | 5.9hPa | 2.5V | 03:05:36 | 02:51:23 | 00:00:00 | |
| AP2371 | 2026-09-01 00:41:30 | 52.68690 | 10.98924 | 231° | 7km/h | 34961m | 5.3m/s | -34.1°C | 0.0% | 5.9hPa | 2.6V | 03:06:00 | 00:00:00 | 00:00:00 | |
| DL1NUX | 2026-09-01 00:41:29 | 52.68647 | 10.98850 | 19° | 69km/h | 34919m | 4m/s | -34.5°C | 1.3% | 5.9hPa | 2.6V | 03:05:38 | 02:51:21 | 00:00:00 | |
| AA1-15 | 2026-09-01 00:41:27 | 52.68685 | 10.98891 | 52° | 47km/h | 34939m | 6.6m/s | -34.3°C | 0% | 5.9hPa | 2.5V | 03:06:08 | 02:51:24 | 00:00:00 | |
| BIOWL1-15 | 2026-09-01 00:41:24 | 52.68616 | 10.98841 | 358° | 55km/h | 34912m | 3.8m/s | -34.6°C | 0% | 5.9hPa | 2.5V | 03:06:08 | 02:51:19 | 00:00:00 | |
| DL1XH1-15 | 2026-09-01 00:41:23 | 52.68592 | 10.98858 | 288° | 20km/h | 34895m | 7.5m/s | -34.7°C | 1.4% | 5.9hPa | 2.6V | 03:05:43 | 02:51:16 | 00:00:00 | |
| DO2SHX-10 | 2026-09-01 00:41:23 | 52.68631 | 10.98843 | 10° | 53km/h | 34916m | 3.2m/s | -34.5°C | 1.3% | 5.9hPa | 2.6V | 00:00:00 | 02:51:20 | 00:00:00 | |
| HSKMA3-T | 2026-09-01 00:41:23 | 52.68631 | 10.98843 | 9° | 64km/h | 34916m | 3.2m/s | -34.5°C | 0% | 5.9hPa | 2.6V | 03:06:08 | 02:51:20 | 00:00:00 | |
| DM0DOS-11 | 2026-09-01 00:41:22 | 52.68592 | 10.98866 | 245° | 20km/h | 34888m | 6.6m/s | -34.8°C | 1.4% | 5.9hPa | 2.6V | 03:05:44 | 02:51:15 | 00:00:00 | |
| DL3AQ-11 | 2026-09-01 00:41:22 | 52.68605 | 10.98844 | 343° | 42km/h | 34908m | 5.3m/s | -34.6°C | 0.0% | 5.9hPa | 2.5V | 00:00:00 | 00:00:00 | 00:00:00 | |
| DL1XH-15 | 2026-09-01 00:41:21 | 52.68599 | 10.98873 | 178° | 13km/h | 34879m | 3.3m/s | -34.8°C | 1.4% | 5.9hPa | 2.5V | 03:05:46 | 02:51:13 | 00:00:00 | |
| DL1XH-west | 2026-09-01 00:41:21 | 52.68605 | 10.98844 | 344° | 42km/h | 34908m | 5.3m/s | -34.6°C | 0% | 5.9hPa | 2.5V | 03:06:08 | 02:51:18 | 00:00:00 | |
| DL1NUX | 2026-09-01 00:41:20 | 52.68600 | 10.98866 | 65° | 18km/h | 34870m | 5.5m/s | -34.9°C | 1.4% | 6hPa | 2.6V | 03:05:48 | 02:51:11 | 00:00:00 | |
| AA1-15 | 2026-09-01 00:41:16 | 52.68598 | 10.98873 | 179° | 13km/h | 34879m | 3.3m/s | -34.8°C | 0% | 5.9hPa | 2.5V | 03:06:08 | 02:51:13 | 00:00:00 | |
| BIOWL9-15 | 2026-09-01 00:41:16 | 52.68598 | 10.98873 | 178° | 11km/h | 34879m | 3.3m/s | -34.8°C | 0.0% | 5.9hPa | 2.6V | 00:00:00 | 00:00:00 | 00:00:00 | |
| S3001 | 2026-09-01 00:41:15 | 52.68600 | 10.98866 | 65° | 18km/h | 34871m | 5.5m/s | -34.9°C | 0.1% | 6.0hPa | 2.6V | 00:00:00 | 00:00:00 | 00:00:00 | |
| DO2SHX-10 | 2026-09-01 00:41:14 | 52.68600 | 10.98866 | 66° | 33km/h | 34871m | 5.5m/s | -34.8°C | 1.4% | 5.9hPa | 2.6V | 00:00:00 | 02:51:11 | 00:00:00 | |
| DL1XH1-15 | 2026-09-01 00:41:13 | 52.68551 | 10.98824 | 14° | 51km/h | 34839m | 4m/s | -34.9°C | 1.4% | 6hPa | 2.6V | 03:05:53 | 02:51:06 | 00:00:00 | |
| DB0NH | 2026-09-01 00:41:13 | 52.68596 | 10.98858 | 45° | 26km/h | 34865m | 7.1m/s | -34.8°C | 1.4% | 5.9hPa | 2.6V | 03:05:00 | 02:51:10 | 00:00:00 | |
| DM0DOS-11 | 2026-09-01 00:41:12 | 52.68540 | 10.98820 | 5° | 42km/h | 34835m | 4.3m/s | -35°C | 1.4% | 6hPa | 2.6V | 03:05:54 | 02:51:05 | 00:00:00 | |
| DF8AY | 2026-09-01 00:41:12 | 52.68588 | 10.98848 | 32° | 46km/h | 34857m | 7.5m/s | -34.9°C | 0% | 6hPa | 2.5V | 03:06:08 | 02:51:09 | 00:00:00 | |
| GOEST3-10 | 2026-09-01 00:41:12 | 52.68588 | 10.98848 | 32° | 49km/h | 34857m | 7.4m/s | -34.8°C | 1.4% | 5.9hPa | 2.5V | 00:00:00 | 00:00:00 | 00:00:00 | |
| DL1XH-15 | 2026-09-01 00:41:11 | 52.68525 | 10.98821 | 337° | 18km/h | 34824m | 6.6m/s | -35°C | 1.4% | 6hPa | 2.5V | 03:05:56 | 02:51:03 | 00:00:00 | |
| DL1XH-west | 2026-09-01 00:41:11 | 52.68577 | 10.98839 | 25° | 55km/h | 34850m | 6.5m/s | -34.9°C | 0% | 6hPa | 2.5V | 03:06:08 | 02:51:08 | 00:00:00 | |
| AA1-15 | 2026-09-01 00:41:05 | 52.68522 | 10.98830 | 245° | 15km/h | 34810m | 6.9m/s | -34.9°C | 0% | 6hPa | 2.6V | 03:06:08 | 02:51:01 | 00:00:00 | |
| TFSTFS | 2026-09-01 00:41:05 | 52.68522 | 10.98830 | 246° | 15km/h | 34810m | 6.9m/s | -35.0°C | 0.0% | 6.0hPa | 2.5V | 03:06:00 | 00:00:00 | 00:00:00 | |
| DO2SHX-10 | 2026-09-01 00:41:04 | 52.68522 | 10.98830 | 245° | 16km/h | 34810m | 6.9m/s | -34.9°C | 1.4% | 5.9hPa | 2.5V | 00:00:00 | 02:51:01 | 00:00:00 | |
| DL1XH1-15 | 2026-09-01 00:41:03 | 52.68525 | 10.98843 | 18° | 20km/h | 34787m | 6m/s | -34.9°C | 1.4% | 6.1hPa | 2.5V | 03:06:03 | 02:50:56 | 00:00:00 | |
| DM0DOS-11 | 2026-09-01 00:41:02 | 52.68519 | 10.98839 | 22° | 31km/h | 34780m | 6.8m/s | -34.8°C | 1.4% | 6hPa | 2.6V | 03:06:04 | 02:50:55 | 00:00:00 | |
| DL1XH-west | 2026-09-01 00:41:01 | 52.68529 | 10.98843 | 240° | 5km/h | 34796m | 3.8m/s | -34.9°C | 0% | 6hPa | 2.5V | 03:06:08 | 02:50:58 | 00:00:00 | |
| AA1-15 | 2026-09-01 00:40:54 | 52.68483 | 10.98810 | 31° | 37km/h | 34755m | 5.1m/s | -34.7°C | 0% | 6.1hPa | 2.5V | 03:06:08 | 02:50:51 | 00:00:00 | |
| DL1XH1-15 | 2026-09-01 00:40:54 | 52.68468 | 10.98778 | 73° | 9km/h | 34721m | 6m/s | -34.5°C | 1.3% | 6.1hPa | 2.5V | 03:06:14 | 02:50:45 | 00:00:00 | |
| HSKMA3-T | 2026-09-01 00:40:51 | 52.68469 | 10.98790 | 66° | 13km/h | 34738m | 6m/s | -34.6°C | 0% | 6.1hPa | 2.6V | 03:06:59 | 02:50:48 | 00:00:00 | |
| DL1XH-west | 2026-09-01 00:40:49 | 52.68468 | 10.98778 | 74° | 9km/h | 34721m | 6m/s | -34.5°C | 0% | 6.1hPa | 2.5V | 03:06:59 | 02:50:45 | 00:00:00 | |
| DL1NUX | 2026-09-01 00:40:49 | 52.68456 | 10.98764 | 20° | 20km/h | 34698m | 5.4m/s | -34.5°C | 1.3% | 6.1hPa | 2.6V | 03:06:18 | 02:50:41 | 00:00:00 | |
| AA1-15 | 2026-09-01 00:40:44 | 52.68456 | 10.98764 | 21° | 20km/h | 34698m | 5.4m/s | -34.5°C | 0% | 6.1hPa | 2.6V | 03:06:59 | 02:50:41 | 00:00:00 | |
| DB0NH | 2026-09-01 00:40:43 | 52.68450 | 10.98761 | 20° | 22km/h | 34693m | 5.6m/s | -34.4°C | 1.4% | 6.1hPa | 2.6V | 00:00:00 | 02:50:40 | 00:00:00 | |
| GOEST3-10 | 2026-09-01 00:40:42 | 52.68445 | 10.98758 | 21° | 20km/h | 34688m | 5.7m/s | -34.4°C | 1.3% | 6.1hPa | 2.6V | 03:06:00 | 00:00:00 | 00:00:00 | |
| DF7ER-10 | 2026-09-01 00:40:41 | 52.68445 | 10.98758 | 21° | 20km/h | 34688m | 5.8m/s | -34.5°C | 0.0% | 6.1hPa | 2.6V | 03:06:00 | 00:00:00 | 00:00:00 | |
| DB0DAN | 2026-09-01 00:40:40 | 52.68436 | 10.98751 | 32° | 18km/h | 34675m | 5.6m/s | -34.5°C | 0% | 6.16hPa | 2.6V | 00:00:00 | 00:00:00 | 00:00:00 | |
| HSKMA3-T | 2026-09-01 00:40:40 | 52.68436 | 10.98751 | 33° | 20km/h | 34675m | 5.6m/s | -34.5°C | 0% | 6.2hPa | 2.6V | 03:06:59 | 02:50:37 | 00:00:00 | |
| DL1XH-15 | 2026-09-01 00:40:40 | 52.68422 | 10.98724 | 48° | 27km/h | 34653m | 6.2m/s | -34.4°C | 1.4% | 6.2hPa | 2.6V | 03:06:26 | 02:50:33 | 00:00:00 | |
| DL1XH-west | 2026-09-01 00:40:39 | 52.68433 | 10.98746 | 46° | 20km/h | 34670m | 5.1m/s | -34.5°C | 0% | 6.1hPa | 2.6V | 03:06:59 | 02:50:36 | 00:00:00 | |
| DF8AY | 2026-09-01 00:40:38 | 52.68429 | 10.98740 | 50° | 22km/h | 34665m | 5.3m/s | -34.4°C | 0% | 6.2hPa | 2.5V | 03:06:59 | 02:50:35 | 00:00:00 | |
| BIOWL1-15 | 2026-09-01 00:40:37 | 52.68426 | 10.98733 | 51° | 24km/h | 34659m | 5.1m/s | -34.4°C | 0% | 6.1hPa | 2.5V | 03:11:14 | 02:50:34 | 00:00:00 | |
| AA1-15 | 2026-09-01 00:40:34 | 52.68402 | 10.98692 | 45° | 20km/h | 34631m | 4.8m/s | -34.4°C | 0% | 6.2hPa | 2.5V | 03:06:59 | 02:50:29 | 00:00:00 | |
| HSKMA3-T | 2026-09-01 00:40:30 | 52.68397 | 10.98682 | 63° | 9km/h | 34620m | 6.5m/s | -34.4°C | 0% | 6.2hPa | 2.6V | 03:06:59 | 02:50:27 | 00:00:00 | |
| DL1XH-west | 2026-09-01 00:40:29 | 52.68397 | 10.98679 | 85° | 5km/h | 34614m | 6m/s | -34.4°C | 0% | 6.2hPa | 2.6V | 03:06:59 | 02:50:26 | 00:00:00 | |
| DF8AY | 2026-09-01 00:40:27 | 52.68396 | 10.98675 | 49° | 7km/h | 34605m | 3.9m/s | -34.5°C | 0% | 6.2hPa | 2.5V | 03:06:59 | 02:50:24 | 00:00:00 | |
| DL1XH-15 | 2026-09-01 00:40:27 | 52.68394 | 10.98672 | 32° | 13km/h | 34601m | 4.6m/s | -34.5°C | 1.3% | 6.2hPa | 2.5V | 03:06:36 | 02:50:23 | 00:00:00 | |
| BIOWL1-15 | 2026-09-01 00:40:26 | 52.68340 | 10.98567 | 29° | 31km/h | 34516m | 5m/s | -35°C | 0% | 6.3hPa | 2.6V | 03:11:14 | 02:50:08 | 00:00:00 | |
| AA1-15 | 2026-09-01 00:40:22 | 52.68368 | 10.98648 | 34° | 42km/h | 34576m | 5.1m/s | -34.6°C | 0% | 6.2hPa | 2.6V | 03:06:59 | 02:50:19 | 00:00:00 | |
| DM0DOS-11 | 2026-09-01 00:40:21 | 52.68348 | 10.98606 | 84° | 22km/h | 34555m | 6.8m/s | -34.7°C | 1.4% | 6.2hPa | 2.5V | 03:06:44 | 02:50:15 | 00:00:00 | |
| HSKMA3-T | 2026-09-01 00:40:19 | 52.68350 | 10.98616 | 64° | 29km/h | 34561m | 6.3m/s | -34.7°C | 0% | 6.2hPa | 2.5V | 03:06:59 | 02:50:16 | 00:00:00 | |
| DL1NUX | 2026-09-01 00:40:19 | 52.68352 | 10.98581 | 76° | 11km/h | 34532m | 5m/s | -34.9°C | 1.3% | 6.2hPa | 2.5V | 03:06:48 | 02:50:11 | 00:00:00 | |
| DL1XH-15 | 2026-09-01 00:40:19 | 52.68350 | 10.98591 | 120° | 16km/h | 34542m | 5.3m/s | -34.9°C | 1.3% | 6.3hPa | 2.6V | 03:06:46 | 02:50:13 | 00:00:00 | |
| DL1XH-west | 2026-09-01 00:40:18 | 52.68348 | 10.98606 | 85° | 22km/h | 34555m | 6.8m/s | -34.7°C | 0% | 6.2hPa | 2.5V | 03:06:59 | 02:50:15 | 00:00:00 | |
| DF8AY | 2026-09-01 00:40:16 | 52.68350 | 10.98591 | 121° | 16km/h | 34542m | 5.3m/s | -34.9°C | 0% | 6.3hPa | 2.6V | 03:06:59 | 02:50:13 | 00:00:00 | |
| AA1-15 | 2026-09-01 00:40:12 | 52.68346 | 10.98572 | 31° | 24km/h | 34521m | 5.1m/s | -35°C | 0% | 6.3hPa | 2.5V | 03:06:59 | 02:50:09 | 00:00:00 | |
| DM0DOS-11 | 2026-09-01 00:40:11 | 52.68318 | 10.98541 | 46° | 37km/h | 34500m | 5.7m/s | -35.2°C | 1.4% | 6.3hPa | 2.5V | 03:06:54 | 02:50:05 | 00:00:00 | |
| HSKMA3-T | 2026-09-01 00:40:08 | 52.68318 | 10.98541 | 47° | 37km/h | 34500m | 5.7m/s | -35.2°C | 0% | 6.3hPa | 2.5V | 03:06:59 | 02:50:05 | 00:00:00 | |
| DF8AY-15 | 2026-09-01 00:40:08 | 52.68318 | 10.98540 | 47° | 31km/h | 34500m | 5.6m/s | -35.2°C | 1.4% | 6.3hPa | 2.6V | 00:00:00 | 02:50:05 | 00:00:00 | |
| DL1XH-15 | 2026-09-01 00:40:07 | 52.68307 | 10.98515 | 64° | 38km/h | 34489m | 5.5m/s | -35.4°C | 1.4% | 6.3hPa | 2.6V | 03:06:56 | 02:50:03 | 00:00:00 | |
| DL1XH-west | 2026-09-01 00:40:07 | 52.68312 | 10.98528 | 56° | 38km/h | 34495m | 5.8m/s | -35.3°C | 0% | 6.3hPa | 2.5V | 03:06:59 | 02:50:04 | 00:00:00 | |
| DF8AY | 2026-09-01 00:40:06 | 52.68300 | 10.98486 | 69° | 37km/h | 34479m | 4.3m/s | -35.4°C | 0% | 6.3hPa | 2.5V | 03:06:59 | 02:50:01 | 00:00:00 | |
| DL1NUX | 2026-09-01 00:40:04 | 52.68300 | 10.98486 | 69° | 37km/h | 34479m | 4.3m/s | -35.4°C | 1.4% | 6.3hPa | 2.5V | 03:06:58 | 02:50:01 | 00:00:00 | |
| DL1XH1-15 | 2026-09-01 00:40:03 | 52.68266 | 10.98433 | 19° | 29km/h | 34446m | 4.9m/s | -35.4°C | 1.4% | 6.3hPa | 2.5V | 03:07:04 | 02:49:55 | 00:00:00 | |
| DO2SHX-10 | 2026-09-01 00:40:02 | 52.68292 | 10.98461 | 54° | 33km/h | 34470m | 5.6m/s | -35.4°C | 1.4% | 6.3hPa | 2.6V | 00:00:00 | 02:49:59 | 00:00:00 | |
| AA1-15 | 2026-09-01 00:40:02 | 52.68287 | 10.98451 | 42° | 33km/h | 34463m | 6.2m/s | -35.4°C | 0% | 6.3hPa | 2.6V | 03:07:50 | 02:49:58 | 00:00:00 | |
| DD8BA-10 | 2026-09-01 00:40:01 | 52.68287 | 10.98451 | 42° | 26km/h | 34464m | 6.1m/s | -35.4°C | 1.4% | 6.3hPa | 2.6V | 00:00:00 | 00:00:00 | 00:00:00 | |
| DL1NUX | 2026-09-01 00:39:59 | 52.68249 | 10.98414 | 73° | 18km/h | 34424m | 5.3m/s | -35.4°C | 1.4% | 6.4hPa | 2.6V | 03:07:08 | 02:49:51 | 00:00:00 | |
| HSKMA3-T | 2026-09-01 00:39:58 | 52.68259 | 10.98429 | 22° | 26km/h | 34441m | 4.8m/s | -35.4°C | 0% | 6.4hPa | 2.5V | 03:07:50 | 02:49:54 | 00:00:00 | |
| DL1XH-15 | 2026-09-01 00:39:58 | 52.68254 | 10.98425 | 33° | 20km/h | 34436m | 6.3m/s | -35.4°C | 1.4% | 6.4hPa | 2.6V | 03:07:06 | 02:49:53 | 00:00:00 | |
| DL1XH-west | 2026-09-01 00:39:56 | 52.68254 | 10.98425 | 33° | 20km/h | 34436m | 6.3m/s | -35.4°C | 0% | 6.4hPa | 2.6V | 03:07:50 | 02:49:53 | 00:00:00 | |
| DF8AY | 2026-09-01 00:39:54 | 52.68249 | 10.98414 | 73° | 18km/h | 34424m | 5.3m/s | -35.4°C | 0% | 6.4hPa | 2.6V | 03:08:41 | 02:49:51 | 00:00:00 | |
| SP3WXH-11 | 2026-09-01 00:39:54 | 52.68249 | 10.98414 | 73° | 16km/h | 34424m | 5.3m/s | -35.4°C | 0.0% | 6.4hPa | 2.5V | 00:00:00 | 00:00:00 | 00:00:00 | |
| SMARD9-15 | 2026-09-01 00:39:53 | 52.68246 | 10.98397 | 67° | 24km/h | 34414m | 4.0m/s | -35.4°C | 0.1% | 6.4hPa | 2.5V | 00:00:00 | 00:00:00 | 00:00:00 | |
| DO2SHX-10 | 2026-09-01 00:39:52 | 52.68246 | 10.98397 | 68° | 24km/h | 34415m | 3.9m/s | -35.4°C | 1.4% | 6.3hPa | 2.5V | 03:07:00 | 02:49:49 | 00:00:00 | |
| DM0DOS-11 | 2026-09-01 00:39:51 | 52.68222 | 10.98364 | 21° | 42km/h | 34392m | 5.2m/s | -35.6°C | 1.4% | 6.4hPa | 2.6V | 03:07:14 | 02:49:45 | 00:00:00 | |
| AA1-15 | 2026-09-01 00:39:51 | 52.68243 | 10.98388 | 57° | 26km/h | 34410m | 4.9m/s | -35.5°C | 0% | 6.4hPa | 2.5V | 03:07:50 | 02:49:48 | 00:00:00 | |
| DF8AY-15 | 2026-09-01 00:39:48 | 52.68222 | 10.98364 | 22° | 31km/h | 34392m | 5.1m/s | -35.6°C | 1.4% | 6.3hPa | 2.6V | 00:00:00 | 02:49:45 | 00:00:00 | |
| DL1XH-15 | 2026-09-01 00:39:47 | 52.68202 | 10.98354 | 15° | 40km/h | 34383m | 4.7m/s | -35.8°C | 1.4% | 6.4hPa | 2.5V | 03:07:16 | 02:49:43 | 00:00:00 | |
| HSKMA3-T | 2026-09-01 00:39:47 | 52.68202 | 10.98354 | 15° | 40km/h | 34383m | 4.7m/s | -35.8°C | 0% | 6.4hPa | 2.5V | 03:07:50 | 02:49:43 | 00:00:00 | |
| BIOWL1-15 | 2026-09-01 00:39:44 | 52.68186 | 10.98346 | 18° | 26km/h | 34372m | 6.4m/s | -35.9°C | 0% | 6.5hPa | 2.6V | 03:11:14 | 02:49:41 | 00:00:00 | |
| DB0NH | 2026-09-01 00:39:43 | 52.68181 | 10.98342 | 22° | 27km/h | 34366m | 6.1m/s | -35.9°C | 1.4% | 6.4hPa | 2.6V | 00:00:00 | 02:49:40 | 00:00:00 | |
| DO2SHX-10 | 2026-09-01 00:39:42 | 52.68177 | 10.98340 | 29° | 15km/h | 34360m | 5.4m/s | -35.9°C | 1.4% | 6.4hPa | 2.5V | 00:00:00 | 02:49:39 | 00:00:00 | |
| DL1XH-15 | 2026-09-01 00:39:41 | 52.68142 | 10.98326 | 5° | 42km/h | 34328m | 4.7m/s | -36.1°C | 1.4% | 6.5hPa | 2.5V | 03:07:26 | 02:49:33 | 00:00:00 | |
| DB0DAN | 2026-09-01 00:39:40 | 52.68171 | 10.98335 | 19° | 16km/h | 34350m | 4.8m/s | -36°C | 0.1% | 6.45hPa | 2.5V | 00:00:00 | 00:00:00 | 00:00:00 | |
| DM0DOS-11 | 2026-09-01 00:39:40 | 52.68160 | 10.98330 | 10° | 31km/h | 34339m | 6m/s | -36.1°C | 1.4% | 6.4hPa | 2.6V | 03:07:24 | 02:49:35 | 00:00:00 | |
| AA1-15 | 2026-09-01 00:39:40 | 52.68167 | 10.98332 | 14° | 22km/h | 34345m | 5.7m/s | -36°C | 0% | 6.4hPa | 2.6V | 03:07:50 | 02:49:36 | 00:00:00 | |
| DB0UT-7 | 2026-09-01 00:39:39 | 52.68167 | 10.98332 | 14° | 31km/h | 34345m | 5.7m/s | -36.0°C | 1.4% | 6.4hPa | 2.6V | 00:00:00 | 02:49:36 | 00:00:00 | |
| EDDB2-11 | 2026-09-01 00:39:38 | 52.68151 | 10.98328 | 6° | 37km/h | 34334m | 5.6m/s | -36.1°C | 0.1% | 6.5hPa | 2.5V | 00:00:00 | 00:00:00 | 00:00:00 | |
| NBG1-10 | 2026-09-01 00:39:37 | 52.68151 | 10.98328 | 7° | 31km/h | 34334m | 5.5m/s | -36.0°C | 1.5% | 6.4hPa | 2.5V | 00:00:00 | 02:49:34 | 00:00:00 | |
| DO2SHX-10 | 2026-09-01 00:39:36 | 52.68141 | 10.98326 | 6° | 42km/h | 34329m | 4.6m/s | -36.1°C | 1.4% | 6.4hPa | 2.5V | 00:00:00 | 02:49:33 | 00:00:00 | |
| DL1NUX | 2026-09-01 00:39:35 | 52.68120 | 10.98321 | 11° | 40km/h | 34319m | 4.9m/s | -36.2°C | 1.5% | 6.5hPa | 2.5V | 03:07:28 | 02:49:31 | 00:00:00 | |
| DL1XH-west | 2026-09-01 00:39:34 | 52.68120 | 10.98321 | 12° | 40km/h | 34319m | 4.9m/s | -36.2°C | 0% | 6.5hPa | 2.5V | 03:07:50 | 02:49:31 | 00:00:00 | |
| BIOWL1-15 | 2026-09-01 00:39:33 | 52.68111 | 10.98317 | 16° | 35km/h | 34313m | 5.9m/s | -36.2°C | 0% | 6.5hPa | 2.6V | 03:11:14 | 02:49:30 | 00:00:00 | |
| DF8AY | 2026-09-01 00:39:31 | 52.68097 | 10.98308 | 32° | 26km/h | 34302m | 5.2m/s | -36.3°C | 0% | 6.5hPa | 2.6V | 03:08:41 | 02:49:28 | 00:00:00 | |
| DD8BA-10 | 2026-09-01 00:39:31 | 52.68097 | 10.98308 | 32° | 31km/h | 34302m | 5.1m/s | -36.2°C | 1.5% | 6.5hPa | 2.6V | 00:00:00 | 00:00:00 | 00:00:00 | |
| DO2SHX-10 | 2026-09-01 00:39:30 | 52.68092 | 10.98302 | 36° | 24km/h | 34297m | 4.6m/s | -36.2°C | 1.5% | 6.4hPa | 2.6V | 00:00:00 | 02:49:27 | 00:00:00 | |
| DL1NUX | 2026-09-01 00:39:29 | 52.68047 | 10.98283 | 5° | 44km/h | 34265m | 4.8m/s | -36.1°C | 1.4% | 6.5hPa | 2.6V | 03:07:38 | 02:49:21 | 00:00:00 | |
| AA1-15 | 2026-09-01 00:39:28 | 52.68082 | 10.98292 | 23° | 26km/h | 34288m | 4.5m/s | -36.3°C | 0% | 6.5hPa | 2.6V | 03:07:50 | 02:49:25 | 00:00:00 | |
| DF8AY-15 | 2026-09-01 00:39:28 | 52.68082 | 10.98292 | 24° | 31km/h | 34288m | 4.4m/s | -36.2°C | 1.5% | 6.5hPa | 2.5V | 00:00:00 | 02:49:25 | 00:00:00 | |
| DL1XH-15 | 2026-09-01 00:39:27 | 52.68068 | 10.98286 | 7° | 35km/h | 34277m | 6.2m/s | -36.2°C | 1.5% | 6.5hPa | 2.5V | 03:07:36 | 02:49:23 | 00:00:00 | |
| DL1XH-west | 2026-09-01 00:39:24 | 52.68047 | 10.98283 | 6° | 44km/h | 34265m | 4.9m/s | -36.2°C | 0% | 6.5hPa | 2.6V | 03:07:50 | 02:49:21 | 00:00:00 | |
| HSKMA3-T | 2026-09-01 00:39:23 | 52.68037 | 10.98281 | 8° | 42km/h | 34261m | 4m/s | -36.1°C | 0% | 6.5hPa | 2.6V | 03:07:50 | 02:49:20 | 00:00:00 | |
| BIOWL1-15 | 2026-09-01 00:39:23 | 52.68019 | 10.98273 | 23° | 31km/h | 34252m | 5.8m/s | -36.1°C | 0% | 6.5hPa | 2.5V | 03:11:14 | 02:49:18 | 00:00:00 | |
| DL3AQ-11 | 2026-09-01 00:39:22 | 52.68019 | 10.98273 | 22° | 29km/h | 34252m | 5.8m/s | -36.1°C | 0.1% | 6.5hPa | 2.6V | 00:00:00 | 00:00:00 | 00:00:00 | |
| DL1XH-15 | 2026-09-01 00:39:21 | 52.68003 | 10.98249 | 18° | 11km/h | 34224m | 4.7m/s | -36.1°C | 1.5% | 6.6hPa | 2.6V | 03:07:46 | 02:49:13 | 00:00:00 | |
| DF8AY | 2026-09-01 00:39:21 | 52.68009 | 10.98262 | 53° | 18km/h | 34239m | 6.2m/s | -36.1°C | 0% | 6.6hPa | 2.5V | 03:08:41 | 02:49:16 | 00:00:00 | |
| AA1-15 | 2026-09-01 00:39:17 | 52.68006 | 10.98251 | 56° | 11km/h | 34228m | 4.5m/s | -36.1°C | 0% | 6.5hPa | 2.6V | 03:07:50 | 02:49:14 | 00:00:00 | |
| DL1XH-west | 2026-09-01 00:39:14 | 52.67994 | 10.98249 | 351° | 29km/h | 34212m | 6.3m/s | -36.2°C | 0% | 6.6hPa | 2.5V | 03:07:50 | 02:49:11 | 00:00:00 | |
| HSKMA3-T | 2026-09-01 00:39:12 | 52.67976 | 10.98253 | 357° | 42km/h | 34201m | 4.8m/s | -36.2°C | 0% | 6.6hPa | 2.6V | 03:07:50 | 02:49:09 | 00:00:00 | |
| DJ2DS-15 | 2026-09-01 00:39:12 | 52.67976 | 10.98253 | 356° | 42km/h | 34201m | 4.8m/s | -36.2°C | 0.1% | 6.6hPa | 2.6V | 00:00:00 | 00:00:00 | 00:00:00 | |
| DL1XH-15 | 2026-09-01 00:39:11 | 52.67931 | 10.98227 | 68° | 20km/h | 34170m | 4.8m/s | -36.3°C | 1.5% | 6.6hPa | 2.6V | 03:07:56 | 02:49:03 | 00:00:00 | |
| DL4XJ-10 | 2026-09-01 00:39:11 | 52.67965 | 10.98253 | 2° | 26km/h | 34197m | 4.2m/s | -35.8°C | 0% | 0hPa | 2.5V | 00:00:00 | 00:00:00 | 00:00:00 | |
| DM0DOS-11 | 2026-09-01 00:39:09 | 52.67938 | 10.98242 | 37° | 27km/h | 34181m | 6m/s | -36.2°C | 1.5% | 6.6hPa | 2.5V | 03:07:54 | 02:49:05 | 00:00:00 | |
| DF8AY | 2026-09-01 00:39:09 | 52.67945 | 10.98248 | 21° | 35km/h | 34187m | 5.6m/s | -36.2°C | 0% | 6.6hPa | 2.5V | 03:08:41 | 02:49:06 | 00:00:00 | |
| DL1NUX | 2026-09-01 00:39:09 | 52.67929 | 10.98215 | 51° | 13km/h | 34160m | 4.9m/s | -36.3°C | 1.5% | 6.6hPa | 2.5V | 03:07:58 | 02:49:01 | 00:00:00 | |
| AA1-15 | 2026-09-01 00:39:06 | 52.67931 | 10.98227 | 69° | 20km/h | 34170m | 4.9m/s | -36.3°C | 0% | 6.6hPa | 2.6V | 03:08:41 | 02:49:03 | 00:00:00 | |
| DL1XH-west | 2026-09-01 00:39:03 | 52.67926 | 10.98212 | 21° | 13km/h | 34155m | 5.7m/s | -36.3°C | 0% | 6.6hPa | 2.6V | 03:08:41 | 02:49:00 | 00:00:00 | |
| HSKMA3-T | 2026-09-01 00:39:02 | 52.67922 | 10.98211 | 2° | 20km/h | 34149m | 6.1m/s | -36.4°C | 0% | 6.7hPa | 2.6V | 03:08:41 | 02:48:59 | 00:00:00 | |
| DF8AY | 2026-09-01 00:38:59 | 52.67891 | 10.98209 | 16° | 35km/h | 34130m | 4.2m/s | -36.5°C | 0% | 6.6hPa | 2.5V | 03:08:41 | 02:48:55 | 00:00:00 | |
| DL1NUX | 2026-09-01 00:38:59 | 52.67871 | 10.98176 | 81° | 26km/h | 34108m | 4.8m/s | -36.5°C | 1.5% | 6.7hPa | 2.5V | 03:08:08 | 02:48:51 | 00:00:00 | |
| DO9LL-15 | 2026-09-01 00:38:59 | 52.67899 | 10.98212 | 4° | 26km/h | 34134m | 3.8m/s | -36.4°C | 1.5% | 6.6hPa | 2.5V | 03:08:00 | 02:48:56 | 00:00:00 | |
| AM1SDL-15 | 2026-09-01 00:38:58 | 52.67890 | 10.98209 | 16° | 26km/h | 34130m | 4.2m/s | -36.4°C | 1.5% | 6.6hPa | 2.5V | 00:00:00 | 02:48:55 | 00:00:00 | |
| DL1XH-15 | 2026-09-01 00:38:57 | 52.67877 | 10.98196 | 46° | 29km/h | 34119m | 6.5m/s | -36.5°C | 1.5% | 6.7hPa | 2.6V | 03:08:06 | 02:48:53 | 00:00:00 | |
| AA1-15 | 2026-09-01 00:38:55 | 52.67871 | 10.98176 | 82° | 26km/h | 34108m | 4.8m/s | -36.5°C | 0% | 6.7hPa | 2.5V | 03:08:41 | 02:48:51 | 00:00:00 | |
| DO2SHX-10 | 2026-09-01 00:38:54 | 52.67871 | 10.98176 | 82° | 20km/h | 34108m | 4.8m/s | -36.5°C | 1.5% | 6.6hPa | 2.5V | 00:00:00 | 02:48:51 | 00:00:00 | |
| DL1XH1-15 | 2026-09-01 00:38:53 | 52.67859 | 10.98164 | 330° | 27km/h | 34075m | 5.3m/s | -36.6°C | 1.5% | 6.7hPa | 2.5V | 03:08:14 | 02:48:45 | 00:00:00 | |
| DL1XH-west | 2026-09-01 00:38:53 | 52.67871 | 10.98167 | 92° | 20km/h | 34103m | 4m/s | -36.5°C | 0% | 6.7hPa | 2.5V | 03:08:41 | 02:48:50 | 00:00:00 | |
| HSKMA3-T | 2026-09-01 00:38:51 | 52.67870 | 10.98156 | 48° | 7km/h | 34094m | 5.6m/s | -36.5°C | 0% | 6.7hPa | 2.6V | 03:08:41 | 02:48:48 | 00:00:00 | |
| DL1XH-15 | 2026-09-01 00:38:51 | 52.67846 | 10.98171 | 353° | 26km/h | 34067m | 3.6m/s | -36.6°C | 1.5% | 6.7hPa | 2.6V | 03:08:16 | 02:48:43 | 00:00:00 | |
| SMARD9-15 | 2026-09-01 00:38:51 | 52.67864 | 10.98158 | 329° | 20km/h | 34081m | 6.7m/s | -36.6°C | 0.1% | 6.7hPa | 2.5V | 00:00:00 | 00:00:00 | 00:00:00 | |
| DL1NUX | 2026-09-01 00:38:49 | 52.67836 | 10.98166 | 52° | 20km/h | 34057m | 6.8m/s | -36.7°C | 1.5% | 6.7hPa | 2.5V | 03:08:18 | 02:48:41 | 00:00:00 | |
| DF8AY | 2026-09-01 00:38:47 | 52.67846 | 10.98171 | 353° | 26km/h | 34067m | 3.6m/s | -36.7°C | 0% | 6.7hPa | 2.6V | 03:08:41 | 02:48:43 | 00:00:00 | |
| AA1-15 | 2026-09-01 00:38:44 | 52.67834 | 10.98156 | 83° | 27km/h | 34050m | 7.5m/s | -36.7°C | 0% | 6.8hPa | 2.5V | 03:08:41 | 02:48:40 | 00:00:00 | |
| DO2SHX-10 | 2026-09-01 00:38:44 | 52.67836 | 10.98165 | 53° | 27km/h | 34057m | 6.7m/s | -36.6°C | 1.5% | 6.7hPa | 2.5V | 00:00:00 | 02:48:41 | 00:00:00 | |
| DM0DOS-11 | 2026-09-01 00:38:43 | 52.67842 | 10.98096 | 96° | 15km/h | 34023m | 6.2m/s | -36.5°C | 1.5% | 6.8hPa | 2.5V | 03:08:24 | 02:48:35 | 00:00:00 | |
| DL1XH-west | 2026-09-01 00:38:42 | 52.67834 | 10.98144 | 97° | 35km/h | 34043m | 6.7m/s | -36.6°C | 0% | 6.8hPa | 2.6V | 03:08:41 | 02:48:39 | 00:00:00 | |
| HSKMA3-T | 2026-09-01 00:38:39 | 52.67841 | 10.98103 | 106° | 26km/h | 34028m | 4.8m/s | -36.6°C | 0% | 6.8hPa | 2.5V | 03:08:41 | 02:48:36 | 00:00:00 | |
| DB0UT-7 | 2026-09-01 00:38:39 | 52.67841 | 10.98103 | 107° | 22km/h | 34028m | 4.8m/s | -36.5°C | 1.5% | 6.7hPa | 2.6V | 03:08:00 | 02:48:36 | 00:00:00 | |
| MECKS9 | 2026-09-01 00:38:38 | 52.67840 | 10.98103 | 107° | 26km/h | 34028m | 4.8m/s | -36.6°C | 0.1% | 6.8hPa | 2.6V | 00:00:00 | 00:00:00 | 00:00:00 | |
| DL1XH-15 | 2026-09-01 00:38:37 | 52.67839 | 10.98092 | 339° | 13km/h | 34009m | 6.3m/s | -36.5°C | 1.5% | 6.8hPa | 2.6V | 03:08:26 | 02:48:33 | 00:00:00 | |
| DL1NUX | 2026-09-01 00:38:37 | 52.67823 | 10.98093 | 53° | 20km/h | 33989m | 5.5m/s | -36.6°C | 1.5% | 6.8hPa | 2.5V | 03:08:30 | 02:48:29 | 00:00:00 | |
| AA1-15 | 2026-09-01 00:38:34 | 52.67831 | 10.98097 | 345° | 18km/h | 33999m | 4.3m/s | -36.6°C | 0% | 6.8hPa | 2.6V | 03:08:41 | 02:48:31 | 00:00:00 | |
| DL1XH-west | 2026-09-01 00:38:31 | 52.67821 | 10.98085 | 78° | 27km/h | 33984m | 6.2m/s | -36.7°C | 0% | 6.8hPa | 2.5V | 03:08:41 | 02:48:28 | 00:00:00 | |
| HSKMA3-T | 2026-09-01 00:38:29 | 52.67820 | 10.98054 | 93° | 44km/h | 33971m | 6m/s | -36.7°C | 0% | 6.8hPa | 2.6V | 03:08:41 | 02:48:26 | 00:00:00 | |
| BIOWL1-15 | 2026-09-01 00:38:25 | 52.67825 | 10.97985 | 97° | 15km/h | 33944m | 5.9m/s | -36.8°C | 0% | 6.8hPa | 2.6V | 03:11:14 | 02:48:21 | 00:00:00 | |
| DL1NUX | 2026-09-01 00:38:24 | 52.67826 | 10.97978 | 126° | 5km/h | 33932m | 6m/s | -36.9°C | 1.5% | 6.9hPa | 2.5V | 03:08:40 | 02:48:19 | 00:00:00 | |
| AA1-15 | 2026-09-01 00:38:24 | 52.67826 | 10.97981 | 107° | 9km/h | 33938m | 6.1m/s | -36.8°C | 0% | 6.8hPa | 2.5V | 03:08:41 | 02:48:20 | 00:00:00 | |
| DL1XH-west | 2026-09-01 00:38:21 | 52.67828 | 10.97976 | 145° | 7km/h | 33927m | 5.9m/s | -36.9°C | 0% | 6.9hPa | 2.6V | 03:08:41 | 02:48:18 | 00:00:00 | |
| HSKMA3-T | 2026-09-01 00:38:18 | 52.67833 | 10.97966 | 119° | 15km/h | 33910m | 5m/s | -36.9°C | 0% | 6.9hPa | 2.5V | 03:09:32 | 02:48:15 | 00:00:00 | |
| DL1NUX | 2026-09-01 00:38:17 | 52.67830 | 10.97911 | 74° | 31km/h | 33874m | 5.6m/s | -37.1°C | 1.5% | 6.9hPa | 2.5V | 03:08:50 | 02:48:09 | 00:00:00 | |
| DL1XH-15 | 2026-09-01 00:38:17 | 52.67836 | 10.97953 | 94° | 20km/h | 33899m | 6.4m/s | -37°C | 1.5% | 6.9hPa | 2.5V | 03:08:46 | 02:48:13 | 00:00:00 | |
| BIOWL1-15 | 2026-09-01 00:38:14 | 52.67834 | 10.97935 | 74° | 26km/h | 33886m | 6.3m/s | -37°C | 0% | 6.9hPa | 2.6V | 03:11:14 | 02:48:11 | 00:00:00 | |
| AA1-15 | 2026-09-01 00:38:13 | 52.67830 | 10.97911 | 74° | 31km/h | 33874m | 5.6m/s | -37.1°C | 0% | 6.9hPa | 2.5V | 03:09:32 | 02:48:09 | 00:00:00 | |
| DL3AQ-11 | 2026-09-01 00:38:13 | 52.67830 | 10.97911 | 74° | 31km/h | 33875m | 5.6m/s | -37.1°C | 0.1% | 6.9hPa | 2.5V | 00:00:00 | 00:00:00 | 00:00:00 | |
| DL1XH-15 | 2026-09-01 00:38:12 | 52.67824 | 10.97865 | 295° | 4km/h | 33841m | 7.7m/s | -37.1°C | 1.5% | 7hPa | 2.5V | 03:08:56 | 02:48:03 | 00:00:00 | |
| DF8AY | 2026-09-01 00:38:10 | 52.67826 | 10.97886 | 81° | 29km/h | 33863m | 5m/s | -37.1°C | 0% | 6.9hPa | 2.5V | 03:09:32 | 02:48:07 | 00:00:00 | |
| DL1XH-west | 2026-09-01 00:38:09 | 52.67825 | 10.97876 | 85° | 22km/h | 33858m | 4.3m/s | -37.2°C | 0% | 6.9hPa | 2.6V | 03:09:32 | 02:48:06 | 00:00:00 | |
| HSKMA3-T | 2026-09-01 00:38:07 | 52.67824 | 10.97865 | 77° | 5km/h | 33848m | 6.7m/s | -37.2°C | 0% | 6.9hPa | 2.6V | 03:09:32 | 02:48:04 | 00:00:00 | |
| AA1-15 | 2026-09-01 00:38:03 | 52.67823 | 10.97875 | 108° | 5km/h | 33819m | 5.5m/s | -37.3°C | 0% | 7hPa | 2.5V | 03:09:32 | 02:47:59 | 00:00:00 | |
| DL3AQ-11 | 2026-09-01 00:38:02 | 52.67824 | 10.97871 | 99° | 15km/h | 33813m | 6.5m/s | -37.3°C | 0.1% | 7.0hPa | 2.5V | 00:00:00 | 00:00:00 | 00:00:00 | |
| DL1XH-15 | 2026-09-01 00:38:01 | 52.67820 | 10.97810 | 64° | 29km/h | 33784m | 5.2m/s | -37.5°C | 1.6% | 7hPa | 2.5V | 03:09:06 | 02:47:53 | 00:00:00 | |
| DM0DOS-11 | 2026-09-01 00:38:01 | 52.67824 | 10.97836 | 82° | 35km/h | 33795m | 5.2m/s | -37.4°C | 1.6% | 7hPa | 2.6V | 03:09:04 | 02:47:55 | 00:00:00 | |
| DF8AY | 2026-09-01 00:37:59 | 52.67825 | 10.97850 | 88° | 33km/h | 33800m | 5.9m/s | -37.4°C | 0% | 7hPa | 2.6V | 03:09:32 | 02:47:56 | 00:00:00 | |
| DL1XH-west | 2026-09-01 00:37:58 | 52.67824 | 10.97836 | 82° | 35km/h | 33795m | 5.2m/s | -37.4°C | 0% | 7hPa | 2.6V | 03:09:32 | 02:47:55 | 00:00:00 | |
| HSKMA3-T | 2026-09-01 00:37:57 | 52.67822 | 10.97822 | 74° | 33km/h | 33790m | 5.5m/s | -37.5°C | 0% | 7hPa | 2.5V | 03:09:32 | 02:47:54 | 00:00:00 | |
| AA1-15 | 2026-09-01 00:37:53 | 52.67808 | 10.97795 | 322° | 5km/h | 33762m | 6.7m/s | -37.6°C | 0% | 7hPa | 2.6V | 03:09:32 | 02:47:49 | 00:00:00 | |
| DO2SHX-10 | 2026-09-01 00:37:52 | 52.67808 | 10.97795 | 323° | 5km/h | 33762m | 6.6m/s | -37.5°C | 1.6% | 7.0hPa | 2.6V | 00:00:00 | 02:47:49 | 00:00:00 | |
| DM0DOS-11 | 2026-09-01 00:37:51 | 52.67812 | 10.97801 | 183° | 7km/h | 33738m | 4.9m/s | -37.8°C | 1.6% | 7hPa | 2.6V | 03:09:14 | 02:47:45 | 00:00:00 | |
| DL1XH-15 | 2026-09-01 00:37:51 | 52.67813 | 10.97800 | 41° | 7km/h | 33727m | 6.2m/s | -37.8°C | 1.6% | 7hPa | 2.6V | 03:09:16 | 02:47:43 | 00:00:00 | |
| DF8AY | 2026-09-01 00:37:49 | 52.67813 | 10.97801 | 184° | 7km/h | 33738m | 4.9m/s | -37.8°C | 0% | 7hPa | 2.6V | 03:09:32 | 02:47:45 | 00:00:00 | |
| DL1XH-west | 2026-09-01 00:37:47 | 52.67814 | 10.97801 | 154° | 2km/h | 33733m | 5.7m/s | -37.8°C | 0% | 7hPa | 2.6V | 03:09:32 | 02:47:44 | 00:00:00 | |
| HSKMA3-T | 2026-09-01 00:37:46 | 52.67813 | 10.97800 | 41° | 7km/h | 33727m | 6.2m/s | -37.8°C | 0% | 7hPa | 2.6V | 03:09:32 | 02:47:43 | 00:00:00 | |
| DL3AQ-11 | 2026-09-01 00:37:45 | 52.67808 | 10.97793 | 40° | 18km/h | 33715m | 5.6m/s | -37.8°C | -1.0% | 7.1hPa | 2.5V | 00:00:00 | 00:00:00 | 00:00:00 | |
| AA1-15 | 2026-09-01 00:37:42 | 52.67799 | 10.97770 | 75° | 24km/h | 33697m | 6.2m/s | -37.9°C | 0% | 7.1hPa | 2.5V | 03:09:32 | 02:47:38 | 00:00:00 | |
| DF7ER-10 | 2026-09-01 00:37:41 | 52.67801 | 10.97779 | 62° | 24km/h | 33704m | 5.9m/s | -37.9°C | 0.1% | 7.1hPa | 2.5V | 03:09:00 | 00:00:00 | 00:00:00 | |
| DB0DAN | 2026-09-01 00:37:40 | 52.67798 | 10.97760 | 92° | 22km/h | 33692m | 5.5m/s | -37.9°C | 0.1% | 7.11hPa | 2.5V | 00:00:00 | 00:00:00 | 00:00:00 | |
| DF8AY | 2026-09-01 00:37:38 | 52.67800 | 10.97747 | 129° | 11km/h | 33682m | 5.5m/s | -37.9°C | 0% | 7.1hPa | 2.6V | 03:09:32 | 02:47:35 | 00:00:00 | |
| DL1XH-west | 2026-09-01 00:37:37 | 52.67802 | 10.97746 | 178° | 9km/h | 33676m | 7m/s | -37.9°C | 0% | 7.2hPa | 2.6V | 03:09:32 | 02:47:34 | 00:00:00 | |
| HSKMA3-T | 2026-09-01 00:37:36 | 52.67804 | 10.97747 | 224° | 13km/h | 33669m | 7.2m/s | -37.9°C | 0% | 7.1hPa | 2.5V | 03:09:32 | 02:47:33 | 00:00:00 | |
| BIOWL1-15 | 2026-09-01 00:37:35 | 52.67793 | 10.97703 | 332° | 26km/h | 33597m | 5.8m/s | -37.9°C | 0% | 7.2hPa | 2.5V | 03:11:14 | 02:47:20 | 00:00:00 | |
| AA1-15 | 2026-09-01 00:37:32 | 52.67813 | 10.97764 | 133° | 11km/h | 33643m | 7.2m/s | -37.9°C | 0% | 7.2hPa | 2.6V | 03:09:32 | 02:47:28 | 00:00:00 | |
| AM1SDL-15 | 2026-09-01 00:37:32 | 52.67812 | 10.97765 | 193° | 24km/h | 33650m | 5.7m/s | -37.8°C | 1.6% | 7.1hPa | 2.6V | 03:09:00 | 02:47:29 | 00:00:00 | |
| DL1XH-15 | 2026-09-01 00:37:31 | 52.67810 | 10.97712 | 52° | 29km/h | 33615m | 4.6m/s | -37.8°C | 1.6% | 7.2hPa | 2.6V | 03:09:36 | 02:47:23 | 00:00:00 | |
| DD8BA-10 | 2026-09-01 00:37:31 | 52.67813 | 10.97764 | 133° | 26km/h | 33643m | 7.2m/s | -37.8°C | 1.6% | 7.1hPa | 2.5V | 00:00:00 | 00:00:00 | 00:00:00 | |
| DL1XH1-15 | 2026-09-01 00:37:30 | 52.67815 | 10.97736 | 83° | 33km/h | 33624m | 4.5m/s | -37.8°C | 1.6% | 7.2hPa | 2.5V | 03:09:34 | 02:47:25 | 00:00:00 | |
| DL1XH-west | 2026-09-01 00:37:27 | 52.67813 | 10.97723 | 71° | 31km/h | 33619m | 3.9m/s | -37.8°C | 0% | 7.2hPa | 2.6V | 03:10:23 | 02:47:24 | 00:00:00 | |
| HSKMA3-T | 2026-09-01 00:37:26 | 52.67810 | 10.97712 | 53° | 29km/h | 33615m | 4.6m/s | -37.8°C | 0% | 7.2hPa | 2.6V | 03:10:23 | 02:47:23 | 00:00:00 | |
| DB0DAN | 2026-09-01 00:37:25 | 52.67805 | 10.97704 | 31° | 24km/h | 33609m | 6.1m/s | -37.8°C | 0.1% | 7.21hPa | 2.6V | 00:00:00 | 00:00:00 | 00:00:00 | |
| BIOWL1-15 | 2026-09-01 00:37:23 | 52.67788 | 10.97710 | 309° | 26km/h | 33592m | 4.8m/s | -37.9°C | 0% | 7.2hPa | 2.6V | 03:11:14 | 02:47:19 | 00:00:00 | |
| AA1-15 | 2026-09-01 00:37:22 | 52.67785 | 10.97727 | 262° | 20km/h | 33583m | 5.4m/s | -37.9°C | 0% | 7.2hPa | 2.5V | 03:10:23 | 02:47:17 | 00:00:00 | |
| DM0DOS-11 | 2026-09-01 00:37:21 | 52.67791 | 10.97735 | 171° | 20km/h | 33570m | 6.4m/s | -37.8°C | 1.6% | 7.2hPa | 2.6V | 03:09:44 | 02:47:15 | 00:00:00 | |
| DF8AY | 2026-09-01 00:37:17 | 52.67796 | 10.97731 | 141° | 26km/h | 33564m | 5.8m/s | -37.8°C | 0% | 7.2hPa | 2.6V | 03:10:23 | 02:47:14 | 00:00:00 | |
| DL1XH-15 | 2026-09-01 00:37:17 | 52.67801 | 10.97722 | 117° | 29km/h | 33559m | 4.8m/s | -37.8°C | 1.6% | 7.2hPa | 2.6V | 03:09:46 | 02:47:13 | 00:00:00 | |
| HSKMA3-T | 2026-09-01 00:37:16 | 52.67800 | 10.97722 | 118° | 29km/h | 33559m | 4.8m/s | -37.8°C | 0% | 7.2hPa | 2.6V | 03:10:23 | 02:47:13 | 00:00:00 | |
| DO2SHX-10 | 2026-09-01 00:37:16 | 52.67800 | 10.97722 | 118° | 31km/h | 33559m | 4.7m/s | -37.7°C | 1.6% | 7.2hPa | 2.6V | 00:00:00 | 02:47:13 | 00:00:00 | |
| GOEST3-10 | 2026-09-01 00:37:14 | 52.67802 | 10.97697 | 73° | 31km/h | 33550m | 4.9m/s | -37.7°C | 1.6% | 7.2hPa | 2.6V | 00:00:00 | 02:47:11 | 00:00:00 | |
| DB0NH | 2026-09-01 00:37:13 | 52.67798 | 10.97686 | 47° | 26km/h | 33544m | 5.9m/s | -37.6°C | 1.6% | 7.2hPa | 2.6V | 03:09:00 | 02:47:10 | 00:00:00 | |
| DO2SHX-10 | 2026-09-01 00:37:12 | 52.67792 | 10.97679 | 20° | 31km/h | 33538m | 6.6m/s | -37.6°C | 1.6% | 7.2hPa | 2.6V | 00:00:00 | 02:47:09 | 00:00:00 | |
| DL1XH-15 | 2026-09-01 00:37:11 | 52.67770 | 10.97718 | 216° | 20km/h | 33504m | 5.6m/s | -37.5°C | 1.6% | 7.3hPa | 2.6V | 03:09:56 | 02:47:03 | 00:00:00 | |
| DM0DOS-11 | 2026-09-01 00:37:11 | 52.67767 | 10.97702 | 283° | 26km/h | 33515m | 4.7m/s | -37.6°C | 1.6% | 7.3hPa | 2.5V | 03:09:54 | 02:47:05 | 00:00:00 | |
| AA1-15 | 2026-09-01 00:37:10 | 52.67770 | 10.97691 | 308° | 31km/h | 33520m | 4.8m/s | -37.6°C | 0% | 7.3hPa | 2.5V | 03:10:23 | 02:47:06 | 00:00:00 | |
| BIOWL1-15 | 2026-09-01 00:37:07 | 52.67780 | 10.97671 | 7° | 24km/h | 33466m | 6.1m/s | -37.4°C | 0% | 7.4hPa | 2.5V | 03:11:14 | 02:46:56 | 00:00:00 | |
| DF8AY | 2026-09-01 00:37:07 | 52.67766 | 10.97712 | 256° | 22km/h | 33510m | 5.1m/s | -37.5°C | 0% | 7.3hPa | 2.5V | 03:10:23 | 02:47:04 | 00:00:00 | |
| HSKMA3-T | 2026-09-01 00:37:06 | 52.67769 | 10.97718 | 216° | 20km/h | 33504m | 5.6m/s | -37.5°C | 0% | 7.3hPa | 2.6V | 03:10:23 | 02:47:03 | 00:00:00 | |
| DL3AQ-11 | 2026-09-01 00:37:06 | 52.67780 | 10.97716 | 142° | 26km/h | 33492m | 6.1m/s | 0°C | -1.0% | -1.0hPa | 2.5V | 00:00:00 | 00:00:00 | 00:00:00 | |
| DL1NUX | 2026-09-01 00:37:04 | 52.67788 | 10.97695 | 101° | 31km/h | 33481m | 4.4m/s | -37.5°C | 1.5% | 7.3hPa | 2.5V | 03:10:00 | 02:46:59 | 00:00:00 | |
| GOEST3-10 | 2026-09-01 00:37:04 | 52.67780 | 10.97716 | 143° | 29km/h | 33492m | 6.1m/s | -37.4°C | 1.6% | 7.3hPa | 2.6V | 00:00:00 | 02:47:01 | 00:00:00 | |
| DO2SHX-10 | 2026-09-01 00:37:02 | 52.67788 | 10.97695 | 102° | 29km/h | 33482m | 4.4m/s | -37.4°C | 1.5% | 7.3hPa | 2.5V | 00:00:00 | 02:46:59 | 00:00:00 | |
| DM0DOS-11 | 2026-09-01 00:37:01 | 52.67774 | 10.97673 | 333° | 29km/h | 33459m | 6.4m/s | -37.4°C | 1.6% | 7.4hPa | 2.5V | 03:10:04 | 02:46:55 | 00:00:00 | |
| AA1-15 | 2026-09-01 00:36:58 | 52.67774 | 10.97673 | 333° | 29km/h | 33459m | 6.4m/s | -37.4°C | 0% | 7.4hPa | 2.5V | 03:10:23 | 02:46:55 | 00:00:00 | |
| DF7ER-10 | 2026-09-01 00:36:58 | 52.67780 | 10.97671 | 8° | 24km/h | 33466m | 6.1m/s | -37.4°C | 0.1% | 7.4hPa | 2.6V | 03:10:00 | 00:00:00 | 00:00:00 | |
| DL1XH-15 | 2026-09-01 00:36:57 | 52.67764 | 10.97694 | 290° | 37km/h | 33447m | 5.4m/s | -37.5°C | 1.6% | 7.4hPa | 2.6V | 03:10:06 | 02:46:53 | 00:00:00 | |
| DL1XH-west | 2026-09-01 00:36:56 | 52.67764 | 10.97694 | 291° | 37km/h | 33447m | 5.4m/s | -37.5°C | 0% | 7.4hPa | 2.6V | 03:10:23 | 02:46:53 | 00:00:00 | |
| BIOWL1-15 | 2026-09-01 00:36:54 | 52.67782 | 10.97717 | 97° | 24km/h | 33406m | 5.9m/s | -37.6°C | 0% | 7.4hPa | 2.6V | 03:11:14 | 02:46:46 | 00:00:00 | |
| HSKMA3-T | 2026-09-01 00:36:54 | 52.67763 | 10.97720 | 250° | 29km/h | 33437m | 4.7m/s | -37.5°C | 0% | 7.4hPa | 2.5V | 03:10:23 | 02:46:51 | 00:00:00 | |
| DL3AQ-11 | 2026-09-01 00:36:52 | 52.67771 | 10.97733 | 186° | 20km/h | 33426m | 6.6m/s | 0°C | -1.0% | -1.0hPa | 2.5V | 00:00:00 | 00:00:00 | 00:00:00 | |
| DM0DOS-11 | 2026-09-01 00:36:51 | 52.67782 | 10.97708 | 74° | 20km/h | 33401m | 5.5m/s | -37.6°C | 1.6% | 7.4hPa | 2.5V | 03:10:14 | 02:46:45 | 00:00:00 | |
| AA1-15 | 2026-09-01 00:36:48 | 52.67780 | 10.97701 | 43° | 18km/h | 33394m | 5.6m/s | -37.6°C | 0% | 7.4hPa | 2.5V | 03:10:23 | 02:46:44 | 00:00:00 | |
| DJ2DS-15 | 2026-09-01 00:36:48 | 52.67780 | 10.97701 | 42° | 16km/h | 33395m | 5.6m/s | -37.6°C | 0.1% | 7.4hPa | 2.5V | 00:00:00 | 00:00:00 | 00:00:00 | |
| DL1XH-15 | 2026-09-01 00:36:47 | 52.67776 | 10.97699 | 359° | 16km/h | 33389m | 6.1m/s | -37.6°C | 1.6% | 7.5hPa | 2.5V | 03:10:16 | 02:46:43 | 00:00:00 | |
| DF7PN | 2026-09-01 00:36:47 | 52.67780 | 10.97701 | 42° | 16km/h | 33395m | 5.6m/s | -37.6°C | 0.1% | 7.4hPa | 2.5V | 00:00:00 | 00:00:00 | 00:00:00 | |
| DF8AY | 2026-09-01 00:36:46 | 52.67767 | 10.97743 | 247° | 29km/h | 33359m | 5.4m/s | -37.7°C | 0% | 7.5hPa | 2.5V | 03:10:23 | 02:46:38 | 00:00:00 | |
| HSKMA3-T | 2026-09-01 00:36:44 | 52.67768 | 10.97709 | 303° | 27km/h | 33376m | 6.3m/s | -37.6°C | 0% | 7.4hPa | 2.6V | 03:10:23 | 02:46:41 | 00:00:00 | |
| AA1-15 | 2026-09-01 00:36:37 | 52.67788 | 10.97761 | 160° | 13km/h | 33330m | 6.2m/s | -37.7°C | 0% | 7.5hPa | 2.5V | 03:11:14 | 02:46:33 | 00:00:00 | |
| DL1XH-15 | 2026-09-01 00:36:37 | 52.67788 | 10.97761 | 159° | 13km/h | 33330m | 6.2m/s | -37.7°C | 1.6% | 7.5hPa | 2.5V | 03:10:26 | 02:46:33 | 00:00:00 | |
| DF8AY | 2026-09-01 00:36:35 | 52.67791 | 10.97759 | 153° | 7km/h | 33323m | 6.6m/s | -37.8°C | 0% | 7.5hPa | 2.5V | 03:11:14 | 02:46:32 | 00:00:00 | |
| DO2SHX-10 | 2026-09-01 00:36:35 | 52.67791 | 10.97759 | 153° | 4km/h | 33323m | 6.5m/s | -37.7°C | 1.6% | 7.5hPa | 2.5V | 00:00:00 | 02:46:32 | 00:00:00 | |
| DL1NUX | 2026-09-01 00:36:34 | 52.67792 | 10.97759 | 297° | 4km/h | 33305m | 5.8m/s | -37.8°C | 1.6% | 7.5hPa | 2.5V | 03:10:30 | 02:46:29 | 00:00:00 | |
| DL1XH-west | 2026-09-01 00:36:34 | 52.67792 | 10.97758 | 158° | 4km/h | 33316m | 6.4m/s | -37.8°C | 0% | 7.5hPa | 2.6V | 03:11:14 | 02:46:31 | 00:00:00 | |
| HSKMA3-T | 2026-09-01 00:36:33 | 52.67793 | 10.97758 | 301° | 2km/h | 33310m | 5.9m/s | -37.8°C | 0% | 7.5hPa | 2.6V | 03:11:14 | 02:46:30 | 00:00:00 | |
| DO2SHX-10 | 2026-09-01 00:36:32 | 52.67792 | 10.97759 | 298° | 4km/h | 33305m | 5.7m/s | -37.7°C | 1.6% | 7.5hPa | 2.5V | 00:00:00 | 02:46:29 | 00:00:00 | |
| DL1XH-15 | 2026-09-01 00:36:31 | 52.67796 | 10.97772 | 223° | 11km/h | 33269m | 5.5m/s | -37.8°C | 1.6% | 7.6hPa | 2.5V | 03:10:36 | 02:46:23 | 00:00:00 | |
| AA1-15 | 2026-09-01 00:36:27 | 52.67796 | 10.97772 | 223° | 13km/h | 33269m | 5.5m/s | -37.8°C | 0% | 7.6hPa | 2.5V | 03:11:14 | 02:46:23 | 00:00:00 | |
| DL1XH-west | 2026-09-01 00:36:24 | 52.67800 | 10.97781 | 246° | 16km/h | 33256m | 6.8m/s | -37.8°C | 0% | 7.6hPa | 2.6V | 03:11:14 | 02:46:21 | 00:00:00 | |
| HSKMA3-T | 2026-09-01 00:36:22 | 52.67803 | 10.97796 | 251° | 20km/h | 33244m | 5.4m/s | -37.8°C | 0% | 7.6hPa | 2.6V | 03:11:14 | 02:46:19 | 00:00:00 | |
| DO2SHX-10 | 2026-09-01 00:36:22 | 52.67803 | 10.97795 | 251° | 22km/h | 33244m | 5.3m/s | -37.8°C | 1.6% | 7.6hPa | 2.6V | 00:00:00 | 02:46:19 | 00:00:00 | |
| AP2371 | 2026-09-01 00:36:21 | 52.67803 | 10.97796 | 252° | 20km/h | 33244m | 5.4m/s | -37.8°C | 0.1% | 7.6hPa | 2.5V | 00:00:00 | 00:00:00 | 00:00:00 | |
| DL1XH-15 | 2026-09-01 00:36:20 | 52.67834 | 10.97822 | 188° | 13km/h | 33203m | 6.7m/s | -37.6°C | 1.6% | 7.7hPa | 2.5V | 03:10:47 | 02:46:12 | 00:00:00 | |
| HTAHTA | 2026-09-01 00:36:19 | 52.67826 | 10.97820 | 186° | 24km/h | 33214m | 5.0m/s | -37.7°C | 0.1% | 7.7hPa | 2.6V | 00:00:00 | 00:00:00 | 00:00:00 | |
| DF7PN | 2026-09-01 00:36:18 | 52.67831 | 10.97822 | 187° | 18km/h | 33209m | 5.2m/s | -37.7°C | 0.1% | 7.6hPa | 2.6V | 00:00:00 | 00:00:00 | 00:00:00 | |
| SP3WXH-11 | 2026-09-01 00:36:17 | 52.67831 | 10.97822 | 187° | 18km/h | 33209m | 5.2m/s | -37.7°C | 0.1% | 7.6hPa | 2.6V | 00:00:00 | 00:00:00 | 00:00:00 | |
| DL1NUX | 2026-09-01 00:36:16 | 52.67837 | 10.97826 | 279° | 4km/h | 33184m | 5.3m/s | -37.5°C | 1.6% | 7.7hPa | 2.6V | 03:10:50 | 02:46:09 | 00:00:00 | |
| AA1-15 | 2026-09-01 00:36:14 | 52.67837 | 10.97823 | 206° | 7km/h | 33196m | 7.1m/s | -37.6°C | 0% | 7.7hPa | 2.5V | 03:11:14 | 02:46:11 | 00:00:00 | |
| DL1XH-west | 2026-09-01 00:36:13 | 52.67837 | 10.97825 | 278° | 4km/h | 33190m | 6.2m/s | -37.6°C | 0% | 7.7hPa | 2.5V | 03:11:14 | 02:46:10 | 00:00:00 | |
| HSKMA3-T | 2026-09-01 00:36:12 | 52.67837 | 10.97826 | 279° | 4km/h | 33184m | 5.3m/s | -37.6°C | 0% | 7.7hPa | 2.6V | 03:11:14 | 02:46:09 | 00:00:00 | |
| DJ2DS-15 | 2026-09-01 00:36:12 | 52.67837 | 10.97828 | 240° | 4km/h | 33178m | 5.7m/s | -37.5°C | 0.1% | 7.7hPa | 2.5V | 00:00:00 | 00:00:00 | 00:00:00 | |
| DL4XJ-10 | 2026-09-01 00:36:11 | 52.67838 | 10.97828 | 241° | 18km/h | 33179m | 5.7m/s | -37.1°C | 0% | 0hPa | 2.5V | 00:00:00 | 00:00:00 | 00:00:00 | |
| DL1XH-15 | 2026-09-01 00:36:10 | 52.67868 | 10.97841 | 204° | 22km/h | 33136m | 6.5m/s | -37.7°C | 1.6% | 7.8hPa | 2.5V | 03:10:58 | 02:46:01 | 00:00:00 | |
| BIOWL1-15 | 2026-09-01 00:36:06 | 52.67856 | 10.97835 | 193° | 26km/h | 33149m | 6m/s | -37.6°C | 0% | 7.7hPa | 2.6V | 03:11:14 | 02:46:03 | 00:00:00 | |
| BIOWL9-15 | 2026-09-01 00:36:06 | 52.67868 | 10.97841 | 204° | 22km/h | 33136m | 6.5m/s | -37.7°C | 0.1% | 7.8hPa | 2.6V | 00:00:00 | 00:00:00 | 00:00:00 | |
| DL1NUX | 2026-09-01 00:36:05 | 52.67877 | 10.97848 | 201° | 16km/h | 33124m | 5.6m/s | -37.6°C | 1.6% | 7.7hPa | 2.6V | 03:11:00 | 02:45:59 | 00:00:00 | |
| AA1-15 | 2026-09-01 00:36:05 | 52.67868 | 10.97841 | 205° | 22km/h | 33136m | 6.5m/s | -37.7°C | 0% | 7.8hPa | 2.5V | 03:11:14 | 02:46:01 | 00:00:00 | |
| DL1XH-west | 2026-09-01 00:36:03 | 52.67873 | 10.97845 | 208° | 18km/h | 33130m | 5.8m/s | -37.7°C | 0% | 7.8hPa | 2.6V | 03:11:14 | 02:46:00 | 00:00:00 | |
| DF8AY | 2026-09-01 00:36:02 | 52.67877 | 10.97848 | 201° | 16km/h | 33124m | 5.6m/s | -37.6°C | 0% | 7.7hPa | 2.6V | 03:11:14 | 02:45:59 | 00:00:00 | |
| HSKMA3-T | 2026-09-01 00:36:01 | 52.67881 | 10.97850 | 186° | 15km/h | 33119m | 5.1m/s | -37.6°C | 0% | 7.8hPa | 2.5V | 03:11:14 | 02:45:58 | 00:00:00 | |
| EDDB2-11 | 2026-09-01 00:36:00 | 52.67889 | 10.97847 | 158° | 20km/h | 33107m | 6.9m/s | -37.6°C | 0.1% | 7.8hPa | 2.5V | 00:00:00 | 00:00:00 | 00:00:00 | |
| DL1XH-15 | 2026-09-01 00:35:59 | 52.67913 | 10.97824 | 154° | 13km/h | 33078m | 6.8m/s | -37.5°C | 1.6% | 7.8hPa | 2.5V | 03:11:08 | 02:45:51 | 00:00:00 | |
| BIOWL1-15 | 2026-09-01 00:35:54 | 52.67961 | 10.97799 | 145° | 35km/h | 33020m | 4.5m/s | -37.2°C | 0% | 7.9hPa | 2.5V | 03:12:05 | 02:45:41 | 00:00:00 | |
| AA1-15 | 2026-09-01 00:35:54 | 52.67913 | 10.97824 | 155° | 13km/h | 33078m | 6.8m/s | -37.5°C | 0% | 7.8hPa | 2.5V | 03:11:14 | 02:45:51 | 00:00:00 | |
| DL1NUX | 2026-09-01 00:35:54 | 52.67917 | 10.97824 | 223° | 5km/h | 33065m | 6m/s | -37.4°C | 1.6% | 7.8hPa | 2.6V | 03:11:10 | 02:45:49 | 00:00:00 | |
| DL1XH-west | 2026-09-01 00:35:53 | 52.67915 | 10.97823 | 179° | 7km/h | 33071m | 6.9m/s | -37.5°C | 0% | 7.8hPa | 2.6V | 03:11:14 | 02:45:50 | 00:00:00 | |
| DF8AY | 2026-09-01 00:35:52 | 52.67917 | 10.97824 | 223° | 5km/h | 33065m | 6m/s | -37.4°C | 0% | 7.8hPa | 2.6V | 03:11:14 | 02:45:49 | 00:00:00 | |
| HSKMA3-T | 2026-09-01 00:35:51 | 52.67918 | 10.97826 | 225° | 7km/h | 33060m | 4.7m/s | -37.4°C | 0% | 7.8hPa | 2.6V | 03:11:14 | 02:45:48 | 00:00:00 | |
| DL4XJ-10 | 2026-09-01 00:35:51 | 52.67918 | 10.97826 | 225° | 22km/h | 33060m | 4.6m/s | -37.0°C | 0% | 0hPa | 2.5V | 00:00:00 | 00:00:00 | 00:00:00 | |
| DL1XH-15 | 2026-09-01 00:35:49 | 52.67961 | 10.97799 | 145° | 35km/h | 33020m | 4.5m/s | -37.2°C | 1.6% | 7.9hPa | 2.5V | 03:11:18 | 02:45:41 | 00:00:00 | |
| SONCRA | 2026-09-01 00:35:49 | 52.67924 | 10.97828 | 173° | 16km/h | 33051m | 5.6m/s | -37.4°C | 0.1% | 7.8hPa | 2.6V | 00:00:00 | 00:00:00 | 00:00:00 | |
| HTAHTA | 2026-09-01 00:35:48 | 52.67936 | 10.97823 | 157° | 33km/h | 33037m | 7.5m/s | -37.3°C | 0.1% | 7.8hPa | 2.6V | 00:00:00 | 00:00:00 | 00:00:00 | |
| DL1ZP-14 | 2026-09-01 00:35:47 | 52.67936 | 10.97823 | 157° | 33km/h | 33037m | 7.5m/s | -37.3°C | 0.1% | 7.8hPa | 2.6V | 00:00:00 | 00:00:00 | 00:00:00 | |
| SP3WXH-11 | 2026-09-01 00:35:46 | 52.67961 | 10.97799 | 145° | 35km/h | 33020m | 4.5m/s | -37.2°C | 0.1% | 7.9hPa | 2.5V | 00:00:00 | 00:00:00 | 00:00:00 | |
| DF7PN | 2026-09-01 00:35:45 | 52.67961 | 10.97799 | 145° | 35km/h | 33020m | 4.5m/s | -37.2°C | 0.1% | 7.9hPa | 2.5V | 00:00:00 | 00:00:00 | 00:00:00 | |
| DL1NUX | 2026-09-01 00:35:44 | 52.67971 | 10.97786 | 134° | 15km/h | 33008m | 7.1m/s | -37.1°C | 1.5% | 7.9hPa | 2.5V | 03:11:20 | 02:45:39 | 00:00:00 | |
| AA1-15 | 2026-09-01 00:35:44 | 52.67967 | 10.97792 | 142° | 26km/h | 33015m | 5.8m/s | -37.1°C | 0% | 7.9hPa | 2.5V | 03:12:05 | 02:45:40 | 00:00:00 | |
| DB0NH | 2026-09-01 00:35:43 | 52.67967 | 10.97792 | 142° | 20km/h | 33015m | 5.8m/s | -37.1°C | 1.6% | 7.8hPa | 2.5V | 00:00:00 | 02:45:40 | 00:00:00 | |
| DM0DOS-11 | 2026-09-01 00:35:42 | 52.67974 | 10.97789 | 237° | 9km/h | 32984m | 4.8m/s | -37°C | 1.5% | 7.9hPa | 2.5V | 03:11:24 | 02:45:35 | 00:00:00 | |
| DL1XH-west | 2026-09-01 00:35:42 | 52.67972 | 10.97786 | 135° | 15km/h | 33008m | 7.1m/s | -37.1°C | 0% | 7.9hPa | 2.5V | 03:12:05 | 02:45:39 | 00:00:00 | |
| HSKMA3-T | 2026-09-01 00:35:41 | 52.67973 | 10.97783 | 136° | 4km/h | 33001m | 6.7m/s | -37.1°C | 0% | 7.9hPa | 2.6V | 03:12:05 | 02:45:38 | 00:00:00 | |
| DB0DAN | 2026-09-01 00:35:40 | 52.67973 | 10.97783 | 303° | 4km/h | 32994m | 5.7m/s | -37°C | 0.1% | 7.9hPa | 2.6V | 00:00:00 | 00:00:00 | 00:00:00 | |
| DF8AY | 2026-09-01 00:35:39 | 52.67973 | 10.97786 | 275° | 9km/h | 32989m | 4.8m/s | -37°C | 0% | 7.9hPa | 2.6V | 03:12:05 | 02:45:36 | 00:00:00 | |
| DO2SHX-10 | 2026-09-01 00:35:39 | 52.67973 | 10.97786 | 276° | 11km/h | 32989m | 4.7m/s | -37.0°C | 1.6% | 7.8hPa | 2.6V | 03:11:00 | 02:45:36 | 00:00:00 | |
| DO2SHX-10 | 2026-09-01 00:35:36 | 52.67980 | 10.97792 | 180° | 33km/h | 32973m | 6.5m/s | -36.9°C | 1.5% | 7.9hPa | 2.6V | 00:00:00 | 02:45:33 | 00:00:00 | |
| BIOWL9-15 | 2026-09-01 00:35:35 | 52.67995 | 10.97787 | 160° | 38km/h | 32960m | 5.5m/s | -37.0°C | 0.1% | 7.9hPa | 2.6V | 00:00:00 | 00:00:00 | 00:00:00 | |
| DL1NUX | 2026-09-01 00:35:34 | 52.68013 | 10.97773 | 151° | 38km/h | 32949m | 5.4m/s | -37.1°C | 1.5% | 7.9hPa | 2.6V | 03:11:30 | 02:45:29 | 00:00:00 | |
| DL1XH-west | 2026-09-01 00:35:32 | 52.68013 | 10.97773 | 152° | 38km/h | 32949m | 5.4m/s | -37.1°C | 0% | 8hPa | 2.6V | 03:12:05 | 02:45:29 | 00:00:00 | |
| DO2SHX-10 | 2026-09-01 00:35:32 | 52.68013 | 10.97773 | 152° | 31km/h | 32949m | 5.3m/s | -37.0°C | 1.5% | 7.9hPa | 2.5V | 00:00:00 | 02:45:29 | 00:00:00 | |
| EDDB2-12 | 2026-09-01 00:35:31 | 52.68026 | 10.97759 | 139° | 22km/h | 32938m | 6.4m/s | -37.2°C | 0.1% | 8.0hPa | 2.5V | 00:00:00 | 00:00:00 | 00:00:00 | |
| DM0DOS-11 | 2026-09-01 00:35:30 | 52.68031 | 10.97749 | 93° | 9km/h | 32924m | 6m/s | -37.2°C | 1.6% | 8hPa | 2.5V | 03:11:34 | 02:45:25 | 00:00:00 | |
| HSKMA3-T | 2026-09-01 00:35:30 | 52.68026 | 10.97759 | 139° | 24km/h | 32937m | 6.4m/s | -37.2°C | 0% | 8hPa | 2.6V | 03:12:05 | 02:45:27 | 00:00:00 | |
| DF8AY | 2026-09-01 00:35:29 | 52.68030 | 10.97754 | 123° | 15km/h | 32931m | 6.6m/s | -37.2°C | 0% | 8hPa | 2.5V | 03:12:05 | 02:45:26 | 00:00:00 | |
| DO2SHX-10 | 2026-09-01 00:35:29 | 52.68030 | 10.97753 | 124° | 11km/h | 32931m | 6.5m/s | -37.1°C | 1.6% | 7.9hPa | 2.5V | 00:00:00 | 02:45:26 | 00:00:00 | |
| DF8AY-15 | 2026-09-01 00:35:28 | 52.68030 | 10.97749 | 94° | 22km/h | 32924m | 6.0m/s | -37.2°C | 1.6% | 7.9hPa | 2.5V | 00:00:00 | 02:45:25 | 00:00:00 | |
| DJ8HS-15 | 2026-09-01 00:35:27 | 52.68030 | 10.97745 | 76° | 22km/h | 32919m | 5.2m/s | -37.2°C | 1.6% | 7.9hPa | 2.5V | 00:00:00 | 02:45:24 | 00:00:00 | |
| DL1LOL-11 | 2026-09-01 00:35:26 | 52.68030 | 10.97741 | 86° | 9km/h | 32914m | 4.7m/s | -37.3°C | 0.1% | 8.0hPa | 2.5V | 00:00:00 | 00:00:00 | 00:00:00 | |
| DL1NUX | 2026-09-01 00:35:24 | 52.68052 | 10.97709 | 154° | 38km/h | 32884m | 5.2m/s | -37.1°C | 1.6% | 8.1hPa | 2.5V | 03:11:41 | 02:45:18 | 00:00:00 | |
| GOEST3-10 | 2026-09-01 00:35:24 | 52.68033 | 10.97730 | 132° | 31km/h | 32902m | 6.6m/s | -37.2°C | 1.6% | 8.0hPa | 2.6V | 00:00:00 | 02:45:21 | 00:00:00 | |
| DM0DOS-11 | 2026-09-01 00:35:23 | 52.68075 | 10.97696 | 165° | 24km/h | 32867m | 5.9m/s | -37.1°C | 1.6% | 8hPa | 2.6V | 03:11:44 | 02:45:15 | 00:00:00 | |
| BIOWL1-15 | 2026-09-01 00:35:22 | 52.68084 | 10.97683 | 88° | 16km/h | 32843m | 6.9m/s | -37°C | 0% | 8.1hPa | 2.6V | 03:12:05 | 02:45:11 | 00:00:00 | |
| DL1XH-west | 2026-09-01 00:35:21 | 52.68052 | 10.97709 | 155° | 38km/h | 32884m | 5.2m/s | -37.1°C | 0% | 8.1hPa | 2.5V | 03:12:05 | 02:45:18 | 00:00:00 | |
| HSKMA3-T | 2026-09-01 00:35:19 | 52.68069 | 10.97699 | 164° | 31km/h | 32873m | 6m/s | -37.1°C | 0% | 8hPa | 2.6V | 03:12:05 | 02:45:16 | 00:00:00 | |
| DL1XH-15 | 2026-09-01 00:35:19 | 52.68084 | 10.97683 | 87° | 16km/h | 32843m | 6.9m/s | -37°C | 1.5% | 8.1hPa | 2.6V | 03:11:48 | 02:45:11 | 00:00:00 | |
| DF8AY | 2026-09-01 00:35:18 | 52.68075 | 10.97696 | 166° | 24km/h | 32867m | 5.9m/s | -37.1°C | 0% | 8hPa | 2.6V | 03:12:05 | 02:45:15 | 00:00:00 | |
| SONCRA | 2026-09-01 00:35:18 | 52.68075 | 10.97696 | 165° | 24km/h | 32867m | 5.9m/s | -37.1°C | 0.1% | 8.0hPa | 2.5V | 00:00:00 | 00:00:00 | 00:00:00 | |
| HTAHTA | 2026-09-01 00:35:17 | 52.68083 | 10.97692 | 141° | 7km/h | 32856m | 5.7m/s | -37.0°C | 0.1% | 8.1hPa | 2.5V | 00:00:00 | 00:00:00 | 00:00:00 | |
| DL1ZP-14 | 2026-09-01 00:35:16 | 52.68083 | 10.97692 | 141° | 7km/h | 32856m | 5.7m/s | -37.0°C | 0.1% | 8.1hPa | 2.5V | 00:00:00 | 00:00:00 | 00:00:00 | |
| SP3WXH-11 | 2026-09-01 00:35:15 | 52.68084 | 10.97683 | 87° | 16km/h | 32843m | 6.9m/s | -37.0°C | 0.1% | 8.1hPa | 2.5V | 00:00:00 | 00:00:00 | 00:00:00 | |
| DL1NUX | 2026-09-01 00:35:14 | 52.68084 | 10.97653 | 91° | 27km/h | 32824m | 4.8m/s | -37°C | 1.5% | 8.1hPa | 2.5V | 03:11:51 | 02:45:08 | 00:00:00 | |
| DO2SHX-10 | 2026-09-01 00:35:14 | 52.68084 | 10.97682 | 88° | 16km/h | 32843m | 6.9m/s | -37.0°C | 1.5% | 8.0hPa | 2.6V | 03:11:00 | 02:45:11 | 00:00:00 | |
| DB0NH | 2026-09-01 00:35:13 | 52.68084 | 10.97674 | 89° | 22km/h | 32836m | 6.4m/s | -37.0°C | 1.5% | 8.1hPa | 2.6V | 03:11:00 | 02:45:10 | 00:00:00 | |
| DM0DOS-11 | 2026-09-01 00:35:12 | 52.68087 | 10.97623 | 113° | 18km/h | 32807m | 6.8m/s | -37.1°C | 1.5% | 8.1hPa | 2.6V | 03:11:54 | 02:45:05 | 00:00:00 | |
| BIOWL1-15 | 2026-09-01 00:35:12 | 52.68086 | 10.97631 | 102° | 22km/h | 32814m | 5.7m/s | -37.1°C | 0% | 8.1hPa | 2.5V | 03:12:05 | 02:45:06 | 00:00:00 | |
| DL1XH-west | 2026-09-01 00:35:11 | 52.68084 | 10.97653 | 92° | 27km/h | 32824m | 4.8m/s | -37°C | 0% | 8.1hPa | 2.5V | 03:12:05 | 02:45:08 | 00:00:00 | |
| DL4XJ-10 | 2026-09-01 00:35:11 | 52.68084 | 10.97652 | 92° | 26km/h | 32825m | 4.7m/s | -36.6°C | 0% | 0hPa | 2.5V | 00:00:00 | 00:00:00 | 00:00:00 | |
| DL1XH-15 | 2026-09-01 00:35:09 | 52.68101 | 10.97607 | 147° | 22km/h | 32785m | 5.2m/s | -37.2°C | 1.6% | 8.2hPa | 2.5V | 03:11:58 | 02:45:01 | 00:00:00 | |
| HSKMA3-T | 2026-09-01 00:35:08 | 52.68087 | 10.97623 | 113° | 18km/h | 32807m | 6.9m/s | -37.1°C | 0% | 8.1hPa | 2.6V | 03:12:05 | 02:45:05 | 00:00:00 | |
| DF8AY | 2026-09-01 00:35:07 | 52.68090 | 10.97618 | 134° | 15km/h | 32801m | 6.1m/s | -37.2°C | 0% | 8.2hPa | 2.6V | 03:12:05 | 02:45:04 | 00:00:00 | |
| DJ8HS-15 | 2026-09-01 00:35:07 | 52.68090 | 10.97618 | 135° | 22km/h | 32801m | 6.0m/s | -37.1°C | 1.6% | 8.1hPa | 2.5V | 00:00:00 | 02:45:04 | 00:00:00 | |
| DL1NUX | 2026-09-01 00:35:06 | 52.68115 | 10.97582 | 119° | 33km/h | 32768m | 4.8m/s | -37.2°C | 1.6% | 8.2hPa | 2.5V | 03:12:01 | 02:44:58 | 00:00:00 | |
| BIOWL1-15 | 2026-09-01 00:35:01 | 52.68115 | 10.97582 | 119° | 33km/h | 32768m | 4.8m/s | -37.2°C | 0% | 8.2hPa | 2.5V | 03:12:05 | 02:44:58 | 00:00:00 | |
| DM0DOS-11 | 2026-09-01 00:35:00 | 52.68119 | 10.97548 | 71° | 24km/h | 32753m | 6.3m/s | -37.2°C | 1.6% | 8.2hPa | 2.6V | 03:12:04 | 02:44:55 | 00:00:00 | |
| DL1XH-west | 2026-09-01 00:34:59 | 52.68119 | 10.97558 | 92° | 27km/h | 32759m | 4.4m/s | -37.2°C | 0% | 8.2hPa | 2.6V | 03:12:05 | 02:44:56 | 00:00:00 | |
| HSKMA3-T | 2026-09-01 00:34:57 | 52.68116 | 10.97540 | 46° | 22km/h | 32746m | 7.5m/s | -37.2°C | 0% | 8.2hPa | 2.5V | 03:12:05 | 02:44:54 | 00:00:00 | |
| DL1NUX | 2026-09-01 00:34:56 | 52.68094 | 10.97516 | 102° | 20km/h | 32710m | 6.4m/s | -37.4°C | 1.6% | 8.2hPa | 2.5V | 03:12:11 | 02:44:48 | 00:00:00 | |
| GOEST3-10 | 2026-09-01 00:34:55 | 52.68100 | 10.97530 | 13° | 16km/h | 32728m | 4.2m/s | -37.2°C | 1.6% | 8.2hPa | 2.6V | 00:00:00 | 02:44:51 | 00:00:00 | |
| DM0DOS-11 | 2026-09-01 00:34:53 | 52.68103 | 10.97485 | 121° | 31km/h | 32693m | 5.8m/s | -37.4°C | 1.6% | 8.3hPa | 2.6V | 03:12:14 | 02:44:45 | 00:00:00 | |
| DF8AY | 2026-09-01 00:34:51 | 52.68109 | 10.97466 | 105° | 20km/h | 32681m | 5.6m/s | -37.4°C | 0% | 8.3hPa | 2.5V | 03:12:56 | 02:44:43 | 00:00:00 | |
| BIOWL1-15 | 2026-09-01 00:34:51 | 52.68099 | 10.97437 | 46° | 16km/h | 32651m | 5.8m/s | -37.5°C | 0% | 8.3hPa | 2.6V | 03:12:56 | 02:44:38 | 00:00:00 | |
| DL1XH-west | 2026-09-01 00:34:49 | 52.68100 | 10.97496 | 121° | 31km/h | 32698m | 5.2m/s | -37.4°C | 0% | 8.3hPa | 2.6V | 03:12:56 | 02:44:46 | 00:00:00 | |
| HSKMA3-T | 2026-09-01 00:34:47 | 52.68107 | 10.97475 | 116° | 26km/h | 32687m | 6.2m/s | -37.4°C | 0% | 8.3hPa | 2.6V | 03:12:56 | 02:44:44 | 00:00:00 | |
| DF8AY-15 | 2026-09-01 00:34:47 | 52.68107 | 10.97475 | 116° | 15km/h | 32687m | 6.1m/s | -37.3°C | 1.6% | 8.2hPa | 2.6V | 00:00:00 | 02:44:44 | 00:00:00 | |
| DL1NUX | 2026-09-01 00:34:46 | 52.68099 | 10.97437 | 46° | 16km/h | 32651m | 5.8m/s | -37.5°C | 1.5% | 8.3hPa | 2.6V | 03:12:21 | 02:44:38 | 00:00:00 | |
| HTAHTA | 2026-09-01 00:34:46 | 52.68108 | 10.97453 | 61° | 15km/h | 32670m | 6.0m/s | -37.4°C | 0.1% | 8.3hPa | 2.5V | 00:00:00 | 00:00:00 | 00:00:00 | |
| DL1ZP-14 | 2026-09-01 00:34:45 | 52.68108 | 10.97453 | 61° | 15km/h | 32670m | 6.0m/s | -37.4°C | 0.1% | 8.3hPa | 2.5V | 00:00:00 | 00:00:00 | 00:00:00 | |
| SP3WXH-11 | 2026-09-01 00:34:44 | 52.68105 | 10.97447 | 49° | 16km/h | 32663m | 6.6m/s | -37.4°C | 0.1% | 8.3hPa | 2.5V | 00:00:00 | 00:00:00 | 00:00:00 | |
| DB0NH | 2026-09-01 00:34:43 | 52.68105 | 10.97447 | 50° | 15km/h | 32663m | 6.5m/s | -37.4°C | 1.6% | 8.3hPa | 2.5V | 00:00:00 | 02:44:40 | 00:00:00 | |
| SMARD9-15 | 2026-09-01 00:34:42 | 52.68102 | 10.97442 | 43° | 18km/h | 32657m | 6.5m/s | -37.5°C | 0.1% | 8.3hPa | 2.5V | 00:00:00 | 00:00:00 | 00:00:00 | |
| DO3MHA-11 | 2026-09-01 00:34:41 | 52.68099 | 10.97437 | 47° | 16km/h | 32651m | 5.7m/s | -37.4°C | 1.5% | 8.3hPa | 2.5V | 00:00:00 | 02:44:38 | 00:00:00 | |
| DL3OBA | 2026-09-01 00:34:40 | 52.68099 | 10.97437 | 47° | 16km/h | 32651m | 5.8m/s | -37.5°C | 0.1% | 8.3hPa | 2.5V | 03:12:00 | 00:00:00 | 00:00:00 | |
| DL1XH-15 | 2026-09-01 00:34:39 | 52.68090 | 10.97420 | 102° | 7km/h | 32612m | 4.8m/s | -37.7°C | 1.5% | 8.3hPa | 2.5V | 03:12:28 | 02:44:31 | 00:00:00 | |
| DL1XH-west | 2026-09-01 00:34:38 | 52.68093 | 10.97425 | 54° | 7km/h | 32635m | 5.2m/s | -37.6°C | 0% | 8.3hPa | 2.5V | 03:12:56 | 02:44:35 | 00:00:00 | |
| HSKMA3-T | 2026-09-01 00:34:37 | 52.68092 | 10.97423 | 37° | 4km/h | 32629m | 6.2m/s | -37.6°C | 0% | 8.3hPa | 2.6V | 03:12:56 | 02:44:34 | 00:00:00 | |
| DF8AY | 2026-09-01 00:34:35 | 52.68090 | 10.97420 | 102° | 7km/h | 32612m | 4.8m/s | -37.7°C | 0% | 8.4hPa | 2.5V | 03:12:56 | 02:44:31 | 00:00:00 | |
| GOEST3-10 | 2026-09-01 00:34:34 | 52.68090 | 10.97420 | 103° | 16km/h | 32613m | 4.8m/s | -37.6°C | 1.5% | 8.3hPa | 2.5V | 00:00:00 | 02:44:31 | 00:00:00 | |
| BIOWL9-15 | 2026-09-01 00:34:33 | 52.68091 | 10.97408 | 95° | 20km/h | 32601m | 7.0m/s | -37.8°C | 0.1% | 8.4hPa | 2.6V | 00:00:00 | 00:00:00 | 00:00:00 | |
| S3001 | 2026-09-01 00:34:32 | 52.68092 | 10.97399 | 94° | 27km/h | 32594m | 6.9m/s | -37.8°C | 0.1% | 8.4hPa | 2.6V | 00:00:00 | 00:00:00 | 00:00:00 | |
| DL1XH-15 | 2026-09-01 00:34:29 | 52.68093 | 10.97364 | 211° | 7km/h | 32549m | 5.8m/s | -38.5°C | 1.6% | 8.4hPa | 2.6V | 03:12:39 | 02:44:20 | 00:00:00 | |
| DL1XH-west | 2026-09-01 00:34:28 | 52.68093 | 10.97367 | 92° | 18km/h | 32578m | 5.2m/s | -38°C | 0% | 8.4hPa | 2.5V | 03:12:56 | 02:44:25 | 00:00:00 | |
| AA1-15 | 2026-09-01 00:34:28 | 52.68093 | 10.97361 | 94° | 9km/h | 32571m | 6.2m/s | -38.1°C | 0% | 8.4hPa | 2.5V | 03:12:56 | 02:44:24 | 00:00:00 | |
| HSKMA3-T | 2026-09-01 00:34:26 | 52.68092 | 10.97358 | 38° | 2km/h | 32565m | 5.8m/s | -38.2°C | 0% | 8.4hPa | 2.5V | 03:12:56 | 02:44:23 | 00:00:00 | |
| DF8AY | 2026-09-01 00:34:25 | 52.68096 | 10.97365 | 169° | 11km/h | 32543m | 6.6m/s | -38.5°C | 0% | 8.4hPa | 2.5V | 03:12:56 | 02:44:19 | 00:00:00 | |
| BIOWL1-15 | 2026-09-01 00:34:24 | 52.68094 | 10.97364 | 212° | 7km/h | 32549m | 5.8m/s | -38.5°C | 0% | 8.5hPa | 2.6V | 03:12:56 | 02:44:20 | 00:00:00 | |
| DO2SHX-10 | 2026-09-01 00:34:24 | 52.68092 | 10.97362 | 246° | 15km/h | 32555m | 4.9m/s | -38.3°C | 1.6% | 8.4hPa | 2.5V | 03:12:00 | 02:44:21 | 00:00:00 | |
| DG6HD-15 | 2026-09-01 00:34:22 | 52.68093 | 10.97364 | 213° | 7km/h | 32549m | 5.8m/s | -38.5°C | 0.1% | 8.5hPa | 2.5V | 03:12:00 | 00:00:00 | 00:00:00 | |
| DL1XH1-15 | 2026-09-01 00:34:20 | 52.68113 | 10.97341 | 125° | 26km/h | 32519m | 5.7m/s | -38.7°C | 1.7% | 8.5hPa | 2.5V | 03:12:44 | 02:44:15 | 00:00:00 | |
| DL1XH-west | 2026-09-01 00:34:18 | 52.68116 | 10.97333 | 119° | 24km/h | 32513m | 6.5m/s | -38.7°C | 0% | 8.5hPa | 2.5V | 03:12:56 | 02:44:14 | 00:00:00 | |
| AA1-15 | 2026-09-01 00:34:16 | 52.68118 | 10.97325 | 107° | 18km/h | 32507m | 6.6m/s | -38.7°C | 0% | 8.5hPa | 2.6V | 03:12:56 | 02:44:13 | 00:00:00 | |
| HSKMA3-T | 2026-09-01 00:34:15 | 52.68119 | 10.97319 | 91° | 15km/h | 32500m | 6.3m/s | -38.7°C | 0% | 8.5hPa | 2.6V | 03:12:56 | 02:44:12 | 00:00:00 | |
| DF8AY | 2026-09-01 00:34:14 | 52.68118 | 10.97313 | 71° | 13km/h | 32494m | 6m/s | -38.7°C | 0% | 8.5hPa | 2.5V | 03:12:56 | 02:44:11 | 00:00:00 | |
| DL1XH-15 | 2026-09-01 00:34:14 | 52.68117 | 10.97309 | 64° | 13km/h | 32488m | 5.4m/s | -38.7°C | 1.7% | 8.5hPa | 2.5V | 03:12:49 | 02:44:10 | 00:00:00 | |
| DL1XH1-15 | 2026-09-01 00:34:13 | 52.68122 | 10.97286 | 142° | 22km/h | 32459m | 5.6m/s | -38.8°C | 1.7% | 8.6hPa | 2.6V | 03:12:54 | 02:44:05 | 00:00:00 | |
| BIOWL1-15 | 2026-09-01 00:34:13 | 52.68116 | 10.97304 | 69° | 11km/h | 32483m | 5.2m/s | -38.7°C | 0% | 8.5hPa | 2.6V | 03:12:56 | 02:44:09 | 00:00:00 | |
| AA1-15 | 2026-09-01 00:34:06 | 52.68129 | 10.97277 | 143° | 15km/h | 32449m | 4.6m/s | -38.8°C | 0% | 8.6hPa | 2.6V | 03:12:56 | 02:44:03 | 00:00:00 | |
| DL1NUX | 2026-09-01 00:34:06 | 52.68118 | 10.97265 | 26° | 27km/h | 32420m | 5.1m/s | -39.1°C | 1.7% | 8.6hPa | 2.6V | 03:13:01 | 02:43:58 | 00:00:00 | |
| DF8AY | 2026-09-01 00:34:05 | 52.68132 | 10.97272 | 32° | 5km/h | 32438m | 6.5m/s | -38.9°C | 0% | 8.6hPa | 2.5V | 03:13:47 | 02:44:01 | 00:00:00 | |
| HSKMA3-T | 2026-09-01 00:34:05 | 52.68132 | 10.97274 | 127° | 7km/h | 32444m | 5.7m/s | -38.9°C | 0% | 8.6hPa | 2.5V | 03:13:47 | 02:44:02 | 00:00:00 | |
| BIOWL1-15 | 2026-09-01 00:34:03 | 52.68106 | 10.97249 | 54° | 35km/h | 32408m | 6.8m/s | -39.2°C | 0% | 8.7hPa | 2.5V | 03:14:38 | 02:43:56 | 00:00:00 | |
| AA1-15 | 2026-09-01 00:33:55 | 52.68097 | 10.97186 | 79° | 18km/h | 32379m | 6.7m/s | -39.3°C | 0% | 8.7hPa | 2.6V | 03:13:47 | 02:43:51 | 00:00:00 | |
| DB0DAN | 2026-09-01 00:33:55 | 52.68097 | 10.97195 | 85° | 26km/h | 32385m | 5.5m/s | -39.3°C | 0.1% | 8.65hPa | 2.6V | 00:00:00 | 00:00:00 | 00:00:00 | |
| HSKMA3-T | 2026-09-01 00:33:55 | 52.68097 | 10.97195 | 85° | 27km/h | 32385m | 5.5m/s | -39.3°C | 0% | 8.7hPa | 2.6V | 03:13:47 | 02:43:52 | 00:00:00 | |
| DL1NUX | 2026-09-01 00:33:54 | 52.68089 | 10.97178 | 344° | 16km/h | 32360m | 5.5m/s | -39.4°C | 1.7% | 8.7hPa | 2.5V | 03:13:11 | 02:43:48 | 00:00:00 | |
| DL1XH-15 | 2026-09-01 00:33:54 | 52.68095 | 10.97179 | 52° | 13km/h | 32373m | 6.9m/s | -39.4°C | 1.7% | 8.7hPa | 2.5V | 03:13:09 | 02:43:50 | 00:00:00 | |
| BIOWL1-15 | 2026-09-01 00:33:49 | 52.68069 | 10.97178 | 32° | 24km/h | 32337m | 6.4m/s | -39.5°C | 0% | 8.7hPa | 2.5V | 03:14:38 | 02:43:44 | 00:00:00 | |
| DJ2DS-15 | 2026-09-01 00:33:47 | 52.68069 | 10.97178 | 31° | 24km/h | 32338m | 6.4m/s | -39.5°C | 0.1% | 8.7hPa | 2.6V | 00:00:00 | 00:00:00 | 00:00:00 | |
| SONCRA | 2026-09-01 00:33:45 | 52.68052 | 10.97148 | 51° | 40km/h | 32319m | 6.4m/s | -39.6°C | 0.1% | 8.7hPa | 2.6V | 00:00:00 | 00:00:00 | 00:00:00 | |
| AA1-15 | 2026-09-01 00:33:44 | 52.68045 | 10.97135 | 46° | 46km/h | 32313m | 6.3m/s | -39.6°C | 0% | 8.8hPa | 2.6V | 03:13:47 | 02:43:40 | 00:00:00 | |
| HSKMA3-T | 2026-09-01 00:33:44 | 52.68052 | 10.97148 | 52° | 42km/h | 32319m | 6.4m/s | -39.6°C | 0% | 8.7hPa | 2.6V | 03:13:47 | 02:43:41 | 00:00:00 | |
| DL1NUX | 2026-09-01 00:33:44 | 52.68027 | 10.97111 | 32° | 44km/h | 32301m | 5.3m/s | -39.7°C | 1.8% | 8.8hPa | 2.5V | 03:13:21 | 02:43:38 | 00:00:00 | |
| DF8AY | 2026-09-01 00:33:42 | 52.68036 | 10.97122 | 40° | 46km/h | 32306m | 6.1m/s | -39.7°C | 0% | 8.7hPa | 2.6V | 03:13:47 | 02:43:39 | 00:00:00 | |
| SP3WXH-11 | 2026-09-01 00:33:42 | 52.68027 | 10.97111 | 32° | 44km/h | 32301m | 5.3m/s | -39.7°C | 0.2% | 8.8hPa | 2.5V | 00:00:00 | 00:00:00 | 00:00:00 | |
| DF7PN | 2026-09-01 00:33:41 | 52.68009 | 10.97096 | 21° | 33km/h | 32291m | 4.8m/s | -39.7°C | 0.2% | 8.8hPa | 2.5V | 00:00:00 | 00:00:00 | 00:00:00 | |
| SMARD9-15 | 2026-09-01 00:33:40 | 52.68009 | 10.97096 | 21° | 33km/h | 32291m | 4.8m/s | -39.7°C | 0.2% | 8.8hPa | 2.5V | 00:00:00 | 00:00:00 | 00:00:00 | |
| DD8BA-10 | 2026-09-01 00:33:39 | 52.68009 | 10.97096 | 22° | 15km/h | 32291m | 4.8m/s | -39.7°C | 1.8% | 8.7hPa | 2.5V | 00:00:00 | 00:00:00 | 00:00:00 | |
| BIOWL1-15 | 2026-09-01 00:33:39 | 52.68002 | 10.97091 | 21° | 26km/h | 32284m | 6.5m/s | -39.7°C | 0% | 8.8hPa | 2.6V | 03:14:38 | 02:43:35 | 00:00:00 | |
| DO2SHX-10 | 2026-09-01 00:33:38 | 52.68002 | 10.97091 | 22° | 16km/h | 32285m | 6.5m/s | -39.6°C | 1.8% | 8.7hPa | 2.5V | 00:00:00 | 02:43:35 | 00:00:00 | |
| DO2SHX-10 | 2026-09-01 00:33:35 | 52.67993 | 10.97084 | 49° | 5km/h | 32264m | 6.5m/s | -39.5°C | 1.8% | 8.8hPa | 2.5V | 03:13:00 | 02:43:32 | 00:00:00 | |
| DL1XH-15 | 2026-09-01 00:33:34 | 52.67992 | 10.97082 | 50° | 7km/h | 32251m | 6.3m/s | -39.6°C | 1.8% | 8.8hPa | 2.5V | 03:13:29 | 02:43:30 | 00:00:00 | |
| DL1NUX | 2026-09-01 00:33:34 | 52.67988 | 10.97074 | 50° | 20km/h | 32239m | 5.4m/s | -39.6°C | 1.8% | 8.8hPa | 2.6V | 03:13:31 | 02:43:28 | 00:00:00 | |
| HSKMA3-T | 2026-09-01 00:33:33 | 52.67992 | 10.97082 | 51° | 7km/h | 32251m | 6.3m/s | -39.6°C | 0% | 8.8hPa | 2.5V | 03:13:47 | 02:43:30 | 00:00:00 | |
| DF8AY | 2026-09-01 00:33:32 | 52.67990 | 10.97079 | 49° | 13km/h | 32245m | 5.6m/s | -39.6°C | 0% | 8.8hPa | 2.6V | 03:13:47 | 02:43:29 | 00:00:00 | |
| BIOWL1-15 | 2026-09-01 00:33:28 | 52.67972 | 10.97034 | 56° | 35km/h | 32214m | 5.3m/s | -39.7°C | 0% | 8.9hPa | 2.6V | 03:14:38 | 02:43:24 | 00:00:00 | |
| DL1XH-15 | 2026-09-01 00:33:28 | 52.67948 | 10.97006 | 1° | 26km/h | 32191m | 6.2m/s | -39.7°C | 1.8% | 8.9hPa | 2.6V | 03:13:39 | 02:43:20 | 00:00:00 | |
| EDDB2-12 | 2026-09-01 00:33:27 | 52.67967 | 10.97023 | 47° | 33km/h | 32209m | 4.8m/s | -39.7°C | 0.1% | 8.9hPa | 2.5V | 00:00:00 | 00:00:00 | 00:00:00 | |
| DO2SHX-10 | 2026-09-01 00:33:26 | 52.67967 | 10.97023 | 48° | 29km/h | 32210m | 4.7m/s | -39.6°C | 1.7% | 8.8hPa | 2.5V | 00:00:00 | 02:43:23 | 00:00:00 | |
| EDDB2-11 | 2026-09-01 00:33:25 | 52.67955 | 10.97009 | 20° | 27km/h | 32198m | 6.6m/s | -39.7°C | 0.1% | 8.9hPa | 2.5V | 00:00:00 | 00:00:00 | 00:00:00 | |
| DL1NUX | 2026-09-01 00:33:24 | 52.67939 | 10.97010 | 328° | 15km/h | 32181m | 4.8m/s | -39.8°C | 1.7% | 8.9hPa | 2.5V | 03:13:41 | 02:43:18 | 00:00:00 | |
| HSKMA3-T | 2026-09-01 00:33:23 | 52.67948 | 10.97006 | 2° | 26km/h | 32191m | 6.2m/s | -39.7°C | 0% | 8.9hPa | 2.6V | 03:13:47 | 02:43:20 | 00:00:00 | |
| AA1-15 | 2026-09-01 00:33:23 | 52.67943 | 10.97007 | 343° | 20km/h | 32186m | 5.4m/s | -39.7°C | 0% | 8.9hPa | 2.6V | 03:13:47 | 02:43:19 | 00:00:00 | |
| DF8AY | 2026-09-01 00:33:21 | 52.67939 | 10.97010 | 328° | 15km/h | 32181m | 4.8m/s | -39.8°C | 0% | 8.9hPa | 2.5V | 03:13:47 | 02:43:18 | 00:00:00 | |
| AM1SDL-15 | 2026-09-01 00:33:21 | 52.67939 | 10.97010 | 329° | 16km/h | 32181m | 4.8m/s | -39.7°C | 1.7% | 8.9hPa | 2.5V | 03:13:00 | 02:43:18 | 00:00:00 | |
| DO9LL-15 | 2026-09-01 00:33:19 | 52.67937 | 10.97014 | 188° | 18km/h | 32170m | 7.2m/s | 0°C | 0% | 0hPa | 2.6V | 00:00:00 | 02:43:16 | 00:00:00 | |
| DL1XH-15 | 2026-09-01 00:33:17 | 52.67945 | 10.96983 | 38° | 18km/h | 32132m | 7.1m/s | -40°C | 1.8% | 9hPa | 2.6V | 03:13:49 | 02:43:10 | 00:00:00 | |
| DO2SHX-10 | 2026-09-01 00:33:16 | 52.67946 | 10.97003 | 122° | 18km/h | 32151m | 4.4m/s | -39.8°C | 1.7% | 8.9hPa | 2.5V | 00:00:00 | 02:43:13 | 00:00:00 | |
| DL1NUX | 2026-09-01 00:33:14 | 52.67935 | 10.96979 | 2° | 26km/h | 32119m | 6.6m/s | -40.1°C | 1.7% | 9hPa | 2.5V | 03:13:51 | 02:43:08 | 00:00:00 | |
| BIOWL1-15 | 2026-09-01 00:33:13 | 52.67935 | 10.96979 | 3° | 26km/h | 32119m | 6.6m/s | -40.1°C | 0% | 9hPa | 2.5V | 03:14:38 | 02:43:08 | 00:00:00 | |
| DL1XH-west | 2026-09-01 00:33:13 | 52.67945 | 10.96983 | 39° | 18km/h | 32132m | 7.1m/s | -40°C | 0% | 9hPa | 2.6V | 03:14:38 | 02:43:10 | 00:00:00 | |
| HSKMA3-T | 2026-09-01 00:33:12 | 52.67941 | 10.96980 | 15° | 22km/h | 32125m | 6.8m/s | -40°C | 0% | 9hPa | 2.5V | 03:14:38 | 02:43:09 | 00:00:00 | |
| DF8AY | 2026-09-01 00:33:09 | 52.67922 | 10.96981 | 348° | 22km/h | 32106m | 6.2m/s | -40.2°C | 0% | 9hPa | 2.6V | 03:15:29 | 02:43:06 | 00:00:00 | |
| GOEST3-10 | 2026-09-01 00:33:09 | 52.67922 | 10.96981 | 349° | 16km/h | 32106m | 6.2m/s | -40.1°C | 1.8% | 9.0hPa | 2.6V | 00:00:00 | 00:00:00 | 00:00:00 | |
| DF8AY-15 | 2026-09-01 00:33:07 | 52.67914 | 10.96986 | 322° | 20km/h | 32094m | 5.8m/s | -40.2°C | 1.8% | 9.0hPa | 2.6V | 00:00:00 | 02:43:04 | 00:00:00 | |
| DL1XH-15 | 2026-09-01 00:33:06 | 52.67907 | 10.96998 | 4° | 7km/h | 32069m | 5.6m/s | -40.4°C | 1.9% | 9.1hPa | 2.6V | 03:13:59 | 02:43:00 | 00:00:00 | |
| DO2SHX-10 | 2026-09-01 00:33:06 | 52.67912 | 10.96990 | 309° | 9km/h | 32088m | 6.3m/s | -40.2°C | 1.8% | 9.0hPa | 2.6V | 00:00:00 | 02:43:03 | 00:00:00 | |
| DL1NUX | 2026-09-01 00:33:04 | 52.67904 | 10.96992 | 63° | 16km/h | 32058m | 6.3m/s | -40.4°C | 1.8% | 9.1hPa | 2.6V | 03:14:01 | 02:42:58 | 00:00:00 | |
| DL1XH-west | 2026-09-01 00:33:02 | 52.67905 | 10.96996 | 49° | 11km/h | 32064m | 5.4m/s | -40.4°C | 0% | 9.1hPa | 2.6V | 03:14:38 | 02:42:59 | 00:00:00 | |
| HSKMA3-T | 2026-09-01 00:33:01 | 52.67903 | 10.96992 | 63° | 16km/h | 32058m | 6.3m/s | -40.4°C | 0% | 9.1hPa | 2.6V | 03:14:38 | 02:42:58 | 00:00:00 | |
| DF8AY | 2026-09-01 00:32:58 | 52.67887 | 10.96952 | 14° | 24km/h | 32029m | 5.9m/s | -40.5°C | 0% | 9.2hPa | 2.6V | 03:15:29 | 02:42:53 | 00:00:00 | |
| EDDB2-12 | 2026-09-01 00:32:56 | 52.67875 | 10.96957 | 320° | 29km/h | 32015m | 6.6m/s | -40.5°C | 0.2% | 9.2hPa | 2.6V | 00:00:00 | 00:00:00 | 00:00:00 | |
| DL1NUX | 2026-09-01 00:32:54 | 52.67865 | 10.96990 | 267° | 26km/h | 31999m | 5.5m/s | -40.4°C | 1.8% | 9.2hPa | 2.6V | 03:14:11 | 02:42:48 | 00:00:00 | |
| DL1XH-15 | 2026-09-01 00:32:54 | 52.67869 | 10.96967 | 299° | 33km/h | 32009m | 5.1m/s | -40.5°C | 1.8% | 9.2hPa | 2.5V | 03:14:09 | 02:42:50 | 00:00:00 | |
| DO3MHA-11 | 2026-09-01 00:32:54 | 52.67875 | 10.96957 | 321° | 31km/h | 32016m | 6.6m/s | -40.5°C | 1.9% | 9.1hPa | 2.5V | 03:14:00 | 02:42:51 | 00:00:00 | |
| DM0DOS-11 | 2026-09-01 00:32:53 | 52.67873 | 10.97000 | 143° | 16km/h | 31981m | 6m/s | -40.4°C | 1.8% | 9.2hPa | 2.5V | 03:14:14 | 02:42:45 | 00:00:00 | |
| AA1-15 | 2026-09-01 00:32:52 | 52.67866 | 10.96979 | 285° | 31km/h | 32004m | 4.4m/s | -40.5°C | 0% | 9.2hPa | 2.5V | 03:14:38 | 02:42:49 | 00:00:00 | |
| DL1XH-west | 2026-09-01 00:32:51 | 52.67865 | 10.96990 | 268° | 26km/h | 31999m | 5.5m/s | -40.4°C | 0% | 9.2hPa | 2.6V | 03:14:38 | 02:42:48 | 00:00:00 | |
| DF8AY | 2026-09-01 00:32:48 | 52.67875 | 10.96968 | 51° | 22km/h | 31956m | 6.1m/s | -40.3°C | 0% | 9.2hPa | 2.6V | 03:15:29 | 02:42:41 | 00:00:00 | |
| DL4XJ-10 | 2026-09-01 00:32:48 | 52.67873 | 10.97000 | 144° | 16km/h | 31982m | 6.0m/s | -40.0°C | 0% | 0hPa | 2.5V | 00:00:00 | 00:00:00 | 00:00:00 | |
| DJ8HS-15 | 2026-09-01 00:32:47 | 52.67876 | 10.96994 | 118° | 15km/h | 31976m | 6.2m/s | -40.3°C | 1.8% | 9.1hPa | 2.5V | 00:00:00 | 02:42:44 | 00:00:00 | |
| DO2SHX-10 | 2026-09-01 00:32:46 | 52.67878 | 10.96986 | 103° | 22km/h | 31970m | 6.4m/s | -40.3°C | 1.8% | 9.2hPa | 2.5V | 00:00:00 | 02:42:43 | 00:00:00 | |
| DL1NUX | 2026-09-01 00:32:44 | 52.67864 | 10.96963 | 318° | 13km/h | 31938m | 6.2m/s | -40.4°C | 1.8% | 9.2hPa | 2.5V | 03:14:21 | 02:42:38 | 00:00:00 | |
| BIOWL1-15 | 2026-09-01 00:32:43 | 52.67871 | 10.96963 | 30° | 18km/h | 31950m | 5.9m/s | -40.3°C | 0% | 9.3hPa | 2.6V | 03:14:38 | 02:42:40 | 00:00:00 | |
| AA1-15 | 2026-09-01 00:32:42 | 52.67867 | 10.96961 | 359° | 15km/h | 31944m | 6m/s | -40.3°C | 0% | 9.2hPa | 2.5V | 03:14:38 | 02:42:39 | 00:00:00 | |
| DL1XH-west | 2026-09-01 00:32:41 | 52.67864 | 10.96963 | 319° | 13km/h | 31938m | 6.3m/s | -40.4°C | 0% | 9.3hPa | 2.5V | 03:14:38 | 02:42:38 | 00:00:00 | |
| DB0DAN | 2026-09-01 00:32:40 | 52.67862 | 10.96968 | 289° | 15km/h | 31931m | 6.2m/s | -40.4°C | 0.2% | 9.24hPa | 2.5V | 00:00:00 | 00:00:00 | 00:00:00 | |
| HSKMA3-T | 2026-09-01 00:32:39 | 52.67862 | 10.96975 | 265° | 18km/h | 31925m | 6.1m/s | -40.5°C | 0% | 9.3hPa | 2.6V | 03:14:38 | 02:42:36 | 00:00:00 | |
| DF8AY | 2026-09-01 00:32:38 | 52.67862 | 10.96982 | 251° | 18km/h | 31919m | 5.8m/s | -40.6°C | 0% | 9.3hPa | 2.6V | 03:15:29 | 02:42:35 | 00:00:00 | |
| SMARD9-15 | 2026-09-01 00:32:38 | 52.67862 | 10.96982 | 251° | 18km/h | 31920m | 5.8m/s | -40.6°C | 0.1% | 9.3hPa | 2.6V | 00:00:00 | 00:00:00 | 00:00:00 | |
| DO2SHX-10 | 2026-09-01 00:32:37 | 52.67864 | 10.96988 | 241° | 15km/h | 31913m | 5.8m/s | -40.6°C | 1.9% | 9.2hPa | 2.6V | 00:00:00 | 02:42:34 | 00:00:00 | |
| DL1NUX | 2026-09-01 00:32:36 | 52.67878 | 10.96995 | 161° | 11km/h | 31877m | 6.6m/s | -40.6°C | 1.8% | 9.3hPa | 2.6V | 03:14:31 | 02:42:28 | 00:00:00 | |
| AA1-15 | 2026-09-01 00:32:31 | 52.67878 | 10.96995 | 162° | 11km/h | 31877m | 6.6m/s | -40.6°C | 0% | 9.4hPa | 2.6V | 03:14:38 | 02:42:28 | 00:00:00 | |
| BIOWL1-15 | 2026-09-01 00:32:30 | 52.67894 | 10.96994 | 176° | 9km/h | 31823m | 5.9m/s | -40.7°C | 0% | 9.4hPa | 2.5V | 03:15:29 | 02:42:19 | 00:00:00 | |
| DL1XH-west | 2026-09-01 00:32:30 | 52.67889 | 10.96995 | 187° | 7km/h | 31853m | 5.7m/s | -40.6°C | 0% | 9.4hPa | 2.6V | 03:14:38 | 02:42:24 | 00:00:00 | |
| DL1XH1-15 | 2026-09-01 00:32:29 | 52.67887 | 10.96994 | 186° | 11km/h | 31859m | 5m/s | -40.6°C | 1.8% | 9.4hPa | 2.5V | 03:14:34 | 02:42:25 | 00:00:00 | |
| DF8AY | 2026-09-01 00:32:28 | 52.67887 | 10.96994 | 187° | 11km/h | 31859m | 5m/s | -40.6°C | 0% | 9.4hPa | 2.5V | 03:15:29 | 02:42:25 | 00:00:00 | |
| DL4XJ-10 | 2026-09-01 00:32:28 | 52.67887 | 10.96994 | 187° | 9km/h | 31860m | 5.0m/s | -40.2°C | 0% | 0hPa | 2.6V | 00:00:00 | 00:00:00 | 00:00:00 | |
| SMARD9-10 | 2026-09-01 00:32:27 | 52.67891 | 10.96995 | 192° | 4km/h | 31848m | 6.9m/s | -40.6°C | 0.2% | 9.4hPa | 2.6V | 00:00:00 | 00:00:00 | 00:00:00 | |
| EDDB2-12 | 2026-09-01 00:32:25 | 52.67892 | 10.96995 | 96° | 0km/h | 31834m | 5.7m/s | -40.6°C | 0.1% | 9.4hPa | 2.6V | 00:00:00 | 00:00:00 | 00:00:00 | |
| DL1NUX | 2026-09-01 00:32:24 | 52.67897 | 10.96994 | 183° | 15km/h | 31817m | 7.6m/s | -40.7°C | 1.8% | 9.4hPa | 2.6V | 03:14:41 | 02:42:18 | 00:00:00 | |
| DO2SHX-10 | 2026-09-01 00:32:24 | 52.67892 | 10.96995 | 97° | 5km/h | 31835m | 5.7m/s | -40.6°C | 1.7% | 9.4hPa | 2.5V | 00:00:00 | 02:42:21 | 00:00:00 | |
| EDDB2-11 | 2026-09-01 00:32:23 | 52.67892 | 10.96994 | 161° | 4km/h | 31829m | 4.9m/s | -40.6°C | 0.1% | 9.4hPa | 2.5V | 00:00:00 | 00:00:00 | 00:00:00 | |
| DM0DOS-11 | 2026-09-01 00:32:22 | 52.67912 | 10.96997 | 184° | 18km/h | 31799m | 4.8m/s | -40.8°C | 1.8% | 9.5hPa | 2.5V | 03:14:44 | 02:42:15 | 00:00:00 | |
| AA1-15 | 2026-09-01 00:32:21 | 52.67897 | 10.96994 | 183° | 15km/h | 31817m | 7.6m/s | -40.7°C | 0% | 9.4hPa | 2.6V | 03:15:29 | 02:42:18 | 00:00:00 | |
| HSKMA3-T | 2026-09-01 00:32:18 | 52.67912 | 10.96997 | 185° | 18km/h | 31799m | 4.8m/s | -40.8°C | 0% | 9.5hPa | 2.5V | 03:15:29 | 02:42:15 | 00:00:00 | |
| DF8AY | 2026-09-01 00:32:17 | 52.67915 | 10.96997 | 181° | 11km/h | 31794m | 6m/s | -40.9°C | 0% | 9.5hPa | 2.5V | 03:15:29 | 02:42:14 | 00:00:00 | |
| DL1XH-west | 2026-09-01 00:32:16 | 52.67917 | 10.96997 | 163° | 4km/h | 31787m | 6.8m/s | -40.9°C | 0% | 9.5hPa | 2.5V | 03:15:29 | 02:42:13 | 00:00:00 | |
| DL1XH-15 | 2026-09-01 00:32:16 | 52.67913 | 10.96993 | 18° | 11km/h | 31768m | 6m/s | -41.1°C | 1.9% | 9.5hPa | 2.6V | 03:14:49 | 02:42:10 | 00:00:00 | |
| AA1-15 | 2026-09-01 00:32:09 | 52.67906 | 10.96990 | 3° | 2km/h | 31743m | 6.3m/s | -41.3°C | 0% | 9.5hPa | 2.6V | 03:15:29 | 02:42:06 | 00:00:00 | |
| HSKMA3-T | 2026-09-01 00:32:07 | 52.67905 | 10.96990 | 353° | 4km/h | 31730m | 6.4m/s | -41.4°C | 0% | 9.6hPa | 2.6V | 03:15:29 | 02:42:04 | 00:00:00 | |
| DL1XH-west | 2026-09-01 00:32:06 | 52.67904 | 10.96990 | 345° | 2km/h | 31724m | 5.3m/s | -41.4°C | 0% | 9.6hPa | 2.5V | 03:15:29 | 02:42:03 | 00:00:00 | |
| DL1NUX | 2026-09-01 00:32:04 | 52.67909 | 10.96998 | 245° | 5km/h | 31693m | 5.4m/s | -41.5°C | 1.9% | 9.6hPa | 2.6V | 03:15:01 | 02:41:58 | 00:00:00 | |
| BIOWL1-15 | 2026-09-01 00:32:01 | 52.67902 | 10.97000 | 182° | 26km/h | 31636m | 6.1m/s | -41.5°C | 0% | 9.7hPa | 2.5V | 03:15:29 | 02:41:49 | 00:00:00 | |
| DO2SHX-10 | 2026-09-01 00:32:01 | 52.67909 | 10.96998 | 246° | 7km/h | 31693m | 5.4m/s | -41.4°C | 1.9% | 9.6hPa | 2.5V | 00:00:00 | 02:41:58 | 00:00:00 | |
| DM0DOS-11 | 2026-09-01 00:31:59 | 52.67904 | 10.97001 | 356° | 15km/h | 31673m | 6.5m/s | -41.5°C | 1.9% | 9.6hPa | 2.5V | 03:15:04 | 02:41:55 | 00:00:00 | |
| AA1-15 | 2026-09-01 00:31:58 | 52.67904 | 10.97001 | 356° | 15km/h | 31673m | 6.5m/s | -41.5°C | 0% | 9.6hPa | 2.5V | 03:15:29 | 02:41:55 | 00:00:00 | |
| BIOWL9-15 | 2026-09-01 00:31:57 | 52.67900 | 10.97002 | 358° | 16km/h | 31667m | 5.2m/s | -41.5°C | 0.2% | 9.7hPa | 2.5V | 00:00:00 | 00:00:00 | 00:00:00 | |
| DL1XH-15 | 2026-09-01 00:31:56 | 52.67897 | 10.97000 | 177° | 18km/h | 31643m | 7.3m/s | -41.5°C | 1.9% | 9.7hPa | 2.5V | 03:15:09 | 02:41:50 | 00:00:00 | |
| DF8AY | 2026-09-01 00:31:56 | 52.67896 | 10.97002 | 8° | 11km/h | 31662m | 4.1m/s | -41.5°C | 0% | 9.7hPa | 2.6V | 03:15:29 | 02:41:53 | 00:00:00 | |
| DB0DAN | 2026-09-01 00:31:55 | 52.67894 | 10.97001 | 17° | 5km/h | 31657m | 5.7m/s | -41.5°C | 0.2% | 9.67hPa | 2.6V | 00:00:00 | 00:00:00 | 00:00:00 | |
| DL1XH-west | 2026-09-01 00:31:55 | 52.67894 | 10.97001 | 17° | 5km/h | 31657m | 5.7m/s | -41.5°C | 0% | 9.7hPa | 2.6V | 03:15:29 | 02:41:52 | 00:00:00 | |
| DO2SHX-10 | 2026-09-01 00:31:55 | 52.67894 | 10.97001 | 17° | 9km/h | 31657m | 5.6m/s | -41.5°C | 1.9% | 9.6hPa | 2.6V | 00:00:00 | 02:41:52 | 00:00:00 | |
| DL1NUX | 2026-09-01 00:31:54 | 52.67908 | 10.97001 | 181° | 27km/h | 31631m | 5m/s | -41.5°C | 1.9% | 9.7hPa | 2.6V | 03:15:11 | 02:41:48 | 00:00:00 | |
| DL1XH1-15 | 2026-09-01 00:31:54 | 52.67923 | 10.96999 | 162° | 7km/h | 31614m | 6.4m/s | -41.6°C | 2% | 9.7hPa | 2.5V | 03:15:14 | 02:41:45 | 00:00:00 | |
| AA1-15 | 2026-09-01 00:31:47 | 52.67923 | 10.96998 | 41° | 5km/h | 31607m | 6.3m/s | -41.6°C | 0% | 9.8hPa | 2.5V | 03:15:29 | 02:41:44 | 00:00:00 | |
| HSKMA3-T | 2026-09-01 00:31:46 | 52.67922 | 10.96997 | 15° | 11km/h | 31601m | 5.9m/s | -41.6°C | 0% | 9.8hPa | 2.5V | 03:15:29 | 02:41:43 | 00:00:00 | |
| DL1XH-15 | 2026-09-01 00:31:46 | 52.67915 | 10.96993 | 55° | 4km/h | 31583m | 6.1m/s | -41.6°C | 1.9% | 9.8hPa | 2.6V | 03:15:19 | 02:41:40 | 00:00:00 | |
| DF8AY | 2026-09-01 00:31:44 | 52.67916 | 10.96994 | 17° | 9km/h | 31589m | 6.4m/s | -41.6°C | 0% | 9.7hPa | 2.6V | 03:15:29 | 02:41:41 | 00:00:00 | |
| DL1NUX | 2026-09-01 00:31:44 | 52.67917 | 10.96988 | 142° | 13km/h | 31571m | 5.6m/s | -41.6°C | 1.9% | 9.8hPa | 2.5V | 03:15:21 | 02:41:38 | 00:00:00 | |
| DO2SHX-10 | 2026-09-01 00:31:44 | 52.67916 | 10.96994 | 17° | 7km/h | 31589m | 6.4m/s | -41.5°C | 2.0% | 9.7hPa | 2.6V | 00:00:00 | 02:41:41 | 00:00:00 | |
| DM0DOS-11 | 2026-09-01 00:31:43 | 52.67928 | 10.96971 | 128° | 24km/h | 31552m | 6.7m/s | -41.6°C | 2% | 9.8hPa | 2.6V | 03:15:24 | 02:41:35 | 00:00:00 | |
| HSKMA3-T | 2026-09-01 00:31:36 | 52.67934 | 10.96956 | 123° | 20km/h | 31540m | 4.9m/s | -41.6°C | 0% | 9.8hPa | 2.5V | 03:15:29 | 02:41:33 | 00:00:00 | |
| DL1XH-west | 2026-09-01 00:31:34 | 52.67939 | 10.96946 | 146° | 11km/h | 31529m | 6.5m/s | -41.7°C | 0% | 9.9hPa | 2.5V | 03:15:29 | 02:41:31 | 00:00:00 | |
| DL1NUX | 2026-09-01 00:31:34 | 52.67943 | 10.96948 | 276° | 5km/h | 31510m | 5.7m/s | -41.8°C | 2% | 9.9hPa | 2.6V | 03:15:31 | 02:41:28 | 00:00:00 | |
| DF8AY | 2026-09-01 00:31:33 | 52.67941 | 10.96945 | 174° | 9km/h | 31522m | 6.9m/s | -41.7°C | 0% | 9.8hPa | 2.6V | 03:15:29 | 02:41:30 | 00:00:00 | |
| AP2371 | 2026-09-01 00:31:32 | 52.67941 | 10.96945 | 175° | 9km/h | 31523m | 6.9m/s | -41.7°C | 0.2% | 9.8hPa | 2.6V | 03:15:00 | 00:00:00 | 00:00:00 | |
| DO2SHX-10 | 2026-09-01 00:31:31 | 52.67943 | 10.96948 | 277° | 7km/h | 31511m | 5.7m/s | -41.8°C | 2.0% | 9.8hPa | 2.6V | 00:00:00 | 02:41:28 | 00:00:00 | |
| DL4BBY-15 | 2026-09-01 00:31:29 | 52.67940 | 10.96951 | 359° | 13km/h | 31497m | 6.8m/s | -41.5°C | 0% | 0hPa | 2.6V | 00:00:00 | 00:00:00 | 00:00:00 | |
| DD8BA-10 | 2026-09-01 00:31:28 | 52.67937 | 10.96950 | 17° | 16km/h | 31491m | 5.9m/s | -41.9°C | 2.0% | 9.9hPa | 2.6V | 00:00:00 | 00:00:00 | 00:00:00 | |
| DJ8HS-15 | 2026-09-01 00:31:27 | 52.67934 | 10.96947 | 36° | 15km/h | 31486m | 4.6m/s | -41.9°C | 2.0% | 9.9hPa | 2.6V | 00:00:00 | 02:41:24 | 00:00:00 | |
| DB0DAN | 2026-09-01 00:31:25 | 52.67930 | 10.96940 | 93° | 9km/h | 31475m | 7m/s | -41.9°C | 0.2% | 9.95hPa | 2.6V | 00:00:00 | 00:00:00 | 00:00:00 | |
| DL1XH-15 | 2026-09-01 00:31:25 | 52.67934 | 10.96932 | 148° | 18km/h | 31461m | 6.3m/s | -41.9°C | 1.9% | 9.9hPa | 2.5V | 03:15:39 | 02:41:20 | 00:00:00 | |
| BIOWL1-15 | 2026-09-01 00:31:25 | 52.67951 | 10.96903 | 93° | 9km/h | 31425m | 5.7m/s | -42°C | 0% | 10hPa | 2.5V | 03:16:20 | 02:41:14 | 00:00:00 | |
| HSKMA3-T | 2026-09-01 00:31:24 | 52.67931 | 10.96936 | 132° | 13km/h | 31468m | 7.2m/s | -41.9°C | 0% | 9.9hPa | 2.5V | 03:16:20 | 02:41:21 | 00:00:00 | |
| DL1NUX | 2026-09-01 00:31:24 | 52.67942 | 10.96923 | 148° | 22km/h | 31448m | 6.3m/s | -41.9°C | 2% | 10hPa | 2.6V | 03:15:41 | 02:41:18 | 00:00:00 | |
| DF8AY | 2026-09-01 00:31:23 | 52.67934 | 10.96932 | 148° | 18km/h | 31461m | 6.4m/s | -41.9°C | 0% | 9.9hPa | 2.5V | 03:16:20 | 02:41:20 | 00:00:00 | |
| EDDB2-12 | 2026-09-01 00:31:23 | 52.67938 | 10.96928 | 148° | 18km/h | 31455m | 5.8m/s | -41.9°C | 0.2% | 10.0hPa | 2.6V | 00:00:00 | 00:00:00 | 00:00:00 | |
| DO2SHX-10 | 2026-09-01 00:31:22 | 52.67938 | 10.96928 | 149° | 20km/h | 31455m | 5.8m/s | -41.9°C | 2.0% | 9.9hPa | 2.6V | 00:00:00 | 02:41:19 | 00:00:00 | |
| NBG1-10 | 2026-09-01 00:31:21 | 52.67942 | 10.96923 | 149° | 13km/h | 31449m | 6.2m/s | -41.9°C | 2.0% | 9.9hPa | 2.6V | 00:00:00 | 02:41:18 | 00:00:00 | |
| DO2SHX-10 | 2026-09-01 00:31:19 | 52.67949 | 10.96913 | 122° | 13km/h | 31436m | 5.6m/s | -41.9°C | 2.0% | 10.0hPa | 2.5V | 00:00:00 | 02:41:16 | 00:00:00 | |
| DD8BA-10 | 2026-09-01 00:31:18 | 52.67951 | 10.96907 | 104° | 7km/h | 31431m | 5.1m/s | -41.9°C | 2.0% | 9.9hPa | 2.5V | 00:00:00 | 00:00:00 | 00:00:00 | |
| DO2SHX-10 | 2026-09-01 00:31:16 | 52.67951 | 10.96899 | 103° | 4km/h | 31419m | 6.8m/s | -42.0°C | 2.0% | 10.0hPa | 2.5V | 00:00:00 | 02:41:13 | 00:00:00 | |
| DL1XH-15 | 2026-09-01 00:31:15 | 52.67953 | 10.96897 | 187° | 2km/h | 31399m | 5.5m/s | -42°C | 2% | 10hPa | 2.6V | 03:15:49 | 02:41:10 | 00:00:00 | |
| HSKMA3-T | 2026-09-01 00:31:14 | 52.67952 | 10.96898 | 177° | 4km/h | 31405m | 6.2m/s | -42°C | 0% | 10.1hPa | 2.6V | 03:16:20 | 02:41:11 | 00:00:00 | |
| DL1NUX | 2026-09-01 00:31:14 | 52.67952 | 10.96896 | 42° | 7km/h | 31388m | 6.7m/s | -42°C | 2% | 10.1hPa | 2.5V | 03:15:51 | 02:41:08 | 00:00:00 | |
| DL1XH-west | 2026-09-01 00:31:12 | 52.67953 | 10.96897 | 42° | 4km/h | 31394m | 5.4m/s | -42.1°C | 0% | 10.1hPa | 2.5V | 03:16:20 | 02:41:09 | 00:00:00 | |
| HSKMA3-T | 2026-09-01 00:31:04 | 52.67949 | 10.96872 | 190° | 13km/h | 31344m | 5.8m/s | -42.1°C | 0% | 10.1hPa | 2.5V | 03:16:20 | 02:41:01 | 00:00:00 | |
| BIOWL1-15 | 2026-09-01 00:31:04 | 52.67954 | 10.96880 | 342° | 7km/h | 31320m | 6.3m/s | -42.2°C | 0% | 10.2hPa | 2.5V | 03:16:20 | 02:40:57 | 00:00:00 | |
| DM0DOS-11 | 2026-09-01 00:31:03 | 52.67948 | 10.96880 | 11° | 15km/h | 31309m | 4.8m/s | -42.3°C | 2% | 10.2hPa | 2.5V | 03:16:04 | 02:40:55 | 00:00:00 | |
| DF8AY | 2026-09-01 00:31:02 | 52.67955 | 10.96879 | 268° | 5km/h | 31327m | 7m/s | -42.2°C | 0% | 10.2hPa | 2.6V | 03:16:20 | 02:40:58 | 00:00:00 | |
| DL1NUX | 2026-09-01 00:31:02 | 52.67955 | 10.96879 | 268° | 5km/h | 31327m | 7m/s | -42.2°C | 2% | 10.2hPa | 2.6V | 03:16:01 | 02:40:58 | 00:00:00 | |
| DL1XH-west | 2026-09-01 00:31:02 | 52.67954 | 10.96876 | 224° | 9km/h | 31333m | 5.7m/s | -42.1°C | 0% | 10.2hPa | 2.6V | 03:16:20 | 02:40:59 | 00:00:00 | |
| DO2SHX-10 | 2026-09-01 00:31:00 | 52.67954 | 10.96880 | 343° | 11km/h | 31321m | 6.3m/s | -42.1°C | 2.0% | 10.1hPa | 2.5V | 03:16:00 | 02:40:57 | 00:00:00 | |
| DL4BBY-15 | 2026-09-01 00:30:59 | 52.67952 | 10.96880 | 5° | 9km/h | 31315m | 5.4m/s | -41.8°C | 0% | 0hPa | 2.5V | 00:00:00 | 00:00:00 | 00:00:00 | |
| DD8BA-10 | 2026-09-01 00:30:58 | 52.67948 | 10.96880 | 12° | 9km/h | 31309m | 4.7m/s | -42.2°C | 2.0% | 10.1hPa | 2.5V | 00:00:00 | 00:00:00 | 00:00:00 | |
| DL1XH-15 | 2026-09-01 00:30:57 | 52.67944 | 10.96872 | 161° | 9km/h | 31280m | 5.3m/s | -42.3°C | 2% | 10.2hPa | 2.5V | 03:16:09 | 02:40:50 | 00:00:00 | |
| BIOWL1-15 | 2026-09-01 00:30:53 | 52.67953 | 10.96863 | 176° | 7km/h | 31243m | 6.3m/s | -42.4°C | 0% | 10.3hPa | 2.5V | 03:16:20 | 02:40:44 | 00:00:00 | |
| HSKMA3-T | 2026-09-01 00:30:53 | 52.67944 | 10.96872 | 161° | 9km/h | 31280m | 5.4m/s | -42.3°C | 0% | 10.2hPa | 2.5V | 03:16:20 | 02:40:50 | 00:00:00 | |
| DL3AQ-11 | 2026-09-01 00:30:53 | 52.67948 | 10.96869 | 148° | 7km/h | 31268m | 6.8m/s | -42.3°C | 0.2% | 10.3hPa | 2.6V | 00:00:00 | 00:00:00 | 00:00:00 | |
| DL1NUX | 2026-09-01 00:30:52 | 52.67948 | 10.96869 | 148° | 9km/h | 31267m | 6.8m/s | -42.3°C | 2% | 10.3hPa | 2.6V | 03:16:11 | 02:40:48 | 00:00:00 | |
| DL1XH-west | 2026-09-01 00:30:52 | 52.67946 | 10.96870 | 154° | 9km/h | 31274m | 6.4m/s | -42.3°C | 0% | 10.2hPa | 2.5V | 03:16:20 | 02:40:49 | 00:00:00 | |
| DF8AY | 2026-09-01 00:30:51 | 52.67948 | 10.96869 | 149° | 9km/h | 31267m | 6.8m/s | -42.3°C | 0% | 10.3hPa | 2.6V | 03:16:20 | 02:40:48 | 00:00:00 | |
| EDDB2-12 | 2026-09-01 00:30:51 | 52.67948 | 10.96869 | 148° | 7km/h | 31268m | 6.8m/s | -42.3°C | 0.2% | 10.3hPa | 2.6V | 00:00:00 | 00:00:00 | 00:00:00 | |
| EDDB2-11 | 2026-09-01 00:30:50 | 52.67950 | 10.96865 | 134° | 5km/h | 31254m | 5.2m/s | -42.3°C | 0.2% | 10.3hPa | 2.6V | 00:00:00 | 00:00:00 | 00:00:00 | |
| SO1NDE-10 | 2026-09-01 00:30:49 | 52.67950 | 10.96865 | 135° | 9km/h | 31255m | 5.1m/s | -42.3°C | 2.0% | 10.2hPa | 2.6V | 00:00:00 | 02:40:46 | 00:00:00 | |
| DD8BA-10 | 2026-09-01 00:30:48 | 52.67951 | 10.96864 | 154° | 7km/h | 31249m | 5.3m/s | -42.3°C | 2.0% | 10.2hPa | 2.6V | 00:00:00 | 00:00:00 | 00:00:00 | |
| DL1XH-15 | 2026-09-01 00:30:47 | 52.67962 | 10.96863 | 154° | 5km/h | 31218m | 6m/s | -42.4°C | 2% | 10.3hPa | 2.6V | 03:16:19 | 02:40:40 | 00:00:00 | |
| HSKMA3-T | 2026-09-01 00:30:43 | 52.67962 | 10.96863 | 155° | 5km/h | 31218m | 6m/s | -42.4°C | 0% | 10.3hPa | 2.6V | 03:16:20 | 02:40:40 | 00:00:00 | |
| GOEST3-10 | 2026-09-01 00:30:43 | 52.67962 | 10.96863 | 155° | 5km/h | 31218m | 5.9m/s | -42.4°C | 2.0% | 10.3hPa | 2.5V | 00:00:00 | 02:40:40 | 00:00:00 | |
| DL1NUX | 2026-09-01 00:30:42 | 52.67963 | 10.96860 | 45° | 7km/h | 31206m | 5.9m/s | -42.4°C | 2% | 10.3hPa | 2.5V | 03:16:21 | 02:40:38 | 00:00:00 | |
| DL1XH-west | 2026-09-01 00:30:41 | 52.67963 | 10.96860 | 45° | 7km/h | 31206m | 5.9m/s | -42.4°C | 0% | 10.4hPa | 2.5V | 03:17:11 | 02:40:38 | 00:00:00 | |
| DF8AY | 2026-09-01 00:30:40 | 52.67960 | 10.96858 | 358° | 7km/h | 31194m | 5.3m/s | -42.4°C | 0% | 10.4hPa | 2.6V | 03:17:11 | 02:40:36 | 00:00:00 | |
| BIOWL1-15 | 2026-09-01 00:30:38 | 52.67959 | 10.96866 | 246° | 15km/h | 31175m | 6.1m/s | -42.5°C | 0% | 10.4hPa | 2.5V | 03:17:11 | 02:40:33 | 00:00:00 | |
| DD8BA-10 | 2026-09-01 00:30:38 | 52.67958 | 10.96858 | 308° | 9km/h | 31189m | 6.7m/s | -42.4°C | 2.0% | 10.4hPa | 2.6V | 00:00:00 | 00:00:00 | 00:00:00 | |
| DL1ZP-14 | 2026-09-01 00:30:37 | 52.67959 | 10.96866 | 245° | 13km/h | 31176m | 6.1m/s | -42.5°C | 0.3% | 10.4hPa | 2.5V | 00:00:00 | 00:00:00 | 00:00:00 | |
| DL1XH-15 | 2026-09-01 00:30:35 | 52.67964 | 10.96883 | 244° | 11km/h | 31156m | 6.4m/s | -42.5°C | 2% | 10.4hPa | 2.6V | 03:16:29 | 02:40:30 | 00:00:00 | |
| DO2SHX-10 | 2026-09-01 00:30:34 | 52.67962 | 10.96878 | 248° | 13km/h | 31163m | 6.4m/s | -42.4°C | 2.0% | 10.4hPa | 2.6V | 03:16:00 | 02:40:31 | 00:00:00 | |
| DO3MHA-11 | 2026-09-01 00:30:33 | 52.67964 | 10.96883 | 245° | 9km/h | 31157m | 6.4m/s | -42.4°C | 2.0% | 10.4hPa | 2.6V | 03:16:00 | 02:40:30 | 00:00:00 | |
| DL1NUX | 2026-09-01 00:30:32 | 52.67966 | 10.96889 | 220° | 5km/h | 31144m | 5.3m/s | -42.5°C | 2% | 10.4hPa | 2.6V | 03:16:31 | 02:40:28 | 00:00:00 | |
| HSKMA3-T | 2026-09-01 00:30:32 | 52.67965 | 10.96887 | 242° | 7km/h | 31150m | 5.8m/s | -42.5°C | 0% | 10.4hPa | 2.6V | 03:17:11 | 02:40:29 | 00:00:00 | |
| DM0DOS-11 | 2026-09-01 00:30:32 | 52.67971 | 10.96889 | 153° | 9km/h | 31125m | 6.1m/s | -42.5°C | 2% | 10.5hPa | 2.5V | 03:16:34 | 02:40:25 | 00:00:00 | |
| DL1XH-west | 2026-09-01 00:30:31 | 52.67966 | 10.96889 | 220° | 5km/h | 31144m | 5.3m/s | -42.5°C | 0% | 10.4hPa | 2.6V | 03:17:11 | 02:40:28 | 00:00:00 | |
| DF8AY | 2026-09-01 00:30:29 | 52.67969 | 10.96890 | 171° | 9km/h | 31132m | 6.7m/s | -42.5°C | 0% | 10.4hPa | 2.5V | 03:17:11 | 02:40:26 | 00:00:00 | |
| BIOWL1-15 | 2026-09-01 00:30:27 | 52.67973 | 10.96872 | 243° | 7km/h | 31086m | 6.1m/s | -42.7°C | 0% | 10.6hPa | 2.6V | 03:17:11 | 02:40:18 | 00:00:00 | |
| DO2SHX-10 | 2026-09-01 00:30:27 | 52.67973 | 10.96887 | 138° | 9km/h | 31120m | 5.7m/s | -42.5°C | 2.0% | 10.5hPa | 2.6V | 00:00:00 | 02:40:24 | 00:00:00 | |
| DB0DAN | 2026-09-01 00:30:25 | 52.67975 | 10.96880 | 93° | 11km/h | 31108m | 7.1m/s | -42.6°C | 0.2% | 10.48hPa | 2.6V | 00:00:00 | 00:00:00 | 00:00:00 | |
| DO2SHX-10 | 2026-09-01 00:30:24 | 52.67975 | 10.96876 | 72° | 5km/h | 31101m | 5.9m/s | -42.6°C | 2.0% | 10.5hPa | 2.5V | 00:00:00 | 02:40:21 | 00:00:00 | |
| GOEST3-10 | 2026-09-01 00:30:23 | 52.67974 | 10.96873 | 54° | 9km/h | 31096m | 4.7m/s | -42.6°C | 2.1% | 10.5hPa | 2.5V | 00:00:00 | 02:40:20 | 00:00:00 | |
| DM0DOS-11 | 2026-09-01 00:30:22 | 52.67983 | 10.96889 | 223° | 29km/h | 31066m | 5.2m/s | -42.7°C | 2.1% | 10.6hPa | 2.5V | 03:16:44 | 02:40:15 | 00:00:00 | |
| DL1NUX | 2026-09-01 00:30:22 | 52.67973 | 10.96872 | 242° | 7km/h | 31086m | 6.1m/s | -42.6°C | 2% | 10.6hPa | 2.6V | 03:16:41 | 02:40:18 | 00:00:00 | |
| HSKMA3-T | 2026-09-01 00:30:22 | 52.67973 | 10.96871 | 62° | 2km/h | 31091m | 4.6m/s | -42.7°C | 0% | 10.5hPa | 2.5V | 03:17:11 | 02:40:19 | 00:00:00 | |
| DF8AY | 2026-09-01 00:30:18 | 52.67983 | 10.96889 | 224° | 29km/h | 31066m | 5.2m/s | -42.7°C | 0% | 10.6hPa | 2.5V | 03:17:11 | 02:40:15 | 00:00:00 | |
| DO2SHX-10 | 2026-09-01 00:30:18 | 52.67988 | 10.96896 | 223° | 22km/h | 31061m | 4.3m/s | -42.7°C | 2.0% | 10.5hPa | 2.5V | 00:00:00 | 02:40:14 | 00:00:00 | |
| DO2SHX-10 | 2026-09-01 00:30:14 | 52.67996 | 10.96907 | 140° | 7km/h | 31043m | 6.3m/s | -42.8°C | 2.1% | 10.5hPa | 2.5V | 00:00:00 | 02:40:11 | 00:00:00 | |
| GOEST3-10 | 2026-09-01 00:30:13 | 52.67996 | 10.96905 | 82° | 11km/h | 31037m | 5.6m/s | -42.9°C | 2.1% | 10.6hPa | 2.5V | 00:00:00 | 02:40:10 | 00:00:00 | |
| DL1NUX | 2026-09-01 00:30:12 | 52.67997 | 10.96897 | 104° | 11km/h | 31025m | 6.5m/s | -43°C | 2.1% | 10.6hPa | 2.5V | 03:16:51 | 02:40:08 | 00:00:00 | |
| HSKMA3-T | 2026-09-01 00:30:11 | 52.67996 | 10.96897 | 105° | 11km/h | 31025m | 6.5m/s | -43°C | 0% | 10.6hPa | 2.5V | 03:17:11 | 02:40:08 | 00:00:00 | |
| DO2SHX-10 | 2026-09-01 00:30:11 | 52.67996 | 10.96897 | 105° | 13km/h | 31025m | 6.4m/s | -43.0°C | 2.1% | 10.6hPa | 2.6V | 00:00:00 | 02:40:08 | 00:00:00 | |
| DL1XH1-15 | 2026-09-01 00:30:10 | 52.68003 | 10.96889 | 174° | 16km/h | 31007m | 5.4m/s | -43°C | 2.1% | 10.7hPa | 2.6V | 03:16:54 | 02:40:05 | 00:00:00 | |
| DF8AY | 2026-09-01 00:30:08 | 52.68008 | 10.96889 | 182° | 18km/h | 31002m | 5.5m/s | -43.1°C | 0% | 10.6hPa | 2.6V | 03:17:11 | 02:40:04 | 00:00:00 | |
| DO2SHX-10 | 2026-09-01 00:30:08 | 52.68003 | 10.96889 | 175° | 16km/h | 31007m | 5.4m/s | -43.0°C | 2.1% | 10.6hPa | 2.6V | 03:16:00 | 02:40:05 | 00:00:00 | |
| DL1NUX | 2026-09-01 00:30:07 | 52.68029 | 10.96888 | 164° | 16km/h | 30967m | 5.9m/s | -43.1°C | 2.1% | 10.7hPa | 2.6V | 03:17:01 | 02:39:58 | 00:00:00 | |
| HSKMA3-T | 2026-09-01 00:30:01 | 52.68029 | 10.96888 | 164° | 18km/h | 30967m | 5.9m/s | -43.1°C | 0% | 10.7hPa | 2.6V | 03:17:11 | 02:39:58 | 00:00:00 | |
| DJ8HS-15 | 2026-09-01 00:30:00 | 52.68034 | 10.96886 | 171° | 18km/h | 30961m | 6.9m/s | -43.0°C | 2.1% | 10.7hPa | 2.5V | 00:00:00 | 02:39:57 | 00:00:00 | |
| DO2SHX-10 | 2026-09-01 00:29:59 | 52.68040 | 10.96884 | 174° | 24km/h | 30954m | 6.2m/s | -43.0°C | 2.1% | 10.7hPa | 2.5V | 00:00:00 | 02:39:56 | 00:00:00 | |
| DL1XH-15 | 2026-09-01 00:29:58 | 52.68063 | 10.96866 | 109° | 11km/h | 30918m | 4.8m/s | -43.1°C | 2.1% | 10.8hPa | 2.5V | 03:17:09 | 02:39:50 | 00:00:00 | |
| DL1XH-west | 2026-09-01 00:29:58 | 52.68046 | 10.96883 | 170° | 26km/h | 30948m | 5.4m/s | -43.1°C | 0% | 10.8hPa | 2.5V | 03:17:11 | 02:39:55 | 00:00:00 | |
| DF8AY | 2026-09-01 00:29:57 | 52.68052 | 10.96881 | 166° | 22km/h | 30942m | 5.4m/s | -43.1°C | 0% | 10.8hPa | 2.6V | 03:17:11 | 02:39:54 | 00:00:00 | |
| AA1-15 | 2026-09-01 00:29:57 | 52.68057 | 10.96879 | 156° | 18km/h | 30937m | 6.6m/s | -43.1°C | 0% | 10.8hPa | 2.6V | 03:17:11 | 02:39:53 | 00:00:00 | |
| DL1NUX | 2026-09-01 00:29:56 | 52.68066 | 10.96858 | 145° | 13km/h | 30907m | 6.6m/s | -43.1°C | 2.1% | 10.8hPa | 2.6V | 03:17:11 | 02:39:48 | 00:00:00 | |
| DO2SHX-10 | 2026-09-01 00:29:56 | 52.68056 | 10.96879 | 157° | 15km/h | 30937m | 6.6m/s | -43.0°C | 2.1% | 10.7hPa | 2.5V | 03:17:00 | 02:39:53 | 00:00:00 | |
| DM0DOS-11 | 2026-09-01 00:29:53 | 52.68081 | 10.96851 | 165° | 22km/h | 30888m | 5.3m/s | -43.1°C | 2.1% | 10.8hPa | 2.5V | 03:17:14 | 02:39:45 | 00:00:00 | |
| HSKMA3-T | 2026-09-01 00:29:51 | 52.68066 | 10.96858 | 145° | 13km/h | 30907m | 6.6m/s | -43.1°C | 0% | 10.8hPa | 2.6V | 03:17:11 | 02:39:48 | 00:00:00 | |
| DL1XH-west | 2026-09-01 00:29:48 | 52.68086 | 10.96848 | 158° | 24km/h | 30883m | 6m/s | -43.1°C | 0% | 10.9hPa | 2.5V | 03:18:02 | 02:39:44 | 00:00:00 | |
| DL1XH-15 | 2026-09-01 00:29:48 | 52.68103 | 10.96827 | 138° | 22km/h | 30859m | 5.6m/s | -43.3°C | 2.1% | 10.9hPa | 2.6V | 03:17:19 | 02:39:40 | 00:00:00 | |
| DF8AY | 2026-09-01 00:29:48 | 52.68107 | 10.96821 | 144° | 22km/h | 30853m | 6.6m/s | -43.3°C | 0% | 10.9hPa | 2.5V | 03:18:53 | 02:39:39 | 00:00:00 | |
| DF8AY-15 | 2026-09-01 00:29:47 | 52.68086 | 10.96848 | 159° | 24km/h | 30883m | 5.9m/s | -43.1°C | 2.1% | 10.8hPa | 2.5V | 03:17:00 | 02:39:44 | 00:00:00 | |
| DL1NUX | 2026-09-01 00:29:46 | 52.68112 | 10.96816 | 151° | 24km/h | 30847m | 5.7m/s | -43.2°C | 2.2% | 10.9hPa | 2.5V | 03:17:21 | 02:39:38 | 00:00:00 | |
| AA1-15 | 2026-09-01 00:29:44 | 52.68099 | 10.96833 | 135° | 20km/h | 30864m | 5.3m/s | -43.3°C | 0% | 10.9hPa | 2.6V | 03:18:02 | 02:39:41 | 00:00:00 | |
| HSKMA3-T | 2026-09-01 00:29:40 | 52.68117 | 10.96811 | 152° | 22km/h | 30841m | 4.8m/s | -43.2°C | 0% | 11hPa | 2.5V | 03:18:02 | 02:39:37 | 00:00:00 | |
| DB0DAN | 2026-09-01 00:29:40 | 52.68117 | 10.96811 | 152° | 20km/h | 30841m | 4.8m/s | -43.2°C | 0.2% | 10.96hPa | 2.5V | 00:00:00 | 00:00:00 | 00:00:00 | |
| DO2SHX-10 | 2026-09-01 00:29:40 | 52.68117 | 10.96811 | 153° | 22km/h | 30842m | 4.7m/s | -43.2°C | 2.1% | 10.9hPa | 2.5V | 00:00:00 | 02:39:37 | 00:00:00 | |
| DJ8HS-15 | 2026-09-01 00:29:39 | 52.68122 | 10.96807 | 148° | 16km/h | 30837m | 4.8m/s | -43.2°C | 2.1% | 10.9hPa | 2.6V | 00:00:00 | 02:39:36 | 00:00:00 | |
| DD8BA-10 | 2026-09-01 00:29:38 | 52.68125 | 10.96802 | 133° | 27km/h | 30832m | 6.2m/s | -43.2°C | 2.1% | 10.9hPa | 2.6V | 00:00:00 | 00:00:00 | 00:00:00 | |
| DL1XH-15 | 2026-09-01 00:29:37 | 52.68137 | 10.96763 | 127° | 27km/h | 30802m | 6.8m/s | -43.3°C | 2.1% | 11hPa | 2.6V | 03:17:29 | 02:39:30 | 00:00:00 | |
| DL1XH-west | 2026-09-01 00:29:36 | 52.68130 | 10.96789 | 102° | 18km/h | 30818m | 6.2m/s | -43.2°C | 0% | 11hPa | 2.5V | 03:18:02 | 02:39:33 | 00:00:00 | |
| DF8AY | 2026-09-01 00:29:35 | 52.68133 | 10.96772 | 117° | 26km/h | 30808m | 4.9m/s | -43.3°C | 0% | 11hPa | 2.5V | 03:18:53 | 02:39:31 | 00:00:00 | |
| AA1-15 | 2026-09-01 00:29:33 | 52.68137 | 10.96763 | 128° | 27km/h | 30802m | 6.8m/s | -43.3°C | 0% | 11hPa | 2.6V | 03:18:02 | 02:39:30 | 00:00:00 | |
| GOEST3-10 | 2026-09-01 00:29:33 | 52.68137 | 10.96762 | 128° | 31km/h | 30802m | 6.8m/s | -43.3°C | 2.1% | 11.0hPa | 2.6V | 00:00:00 | 02:39:30 | 00:00:00 | |
| DL1NUX | 2026-09-01 00:29:32 | 52.68148 | 10.96745 | 142° | 37km/h | 30789m | 5.2m/s | -43.5°C | 2.1% | 11hPa | 2.6V | 03:17:31 | 02:39:28 | 00:00:00 | |
| HSKMA3-T | 2026-09-01 00:29:29 | 52.68162 | 10.96727 | 136° | 31km/h | 30779m | 5m/s | -43.6°C | 0% | 11hPa | 2.5V | 03:18:02 | 02:39:26 | 00:00:00 | |
| DL1XH-west | 2026-09-01 00:29:26 | 52.68171 | 10.96703 | 98° | 16km/h | 30762m | 5.6m/s | -43.6°C | 0% | 11.1hPa | 2.6V | 03:18:02 | 02:39:23 | 00:00:00 | |
| DL1NUX | 2026-09-01 00:29:26 | 52.68175 | 10.96682 | 137° | 13km/h | 30733m | 5.2m/s | -43.7°C | 2.2% | 11.1hPa | 2.6V | 03:17:41 | 02:39:18 | 00:00:00 | |
| DD8BA-10 | 2026-09-01 00:29:26 | 52.68171 | 10.96703 | 99° | 15km/h | 30762m | 5.6m/s | -43.5°C | 2.1% | 11.0hPa | 2.5V | 00:00:00 | 00:00:00 | 00:00:00 | |
| DL4XJ-10 | 2026-09-01 00:29:24 | 52.68172 | 10.96692 | 91° | 16km/h | 30751m | 6.0m/s | -43.3°C | 0% | 0hPa | 2.5V | 00:00:00 | 00:00:00 | 00:00:00 | |
| DM0DOS-11 | 2026-09-01 00:29:23 | 52.68180 | 10.96665 | 103° | 20km/h | 30716m | 6m/s | -43.8°C | 2.1% | 11.1hPa | 2.5V | 03:17:44 | 02:39:15 | 00:00:00 | |
| AA1-15 | 2026-09-01 00:29:22 | 52.68173 | 10.96685 | 130° | 9km/h | 30739m | 5.6m/s | -43.7°C | 0% | 11.1hPa | 2.5V | 03:18:02 | 02:39:19 | 00:00:00 | |
| HSKMA3-T | 2026-09-01 00:29:18 | 52.68180 | 10.96665 | 103° | 20km/h | 30716m | 6m/s | -43.8°C | 0% | 11.1hPa | 2.5V | 03:18:02 | 02:39:15 | 00:00:00 | |
| BIOWL1-15 | 2026-09-01 00:29:17 | 52.68204 | 10.96610 | 109° | 11km/h | 30667m | 7.2m/s | -43.8°C | 0% | 11.2hPa | 2.6V | 03:18:02 | 02:39:06 | 00:00:00 | |
| EDDB2-11 | 2026-09-01 00:29:17 | 52.68183 | 10.96646 | 107° | 24km/h | 30705m | 4.6m/s | -43.8°C | 0.3% | 11.2hPa | 2.5V | 00:00:00 | 00:00:00 | 00:00:00 | |
| DD8BA-10 | 2026-09-01 00:29:16 | 52.68183 | 10.96646 | 108° | 18km/h | 30705m | 4.6m/s | -43.8°C | 2.2% | 11.1hPa | 2.5V | 00:00:00 | 00:00:00 | 00:00:00 | |
| DL1NUX | 2026-09-01 00:29:14 | 52.68200 | 10.96617 | 157° | 16km/h | 30678m | 4.7m/s | -43.8°C | 2.2% | 11.2hPa | 2.5V | 03:17:51 | 02:39:08 | 00:00:00 | |
| DL1XH-west | 2026-09-01 00:29:14 | 52.68188 | 10.96629 | 128° | 20km/h | 30695m | 6.9m/s | -43.8°C | 0% | 11.2hPa | 2.6V | 03:18:02 | 02:39:11 | 00:00:00 | |
| DF8AY | 2026-09-01 00:29:13 | 52.68195 | 10.96620 | 156° | 18km/h | 30683m | 4.9m/s | -43.8°C | 0% | 11.2hPa | 2.5V | 03:18:53 | 02:39:09 | 00:00:00 | |
| AA1-15 | 2026-09-01 00:29:11 | 52.68199 | 10.96617 | 158° | 16km/h | 30678m | 4.7m/s | -43.8°C | 0% | 11.2hPa | 2.5V | 03:18:02 | 02:39:08 | 00:00:00 | |
| DO2SHX-10 | 2026-09-01 00:29:11 | 52.68199 | 10.96617 | 158° | 16km/h | 30679m | 4.6m/s | -43.8°C | 2.2% | 11.1hPa | 2.5V | 00:00:00 | 02:39:08 | 00:00:00 | |
| DM0DOS-11 | 2026-09-01 00:29:10 | 52.68204 | 10.96605 | 86° | 15km/h | 30660m | 6.2m/s | -43.8°C | 2.2% | 11.3hPa | 2.6V | 03:17:54 | 02:39:05 | 00:00:00 | |
| HSKMA3-T | 2026-09-01 00:29:08 | 52.68203 | 10.96598 | 72° | 18km/h | 30655m | 5m/s | -43.9°C | 0% | 11.3hPa | 2.6V | 03:18:02 | 02:39:04 | 00:00:00 | |
| DL1XH-15 | 2026-09-01 00:29:07 | 52.68203 | 10.96566 | 117° | 20km/h | 30632m | 6.2m/s | -43.9°C | 2.2% | 11.3hPa | 2.6V | 03:17:59 | 02:39:00 | 00:00:00 | |
| DO3MHA-11 | 2026-09-01 00:29:07 | 52.68203 | 10.96598 | 73° | 20km/h | 30655m | 4.9m/s | -43.8°C | 2.2% | 11.2hPa | 2.6V | 00:00:00 | 02:39:04 | 00:00:00 | |
| DL1NUX | 2026-09-01 00:29:06 | 52.68209 | 10.96553 | 132° | 20km/h | 30621m | 4.9m/s | -44°C | 2.2% | 11.3hPa | 2.6V | 03:18:01 | 02:38:58 | 00:00:00 | |
| BIOWL1-15 | 2026-09-01 00:29:05 | 52.68215 | 10.96539 | 115° | 22km/h | 30611m | 6.3m/s | -44°C | 0% | 11.3hPa | 2.5V | 03:18:53 | 02:38:56 | 00:00:00 | |
| DL1XH-west | 2026-09-01 00:29:04 | 52.68201 | 10.96573 | 100° | 20km/h | 30638m | 6.1m/s | -43.9°C | 0% | 11.3hPa | 2.5V | 03:18:02 | 02:39:01 | 00:00:00 | |
| AA1-15 | 2026-09-01 00:29:01 | 52.68209 | 10.96553 | 133° | 20km/h | 30621m | 4.9m/s | -44°C | 0% | 11.3hPa | 2.6V | 03:18:02 | 02:38:58 | 00:00:00 | |
| SMARD9-15 | 2026-09-01 00:29:01 | 52.68215 | 10.96539 | 115° | 22km/h | 30611m | 6.3m/s | -44.0°C | 0.2% | 11.3hPa | 2.5V | 00:00:00 | 00:00:00 | 00:00:00 | |
| DM0DOS-11 | 2026-09-01 00:29:00 | 52.68216 | 10.96530 | 96° | 24km/h | 30605m | 6.2m/s | -44°C | 2.1% | 11.3hPa | 2.5V | 03:18:04 | 02:38:55 | 00:00:00 | |
| DF8AY | 2026-09-01 00:28:59 | 52.68216 | 10.96530 | 97° | 24km/h | 30605m | 6.2m/s | -44°C | 0% | 11.3hPa | 2.5V | 03:18:53 | 02:38:55 | 00:00:00 | |
| HSKMA3-T | 2026-09-01 00:28:57 | 52.68216 | 10.96520 | 85° | 24km/h | 30599m | 5.8m/s | -44.1°C | 0% | 11.3hPa | 2.6V | 03:18:53 | 02:38:54 | 00:00:00 | |
| DL1XH-15 | 2026-09-01 00:28:57 | 52.68211 | 10.96491 | 78° | 11km/h | 30574m | 5.4m/s | -44.2°C | 2.2% | 11.4hPa | 2.5V | 03:18:09 | 02:38:50 | 00:00:00 | |
| BIOWL1-15 | 2026-09-01 00:28:54 | 52.68212 | 10.96496 | 73° | 15km/h | 30581m | 6.7m/s | -44.2°C | 0% | 11.4hPa | 2.5V | 03:18:53 | 02:38:51 | 00:00:00 | |
| DL1XH-west | 2026-09-01 00:28:54 | 52.68211 | 10.96491 | 79° | 11km/h | 30574m | 5.4m/s | -44.2°C | 0% | 11.4hPa | 2.5V | 03:18:53 | 02:38:50 | 00:00:00 | |
| AP2371 | 2026-09-01 00:28:53 | 52.68211 | 10.96491 | 80° | 11km/h | 30575m | 5.4m/s | -44.2°C | 0.3% | 11.4hPa | 2.5V | 03:18:00 | 00:00:00 | 00:00:00 | |
| DO2SHX-10 | 2026-09-01 00:28:52 | 52.68211 | 10.96486 | 92° | 13km/h | 30569m | 4.9m/s | -44.2°C | 2.2% | 11.4hPa | 2.5V | 00:00:00 | 02:38:49 | 00:00:00 | |
| DL1XH1-15 | 2026-09-01 00:28:51 | 52.68213 | 10.96452 | 98° | 31km/h | 30546m | 5.3m/s | -44.4°C | 2.2% | 11.4hPa | 2.5V | 03:18:14 | 02:38:45 | 00:00:00 | |
| AA1-15 | 2026-09-01 00:28:51 | 52.68212 | 10.96473 | 98° | 20km/h | 30558m | 6.9m/s | -44.3°C | 0% | 11.4hPa | 2.6V | 03:18:53 | 02:38:47 | 00:00:00 | |
| S3001 | 2026-09-01 00:28:50 | 52.68212 | 10.96473 | 97° | 20km/h | 30558m | 6.9m/s | -44.3°C | 0.2% | 11.4hPa | 2.5V | 00:00:00 | 00:00:00 | 00:00:00 | |
| DF8AY | 2026-09-01 00:28:48 | 52.68223 | 10.96396 | 67° | 11km/h | 30505m | 6.6m/s | -44.5°C | 0% | 11.5hPa | 2.5V | 03:18:53 | 02:38:38 | 00:00:00 | |
| GOEST3-10 | 2026-09-01 00:28:48 | 52.68213 | 10.96452 | 99° | 27km/h | 30546m | 5.3m/s | -44.3°C | 2.2% | 11.4hPa | 2.5V | 00:00:00 | 00:00:00 | 00:00:00 | |
| DL1XH-15 | 2026-09-01 00:28:47 | 52.68223 | 10.96404 | 114° | 11km/h | 30517m | 5.7m/s | -44.5°C | 2.2% | 11.5hPa | 2.6V | 03:18:19 | 02:38:40 | 00:00:00 | |
| HSKMA3-T | 2026-09-01 00:28:46 | 52.68216 | 10.96427 | 107° | 27km/h | 30536m | 5.2m/s | -44.4°C | 0% | 11.4hPa | 2.5V | 03:18:53 | 02:38:43 | 00:00:00 | |
| BIOWL1-15 | 2026-09-01 00:28:44 | 52.68221 | 10.96410 | 122° | 18km/h | 30523m | 6.6m/s | -44.4°C | 0% | 11.5hPa | 2.6V | 03:18:53 | 02:38:41 | 00:00:00 | |
| DL1XH-west | 2026-09-01 00:28:43 | 52.68223 | 10.96404 | 115° | 11km/h | 30517m | 5.7m/s | -44.5°C | 0% | 11.5hPa | 2.6V | 03:18:53 | 02:38:40 | 00:00:00 | |
| DF8AY-15 | 2026-09-01 00:28:43 | 52.68223 | 10.96404 | 115° | 11km/h | 30517m | 5.7m/s | -44.4°C | 2.2% | 11.4hPa | 2.5V | 00:00:00 | 02:38:40 | 00:00:00 | |
| DO2SHX-10 | 2026-09-01 00:28:42 | 52.68223 | 10.96400 | 97° | 11km/h | 30512m | 6.0m/s | -44.4°C | 2.2% | 11.4hPa | 2.5V | 03:18:00 | 02:38:39 | 00:00:00 | |
| TFSTFS | 2026-09-01 00:28:41 | 52.68223 | 10.96400 | 98° | 9km/h | 30512m | 6.0m/s | -44.5°C | 0.2% | 11.5hPa | 2.6V | 00:00:00 | 00:00:00 | 00:00:00 | |
| DM0DOS-11 | 2026-09-01 00:28:40 | 52.68218 | 10.96383 | 66° | 13km/h | 30488m | 5.2m/s | -44.5°C | 2.2% | 11.5hPa | 2.6V | 03:18:24 | 02:38:35 | 00:00:00 | |
| AA1-15 | 2026-09-01 00:28:39 | 52.68219 | 10.96388 | 56° | 15km/h | 30493m | 4.8m/s | -44.5°C | 0% | 11.5hPa | 2.6V | 03:18:53 | 02:38:36 | 00:00:00 | |
| DB0UT-7 | 2026-09-01 00:28:39 | 52.68219 | 10.96388 | 56° | 15km/h | 30493m | 4.7m/s | -44.4°C | 2.2% | 11.5hPa | 2.6V | 03:18:00 | 02:38:36 | 00:00:00 | |
| GOEST3-10 | 2026-09-01 00:28:38 | 52.68218 | 10.96382 | 67° | 16km/h | 30488m | 5.1m/s | -44.5°C | 2.2% | 11.5hPa | 2.6V | 03:18:00 | 00:00:00 | 00:00:00 | |
| DL1XH-15 | 2026-09-01 00:28:37 | 52.68228 | 10.96354 | 129° | 26km/h | 30459m | 5.9m/s | -44.6°C | 2.3% | 11.6hPa | 2.6V | 03:18:29 | 02:38:30 | 00:00:00 | |
| HSKMA3-T | 2026-09-01 00:28:35 | 52.68220 | 10.96367 | 133° | 18km/h | 30470m | 5.5m/s | -44.6°C | 0% | 11.6hPa | 2.5V | 03:18:53 | 02:38:32 | 00:00:00 | |
| BIOWL1-15 | 2026-09-01 00:28:33 | 52.68243 | 10.96309 | 124° | 16km/h | 30430m | 6.5m/s | -44.6°C | 0% | 11.6hPa | 2.5V | 03:18:53 | 02:38:25 | 00:00:00 | |
| DL1XH-west | 2026-09-01 00:28:33 | 52.68228 | 10.96354 | 129° | 26km/h | 30459m | 5.9m/s | -44.6°C | 0% | 11.6hPa | 2.6V | 03:18:53 | 02:38:30 | 00:00:00 | |
| DM0DOS-11 | 2026-09-01 00:28:33 | 52.68243 | 10.96309 | 123° | 16km/h | 30430m | 6.5m/s | -44.6°C | 2.3% | 11.6hPa | 2.5V | 03:18:34 | 02:38:25 | 00:00:00 | |
| AA1-15 | 2026-09-01 00:28:29 | 52.68241 | 10.96316 | 114° | 22km/h | 30436m | 5.1m/s | -44.6°C | 0% | 11.6hPa | 2.5V | 03:18:53 | 02:38:26 | 00:00:00 | |
| DJ8HS-15 | 2026-09-01 00:28:29 | 52.68241 | 10.96316 | 115° | 13km/h | 30436m | 5.1m/s | -44.6°C | 2.2% | 11.6hPa | 2.5V | 00:00:00 | 02:38:26 | 00:00:00 | |
| GOEST3-10 | 2026-09-01 00:28:28 | 52.68243 | 10.96308 | 124° | 9km/h | 30431m | 6.5m/s | -44.6°C | 2.3% | 11.6hPa | 2.5V | 00:00:00 | 00:00:00 | 00:00:00 | |
| DL1XH-15 | 2026-09-01 00:28:27 | 52.68250 | 10.96298 | 60° | 7km/h | 30401m | 6.5m/s | -44.6°C | 2.1% | 11.7hPa | 2.5V | 03:18:39 | 02:38:20 | 00:00:00 | |
| DO2SHX-10 | 2026-09-01 00:28:27 | 52.68245 | 10.96304 | 144° | 11km/h | 30425m | 6.3m/s | -44.6°C | 2.3% | 11.6hPa | 2.6V | 00:00:00 | 02:38:24 | 00:00:00 | |
| DL1NUX | 2026-09-01 00:28:26 | 52.68247 | 10.96289 | 74° | 15km/h | 30389m | 5m/s | -44.7°C | 2.2% | 11.7hPa | 2.6V | 03:18:41 | 02:38:18 | 00:00:00 | |
| DB0DAN | 2026-09-01 00:28:25 | 52.68249 | 10.96301 | 165° | 5km/h | 30413m | 5m/s | -44.6°C | 0.3% | 11.68hPa | 2.6V | 00:00:00 | 00:00:00 | 00:00:00 | |
| DF8AY | 2026-09-01 00:28:25 | 52.68249 | 10.96269 | 128° | 18km/h | 30371m | 6.1m/s | -44.7°C | 0% | 11.7hPa | 2.5V | 03:18:53 | 02:38:15 | 00:00:00 | |
| HSKMA3-T | 2026-09-01 00:28:25 | 52.68249 | 10.96301 | 165° | 5km/h | 30413m | 5m/s | -44.6°C | 0% | 11.7hPa | 2.6V | 03:18:53 | 02:38:22 | 00:00:00 | |
| DL1XH-west | 2026-09-01 00:28:22 | 52.68247 | 10.96289 | 75° | 15km/h | 30389m | 5m/s | -44.7°C | 0% | 11.7hPa | 2.6V | 03:18:53 | 02:38:18 | 00:00:00 | |
| AA1-15 | 2026-09-01 00:28:19 | 52.68247 | 10.96276 | 108° | 18km/h | 30378m | 6.3m/s | -44.7°C | 0% | 11.7hPa | 2.6V | 03:18:53 | 02:38:16 | 00:00:00 | |
| GOEST3-10 | 2026-09-01 00:28:18 | 52.68249 | 10.96269 | 129° | 18km/h | 30372m | 6.0m/s | -44.7°C | 2.3% | 11.7hPa | 2.5V | 03:18:00 | 00:00:00 | 00:00:00 | |
| DL1XH-15 | 2026-09-01 00:28:16 | 52.68266 | 10.96246 | 115° | 11km/h | 30343m | 5.8m/s | -44.8°C | 2.3% | 11.8hPa | 2.6V | 03:18:49 | 02:38:10 | 00:00:00 | |
| DF8AY | 2026-09-01 00:28:15 | 52.68260 | 10.96255 | 145° | 18km/h | 30355m | 5.7m/s | -44.8°C | 0% | 11.8hPa | 2.6V | 03:18:53 | 02:38:12 | 00:00:00 | |
| HSKMA3-T | 2026-09-01 00:28:14 | 52.68264 | 10.96250 | 133° | 15km/h | 30349m | 6.3m/s | -44.8°C | 0% | 11.8hPa | 2.6V | 03:18:53 | 02:38:11 | 00:00:00 | |
| DL1NUX | 2026-09-01 00:28:14 | 52.68267 | 10.96239 | 90° | 5km/h | 30332m | 5m/s | -44.9°C | 2.2% | 11.8hPa | 2.5V | 03:18:51 | 02:38:08 | 00:00:00 | |
| DO3MHA-11 | 2026-09-01 00:28:14 | 52.68264 | 10.96250 | 133° | 16km/h | 30350m | 6.3m/s | -44.8°C | 2.3% | 11.7hPa | 2.5V | 00:00:00 | 02:38:11 | 00:00:00 | |
| DL3AQ-11 | 2026-09-01 00:28:13 | 52.68266 | 10.96242 | 98° | 7km/h | 30338m | 5.3m/s | 0°C | -1.0% | 11.8hPa | 2.5V | 00:00:00 | 00:00:00 | 00:00:00 | |
| DO2SHX-10 | 2026-09-01 00:28:12 | 52.68266 | 10.96242 | 99° | 7km/h | 30338m | 5.2m/s | -44.8°C | 2.3% | 11.8hPa | 2.5V | 00:00:00 | 02:38:09 | 00:00:00 | |
| DB0DAN | 2026-09-01 00:28:10 | 52.68267 | 10.96237 | 113° | 4km/h | 30326m | 6.2m/s | -44.9°C | 0.2% | 11.82hPa | 2.5V | 00:00:00 | 00:00:00 | 00:00:00 | |
| DL1XH-west | 2026-09-01 00:28:10 | 52.68268 | 10.96236 | 161° | 5km/h | 30320m | 6.6m/s | -44.9°C | 0% | 11.8hPa | 2.6V | 03:18:53 | 02:38:06 | 00:00:00 | |
| AA1-15 | 2026-09-01 00:28:09 | 52.68269 | 10.96235 | 164° | 7km/h | 30314m | 5.6m/s | -45°C | 0% | 11.8hPa | 2.6V | 03:19:44 | 02:38:05 | 00:00:00 | |
| DB0UT-7 | 2026-09-01 00:28:09 | 52.68268 | 10.96236 | 162° | 18km/h | 30321m | 6.5m/s | -44.9°C | 2.3% | 11.8hPa | 2.6V | 00:00:00 | 00:00:00 | 00:00:00 | |
| DF8AY-15 | 2026-09-01 00:28:08 | 52.68269 | 10.96235 | 164° | 16km/h | 30314m | 5.5m/s | -44.9°C | 2.3% | 11.8hPa | 2.6V | 00:00:00 | 02:38:05 | 00:00:00 | |
| DL1NUX | 2026-09-01 00:28:06 | 52.68286 | 10.96195 | 140° | 22km/h | 30275m | 6.6m/s | -45.1°C | 2.3% | 11.9hPa | 2.6V | 03:19:01 | 02:37:58 | 00:00:00 | |
| DF8AY | 2026-09-01 00:28:04 | 52.68277 | 10.96217 | 112° | 20km/h | 30290m | 5.2m/s | -45°C | 0% | 11.9hPa | 2.5V | 03:19:44 | 02:38:01 | 00:00:00 | |
| HSKMA3-T | 2026-09-01 00:28:03 | 52.68279 | 10.96209 | 115° | 22km/h | 30286m | 4.7m/s | -45.1°C | 0% | 11.9hPa | 2.6V | 03:19:44 | 02:38:00 | 00:00:00 | |
| BIOWL1-15 | 2026-09-01 00:28:02 | 52.68282 | 10.96202 | 127° | 24km/h | 30281m | 5.4m/s | -45.1°C | 0% | 11.9hPa | 2.6V | 03:19:44 | 02:37:59 | 00:00:00 | |
| DL1XH-west | 2026-09-01 00:27:59 | 52.68295 | 10.96188 | 169° | 18km/h | 30263m | 4.8m/s | -45.1°C | 0% | 11.9hPa | 2.5V | 03:19:44 | 02:37:56 | 00:00:00 | |
| AA1-15 | 2026-09-01 00:27:58 | 52.68299 | 10.96187 | 174° | 15km/h | 30258m | 4.6m/s | -45.1°C | 0% | 12hPa | 2.5V | 03:19:44 | 02:37:55 | 00:00:00 | |
| GOEST3-10 | 2026-09-01 00:27:58 | 52.68299 | 10.96187 | 174° | 11km/h | 30258m | 4.5m/s | -45.1°C | 2.3% | 11.9hPa | 2.6V | 03:19:00 | 00:00:00 | 00:00:00 | |
| DO2SHX-10 | 2026-09-01 00:27:57 | 52.68302 | 10.96186 | 165° | 13km/h | 30253m | 5.9m/s | -45.1°C | 2.3% | 11.9hPa | 2.6V | 03:19:00 | 02:37:54 | 00:00:00 | |
| DL1XH-15 | 2026-09-01 00:27:56 | 52.68304 | 10.96171 | 96° | 15km/h | 30229m | 5.2m/s | -45.2°C | 2.3% | 12hPa | 2.5V | 03:19:09 | 02:37:50 | 00:00:00 | |
| NBG1-10 | 2026-09-01 00:27:56 | 52.68304 | 10.96184 | 130° | 20km/h | 30247m | 6.8m/s | -45.1°C | 2.3% | 11.9hPa | 2.6V | 00:00:00 | 02:37:53 | 00:00:00 | |
| DL1NUX | 2026-09-01 00:27:55 | 52.68307 | 10.96157 | 128° | 22km/h | 30216m | 6.3m/s | -45.3°C | 2.3% | 12hPa | 2.6V | 03:19:11 | 02:37:48 | 00:00:00 | |
| HSKMA3-T | 2026-09-01 00:27:53 | 52.68304 | 10.96171 | 97° | 15km/h | 30229m | 5.2m/s | -45.2°C | 0% | 12hPa | 2.5V | 03:19:44 | 02:37:50 | 00:00:00 | |
| DF8AY | 2026-09-01 00:27:52 | 52.68305 | 10.96164 | 110° | 16km/h | 30223m | 6.4m/s | -45.3°C | 0% | 12hPa | 2.5V | 03:19:44 | 02:37:49 | 00:00:00 | |
| DL1XH-west | 2026-09-01 00:27:49 | 52.68316 | 10.96143 | 136° | 27km/h | 30205m | 5.4m/s | -45.3°C | 0% | 12hPa | 2.6V | 03:19:44 | 02:37:46 | 00:00:00 | |
| AA1-15 | 2026-09-01 00:27:48 | 52.68326 | 10.96126 | 131° | 27km/h | 30193m | 5.9m/s | -45.4°C | 0% | 12.1hPa | 2.5V | 03:19:44 | 02:37:44 | 00:00:00 | |
| DJ2DS-15 | 2026-09-01 00:27:47 | 52.68330 | 10.96118 | 133° | 24km/h | 30188m | 4.9m/s | -45.4°C | 0.3% | 12.1hPa | 2.6V | 00:00:00 | 00:00:00 | 00:00:00 | |
| DL1XH-15 | 2026-09-01 00:27:46 | 52.68343 | 10.96103 | 161° | 18km/h | 30170m | 6.2m/s | -45.5°C | 2.4% | 12.1hPa | 2.6V | 03:19:19 | 02:37:40 | 00:00:00 | |
| EDDB2-12 | 2026-09-01 00:27:45 | 52.68339 | 10.96107 | 151° | 18km/h | 30177m | 6.6m/s | -45.4°C | 0.3% | 12.1hPa | 2.5V | 00:00:00 | 00:00:00 | 00:00:00 | |
| HSKMA3-T | 2026-09-01 00:27:43 | 52.68347 | 10.96101 | 160° | 16km/h | 30165m | 4.8m/s | -45.5°C | 0% | 12.1hPa | 2.5V | 03:19:44 | 02:37:39 | 00:00:00 | |
| DM0DOS-11 | 2026-09-01 00:27:42 | 52.68353 | 10.96080 | 84° | 22km/h | 30141m | 5.8m/s | -45.6°C | 2.3% | 12.2hPa | 2.6V | 03:19:24 | 02:37:35 | 00:00:00 | |
| DF8AY | 2026-09-01 00:27:42 | 52.68351 | 10.96098 | 143° | 13km/h | 30160m | 4.6m/s | -45.5°C | 0% | 12.1hPa | 2.5V | 03:19:44 | 02:37:38 | 00:00:00 | |
| DL1XH-west | 2026-09-01 00:27:39 | 52.68353 | 10.96088 | 94° | 18km/h | 30148m | 7.1m/s | -45.6°C | 0% | 12.2hPa | 2.6V | 03:19:44 | 02:37:36 | 00:00:00 | |
| DL1XH-15 | 2026-09-01 00:27:38 | 52.68363 | 10.96036 | 143° | 26km/h | 30113m | 5.5m/s | -45.7°C | 2.4% | 12.2hPa | 2.6V | 03:19:29 | 02:37:30 | 00:00:00 | |
| AA1-15 | 2026-09-01 00:27:36 | 52.68353 | 10.96060 | 101° | 24km/h | 30131m | 5m/s | -45.7°C | 0% | 12.2hPa | 2.5V | 03:19:44 | 02:37:33 | 00:00:00 | |
| DF8AY | 2026-09-01 00:27:36 | 52.68373 | 10.96024 | 142° | 26km/h | 30101m | 6.5m/s | -45.8°C | 0% | 12.2hPa | 2.6V | 03:19:44 | 02:37:28 | 00:00:00 | |
| DD8BA-10 | 2026-09-01 00:27:36 | 52.68353 | 10.96060 | 101° | 24km/h | 30131m | 5.0m/s | -45.6°C | 2.4% | 12.1hPa | 2.5V | 00:00:00 | 00:00:00 | 00:00:00 | |
| DL1NUX | 2026-09-01 00:27:35 | 52.68373 | 10.96024 | 142° | 26km/h | 30101m | 6.5m/s | -45.8°C | 2.4% | 12.2hPa | 2.6V | 03:19:31 | 02:37:28 | 00:00:00 | |
| HSKMA3-T | 2026-09-01 00:27:32 | 52.68368 | 10.96030 | 145° | 26km/h | 30107m | 5.9m/s | -45.7°C | 0% | 12.2hPa | 2.6V | 03:19:44 | 02:37:29 | 00:00:00 | |
| DM0DOS-11 | 2026-09-01 00:27:31 | 52.68385 | 10.96002 | 121° | 22km/h | 30083m | 5.5m/s | -45.9°C | 2.4% | 12.3hPa | 2.5V | 03:19:34 | 02:37:25 | 00:00:00 | |
| BIOWL1-15 | 2026-09-01 00:27:29 | 52.68393 | 10.95982 | 123° | 18km/h | 30065m | 5.6m/s | -45.9°C | 0% | 12.3hPa | 2.6V | 03:19:44 | 02:37:22 | 00:00:00 | |
| DL1XH-west | 2026-09-01 00:27:29 | 52.68382 | 10.96010 | 127° | 22km/h | 30089m | 5.7m/s | -45.8°C | 0% | 12.3hPa | 2.5V | 03:19:44 | 02:37:26 | 00:00:00 | |
| DF8AY-15 | 2026-09-01 00:27:28 | 52.68384 | 10.96002 | 122° | 20km/h | 30084m | 5.4m/s | -45.8°C | 2.4% | 12.2hPa | 2.6V | 00:00:00 | 02:37:25 | 00:00:00 | |
| SMARD9-15 | 2026-09-01 00:27:27 | 52.68387 | 10.95995 | 123° | 18km/h | 30078m | 6.3m/s | -45.8°C | 0.3% | 12.3hPa | 2.6V | 00:00:00 | 00:00:00 | 00:00:00 | |
| DG6HD-15 | 2026-09-01 00:27:26 | 52.68387 | 10.95995 | 125° | 20km/h | 30078m | 6.3m/s | -45.8°C | 0.3% | 12.3hPa | 2.6V | 00:00:00 | 00:00:00 | 00:00:00 | |
| DB0DAN | 2026-09-01 00:27:25 | 52.68393 | 10.95982 | 123° | 16km/h | 30065m | 5.6m/s | -45.9°C | 0.3% | 12.3hPa | 2.6V | 00:00:00 | 00:00:00 | 00:00:00 | |
| DL1NUX | 2026-09-01 00:27:25 | 52.68397 | 10.95948 | 89° | 27km/h | 30041m | 6.1m/s | -45.9°C | 2.4% | 12.3hPa | 2.6V | 03:19:41 | 02:37:18 | 00:00:00 | |
| AA1-15 | 2026-09-01 00:27:25 | 52.68395 | 10.95976 | 116° | 18km/h | 30060m | 4.5m/s | -45.9°C | 0% | 12.3hPa | 2.5V | 03:19:44 | 02:37:21 | 00:00:00 | |
| HSKMA3-T | 2026-09-01 00:27:21 | 52.68397 | 10.95948 | 90° | 27km/h | 30041m | 6.1m/s | -45.9°C | 0% | 12.4hPa | 2.6V | 03:19:44 | 02:37:18 | 00:00:00 | |
| DF8AY | 2026-09-01 00:27:19 | 52.68399 | 10.95926 | 106° | 26km/h | 30031m | 5.5m/s | -45.9°C | 0% | 12.4hPa | 2.6V | 03:19:44 | 02:37:16 | 00:00:00 | |
| DO2SHX-10 | 2026-09-01 00:27:19 | 52.68399 | 10.95926 | 107° | 24km/h | 30032m | 5.4m/s | -45.8°C | 2.4% | 12.3hPa | 2.5V | 00:00:00 | 02:37:16 | 00:00:00 | |
| DL1XH-15 | 2026-09-01 00:27:18 | 52.68420 | 10.95886 | 94° | 15km/h | 29990m | 5.6m/s | -45.9°C | 2.4% | 12.4hPa | 2.5V | 03:19:50 | 02:37:09 | 00:00:00 | |
| DL1XH-west | 2026-09-01 00:27:18 | 52.68401 | 10.95917 | 121° | 24km/h | 30025m | 7m/s | -45.9°C | 0% | 12.4hPa | 2.5V | 03:19:44 | 02:37:15 | 00:00:00 | |
| BIOWL1-15 | 2026-09-01 00:27:15 | 52.68430 | 10.95802 | 112° | 20km/h | 29932m | 4.7m/s | -46.1°C | 0% | 12.6hPa | 2.6V | 03:20:35 | 02:36:59 | 00:00:00 | |
| AA1-15 | 2026-09-01 00:27:14 | 52.68420 | 10.95880 | 86° | 15km/h | 29984m | 5.5m/s | -46°C | 0% | 12.5hPa | 2.5V | 03:20:35 | 02:37:08 | 00:00:00 | |
| DL1NUX | 2026-09-01 00:27:13 | 52.68420 | 10.95880 | 86° | 15km/h | 29984m | 5.5m/s | -46°C | 2.4% | 12.5hPa | 2.5V | 03:19:51 | 02:37:08 | 00:00:00 | |
| HSKMA3-T | 2026-09-01 00:27:11 | 52.68419 | 10.95874 | 92° | 16km/h | 29978m | 6.6m/s | -46°C | 0% | 12.4hPa | 2.5V | 03:20:35 | 02:37:07 | 00:00:00 | |
| DM0DOS-11 | 2026-09-01 00:27:11 | 52.68421 | 10.95860 | 107° | 20km/h | 29966m | 5.2m/s | -46°C | 2.4% | 12.5hPa | 2.6V | 03:19:54 | 02:37:05 | 00:00:00 | |
| DF8AY | 2026-09-01 00:27:08 | 52.68421 | 10.95860 | 107° | 20km/h | 29966m | 5.2m/s | -46°C | 0% | 12.5hPa | 2.6V | 03:20:35 | 02:37:05 | 00:00:00 | |
| DL1XH-west | 2026-09-01 00:27:07 | 52.68423 | 10.95851 | 108° | 24km/h | 29961m | 5m/s | -46°C | 0% | 12.5hPa | 2.6V | 03:20:35 | 02:37:04 | 00:00:00 | |
| DL1XH-15 | 2026-09-01 00:27:07 | 52.68429 | 10.95810 | 101° | 24km/h | 29937m | 5.2m/s | -46.1°C | 2.4% | 12.6hPa | 2.6V | 03:19:59 | 02:37:00 | 00:00:00 | |
| DL1NUX | 2026-09-01 00:27:06 | 52.68432 | 10.95795 | 129° | 16km/h | 29927m | 6.2m/s | -46.1°C | 2.5% | 12.6hPa | 2.6V | 03:20:01 | 02:36:58 | 00:00:00 | |
| AA1-15 | 2026-09-01 00:27:04 | 52.68429 | 10.95810 | 101° | 24km/h | 29937m | 5.2m/s | -46.1°C | 0% | 12.6hPa | 2.6V | 03:20:35 | 02:37:00 | 00:00:00 | |
| HSKMA3-T | 2026-09-01 00:27:00 | 52.68438 | 10.95791 | 179° | 13km/h | 29913m | 5.4m/s | -46.2°C | 0% | 12.6hPa | 2.5V | 03:20:35 | 02:36:56 | 00:00:00 | |
| DL1ZP-14 | 2026-09-01 00:27:00 | 52.68438 | 10.95791 | 178° | 11km/h | 29913m | 5.4m/s | -46.2°C | 0.3% | 12.6hPa | 2.5V | 00:00:00 | 00:00:00 | 00:00:00 | |
| AM1SDL-15 | 2026-09-01 00:26:59 | 52.68438 | 10.95790 | 179° | 20km/h | 29914m | 5.3m/s | -46.1°C | 2.5% | 12.5hPa | 2.5V | 00:00:00 | 02:36:56 | 00:00:00 | |
| GOEST3-10 | 2026-09-01 00:26:58 | 52.68441 | 10.95791 | 188° | 13km/h | 29909m | 4.3m/s | -46.1°C | 2.5% | 12.6hPa | 2.5V | 03:20:00 | 00:00:00 | 00:00:00 | |
| DO2SHX-10 | 2026-09-01 00:26:57 | 52.68442 | 10.95790 | 130° | 5km/h | 29904m | 4.5m/s | -46.1°C | 2.5% | 12.6hPa | 2.5V | 00:00:00 | 02:36:54 | 00:00:00 | |
| DL1XH-15 | 2026-09-01 00:26:56 | 52.68431 | 10.95765 | 58° | 33km/h | 29880m | 4.6m/s | -46°C | 2.4% | 12.6hPa | 2.5V | 03:20:09 | 02:36:50 | 00:00:00 | |
| DF8AY | 2026-09-01 00:26:56 | 52.68442 | 10.95789 | 52° | 9km/h | 29898m | 6.8m/s | -46.1°C | 0% | 12.6hPa | 2.6V | 03:20:35 | 02:36:53 | 00:00:00 | |
| AA1-15 | 2026-09-01 00:26:54 | 52.68432 | 10.95765 | 59° | 33km/h | 29880m | 4.6m/s | -46.1°C | 0% | 12.6hPa | 2.5V | 03:20:35 | 02:36:50 | 00:00:00 | |
| HSKMA3-T | 2026-09-01 00:26:49 | 52.68426 | 10.95720 | 108° | 22km/h | 29858m | 5.7m/s | -46°C | 0% | 12.7hPa | 2.6V | 03:20:35 | 02:36:46 | 00:00:00 | |
| DM0DOS-11 | 2026-09-01 00:26:49 | 52.68428 | 10.95712 | 113° | 18km/h | 29852m | 5.7m/s | -46°C | 2.4% | 12.7hPa | 2.5V | 03:20:14 | 02:36:45 | 00:00:00 | |
| BIOWL1-15 | 2026-09-01 00:26:46 | 52.68430 | 10.95702 | 104° | 7km/h | 29840m | 6.1m/s | -45.9°C | 0% | 12.7hPa | 2.5V | 03:20:35 | 02:36:43 | 00:00:00 | |
| DL1XH-15 | 2026-09-01 00:26:46 | 52.68431 | 10.95690 | 91° | 13km/h | 29823m | 6.7m/s | -45.8°C | 2.4% | 12.8hPa | 2.6V | 03:20:19 | 02:36:40 | 00:00:00 | |
| DL1XH-west | 2026-09-01 00:26:45 | 52.68431 | 10.95695 | 89° | 9km/h | 29829m | 5.4m/s | -45.9°C | 0% | 12.8hPa | 2.6V | 03:20:35 | 02:36:41 | 00:00:00 | |
| DL1NUX | 2026-09-01 00:26:44 | 52.68430 | 10.95677 | 77° | 20km/h | 29811m | 5.1m/s | -45.8°C | 2.4% | 12.8hPa | 2.5V | 03:20:21 | 02:36:38 | 00:00:00 | |
| AA1-15 | 2026-09-01 00:26:44 | 52.68431 | 10.95685 | 83° | 16km/h | 29817m | 5.7m/s | -45.8°C | 0% | 12.8hPa | 2.5V | 03:20:35 | 02:36:39 | 00:00:00 | |
| HSKMA3-T | 2026-09-01 00:26:39 | 52.68426 | 10.95658 | 60° | 27km/h | 29799m | 7.2m/s | -45.8°C | 0% | 12.8hPa | 2.6V | 03:20:35 | 02:36:36 | 00:00:00 | |
| DM0DOS-11 | 2026-09-01 00:26:39 | 52.68422 | 10.95649 | 51° | 29km/h | 29793m | 6.6m/s | -45.8°C | 2.4% | 12.8hPa | 2.6V | 03:20:24 | 02:36:35 | 00:00:00 | |
| DB0UT-7 | 2026-09-01 00:26:39 | 52.68425 | 10.95658 | 61° | 16km/h | 29799m | 7.2m/s | -45.7°C | 2.4% | 12.8hPa | 2.6V | 03:20:00 | 02:36:36 | 00:00:00 | |
| GOEST3-10 | 2026-09-01 00:26:38 | 52.68421 | 10.95649 | 52° | 20km/h | 29793m | 6.6m/s | -45.7°C | 2.4% | 12.8hPa | 2.6V | 03:20:00 | 00:00:00 | 00:00:00 | |
| DL1XH-15 | 2026-09-01 00:26:36 | 52.68411 | 10.95621 | 148° | 11km/h | 29764m | 6.4m/s | -45.7°C | 2.4% | 12.9hPa | 2.6V | 03:20:29 | 02:36:30 | 00:00:00 | |
| DL1NUX | 2026-09-01 00:26:36 | 52.68417 | 10.95619 | 184° | 15km/h | 29753m | 4.1m/s | -45.6°C | 2.4% | 12.9hPa | 2.6V | 03:20:31 | 02:36:28 | 00:00:00 | |
| BIOWL1-15 | 2026-09-01 00:26:36 | 52.68415 | 10.95624 | 14° | 16km/h | 29725m | 5.5m/s | -45.5°C | 0% | 13hPa | 2.6V | 03:21:26 | 02:36:23 | 00:00:00 | |
| DF8AY | 2026-09-01 00:26:35 | 52.68410 | 10.95628 | 55° | 15km/h | 29777m | 5.4m/s | -45.7°C | 0% | 12.9hPa | 2.5V | 03:20:35 | 02:36:32 | 00:00:00 | |
| DL1XH-west | 2026-09-01 00:26:34 | 52.68411 | 10.95621 | 148° | 11km/h | 29764m | 6.4m/s | -45.7°C | 0% | 12.9hPa | 2.6V | 03:20:35 | 02:36:30 | 00:00:00 | |
| AA1-15 | 2026-09-01 00:26:31 | 52.68418 | 10.95619 | 184° | 15km/h | 29753m | 4.1m/s | -45.6°C | 0% | 12.9hPa | 2.6V | 03:20:35 | 02:36:28 | 00:00:00 | |
| DL1XH1-15 | 2026-09-01 00:26:30 | 52.68422 | 10.95623 | 329° | 7km/h | 29737m | 6.2m/s | -45.5°C | 2.4% | 12.9hPa | 2.5V | 03:20:34 | 02:36:25 | 00:00:00 | |
| HSKMA3-T | 2026-09-01 00:26:29 | 52.68422 | 10.95621 | 245° | 5km/h | 29743m | 6.2m/s | -45.6°C | 0% | 12.9hPa | 2.5V | 03:20:35 | 02:36:26 | 00:00:00 | |
| HTAHTA | 2026-09-01 00:26:29 | 52.68422 | 10.95623 | 329° | 5km/h | 29737m | 6.2m/s | -45.5°C | 0.3% | 13.0hPa | 2.5V | 00:00:00 | 00:00:00 | 00:00:00 | |
| DF8AY-15 | 2026-09-01 00:26:28 | 52.68421 | 10.95623 | 330° | 18km/h | 29737m | 6.2m/s | -45.5°C | 2.4% | 12.9hPa | 2.5V | 03:20:00 | 02:36:25 | 00:00:00 | |
| SONDE2-11 | 2026-09-01 00:26:27 | 52.68419 | 10.95624 | 354° | 13km/h | 29731m | 5.4m/s | -45.5°C | 0.3% | 13.0hPa | 2.5V | 00:00:00 | 00:00:00 | 00:00:00 | |
| DL1XH-15 | 2026-09-01 00:26:26 | 52.68406 | 10.95611 | 67° | 16km/h | 29707m | 5.8m/s | -45.5°C | 2.3% | 13hPa | 2.5V | 03:20:39 | 02:36:20 | 00:00:00 | |
| DF7PN | 2026-09-01 00:26:26 | 52.68408 | 10.95617 | 49° | 16km/h | 29714m | 6.3m/s | -45.5°C | 0.3% | 13.0hPa | 2.6V | 00:00:00 | 00:00:00 | 00:00:00 | |
| DL1NUX | 2026-09-01 00:26:25 | 52.68404 | 10.95598 | 83° | 13km/h | 29695m | 6.5m/s | -45.4°C | 2.4% | 13hPa | 2.6V | 03:20:41 | 02:36:18 | 00:00:00 | |
| DL1XH-west | 2026-09-01 00:26:24 | 52.68408 | 10.95617 | 50° | 16km/h | 29713m | 6.3m/s | -45.5°C | 0% | 13hPa | 2.5V | 03:21:26 | 02:36:21 | 00:00:00 | |
| BIOWL1-15 | 2026-09-01 00:26:21 | 52.68405 | 10.95598 | 83° | 15km/h | 29695m | 6.5m/s | -45.4°C | 0% | 13hPa | 2.6V | 03:21:26 | 02:36:18 | 00:00:00 | |
| AA1-15 | 2026-09-01 00:26:19 | 52.68405 | 10.95591 | 143° | 7km/h | 29684m | 5.4m/s | -45.4°C | 0% | 13hPa | 2.6V | 03:21:26 | 02:36:16 | 00:00:00 | |
| HSKMA3-T | 2026-09-01 00:26:18 | 52.68407 | 10.95591 | 188° | 9km/h | 29678m | 5.2m/s | -45.4°C | 0% | 13.1hPa | 2.5V | 03:21:26 | 02:36:15 | 00:00:00 | |
| BIOWL9-15 | 2026-09-01 00:26:16 | 52.68416 | 10.95596 | 215° | 13km/h | 29662m | 4.3m/s | -45.4°C | 0.3% | 13.1hPa | 2.5V | 00:00:00 | 00:00:00 | 00:00:00 | |
| DL1NUX | 2026-09-01 00:26:15 | 52.68410 | 10.95614 | 336° | 27km/h | 29638m | 7m/s | -45.7°C | 2.3% | 13.1hPa | 2.5V | 03:20:51 | 02:36:08 | 00:00:00 | |
| DL1XH-west | 2026-09-01 00:26:13 | 52.68418 | 10.95604 | 298° | 13km/h | 29652m | 5.5m/s | -45.5°C | 0% | 13.1hPa | 2.6V | 03:21:26 | 02:36:10 | 00:00:00 | |
| BIOWL1-15 | 2026-09-01 00:26:09 | 52.68396 | 10.95620 | 356° | 27km/h | 29627m | 4.6m/s | -45.8°C | 0% | 13.2hPa | 2.6V | 03:21:26 | 02:36:06 | 00:00:00 | |
| HSKMA3-T | 2026-09-01 00:26:08 | 52.68390 | 10.95619 | 6° | 22km/h | 29621m | 6.1m/s | -45.9°C | 0% | 13.2hPa | 2.6V | 03:21:26 | 02:36:05 | 00:00:00 | |
| DF8AY | 2026-09-01 00:26:07 | 52.68397 | 10.95631 | 245° | 27km/h | 29581m | 5.3m/s | -46°C | 0% | 13.3hPa | 2.6V | 03:21:26 | 02:35:58 | 00:00:00 | |
| DO2SHX-10 | 2026-09-01 00:26:06 | 52.68384 | 10.95615 | 83° | 11km/h | 29610m | 4.9m/s | -45.9°C | 2.3% | 13.2hPa | 2.6V | 03:20:00 | 02:36:03 | 00:00:00 | |
| DL1NUX | 2026-09-01 00:26:04 | 52.68397 | 10.95631 | 244° | 27km/h | 29581m | 5.2m/s | -46°C | 2.4% | 13.3hPa | 2.6V | 03:21:01 | 02:35:58 | 00:00:00 | |
| DL1XH-west | 2026-09-01 00:26:03 | 52.68394 | 10.95622 | 234° | 24km/h | 29587m | 5.8m/s | -46°C | 0% | 13.2hPa | 2.6V | 03:21:26 | 02:35:59 | 00:00:00 | |
| DO3MHA-11 | 2026-09-01 00:26:03 | 52.68390 | 10.95616 | 219° | 18km/h | 29593m | 6.4m/s | -45.9°C | 2.4% | 13.2hPa | 2.6V | 00:00:00 | 02:36:00 | 00:00:00 | |
| DL1XH1-15 | 2026-09-01 00:26:02 | 52.68402 | 10.95659 | 267° | 15km/h | 29566m | 5.8m/s | -46°C | 2.4% | 13.3hPa | 2.5V | 03:21:04 | 02:35:55 | 00:00:00 | |
| AA1-15 | 2026-09-01 00:25:58 | 52.68402 | 10.95659 | 268° | 15km/h | 29566m | 5.8m/s | -46°C | 0% | 13.3hPa | 2.5V | 03:21:26 | 02:35:55 | 00:00:00 | |
| HSKMA3-T | 2026-09-01 00:25:57 | 52.68401 | 10.95663 | 301° | 7km/h | 29560m | 6m/s | -46°C | 0% | 13.3hPa | 2.6V | 03:21:26 | 02:35:54 | 00:00:00 | |
| BIOWL1-15 | 2026-09-01 00:25:55 | 52.68393 | 10.95657 | 35° | 22km/h | 29542m | 5.7m/s | -46°C | 0% | 13.3hPa | 2.5V | 03:21:26 | 02:35:51 | 00:00:00 | |
| DF7PN | 2026-09-01 00:25:55 | 52.68393 | 10.95657 | 35° | 20km/h | 29543m | 5.7m/s | -46.0°C | 0.3% | 13.3hPa | 2.6V | 00:00:00 | 00:00:00 | 00:00:00 | |
| DL1NUX | 2026-09-01 00:25:54 | 52.68379 | 10.95644 | 21° | 15km/h | 29526m | 4.4m/s | -46°C | 2.4% | 13.4hPa | 2.6V | 03:21:11 | 02:35:48 | 00:00:00 | |
| DF8AY | 2026-09-01 00:25:53 | 52.68379 | 10.95644 | 22° | 15km/h | 29526m | 4.4m/s | -46°C | 0% | 13.4hPa | 2.6V | 03:21:26 | 02:35:48 | 00:00:00 | |
| DM0DOS-11 | 2026-09-01 00:25:52 | 52.68379 | 10.95642 | 179° | 15km/h | 29509m | 6.8m/s | -45.9°C | 2.3% | 13.4hPa | 2.5V | 03:21:14 | 02:35:45 | 00:00:00 | |
| DL1XH-west | 2026-09-01 00:25:52 | 52.68383 | 10.95647 | 26° | 20km/h | 29531m | 5.2m/s | -46°C | 0% | 13.4hPa | 2.5V | 03:21:26 | 02:35:49 | 00:00:00 | |
| AA1-15 | 2026-09-01 00:25:47 | 52.68384 | 10.95642 | 181° | 22km/h | 29503m | 6.2m/s | -45.9°C | 0% | 13.4hPa | 2.5V | 03:21:26 | 02:35:44 | 00:00:00 | |
| DO2SHX-10 | 2026-09-01 00:25:47 | 52.68384 | 10.95642 | 181° | 24km/h | 29503m | 6.1m/s | -45.9°C | 2.4% | 13.4hPa | 2.5V | 03:21:00 | 02:35:44 | 00:00:00 | |
| DL1XH-15 | 2026-09-01 00:25:46 | 52.68404 | 10.95654 | 290° | 9km/h | 29477m | 5.3m/s | -45.9°C | 2.5% | 13.5hPa | 2.5V | 03:21:20 | 02:35:39 | 00:00:00 | |
| HSKMA3-T | 2026-09-01 00:25:46 | 52.68390 | 10.95642 | 186° | 26km/h | 29497m | 4.6m/s | -45.9°C | 0% | 13.4hPa | 2.5V | 03:21:26 | 02:35:43 | 00:00:00 | |
| DF8AY-15 | 2026-09-01 00:25:46 | 52.68390 | 10.95642 | 187° | 16km/h | 29497m | 4.5m/s | -45.9°C | 2.4% | 13.4hPa | 2.5V | 00:00:00 | 02:35:43 | 00:00:00 | |
| TFSTFS | 2026-09-01 00:25:45 | 52.68390 | 10.95642 | 187° | 26km/h | 29497m | 4.6m/s | -45.9°C | 0.3% | 13.4hPa | 2.5V | 00:00:00 | 00:00:00 | 00:00:00 | |
| DL1NUX | 2026-09-01 00:25:44 | 52.68402 | 10.95656 | 340° | 11km/h | 29471m | 4.7m/s | -45.9°C | 2.3% | 13.5hPa | 2.5V | 03:21:21 | 02:35:38 | 00:00:00 | |
| DO2SHX-10 | 2026-09-01 00:25:44 | 52.68401 | 10.95647 | 208° | 13km/h | 29488m | 5.4m/s | -45.9°C | 2.3% | 13.4hPa | 2.6V | 00:00:00 | 02:35:41 | 00:00:00 | |
| DB0NH | 2026-09-01 00:25:43 | 52.68403 | 10.95650 | 232° | 16km/h | 29483m | 6.0m/s | -45.8°C | 2.4% | 13.4hPa | 2.6V | 00:00:00 | 02:35:40 | 00:00:00 | |
| DL1XH1-15 | 2026-09-01 00:25:42 | 52.68395 | 10.95648 | 74° | 16km/h | 29454m | 5.3m/s | -46°C | 2.3% | 13.5hPa | 2.6V | 03:21:24 | 02:35:35 | 00:00:00 | |
| DL1XH-west | 2026-09-01 00:25:41 | 52.68403 | 10.95656 | 341° | 11km/h | 29471m | 4.7m/s | -45.9°C | 0% | 13.5hPa | 2.5V | 03:21:26 | 02:35:38 | 00:00:00 | |
| AA1-15 | 2026-09-01 00:25:37 | 52.68395 | 10.95640 | 99° | 20km/h | 29449m | 5m/s | -46°C | 0% | 13.5hPa | 2.6V | 03:21:26 | 02:35:34 | 00:00:00 | |
| BIOWL1-15 | 2026-09-01 00:25:36 | 52.68397 | 10.95633 | 121° | 20km/h | 29445m | 4.6m/s | -46.1°C | 0% | 13.6hPa | 2.5V | 03:21:26 | 02:35:33 | 00:00:00 | |
| DL4BBY-15 | 2026-09-01 00:25:36 | 52.68397 | 10.95632 | 121° | 18km/h | 29445m | 4.6m/s | -45.7°C | 0% | 0hPa | 2.6V | 00:00:00 | 00:00:00 | 00:00:00 | |
| DL1NUX | 2026-09-01 00:25:35 | 52.68420 | 10.95625 | 199° | 24km/h | 29416m | 4.9m/s | -46.3°C | 2.4% | 13.6hPa | 2.6V | 03:21:31 | 02:35:28 | 00:00:00 | |
| HSKMA3-T | 2026-09-01 00:25:34 | 52.68404 | 10.95622 | 162° | 18km/h | 29433m | 6.2m/s | -46.2°C | 0% | 13.6hPa | 2.5V | 03:22:17 | 02:35:31 | 00:00:00 | |
| DL1XH-west | 2026-09-01 00:25:30 | 52.68430 | 10.95630 | 186° | 18km/h | 29405m | 5.5m/s | -46.4°C | 0% | 13.6hPa | 2.5V | 03:22:17 | 02:35:26 | 00:00:00 | |
| DM0DOS-11 | 2026-09-01 00:25:29 | 52.68435 | 10.95630 | 169° | 15km/h | 29400m | 4.8m/s | -46.4°C | 2.4% | 13.6hPa | 2.5V | 03:21:34 | 02:35:25 | 00:00:00 | |
| AA1-15 | 2026-09-01 00:25:27 | 52.68438 | 10.95628 | 152° | 11km/h | 29395m | 5m/s | -46.4°C | 0% | 13.7hPa | 2.6V | 03:22:17 | 02:35:24 | 00:00:00 | |
| DL1ZP-14 | 2026-09-01 00:25:27 | 52.68440 | 10.95626 | 129° | 7km/h | 29390m | 6.3m/s | -46.5°C | 0.3% | 13.6hPa | 2.6V | 00:00:00 | 00:00:00 | 00:00:00 | |
| DO2SHX-10 | 2026-09-01 00:25:26 | 52.68440 | 10.95626 | 130° | 7km/h | 29390m | 6.2m/s | -46.4°C | 2.4% | 13.6hPa | 2.6V | 00:00:00 | 02:35:23 | 00:00:00 | |
| DL1NUX | 2026-09-01 00:25:25 | 52.68445 | 10.95609 | 133° | 20km/h | 29362m | 6.7m/s | -46.7°C | 2.5% | 13.7hPa | 2.6V | 03:21:41 | 02:35:18 | 00:00:00 | |
| HSKMA3-T | 2026-09-01 00:25:23 | 52.68441 | 10.95618 | 110° | 9km/h | 29372m | 4.4m/s | -46.6°C | 0% | 13.7hPa | 2.5V | 03:22:17 | 02:35:20 | 00:00:00 | |
| GOEST3-10 | 2026-09-01 00:25:23 | 52.68441 | 10.95618 | 110° | 18km/h | 29372m | 4.3m/s | -46.5°C | 2.4% | 13.6hPa | 2.5V | 00:00:00 | 02:35:20 | 00:00:00 | |
| DO2SHX-10 | 2026-09-01 00:25:22 | 52.68442 | 10.95614 | 125° | 16km/h | 29367m | 4.8m/s | -46.6°C | 2.4% | 13.6hPa | 2.5V | 00:00:00 | 02:35:19 | 00:00:00 | |
| DF8AY | 2026-09-01 00:25:22 | 52.68476 | 10.95586 | 181° | 20km/h | 29336m | 5.8m/s | -47°C | 0% | 13.8hPa | 2.5V | 03:23:59 | 02:35:13 | 00:00:00 | |
| DG6HD-15 | 2026-09-01 00:25:20 | 52.68445 | 10.95608 | 134° | 20km/h | 29362m | 6.7m/s | -46.7°C | 0.3% | 13.7hPa | 2.5V | 00:00:00 | 00:00:00 | 00:00:00 | |
| DM0DOS-11 | 2026-09-01 00:25:19 | 52.68463 | 10.95590 | 160° | 31km/h | 29346m | 3.9m/s | -46.9°C | 2.5% | 13.7hPa | 2.5V | 03:21:44 | 02:35:15 | 00:00:00 | |
| DL1XH-west | 2026-09-01 00:25:18 | 52.68463 | 10.95590 | 161° | 31km/h | 29346m | 3.9m/s | -46.9°C | 0% | 13.7hPa | 2.5V | 03:22:17 | 02:35:15 | 00:00:00 | |
| AA1-15 | 2026-09-01 00:25:17 | 52.68470 | 10.95587 | 171° | 27km/h | 29341m | 5m/s | -46.9°C | 0% | 13.8hPa | 2.5V | 03:22:17 | 02:35:14 | 00:00:00 | |
| DO2SHX-10 | 2026-09-01 00:25:16 | 52.68476 | 10.95586 | 182° | 9km/h | 29336m | 5.8m/s | -46.9°C | 2.5% | 13.7hPa | 2.5V | 00:00:00 | 02:35:13 | 00:00:00 | |
| DL1NUX | 2026-09-01 00:25:14 | 52.68482 | 10.95585 | 86° | 13km/h | 29310m | 5.8m/s | -47.1°C | 2.5% | 13.8hPa | 2.5V | 03:21:51 | 02:35:08 | 00:00:00 | |
| HSKMA3-T | 2026-09-01 00:25:13 | 52.68483 | 10.95590 | 348° | 2km/h | 29320m | 4.7m/s | -47.1°C | 0% | 13.8hPa | 2.6V | 03:22:17 | 02:35:10 | 00:00:00 | |
| BIOWL1-15 | 2026-09-01 00:25:12 | 52.68484 | 10.95569 | 114° | 26km/h | 29299m | 5.2m/s | -47.2°C | 0% | 13.9hPa | 2.6V | 03:23:08 | 02:35:06 | 00:00:00 | |
| DO2SHX-10 | 2026-09-01 00:25:12 | 52.68482 | 10.95589 | 65° | 20km/h | 29316m | 5.8m/s | -47.0°C | 2.4% | 13.8hPa | 2.6V | 00:00:00 | 02:35:09 | 00:00:00 | |
| DM0DOS-11 | 2026-09-01 00:25:09 | 52.68487 | 10.95560 | 126° | 27km/h | 29293m | 5.2m/s | -47.2°C | 2.5% | 13.9hPa | 2.6V | 03:21:54 | 02:35:05 | 00:00:00 | |
| DL1XH-west | 2026-09-01 00:25:08 | 52.68487 | 10.95560 | 127° | 27km/h | 29293m | 5.2m/s | -47.2°C | 0% | 13.9hPa | 2.6V | 03:22:17 | 02:35:05 | 00:00:00 | |
| AA1-15 | 2026-09-01 00:25:07 | 52.68498 | 10.95546 | 158° | 26km/h | 29283m | 5.4m/s | -47.3°C | 0% | 13.9hPa | 2.5V | 03:22:17 | 02:35:03 | 00:00:00 | |
| DL4BBY-15 | 2026-09-01 00:25:06 | 52.68498 | 10.95546 | 158° | 22km/h | 29283m | 5.3m/s | -46.9°C | 0% | 0hPa | 2.6V | 00:00:00 | 00:00:00 | 00:00:00 | |
| DF7ER-10 | 2026-09-01 00:25:05 | 52.68498 | 10.95546 | 159° | 26km/h | 29283m | 5.4m/s | -47.3°C | 0.4% | 13.9hPa | 2.6V | 03:22:00 | 00:00:00 | 00:00:00 | |
| DL1NUX | 2026-09-01 00:25:04 | 52.68518 | 10.95539 | 119° | 13km/h | 29257m | 6.4m/s | -47.5°C | 2.5% | 13.9hPa | 2.6V | 03:22:01 | 02:34:58 | 00:00:00 | |
| GOEST3-10 | 2026-09-01 00:25:04 | 52.68513 | 10.95542 | 179° | 15km/h | 29268m | 5.2m/s | -47.4°C | 2.5% | 13.9hPa | 2.6V | 00:00:00 | 02:35:00 | 00:00:00 | |
| DO3MHA-11 | 2026-09-01 00:25:03 | 52.68513 | 10.95542 | 179° | 16km/h | 29268m | 5.2m/s | -47.4°C | 2.5% | 13.9hPa | 2.5V | 00:00:00 | 02:35:00 | 00:00:00 | |
| HSKMA3-T | 2026-09-01 00:25:03 | 52.68513 | 10.95543 | 178° | 13km/h | 29268m | 5.2m/s | -47.4°C | 0% | 13.9hPa | 2.6V | 03:22:17 | 02:35:00 | 00:00:00 | |
| DO2SHX-10 | 2026-09-01 00:25:01 | 52.68518 | 10.95539 | 120° | 20km/h | 29257m | 6.3m/s | -47.5°C | 2.5% | 13.9hPa | 2.5V | 00:00:00 | 02:34:58 | 00:00:00 | |
| DL1XH1-15 | 2026-09-01 00:24:59 | 52.68522 | 10.95515 | 111° | 26km/h | 29239m | 5.4m/s | -47.6°C | 2.6% | 14hPa | 2.5V | 03:22:04 | 02:34:55 | 00:00:00 | |
| DF8AY | 2026-09-01 00:24:57 | 52.68525 | 10.95505 | 123° | 27km/h | 29234m | 5.9m/s | -47.7°C | 0% | 14hPa | 2.6V | 03:23:59 | 02:34:54 | 00:00:00 | |
| DL1XH-15 | 2026-09-01 00:24:57 | 52.68549 | 10.95472 | 140° | 20km/h | 29205m | 6.4m/s | -47.9°C | 2.6% | 14hPa | 2.5V | 03:22:10 | 02:34:49 | 00:00:00 | |
| AA1-15 | 2026-09-01 00:24:56 | 52.68529 | 10.95496 | 133° | 27km/h | 29227m | 5.9m/s | -47.7°C | 0% | 14hPa | 2.6V | 03:22:17 | 02:34:53 | 00:00:00 | |
| DD8BA-10 | 2026-09-01 00:24:56 | 52.68529 | 10.95496 | 133° | 20km/h | 29228m | 5.8m/s | -47.7°C | 2.6% | 13.9hPa | 2.6V | 00:00:00 | 00:00:00 | 00:00:00 | |
| DF7ER-10 | 2026-09-01 00:24:55 | 52.68530 | 10.95496 | 134° | 27km/h | 29228m | 5.9m/s | -47.7°C | 0.4% | 14.0hPa | 2.6V | 03:22:00 | 00:00:00 | 00:00:00 | |
| DL1NUX | 2026-09-01 00:24:54 | 52.68552 | 10.95467 | 133° | 16km/h | 29198m | 5.6m/s | -48°C | 2.6% | 14.1hPa | 2.6V | 03:22:11 | 02:34:48 | 00:00:00 | |
| DL1XH1-15 | 2026-09-01 00:24:53 | 52.68562 | 10.95453 | 146° | 18km/h | 29182m | 6.5m/s | -48.1°C | 2.7% | 14.1hPa | 2.5V | 03:22:14 | 02:34:45 | 00:00:00 | |
| HSKMA3-T | 2026-09-01 00:24:53 | 52.68545 | 10.95477 | 147° | 22km/h | 29211m | 5.7m/s | -47.9°C | 0% | 14hPa | 2.5V | 03:22:17 | 02:34:50 | 00:00:00 | |
| DL1XH-west | 2026-09-01 00:24:47 | 52.68566 | 10.95448 | 148° | 22km/h | 29176m | 5.6m/s | -48.1°C | 0% | 14.1hPa | 2.5V | 03:22:17 | 02:34:44 | 00:00:00 | |
| AA1-15 | 2026-09-01 00:24:46 | 52.68571 | 10.95443 | 147° | 24km/h | 29170m | 4.6m/s | -48.1°C | 0% | 14.1hPa | 2.5V | 03:22:17 | 02:34:43 | 00:00:00 | |
| Es werden nur die letzten 3500 von 8629 Frames angezeigt. GPX/KML und Diagramme bleiben verfügbar. | |||||||||||||||